<?xml version='1.0' encoding='UTF-8'?><gpx version="1.1" creator="JPX - https://github.com/jenetics/jpx" xmlns="http://www.topografix.com/GPX/1/1"><trk><trkseg><trkpt lat="41.0077933" lon="15.6282983"><ele>534.0</ele><time>2026-04-19T05:25:21.996Z</time></trkpt><trkpt lat="41.0077617" lon="15.628195"><ele>534.0</ele><time>2026-04-19T05:25:23.996Z</time></trkpt><trkpt lat="41.00776" lon="15.628085"><ele>534.0</ele><time>2026-04-19T05:25:25.996Z</time></trkpt><trkpt lat="41.007825" lon="15.627985"><ele>534.0</ele><time>2026-04-19T05:25:27.996Z</time></trkpt><trkpt lat="41.007885" lon="15.6279467"><ele>534.0</ele><time>2026-04-19T05:25:28.996Z</time></trkpt><trkpt lat="41.0079517" lon="15.62791"><ele>534.0</ele><time>2026-04-19T05:25:29.996Z</time></trkpt><trkpt lat="41.008025" lon="15.62787"><ele>534.0</ele><time>2026-04-19T05:25:30.996Z</time></trkpt><trkpt lat="41.0081083" lon="15.6278283"><ele>534.0</ele><time>2026-04-19T05:25:31.996Z</time></trkpt><trkpt lat="41.0081983" lon="15.6277833"><ele>534.0</ele><time>2026-04-19T05:25:32.997Z</time></trkpt><trkpt lat="41.0082967" lon="15.627735"><ele>534.0</ele><time>2026-04-19T05:25:33.996Z</time></trkpt><trkpt lat="41.0084" lon="15.6276833"><ele>534.0</ele><time>2026-04-19T05:25:34.997Z</time></trkpt><trkpt lat="41.008505" lon="15.6276283"><ele>535.0</ele><time>2026-04-19T05:25:35.996Z</time></trkpt><trkpt lat="41.008615" lon="15.6275717"><ele>536.0</ele><time>2026-04-19T05:25:36.997Z</time></trkpt><trkpt lat="41.0087283" lon="15.627515"><ele>537.0</ele><time>2026-04-19T05:25:37.996Z</time></trkpt><trkpt lat="41.0088467" lon="15.6274567"><ele>538.0</ele><time>2026-04-19T05:25:38.996Z</time></trkpt><trkpt lat="41.0089633" lon="15.6273983"><ele>538.0</ele><time>2026-04-19T05:25:39.996Z</time></trkpt><trkpt lat="41.0090817" lon="15.6273367"><ele>538.0</ele><time>2026-04-19T05:25:40.997Z</time></trkpt><trkpt lat="41.0092017" lon="15.6272733"><ele>538.0</ele><time>2026-04-19T05:25:41.996Z</time></trkpt><trkpt lat="41.009325" lon="15.6272067"><ele>538.0</ele><time>2026-04-19T05:25:42.997Z</time></trkpt><trkpt lat="41.0094483" lon="15.6271417"><ele>537.25</ele><time>2026-04-19T05:25:43.997Z</time></trkpt><trkpt lat="41.009575" lon="15.6270767"><ele>536.5</ele><time>2026-04-19T05:25:44.996Z</time></trkpt><trkpt lat="41.0097017" lon="15.6270133"><ele>535.75</ele><time>2026-04-19T05:25:45.996Z</time></trkpt><trkpt lat="41.0098317" lon="15.6269483"><ele>535.0</ele><time>2026-04-19T05:25:46.996Z</time></trkpt><trkpt lat="41.0099667" lon="15.6268833"><ele>536.0</ele><time>2026-04-19T05:25:47.997Z</time></trkpt><trkpt lat="41.010105" lon="15.62682"><ele>537.0</ele><time>2026-04-19T05:25:48.996Z</time></trkpt><trkpt lat="41.0102467" lon="15.6267617"><ele>538.0</ele><time>2026-04-19T05:25:49.996Z</time></trkpt><trkpt lat="41.01039" lon="15.6267017"><ele>539.0</ele><time>2026-04-19T05:25:50.996Z</time></trkpt><trkpt lat="41.0105367" lon="15.62665"><ele>539.0</ele><time>2026-04-19T05:25:51.996Z</time></trkpt><trkpt lat="41.0106817" lon="15.6266"><ele>539.0</ele><time>2026-04-19T05:25:52.996Z</time></trkpt><trkpt lat="41.0108283" lon="15.626555"><ele>539.0</ele><time>2026-04-19T05:25:53.996Z</time></trkpt><trkpt lat="41.0109783" lon="15.6265133"><ele>542.3333333333333</ele><time>2026-04-19T05:25:54.996Z</time></trkpt><trkpt lat="41.0111267" lon="15.6264767"><ele>545.6666666666666</ele><time>2026-04-19T05:25:55.996Z</time></trkpt><trkpt lat="41.0112767" lon="15.6264417"><ele>549.0</ele><time>2026-04-19T05:25:56.996Z</time></trkpt><trkpt lat="41.0114267" lon="15.6264133"><ele>549.0</ele><time>2026-04-19T05:25:57.996Z</time></trkpt><trkpt lat="41.0115767" lon="15.6263933"><ele>549.0</ele><time>2026-04-19T05:25:58.996Z</time></trkpt><trkpt lat="41.0117283" lon="15.6263783"><ele>549.0</ele><time>2026-04-19T05:25:59.996Z</time></trkpt><trkpt lat="41.01188" lon="15.6263683"><ele>549.0</ele><time>2026-04-19T05:26:00.996Z</time></trkpt><trkpt lat="41.0120317" lon="15.6263617"><ele>549.0</ele><time>2026-04-19T05:26:01.996Z</time></trkpt><trkpt lat="41.0121867" lon="15.6263583"><ele>549.0</ele><time>2026-04-19T05:26:02.996Z</time></trkpt><trkpt lat="41.0123417" lon="15.6263617"><ele>547.0</ele><time>2026-04-19T05:26:03.996Z</time></trkpt><trkpt lat="41.0125" lon="15.6263717"><ele>545.0</ele><time>2026-04-19T05:26:04.996Z</time></trkpt><trkpt lat="41.0126583" lon="15.62639"><ele>543.0</ele><time>2026-04-19T05:26:05.996Z</time></trkpt><trkpt lat="41.0128167" lon="15.62641"><ele>543.0</ele><time>2026-04-19T05:26:06.996Z</time></trkpt><trkpt lat="41.012975" lon="15.6264333"><ele>543.0</ele><time>2026-04-19T05:26:07.996Z</time></trkpt><trkpt lat="41.013135" lon="15.6264617"><ele>543.0</ele><time>2026-04-19T05:26:08.996Z</time></trkpt><trkpt lat="41.0132933" lon="15.6264833"><ele>546.6666666666666</ele><time>2026-04-19T05:26:09.997Z</time></trkpt><trkpt lat="41.0134517" lon="15.62651"><ele>550.3333333333333</ele><time>2026-04-19T05:26:10.996Z</time></trkpt><trkpt lat="41.0136133" lon="15.6265383"><ele>554.0</ele><time>2026-04-19T05:26:11.996Z</time></trkpt><trkpt lat="41.0137767" lon="15.6265633"><ele>554.0</ele><time>2026-04-19T05:26:12.997Z</time></trkpt><trkpt lat="41.01394" lon="15.626585"><ele>554.0</ele><time>2026-04-19T05:26:13.997Z</time></trkpt><trkpt lat="41.0141017" lon="15.6266133"><ele>554.0</ele><time>2026-04-19T05:26:14.996Z</time></trkpt><trkpt lat="41.0142667" lon="15.626635"><ele>556.3333333333333</ele><time>2026-04-19T05:26:15.996Z</time></trkpt><trkpt lat="41.0144317" lon="15.6266567"><ele>558.6666666666666</ele><time>2026-04-19T05:26:16.997Z</time></trkpt><trkpt lat="41.0145983" lon="15.6266817"><ele>561.0</ele><time>2026-04-19T05:26:17.996Z</time></trkpt><trkpt lat="41.014765" lon="15.6267083"><ele>561.0</ele><time>2026-04-19T05:26:18.996Z</time></trkpt><trkpt lat="41.0149335" lon="15.6267271"><ele>561.0</ele><time>2026-04-19T05:26:19.996Z</time></trkpt><trkpt lat="41.0151033" lon="15.6267444"><ele>561.0</ele><time>2026-04-19T05:26:20.996Z</time></trkpt><trkpt lat="41.0152744" lon="15.6267647"><ele>560.6666666666666</ele><time>2026-04-19T05:26:21.996Z</time></trkpt><trkpt lat="41.0154448" lon="15.626786"><ele>560.3333333333333</ele><time>2026-04-19T05:26:22.996Z</time></trkpt><trkpt lat="41.0156163" lon="15.6268099"><ele>560.0</ele><time>2026-04-19T05:26:23.996Z</time></trkpt><trkpt lat="41.015788" lon="15.6268334"><ele>560.3333333333333</ele><time>2026-04-19T05:26:24.997Z</time></trkpt><trkpt lat="41.0159598" lon="15.626858"><ele>560.6666666666666</ele><time>2026-04-19T05:26:25.996Z</time></trkpt><trkpt lat="41.0161316" lon="15.6268818"><ele>561.0</ele><time>2026-04-19T05:26:26.996Z</time></trkpt><trkpt lat="41.0163043" lon="15.6269074"><ele>561.0</ele><time>2026-04-19T05:26:27.996Z</time></trkpt><trkpt lat="41.0164788" lon="15.6269282"><ele>561.0</ele><time>2026-04-19T05:26:28.996Z</time></trkpt><trkpt lat="41.0166502" lon="15.6269529"><ele>561.0</ele><time>2026-04-19T05:26:29.997Z</time></trkpt><trkpt lat="41.0168202" lon="15.6269731"><ele>564.6666666666666</ele><time>2026-04-19T05:26:30.996Z</time></trkpt><trkpt lat="41.0169942" lon="15.6269897"><ele>568.3333333333333</ele><time>2026-04-19T05:26:31.996Z</time></trkpt><trkpt lat="41.0171748" lon="15.627006"><ele>572.0</ele><time>2026-04-19T05:26:32.996Z</time></trkpt><trkpt lat="41.0173569" lon="15.6270098"><ele>572.0</ele><time>2026-04-19T05:26:33.996Z</time></trkpt><trkpt lat="41.0175456" lon="15.6270061"><ele>572.0</ele><time>2026-04-19T05:26:34.996Z</time></trkpt><trkpt lat="41.0177386" lon="15.6269978"><ele>572.0</ele><time>2026-04-19T05:26:35.996Z</time></trkpt><trkpt lat="41.0179274" lon="15.6269874"><ele>571.0</ele><time>2026-04-19T05:26:36.996Z</time></trkpt><trkpt lat="41.0181055" lon="15.6269529"><ele>570.0</ele><time>2026-04-19T05:26:37.996Z</time></trkpt><trkpt lat="41.0182458" lon="15.6268348"><ele>569.0</ele><time>2026-04-19T05:26:38.997Z</time></trkpt><trkpt lat="41.0183806" lon="15.6266612"><ele>567.3333333333333</ele><time>2026-04-19T05:26:39.997Z</time></trkpt><trkpt lat="41.018534" lon="15.6265365"><ele>565.6666666666666</ele><time>2026-04-19T05:26:40.996Z</time></trkpt><trkpt lat="41.0186978" lon="15.6264286"><ele>564.0</ele><time>2026-04-19T05:26:41.996Z</time></trkpt><trkpt lat="41.0188611" lon="15.6263155"><ele>564.0</ele><time>2026-04-19T05:26:42.996Z</time></trkpt><trkpt lat="41.0190216" lon="15.6261974"><ele>564.0</ele><time>2026-04-19T05:26:43.997Z</time></trkpt><trkpt lat="41.019183" lon="15.6260799"><ele>564.0</ele><time>2026-04-19T05:26:44.996Z</time></trkpt><trkpt lat="41.0193451" lon="15.6259614"><ele>562.0</ele><time>2026-04-19T05:26:45.997Z</time></trkpt><trkpt lat="41.0195084" lon="15.6258427"><ele>560.0</ele><time>2026-04-19T05:26:46.996Z</time></trkpt><trkpt lat="41.0196747" lon="15.6257249"><ele>558.0</ele><time>2026-04-19T05:26:47.996Z</time></trkpt><trkpt lat="41.0198403" lon="15.6256077"><ele>555.3333333333334</ele><time>2026-04-19T05:26:48.996Z</time></trkpt><trkpt lat="41.0200082" lon="15.6254861"><ele>552.6666666666667</ele><time>2026-04-19T05:26:49.996Z</time></trkpt><trkpt lat="41.0201769" lon="15.6253665"><ele>550.0</ele><time>2026-04-19T05:26:50.997Z</time></trkpt><trkpt lat="41.0203418" lon="15.6252375"><ele>550.0</ele><time>2026-04-19T05:26:51.996Z</time></trkpt><trkpt lat="41.020509" lon="15.6251134"><ele>550.0</ele><time>2026-04-19T05:26:52.997Z</time></trkpt><trkpt lat="41.020677" lon="15.6249898"><ele>550.0</ele><time>2026-04-19T05:26:53.996Z</time></trkpt><trkpt lat="41.0208464" lon="15.624871"><ele>547.6666666666667</ele><time>2026-04-19T05:26:54.996Z</time></trkpt><trkpt lat="41.0210171" lon="15.6247526"><ele>545.3333333333334</ele><time>2026-04-19T05:26:55.996Z</time></trkpt><trkpt lat="41.0211854" lon="15.6246261"><ele>543.0</ele><time>2026-04-19T05:26:56.996Z</time></trkpt><trkpt lat="41.0213548" lon="15.624504"><ele>543.3333333333334</ele><time>2026-04-19T05:26:57.997Z</time></trkpt><trkpt lat="41.0215235" lon="15.6243799"><ele>543.6666666666667</ele><time>2026-04-19T05:26:58.996Z</time></trkpt><trkpt lat="41.0216943" lon="15.6242599"><ele>544.0</ele><time>2026-04-19T05:26:59.996Z</time></trkpt><trkpt lat="41.021866" lon="15.6241409"><ele>544.0</ele><time>2026-04-19T05:27:00.996Z</time></trkpt><trkpt lat="41.0220347" lon="15.6240171"><ele>544.0</ele><time>2026-04-19T05:27:01.997Z</time></trkpt><trkpt lat="41.0222044" lon="15.6238933"><ele>544.0</ele><time>2026-04-19T05:27:02.996Z</time></trkpt><trkpt lat="41.0223743" lon="15.6237722"><ele>540.3333333333334</ele><time>2026-04-19T05:27:03.996Z</time></trkpt><trkpt lat="41.0225442" lon="15.6236496"><ele>536.6666666666666</ele><time>2026-04-19T05:27:04.997Z</time></trkpt><trkpt lat="41.0227157" lon="15.6235286"><ele>533.0</ele><time>2026-04-19T05:27:05.996Z</time></trkpt><trkpt lat="41.0228867" lon="15.6234079"><ele>533.0</ele><time>2026-04-19T05:27:06.996Z</time></trkpt><trkpt lat="41.0230575" lon="15.6232895"><ele>533.0</ele><time>2026-04-19T05:27:07.996Z</time></trkpt><trkpt lat="41.0232263" lon="15.6231677"><ele>533.0</ele><time>2026-04-19T05:27:08.996Z</time></trkpt><trkpt lat="41.0233936" lon="15.623046"><ele>528.6666666666666</ele><time>2026-04-19T05:27:09.996Z</time></trkpt><trkpt lat="41.0235604" lon="15.6229243"><ele>524.3333333333334</ele><time>2026-04-19T05:27:10.996Z</time></trkpt><trkpt lat="41.0237252" lon="15.6228031"><ele>520.0</ele><time>2026-04-19T05:27:11.996Z</time></trkpt><trkpt lat="41.0238868" lon="15.6226745"><ele>520.0</ele><time>2026-04-19T05:27:12.997Z</time></trkpt><trkpt lat="41.0240451" lon="15.622543"><ele>520.0</ele><time>2026-04-19T05:27:13.997Z</time></trkpt><trkpt lat="41.0241958" lon="15.6223992"><ele>520.0</ele><time>2026-04-19T05:27:14.996Z</time></trkpt><trkpt lat="41.0243405" lon="15.622246"><ele>517.3333333333334</ele><time>2026-04-19T05:27:15.997Z</time></trkpt><trkpt lat="41.0244777" lon="15.6220816"><ele>514.6666666666666</ele><time>2026-04-19T05:27:16.996Z</time></trkpt><trkpt lat="41.0246101" lon="15.621912"><ele>512.0</ele><time>2026-04-19T05:27:17.997Z</time></trkpt><trkpt lat="41.0247353" lon="15.6217327"><ele>510.0</ele><time>2026-04-19T05:27:18.996Z</time></trkpt><trkpt lat="41.0248538" lon="15.6215488"><ele>508.0</ele><time>2026-04-19T05:27:19.996Z</time></trkpt><trkpt lat="41.0249629" lon="15.6213574"><ele>506.0</ele><time>2026-04-19T05:27:20.996Z</time></trkpt><trkpt lat="41.0250642" lon="15.6211592"><ele>501.66666666666663</ele><time>2026-04-19T05:27:21.996Z</time></trkpt><trkpt lat="41.0251571" lon="15.6209528"><ele>497.33333333333337</ele><time>2026-04-19T05:27:22.996Z</time></trkpt><trkpt lat="41.0252346" lon="15.6207388"><ele>493.0</ele><time>2026-04-19T05:27:23.996Z</time></trkpt><trkpt lat="41.0253063" lon="15.6205286"><ele>493.0</ele><time>2026-04-19T05:27:24.996Z</time></trkpt><trkpt lat="41.0253722" lon="15.6203241"><ele>493.0</ele><time>2026-04-19T05:27:25.996Z</time></trkpt><trkpt lat="41.0254337" lon="15.6201244"><ele>493.0</ele><time>2026-04-19T05:27:26.996Z</time></trkpt><trkpt lat="41.0254963" lon="15.6199347"><ele>489.25</ele><time>2026-04-19T05:27:27.996Z</time></trkpt><trkpt lat="41.0255562" lon="15.61975"><ele>485.5</ele><time>2026-04-19T05:27:28.996Z</time></trkpt><trkpt lat="41.0256123" lon="15.6195756"><ele>481.75</ele><time>2026-04-19T05:27:29.996Z</time></trkpt><trkpt lat="41.0256624" lon="15.6194205"><ele>478.0</ele><time>2026-04-19T05:27:30.996Z</time></trkpt><trkpt lat="41.025703" lon="15.6192832"><ele>479.00000000000006</ele><time>2026-04-19T05:27:31.996Z</time></trkpt><trkpt lat="41.025738" lon="15.6191633"><ele>480.0</ele><time>2026-04-19T05:27:32.997Z</time></trkpt><trkpt lat="41.0257698" lon="15.6190532"><ele>481.0</ele><time>2026-04-19T05:27:33.996Z</time></trkpt><trkpt lat="41.0258022" lon="15.6189477"><ele>482.0</ele><time>2026-04-19T05:27:34.996Z</time></trkpt><trkpt lat="41.025835" lon="15.6188436"><ele>483.00000000000006</ele><time>2026-04-19T05:27:35.996Z</time></trkpt><trkpt lat="41.0258695" lon="15.618742"><ele>484.0</ele><time>2026-04-19T05:27:36.996Z</time></trkpt><trkpt lat="41.0259043" lon="15.618642"><ele>484.0</ele><time>2026-04-19T05:27:37.996Z</time></trkpt><trkpt lat="41.0259379" lon="15.6185409"><ele>484.0</ele><time>2026-04-19T05:27:38.996Z</time></trkpt><trkpt lat="41.0259701" lon="15.6184351"><ele>484.0</ele><time>2026-04-19T05:27:39.996Z</time></trkpt><trkpt lat="41.0260059" lon="15.6183237"><ele>484.0</ele><time>2026-04-19T05:27:40.996Z</time></trkpt><trkpt lat="41.0260405" lon="15.6182086"><ele>484.0</ele><time>2026-04-19T05:27:41.996Z</time></trkpt><trkpt lat="41.0260755" lon="15.6180888"><ele>484.0</ele><time>2026-04-19T05:27:42.996Z</time></trkpt><trkpt lat="41.0261127" lon="15.6179643"><ele>484.0</ele><time>2026-04-19T05:27:43.997Z</time></trkpt><trkpt lat="41.026152" lon="15.617832"><ele>484.0</ele><time>2026-04-19T05:27:44.997Z</time></trkpt><trkpt lat="41.0261929" lon="15.6176971"><ele>484.0</ele><time>2026-04-19T05:27:45.996Z</time></trkpt><trkpt lat="41.0262332" lon="15.617564"><ele>484.0</ele><time>2026-04-19T05:27:46.996Z</time></trkpt><trkpt lat="41.0262718" lon="15.6174302"><ele>483.75</ele><time>2026-04-19T05:27:47.996Z</time></trkpt><trkpt lat="41.0263105" lon="15.6172946"><ele>483.5</ele><time>2026-04-19T05:27:48.997Z</time></trkpt><trkpt lat="41.0263521" lon="15.6171568"><ele>483.25</ele><time>2026-04-19T05:27:49.997Z</time></trkpt><trkpt lat="41.0263997" lon="15.6170121"><ele>483.0</ele><time>2026-04-19T05:27:50.996Z</time></trkpt><trkpt lat="41.0264488" lon="15.616862"><ele>480.25</ele><time>2026-04-19T05:27:51.996Z</time></trkpt><trkpt lat="41.0265007" lon="15.6167085"><ele>477.5</ele><time>2026-04-19T05:27:52.996Z</time></trkpt><trkpt lat="41.026555" lon="15.6165512"><ele>474.75</ele><time>2026-04-19T05:27:53.996Z</time></trkpt><trkpt lat="41.0266123" lon="15.6163906"><ele>472.0</ele><time>2026-04-19T05:27:54.996Z</time></trkpt><trkpt lat="41.0266795" lon="15.6162275"><ele>465.33333333333337</ele><time>2026-04-19T05:27:55.996Z</time></trkpt><trkpt lat="41.0267566" lon="15.6160658"><ele>458.66666666666663</ele><time>2026-04-19T05:27:56.996Z</time></trkpt><trkpt lat="41.0268429" lon="15.6159017"><ele>452.0</ele><time>2026-04-19T05:27:57.997Z</time></trkpt><trkpt lat="41.0269357" lon="15.6157325"><ele>452.0</ele><time>2026-04-19T05:27:58.997Z</time></trkpt><trkpt lat="41.0270349" lon="15.6155623"><ele>452.0</ele><time>2026-04-19T05:27:59.997Z</time></trkpt><trkpt lat="41.0271464" lon="15.6153968"><ele>452.0</ele><time>2026-04-19T05:28:00.997Z</time></trkpt><trkpt lat="41.0272668" lon="15.6152349"><ele>455.0</ele><time>2026-04-19T05:28:01.997Z</time></trkpt><trkpt lat="41.0273958" lon="15.6150775"><ele>458.0</ele><time>2026-04-19T05:28:02.997Z</time></trkpt><trkpt lat="41.0275304" lon="15.6149256"><ele>461.0</ele><time>2026-04-19T05:28:03.997Z</time></trkpt><trkpt lat="41.027671" lon="15.6147797"><ele>462.66666666666663</ele><time>2026-04-19T05:28:04.997Z</time></trkpt><trkpt lat="41.0278156" lon="15.6146395"><ele>464.33333333333337</ele><time>2026-04-19T05:28:05.997Z</time></trkpt><trkpt lat="41.0279685" lon="15.6145164"><ele>466.0</ele><time>2026-04-19T05:28:06.997Z</time></trkpt><trkpt lat="41.0281279" lon="15.6144158"><ele>469.0</ele><time>2026-04-19T05:28:07.997Z</time></trkpt><trkpt lat="41.0282933" lon="15.6143352"><ele>472.0</ele><time>2026-04-19T05:28:08.997Z</time></trkpt><trkpt lat="41.0284604" lon="15.6142617"><ele>475.0</ele><time>2026-04-19T05:28:09.997Z</time></trkpt><trkpt lat="41.0286248" lon="15.6141858"><ele>478.33333333333337</ele><time>2026-04-19T05:28:10.997Z</time></trkpt><trkpt lat="41.0287892" lon="15.614109"><ele>481.66666666666663</ele><time>2026-04-19T05:28:11.996Z</time></trkpt><trkpt lat="41.0289526" lon="15.614028"><ele>485.0</ele><time>2026-04-19T05:28:12.996Z</time></trkpt><trkpt lat="41.0291133" lon="15.6139434"><ele>482.0</ele><time>2026-04-19T05:28:13.997Z</time></trkpt><trkpt lat="41.0292717" lon="15.6138544"><ele>479.0</ele><time>2026-04-19T05:28:14.996Z</time></trkpt><trkpt lat="41.0294285" lon="15.6137584"><ele>476.0</ele><time>2026-04-19T05:28:15.996Z</time></trkpt><trkpt lat="41.0295822" lon="15.6136506"><ele>477.0</ele><time>2026-04-19T05:28:16.996Z</time></trkpt><trkpt lat="41.0297299" lon="15.6135307"><ele>478.0</ele><time>2026-04-19T05:28:17.997Z</time></trkpt><trkpt lat="41.0298726" lon="15.6133982"><ele>479.0</ele><time>2026-04-19T05:28:18.996Z</time></trkpt><trkpt lat="41.03001" lon="15.613253"><ele>479.0</ele><time>2026-04-19T05:28:19.996Z</time></trkpt><trkpt lat="41.0301426" lon="15.6130998"><ele>479.0</ele><time>2026-04-19T05:28:20.996Z</time></trkpt><trkpt lat="41.0302715" lon="15.6129401"><ele>479.0</ele><time>2026-04-19T05:28:21.996Z</time></trkpt><trkpt lat="41.0303966" lon="15.6127744"><ele>484.0</ele><time>2026-04-19T05:28:22.996Z</time></trkpt><trkpt lat="41.030519" lon="15.6126033"><ele>489.0</ele><time>2026-04-19T05:28:23.996Z</time></trkpt><trkpt lat="41.0306395" lon="15.6124287"><ele>494.0</ele><time>2026-04-19T05:28:24.996Z</time></trkpt><trkpt lat="41.0307606" lon="15.6122537"><ele>489.66666666666663</ele><time>2026-04-19T05:28:25.996Z</time></trkpt><trkpt lat="41.0308859" lon="15.612082"><ele>485.33333333333337</ele><time>2026-04-19T05:28:26.996Z</time></trkpt><trkpt lat="41.031011" lon="15.6119116"><ele>481.0</ele><time>2026-04-19T05:28:27.996Z</time></trkpt><trkpt lat="41.0311329" lon="15.6117431"><ele>481.0</ele><time>2026-04-19T05:28:28.996Z</time></trkpt><trkpt lat="41.0312505" lon="15.6115787"><ele>481.0</ele><time>2026-04-19T05:28:29.996Z</time></trkpt><trkpt lat="41.0313667" lon="15.6114171"><ele>481.0</ele><time>2026-04-19T05:28:30.996Z</time></trkpt><trkpt lat="41.0314792" lon="15.6112596"><ele>477.0</ele><time>2026-04-19T05:28:31.996Z</time></trkpt><trkpt lat="41.0315869" lon="15.6111059"><ele>473.0</ele><time>2026-04-19T05:28:32.996Z</time></trkpt><trkpt lat="41.0316965" lon="15.6109527"><ele>469.0</ele><time>2026-04-19T05:28:33.996Z</time></trkpt><trkpt lat="41.0318057" lon="15.6108022"><ele>469.0</ele><time>2026-04-19T05:28:34.996Z</time></trkpt><trkpt lat="41.0319141" lon="15.6106526"><ele>469.0</ele><time>2026-04-19T05:28:35.996Z</time></trkpt><trkpt lat="41.0320188" lon="15.6105077"><ele>469.0</ele><time>2026-04-19T05:28:36.997Z</time></trkpt><trkpt lat="41.0321186" lon="15.6103667"><ele>466.5</ele><time>2026-04-19T05:28:37.996Z</time></trkpt><trkpt lat="41.0322149" lon="15.6102321"><ele>464.0</ele><time>2026-04-19T05:28:38.996Z</time></trkpt><trkpt lat="41.0323084" lon="15.6101033"><ele>461.5</ele><time>2026-04-19T05:28:39.996Z</time></trkpt><trkpt lat="41.0324024" lon="15.6099804"><ele>459.0</ele><time>2026-04-19T05:28:40.997Z</time></trkpt><trkpt lat="41.0324971" lon="15.6098547"><ele>459.0</ele><time>2026-04-19T05:28:41.996Z</time></trkpt><trkpt lat="41.0325924" lon="15.609725"><ele>459.0</ele><time>2026-04-19T05:28:42.996Z</time></trkpt><trkpt lat="41.0326881" lon="15.609592"><ele>459.0</ele><time>2026-04-19T05:28:43.997Z</time></trkpt><trkpt lat="41.0327851" lon="15.609456"><ele>459.0</ele><time>2026-04-19T05:28:44.997Z</time></trkpt><trkpt lat="41.032884" lon="15.6093177"><ele>458.75</ele><time>2026-04-19T05:28:45.996Z</time></trkpt><trkpt lat="41.0329807" lon="15.6091764"><ele>458.5</ele><time>2026-04-19T05:28:46.997Z</time></trkpt><trkpt lat="41.0330765" lon="15.609041"><ele>458.25</ele><time>2026-04-19T05:28:47.996Z</time></trkpt><trkpt lat="41.0331723" lon="15.6089076"><ele>458.0</ele><time>2026-04-19T05:28:48.996Z</time></trkpt><trkpt lat="41.0332692" lon="15.6087752"><ele>455.75</ele><time>2026-04-19T05:28:49.996Z</time></trkpt><trkpt lat="41.0333662" lon="15.6086422"><ele>453.5</ele><time>2026-04-19T05:28:50.996Z</time></trkpt><trkpt lat="41.0334628" lon="15.6085082"><ele>451.25</ele><time>2026-04-19T05:28:51.996Z</time></trkpt><trkpt lat="41.0335578" lon="15.6083773"><ele>449.0</ele><time>2026-04-19T05:28:52.997Z</time></trkpt><trkpt lat="41.0336505" lon="15.6082494"><ele>449.0</ele><time>2026-04-19T05:28:53.996Z</time></trkpt><trkpt lat="41.0337429" lon="15.6081195"><ele>449.0</ele><time>2026-04-19T05:28:54.996Z</time></trkpt><trkpt lat="41.0338371" lon="15.6079891"><ele>449.0</ele><time>2026-04-19T05:28:55.996Z</time></trkpt><trkpt lat="41.0339335" lon="15.6078577"><ele>449.0</ele><time>2026-04-19T05:28:56.996Z</time></trkpt><trkpt lat="41.034031" lon="15.6077232"><ele>449.25</ele><time>2026-04-19T05:28:57.996Z</time></trkpt><trkpt lat="41.0341281" lon="15.6075883"><ele>449.5</ele><time>2026-04-19T05:28:58.996Z</time></trkpt><trkpt lat="41.0342262" lon="15.607452"><ele>449.75</ele><time>2026-04-19T05:28:59.996Z</time></trkpt><trkpt lat="41.0343239" lon="15.6073157"><ele>450.0</ele><time>2026-04-19T05:29:00.997Z</time></trkpt><trkpt lat="41.0344181" lon="15.6071818"><ele>450.0</ele><time>2026-04-19T05:29:01.996Z</time></trkpt><trkpt lat="41.0345115" lon="15.6070506"><ele>450.0</ele><time>2026-04-19T05:29:02.996Z</time></trkpt><trkpt lat="41.0346079" lon="15.6069178"><ele>450.0</ele><time>2026-04-19T05:29:03.996Z</time></trkpt><trkpt lat="41.0347052" lon="15.6067808"><ele>450.0</ele><time>2026-04-19T05:29:04.996Z</time></trkpt><trkpt lat="41.0348035" lon="15.6066426"><ele>449.75</ele><time>2026-04-19T05:29:05.996Z</time></trkpt><trkpt lat="41.0349031" lon="15.6065047"><ele>449.5</ele><time>2026-04-19T05:29:06.996Z</time></trkpt><trkpt lat="41.0350033" lon="15.6063641"><ele>449.25</ele><time>2026-04-19T05:29:07.996Z</time></trkpt><trkpt lat="41.035104" lon="15.606222"><ele>449.0</ele><time>2026-04-19T05:29:08.996Z</time></trkpt><trkpt lat="41.035205" lon="15.6060774"><ele>449.0</ele><time>2026-04-19T05:29:09.996Z</time></trkpt><trkpt lat="41.0353067" lon="15.6059322"><ele>449.0</ele><time>2026-04-19T05:29:10.997Z</time></trkpt><trkpt lat="41.0354108" lon="15.6057862"><ele>449.0</ele><time>2026-04-19T05:29:11.997Z</time></trkpt><trkpt lat="41.0355132" lon="15.605643"><ele>449.0</ele><time>2026-04-19T05:29:12.996Z</time></trkpt><trkpt lat="41.0356137" lon="15.6055035"><ele>449.0</ele><time>2026-04-19T05:29:13.996Z</time></trkpt><trkpt lat="41.0357118" lon="15.6053699"><ele>449.0</ele><time>2026-04-19T05:29:14.996Z</time></trkpt><trkpt lat="41.0358098" lon="15.6052386"><ele>449.0</ele><time>2026-04-19T05:29:15.996Z</time></trkpt><trkpt lat="41.0359072" lon="15.6051045"><ele>446.0</ele><time>2026-04-19T05:29:16.996Z</time></trkpt><trkpt lat="41.0360023" lon="15.6049702"><ele>443.0</ele><time>2026-04-19T05:29:17.996Z</time></trkpt><trkpt lat="41.0360959" lon="15.6048376"><ele>440.0</ele><time>2026-04-19T05:29:18.996Z</time></trkpt><trkpt lat="41.0361906" lon="15.6047054"><ele>437.0</ele><time>2026-04-19T05:29:19.996Z</time></trkpt><trkpt lat="41.0362861" lon="15.6045713"><ele>436.5</ele><time>2026-04-19T05:29:20.997Z</time></trkpt><trkpt lat="41.0363853" lon="15.60444"><ele>436.0</ele><time>2026-04-19T05:29:21.996Z</time></trkpt><trkpt lat="41.0364915" lon="15.6043144"><ele>435.5</ele><time>2026-04-19T05:29:22.996Z</time></trkpt><trkpt lat="41.0366042" lon="15.6041974"><ele>435.0</ele><time>2026-04-19T05:29:23.997Z</time></trkpt><trkpt lat="41.0367222" lon="15.6040873"><ele>435.0</ele><time>2026-04-19T05:29:24.996Z</time></trkpt><trkpt lat="41.0368437" lon="15.6039832"><ele>435.0</ele><time>2026-04-19T05:29:25.996Z</time></trkpt><trkpt lat="41.0369684" lon="15.6038807"><ele>435.0</ele><time>2026-04-19T05:29:26.996Z</time></trkpt><trkpt lat="41.0370958" lon="15.6037825"><ele>435.0</ele><time>2026-04-19T05:29:27.996Z</time></trkpt><trkpt lat="41.0372262" lon="15.6036902"><ele>435.75</ele><time>2026-04-19T05:29:28.996Z</time></trkpt><trkpt lat="41.0373594" lon="15.6036055"><ele>436.5</ele><time>2026-04-19T05:29:29.996Z</time></trkpt><trkpt lat="41.0374957" lon="15.6035288"><ele>437.25</ele><time>2026-04-19T05:29:30.996Z</time></trkpt><trkpt lat="41.0376368" lon="15.6034615"><ele>438.0</ele><time>2026-04-19T05:29:31.996Z</time></trkpt><trkpt lat="41.0377796" lon="15.6034009"><ele>438.0</ele><time>2026-04-19T05:29:32.996Z</time></trkpt><trkpt lat="41.0379251" lon="15.6033494"><ele>438.0</ele><time>2026-04-19T05:29:33.996Z</time></trkpt><trkpt lat="41.03807" lon="15.6033071"><ele>438.0</ele><time>2026-04-19T05:29:34.996Z</time></trkpt><trkpt lat="41.0382117" lon="15.6032722"><ele>438.0</ele><time>2026-04-19T05:29:35.997Z</time></trkpt><trkpt lat="41.0383513" lon="15.6032468"><ele>437.5</ele><time>2026-04-19T05:29:36.996Z</time></trkpt><trkpt lat="41.0384924" lon="15.6032274"><ele>437.0</ele><time>2026-04-19T05:29:37.996Z</time></trkpt><trkpt lat="41.0386363" lon="15.6032142"><ele>436.5</ele><time>2026-04-19T05:29:38.996Z</time></trkpt><trkpt lat="41.0387816" lon="15.6032085"><ele>436.0</ele><time>2026-04-19T05:29:39.996Z</time></trkpt><trkpt lat="41.0389294" lon="15.6032107"><ele>436.0</ele><time>2026-04-19T05:29:40.996Z</time></trkpt><trkpt lat="41.0390801" lon="15.6032237"><ele>436.0</ele><time>2026-04-19T05:29:41.996Z</time></trkpt><trkpt lat="41.0392324" lon="15.6032479"><ele>436.0</ele><time>2026-04-19T05:29:42.997Z</time></trkpt><trkpt lat="41.0393834" lon="15.6032804"><ele>434.6666666666667</ele><time>2026-04-19T05:29:43.997Z</time></trkpt><trkpt lat="41.0395339" lon="15.6033226"><ele>433.33333333333337</ele><time>2026-04-19T05:29:44.996Z</time></trkpt><trkpt lat="41.0396855" lon="15.6033718"><ele>432.0</ele><time>2026-04-19T05:29:45.997Z</time></trkpt><trkpt lat="41.039832" lon="15.6034304"><ele>429.33333333333337</ele><time>2026-04-19T05:29:46.996Z</time></trkpt><trkpt lat="41.0399762" lon="15.6034993"><ele>426.6666666666667</ele><time>2026-04-19T05:29:47.996Z</time></trkpt><trkpt lat="41.0401204" lon="15.603574"><ele>424.0</ele><time>2026-04-19T05:29:48.996Z</time></trkpt><trkpt lat="41.040264" lon="15.6036526"><ele>422.0</ele><time>2026-04-19T05:29:49.996Z</time></trkpt><trkpt lat="41.0404067" lon="15.6037366"><ele>420.0</ele><time>2026-04-19T05:29:50.997Z</time></trkpt><trkpt lat="41.0405509" lon="15.6038241"><ele>418.0</ele><time>2026-04-19T05:29:51.996Z</time></trkpt><trkpt lat="41.0406936" lon="15.6039139"><ele>414.33333333333337</ele><time>2026-04-19T05:29:52.996Z</time></trkpt><trkpt lat="41.0408363" lon="15.604007"><ele>410.66666666666663</ele><time>2026-04-19T05:29:53.996Z</time></trkpt><trkpt lat="41.0409809" lon="15.6041001"><ele>407.0</ele><time>2026-04-19T05:29:54.996Z</time></trkpt><trkpt lat="41.0411263" lon="15.6041929"><ele>407.0</ele><time>2026-04-19T05:29:55.996Z</time></trkpt><trkpt lat="41.0412709" lon="15.6042837"><ele>407.0</ele><time>2026-04-19T05:29:56.996Z</time></trkpt><trkpt lat="41.0414154" lon="15.6043745"><ele>407.0</ele><time>2026-04-19T05:29:57.996Z</time></trkpt><trkpt lat="41.041563" lon="15.6044666"><ele>405.66666666666663</ele><time>2026-04-19T05:29:58.996Z</time></trkpt><trkpt lat="41.0417114" lon="15.6045586"><ele>404.33333333333337</ele><time>2026-04-19T05:29:59.996Z</time></trkpt><trkpt lat="41.0418607" lon="15.6046504"><ele>403.0</ele><time>2026-04-19T05:30:00.996Z</time></trkpt><trkpt lat="41.0420093" lon="15.6047444"><ele>403.0</ele><time>2026-04-19T05:30:01.996Z</time></trkpt><trkpt lat="41.0421546" lon="15.6048351"><ele>403.0</ele><time>2026-04-19T05:30:02.996Z</time></trkpt><trkpt lat="41.0422938" lon="15.6049195"><ele>403.0</ele><time>2026-04-19T05:30:03.996Z</time></trkpt><trkpt lat="41.0424288" lon="15.6050029"><ele>405.0</ele><time>2026-04-19T05:30:04.996Z</time></trkpt><trkpt lat="41.0425644" lon="15.6050881"><ele>407.0</ele><time>2026-04-19T05:30:05.996Z</time></trkpt><trkpt lat="41.0427014" lon="15.6051745"><ele>409.0</ele><time>2026-04-19T05:30:06.997Z</time></trkpt><trkpt lat="41.0428408" lon="15.6052563"><ele>407.6666666666667</ele><time>2026-04-19T05:30:07.997Z</time></trkpt><trkpt lat="41.0429833" lon="15.6053296"><ele>406.33333333333337</ele><time>2026-04-19T05:30:08.996Z</time></trkpt><trkpt lat="41.0431284" lon="15.6053932"><ele>405.0</ele><time>2026-04-19T05:30:09.996Z</time></trkpt><trkpt lat="41.0432753" lon="15.605449"><ele>404.0</ele><time>2026-04-19T05:30:10.996Z</time></trkpt><trkpt lat="41.0434225" lon="15.605496"><ele>403.0</ele><time>2026-04-19T05:30:11.996Z</time></trkpt><trkpt lat="41.0435709" lon="15.6055378"><ele>402.0</ele><time>2026-04-19T05:30:12.996Z</time></trkpt><trkpt lat="41.0437207" lon="15.6055719"><ele>402.0</ele><time>2026-04-19T05:30:13.997Z</time></trkpt><trkpt lat="41.0438721" lon="15.6055988"><ele>402.0</ele><time>2026-04-19T05:30:14.996Z</time></trkpt><trkpt lat="41.044025" lon="15.6056174"><ele>402.0</ele><time>2026-04-19T05:30:15.996Z</time></trkpt><trkpt lat="41.0441784" lon="15.6056308"><ele>401.66666666666663</ele><time>2026-04-19T05:30:16.997Z</time></trkpt><trkpt lat="41.0443314" lon="15.6056407"><ele>401.3333333333333</ele><time>2026-04-19T05:30:17.997Z</time></trkpt><trkpt lat="41.0444822" lon="15.6056456"><ele>401.0</ele><time>2026-04-19T05:30:18.996Z</time></trkpt><trkpt lat="41.0446287" lon="15.6056498"><ele>401.0</ele><time>2026-04-19T05:30:19.997Z</time></trkpt><trkpt lat="41.044768" lon="15.6056562"><ele>401.0</ele><time>2026-04-19T05:30:20.997Z</time></trkpt><trkpt lat="41.0449029" lon="15.6056656"><ele>401.0</ele><time>2026-04-19T05:30:21.996Z</time></trkpt><trkpt lat="41.0450337" lon="15.6056826"><ele>401.0</ele><time>2026-04-19T05:30:22.997Z</time></trkpt><trkpt lat="41.0451615" lon="15.6057057"><ele>400.5</ele><time>2026-04-19T05:30:23.996Z</time></trkpt><trkpt lat="41.0452848" lon="15.6057324"><ele>400.0</ele><time>2026-04-19T05:30:24.997Z</time></trkpt><trkpt lat="41.0454009" lon="15.6057622"><ele>399.5</ele><time>2026-04-19T05:30:25.996Z</time></trkpt><trkpt lat="41.0455095" lon="15.6057948"><ele>399.0</ele><time>2026-04-19T05:30:26.996Z</time></trkpt><trkpt lat="41.045612" lon="15.6058294"><ele>399.0</ele><time>2026-04-19T05:30:27.996Z</time></trkpt><trkpt lat="41.0457081" lon="15.6058646"><ele>399.0</ele><time>2026-04-19T05:30:28.996Z</time></trkpt><trkpt lat="41.0457986" lon="15.6059002"><ele>399.0</ele><time>2026-04-19T05:30:29.996Z</time></trkpt><trkpt lat="41.0458798" lon="15.6059324"><ele>399.0</ele><time>2026-04-19T05:30:30.996Z</time></trkpt><trkpt lat="41.0459556" lon="15.60596"><ele>399.0</ele><time>2026-04-19T05:30:31.997Z</time></trkpt><trkpt lat="41.0460286" lon="15.6059834"><ele>399.0</ele><time>2026-04-19T05:30:32.996Z</time></trkpt><trkpt lat="41.0461049" lon="15.6060111"><ele>397.0</ele><time>2026-04-19T05:30:33.996Z</time></trkpt><trkpt lat="41.0461924" lon="15.6060426"><ele>395.0</ele><time>2026-04-19T05:30:34.996Z</time></trkpt><trkpt lat="41.0462863" lon="15.6060771"><ele>393.0</ele><time>2026-04-19T05:30:35.996Z</time></trkpt><trkpt lat="41.0463868" lon="15.606115"><ele>391.0</ele><time>2026-04-19T05:30:36.997Z</time></trkpt><trkpt lat="41.0464941" lon="15.6061593"><ele>389.0</ele><time>2026-04-19T05:30:37.996Z</time></trkpt><trkpt lat="41.0466065" lon="15.6062037"><ele>384.5</ele><time>2026-04-19T05:30:38.996Z</time></trkpt><trkpt lat="41.046725" lon="15.606248"><ele>380.0</ele><time>2026-04-19T05:30:39.996Z</time></trkpt><trkpt lat="41.046846" lon="15.6062924"><ele>375.5</ele><time>2026-04-19T05:30:40.996Z</time></trkpt><trkpt lat="41.0469697" lon="15.60634"><ele>371.0</ele><time>2026-04-19T05:30:41.997Z</time></trkpt><trkpt lat="41.0470918" lon="15.6063845"><ele>371.0</ele><time>2026-04-19T05:30:42.996Z</time></trkpt><trkpt lat="41.0472133" lon="15.6064292"><ele>371.0</ele><time>2026-04-19T05:30:43.996Z</time></trkpt><trkpt lat="41.0473379" lon="15.6064744"><ele>371.0</ele><time>2026-04-19T05:30:44.996Z</time></trkpt><trkpt lat="41.0474634" lon="15.6065198"><ele>371.0</ele><time>2026-04-19T05:30:45.996Z</time></trkpt><trkpt lat="41.0475842" lon="15.6065623"><ele>371.8</ele><time>2026-04-19T05:30:46.996Z</time></trkpt><trkpt lat="41.0476923" lon="15.6066021"><ele>372.6</ele><time>2026-04-19T05:30:47.996Z</time></trkpt><trkpt lat="41.0477805" lon="15.6066372"><ele>373.4</ele><time>2026-04-19T05:30:48.997Z</time></trkpt><trkpt lat="41.0478549" lon="15.6066648"><ele>374.2</ele><time>2026-04-19T05:30:49.996Z</time></trkpt><trkpt lat="41.0479767" lon="15.606715"><ele>375.0</ele><time>2026-04-19T05:30:51.996Z</time></trkpt><trkpt lat="41.04804" lon="15.6067367"><ele>375.0</ele><time>2026-04-19T05:30:52.996Z</time></trkpt><trkpt lat="41.0481117" lon="15.6067583"><ele>375.0</ele><time>2026-04-19T05:30:53.996Z</time></trkpt><trkpt lat="41.04819" lon="15.6067867"><ele>375.0</ele><time>2026-04-19T05:30:54.996Z</time></trkpt><trkpt lat="41.0482767" lon="15.606825"><ele>375.0</ele><time>2026-04-19T05:30:55.996Z</time></trkpt><trkpt lat="41.0483717" lon="15.6068667"><ele>375.0</ele><time>2026-04-19T05:30:56.996Z</time></trkpt><trkpt lat="41.0484783" lon="15.6069033"><ele>376.0</ele><time>2026-04-19T05:30:57.997Z</time></trkpt><trkpt lat="41.0485933" lon="15.6069417"><ele>377.0</ele><time>2026-04-19T05:30:58.996Z</time></trkpt><trkpt lat="41.0487167" lon="15.6069767"><ele>378.0</ele><time>2026-04-19T05:30:59.997Z</time></trkpt><trkpt lat="41.0488467" lon="15.607005"><ele>379.0</ele><time>2026-04-19T05:31:00.996Z</time></trkpt><trkpt lat="41.0489833" lon="15.60703"><ele>379.0</ele><time>2026-04-19T05:31:01.997Z</time></trkpt><trkpt lat="41.0491167" lon="15.6070617"><ele>379.0</ele><time>2026-04-19T05:31:02.996Z</time></trkpt><trkpt lat="41.0492483" lon="15.607085"><ele>379.0</ele><time>2026-04-19T05:31:03.996Z</time></trkpt><trkpt lat="41.0493933" lon="15.60711"><ele>379.0</ele><time>2026-04-19T05:31:04.997Z</time></trkpt><trkpt lat="41.0495417" lon="15.6071367"><ele>382.0</ele><time>2026-04-19T05:31:05.996Z</time></trkpt><trkpt lat="41.0496917" lon="15.6071667"><ele>385.0</ele><time>2026-04-19T05:31:06.996Z</time></trkpt><trkpt lat="41.0498583" lon="15.6072"><ele>388.0</ele><time>2026-04-19T05:31:07.996Z</time></trkpt><trkpt lat="41.050015" lon="15.60723"><ele>388.0</ele><time>2026-04-19T05:31:08.996Z</time></trkpt><trkpt lat="41.050175" lon="15.60723"><ele>388.0</ele><time>2026-04-19T05:31:09.996Z</time></trkpt><trkpt lat="41.0503383" lon="15.607215"><ele>388.0</ele><time>2026-04-19T05:31:10.996Z</time></trkpt><trkpt lat="41.0505033" lon="15.60719"><ele>380.0</ele><time>2026-04-19T05:31:11.996Z</time></trkpt><trkpt lat="41.050835" lon="15.6071317"><ele>372.0</ele><time>2026-04-19T05:31:13.996Z</time></trkpt><trkpt lat="41.05108" lon="15.6070033"><ele>375.0</ele><time>2026-04-19T05:31:14.996Z</time></trkpt><trkpt lat="41.05124" lon="15.6069733"><ele>378.0</ele><time>2026-04-19T05:31:15.997Z</time></trkpt><trkpt lat="41.0514017" lon="15.6069333"><ele>381.0</ele><time>2026-04-19T05:31:16.996Z</time></trkpt><trkpt lat="41.051565" lon="15.60689"><ele>377.0</ele><time>2026-04-19T05:31:17.996Z</time></trkpt><trkpt lat="41.0517283" lon="15.6068533"><ele>373.0</ele><time>2026-04-19T05:31:18.996Z</time></trkpt><trkpt lat="41.0518933" lon="15.6068167"><ele>369.0</ele><time>2026-04-19T05:31:19.996Z</time></trkpt><trkpt lat="41.0520583" lon="15.60678"><ele>369.0</ele><time>2026-04-19T05:31:20.996Z</time></trkpt><trkpt lat="41.052225" lon="15.6067417"><ele>369.0</ele><time>2026-04-19T05:31:21.996Z</time></trkpt><trkpt lat="41.05239" lon="15.6067033"><ele>369.0</ele><time>2026-04-19T05:31:22.996Z</time></trkpt><trkpt lat="41.052555" lon="15.606665"><ele>364.6666666666667</ele><time>2026-04-19T05:31:23.996Z</time></trkpt><trkpt lat="41.0527217" lon="15.6066317"><ele>360.33333333333337</ele><time>2026-04-19T05:31:24.996Z</time></trkpt><trkpt lat="41.05289" lon="15.6066117"><ele>356.0</ele><time>2026-04-19T05:31:25.996Z</time></trkpt><trkpt lat="41.0530583" lon="15.6066"><ele>356.0</ele><time>2026-04-19T05:31:26.996Z</time></trkpt><trkpt lat="41.053225" lon="15.6065917"><ele>356.0</ele><time>2026-04-19T05:31:27.996Z</time></trkpt><trkpt lat="41.0533883" lon="15.60659"><ele>356.0</ele><time>2026-04-19T05:31:28.996Z</time></trkpt><trkpt lat="41.0535467" lon="15.6065933"><ele>354.6666666666667</ele><time>2026-04-19T05:31:29.996Z</time></trkpt><trkpt lat="41.0537017" lon="15.6066017"><ele>353.3333333333333</ele><time>2026-04-19T05:31:30.996Z</time></trkpt><trkpt lat="41.0538567" lon="15.60662"><ele>352.0</ele><time>2026-04-19T05:31:31.996Z</time></trkpt><trkpt lat="41.05401" lon="15.6066433"><ele>352.3333333333333</ele><time>2026-04-19T05:31:32.996Z</time></trkpt><trkpt lat="41.054165" lon="15.60667"><ele>352.6666666666667</ele><time>2026-04-19T05:31:33.997Z</time></trkpt><trkpt lat="41.05432" lon="15.606705"><ele>353.0</ele><time>2026-04-19T05:31:34.997Z</time></trkpt><trkpt lat="41.054475" lon="15.6067433"><ele>353.0</ele><time>2026-04-19T05:31:35.996Z</time></trkpt><trkpt lat="41.05463" lon="15.6067883"><ele>353.0</ele><time>2026-04-19T05:31:36.997Z</time></trkpt><trkpt lat="41.0547833" lon="15.60684"><ele>353.0</ele><time>2026-04-19T05:31:37.996Z</time></trkpt><trkpt lat="41.0549367" lon="15.6068933"><ele>353.0</ele><time>2026-04-19T05:31:38.996Z</time></trkpt><trkpt lat="41.0550883" lon="15.6069483"><ele>353.0</ele><time>2026-04-19T05:31:39.996Z</time></trkpt><trkpt lat="41.0552433" lon="15.6070017"><ele>353.0</ele><time>2026-04-19T05:31:40.996Z</time></trkpt><trkpt lat="41.0553967" lon="15.6070533"><ele>350.33333333333337</ele><time>2026-04-19T05:31:41.996Z</time></trkpt><trkpt lat="41.0555517" lon="15.6071067"><ele>347.6666666666667</ele><time>2026-04-19T05:31:42.996Z</time></trkpt><trkpt lat="41.0557067" lon="15.6071633"><ele>345.0</ele><time>2026-04-19T05:31:43.997Z</time></trkpt><trkpt lat="41.05586" lon="15.6072167"><ele>344.0</ele><time>2026-04-19T05:31:44.997Z</time></trkpt><trkpt lat="41.0560117" lon="15.6072683"><ele>343.0</ele><time>2026-04-19T05:31:45.996Z</time></trkpt><trkpt lat="41.0561633" lon="15.60732"><ele>342.0</ele><time>2026-04-19T05:31:46.996Z</time></trkpt><trkpt lat="41.0563183" lon="15.607375"><ele>342.0</ele><time>2026-04-19T05:31:47.996Z</time></trkpt><trkpt lat="41.0564733" lon="15.6074333"><ele>342.0</ele><time>2026-04-19T05:31:48.996Z</time></trkpt><trkpt lat="41.0566267" lon="15.6074883"><ele>342.0</ele><time>2026-04-19T05:31:49.996Z</time></trkpt><trkpt lat="41.0567767" lon="15.6075417"><ele>342.3333333333333</ele><time>2026-04-19T05:31:50.996Z</time></trkpt><trkpt lat="41.05693" lon="15.6075967"><ele>342.66666666666663</ele><time>2026-04-19T05:31:51.996Z</time></trkpt><trkpt lat="41.0570833" lon="15.60765"><ele>343.0</ele><time>2026-04-19T05:31:52.996Z</time></trkpt><trkpt lat="41.05724" lon="15.6077017"><ele>343.0</ele><time>2026-04-19T05:31:53.997Z</time></trkpt><trkpt lat="41.0573917" lon="15.6077533"><ele>343.0</ele><time>2026-04-19T05:31:54.996Z</time></trkpt><trkpt lat="41.0575383" lon="15.607805"><ele>343.0</ele><time>2026-04-19T05:31:55.996Z</time></trkpt><trkpt lat="41.0576817" lon="15.6078567"><ele>338.0</ele><time>2026-04-19T05:31:56.996Z</time></trkpt><trkpt lat="41.0578267" lon="15.60791"><ele>333.0</ele><time>2026-04-19T05:31:57.996Z</time></trkpt><trkpt lat="41.0579733" lon="15.607965"><ele>328.0</ele><time>2026-04-19T05:31:58.997Z</time></trkpt><trkpt lat="41.0581233" lon="15.6080183"><ele>328.0</ele><time>2026-04-19T05:31:59.996Z</time></trkpt><trkpt lat="41.058275" lon="15.6080733"><ele>328.0</ele><time>2026-04-19T05:32:00.996Z</time></trkpt><trkpt lat="41.0584283" lon="15.6081283"><ele>328.0</ele><time>2026-04-19T05:32:01.997Z</time></trkpt><trkpt lat="41.0585817" lon="15.6081817"><ele>327.3333333333333</ele><time>2026-04-19T05:32:02.996Z</time></trkpt><trkpt lat="41.0587367" lon="15.6082367"><ele>326.6666666666667</ele><time>2026-04-19T05:32:03.996Z</time></trkpt><trkpt lat="41.0588933" lon="15.6082933"><ele>326.0</ele><time>2026-04-19T05:32:04.997Z</time></trkpt><trkpt lat="41.05905" lon="15.6083483"><ele>327.33333333333337</ele><time>2026-04-19T05:32:05.997Z</time></trkpt><trkpt lat="41.059205" lon="15.6084033"><ele>328.6666666666667</ele><time>2026-04-19T05:32:06.996Z</time></trkpt><trkpt lat="41.0593633" lon="15.60846"><ele>330.0</ele><time>2026-04-19T05:32:07.996Z</time></trkpt><trkpt lat="41.0595183" lon="15.6085133"><ele>330.0</ele><time>2026-04-19T05:32:08.996Z</time></trkpt><trkpt lat="41.0596733" lon="15.60857"><ele>330.0</ele><time>2026-04-19T05:32:09.996Z</time></trkpt><trkpt lat="41.0598283" lon="15.6086267"><ele>330.0</ele><time>2026-04-19T05:32:10.997Z</time></trkpt><trkpt lat="41.0599867" lon="15.6086833"><ele>329.3333333333333</ele><time>2026-04-19T05:32:11.996Z</time></trkpt><trkpt lat="41.0601433" lon="15.6087383"><ele>328.66666666666663</ele><time>2026-04-19T05:32:12.996Z</time></trkpt><trkpt lat="41.060295" lon="15.6087917"><ele>328.0</ele><time>2026-04-19T05:32:13.996Z</time></trkpt><trkpt lat="41.0604433" lon="15.6088433"><ele>328.0</ele><time>2026-04-19T05:32:14.996Z</time></trkpt><trkpt lat="41.060585" lon="15.6088967"><ele>328.0</ele><time>2026-04-19T05:32:15.996Z</time></trkpt><trkpt lat="41.0607233" lon="15.608945"><ele>328.0</ele><time>2026-04-19T05:32:16.996Z</time></trkpt><trkpt lat="41.0608583" lon="15.6089933"><ele>328.0</ele><time>2026-04-19T05:32:17.996Z</time></trkpt><trkpt lat="41.0609933" lon="15.6090417"><ele>327.75</ele><time>2026-04-19T05:32:18.996Z</time></trkpt><trkpt lat="41.0611295" lon="15.6090903"><ele>327.5</ele><time>2026-04-19T05:32:19.996Z</time></trkpt><trkpt lat="41.0612662" lon="15.6091404"><ele>327.25</ele><time>2026-04-19T05:32:20.996Z</time></trkpt><trkpt lat="41.0614051" lon="15.6091904"><ele>327.0</ele><time>2026-04-19T05:32:21.997Z</time></trkpt><trkpt lat="41.0615445" lon="15.6092385"><ele>325.75</ele><time>2026-04-19T05:32:22.996Z</time></trkpt><trkpt lat="41.0616806" lon="15.6092853"><ele>324.5</ele><time>2026-04-19T05:32:23.997Z</time></trkpt><trkpt lat="41.0618135" lon="15.6093318"><ele>323.25</ele><time>2026-04-19T05:32:24.996Z</time></trkpt><trkpt lat="41.0619466" lon="15.609379"><ele>322.0</ele><time>2026-04-19T05:32:25.997Z</time></trkpt><trkpt lat="41.0620811" lon="15.6094293"><ele>322.0</ele><time>2026-04-19T05:32:26.996Z</time></trkpt><trkpt lat="41.0622118" lon="15.6094775"><ele>322.0</ele><time>2026-04-19T05:32:27.996Z</time></trkpt><trkpt lat="41.0623389" lon="15.6095234"><ele>322.0</ele><time>2026-04-19T05:32:28.996Z</time></trkpt><trkpt lat="41.0624636" lon="15.6095652"><ele>322.0</ele><time>2026-04-19T05:32:29.996Z</time></trkpt><trkpt lat="41.0625871" lon="15.6096073"><ele>320.25</ele><time>2026-04-19T05:32:30.996Z</time></trkpt><trkpt lat="41.0627137" lon="15.6096503"><ele>318.5</ele><time>2026-04-19T05:32:31.996Z</time></trkpt><trkpt lat="41.0628434" lon="15.6096912"><ele>316.75</ele><time>2026-04-19T05:32:32.996Z</time></trkpt><trkpt lat="41.0629724" lon="15.6097292"><ele>315.0</ele><time>2026-04-19T05:32:33.996Z</time></trkpt><trkpt lat="41.0631058" lon="15.6097654"><ele>315.0</ele><time>2026-04-19T05:32:34.996Z</time></trkpt><trkpt lat="41.0632416" lon="15.6097991"><ele>315.0</ele><time>2026-04-19T05:32:35.996Z</time></trkpt><trkpt lat="41.0633754" lon="15.6098303"><ele>315.0</ele><time>2026-04-19T05:32:36.996Z</time></trkpt><trkpt lat="41.0635068" lon="15.6098572"><ele>315.0</ele><time>2026-04-19T05:32:37.997Z</time></trkpt><trkpt lat="41.0636418" lon="15.6098809"><ele>313.5</ele><time>2026-04-19T05:32:38.996Z</time></trkpt><trkpt lat="41.0637801" lon="15.6099024"><ele>312.0</ele><time>2026-04-19T05:32:39.996Z</time></trkpt><trkpt lat="41.0639207" lon="15.6099218"><ele>310.5</ele><time>2026-04-19T05:32:40.996Z</time></trkpt><trkpt lat="41.064064" lon="15.6099361"><ele>309.0</ele><time>2026-04-19T05:32:41.996Z</time></trkpt><trkpt lat="41.0642103" lon="15.6099411"><ele>307.75</ele><time>2026-04-19T05:32:42.996Z</time></trkpt><trkpt lat="41.0643573" lon="15.6099406"><ele>306.5</ele><time>2026-04-19T05:32:43.996Z</time></trkpt><trkpt lat="41.0645048" lon="15.6099393"><ele>305.25</ele><time>2026-04-19T05:32:44.997Z</time></trkpt><trkpt lat="41.0646508" lon="15.6099339"><ele>304.0</ele><time>2026-04-19T05:32:45.997Z</time></trkpt><trkpt lat="41.0647953" lon="15.6099287"><ele>304.0</ele><time>2026-04-19T05:32:46.996Z</time></trkpt><trkpt lat="41.0649423" lon="15.6099202"><ele>304.0</ele><time>2026-04-19T05:32:47.997Z</time></trkpt><trkpt lat="41.0650901" lon="15.6099066"><ele>304.0</ele><time>2026-04-19T05:32:48.997Z</time></trkpt><trkpt lat="41.0652343" lon="15.6098881"><ele>304.0</ele><time>2026-04-19T05:32:49.996Z</time></trkpt><trkpt lat="41.0653756" lon="15.609865"><ele>302.75</ele><time>2026-04-19T05:32:50.996Z</time></trkpt><trkpt lat="41.0655172" lon="15.6098408"><ele>301.5</ele><time>2026-04-19T05:32:51.996Z</time></trkpt><trkpt lat="41.0656587" lon="15.6098138"><ele>300.25</ele><time>2026-04-19T05:32:52.996Z</time></trkpt><trkpt lat="41.0657992" lon="15.6097855"><ele>299.0</ele><time>2026-04-19T05:32:53.996Z</time></trkpt><trkpt lat="41.0659365" lon="15.6097583"><ele>297.75</ele><time>2026-04-19T05:32:54.996Z</time></trkpt><trkpt lat="41.0660739" lon="15.6097278"><ele>296.5</ele><time>2026-04-19T05:32:55.996Z</time></trkpt><trkpt lat="41.0662129" lon="15.6096947"><ele>295.25</ele><time>2026-04-19T05:32:56.996Z</time></trkpt><trkpt lat="41.0663518" lon="15.6096654"><ele>294.0</ele><time>2026-04-19T05:32:57.996Z</time></trkpt><trkpt lat="41.0664908" lon="15.6096357"><ele>293.0</ele><time>2026-04-19T05:32:58.996Z</time></trkpt><trkpt lat="41.0666307" lon="15.6096069"><ele>292.0</ele><time>2026-04-19T05:32:59.997Z</time></trkpt><trkpt lat="41.0667735" lon="15.6095772"><ele>291.0</ele><time>2026-04-19T05:33:00.997Z</time></trkpt><trkpt lat="41.066921" lon="15.609547"><ele>290.0</ele><time>2026-04-19T05:33:01.996Z</time></trkpt><trkpt lat="41.0670685" lon="15.6095183"><ele>289.6666666666667</ele><time>2026-04-19T05:33:02.996Z</time></trkpt><trkpt lat="41.0672162" lon="15.6094878"><ele>289.3333333333333</ele><time>2026-04-19T05:33:03.996Z</time></trkpt><trkpt lat="41.0673643" lon="15.6094533"><ele>289.0</ele><time>2026-04-19T05:33:04.997Z</time></trkpt><trkpt lat="41.0675147" lon="15.6094179"><ele>288.66666666666663</ele><time>2026-04-19T05:33:05.996Z</time></trkpt><trkpt lat="41.0676668" lon="15.6093832"><ele>288.3333333333333</ele><time>2026-04-19T05:33:06.996Z</time></trkpt><trkpt lat="41.0678209" lon="15.6093526"><ele>288.0</ele><time>2026-04-19T05:33:07.997Z</time></trkpt><trkpt lat="41.0679751" lon="15.6093205"><ele>288.0</ele><time>2026-04-19T05:33:08.996Z</time></trkpt><trkpt lat="41.0681286" lon="15.6092892"><ele>288.0</ele><time>2026-04-19T05:33:09.996Z</time></trkpt><trkpt lat="41.0682824" lon="15.6092544"><ele>288.0</ele><time>2026-04-19T05:33:10.996Z</time></trkpt><trkpt lat="41.0684318" lon="15.6092214"><ele>288.0</ele><time>2026-04-19T05:33:11.996Z</time></trkpt><trkpt lat="41.0685749" lon="15.6091929"><ele>288.0</ele><time>2026-04-19T05:33:12.996Z</time></trkpt><trkpt lat="41.0687121" lon="15.6091641"><ele>288.0</ele><time>2026-04-19T05:33:13.996Z</time></trkpt><trkpt lat="41.0688451" lon="15.6091309"><ele>288.0</ele><time>2026-04-19T05:33:14.996Z</time></trkpt><trkpt lat="41.0689785" lon="15.6090945"><ele>286.75</ele><time>2026-04-19T05:33:15.997Z</time></trkpt><trkpt lat="41.0691194" lon="15.6090613"><ele>285.5</ele><time>2026-04-19T05:33:16.996Z</time></trkpt><trkpt lat="41.0692632" lon="15.6090318"><ele>284.25</ele><time>2026-04-19T05:33:17.997Z</time></trkpt><trkpt lat="41.0694089" lon="15.6090038"><ele>283.0</ele><time>2026-04-19T05:33:18.997Z</time></trkpt><trkpt lat="41.069557" lon="15.608976"><ele>283.0</ele><time>2026-04-19T05:33:19.996Z</time></trkpt><trkpt lat="41.0697055" lon="15.608945"><ele>283.0</ele><time>2026-04-19T05:33:20.997Z</time></trkpt><trkpt lat="41.0698539" lon="15.6089121"><ele>283.0</ele><time>2026-04-19T05:33:21.996Z</time></trkpt><trkpt lat="41.0700028" lon="15.6088798"><ele>281.75</ele><time>2026-04-19T05:33:22.997Z</time></trkpt><trkpt lat="41.0701519" lon="15.6088458"><ele>280.5</ele><time>2026-04-19T05:33:23.996Z</time></trkpt><trkpt lat="41.0702989" lon="15.6088124"><ele>279.25</ele><time>2026-04-19T05:33:24.997Z</time></trkpt><trkpt lat="41.0704434" lon="15.6087791"><ele>278.0</ele><time>2026-04-19T05:33:25.996Z</time></trkpt><trkpt lat="41.0705872" lon="15.6087479"><ele>278.0</ele><time>2026-04-19T05:33:26.996Z</time></trkpt><trkpt lat="41.0707317" lon="15.6087173"><ele>278.0</ele><time>2026-04-19T05:33:27.997Z</time></trkpt><trkpt lat="41.0708776" lon="15.608686"><ele>278.0</ele><time>2026-04-19T05:33:28.996Z</time></trkpt><trkpt lat="41.0710245" lon="15.6086544"><ele>278.0</ele><time>2026-04-19T05:33:29.996Z</time></trkpt><trkpt lat="41.0711718" lon="15.6086229"><ele>276.75</ele><time>2026-04-19T05:33:30.996Z</time></trkpt><trkpt lat="41.0713178" lon="15.6085904"><ele>275.5</ele><time>2026-04-19T05:33:31.996Z</time></trkpt><trkpt lat="41.0714643" lon="15.6085565"><ele>274.25</ele><time>2026-04-19T05:33:32.996Z</time></trkpt><trkpt lat="41.0716107" lon="15.6085224"><ele>273.0</ele><time>2026-04-19T05:33:33.997Z</time></trkpt><trkpt lat="41.0717536" lon="15.6084921"><ele>271.25</ele><time>2026-04-19T05:33:34.996Z</time></trkpt><trkpt lat="41.071895" lon="15.6084606"><ele>269.5</ele><time>2026-04-19T05:33:35.996Z</time></trkpt><trkpt lat="41.0720367" lon="15.6084294"><ele>267.75</ele><time>2026-04-19T05:33:36.996Z</time></trkpt><trkpt lat="41.0721805" lon="15.6083946"><ele>266.0</ele><time>2026-04-19T05:33:37.997Z</time></trkpt><trkpt lat="41.0723265" lon="15.608359"><ele>264.25</ele><time>2026-04-19T05:33:38.996Z</time></trkpt><trkpt lat="41.0724724" lon="15.6083259"><ele>262.5</ele><time>2026-04-19T05:33:39.996Z</time></trkpt><trkpt lat="41.072619" lon="15.6082936"><ele>260.75</ele><time>2026-04-19T05:33:40.996Z</time></trkpt><trkpt lat="41.0727661" lon="15.6082615"><ele>259.0</ele><time>2026-04-19T05:33:41.996Z</time></trkpt><trkpt lat="41.0729124" lon="15.6082296"><ele>259.0</ele><time>2026-04-19T05:33:42.997Z</time></trkpt><trkpt lat="41.0730586" lon="15.6081979"><ele>259.0</ele><time>2026-04-19T05:33:43.996Z</time></trkpt><trkpt lat="41.0732053" lon="15.6081652"><ele>259.0</ele><time>2026-04-19T05:33:44.996Z</time></trkpt><trkpt lat="41.0733538" lon="15.6081322"><ele>259.0</ele><time>2026-04-19T05:33:45.996Z</time></trkpt><trkpt lat="41.0735031" lon="15.6080978"><ele>258.0</ele><time>2026-04-19T05:33:46.997Z</time></trkpt><trkpt lat="41.0736535" lon="15.6080631"><ele>257.0</ele><time>2026-04-19T05:33:47.996Z</time></trkpt><trkpt lat="41.0738053" lon="15.6080275"><ele>256.0</ele><time>2026-04-19T05:33:48.996Z</time></trkpt><trkpt lat="41.0739571" lon="15.6079955"><ele>254.66666666666666</ele><time>2026-04-19T05:33:49.996Z</time></trkpt><trkpt lat="41.0741099" lon="15.6079648"><ele>253.33333333333331</ele><time>2026-04-19T05:33:50.997Z</time></trkpt><trkpt lat="41.0742623" lon="15.6079373"><ele>252.0</ele><time>2026-04-19T05:33:51.996Z</time></trkpt><trkpt lat="41.0744141" lon="15.6079071"><ele>252.0</ele><time>2026-04-19T05:33:52.996Z</time></trkpt><trkpt lat="41.0745638" lon="15.6078743"><ele>252.0</ele><time>2026-04-19T05:33:53.996Z</time></trkpt><trkpt lat="41.0747112" lon="15.6078389"><ele>252.0</ele><time>2026-04-19T05:33:54.996Z</time></trkpt><trkpt lat="41.0748539" lon="15.6078031"><ele>252.0</ele><time>2026-04-19T05:33:55.996Z</time></trkpt><trkpt lat="41.0749968" lon="15.6077666"><ele>251.0</ele><time>2026-04-19T05:33:56.996Z</time></trkpt><trkpt lat="41.07514" lon="15.6077308"><ele>250.0</ele><time>2026-04-19T05:33:57.996Z</time></trkpt><trkpt lat="41.0752847" lon="15.6076972"><ele>249.0</ele><time>2026-04-19T05:33:58.996Z</time></trkpt><trkpt lat="41.075428" lon="15.6076678"><ele>248.0</ele><time>2026-04-19T05:33:59.996Z</time></trkpt><trkpt lat="41.0755731" lon="15.6076397"><ele>248.0</ele><time>2026-04-19T05:34:00.996Z</time></trkpt><trkpt lat="41.0757186" lon="15.6076095"><ele>248.0</ele><time>2026-04-19T05:34:01.997Z</time></trkpt><trkpt lat="41.0758629" lon="15.6075797"><ele>248.0</ele><time>2026-04-19T05:34:02.996Z</time></trkpt><trkpt lat="41.0760079" lon="15.6075488"><ele>248.0</ele><time>2026-04-19T05:34:03.996Z</time></trkpt><trkpt lat="41.0761532" lon="15.6075164"><ele>246.33333333333334</ele><time>2026-04-19T05:34:04.997Z</time></trkpt><trkpt lat="41.0762984" lon="15.6074812"><ele>244.66666666666669</ele><time>2026-04-19T05:34:05.996Z</time></trkpt><trkpt lat="41.0764475" lon="15.6074487"><ele>243.0</ele><time>2026-04-19T05:34:06.996Z</time></trkpt><trkpt lat="41.0765978" lon="15.6074198"><ele>242.33333333333331</ele><time>2026-04-19T05:34:07.996Z</time></trkpt><trkpt lat="41.076749" lon="15.6073909"><ele>241.66666666666666</ele><time>2026-04-19T05:34:08.996Z</time></trkpt><trkpt lat="41.0768998" lon="15.6073572"><ele>241.0</ele><time>2026-04-19T05:34:09.996Z</time></trkpt><trkpt lat="41.0770508" lon="15.6073247"><ele>241.0</ele><time>2026-04-19T05:34:10.996Z</time></trkpt><trkpt lat="41.0772009" lon="15.6072979"><ele>241.0</ele><time>2026-04-19T05:34:11.996Z</time></trkpt><trkpt lat="41.0773519" lon="15.6072764"><ele>241.0</ele><time>2026-04-19T05:34:12.996Z</time></trkpt><trkpt lat="41.0775024" lon="15.6072597"><ele>240.66666666666666</ele><time>2026-04-19T05:34:13.996Z</time></trkpt><trkpt lat="41.0776527" lon="15.6072455"><ele>240.33333333333331</ele><time>2026-04-19T05:34:14.996Z</time></trkpt><trkpt lat="41.0778029" lon="15.6072334"><ele>240.0</ele><time>2026-04-19T05:34:15.996Z</time></trkpt><trkpt lat="41.0779529" lon="15.6072234"><ele>240.0</ele><time>2026-04-19T05:34:16.996Z</time></trkpt><trkpt lat="41.0781008" lon="15.6072168"><ele>240.0</ele><time>2026-04-19T05:34:17.996Z</time></trkpt><trkpt lat="41.0782436" lon="15.6072155"><ele>240.0</ele><time>2026-04-19T05:34:18.997Z</time></trkpt><trkpt lat="41.0783856" lon="15.6072231"><ele>240.0</ele><time>2026-04-19T05:34:19.996Z</time></trkpt><trkpt lat="41.078527" lon="15.6072368"><ele>239.25</ele><time>2026-04-19T05:34:20.996Z</time></trkpt><trkpt lat="41.0786697" lon="15.6072553"><ele>238.5</ele><time>2026-04-19T05:34:21.996Z</time></trkpt><trkpt lat="41.0788129" lon="15.6072757"><ele>237.75</ele><time>2026-04-19T05:34:22.996Z</time></trkpt><trkpt lat="41.078955" lon="15.607301"><ele>237.0</ele><time>2026-04-19T05:34:23.996Z</time></trkpt><trkpt lat="41.0790957" lon="15.6073337"><ele>236.5</ele><time>2026-04-19T05:34:24.996Z</time></trkpt><trkpt lat="41.079237" lon="15.6073732"><ele>236.0</ele><time>2026-04-19T05:34:25.996Z</time></trkpt><trkpt lat="41.0793796" lon="15.6074157"><ele>235.5</ele><time>2026-04-19T05:34:26.996Z</time></trkpt><trkpt lat="41.0795242" lon="15.6074541"><ele>235.0</ele><time>2026-04-19T05:34:27.996Z</time></trkpt><trkpt lat="41.079672" lon="15.6074907"><ele>235.0</ele><time>2026-04-19T05:34:28.996Z</time></trkpt><trkpt lat="41.0798221" lon="15.6075255"><ele>235.0</ele><time>2026-04-19T05:34:29.996Z</time></trkpt><trkpt lat="41.0799725" lon="15.6075568"><ele>235.0</ele><time>2026-04-19T05:34:30.996Z</time></trkpt><trkpt lat="41.0801195" lon="15.607582"><ele>235.25</ele><time>2026-04-19T05:34:31.996Z</time></trkpt><trkpt lat="41.0802636" lon="15.6076014"><ele>235.5</ele><time>2026-04-19T05:34:32.997Z</time></trkpt><trkpt lat="41.0804053" lon="15.6076176"><ele>235.75</ele><time>2026-04-19T05:34:33.997Z</time></trkpt><trkpt lat="41.0805461" lon="15.6076367"><ele>236.0</ele><time>2026-04-19T05:34:34.996Z</time></trkpt><trkpt lat="41.0806859" lon="15.6076582"><ele>235.0</ele><time>2026-04-19T05:34:35.996Z</time></trkpt><trkpt lat="41.0808257" lon="15.6076779"><ele>234.0</ele><time>2026-04-19T05:34:36.997Z</time></trkpt><trkpt lat="41.0809634" lon="15.6076956"><ele>233.0</ele><time>2026-04-19T05:34:37.996Z</time></trkpt><trkpt lat="41.0810998" lon="15.6077114"><ele>232.0</ele><time>2026-04-19T05:34:38.996Z</time></trkpt><trkpt lat="41.0812339" lon="15.6077287"><ele>232.0</ele><time>2026-04-19T05:34:39.996Z</time></trkpt><trkpt lat="41.0813705" lon="15.6077487"><ele>232.0</ele><time>2026-04-19T05:34:40.996Z</time></trkpt><trkpt lat="41.0815109" lon="15.6077697"><ele>232.0</ele><time>2026-04-19T05:34:41.996Z</time></trkpt><trkpt lat="41.0816548" lon="15.6077886"><ele>232.0</ele><time>2026-04-19T05:34:42.996Z</time></trkpt><trkpt lat="41.0818012" lon="15.6078081"><ele>229.75</ele><time>2026-04-19T05:34:43.996Z</time></trkpt><trkpt lat="41.0819471" lon="15.6078279"><ele>227.5</ele><time>2026-04-19T05:34:44.997Z</time></trkpt><trkpt lat="41.0820912" lon="15.6078496"><ele>225.25</ele><time>2026-04-19T05:34:45.996Z</time></trkpt><trkpt lat="41.0822322" lon="15.6078734"><ele>223.0</ele><time>2026-04-19T05:34:46.996Z</time></trkpt><trkpt lat="41.0823696" lon="15.607897"><ele>222.0</ele><time>2026-04-19T05:34:47.996Z</time></trkpt><trkpt lat="41.0825035" lon="15.6079184"><ele>221.0</ele><time>2026-04-19T05:34:48.997Z</time></trkpt><trkpt lat="41.082634" lon="15.607936"><ele>220.0</ele><time>2026-04-19T05:34:49.996Z</time></trkpt><trkpt lat="41.0827633" lon="15.6079526"><ele>219.0</ele><time>2026-04-19T05:34:50.996Z</time></trkpt><trkpt lat="41.0828911" lon="15.6079682"><ele>219.0</ele><time>2026-04-19T05:34:51.996Z</time></trkpt><trkpt lat="41.0830167" lon="15.6079832"><ele>219.0</ele><time>2026-04-19T05:34:52.996Z</time></trkpt><trkpt lat="41.0831428" lon="15.607999"><ele>219.0</ele><time>2026-04-19T05:34:53.996Z</time></trkpt><trkpt lat="41.0832702" lon="15.608003"><ele>219.0</ele><time>2026-04-19T05:34:54.996Z</time></trkpt><trkpt lat="41.0834021" lon="15.6079988"><ele>217.5</ele><time>2026-04-19T05:34:55.996Z</time></trkpt><trkpt lat="41.0835346" lon="15.6079751"><ele>216.0</ele><time>2026-04-19T05:34:56.996Z</time></trkpt><trkpt lat="41.0836651" lon="15.6079348"><ele>214.5</ele><time>2026-04-19T05:34:57.997Z</time></trkpt><trkpt lat="41.0837921" lon="15.6078736"><ele>213.0</ele><time>2026-04-19T05:34:58.997Z</time></trkpt><trkpt lat="41.0839154" lon="15.6078054"><ele>213.0</ele><time>2026-04-19T05:34:59.996Z</time></trkpt><trkpt lat="41.0840325" lon="15.6077205"><ele>213.0</ele><time>2026-04-19T05:35:00.996Z</time></trkpt><trkpt lat="41.0841412" lon="15.6076202"><ele>213.0</ele><time>2026-04-19T05:35:01.996Z</time></trkpt><trkpt lat="41.0842374" lon="15.6075062"><ele>213.0</ele><time>2026-04-19T05:35:02.997Z</time></trkpt><trkpt lat="41.0843229" lon="15.6073855"><ele>212.75</ele><time>2026-04-19T05:35:03.997Z</time></trkpt><trkpt lat="41.0844022" lon="15.607263"><ele>212.5</ele><time>2026-04-19T05:35:04.996Z</time></trkpt><trkpt lat="41.0844751" lon="15.6071342"><ele>212.25</ele><time>2026-04-19T05:35:05.996Z</time></trkpt><trkpt lat="41.0845383" lon="15.6069985"><ele>212.0</ele><time>2026-04-19T05:35:06.997Z</time></trkpt><trkpt lat="41.0845903" lon="15.6068584"><ele>212.0</ele><time>2026-04-19T05:35:07.996Z</time></trkpt><trkpt lat="41.084633" lon="15.6067153"><ele>212.0</ele><time>2026-04-19T05:35:08.996Z</time></trkpt><trkpt lat="41.0846627" lon="15.6065686"><ele>212.0</ele><time>2026-04-19T05:35:09.996Z</time></trkpt><trkpt lat="41.0846831" lon="15.6064216"><ele>212.0</ele><time>2026-04-19T05:35:10.996Z</time></trkpt><trkpt lat="41.0846916" lon="15.6062734"><ele>212.6</ele><time>2026-04-19T05:35:11.996Z</time></trkpt><trkpt lat="41.0846969" lon="15.6061265"><ele>213.2</ele><time>2026-04-19T05:35:12.997Z</time></trkpt><trkpt lat="41.0846956" lon="15.6059785"><ele>213.8</ele><time>2026-04-19T05:35:13.996Z</time></trkpt><trkpt lat="41.0846859" lon="15.6058301"><ele>214.4</ele><time>2026-04-19T05:35:14.996Z</time></trkpt><trkpt lat="41.0846673" lon="15.6056837"><ele>215.0</ele><time>2026-04-19T05:35:15.996Z</time></trkpt><trkpt lat="41.084639" lon="15.6055399"><ele>215.0</ele><time>2026-04-19T05:35:16.996Z</time></trkpt><trkpt lat="41.0846078" lon="15.605397"><ele>215.0</ele><time>2026-04-19T05:35:17.996Z</time></trkpt><trkpt lat="41.0845804" lon="15.6052575"><ele>215.0</ele><time>2026-04-19T05:35:18.996Z</time></trkpt><trkpt lat="41.0845595" lon="15.6051213"><ele>215.0</ele><time>2026-04-19T05:35:19.996Z</time></trkpt><trkpt lat="41.0845469" lon="15.6049892"><ele>215.0</ele><time>2026-04-19T05:35:20.996Z</time></trkpt><trkpt lat="41.0845435" lon="15.604859"><ele>215.0</ele><time>2026-04-19T05:35:21.996Z</time></trkpt><trkpt lat="41.0845539" lon="15.6047315"><ele>215.0</ele><time>2026-04-19T05:35:22.997Z</time></trkpt><trkpt lat="41.084584" lon="15.6046064"><ele>215.0</ele><time>2026-04-19T05:35:23.996Z</time></trkpt><trkpt lat="41.0846278" lon="15.6044857"><ele>215.0</ele><time>2026-04-19T05:35:24.996Z</time></trkpt><trkpt lat="41.0846812" lon="15.6043646"><ele>215.0</ele><time>2026-04-19T05:35:25.997Z</time></trkpt><trkpt lat="41.0847393" lon="15.6042371"><ele>215.0</ele><time>2026-04-19T05:35:26.996Z</time></trkpt><trkpt lat="41.0847943" lon="15.6041002"><ele>215.0</ele><time>2026-04-19T05:35:27.996Z</time></trkpt><trkpt lat="41.0848485" lon="15.6039498"><ele>215.0</ele><time>2026-04-19T05:35:28.996Z</time></trkpt><trkpt lat="41.0849062" lon="15.6037931"><ele>215.0</ele><time>2026-04-19T05:35:29.996Z</time></trkpt><trkpt lat="41.08497" lon="15.6036315"><ele>214.0</ele><time>2026-04-19T05:35:30.996Z</time></trkpt><trkpt lat="41.0850477" lon="15.6034689"><ele>213.0</ele><time>2026-04-19T05:35:31.996Z</time></trkpt><trkpt lat="41.0851322" lon="15.6033016"><ele>212.0</ele><time>2026-04-19T05:35:32.997Z</time></trkpt><trkpt lat="41.0852075" lon="15.6031181"><ele>212.0</ele><time>2026-04-19T05:35:33.996Z</time></trkpt><trkpt lat="41.0852847" lon="15.602934"><ele>212.0</ele><time>2026-04-19T05:35:34.996Z</time></trkpt><trkpt lat="41.0853627" lon="15.6027503"><ele>212.0</ele><time>2026-04-19T05:35:35.996Z</time></trkpt><trkpt lat="41.0854447" lon="15.6025676"><ele>211.66666666666669</ele><time>2026-04-19T05:35:36.996Z</time></trkpt><trkpt lat="41.0855291" lon="15.6023874"><ele>211.33333333333331</ele><time>2026-04-19T05:35:37.996Z</time></trkpt><trkpt lat="41.0856084" lon="15.6022038"><ele>211.0</ele><time>2026-04-19T05:35:38.996Z</time></trkpt><trkpt lat="41.0856888" lon="15.6020295"><ele>209.75</ele><time>2026-04-19T05:35:39.996Z</time></trkpt><trkpt lat="41.0857644" lon="15.6018602"><ele>208.5</ele><time>2026-04-19T05:35:40.996Z</time></trkpt><trkpt lat="41.0858395" lon="15.6016942"><ele>207.25</ele><time>2026-04-19T05:35:41.996Z</time></trkpt><trkpt lat="41.0859152" lon="15.6015284"><ele>206.0</ele><time>2026-04-19T05:35:42.996Z</time></trkpt><trkpt lat="41.085991" lon="15.6013681"><ele>206.0</ele><time>2026-04-19T05:35:43.996Z</time></trkpt><trkpt lat="41.0860651" lon="15.6012162"><ele>206.0</ele><time>2026-04-19T05:35:44.996Z</time></trkpt><trkpt lat="41.086133" lon="15.6010666"><ele>206.0</ele><time>2026-04-19T05:35:45.996Z</time></trkpt><trkpt lat="41.0861967" lon="15.6009205"><ele>206.0</ele><time>2026-04-19T05:35:46.996Z</time></trkpt><trkpt lat="41.0862621" lon="15.6007805"><ele>205.75</ele><time>2026-04-19T05:35:47.996Z</time></trkpt><trkpt lat="41.0863227" lon="15.6006418"><ele>205.5</ele><time>2026-04-19T05:35:48.996Z</time></trkpt><trkpt lat="41.0863855" lon="15.6005093"><ele>205.25</ele><time>2026-04-19T05:35:49.997Z</time></trkpt><trkpt lat="41.0864509" lon="15.6003758"><ele>205.0</ele><time>2026-04-19T05:35:50.996Z</time></trkpt><trkpt lat="41.0865158" lon="15.6002345"><ele>204.5</ele><time>2026-04-19T05:35:51.997Z</time></trkpt><trkpt lat="41.0865774" lon="15.6000858"><ele>204.0</ele><time>2026-04-19T05:35:52.996Z</time></trkpt><trkpt lat="41.0866445" lon="15.599933"><ele>203.5</ele><time>2026-04-19T05:35:53.996Z</time></trkpt><trkpt lat="41.086717" lon="15.5997775"><ele>203.0</ele><time>2026-04-19T05:35:54.996Z</time></trkpt><trkpt lat="41.0867899" lon="15.5996185"><ele>202.25</ele><time>2026-04-19T05:35:55.996Z</time></trkpt><trkpt lat="41.0868615" lon="15.5994588"><ele>201.5</ele><time>2026-04-19T05:35:56.996Z</time></trkpt><trkpt lat="41.086935" lon="15.5992997"><ele>200.75</ele><time>2026-04-19T05:35:57.996Z</time></trkpt><trkpt lat="41.0870126" lon="15.5991405"><ele>200.0</ele><time>2026-04-19T05:35:58.997Z</time></trkpt><trkpt lat="41.0870929" lon="15.5989824"><ele>200.0</ele><time>2026-04-19T05:35:59.996Z</time></trkpt><trkpt lat="41.0871756" lon="15.5988238"><ele>200.0</ele><time>2026-04-19T05:36:00.996Z</time></trkpt><trkpt lat="41.0872607" lon="15.5986678"><ele>200.0</ele><time>2026-04-19T05:36:01.997Z</time></trkpt><trkpt lat="41.0873496" lon="15.598513"><ele>200.0</ele><time>2026-04-19T05:36:02.996Z</time></trkpt><trkpt lat="41.0874413" lon="15.5983595"><ele>199.75</ele><time>2026-04-19T05:36:03.996Z</time></trkpt><trkpt lat="41.0875327" lon="15.5982078"><ele>199.5</ele><time>2026-04-19T05:36:04.996Z</time></trkpt><trkpt lat="41.0876187" lon="15.5980636"><ele>199.25</ele><time>2026-04-19T05:36:05.996Z</time></trkpt><trkpt lat="41.087704" lon="15.5979259"><ele>199.0</ele><time>2026-04-19T05:36:06.996Z</time></trkpt><trkpt lat="41.0877958" lon="15.5977918"><ele>199.0</ele><time>2026-04-19T05:36:07.997Z</time></trkpt><trkpt lat="41.0878932" lon="15.5976587"><ele>199.0</ele><time>2026-04-19T05:36:08.996Z</time></trkpt><trkpt lat="41.0879959" lon="15.5975273"><ele>199.0</ele><time>2026-04-19T05:36:09.996Z</time></trkpt><trkpt lat="41.0881023" lon="15.5973971"><ele>199.0</ele><time>2026-04-19T05:36:10.996Z</time></trkpt><trkpt lat="41.0882112" lon="15.5972705"><ele>198.75</ele><time>2026-04-19T05:36:11.996Z</time></trkpt><trkpt lat="41.088323" lon="15.5971477"><ele>198.5</ele><time>2026-04-19T05:36:12.996Z</time></trkpt><trkpt lat="41.0884351" lon="15.5970274"><ele>198.25</ele><time>2026-04-19T05:36:13.997Z</time></trkpt><trkpt lat="41.0885497" lon="15.5969073"><ele>198.0</ele><time>2026-04-19T05:36:14.997Z</time></trkpt><trkpt lat="41.0886635" lon="15.5967893"><ele>198.0</ele><time>2026-04-19T05:36:15.997Z</time></trkpt><trkpt lat="41.088776" lon="15.5966746"><ele>198.0</ele><time>2026-04-19T05:36:16.997Z</time></trkpt><trkpt lat="41.0888906" lon="15.5965676"><ele>198.0</ele><time>2026-04-19T05:36:17.996Z</time></trkpt><trkpt lat="41.0890061" lon="15.5964607"><ele>198.0</ele><time>2026-04-19T05:36:18.996Z</time></trkpt><trkpt lat="41.089123" lon="15.5963617"><ele>197.75</ele><time>2026-04-19T05:36:19.996Z</time></trkpt><trkpt lat="41.0892413" lon="15.5962635"><ele>197.5</ele><time>2026-04-19T05:36:20.997Z</time></trkpt><trkpt lat="41.0893611" lon="15.5961649"><ele>197.25</ele><time>2026-04-19T05:36:21.996Z</time></trkpt><trkpt lat="41.0894835" lon="15.5960703"><ele>197.0</ele><time>2026-04-19T05:36:22.997Z</time></trkpt><trkpt lat="41.0896075" lon="15.5959787"><ele>196.75</ele><time>2026-04-19T05:36:23.996Z</time></trkpt><trkpt lat="41.0897318" lon="15.5958876"><ele>196.5</ele><time>2026-04-19T05:36:24.996Z</time></trkpt><trkpt lat="41.0898554" lon="15.5957993"><ele>196.25</ele><time>2026-04-19T05:36:25.996Z</time></trkpt><trkpt lat="41.0899807" lon="15.5957161"><ele>196.0</ele><time>2026-04-19T05:36:26.996Z</time></trkpt><trkpt lat="41.0901073" lon="15.5956362"><ele>196.0</ele><time>2026-04-19T05:36:27.996Z</time></trkpt><trkpt lat="41.0902362" lon="15.5955602"><ele>196.0</ele><time>2026-04-19T05:36:28.996Z</time></trkpt><trkpt lat="41.0903671" lon="15.5954862"><ele>196.0</ele><time>2026-04-19T05:36:29.997Z</time></trkpt><trkpt lat="41.0904993" lon="15.5954147"><ele>196.0</ele><time>2026-04-19T05:36:30.996Z</time></trkpt><trkpt lat="41.0906313" lon="15.5953489"><ele>196.25</ele><time>2026-04-19T05:36:31.996Z</time></trkpt><trkpt lat="41.090765" lon="15.5952879"><ele>196.5</ele><time>2026-04-19T05:36:32.997Z</time></trkpt><trkpt lat="41.0909005" lon="15.5952327"><ele>196.75</ele><time>2026-04-19T05:36:33.996Z</time></trkpt><trkpt lat="41.0910378" lon="15.5951816"><ele>197.0</ele><time>2026-04-19T05:36:34.996Z</time></trkpt><trkpt lat="41.0911745" lon="15.5951295"><ele>197.0</ele><time>2026-04-19T05:36:35.996Z</time></trkpt><trkpt lat="41.0913102" lon="15.5950736"><ele>197.0</ele><time>2026-04-19T05:36:36.996Z</time></trkpt><trkpt lat="41.0914452" lon="15.595015"><ele>197.0</ele><time>2026-04-19T05:36:37.997Z</time></trkpt><trkpt lat="41.0915813" lon="15.5949555"><ele>197.0</ele><time>2026-04-19T05:36:38.997Z</time></trkpt><trkpt lat="41.0917196" lon="15.5948955"><ele>196.75</ele><time>2026-04-19T05:36:39.996Z</time></trkpt><trkpt lat="41.0918602" lon="15.5948363"><ele>196.5</ele><time>2026-04-19T05:36:40.996Z</time></trkpt><trkpt lat="41.092002" lon="15.5947796"><ele>196.25</ele><time>2026-04-19T05:36:41.997Z</time></trkpt><trkpt lat="41.0921446" lon="15.5947208"><ele>196.0</ele><time>2026-04-19T05:36:42.997Z</time></trkpt><trkpt lat="41.0922876" lon="15.5946607"><ele>195.66666666666666</ele><time>2026-04-19T05:36:43.996Z</time></trkpt><trkpt lat="41.0924318" lon="15.5946034"><ele>195.33333333333331</ele><time>2026-04-19T05:36:44.996Z</time></trkpt><trkpt lat="41.0925769" lon="15.5945468"><ele>195.0</ele><time>2026-04-19T05:36:45.996Z</time></trkpt><trkpt lat="41.0927223" lon="15.5944894"><ele>195.0</ele><time>2026-04-19T05:36:46.997Z</time></trkpt><trkpt lat="41.0928698" lon="15.5944403"><ele>195.0</ele><time>2026-04-19T05:36:47.996Z</time></trkpt><trkpt lat="41.0930175" lon="15.5944001"><ele>195.0</ele><time>2026-04-19T05:36:48.996Z</time></trkpt><trkpt lat="41.0931659" lon="15.5943653"><ele>195.0</ele><time>2026-04-19T05:36:49.996Z</time></trkpt><trkpt lat="41.0933159" lon="15.5943395"><ele>195.0</ele><time>2026-04-19T05:36:50.996Z</time></trkpt><trkpt lat="41.0934673" lon="15.5943182"><ele>195.0</ele><time>2026-04-19T05:36:51.996Z</time></trkpt><trkpt lat="41.0936193" lon="15.5943011"><ele>195.0</ele><time>2026-04-19T05:36:52.997Z</time></trkpt><trkpt lat="41.0937713" lon="15.5942889"><ele>195.0</ele><time>2026-04-19T05:36:53.996Z</time></trkpt><trkpt lat="41.0939235" lon="15.5942807"><ele>195.0</ele><time>2026-04-19T05:36:54.996Z</time></trkpt><trkpt lat="41.0940764" lon="15.594277"><ele>195.0</ele><time>2026-04-19T05:36:55.996Z</time></trkpt><trkpt lat="41.0942276" lon="15.5942742"><ele>195.0</ele><time>2026-04-19T05:36:56.996Z</time></trkpt><trkpt lat="41.0943788" lon="15.5942721"><ele>195.0</ele><time>2026-04-19T05:36:57.996Z</time></trkpt><trkpt lat="41.0945291" lon="15.5942677"><ele>195.0</ele><time>2026-04-19T05:36:58.996Z</time></trkpt><trkpt lat="41.0946801" lon="15.5942647"><ele>195.0</ele><time>2026-04-19T05:36:59.996Z</time></trkpt><trkpt lat="41.0948302" lon="15.5942634"><ele>195.0</ele><time>2026-04-19T05:37:00.996Z</time></trkpt><trkpt lat="41.0949812" lon="15.594261"><ele>195.66666666666669</ele><time>2026-04-19T05:37:01.996Z</time></trkpt><trkpt lat="41.0951327" lon="15.5942599"><ele>196.33333333333334</ele><time>2026-04-19T05:37:02.996Z</time></trkpt><trkpt lat="41.0952844" lon="15.5942585"><ele>197.0</ele><time>2026-04-19T05:37:03.996Z</time></trkpt><trkpt lat="41.0954365" lon="15.5942569"><ele>197.0</ele><time>2026-04-19T05:37:04.997Z</time></trkpt><trkpt lat="41.0955907" lon="15.5942541"><ele>197.0</ele><time>2026-04-19T05:37:05.996Z</time></trkpt><trkpt lat="41.0957481" lon="15.5942506"><ele>197.0</ele><time>2026-04-19T05:37:06.996Z</time></trkpt><trkpt lat="41.0959047" lon="15.5942503"><ele>196.66666666666669</ele><time>2026-04-19T05:37:07.996Z</time></trkpt><trkpt lat="41.0960629" lon="15.5942537"><ele>196.33333333333331</ele><time>2026-04-19T05:37:08.996Z</time></trkpt><trkpt lat="41.0962204" lon="15.5942533"><ele>196.0</ele><time>2026-04-19T05:37:09.996Z</time></trkpt><trkpt lat="41.0963784" lon="15.5942527"><ele>196.0</ele><time>2026-04-19T05:37:10.996Z</time></trkpt><trkpt lat="41.0965388" lon="15.5942521"><ele>196.0</ele><time>2026-04-19T05:37:11.996Z</time></trkpt><trkpt lat="41.0967002" lon="15.594249"><ele>196.0</ele><time>2026-04-19T05:37:12.996Z</time></trkpt><trkpt lat="41.0968609" lon="15.5942449"><ele>195.66666666666666</ele><time>2026-04-19T05:37:13.996Z</time></trkpt><trkpt lat="41.0970202" lon="15.5942432"><ele>195.33333333333331</ele><time>2026-04-19T05:37:14.997Z</time></trkpt><trkpt lat="41.0971809" lon="15.5942447"><ele>195.0</ele><time>2026-04-19T05:37:15.997Z</time></trkpt><trkpt lat="41.0973408" lon="15.5942479"><ele>194.66666666666669</ele><time>2026-04-19T05:37:16.997Z</time></trkpt><trkpt lat="41.0974962" lon="15.5942494"><ele>194.33333333333334</ele><time>2026-04-19T05:37:17.997Z</time></trkpt><trkpt lat="41.0976495" lon="15.5942473"><ele>194.0</ele><time>2026-04-19T05:37:18.997Z</time></trkpt><trkpt lat="41.0978035" lon="15.5942456"><ele>194.0</ele><time>2026-04-19T05:37:19.997Z</time></trkpt><trkpt lat="41.0979579" lon="15.5942442"><ele>194.0</ele><time>2026-04-19T05:37:20.997Z</time></trkpt><trkpt lat="41.0981127" lon="15.5942444"><ele>194.0</ele><time>2026-04-19T05:37:21.997Z</time></trkpt><trkpt lat="41.0982675" lon="15.5942394"><ele>195.33333333333334</ele><time>2026-04-19T05:37:22.997Z</time></trkpt><trkpt lat="41.0984215" lon="15.5942329"><ele>196.66666666666669</ele><time>2026-04-19T05:37:23.997Z</time></trkpt><trkpt lat="41.0985738" lon="15.5942259"><ele>198.0</ele><time>2026-04-19T05:37:24.997Z</time></trkpt><trkpt lat="41.0987243" lon="15.5942238"><ele>198.0</ele><time>2026-04-19T05:37:25.997Z</time></trkpt><trkpt lat="41.0988752" lon="15.5942183"><ele>198.0</ele><time>2026-04-19T05:37:26.997Z</time></trkpt><trkpt lat="41.0990252" lon="15.5942132"><ele>198.0</ele><time>2026-04-19T05:37:27.997Z</time></trkpt><trkpt lat="41.0991724" lon="15.59421"><ele>198.0</ele><time>2026-04-19T05:37:28.997Z</time></trkpt><trkpt lat="41.0993215" lon="15.5942065"><ele>201.0</ele><time>2026-04-19T05:37:29.997Z</time></trkpt><trkpt lat="41.0994726" lon="15.5941999"><ele>204.0</ele><time>2026-04-19T05:37:30.996Z</time></trkpt><trkpt lat="41.0996244" lon="15.5941886"><ele>207.0</ele><time>2026-04-19T05:37:31.996Z</time></trkpt><trkpt lat="41.0997775" lon="15.5941711"><ele>209.33333333333331</ele><time>2026-04-19T05:37:32.996Z</time></trkpt><trkpt lat="41.0999312" lon="15.5941478"><ele>211.66666666666666</ele><time>2026-04-19T05:37:33.996Z</time></trkpt><trkpt lat="41.1000875" lon="15.5941232"><ele>214.0</ele><time>2026-04-19T05:37:34.996Z</time></trkpt><trkpt lat="41.1002447" lon="15.5940947"><ele>214.0</ele><time>2026-04-19T05:37:35.996Z</time></trkpt><trkpt lat="41.1004017" lon="15.5940623"><ele>214.0</ele><time>2026-04-19T05:37:36.996Z</time></trkpt><trkpt lat="41.1005577" lon="15.5940282"><ele>214.0</ele><time>2026-04-19T05:37:37.996Z</time></trkpt><trkpt lat="41.1007131" lon="15.5939891"><ele>215.0</ele><time>2026-04-19T05:37:38.997Z</time></trkpt><trkpt lat="41.1008681" lon="15.5939429"><ele>216.0</ele><time>2026-04-19T05:37:39.996Z</time></trkpt><trkpt lat="41.1010227" lon="15.5938896"><ele>217.0</ele><time>2026-04-19T05:37:40.996Z</time></trkpt><trkpt lat="41.1011771" lon="15.5938338"><ele>217.0</ele><time>2026-04-19T05:37:41.996Z</time></trkpt><trkpt lat="41.1013306" lon="15.5937802"><ele>217.0</ele><time>2026-04-19T05:37:42.996Z</time></trkpt><trkpt lat="41.1014821" lon="15.5937239"><ele>217.0</ele><time>2026-04-19T05:37:43.996Z</time></trkpt><trkpt lat="41.1016324" lon="15.593661"><ele>217.0</ele><time>2026-04-19T05:37:44.996Z</time></trkpt><trkpt lat="41.101782" lon="15.5935923"><ele>217.0</ele><time>2026-04-19T05:37:45.996Z</time></trkpt><trkpt lat="41.1019292" lon="15.5935204"><ele>217.0</ele><time>2026-04-19T05:37:46.996Z</time></trkpt><trkpt lat="41.1020741" lon="15.5934474"><ele>217.0</ele><time>2026-04-19T05:37:47.996Z</time></trkpt><trkpt lat="41.1022162" lon="15.5933735"><ele>217.0</ele><time>2026-04-19T05:37:48.996Z</time></trkpt><trkpt lat="41.1023576" lon="15.5932963"><ele>217.0</ele><time>2026-04-19T05:37:49.997Z</time></trkpt><trkpt lat="41.1024985" lon="15.5932155"><ele>217.33333333333331</ele><time>2026-04-19T05:37:50.997Z</time></trkpt><trkpt lat="41.1026395" lon="15.5931318"><ele>217.66666666666669</ele><time>2026-04-19T05:37:51.996Z</time></trkpt><trkpt lat="41.1027781" lon="15.5930458"><ele>218.0</ele><time>2026-04-19T05:37:52.996Z</time></trkpt><trkpt lat="41.1029159" lon="15.5929557"><ele>218.0</ele><time>2026-04-19T05:37:53.997Z</time></trkpt><trkpt lat="41.103054" lon="15.5928632"><ele>218.0</ele><time>2026-04-19T05:37:54.997Z</time></trkpt><trkpt lat="41.1031905" lon="15.5927663"><ele>218.0</ele><time>2026-04-19T05:37:55.996Z</time></trkpt><trkpt lat="41.1033262" lon="15.5926688"><ele>218.33333333333334</ele><time>2026-04-19T05:37:56.997Z</time></trkpt><trkpt lat="41.103461" lon="15.5925686"><ele>218.66666666666669</ele><time>2026-04-19T05:37:57.996Z</time></trkpt><trkpt lat="41.1035954" lon="15.5924642"><ele>219.0</ele><time>2026-04-19T05:37:58.996Z</time></trkpt><trkpt lat="41.1037285" lon="15.592355"><ele>219.0</ele><time>2026-04-19T05:37:59.996Z</time></trkpt><trkpt lat="41.1038602" lon="15.5922414"><ele>219.0</ele><time>2026-04-19T05:38:00.997Z</time></trkpt><trkpt lat="41.1039907" lon="15.5921261"><ele>219.0</ele><time>2026-04-19T05:38:01.996Z</time></trkpt><trkpt lat="41.1041182" lon="15.5920091"><ele>219.33333333333331</ele><time>2026-04-19T05:38:02.996Z</time></trkpt><trkpt lat="41.1042436" lon="15.5918882"><ele>219.66666666666666</ele><time>2026-04-19T05:38:03.996Z</time></trkpt><trkpt lat="41.1043683" lon="15.5917646"><ele>220.0</ele><time>2026-04-19T05:38:04.996Z</time></trkpt><trkpt lat="41.1044928" lon="15.5916376"><ele>220.0</ele><time>2026-04-19T05:38:05.996Z</time></trkpt><trkpt lat="41.1046185" lon="15.5915084"><ele>220.0</ele><time>2026-04-19T05:38:06.997Z</time></trkpt><trkpt lat="41.1047435" lon="15.5913801"><ele>220.0</ele><time>2026-04-19T05:38:07.996Z</time></trkpt><trkpt lat="41.1048693" lon="15.591249"><ele>220.0</ele><time>2026-04-19T05:38:08.996Z</time></trkpt><trkpt lat="41.1049958" lon="15.5911159"><ele>220.0</ele><time>2026-04-19T05:38:09.996Z</time></trkpt><trkpt lat="41.1051214" lon="15.59098"><ele>220.0</ele><time>2026-04-19T05:38:10.996Z</time></trkpt><trkpt lat="41.1052477" lon="15.590844"><ele>220.0</ele><time>2026-04-19T05:38:11.996Z</time></trkpt><trkpt lat="41.1053758" lon="15.590709"><ele>220.0</ele><time>2026-04-19T05:38:12.997Z</time></trkpt><trkpt lat="41.1055035" lon="15.5905744"><ele>220.0</ele><time>2026-04-19T05:38:13.996Z</time></trkpt><trkpt lat="41.1056293" lon="15.5904403"><ele>220.0</ele><time>2026-04-19T05:38:14.996Z</time></trkpt><trkpt lat="41.1057544" lon="15.5903057"><ele>220.0</ele><time>2026-04-19T05:38:15.996Z</time></trkpt><trkpt lat="41.1058803" lon="15.590172"><ele>220.0</ele><time>2026-04-19T05:38:16.996Z</time></trkpt><trkpt lat="41.1060033" lon="15.590038"><ele>220.0</ele><time>2026-04-19T05:38:17.997Z</time></trkpt><trkpt lat="41.106125" lon="15.5899045"><ele>220.0</ele><time>2026-04-19T05:38:18.997Z</time></trkpt><trkpt lat="41.1062439" lon="15.5897723"><ele>220.0</ele><time>2026-04-19T05:38:19.996Z</time></trkpt><trkpt lat="41.1063596" lon="15.5896472"><ele>220.0</ele><time>2026-04-19T05:38:20.996Z</time></trkpt><trkpt lat="41.1064747" lon="15.5895247"><ele>220.0</ele><time>2026-04-19T05:38:21.997Z</time></trkpt><trkpt lat="41.1065893" lon="15.5894021"><ele>220.0</ele><time>2026-04-19T05:38:22.996Z</time></trkpt><trkpt lat="41.1067041" lon="15.5892772"><ele>220.0</ele><time>2026-04-19T05:38:23.996Z</time></trkpt><trkpt lat="41.106819" lon="15.5891522"><ele>220.0</ele><time>2026-04-19T05:38:24.996Z</time></trkpt><trkpt lat="41.1069339" lon="15.5890283"><ele>220.0</ele><time>2026-04-19T05:38:25.996Z</time></trkpt><trkpt lat="41.1070474" lon="15.5889062"><ele>220.0</ele><time>2026-04-19T05:38:26.996Z</time></trkpt><trkpt lat="41.1071604" lon="15.5887849"><ele>220.0</ele><time>2026-04-19T05:38:27.997Z</time></trkpt><trkpt lat="41.1072737" lon="15.5886637"><ele>220.0</ele><time>2026-04-19T05:38:28.996Z</time></trkpt><trkpt lat="41.1073861" lon="15.5885438"><ele>220.0</ele><time>2026-04-19T05:38:29.996Z</time></trkpt><trkpt lat="41.1074974" lon="15.5884254"><ele>220.0</ele><time>2026-04-19T05:38:30.996Z</time></trkpt><trkpt lat="41.1076087" lon="15.5883082"><ele>220.0</ele><time>2026-04-19T05:38:31.996Z</time></trkpt><trkpt lat="41.1077211" lon="15.5881923"><ele>220.0</ele><time>2026-04-19T05:38:32.996Z</time></trkpt><trkpt lat="41.1078302" lon="15.5880758"><ele>220.0</ele><time>2026-04-19T05:38:33.997Z</time></trkpt><trkpt lat="41.1079368" lon="15.5879589"><ele>220.0</ele><time>2026-04-19T05:38:34.996Z</time></trkpt><trkpt lat="41.1080428" lon="15.5878425"><ele>220.0</ele><time>2026-04-19T05:38:35.996Z</time></trkpt><trkpt lat="41.1081495" lon="15.5877257"><ele>220.5</ele><time>2026-04-19T05:38:36.996Z</time></trkpt><trkpt lat="41.1082558" lon="15.5876102"><ele>221.0</ele><time>2026-04-19T05:38:37.996Z</time></trkpt><trkpt lat="41.10836" lon="15.5874956"><ele>221.5</ele><time>2026-04-19T05:38:38.997Z</time></trkpt><trkpt lat="41.1084625" lon="15.5873837"><ele>222.0</ele><time>2026-04-19T05:38:39.997Z</time></trkpt><trkpt lat="41.1085594" lon="15.5872774"><ele>222.0</ele><time>2026-04-19T05:38:40.996Z</time></trkpt><trkpt lat="41.1086486" lon="15.5871796"><ele>222.0</ele><time>2026-04-19T05:38:41.996Z</time></trkpt><trkpt lat="41.1087313" lon="15.5870898"><ele>222.0</ele><time>2026-04-19T05:38:42.997Z</time></trkpt><trkpt lat="41.1088083" lon="15.5870052"><ele>222.0</ele><time>2026-04-19T05:38:43.996Z</time></trkpt><trkpt lat="41.1088782" lon="15.5869286"><ele>222.0</ele><time>2026-04-19T05:38:44.996Z</time></trkpt><trkpt lat="41.1089457" lon="15.5868567"><ele>222.0</ele><time>2026-04-19T05:38:45.996Z</time></trkpt><trkpt lat="41.1090157" lon="15.5867858"><ele>222.0</ele><time>2026-04-19T05:38:46.996Z</time></trkpt><trkpt lat="41.1090805" lon="15.5867218"><ele>222.0</ele><time>2026-04-19T05:38:47.996Z</time></trkpt><trkpt lat="41.1091396" lon="15.586665"><ele>222.0</ele><time>2026-04-19T05:38:48.996Z</time></trkpt><trkpt lat="41.1091944" lon="15.5866112"><ele>222.0</ele><time>2026-04-19T05:38:49.996Z</time></trkpt><trkpt lat="41.1092473" lon="15.5865563"><ele>222.0</ele><time>2026-04-19T05:38:50.996Z</time></trkpt><trkpt lat="41.1092999" lon="15.5865027"><ele>222.0</ele><time>2026-04-19T05:38:51.996Z</time></trkpt><trkpt lat="41.109391" lon="15.5864151"><ele>222.0</ele><time>2026-04-19T05:38:53.996Z</time></trkpt><trkpt lat="41.1094774" lon="15.5863145"><ele>222.0</ele><time>2026-04-19T05:38:55.997Z</time></trkpt><trkpt lat="41.1095617" lon="15.5862"><ele>222.0</ele><time>2026-04-19T05:38:57.996Z</time></trkpt><trkpt lat="41.1096334" lon="15.5861271"><ele>222.0</ele><time>2026-04-19T05:38:59.997Z</time></trkpt><trkpt lat="41.1097183" lon="15.586085"><ele>222.0</ele><time>2026-04-19T05:39:26.997Z</time></trkpt><trkpt lat="41.1098683" lon="15.58592"><ele>222.39999999999998</ele><time>2026-04-19T05:39:29.996Z</time></trkpt><trkpt lat="41.1099383" lon="15.585835"><ele>222.79999999999998</ele><time>2026-04-19T05:39:30.996Z</time></trkpt><trkpt lat="41.110015" lon="15.5857417"><ele>223.2</ele><time>2026-04-19T05:39:31.996Z</time></trkpt><trkpt lat="41.1101017" lon="15.5856467"><ele>223.6</ele><time>2026-04-19T05:39:32.996Z</time></trkpt><trkpt lat="41.1101967" lon="15.5855483"><ele>224.0</ele><time>2026-04-19T05:39:33.996Z</time></trkpt><trkpt lat="41.1102933" lon="15.5854433"><ele>224.25</ele><time>2026-04-19T05:39:34.996Z</time></trkpt><trkpt lat="41.1104" lon="15.58533"><ele>224.5</ele><time>2026-04-19T05:39:35.996Z</time></trkpt><trkpt lat="41.11051" lon="15.5852117"><ele>224.75</ele><time>2026-04-19T05:39:36.996Z</time></trkpt><trkpt lat="41.11062" lon="15.58509"><ele>225.0</ele><time>2026-04-19T05:39:37.997Z</time></trkpt><trkpt lat="41.11073" lon="15.5849683"><ele>224.33333333333331</ele><time>2026-04-19T05:39:38.997Z</time></trkpt><trkpt lat="41.1108467" lon="15.5848433"><ele>223.66666666666666</ele><time>2026-04-19T05:39:39.997Z</time></trkpt><trkpt lat="41.1109636" lon="15.5847154"><ele>223.0</ele><time>2026-04-19T05:39:40.996Z</time></trkpt><trkpt lat="41.1110813" lon="15.5845856"><ele>223.33333333333331</ele><time>2026-04-19T05:39:41.996Z</time></trkpt><trkpt lat="41.1111981" lon="15.5844535"><ele>223.66666666666669</ele><time>2026-04-19T05:39:42.996Z</time></trkpt><trkpt lat="41.1113142" lon="15.5843213"><ele>224.0</ele><time>2026-04-19T05:39:43.997Z</time></trkpt><trkpt lat="41.1114344" lon="15.584192"><ele>224.0</ele><time>2026-04-19T05:39:44.996Z</time></trkpt><trkpt lat="41.1115555" lon="15.5840631"><ele>224.0</ele><time>2026-04-19T05:39:45.996Z</time></trkpt><trkpt lat="41.1116775" lon="15.5839313"><ele>224.0</ele><time>2026-04-19T05:39:46.997Z</time></trkpt><trkpt lat="41.1117985" lon="15.5837975"><ele>225.66666666666669</ele><time>2026-04-19T05:39:47.996Z</time></trkpt><trkpt lat="41.1119188" lon="15.5836658"><ele>227.33333333333331</ele><time>2026-04-19T05:39:48.996Z</time></trkpt><trkpt lat="41.1120396" lon="15.5835355"><ele>229.0</ele><time>2026-04-19T05:39:49.996Z</time></trkpt><trkpt lat="41.1121605" lon="15.5834064"><ele>229.0</ele><time>2026-04-19T05:39:50.996Z</time></trkpt><trkpt lat="41.1122801" lon="15.5832743"><ele>229.0</ele><time>2026-04-19T05:39:51.996Z</time></trkpt><trkpt lat="41.1124004" lon="15.5831409"><ele>229.0</ele><time>2026-04-19T05:39:52.996Z</time></trkpt><trkpt lat="41.1125194" lon="15.5830075"><ele>229.33333333333331</ele><time>2026-04-19T05:39:53.996Z</time></trkpt><trkpt lat="41.1126369" lon="15.5828746"><ele>229.66666666666669</ele><time>2026-04-19T05:39:54.997Z</time></trkpt><trkpt lat="41.1127554" lon="15.5827437"><ele>230.0</ele><time>2026-04-19T05:39:55.996Z</time></trkpt><trkpt lat="41.1128754" lon="15.5826132"><ele>231.0</ele><time>2026-04-19T05:39:56.996Z</time></trkpt><trkpt lat="41.112993" lon="15.5824823"><ele>232.0</ele><time>2026-04-19T05:39:57.996Z</time></trkpt><trkpt lat="41.113112" lon="15.5823561"><ele>233.0</ele><time>2026-04-19T05:39:58.996Z</time></trkpt><trkpt lat="41.1132311" lon="15.582232"><ele>233.5</ele><time>2026-04-19T05:39:59.997Z</time></trkpt><trkpt lat="41.1133495" lon="15.5821078"><ele>234.0</ele><time>2026-04-19T05:40:00.996Z</time></trkpt><trkpt lat="41.1134647" lon="15.5819807"><ele>234.5</ele><time>2026-04-19T05:40:01.996Z</time></trkpt><trkpt lat="41.1135747" lon="15.5818591"><ele>235.0</ele><time>2026-04-19T05:40:02.996Z</time></trkpt><trkpt lat="41.1136752" lon="15.5817532"><ele>235.2</ele><time>2026-04-19T05:40:03.996Z</time></trkpt><trkpt lat="41.113768" lon="15.5816607"><ele>235.4</ele><time>2026-04-19T05:40:04.996Z</time></trkpt><trkpt lat="41.1138492" lon="15.5815725"><ele>235.60000000000002</ele><time>2026-04-19T05:40:05.996Z</time></trkpt><trkpt lat="41.1139282" lon="15.581484"><ele>235.8</ele><time>2026-04-19T05:40:06.996Z</time></trkpt><trkpt lat="41.1140128" lon="15.581389"><ele>236.0</ele><time>2026-04-19T05:40:07.996Z</time></trkpt><trkpt lat="41.1141024" lon="15.58129"><ele>236.20000000000002</ele><time>2026-04-19T05:40:08.996Z</time></trkpt><trkpt lat="41.1141907" lon="15.5811904"><ele>236.40000000000003</ele><time>2026-04-19T05:40:09.996Z</time></trkpt><trkpt lat="41.1142784" lon="15.5810961"><ele>236.6</ele><time>2026-04-19T05:40:10.997Z</time></trkpt><trkpt lat="41.1143609" lon="15.5810084"><ele>236.8</ele><time>2026-04-19T05:40:11.997Z</time></trkpt><trkpt lat="41.1144375" lon="15.5809268"><ele>237.0</ele><time>2026-04-19T05:40:12.996Z</time></trkpt><trkpt lat="41.1145068" lon="15.5808529"><ele>237.0</ele><time>2026-04-19T05:40:13.996Z</time></trkpt><trkpt lat="41.1145691" lon="15.5807841"><ele>237.0</ele><time>2026-04-19T05:40:14.996Z</time></trkpt><trkpt lat="41.1146269" lon="15.5807226"><ele>237.0</ele><time>2026-04-19T05:40:15.996Z</time></trkpt><trkpt lat="41.1146787" lon="15.5806691"><ele>237.0</ele><time>2026-04-19T05:40:16.996Z</time></trkpt><trkpt lat="41.1147662" lon="15.5805871"><ele>237.0</ele><time>2026-04-19T05:40:18.996Z</time></trkpt><trkpt lat="41.1150199" lon="15.5802702"><ele>236.0</ele><time>2026-04-19T05:41:08.996Z</time></trkpt><trkpt lat="41.1151668" lon="15.5800974"><ele>235.0</ele><time>2026-04-19T05:41:09.996Z</time></trkpt><trkpt lat="41.1153152" lon="15.5799378"><ele>234.0</ele><time>2026-04-19T05:41:10.996Z</time></trkpt><trkpt lat="41.1154657" lon="15.5797773"><ele>234.0</ele><time>2026-04-19T05:41:11.996Z</time></trkpt><trkpt lat="41.1156195" lon="15.5796132"><ele>234.0</ele><time>2026-04-19T05:41:12.997Z</time></trkpt><trkpt lat="41.115778" lon="15.5794438"><ele>234.0</ele><time>2026-04-19T05:41:13.996Z</time></trkpt><trkpt lat="41.1159386" lon="15.5792624"><ele>234.33333333333331</ele><time>2026-04-19T05:41:14.996Z</time></trkpt><trkpt lat="41.1161083" lon="15.57908"><ele>234.66666666666666</ele><time>2026-04-19T05:41:15.996Z</time></trkpt><trkpt lat="41.1162767" lon="15.5788917"><ele>235.0</ele><time>2026-04-19T05:41:16.996Z</time></trkpt><trkpt lat="41.1164433" lon="15.578695"><ele>235.0</ele><time>2026-04-19T05:41:17.996Z</time></trkpt><trkpt lat="41.1166083" lon="15.5784933"><ele>235.0</ele><time>2026-04-19T05:41:18.996Z</time></trkpt><trkpt lat="41.11677" lon="15.578285"><ele>235.0</ele><time>2026-04-19T05:41:19.996Z</time></trkpt><trkpt lat="41.1169333" lon="15.5780683"><ele>235.0</ele><time>2026-04-19T05:41:20.996Z</time></trkpt><trkpt lat="41.117095" lon="15.57785"><ele>235.0</ele><time>2026-04-19T05:41:21.996Z</time></trkpt><trkpt lat="41.1172517" lon="15.5776267"><ele>235.0</ele><time>2026-04-19T05:41:22.996Z</time></trkpt><trkpt lat="41.117405" lon="15.5773967"><ele>234.5</ele><time>2026-04-19T05:41:23.996Z</time></trkpt><trkpt lat="41.1175567" lon="15.5771617"><ele>234.0</ele><time>2026-04-19T05:41:24.996Z</time></trkpt><trkpt lat="41.1177033" lon="15.5769267"><ele>235.5</ele><time>2026-04-19T05:41:25.996Z</time></trkpt><trkpt lat="41.11785" lon="15.5766917"><ele>237.0</ele><time>2026-04-19T05:41:26.996Z</time></trkpt><trkpt lat="41.1179967" lon="15.5764567"><ele>237.0</ele><time>2026-04-19T05:41:27.996Z</time></trkpt><trkpt lat="41.1181483" lon="15.5762167"><ele>237.0</ele><time>2026-04-19T05:41:28.997Z</time></trkpt><trkpt lat="41.11829" lon="15.5759717"><ele>237.0</ele><time>2026-04-19T05:41:29.996Z</time></trkpt><trkpt lat="41.1184233" lon="15.5757283"><ele>237.0</ele><time>2026-04-19T05:41:30.997Z</time></trkpt><trkpt lat="41.1185617" lon="15.5754867"><ele>238.5</ele><time>2026-04-19T05:41:31.996Z</time></trkpt><trkpt lat="41.1187" lon="15.5752467"><ele>240.0</ele><time>2026-04-19T05:41:32.996Z</time></trkpt><trkpt lat="41.1188367" lon="15.5750117"><ele>240.0</ele><time>2026-04-19T05:41:33.996Z</time></trkpt><trkpt lat="41.1189683" lon="15.5747817"><ele>240.0</ele><time>2026-04-19T05:41:34.996Z</time></trkpt><trkpt lat="41.1191" lon="15.574555"><ele>240.0</ele><time>2026-04-19T05:41:35.996Z</time></trkpt><trkpt lat="41.1192283" lon="15.57433"><ele>239.66666666666669</ele><time>2026-04-19T05:41:36.996Z</time></trkpt><trkpt lat="41.119355" lon="15.57411"><ele>239.33333333333334</ele><time>2026-04-19T05:41:37.996Z</time></trkpt><trkpt lat="41.11948" lon="15.57389"><ele>239.0</ele><time>2026-04-19T05:41:38.996Z</time></trkpt><trkpt lat="41.1196067" lon="15.57367"><ele>239.0</ele><time>2026-04-19T05:41:39.997Z</time></trkpt><trkpt lat="41.11973" lon="15.57345"><ele>239.0</ele><time>2026-04-19T05:41:40.996Z</time></trkpt><trkpt lat="41.1198517" lon="15.5732333"><ele>239.0</ele><time>2026-04-19T05:41:41.997Z</time></trkpt><trkpt lat="41.1199717" lon="15.5730233"><ele>238.33333333333334</ele><time>2026-04-19T05:41:42.996Z</time></trkpt><trkpt lat="41.1200883" lon="15.5728167"><ele>237.66666666666669</ele><time>2026-04-19T05:41:43.997Z</time></trkpt><trkpt lat="41.120205" lon="15.5726133"><ele>237.0</ele><time>2026-04-19T05:41:44.996Z</time></trkpt><trkpt lat="41.1203217" lon="15.5724117"><ele>237.0</ele><time>2026-04-19T05:41:45.996Z</time></trkpt><trkpt lat="41.12044" lon="15.5722067"><ele>237.0</ele><time>2026-04-19T05:41:46.996Z</time></trkpt><trkpt lat="41.1205617" lon="15.572"><ele>237.0</ele><time>2026-04-19T05:41:47.996Z</time></trkpt><trkpt lat="41.1206817" lon="15.57179"><ele>237.0</ele><time>2026-04-19T05:41:48.996Z</time></trkpt><trkpt lat="41.1208" lon="15.5715817"><ele>237.0</ele><time>2026-04-19T05:41:49.996Z</time></trkpt><trkpt lat="41.120915" lon="15.5713783"><ele>237.0</ele><time>2026-04-19T05:41:50.996Z</time></trkpt><trkpt lat="41.12103" lon="15.5711783"><ele>237.66666666666669</ele><time>2026-04-19T05:41:51.996Z</time></trkpt><trkpt lat="41.1211433" lon="15.57098"><ele>238.33333333333334</ele><time>2026-04-19T05:41:52.996Z</time></trkpt><trkpt lat="41.1212583" lon="15.57078"><ele>239.0</ele><time>2026-04-19T05:41:53.996Z</time></trkpt><trkpt lat="41.1213717" lon="15.5705783"><ele>239.0</ele><time>2026-04-19T05:41:54.996Z</time></trkpt><trkpt lat="41.1214867" lon="15.570375"><ele>239.0</ele><time>2026-04-19T05:41:55.996Z</time></trkpt><trkpt lat="41.1216017" lon="15.57017"><ele>239.0</ele><time>2026-04-19T05:41:56.996Z</time></trkpt><trkpt lat="41.1217183" lon="15.5699667"><ele>238.66666666666669</ele><time>2026-04-19T05:41:57.996Z</time></trkpt><trkpt lat="41.1218333" lon="15.5697617"><ele>238.33333333333331</ele><time>2026-04-19T05:41:58.996Z</time></trkpt><trkpt lat="41.1219467" lon="15.56956"><ele>238.0</ele><time>2026-04-19T05:41:59.996Z</time></trkpt><trkpt lat="41.1220617" lon="15.56936"><ele>238.0</ele><time>2026-04-19T05:42:00.996Z</time></trkpt><trkpt lat="41.1221783" lon="15.5691583"><ele>238.0</ele><time>2026-04-19T05:42:01.996Z</time></trkpt><trkpt lat="41.122295" lon="15.568955"><ele>238.0</ele><time>2026-04-19T05:42:02.996Z</time></trkpt><trkpt lat="41.12241" lon="15.56875"><ele>239.0</ele><time>2026-04-19T05:42:03.996Z</time></trkpt><trkpt lat="41.1225267" lon="15.56854"><ele>240.0</ele><time>2026-04-19T05:42:04.996Z</time></trkpt><trkpt lat="41.1226433" lon="15.5683317"><ele>241.0</ele><time>2026-04-19T05:42:05.996Z</time></trkpt><trkpt lat="41.1227617" lon="15.568125"><ele>241.0</ele><time>2026-04-19T05:42:06.996Z</time></trkpt><trkpt lat="41.1228767" lon="15.56792"><ele>241.0</ele><time>2026-04-19T05:42:07.996Z</time></trkpt><trkpt lat="41.12299" lon="15.567715"><ele>241.0</ele><time>2026-04-19T05:42:08.996Z</time></trkpt><trkpt lat="41.123105" lon="15.567515"><ele>241.33333333333331</ele><time>2026-04-19T05:42:09.996Z</time></trkpt><trkpt lat="41.1232217" lon="15.5673167"><ele>241.66666666666669</ele><time>2026-04-19T05:42:10.997Z</time></trkpt><trkpt lat="41.1233367" lon="15.5671183"><ele>242.0</ele><time>2026-04-19T05:42:11.996Z</time></trkpt><trkpt lat="41.1234517" lon="15.5669183"><ele>242.33333333333334</ele><time>2026-04-19T05:42:12.996Z</time></trkpt><trkpt lat="41.1235667" lon="15.5667133"><ele>242.66666666666669</ele><time>2026-04-19T05:42:13.996Z</time></trkpt><trkpt lat="41.1236833" lon="15.5665083"><ele>243.0</ele><time>2026-04-19T05:42:14.996Z</time></trkpt><trkpt lat="41.1238" lon="15.5663017"><ele>242.66666666666669</ele><time>2026-04-19T05:42:15.997Z</time></trkpt><trkpt lat="41.1239183" lon="15.5660933"><ele>242.33333333333334</ele><time>2026-04-19T05:42:16.996Z</time></trkpt><trkpt lat="41.1240383" lon="15.5658833"><ele>242.0</ele><time>2026-04-19T05:42:17.996Z</time></trkpt><trkpt lat="41.12416" lon="15.5656733"><ele>242.66666666666669</ele><time>2026-04-19T05:42:18.996Z</time></trkpt><trkpt lat="41.1242833" lon="15.5654633"><ele>243.33333333333331</ele><time>2026-04-19T05:42:19.997Z</time></trkpt><trkpt lat="41.124405" lon="15.5652533"><ele>244.0</ele><time>2026-04-19T05:42:20.996Z</time></trkpt><trkpt lat="41.1245267" lon="15.5650433"><ele>244.0</ele><time>2026-04-19T05:42:21.996Z</time></trkpt><trkpt lat="41.1246467" lon="15.5648317"><ele>244.0</ele><time>2026-04-19T05:42:22.997Z</time></trkpt><trkpt lat="41.124765" lon="15.56462"><ele>244.0</ele><time>2026-04-19T05:42:23.996Z</time></trkpt><trkpt lat="41.124885" lon="15.5644067"><ele>244.33333333333331</ele><time>2026-04-19T05:42:24.996Z</time></trkpt><trkpt lat="41.1250067" lon="15.564195"><ele>244.66666666666669</ele><time>2026-04-19T05:42:25.996Z</time></trkpt><trkpt lat="41.1251267" lon="15.56398"><ele>245.0</ele><time>2026-04-19T05:42:26.996Z</time></trkpt><trkpt lat="41.1252483" lon="15.5637667"><ele>245.33333333333334</ele><time>2026-04-19T05:42:27.996Z</time></trkpt><trkpt lat="41.1253683" lon="15.5635533"><ele>245.66666666666669</ele><time>2026-04-19T05:42:28.996Z</time></trkpt><trkpt lat="41.1254917" lon="15.56334"><ele>246.0</ele><time>2026-04-19T05:42:29.996Z</time></trkpt><trkpt lat="41.1256133" lon="15.563125"><ele>245.33333333333331</ele><time>2026-04-19T05:42:30.997Z</time></trkpt><trkpt lat="41.125735" lon="15.56291"><ele>244.66666666666666</ele><time>2026-04-19T05:42:31.996Z</time></trkpt><trkpt lat="41.1258567" lon="15.5626933"><ele>244.0</ele><time>2026-04-19T05:42:32.996Z</time></trkpt><trkpt lat="41.12598" lon="15.5624783"><ele>244.0</ele><time>2026-04-19T05:42:33.996Z</time></trkpt><trkpt lat="41.1261033" lon="15.5622617"><ele>244.0</ele><time>2026-04-19T05:42:34.996Z</time></trkpt><trkpt lat="41.1262267" lon="15.562045"><ele>244.0</ele><time>2026-04-19T05:42:35.996Z</time></trkpt><trkpt lat="41.12635" lon="15.5618317"><ele>244.0</ele><time>2026-04-19T05:42:36.996Z</time></trkpt><trkpt lat="41.1264733" lon="15.5616183"><ele>244.0</ele><time>2026-04-19T05:42:37.997Z</time></trkpt><trkpt lat="41.126595" lon="15.561405"><ele>244.0</ele><time>2026-04-19T05:42:38.997Z</time></trkpt><trkpt lat="41.126715" lon="15.5611933"><ele>243.33333333333331</ele><time>2026-04-19T05:42:39.996Z</time></trkpt><trkpt lat="41.1268317" lon="15.5609817"><ele>242.66666666666669</ele><time>2026-04-19T05:42:40.996Z</time></trkpt><trkpt lat="41.12695" lon="15.5607733"><ele>242.0</ele><time>2026-04-19T05:42:41.997Z</time></trkpt><trkpt lat="41.1270667" lon="15.560565"><ele>242.0</ele><time>2026-04-19T05:42:42.996Z</time></trkpt><trkpt lat="41.127185" lon="15.5603567"><ele>242.0</ele><time>2026-04-19T05:42:43.996Z</time></trkpt><trkpt lat="41.127305" lon="15.5601467"><ele>242.0</ele><time>2026-04-19T05:42:44.996Z</time></trkpt><trkpt lat="41.1274283" lon="15.559935"><ele>242.0</ele><time>2026-04-19T05:42:45.996Z</time></trkpt><trkpt lat="41.1275517" lon="15.5597217"><ele>242.0</ele><time>2026-04-19T05:42:46.996Z</time></trkpt><trkpt lat="41.127675" lon="15.5595067"><ele>242.0</ele><time>2026-04-19T05:42:47.996Z</time></trkpt><trkpt lat="41.1277983" lon="15.5592917"><ele>242.66666666666669</ele><time>2026-04-19T05:42:48.997Z</time></trkpt><trkpt lat="41.12792" lon="15.559075"><ele>243.33333333333331</ele><time>2026-04-19T05:42:49.996Z</time></trkpt><trkpt lat="41.128045" lon="15.5588567"><ele>244.0</ele><time>2026-04-19T05:42:50.996Z</time></trkpt><trkpt lat="41.1281683" lon="15.55864"><ele>243.66666666666666</ele><time>2026-04-19T05:42:51.997Z</time></trkpt><trkpt lat="41.128295" lon="15.5584217"><ele>243.33333333333331</ele><time>2026-04-19T05:42:52.996Z</time></trkpt><trkpt lat="41.1284183" lon="15.5582017"><ele>243.0</ele><time>2026-04-19T05:42:53.997Z</time></trkpt><trkpt lat="41.1285417" lon="15.55798"><ele>243.66666666666669</ele><time>2026-04-19T05:42:54.996Z</time></trkpt><trkpt lat="41.128665" lon="15.55776"><ele>244.33333333333334</ele><time>2026-04-19T05:42:55.996Z</time></trkpt><trkpt lat="41.12879" lon="15.55754"><ele>245.0</ele><time>2026-04-19T05:42:56.996Z</time></trkpt><trkpt lat="41.128915" lon="15.55732"><ele>245.0</ele><time>2026-04-19T05:42:57.996Z</time></trkpt><trkpt lat="41.1290383" lon="15.5571"><ele>245.0</ele><time>2026-04-19T05:42:58.996Z</time></trkpt><trkpt lat="41.1291633" lon="15.55688"><ele>245.0</ele><time>2026-04-19T05:42:59.996Z</time></trkpt><trkpt lat="41.1292883" lon="15.5566633"><ele>245.0</ele><time>2026-04-19T05:43:00.996Z</time></trkpt><trkpt lat="41.1294133" lon="15.556445"><ele>245.0</ele><time>2026-04-19T05:43:01.996Z</time></trkpt><trkpt lat="41.1295383" lon="15.5562283"><ele>245.0</ele><time>2026-04-19T05:43:02.996Z</time></trkpt><trkpt lat="41.1296633" lon="15.55601"><ele>245.0</ele><time>2026-04-19T05:43:03.996Z</time></trkpt><trkpt lat="41.1297883" lon="15.5557883"><ele>245.0</ele><time>2026-04-19T05:43:04.996Z</time></trkpt><trkpt lat="41.1299117" lon="15.5555683"><ele>245.0</ele><time>2026-04-19T05:43:05.996Z</time></trkpt><trkpt lat="41.1300367" lon="15.55535"><ele>245.66666666666669</ele><time>2026-04-19T05:43:06.997Z</time></trkpt><trkpt lat="41.1301633" lon="15.5551317"><ele>246.33333333333331</ele><time>2026-04-19T05:43:07.996Z</time></trkpt><trkpt lat="41.1302917" lon="15.5549117"><ele>247.0</ele><time>2026-04-19T05:43:08.996Z</time></trkpt><trkpt lat="41.1304183" lon="15.5546917"><ele>247.0</ele><time>2026-04-19T05:43:09.996Z</time></trkpt><trkpt lat="41.130545" lon="15.5544683"><ele>247.0</ele><time>2026-04-19T05:43:10.996Z</time></trkpt><trkpt lat="41.13067" lon="15.554245"><ele>247.0</ele><time>2026-04-19T05:43:11.996Z</time></trkpt><trkpt lat="41.1307967" lon="15.5540233"><ele>246.66666666666666</ele><time>2026-04-19T05:43:12.996Z</time></trkpt><trkpt lat="41.130925" lon="15.5538017"><ele>246.33333333333331</ele><time>2026-04-19T05:43:13.997Z</time></trkpt><trkpt lat="41.1310533" lon="15.5535783"><ele>246.0</ele><time>2026-04-19T05:43:14.997Z</time></trkpt><trkpt lat="41.13118" lon="15.553355"><ele>246.0</ele><time>2026-04-19T05:43:15.996Z</time></trkpt><trkpt lat="41.131305" lon="15.5531333"><ele>246.0</ele><time>2026-04-19T05:43:16.997Z</time></trkpt><trkpt lat="41.1314317" lon="15.55291"><ele>246.0</ele><time>2026-04-19T05:43:17.997Z</time></trkpt><trkpt lat="41.1315583" lon="15.5526883"><ele>246.33333333333331</ele><time>2026-04-19T05:43:18.996Z</time></trkpt><trkpt lat="41.1316867" lon="15.5524667"><ele>246.66666666666666</ele><time>2026-04-19T05:43:19.997Z</time></trkpt><trkpt lat="41.1318133" lon="15.552245"><ele>247.0</ele><time>2026-04-19T05:43:20.996Z</time></trkpt><trkpt lat="41.13194" lon="15.55202"><ele>248.0</ele><time>2026-04-19T05:43:21.996Z</time></trkpt><trkpt lat="41.1320667" lon="15.5517967"><ele>249.0</ele><time>2026-04-19T05:43:22.996Z</time></trkpt><trkpt lat="41.1321933" lon="15.5515717"><ele>250.0</ele><time>2026-04-19T05:43:23.996Z</time></trkpt><trkpt lat="41.13232" lon="15.551345"><ele>250.0</ele><time>2026-04-19T05:43:24.996Z</time></trkpt><trkpt lat="41.1324467" lon="15.55112"><ele>250.0</ele><time>2026-04-19T05:43:25.996Z</time></trkpt><trkpt lat="41.132575" lon="15.550895"><ele>250.0</ele><time>2026-04-19T05:43:26.996Z</time></trkpt><trkpt lat="41.1327033" lon="15.55067"><ele>250.0</ele><time>2026-04-19T05:43:27.996Z</time></trkpt><trkpt lat="41.1328317" lon="15.5504467"><ele>250.0</ele><time>2026-04-19T05:43:28.997Z</time></trkpt><trkpt lat="41.1329583" lon="15.5502217"><ele>250.0</ele><time>2026-04-19T05:43:29.996Z</time></trkpt><trkpt lat="41.1330867" lon="15.5499983"><ele>250.0</ele><time>2026-04-19T05:43:30.996Z</time></trkpt><trkpt lat="41.1332133" lon="15.5497733"><ele>250.0</ele><time>2026-04-19T05:43:31.996Z</time></trkpt><trkpt lat="41.13334" lon="15.54955"><ele>250.0</ele><time>2026-04-19T05:43:32.996Z</time></trkpt><trkpt lat="41.1334667" lon="15.5493283"><ele>250.66666666666666</ele><time>2026-04-19T05:43:33.996Z</time></trkpt><trkpt lat="41.1335967" lon="15.5491067"><ele>251.33333333333331</ele><time>2026-04-19T05:43:34.996Z</time></trkpt><trkpt lat="41.133725" lon="15.5488833"><ele>252.0</ele><time>2026-04-19T05:43:35.996Z</time></trkpt><trkpt lat="41.1338517" lon="15.54866"><ele>252.0</ele><time>2026-04-19T05:43:36.996Z</time></trkpt><trkpt lat="41.1339783" lon="15.5484367"><ele>252.0</ele><time>2026-04-19T05:43:37.996Z</time></trkpt><trkpt lat="41.134105" lon="15.54821"><ele>252.0</ele><time>2026-04-19T05:43:38.996Z</time></trkpt><trkpt lat="41.1342333" lon="15.547985"><ele>251.66666666666669</ele><time>2026-04-19T05:43:39.996Z</time></trkpt><trkpt lat="41.1343617" lon="15.5477617"><ele>251.33333333333334</ele><time>2026-04-19T05:43:40.996Z</time></trkpt><trkpt lat="41.1344917" lon="15.5475367"><ele>251.0</ele><time>2026-04-19T05:43:41.996Z</time></trkpt><trkpt lat="41.1346233" lon="15.5473117"><ele>251.0</ele><time>2026-04-19T05:43:42.996Z</time></trkpt><trkpt lat="41.134755" lon="15.5470883"><ele>251.0</ele><time>2026-04-19T05:43:43.996Z</time></trkpt><trkpt lat="41.13489" lon="15.546865"><ele>251.0</ele><time>2026-04-19T05:43:44.996Z</time></trkpt><trkpt lat="41.1350267" lon="15.5466417"><ele>251.0</ele><time>2026-04-19T05:43:45.996Z</time></trkpt><trkpt lat="41.135165" lon="15.5464183"><ele>251.0</ele><time>2026-04-19T05:43:46.996Z</time></trkpt><trkpt lat="41.1353067" lon="15.5461967"><ele>251.0</ele><time>2026-04-19T05:43:47.996Z</time></trkpt><trkpt lat="41.1354517" lon="15.545975"><ele>251.33333333333334</ele><time>2026-04-19T05:43:48.996Z</time></trkpt><trkpt lat="41.1355983" lon="15.545755"><ele>251.66666666666669</ele><time>2026-04-19T05:43:49.996Z</time></trkpt><trkpt lat="41.1357483" lon="15.545535"><ele>252.0</ele><time>2026-04-19T05:43:50.996Z</time></trkpt><trkpt lat="41.1359" lon="15.545315"><ele>252.5</ele><time>2026-04-19T05:43:51.996Z</time></trkpt><trkpt lat="41.1360533" lon="15.5450933"><ele>253.0</ele><time>2026-04-19T05:43:52.997Z</time></trkpt><trkpt lat="41.1362067" lon="15.5448717"><ele>253.0</ele><time>2026-04-19T05:43:53.996Z</time></trkpt><trkpt lat="41.1363633" lon="15.5446483"><ele>253.0</ele><time>2026-04-19T05:43:54.997Z</time></trkpt><trkpt lat="41.1365217" lon="15.5444267"><ele>254.0</ele><time>2026-04-19T05:43:55.996Z</time></trkpt><trkpt lat="41.1366817" lon="15.5442083"><ele>255.0</ele><time>2026-04-19T05:43:56.997Z</time></trkpt><trkpt lat="41.1368433" lon="15.5439933"><ele>255.0</ele><time>2026-04-19T05:43:57.996Z</time></trkpt><trkpt lat="41.137005" lon="15.543785"><ele>255.0</ele><time>2026-04-19T05:43:58.996Z</time></trkpt><trkpt lat="41.1371667" lon="15.5435833"><ele>255.0</ele><time>2026-04-19T05:43:59.996Z</time></trkpt><trkpt lat="41.1373267" lon="15.5433817"><ele>255.0</ele><time>2026-04-19T05:44:00.996Z</time></trkpt><trkpt lat="41.1374867" lon="15.5431817"><ele>255.0</ele><time>2026-04-19T05:44:01.996Z</time></trkpt><trkpt lat="41.137645" lon="15.542985"><ele>255.0</ele><time>2026-04-19T05:44:02.997Z</time></trkpt><trkpt lat="41.137805" lon="15.5427867"><ele>255.66666666666669</ele><time>2026-04-19T05:44:03.996Z</time></trkpt><trkpt lat="41.1379683" lon="15.542595"><ele>256.33333333333337</ele><time>2026-04-19T05:44:04.997Z</time></trkpt><trkpt lat="41.1381333" lon="15.5424033"><ele>257.0</ele><time>2026-04-19T05:44:05.996Z</time></trkpt><trkpt lat="41.1383" lon="15.542215"><ele>258.0</ele><time>2026-04-19T05:44:06.997Z</time></trkpt><trkpt lat="41.1384667" lon="15.5420283"><ele>259.0</ele><time>2026-04-19T05:44:07.996Z</time></trkpt><trkpt lat="41.1386333" lon="15.5418417"><ele>260.0</ele><time>2026-04-19T05:44:08.996Z</time></trkpt><trkpt lat="41.1388" lon="15.5416567"><ele>260.0</ele><time>2026-04-19T05:44:09.996Z</time></trkpt><trkpt lat="41.1389667" lon="15.5414717"><ele>260.0</ele><time>2026-04-19T05:44:10.996Z</time></trkpt><trkpt lat="41.13913" lon="15.5412867"><ele>260.0</ele><time>2026-04-19T05:44:11.996Z</time></trkpt><trkpt lat="41.1392933" lon="15.5411"><ele>259.6666666666667</ele><time>2026-04-19T05:44:12.996Z</time></trkpt><trkpt lat="41.13945" lon="15.5409117"><ele>259.3333333333333</ele><time>2026-04-19T05:44:13.996Z</time></trkpt><trkpt lat="41.1396017" lon="15.540715"><ele>259.0</ele><time>2026-04-19T05:44:14.996Z</time></trkpt><trkpt lat="41.1397433" lon="15.54051"><ele>259.3333333333333</ele><time>2026-04-19T05:44:15.996Z</time></trkpt><trkpt lat="41.139875" lon="15.5402933"><ele>259.6666666666667</ele><time>2026-04-19T05:44:16.997Z</time></trkpt><trkpt lat="41.1399983" lon="15.5400683"><ele>260.0</ele><time>2026-04-19T05:44:17.996Z</time></trkpt><trkpt lat="41.1401183" lon="15.5398383"><ele>260.33333333333337</ele><time>2026-04-19T05:44:18.997Z</time></trkpt><trkpt lat="41.14023" lon="15.5396017"><ele>260.6666666666667</ele><time>2026-04-19T05:44:19.996Z</time></trkpt><trkpt lat="41.1403317" lon="15.53936"><ele>261.0</ele><time>2026-04-19T05:44:20.996Z</time></trkpt><trkpt lat="41.1404267" lon="15.5391117"><ele>262.0</ele><time>2026-04-19T05:44:21.996Z</time></trkpt><trkpt lat="41.140515" lon="15.5388583"><ele>263.0</ele><time>2026-04-19T05:44:22.996Z</time></trkpt><trkpt lat="41.1405983" lon="15.5386"><ele>264.0</ele><time>2026-04-19T05:44:23.996Z</time></trkpt><trkpt lat="41.1406767" lon="15.53834"><ele>265.0</ele><time>2026-04-19T05:44:24.996Z</time></trkpt><trkpt lat="41.140755" lon="15.5380767"><ele>266.0</ele><time>2026-04-19T05:44:25.996Z</time></trkpt><trkpt lat="41.140835" lon="15.5378133"><ele>267.0</ele><time>2026-04-19T05:44:26.996Z</time></trkpt><trkpt lat="41.1409217" lon="15.5375533"><ele>267.3333333333333</ele><time>2026-04-19T05:44:27.996Z</time></trkpt><trkpt lat="41.1410167" lon="15.5372967"><ele>267.66666666666663</ele><time>2026-04-19T05:44:28.997Z</time></trkpt><trkpt lat="41.1411183" lon="15.537045"><ele>268.0</ele><time>2026-04-19T05:44:29.996Z</time></trkpt><trkpt lat="41.14123" lon="15.5367983"><ele>268.66666666666663</ele><time>2026-04-19T05:44:30.997Z</time></trkpt><trkpt lat="41.1413517" lon="15.5365583"><ele>269.3333333333333</ele><time>2026-04-19T05:44:31.996Z</time></trkpt><trkpt lat="41.1414833" lon="15.536325"><ele>270.0</ele><time>2026-04-19T05:44:32.997Z</time></trkpt><trkpt lat="41.1416233" lon="15.5361017"><ele>270.0</ele><time>2026-04-19T05:44:33.997Z</time></trkpt><trkpt lat="41.14177" lon="15.535885"><ele>270.0</ele><time>2026-04-19T05:44:34.996Z</time></trkpt><trkpt lat="41.141925" lon="15.53568"><ele>270.0</ele><time>2026-04-19T05:44:35.996Z</time></trkpt><trkpt lat="41.1420867" lon="15.535485"><ele>270.0</ele><time>2026-04-19T05:44:36.997Z</time></trkpt><trkpt lat="41.142255" lon="15.5353017"><ele>270.0</ele><time>2026-04-19T05:44:37.996Z</time></trkpt><trkpt lat="41.14243" lon="15.5351267"><ele>270.0</ele><time>2026-04-19T05:44:38.997Z</time></trkpt><trkpt lat="41.1426117" lon="15.5349617"><ele>270.0</ele><time>2026-04-19T05:44:39.997Z</time></trkpt><trkpt lat="41.1428" lon="15.53481"><ele>270.0</ele><time>2026-04-19T05:44:40.996Z</time></trkpt><trkpt lat="41.1429933" lon="15.5346733"><ele>270.0</ele><time>2026-04-19T05:44:41.996Z</time></trkpt><trkpt lat="41.1431917" lon="15.5345467"><ele>270.6666666666667</ele><time>2026-04-19T05:44:42.996Z</time></trkpt><trkpt lat="41.143395" lon="15.53443"><ele>271.33333333333337</ele><time>2026-04-19T05:44:43.996Z</time></trkpt><trkpt lat="41.1436017" lon="15.5343233"><ele>272.0</ele><time>2026-04-19T05:44:44.996Z</time></trkpt><trkpt lat="41.1438117" lon="15.5342267"><ele>272.0</ele><time>2026-04-19T05:44:45.996Z</time></trkpt><trkpt lat="41.144025" lon="15.5341333"><ele>272.0</ele><time>2026-04-19T05:44:46.996Z</time></trkpt><trkpt lat="41.1442383" lon="15.5340383"><ele>271.5</ele><time>2026-04-19T05:44:47.996Z</time></trkpt><trkpt lat="41.1444517" lon="15.5339417"><ele>271.0</ele><time>2026-04-19T05:44:48.996Z</time></trkpt><trkpt lat="41.144665" lon="15.533845"><ele>271.0</ele><time>2026-04-19T05:44:49.996Z</time></trkpt><trkpt lat="41.1448783" lon="15.5337467"><ele>271.0</ele><time>2026-04-19T05:44:50.996Z</time></trkpt><trkpt lat="41.1450917" lon="15.53365"><ele>271.3333333333333</ele><time>2026-04-19T05:44:51.996Z</time></trkpt><trkpt lat="41.1453017" lon="15.5335583"><ele>271.6666666666667</ele><time>2026-04-19T05:44:52.997Z</time></trkpt><trkpt lat="41.1455117" lon="15.533465"><ele>272.0</ele><time>2026-04-19T05:44:53.996Z</time></trkpt><trkpt lat="41.14572" lon="15.5333717"><ele>272.0</ele><time>2026-04-19T05:44:54.996Z</time></trkpt><trkpt lat="41.1459267" lon="15.5332767"><ele>272.0</ele><time>2026-04-19T05:44:55.996Z</time></trkpt><trkpt lat="41.1461367" lon="15.533185"><ele>272.0</ele><time>2026-04-19T05:44:56.996Z</time></trkpt><trkpt lat="41.1463467" lon="15.5330917"><ele>272.0</ele><time>2026-04-19T05:44:57.996Z</time></trkpt><trkpt lat="41.1465583" lon="15.5329983"><ele>272.0</ele><time>2026-04-19T05:44:58.997Z</time></trkpt><trkpt lat="41.1467683" lon="15.5329033"><ele>272.0</ele><time>2026-04-19T05:44:59.997Z</time></trkpt><trkpt lat="41.1469783" lon="15.5328083"><ele>272.0</ele><time>2026-04-19T05:45:00.997Z</time></trkpt><trkpt lat="41.1471917" lon="15.532715"><ele>272.0</ele><time>2026-04-19T05:45:01.997Z</time></trkpt><trkpt lat="41.1474017" lon="15.53262"><ele>272.0</ele><time>2026-04-19T05:45:02.996Z</time></trkpt><trkpt lat="41.1476133" lon="15.5325233"><ele>272.0</ele><time>2026-04-19T05:45:03.996Z</time></trkpt><trkpt lat="41.1478233" lon="15.5324267"><ele>272.0</ele><time>2026-04-19T05:45:04.996Z</time></trkpt><trkpt lat="41.148035" lon="15.5323333"><ele>272.0</ele><time>2026-04-19T05:45:05.996Z</time></trkpt><trkpt lat="41.1482433" lon="15.53224"><ele>273.33333333333337</ele><time>2026-04-19T05:45:06.996Z</time></trkpt><trkpt lat="41.1484517" lon="15.5321433"><ele>274.6666666666667</ele><time>2026-04-19T05:45:07.996Z</time></trkpt><trkpt lat="41.1486583" lon="15.53205"><ele>276.0</ele><time>2026-04-19T05:45:08.997Z</time></trkpt><trkpt lat="41.1488633" lon="15.5319583"><ele>276.3333333333333</ele><time>2026-04-19T05:45:09.996Z</time></trkpt><trkpt lat="41.1490667" lon="15.5318667"><ele>276.66666666666663</ele><time>2026-04-19T05:45:10.997Z</time></trkpt><trkpt lat="41.1492633" lon="15.5317817"><ele>277.0</ele><time>2026-04-19T05:45:11.996Z</time></trkpt><trkpt lat="41.1494483" lon="15.5317033"><ele>277.0</ele><time>2026-04-19T05:45:12.997Z</time></trkpt><trkpt lat="41.1496317" lon="15.5316267"><ele>277.0</ele><time>2026-04-19T05:45:13.996Z</time></trkpt><trkpt lat="41.149815" lon="15.53155"><ele>277.0</ele><time>2026-04-19T05:45:14.997Z</time></trkpt><trkpt lat="41.1499967" lon="15.5314667"><ele>276.3333333333333</ele><time>2026-04-19T05:45:15.996Z</time></trkpt><trkpt lat="41.1501783" lon="15.5313833"><ele>275.6666666666667</ele><time>2026-04-19T05:45:16.997Z</time></trkpt><trkpt lat="41.150355" lon="15.531305"><ele>275.0</ele><time>2026-04-19T05:45:17.997Z</time></trkpt><trkpt lat="41.15053" lon="15.5312317"><ele>275.33333333333337</ele><time>2026-04-19T05:45:18.996Z</time></trkpt><trkpt lat="41.1507017" lon="15.5311567"><ele>275.6666666666667</ele><time>2026-04-19T05:45:19.996Z</time></trkpt><trkpt lat="41.15087" lon="15.5310817"><ele>276.0</ele><time>2026-04-19T05:45:20.996Z</time></trkpt><trkpt lat="41.151035" lon="15.5310083"><ele>276.0</ele><time>2026-04-19T05:45:21.996Z</time></trkpt><trkpt lat="41.1512" lon="15.5309367"><ele>276.0</ele><time>2026-04-19T05:45:22.996Z</time></trkpt><trkpt lat="41.1513667" lon="15.5308667"><ele>276.0</ele><time>2026-04-19T05:45:23.996Z</time></trkpt><trkpt lat="41.1515333" lon="15.5307967"><ele>275.3333333333333</ele><time>2026-04-19T05:45:24.996Z</time></trkpt><trkpt lat="41.1517" lon="15.5307233"><ele>274.66666666666663</ele><time>2026-04-19T05:45:25.997Z</time></trkpt><trkpt lat="41.1518667" lon="15.5306467"><ele>274.0</ele><time>2026-04-19T05:45:26.996Z</time></trkpt><trkpt lat="41.152035" lon="15.5305733"><ele>274.0</ele><time>2026-04-19T05:45:27.996Z</time></trkpt><trkpt lat="41.1522" lon="15.5305"><ele>274.0</ele><time>2026-04-19T05:45:28.996Z</time></trkpt><trkpt lat="41.152365" lon="15.530425"><ele>274.0</ele><time>2026-04-19T05:45:29.996Z</time></trkpt><trkpt lat="41.15253" lon="15.5303483"><ele>273.3333333333333</ele><time>2026-04-19T05:45:30.996Z</time></trkpt><trkpt lat="41.1526983" lon="15.5302717"><ele>272.6666666666667</ele><time>2026-04-19T05:45:31.997Z</time></trkpt><trkpt lat="41.1528667" lon="15.5301967"><ele>272.0</ele><time>2026-04-19T05:45:32.996Z</time></trkpt><trkpt lat="41.1530367" lon="15.530125"><ele>272.0</ele><time>2026-04-19T05:45:33.996Z</time></trkpt><trkpt lat="41.1532033" lon="15.5300517"><ele>272.0</ele><time>2026-04-19T05:45:34.996Z</time></trkpt><trkpt lat="41.15337" lon="15.52998"><ele>272.0</ele><time>2026-04-19T05:45:35.996Z</time></trkpt><trkpt lat="41.153535" lon="15.52991"><ele>272.0</ele><time>2026-04-19T05:45:36.996Z</time></trkpt><trkpt lat="41.153695" lon="15.5298367"><ele>272.0</ele><time>2026-04-19T05:45:37.996Z</time></trkpt><trkpt lat="41.1538533" lon="15.5297667"><ele>272.0</ele><time>2026-04-19T05:45:38.996Z</time></trkpt><trkpt lat="41.154015" lon="15.5296933"><ele>271.6666666666667</ele><time>2026-04-19T05:45:39.996Z</time></trkpt><trkpt lat="41.1541767" lon="15.52962"><ele>271.3333333333333</ele><time>2026-04-19T05:45:40.996Z</time></trkpt><trkpt lat="41.1543367" lon="15.5295483"><ele>271.0</ele><time>2026-04-19T05:45:41.996Z</time></trkpt><trkpt lat="41.1544967" lon="15.52948"><ele>271.66666666666663</ele><time>2026-04-19T05:45:42.996Z</time></trkpt><trkpt lat="41.1546583" lon="15.5294117"><ele>272.3333333333333</ele><time>2026-04-19T05:45:43.996Z</time></trkpt><trkpt lat="41.1548167" lon="15.5293433"><ele>273.0</ele><time>2026-04-19T05:45:44.996Z</time></trkpt><trkpt lat="41.1549717" lon="15.529275"><ele>273.3333333333333</ele><time>2026-04-19T05:45:45.996Z</time></trkpt><trkpt lat="41.1551283" lon="15.5292067"><ele>273.66666666666663</ele><time>2026-04-19T05:45:46.996Z</time></trkpt><trkpt lat="41.155285" lon="15.52914"><ele>274.0</ele><time>2026-04-19T05:45:47.996Z</time></trkpt><trkpt lat="41.1554383" lon="15.5290733"><ele>274.0</ele><time>2026-04-19T05:45:48.996Z</time></trkpt><trkpt lat="41.15559" lon="15.529005"><ele>274.0</ele><time>2026-04-19T05:45:49.996Z</time></trkpt><trkpt lat="41.1557367" lon="15.5289367"><ele>274.0</ele><time>2026-04-19T05:45:50.996Z</time></trkpt><trkpt lat="41.1558833" lon="15.52887"><ele>273.3333333333333</ele><time>2026-04-19T05:45:51.996Z</time></trkpt><trkpt lat="41.1560283" lon="15.5288017"><ele>272.6666666666667</ele><time>2026-04-19T05:45:52.996Z</time></trkpt><trkpt lat="41.1561717" lon="15.5287333"><ele>272.0</ele><time>2026-04-19T05:45:53.996Z</time></trkpt><trkpt lat="41.156315" lon="15.5286617"><ele>274.33333333333337</ele><time>2026-04-19T05:45:54.996Z</time></trkpt><trkpt lat="41.15646" lon="15.5285917"><ele>276.6666666666667</ele><time>2026-04-19T05:45:55.997Z</time></trkpt><trkpt lat="41.1566033" lon="15.52852"><ele>279.0</ele><time>2026-04-19T05:45:56.996Z</time></trkpt><trkpt lat="41.1567483" lon="15.5284467"><ele>279.0</ele><time>2026-04-19T05:45:57.996Z</time></trkpt><trkpt lat="41.1568933" lon="15.5283717"><ele>279.0</ele><time>2026-04-19T05:45:58.996Z</time></trkpt><trkpt lat="41.1570383" lon="15.528295"><ele>279.0</ele><time>2026-04-19T05:45:59.997Z</time></trkpt><trkpt lat="41.1571817" lon="15.5282183"><ele>279.0</ele><time>2026-04-19T05:46:00.996Z</time></trkpt><trkpt lat="41.1573283" lon="15.5281417"><ele>279.0</ele><time>2026-04-19T05:46:01.996Z</time></trkpt><trkpt lat="41.1574767" lon="15.5280667"><ele>279.0</ele><time>2026-04-19T05:46:02.997Z</time></trkpt><trkpt lat="41.1576233" lon="15.5279917"><ele>279.0</ele><time>2026-04-19T05:46:03.996Z</time></trkpt><trkpt lat="41.15777" lon="15.5279167"><ele>279.0</ele><time>2026-04-19T05:46:04.996Z</time></trkpt><trkpt lat="41.1579133" lon="15.52784"><ele>279.0</ele><time>2026-04-19T05:46:05.996Z</time></trkpt><trkpt lat="41.1580583" lon="15.5277633"><ele>281.0</ele><time>2026-04-19T05:46:06.996Z</time></trkpt><trkpt lat="41.1582033" lon="15.5276867"><ele>283.0</ele><time>2026-04-19T05:46:07.996Z</time></trkpt><trkpt lat="41.1583517" lon="15.52761"><ele>285.0</ele><time>2026-04-19T05:46:08.996Z</time></trkpt><trkpt lat="41.1585" lon="15.527535"><ele>285.0</ele><time>2026-04-19T05:46:09.996Z</time></trkpt><trkpt lat="41.1586483" lon="15.5274583"><ele>285.0</ele><time>2026-04-19T05:46:10.996Z</time></trkpt><trkpt lat="41.1587967" lon="15.52738"><ele>285.0</ele><time>2026-04-19T05:46:11.996Z</time></trkpt><trkpt lat="41.158945" lon="15.5273"><ele>285.3333333333333</ele><time>2026-04-19T05:46:12.996Z</time></trkpt><trkpt lat="41.159095" lon="15.52722"><ele>285.66666666666663</ele><time>2026-04-19T05:46:13.996Z</time></trkpt><trkpt lat="41.159245" lon="15.527145"><ele>286.0</ele><time>2026-04-19T05:46:14.996Z</time></trkpt><trkpt lat="41.1593967" lon="15.5270683"><ele>286.3333333333333</ele><time>2026-04-19T05:46:15.996Z</time></trkpt><trkpt lat="41.1595467" lon="15.52699"><ele>286.6666666666667</ele><time>2026-04-19T05:46:16.996Z</time></trkpt><trkpt lat="41.1596983" lon="15.52691"><ele>287.0</ele><time>2026-04-19T05:46:17.997Z</time></trkpt><trkpt lat="41.1598467" lon="15.52683"><ele>284.6666666666667</ele><time>2026-04-19T05:46:18.996Z</time></trkpt><trkpt lat="41.159995" lon="15.526755"><ele>282.3333333333333</ele><time>2026-04-19T05:46:19.996Z</time></trkpt><trkpt lat="41.1601433" lon="15.52668"><ele>280.0</ele><time>2026-04-19T05:46:20.996Z</time></trkpt><trkpt lat="41.16029" lon="15.5266033"><ele>280.0</ele><time>2026-04-19T05:46:21.996Z</time></trkpt><trkpt lat="41.160435" lon="15.5265267"><ele>280.0</ele><time>2026-04-19T05:46:22.996Z</time></trkpt><trkpt lat="41.1605783" lon="15.52645"><ele>280.0</ele><time>2026-04-19T05:46:23.997Z</time></trkpt><trkpt lat="41.16072" lon="15.5263783"><ele>280.0</ele><time>2026-04-19T05:46:24.996Z</time></trkpt><trkpt lat="41.16086" lon="15.5263117"><ele>280.0</ele><time>2026-04-19T05:46:25.996Z</time></trkpt><trkpt lat="41.161" lon="15.5262467"><ele>280.0</ele><time>2026-04-19T05:46:26.996Z</time></trkpt><trkpt lat="41.1611417" lon="15.526185"><ele>280.0</ele><time>2026-04-19T05:46:27.996Z</time></trkpt><trkpt lat="41.161285" lon="15.5261233"><ele>280.0</ele><time>2026-04-19T05:46:28.997Z</time></trkpt><trkpt lat="41.1614283" lon="15.5260633"><ele>280.0</ele><time>2026-04-19T05:46:29.996Z</time></trkpt><trkpt lat="41.1615767" lon="15.526005"><ele>280.0</ele><time>2026-04-19T05:46:30.996Z</time></trkpt><trkpt lat="41.161725" lon="15.52595"><ele>280.0</ele><time>2026-04-19T05:46:31.996Z</time></trkpt><trkpt lat="41.1618733" lon="15.5258983"><ele>280.0</ele><time>2026-04-19T05:46:32.996Z</time></trkpt><trkpt lat="41.1620233" lon="15.5258483"><ele>280.0</ele><time>2026-04-19T05:46:33.997Z</time></trkpt><trkpt lat="41.162175" lon="15.5258033"><ele>280.0</ele><time>2026-04-19T05:46:34.996Z</time></trkpt><trkpt lat="41.1623283" lon="15.5257633"><ele>280.0</ele><time>2026-04-19T05:46:35.996Z</time></trkpt><trkpt lat="41.16248" lon="15.5257283"><ele>280.0</ele><time>2026-04-19T05:46:36.996Z</time></trkpt><trkpt lat="41.1626333" lon="15.525695"><ele>280.66666666666663</ele><time>2026-04-19T05:46:37.996Z</time></trkpt><trkpt lat="41.1627883" lon="15.525665"><ele>281.3333333333333</ele><time>2026-04-19T05:46:38.996Z</time></trkpt><trkpt lat="41.162945" lon="15.525635"><ele>282.0</ele><time>2026-04-19T05:46:39.996Z</time></trkpt><trkpt lat="41.1631" lon="15.5256083"><ele>282.3333333333333</ele><time>2026-04-19T05:46:40.997Z</time></trkpt><trkpt lat="41.1632567" lon="15.5255833"><ele>282.66666666666663</ele><time>2026-04-19T05:46:41.996Z</time></trkpt><trkpt lat="41.16341" lon="15.525565"><ele>283.0</ele><time>2026-04-19T05:46:42.996Z</time></trkpt><trkpt lat="41.1635617" lon="15.5255517"><ele>283.0</ele><time>2026-04-19T05:46:43.996Z</time></trkpt><trkpt lat="41.1637133" lon="15.525545"><ele>283.0</ele><time>2026-04-19T05:46:44.996Z</time></trkpt><trkpt lat="41.1638633" lon="15.52554"><ele>283.0</ele><time>2026-04-19T05:46:45.996Z</time></trkpt><trkpt lat="41.16401" lon="15.5255367"><ele>283.0</ele><time>2026-04-19T05:46:46.996Z</time></trkpt><trkpt lat="41.1641533" lon="15.5255383"><ele>282.0</ele><time>2026-04-19T05:46:47.996Z</time></trkpt><trkpt lat="41.1643033" lon="15.5255417"><ele>281.0</ele><time>2026-04-19T05:46:48.996Z</time></trkpt><trkpt lat="41.1644533" lon="15.52555"><ele>280.0</ele><time>2026-04-19T05:46:49.998Z</time></trkpt><trkpt lat="41.1646033" lon="15.52556"><ele>280.0</ele><time>2026-04-19T05:46:50.997Z</time></trkpt><trkpt lat="41.164755" lon="15.5255733"><ele>280.0</ele><time>2026-04-19T05:46:51.997Z</time></trkpt><trkpt lat="41.1649067" lon="15.52559"><ele>280.0</ele><time>2026-04-19T05:46:52.997Z</time></trkpt><trkpt lat="41.1650633" lon="15.52561"><ele>279.0</ele><time>2026-04-19T05:46:53.997Z</time></trkpt><trkpt lat="41.1652217" lon="15.525635"><ele>278.0</ele><time>2026-04-19T05:46:54.997Z</time></trkpt><trkpt lat="41.1653833" lon="15.5256633"><ele>277.0</ele><time>2026-04-19T05:46:55.998Z</time></trkpt><trkpt lat="41.165545" lon="15.5256983"><ele>276.3333333333333</ele><time>2026-04-19T05:46:56.997Z</time></trkpt><trkpt lat="41.1657083" lon="15.5257333"><ele>275.6666666666667</ele><time>2026-04-19T05:46:57.997Z</time></trkpt><trkpt lat="41.1658717" lon="15.5257733"><ele>275.0</ele><time>2026-04-19T05:46:58.997Z</time></trkpt><trkpt lat="41.1660367" lon="15.5258217"><ele>275.0</ele><time>2026-04-19T05:46:59.997Z</time></trkpt><trkpt lat="41.1662" lon="15.5258767"><ele>275.0</ele><time>2026-04-19T05:47:00.997Z</time></trkpt><trkpt lat="41.1663633" lon="15.5259333"><ele>275.0</ele><time>2026-04-19T05:47:01.997Z</time></trkpt><trkpt lat="41.1665283" lon="15.5259917"><ele>274.6666666666667</ele><time>2026-04-19T05:47:02.997Z</time></trkpt><trkpt lat="41.1666933" lon="15.5260533"><ele>274.3333333333333</ele><time>2026-04-19T05:47:03.998Z</time></trkpt><trkpt lat="41.1668567" lon="15.5261217"><ele>274.0</ele><time>2026-04-19T05:47:04.997Z</time></trkpt><trkpt lat="41.1670233" lon="15.5261883"><ele>272.66666666666663</ele><time>2026-04-19T05:47:05.997Z</time></trkpt><trkpt lat="41.1671867" lon="15.5262567"><ele>271.3333333333333</ele><time>2026-04-19T05:47:06.997Z</time></trkpt><trkpt lat="41.16735" lon="15.52633"><ele>270.0</ele><time>2026-04-19T05:47:07.998Z</time></trkpt><trkpt lat="41.1675167" lon="15.5264"><ele>269.6666666666667</ele><time>2026-04-19T05:47:08.997Z</time></trkpt><trkpt lat="41.1676817" lon="15.5264717"><ele>269.33333333333337</ele><time>2026-04-19T05:47:09.997Z</time></trkpt><trkpt lat="41.167845" lon="15.5265433"><ele>269.0</ele><time>2026-04-19T05:47:10.997Z</time></trkpt><trkpt lat="41.1680083" lon="15.526615"><ele>269.0</ele><time>2026-04-19T05:47:11.996Z</time></trkpt><trkpt lat="41.1681733" lon="15.5266833"><ele>269.0</ele><time>2026-04-19T05:47:12.996Z</time></trkpt><trkpt lat="41.1683383" lon="15.5267533"><ele>269.0</ele><time>2026-04-19T05:47:13.996Z</time></trkpt><trkpt lat="41.1685033" lon="15.5268233"><ele>269.33333333333337</ele><time>2026-04-19T05:47:14.996Z</time></trkpt><trkpt lat="41.168665" lon="15.526895"><ele>269.6666666666667</ele><time>2026-04-19T05:47:15.996Z</time></trkpt><trkpt lat="41.168825" lon="15.5269633"><ele>270.0</ele><time>2026-04-19T05:47:16.996Z</time></trkpt><trkpt lat="41.168985" lon="15.5270317"><ele>269.0</ele><time>2026-04-19T05:47:17.996Z</time></trkpt><trkpt lat="41.1691433" lon="15.5271"><ele>268.0</ele><time>2026-04-19T05:47:18.997Z</time></trkpt><trkpt lat="41.1693017" lon="15.5271683"><ele>267.0</ele><time>2026-04-19T05:47:19.997Z</time></trkpt><trkpt lat="41.1694583" lon="15.5272367"><ele>267.0</ele><time>2026-04-19T05:47:20.996Z</time></trkpt><trkpt lat="41.1696117" lon="15.5273033"><ele>267.0</ele><time>2026-04-19T05:47:21.996Z</time></trkpt><trkpt lat="41.1697667" lon="15.52737"><ele>267.0</ele><time>2026-04-19T05:47:22.997Z</time></trkpt><trkpt lat="41.1699233" lon="15.5274383"><ele>266.6666666666667</ele><time>2026-04-19T05:47:23.996Z</time></trkpt><trkpt lat="41.1700783" lon="15.527505"><ele>266.33333333333337</ele><time>2026-04-19T05:47:24.996Z</time></trkpt><trkpt lat="41.170235" lon="15.5275733"><ele>266.0</ele><time>2026-04-19T05:47:25.996Z</time></trkpt><trkpt lat="41.170395" lon="15.52764"><ele>266.0</ele><time>2026-04-19T05:47:26.996Z</time></trkpt><trkpt lat="41.1705567" lon="15.5277083"><ele>266.0</ele><time>2026-04-19T05:47:27.996Z</time></trkpt><trkpt lat="41.17072" lon="15.5277783"><ele>266.0</ele><time>2026-04-19T05:47:28.996Z</time></trkpt><trkpt lat="41.1708833" lon="15.52785"><ele>264.6666666666667</ele><time>2026-04-19T05:47:29.997Z</time></trkpt><trkpt lat="41.1710467" lon="15.5279183"><ele>263.3333333333333</ele><time>2026-04-19T05:47:30.997Z</time></trkpt><trkpt lat="41.1712117" lon="15.5279883"><ele>262.0</ele><time>2026-04-19T05:47:31.996Z</time></trkpt><trkpt lat="41.1713783" lon="15.5280617"><ele>262.0</ele><time>2026-04-19T05:47:32.996Z</time></trkpt><trkpt lat="41.171545" lon="15.5281317"><ele>262.0</ele><time>2026-04-19T05:47:33.997Z</time></trkpt><trkpt lat="41.1717133" lon="15.5282017"><ele>262.0</ele><time>2026-04-19T05:47:34.997Z</time></trkpt><trkpt lat="41.1718817" lon="15.5282733"><ele>262.0</ele><time>2026-04-19T05:47:35.996Z</time></trkpt><trkpt lat="41.1720517" lon="15.5283467"><ele>262.0</ele><time>2026-04-19T05:47:36.996Z</time></trkpt><trkpt lat="41.17222" lon="15.5284217"><ele>262.0</ele><time>2026-04-19T05:47:37.997Z</time></trkpt><trkpt lat="41.1723883" lon="15.5284983"><ele>262.66666666666663</ele><time>2026-04-19T05:47:38.996Z</time></trkpt><trkpt lat="41.1725583" lon="15.5285717"><ele>263.3333333333333</ele><time>2026-04-19T05:47:39.997Z</time></trkpt><trkpt lat="41.172725" lon="15.52864"><ele>264.0</ele><time>2026-04-19T05:47:40.996Z</time></trkpt><trkpt lat="41.17289" lon="15.5287083"><ele>263.0</ele><time>2026-04-19T05:47:41.996Z</time></trkpt><trkpt lat="41.1730567" lon="15.52878"><ele>262.0</ele><time>2026-04-19T05:47:42.997Z</time></trkpt><trkpt lat="41.1732217" lon="15.52885"><ele>261.0</ele><time>2026-04-19T05:47:43.996Z</time></trkpt><trkpt lat="41.173385" lon="15.52892"><ele>261.0</ele><time>2026-04-19T05:47:44.996Z</time></trkpt><trkpt lat="41.17355" lon="15.5289917"><ele>261.0</ele><time>2026-04-19T05:47:45.996Z</time></trkpt><trkpt lat="41.1737133" lon="15.5290633"><ele>261.0</ele><time>2026-04-19T05:47:46.996Z</time></trkpt><trkpt lat="41.1738783" lon="15.529135"><ele>261.3333333333333</ele><time>2026-04-19T05:47:47.996Z</time></trkpt><trkpt lat="41.1740433" lon="15.529205"><ele>261.66666666666663</ele><time>2026-04-19T05:47:48.996Z</time></trkpt><trkpt lat="41.17421" lon="15.5292783"><ele>262.0</ele><time>2026-04-19T05:47:49.996Z</time></trkpt><trkpt lat="41.174375" lon="15.5293517"><ele>262.0</ele><time>2026-04-19T05:47:50.996Z</time></trkpt><trkpt lat="41.1745417" lon="15.529425"><ele>262.0</ele><time>2026-04-19T05:47:51.996Z</time></trkpt><trkpt lat="41.17471" lon="15.5294983"><ele>262.0</ele><time>2026-04-19T05:47:52.997Z</time></trkpt><trkpt lat="41.17488" lon="15.52957"><ele>261.66666666666663</ele><time>2026-04-19T05:47:53.996Z</time></trkpt><trkpt lat="41.1750483" lon="15.529645"><ele>261.3333333333333</ele><time>2026-04-19T05:47:54.996Z</time></trkpt><trkpt lat="41.175215" lon="15.5297167"><ele>261.0</ele><time>2026-04-19T05:47:55.996Z</time></trkpt><trkpt lat="41.1753833" lon="15.52979"><ele>261.0</ele><time>2026-04-19T05:47:56.997Z</time></trkpt><trkpt lat="41.1755517" lon="15.5298617"><ele>261.0</ele><time>2026-04-19T05:47:57.996Z</time></trkpt><trkpt lat="41.1757117" lon="15.5299317"><ele>261.0</ele><time>2026-04-19T05:47:58.997Z</time></trkpt><trkpt lat="41.1758733" lon="15.53"><ele>260.6666666666667</ele><time>2026-04-19T05:47:59.997Z</time></trkpt><trkpt lat="41.1760367" lon="15.5300717"><ele>260.33333333333337</ele><time>2026-04-19T05:48:00.996Z</time></trkpt><trkpt lat="41.1762017" lon="15.5301417"><ele>260.0</ele><time>2026-04-19T05:48:01.996Z</time></trkpt><trkpt lat="41.1763633" lon="15.53021"><ele>259.0</ele><time>2026-04-19T05:48:02.997Z</time></trkpt><trkpt lat="41.1765233" lon="15.5302767"><ele>258.0</ele><time>2026-04-19T05:48:03.996Z</time></trkpt><trkpt lat="41.1766867" lon="15.5303433"><ele>257.0</ele><time>2026-04-19T05:48:04.996Z</time></trkpt><trkpt lat="41.1768517" lon="15.5304133"><ele>256.0</ele><time>2026-04-19T05:48:05.996Z</time></trkpt><trkpt lat="41.1770183" lon="15.530485"><ele>255.0</ele><time>2026-04-19T05:48:06.996Z</time></trkpt><trkpt lat="41.1771867" lon="15.5305567"><ele>254.0</ele><time>2026-04-19T05:48:07.996Z</time></trkpt><trkpt lat="41.1773533" lon="15.5306317"><ele>252.66666666666669</ele><time>2026-04-19T05:48:08.996Z</time></trkpt><trkpt lat="41.1775233" lon="15.5307067"><ele>251.33333333333331</ele><time>2026-04-19T05:48:09.996Z</time></trkpt><trkpt lat="41.1776917" lon="15.5307783"><ele>250.0</ele><time>2026-04-19T05:48:10.996Z</time></trkpt><trkpt lat="41.17786" lon="15.53085"><ele>250.0</ele><time>2026-04-19T05:48:11.996Z</time></trkpt><trkpt lat="41.1780283" lon="15.5309217"><ele>250.0</ele><time>2026-04-19T05:48:12.996Z</time></trkpt><trkpt lat="41.1781933" lon="15.5309917"><ele>250.0</ele><time>2026-04-19T05:48:13.996Z</time></trkpt><trkpt lat="41.1783583" lon="15.5310633"><ele>250.0</ele><time>2026-04-19T05:48:14.996Z</time></trkpt><trkpt lat="41.1785233" lon="15.5311367"><ele>250.0</ele><time>2026-04-19T05:48:15.996Z</time></trkpt><trkpt lat="41.17869" lon="15.5312083"><ele>250.0</ele><time>2026-04-19T05:48:16.996Z</time></trkpt><trkpt lat="41.1788583" lon="15.5312817"><ele>249.33333333333331</ele><time>2026-04-19T05:48:17.996Z</time></trkpt><trkpt lat="41.179025" lon="15.5313567"><ele>248.66666666666669</ele><time>2026-04-19T05:48:18.997Z</time></trkpt><trkpt lat="41.1791933" lon="15.53143"><ele>248.0</ele><time>2026-04-19T05:48:19.996Z</time></trkpt><trkpt lat="41.179365" lon="15.5315017"><ele>248.0</ele><time>2026-04-19T05:48:20.997Z</time></trkpt><trkpt lat="41.179535" lon="15.5315717"><ele>248.0</ele><time>2026-04-19T05:48:21.996Z</time></trkpt><trkpt lat="41.1797067" lon="15.5316433"><ele>248.0</ele><time>2026-04-19T05:48:22.996Z</time></trkpt><trkpt lat="41.17988" lon="15.531715"><ele>248.33333333333334</ele><time>2026-04-19T05:48:23.997Z</time></trkpt><trkpt lat="41.1800517" lon="15.5317867"><ele>248.66666666666669</ele><time>2026-04-19T05:48:24.996Z</time></trkpt><trkpt lat="41.1802233" lon="15.5318567"><ele>249.0</ele><time>2026-04-19T05:48:25.997Z</time></trkpt><trkpt lat="41.1803967" lon="15.5319267"><ele>249.0</ele><time>2026-04-19T05:48:26.996Z</time></trkpt><trkpt lat="41.1805717" lon="15.5319917"><ele>249.0</ele><time>2026-04-19T05:48:27.997Z</time></trkpt><trkpt lat="41.1807417" lon="15.532055"><ele>249.0</ele><time>2026-04-19T05:48:28.996Z</time></trkpt><trkpt lat="41.18091" lon="15.532115"><ele>246.0</ele><time>2026-04-19T05:48:29.996Z</time></trkpt><trkpt lat="41.1810767" lon="15.5321767"><ele>243.0</ele><time>2026-04-19T05:48:30.996Z</time></trkpt><trkpt lat="41.1812433" lon="15.5322333"><ele>240.0</ele><time>2026-04-19T05:48:31.996Z</time></trkpt><trkpt lat="41.1814083" lon="15.5322883"><ele>240.33333333333331</ele><time>2026-04-19T05:48:32.996Z</time></trkpt><trkpt lat="41.181575" lon="15.5323433"><ele>240.66666666666666</ele><time>2026-04-19T05:48:33.997Z</time></trkpt><trkpt lat="41.18174" lon="15.5323983"><ele>241.0</ele><time>2026-04-19T05:48:34.996Z</time></trkpt><trkpt lat="41.1819083" lon="15.5324483"><ele>241.0</ele><time>2026-04-19T05:48:35.996Z</time></trkpt><trkpt lat="41.182075" lon="15.5324933"><ele>241.0</ele><time>2026-04-19T05:48:36.996Z</time></trkpt><trkpt lat="41.1822433" lon="15.5325417"><ele>241.0</ele><time>2026-04-19T05:48:37.997Z</time></trkpt><trkpt lat="41.18241" lon="15.5325917"><ele>240.33333333333331</ele><time>2026-04-19T05:48:38.996Z</time></trkpt><trkpt lat="41.182575" lon="15.53264"><ele>239.66666666666669</ele><time>2026-04-19T05:48:39.996Z</time></trkpt><trkpt lat="41.18274" lon="15.532685"><ele>239.0</ele><time>2026-04-19T05:48:40.996Z</time></trkpt><trkpt lat="41.1829067" lon="15.5327283"><ele>239.0</ele><time>2026-04-19T05:48:41.996Z</time></trkpt><trkpt lat="41.183075" lon="15.5327683"><ele>239.0</ele><time>2026-04-19T05:48:42.996Z</time></trkpt><trkpt lat="41.1832467" lon="15.5328083"><ele>239.0</ele><time>2026-04-19T05:48:43.997Z</time></trkpt><trkpt lat="41.1834183" lon="15.5328483"><ele>239.0</ele><time>2026-04-19T05:48:44.996Z</time></trkpt><trkpt lat="41.18359" lon="15.5328867"><ele>239.0</ele><time>2026-04-19T05:48:45.996Z</time></trkpt><trkpt lat="41.183765" lon="15.5329233"><ele>239.0</ele><time>2026-04-19T05:48:46.996Z</time></trkpt><trkpt lat="41.1839383" lon="15.53296"><ele>237.0</ele><time>2026-04-19T05:48:47.996Z</time></trkpt><trkpt lat="41.1841133" lon="15.5329917"><ele>235.0</ele><time>2026-04-19T05:48:48.996Z</time></trkpt><trkpt lat="41.1842883" lon="15.533025"><ele>233.0</ele><time>2026-04-19T05:48:49.997Z</time></trkpt><trkpt lat="41.1844633" lon="15.5330583"><ele>233.0</ele><time>2026-04-19T05:48:50.997Z</time></trkpt><trkpt lat="41.1846367" lon="15.53309"><ele>233.0</ele><time>2026-04-19T05:48:51.996Z</time></trkpt><trkpt lat="41.184805" lon="15.5331167"><ele>233.0</ele><time>2026-04-19T05:48:52.996Z</time></trkpt><trkpt lat="41.1849733" lon="15.53314"><ele>233.0</ele><time>2026-04-19T05:48:53.996Z</time></trkpt><trkpt lat="41.1851417" lon="15.5331633"><ele>233.0</ele><time>2026-04-19T05:48:54.996Z</time></trkpt><trkpt lat="41.18531" lon="15.5331883"><ele>233.0</ele><time>2026-04-19T05:48:55.996Z</time></trkpt><trkpt lat="41.1854767" lon="15.5332133"><ele>233.0</ele><time>2026-04-19T05:48:56.996Z</time></trkpt><trkpt lat="41.1856433" lon="15.5332417"><ele>233.0</ele><time>2026-04-19T05:48:57.996Z</time></trkpt><trkpt lat="41.18581" lon="15.5332667"><ele>233.0</ele><time>2026-04-19T05:48:58.997Z</time></trkpt><trkpt lat="41.185975" lon="15.5332933"><ele>232.0</ele><time>2026-04-19T05:48:59.996Z</time></trkpt><trkpt lat="41.1861383" lon="15.53332"><ele>231.0</ele><time>2026-04-19T05:49:00.996Z</time></trkpt><trkpt lat="41.1863005" lon="15.5333454"><ele>230.0</ele><time>2026-04-19T05:49:01.996Z</time></trkpt><trkpt lat="41.1864634" lon="15.5333718"><ele>229.33333333333334</ele><time>2026-04-19T05:49:02.996Z</time></trkpt><trkpt lat="41.1866282" lon="15.5333977"><ele>228.66666666666669</ele><time>2026-04-19T05:49:03.996Z</time></trkpt><trkpt lat="41.1867922" lon="15.5334265"><ele>228.0</ele><time>2026-04-19T05:49:04.996Z</time></trkpt><trkpt lat="41.1869568" lon="15.5334561"><ele>228.0</ele><time>2026-04-19T05:49:05.996Z</time></trkpt><trkpt lat="41.1871229" lon="15.5334914"><ele>228.0</ele><time>2026-04-19T05:49:06.996Z</time></trkpt><trkpt lat="41.1872883" lon="15.5335309"><ele>228.0</ele><time>2026-04-19T05:49:07.996Z</time></trkpt><trkpt lat="41.187455" lon="15.5335736"><ele>227.0</ele><time>2026-04-19T05:49:08.996Z</time></trkpt><trkpt lat="41.1876238" lon="15.5336185"><ele>226.0</ele><time>2026-04-19T05:49:09.996Z</time></trkpt><trkpt lat="41.1877943" lon="15.5336638"><ele>225.0</ele><time>2026-04-19T05:49:10.996Z</time></trkpt><trkpt lat="41.187967" lon="15.5337081"><ele>225.33333333333331</ele><time>2026-04-19T05:49:11.996Z</time></trkpt><trkpt lat="41.1881433" lon="15.5337542"><ele>225.66666666666666</ele><time>2026-04-19T05:49:12.996Z</time></trkpt><trkpt lat="41.1883208" lon="15.5338009"><ele>226.0</ele><time>2026-04-19T05:49:13.996Z</time></trkpt><trkpt lat="41.1884988" lon="15.5338502"><ele>225.33333333333331</ele><time>2026-04-19T05:49:14.996Z</time></trkpt><trkpt lat="41.1886775" lon="15.5338994"><ele>224.66666666666669</ele><time>2026-04-19T05:49:15.996Z</time></trkpt><trkpt lat="41.1888531" lon="15.5339486"><ele>224.0</ele><time>2026-04-19T05:49:16.996Z</time></trkpt><trkpt lat="41.1890255" lon="15.5340017"><ele>223.33333333333334</ele><time>2026-04-19T05:49:17.996Z</time></trkpt><trkpt lat="41.1891921" lon="15.5340544"><ele>222.66666666666669</ele><time>2026-04-19T05:49:18.996Z</time></trkpt><trkpt lat="41.1893562" lon="15.5341096"><ele>222.0</ele><time>2026-04-19T05:49:19.996Z</time></trkpt><trkpt lat="41.1895193" lon="15.5341636"><ele>222.0</ele><time>2026-04-19T05:49:20.996Z</time></trkpt><trkpt lat="41.189683" lon="15.534219"><ele>222.0</ele><time>2026-04-19T05:49:21.996Z</time></trkpt><trkpt lat="41.1898456" lon="15.5342751"><ele>222.0</ele><time>2026-04-19T05:49:22.996Z</time></trkpt><trkpt lat="41.1900084" lon="15.5343351"><ele>222.0</ele><time>2026-04-19T05:49:23.996Z</time></trkpt><trkpt lat="41.1901705" lon="15.5343969"><ele>222.0</ele><time>2026-04-19T05:49:24.996Z</time></trkpt><trkpt lat="41.1903321" lon="15.5344571"><ele>222.0</ele><time>2026-04-19T05:49:25.997Z</time></trkpt><trkpt lat="41.1904966" lon="15.5345141"><ele>222.66666666666669</ele><time>2026-04-19T05:49:26.997Z</time></trkpt><trkpt lat="41.1906604" lon="15.5345691"><ele>223.33333333333334</ele><time>2026-04-19T05:49:27.996Z</time></trkpt><trkpt lat="41.1908229" lon="15.5346268"><ele>224.0</ele><time>2026-04-19T05:49:28.996Z</time></trkpt><trkpt lat="41.190986" lon="15.5346848"><ele>224.0</ele><time>2026-04-19T05:49:29.996Z</time></trkpt><trkpt lat="41.1911487" lon="15.5347423"><ele>224.0</ele><time>2026-04-19T05:49:30.996Z</time></trkpt><trkpt lat="41.1913104" lon="15.534799"><ele>224.0</ele><time>2026-04-19T05:49:31.996Z</time></trkpt><trkpt lat="41.1914722" lon="15.5348541"><ele>223.33333333333334</ele><time>2026-04-19T05:49:32.997Z</time></trkpt><trkpt lat="41.1916329" lon="15.5349117"><ele>222.66666666666669</ele><time>2026-04-19T05:49:33.996Z</time></trkpt><trkpt lat="41.1917914" lon="15.5349713"><ele>222.0</ele><time>2026-04-19T05:49:34.996Z</time></trkpt><trkpt lat="41.1919496" lon="15.5350293"><ele>222.0</ele><time>2026-04-19T05:49:35.996Z</time></trkpt><trkpt lat="41.1921086" lon="15.5350854"><ele>222.0</ele><time>2026-04-19T05:49:36.996Z</time></trkpt><trkpt lat="41.1922682" lon="15.5351398"><ele>222.0</ele><time>2026-04-19T05:49:37.996Z</time></trkpt><trkpt lat="41.1924282" lon="15.5351923"><ele>222.33333333333331</ele><time>2026-04-19T05:49:38.997Z</time></trkpt><trkpt lat="41.1925882" lon="15.5352473"><ele>222.66666666666666</ele><time>2026-04-19T05:49:39.996Z</time></trkpt><trkpt lat="41.1927481" lon="15.5353054"><ele>223.0</ele><time>2026-04-19T05:49:40.996Z</time></trkpt><trkpt lat="41.1929083" lon="15.5353641"><ele>223.33333333333331</ele><time>2026-04-19T05:49:41.996Z</time></trkpt><trkpt lat="41.1930681" lon="15.5354229"><ele>223.66666666666669</ele><time>2026-04-19T05:49:42.996Z</time></trkpt><trkpt lat="41.1932277" lon="15.5354804"><ele>224.0</ele><time>2026-04-19T05:49:43.996Z</time></trkpt><trkpt lat="41.1933867" lon="15.5355385"><ele>224.0</ele><time>2026-04-19T05:49:44.996Z</time></trkpt><trkpt lat="41.193546" lon="15.5355966"><ele>224.0</ele><time>2026-04-19T05:49:45.996Z</time></trkpt><trkpt lat="41.1937033" lon="15.5356546"><ele>224.0</ele><time>2026-04-19T05:49:46.996Z</time></trkpt><trkpt lat="41.1938634" lon="15.5357118"><ele>224.0</ele><time>2026-04-19T05:49:47.996Z</time></trkpt><trkpt lat="41.1940228" lon="15.5357676"><ele>224.0</ele><time>2026-04-19T05:49:48.996Z</time></trkpt><trkpt lat="41.1941812" lon="15.5358224"><ele>224.0</ele><time>2026-04-19T05:49:49.996Z</time></trkpt><trkpt lat="41.1943386" lon="15.535875"><ele>224.0</ele><time>2026-04-19T05:49:50.997Z</time></trkpt><trkpt lat="41.1944966" lon="15.5359289"><ele>224.0</ele><time>2026-04-19T05:49:51.996Z</time></trkpt><trkpt lat="41.1946537" lon="15.5359845"><ele>224.0</ele><time>2026-04-19T05:49:52.996Z</time></trkpt><trkpt lat="41.1948113" lon="15.5360419"><ele>223.0</ele><time>2026-04-19T05:49:53.996Z</time></trkpt><trkpt lat="41.1949672" lon="15.536098"><ele>222.0</ele><time>2026-04-19T05:49:54.996Z</time></trkpt><trkpt lat="41.1951234" lon="15.5361542"><ele>221.0</ele><time>2026-04-19T05:49:55.996Z</time></trkpt><trkpt lat="41.195279" lon="15.5362078"><ele>221.33333333333334</ele><time>2026-04-19T05:49:56.996Z</time></trkpt><trkpt lat="41.1954351" lon="15.5362632"><ele>221.66666666666669</ele><time>2026-04-19T05:49:57.996Z</time></trkpt><trkpt lat="41.1955905" lon="15.5363182"><ele>222.0</ele><time>2026-04-19T05:49:58.996Z</time></trkpt><trkpt lat="41.1957471" lon="15.5363713"><ele>221.33333333333331</ele><time>2026-04-19T05:49:59.996Z</time></trkpt><trkpt lat="41.1959037" lon="15.5364253"><ele>220.66666666666666</ele><time>2026-04-19T05:50:00.996Z</time></trkpt><trkpt lat="41.1960618" lon="15.5364812"><ele>220.0</ele><time>2026-04-19T05:50:01.997Z</time></trkpt><trkpt lat="41.1962189" lon="15.5365407"><ele>220.0</ele><time>2026-04-19T05:50:02.996Z</time></trkpt><trkpt lat="41.1963757" lon="15.5365986"><ele>220.0</ele><time>2026-04-19T05:50:03.996Z</time></trkpt><trkpt lat="41.1965336" lon="15.5366567"><ele>220.0</ele><time>2026-04-19T05:50:04.996Z</time></trkpt><trkpt lat="41.1966943" lon="15.5367109"><ele>219.66666666666666</ele><time>2026-04-19T05:50:05.996Z</time></trkpt><trkpt lat="41.1968547" lon="15.5367653"><ele>219.33333333333331</ele><time>2026-04-19T05:50:06.996Z</time></trkpt><trkpt lat="41.1970151" lon="15.5368244"><ele>219.0</ele><time>2026-04-19T05:50:07.996Z</time></trkpt><trkpt lat="41.1971788" lon="15.5368858"><ele>219.0</ele><time>2026-04-19T05:50:08.996Z</time></trkpt><trkpt lat="41.1973428" lon="15.5369448"><ele>219.0</ele><time>2026-04-19T05:50:09.996Z</time></trkpt><trkpt lat="41.197509" lon="15.5370041"><ele>219.0</ele><time>2026-04-19T05:50:10.997Z</time></trkpt><trkpt lat="41.1976776" lon="15.537064"><ele>219.0</ele><time>2026-04-19T05:50:11.996Z</time></trkpt><trkpt lat="41.1978479" lon="15.5371262"><ele>219.0</ele><time>2026-04-19T05:50:12.997Z</time></trkpt><trkpt lat="41.1980207" lon="15.5371906"><ele>219.0</ele><time>2026-04-19T05:50:13.996Z</time></trkpt><trkpt lat="41.1981945" lon="15.5372536"><ele>218.0</ele><time>2026-04-19T05:50:14.996Z</time></trkpt><trkpt lat="41.1983696" lon="15.5373147"><ele>217.0</ele><time>2026-04-19T05:50:15.996Z</time></trkpt><trkpt lat="41.1985462" lon="15.5373752"><ele>216.0</ele><time>2026-04-19T05:50:16.996Z</time></trkpt><trkpt lat="41.1987233" lon="15.5374374"><ele>216.0</ele><time>2026-04-19T05:50:17.996Z</time></trkpt><trkpt lat="41.1989006" lon="15.5375036"><ele>216.0</ele><time>2026-04-19T05:50:18.996Z</time></trkpt><trkpt lat="41.1990776" lon="15.5375695"><ele>216.0</ele><time>2026-04-19T05:50:19.996Z</time></trkpt><trkpt lat="41.1992566" lon="15.5376349"><ele>215.0</ele><time>2026-04-19T05:50:20.996Z</time></trkpt><trkpt lat="41.1994377" lon="15.537698"><ele>214.0</ele><time>2026-04-19T05:50:21.996Z</time></trkpt><trkpt lat="41.1996198" lon="15.5377622"><ele>213.0</ele><time>2026-04-19T05:50:22.996Z</time></trkpt><trkpt lat="41.1998007" lon="15.5378259"><ele>212.66666666666669</ele><time>2026-04-19T05:50:23.996Z</time></trkpt><trkpt lat="41.19998" lon="15.5378894"><ele>212.33333333333334</ele><time>2026-04-19T05:50:24.996Z</time></trkpt><trkpt lat="41.2001582" lon="15.5379516"><ele>212.0</ele><time>2026-04-19T05:50:25.996Z</time></trkpt><trkpt lat="41.2003337" lon="15.5380133"><ele>212.0</ele><time>2026-04-19T05:50:26.996Z</time></trkpt><trkpt lat="41.2005069" lon="15.5380761"><ele>212.0</ele><time>2026-04-19T05:50:27.996Z</time></trkpt><trkpt lat="41.2006794" lon="15.538137"><ele>212.0</ele><time>2026-04-19T05:50:28.997Z</time></trkpt><trkpt lat="41.20085" lon="15.5381959"><ele>212.0</ele><time>2026-04-19T05:50:29.996Z</time></trkpt><trkpt lat="41.2010196" lon="15.5382539"><ele>212.0</ele><time>2026-04-19T05:50:30.997Z</time></trkpt><trkpt lat="41.2011879" lon="15.5383095"><ele>212.0</ele><time>2026-04-19T05:50:31.996Z</time></trkpt><trkpt lat="41.2013534" lon="15.5383654"><ele>211.66666666666669</ele><time>2026-04-19T05:50:32.996Z</time></trkpt><trkpt lat="41.201518" lon="15.5384229"><ele>211.33333333333331</ele><time>2026-04-19T05:50:33.996Z</time></trkpt><trkpt lat="41.2016835" lon="15.53848"><ele>211.0</ele><time>2026-04-19T05:50:34.997Z</time></trkpt><trkpt lat="41.2018474" lon="15.5385377"><ele>211.0</ele><time>2026-04-19T05:50:35.996Z</time></trkpt><trkpt lat="41.2020107" lon="15.5385959"><ele>211.0</ele><time>2026-04-19T05:50:36.996Z</time></trkpt><trkpt lat="41.2021748" lon="15.5386564"><ele>211.0</ele><time>2026-04-19T05:50:37.996Z</time></trkpt><trkpt lat="41.2023395" lon="15.5387157"><ele>211.0</ele><time>2026-04-19T05:50:38.996Z</time></trkpt><trkpt lat="41.2025058" lon="15.5387711"><ele>211.0</ele><time>2026-04-19T05:50:39.997Z</time></trkpt><trkpt lat="41.2026728" lon="15.5388262"><ele>211.0</ele><time>2026-04-19T05:50:40.997Z</time></trkpt><trkpt lat="41.2028398" lon="15.5388843"><ele>211.0</ele><time>2026-04-19T05:50:41.996Z</time></trkpt><trkpt lat="41.2030068" lon="15.5389427"><ele>211.0</ele><time>2026-04-19T05:50:42.997Z</time></trkpt><trkpt lat="41.203174" lon="15.5390013"><ele>211.0</ele><time>2026-04-19T05:50:43.996Z</time></trkpt><trkpt lat="41.2033409" lon="15.5390607"><ele>211.33333333333331</ele><time>2026-04-19T05:50:44.996Z</time></trkpt><trkpt lat="41.2035053" lon="15.5391194"><ele>211.66666666666669</ele><time>2026-04-19T05:50:45.996Z</time></trkpt><trkpt lat="41.2036686" lon="15.5391798"><ele>212.0</ele><time>2026-04-19T05:50:46.997Z</time></trkpt><trkpt lat="41.2038304" lon="15.5392411"><ele>212.0</ele><time>2026-04-19T05:50:47.996Z</time></trkpt><trkpt lat="41.2039917" lon="15.5393014"><ele>212.0</ele><time>2026-04-19T05:50:48.997Z</time></trkpt><trkpt lat="41.2041532" lon="15.5393594"><ele>212.0</ele><time>2026-04-19T05:50:49.997Z</time></trkpt><trkpt lat="41.2043134" lon="15.5394182"><ele>212.0</ele><time>2026-04-19T05:50:50.996Z</time></trkpt><trkpt lat="41.2044732" lon="15.5394778"><ele>212.0</ele><time>2026-04-19T05:50:51.996Z</time></trkpt><trkpt lat="41.2046326" lon="15.5395366"><ele>212.0</ele><time>2026-04-19T05:50:52.997Z</time></trkpt><trkpt lat="41.2047933" lon="15.5395932"><ele>211.66666666666669</ele><time>2026-04-19T05:50:53.996Z</time></trkpt><trkpt lat="41.2049558" lon="15.5396488"><ele>211.33333333333331</ele><time>2026-04-19T05:50:54.996Z</time></trkpt><trkpt lat="41.2051191" lon="15.5397053"><ele>211.0</ele><time>2026-04-19T05:50:55.996Z</time></trkpt><trkpt lat="41.2052838" lon="15.5397628"><ele>211.0</ele><time>2026-04-19T05:50:56.996Z</time></trkpt><trkpt lat="41.2054494" lon="15.539821"><ele>211.0</ele><time>2026-04-19T05:50:57.996Z</time></trkpt><trkpt lat="41.2056162" lon="15.5398794"><ele>211.0</ele><time>2026-04-19T05:50:58.996Z</time></trkpt><trkpt lat="41.2057841" lon="15.5399387"><ele>210.33333333333331</ele><time>2026-04-19T05:50:59.996Z</time></trkpt><trkpt lat="41.2059526" lon="15.5399997"><ele>209.66666666666669</ele><time>2026-04-19T05:51:00.996Z</time></trkpt><trkpt lat="41.2061224" lon="15.5400635"><ele>209.0</ele><time>2026-04-19T05:51:01.996Z</time></trkpt><trkpt lat="41.2062943" lon="15.5401267"><ele>209.0</ele><time>2026-04-19T05:51:02.996Z</time></trkpt><trkpt lat="41.2064648" lon="15.5401878"><ele>209.0</ele><time>2026-04-19T05:51:03.997Z</time></trkpt><trkpt lat="41.2066318" lon="15.5402448"><ele>209.0</ele><time>2026-04-19T05:51:04.997Z</time></trkpt><trkpt lat="41.2067962" lon="15.5403035"><ele>208.66666666666669</ele><time>2026-04-19T05:51:05.996Z</time></trkpt><trkpt lat="41.206961" lon="15.540363"><ele>208.33333333333331</ele><time>2026-04-19T05:51:06.996Z</time></trkpt><trkpt lat="41.2071253" lon="15.5404207"><ele>208.0</ele><time>2026-04-19T05:51:07.996Z</time></trkpt><trkpt lat="41.2072905" lon="15.5404789"><ele>208.0</ele><time>2026-04-19T05:51:08.996Z</time></trkpt><trkpt lat="41.2074559" lon="15.5405374"><ele>208.0</ele><time>2026-04-19T05:51:09.997Z</time></trkpt><trkpt lat="41.2076226" lon="15.5405983"><ele>208.0</ele><time>2026-04-19T05:51:10.996Z</time></trkpt><trkpt lat="41.2077909" lon="15.54066"><ele>208.0</ele><time>2026-04-19T05:51:11.996Z</time></trkpt><trkpt lat="41.2079609" lon="15.540721"><ele>208.0</ele><time>2026-04-19T05:51:12.996Z</time></trkpt><trkpt lat="41.2081315" lon="15.5407817"><ele>208.0</ele><time>2026-04-19T05:51:13.996Z</time></trkpt><trkpt lat="41.2083038" lon="15.540843"><ele>208.33333333333331</ele><time>2026-04-19T05:51:14.996Z</time></trkpt><trkpt lat="41.208474" lon="15.5409044"><ele>208.66666666666669</ele><time>2026-04-19T05:51:15.997Z</time></trkpt><trkpt lat="41.2086406" lon="15.5409622"><ele>209.0</ele><time>2026-04-19T05:51:16.997Z</time></trkpt><trkpt lat="41.2088042" lon="15.5410212"><ele>209.0</ele><time>2026-04-19T05:51:17.996Z</time></trkpt><trkpt lat="41.2089691" lon="15.541081"><ele>209.0</ele><time>2026-04-19T05:51:18.997Z</time></trkpt><trkpt lat="41.209135" lon="15.5411401"><ele>209.0</ele><time>2026-04-19T05:51:19.996Z</time></trkpt><trkpt lat="41.2093015" lon="15.5411978"><ele>208.66666666666669</ele><time>2026-04-19T05:51:20.996Z</time></trkpt><trkpt lat="41.2094704" lon="15.5412533"><ele>208.33333333333331</ele><time>2026-04-19T05:51:21.996Z</time></trkpt><trkpt lat="41.2096406" lon="15.5413088"><ele>208.0</ele><time>2026-04-19T05:51:22.996Z</time></trkpt><trkpt lat="41.2098133" lon="15.5413633"><ele>207.0</ele><time>2026-04-19T05:51:23.997Z</time></trkpt><trkpt lat="41.2099869" lon="15.5414155"><ele>206.0</ele><time>2026-04-19T05:51:24.996Z</time></trkpt><trkpt lat="41.2101611" lon="15.5414667"><ele>205.0</ele><time>2026-04-19T05:51:25.996Z</time></trkpt><trkpt lat="41.2103333" lon="15.5415142"><ele>205.0</ele><time>2026-04-19T05:51:26.997Z</time></trkpt><trkpt lat="41.2105044" lon="15.5415623"><ele>205.0</ele><time>2026-04-19T05:51:27.996Z</time></trkpt><trkpt lat="41.2106749" lon="15.5416156"><ele>205.0</ele><time>2026-04-19T05:51:28.996Z</time></trkpt><trkpt lat="41.2108488" lon="15.5416665"><ele>204.0</ele><time>2026-04-19T05:51:29.996Z</time></trkpt><trkpt lat="41.2110226" lon="15.5417125"><ele>203.0</ele><time>2026-04-19T05:51:30.996Z</time></trkpt><trkpt lat="41.2111987" lon="15.5417553"><ele>202.0</ele><time>2026-04-19T05:51:31.996Z</time></trkpt><trkpt lat="41.2113757" lon="15.5417976"><ele>201.0</ele><time>2026-04-19T05:51:32.996Z</time></trkpt><trkpt lat="41.2115542" lon="15.5418369"><ele>200.0</ele><time>2026-04-19T05:51:33.996Z</time></trkpt><trkpt lat="41.2117348" lon="15.5418739"><ele>199.0</ele><time>2026-04-19T05:51:34.997Z</time></trkpt><trkpt lat="41.2119169" lon="15.5419117"><ele>199.0</ele><time>2026-04-19T05:51:35.996Z</time></trkpt><trkpt lat="41.2121007" lon="15.5419472"><ele>199.0</ele><time>2026-04-19T05:51:36.996Z</time></trkpt><trkpt lat="41.2122837" lon="15.5419824"><ele>199.0</ele><time>2026-04-19T05:51:37.996Z</time></trkpt><trkpt lat="41.2124669" lon="15.5420149"><ele>199.0</ele><time>2026-04-19T05:51:38.996Z</time></trkpt><trkpt lat="41.2126477" lon="15.5420478"><ele>199.0</ele><time>2026-04-19T05:51:39.996Z</time></trkpt><trkpt lat="41.2128263" lon="15.5420777"><ele>199.0</ele><time>2026-04-19T05:51:40.996Z</time></trkpt><trkpt lat="41.2130016" lon="15.5421042"><ele>198.66666666666666</ele><time>2026-04-19T05:51:41.996Z</time></trkpt><trkpt lat="41.2131724" lon="15.5421291"><ele>198.33333333333331</ele><time>2026-04-19T05:51:42.996Z</time></trkpt><trkpt lat="41.2133419" lon="15.5421498"><ele>198.0</ele><time>2026-04-19T05:51:43.996Z</time></trkpt><trkpt lat="41.2135135" lon="15.5421709"><ele>198.0</ele><time>2026-04-19T05:51:44.997Z</time></trkpt><trkpt lat="41.2136862" lon="15.5421923"><ele>198.0</ele><time>2026-04-19T05:51:45.996Z</time></trkpt><trkpt lat="41.2138573" lon="15.5422127"><ele>198.0</ele><time>2026-04-19T05:51:46.996Z</time></trkpt><trkpt lat="41.2140285" lon="15.5422305"><ele>197.66666666666669</ele><time>2026-04-19T05:51:47.996Z</time></trkpt><trkpt lat="41.2141987" lon="15.5422484"><ele>197.33333333333334</ele><time>2026-04-19T05:51:48.996Z</time></trkpt><trkpt lat="41.2143687" lon="15.5422642"><ele>197.0</ele><time>2026-04-19T05:51:49.996Z</time></trkpt><trkpt lat="41.2145386" lon="15.5422784"><ele>197.0</ele><time>2026-04-19T05:51:50.997Z</time></trkpt><trkpt lat="41.2147085" lon="15.5422899"><ele>197.0</ele><time>2026-04-19T05:51:51.997Z</time></trkpt><trkpt lat="41.2148784" lon="15.5422993"><ele>197.0</ele><time>2026-04-19T05:51:52.996Z</time></trkpt><trkpt lat="41.2150484" lon="15.5423078"><ele>196.33333333333334</ele><time>2026-04-19T05:51:53.996Z</time></trkpt><trkpt lat="41.2152182" lon="15.5423162"><ele>195.66666666666669</ele><time>2026-04-19T05:51:54.996Z</time></trkpt><trkpt lat="41.2153881" lon="15.5423221"><ele>195.0</ele><time>2026-04-19T05:51:55.996Z</time></trkpt><trkpt lat="41.2155596" lon="15.5423294"><ele>194.0</ele><time>2026-04-19T05:51:56.996Z</time></trkpt><trkpt lat="41.2157326" lon="15.5423361"><ele>193.0</ele><time>2026-04-19T05:51:57.996Z</time></trkpt><trkpt lat="41.215906" lon="15.5423384"><ele>192.0</ele><time>2026-04-19T05:51:58.996Z</time></trkpt><trkpt lat="41.2160794" lon="15.5423376"><ele>192.0</ele><time>2026-04-19T05:51:59.996Z</time></trkpt><trkpt lat="41.2162539" lon="15.5423372"><ele>192.0</ele><time>2026-04-19T05:52:00.996Z</time></trkpt><trkpt lat="41.2164291" lon="15.5423384"><ele>192.0</ele><time>2026-04-19T05:52:01.997Z</time></trkpt><trkpt lat="41.2166046" lon="15.5423358"><ele>192.0</ele><time>2026-04-19T05:52:02.996Z</time></trkpt><trkpt lat="41.2167798" lon="15.5423305"><ele>192.0</ele><time>2026-04-19T05:52:03.997Z</time></trkpt><trkpt lat="41.2169557" lon="15.542321"><ele>192.0</ele><time>2026-04-19T05:52:04.996Z</time></trkpt><trkpt lat="41.2171313" lon="15.5423117"><ele>192.0</ele><time>2026-04-19T05:52:05.996Z</time></trkpt><trkpt lat="41.2173101" lon="15.5423051"><ele>192.0</ele><time>2026-04-19T05:52:06.996Z</time></trkpt><trkpt lat="41.2174902" lon="15.5422967"><ele>192.0</ele><time>2026-04-19T05:52:07.996Z</time></trkpt><trkpt lat="41.2176682" lon="15.5422861"><ele>191.66666666666666</ele><time>2026-04-19T05:52:08.997Z</time></trkpt><trkpt lat="41.2178439" lon="15.5422715"><ele>191.33333333333331</ele><time>2026-04-19T05:52:09.996Z</time></trkpt><trkpt lat="41.2180185" lon="15.5422565"><ele>191.0</ele><time>2026-04-19T05:52:10.996Z</time></trkpt><trkpt lat="41.2181919" lon="15.5422434"><ele>191.0</ele><time>2026-04-19T05:52:11.997Z</time></trkpt><trkpt lat="41.2183653" lon="15.5422241"><ele>191.0</ele><time>2026-04-19T05:52:12.996Z</time></trkpt><trkpt lat="41.2185396" lon="15.5422024"><ele>191.0</ele><time>2026-04-19T05:52:13.996Z</time></trkpt><trkpt lat="41.2187122" lon="15.5421787"><ele>191.0</ele><time>2026-04-19T05:52:14.996Z</time></trkpt><trkpt lat="41.2188851" lon="15.5421561"><ele>191.0</ele><time>2026-04-19T05:52:15.997Z</time></trkpt><trkpt lat="41.2190596" lon="15.5421346"><ele>191.0</ele><time>2026-04-19T05:52:16.996Z</time></trkpt><trkpt lat="41.2192369" lon="15.5421114"><ele>190.0</ele><time>2026-04-19T05:52:17.997Z</time></trkpt><trkpt lat="41.2194142" lon="15.5420829"><ele>189.0</ele><time>2026-04-19T05:52:18.996Z</time></trkpt><trkpt lat="41.2195877" lon="15.5420512"><ele>188.0</ele><time>2026-04-19T05:52:19.996Z</time></trkpt><trkpt lat="41.2197567" lon="15.5420204"><ele>187.33333333333331</ele><time>2026-04-19T05:52:20.996Z</time></trkpt><trkpt lat="41.2199255" lon="15.541988"><ele>186.66666666666666</ele><time>2026-04-19T05:52:21.997Z</time></trkpt><trkpt lat="41.2200946" lon="15.541955"><ele>186.0</ele><time>2026-04-19T05:52:22.996Z</time></trkpt><trkpt lat="41.220261" lon="15.5419218"><ele>186.0</ele><time>2026-04-19T05:52:23.996Z</time></trkpt><trkpt lat="41.2204257" lon="15.5418877"><ele>186.0</ele><time>2026-04-19T05:52:24.997Z</time></trkpt><trkpt lat="41.2205878" lon="15.5418512"><ele>186.0</ele><time>2026-04-19T05:52:25.996Z</time></trkpt><trkpt lat="41.2207502" lon="15.5418132"><ele>185.33333333333334</ele><time>2026-04-19T05:52:26.996Z</time></trkpt><trkpt lat="41.2209129" lon="15.5417737"><ele>184.66666666666669</ele><time>2026-04-19T05:52:27.996Z</time></trkpt><trkpt lat="41.2210749" lon="15.5417347"><ele>184.0</ele><time>2026-04-19T05:52:28.997Z</time></trkpt><trkpt lat="41.2212364" lon="15.541694"><ele>184.0</ele><time>2026-04-19T05:52:29.996Z</time></trkpt><trkpt lat="41.2213966" lon="15.5416505"><ele>184.0</ele><time>2026-04-19T05:52:30.996Z</time></trkpt><trkpt lat="41.2215568" lon="15.5416057"><ele>184.0</ele><time>2026-04-19T05:52:31.996Z</time></trkpt><trkpt lat="41.2217179" lon="15.5415617"><ele>183.0</ele><time>2026-04-19T05:52:32.996Z</time></trkpt><trkpt lat="41.2218793" lon="15.541516"><ele>182.0</ele><time>2026-04-19T05:52:33.996Z</time></trkpt><trkpt lat="41.2220409" lon="15.5414687"><ele>181.0</ele><time>2026-04-19T05:52:34.996Z</time></trkpt><trkpt lat="41.222204" lon="15.5414186"><ele>181.33333333333334</ele><time>2026-04-19T05:52:35.996Z</time></trkpt><trkpt lat="41.2223665" lon="15.5413674"><ele>181.66666666666666</ele><time>2026-04-19T05:52:36.996Z</time></trkpt><trkpt lat="41.2225284" lon="15.5413156"><ele>182.0</ele><time>2026-04-19T05:52:37.996Z</time></trkpt><trkpt lat="41.2226909" lon="15.5412627"><ele>182.0</ele><time>2026-04-19T05:52:38.996Z</time></trkpt><trkpt lat="41.2228538" lon="15.5412092"><ele>182.0</ele><time>2026-04-19T05:52:39.996Z</time></trkpt><trkpt lat="41.2230184" lon="15.5411554"><ele>182.0</ele><time>2026-04-19T05:52:40.996Z</time></trkpt><trkpt lat="41.223185" lon="15.5410975"><ele>181.33333333333331</ele><time>2026-04-19T05:52:41.996Z</time></trkpt><trkpt lat="41.2233499" lon="15.5410349"><ele>180.66666666666666</ele><time>2026-04-19T05:52:42.996Z</time></trkpt><trkpt lat="41.2235172" lon="15.5409701"><ele>180.0</ele><time>2026-04-19T05:52:43.996Z</time></trkpt><trkpt lat="41.2236854" lon="15.5409081"><ele>180.0</ele><time>2026-04-19T05:52:44.997Z</time></trkpt><trkpt lat="41.223855" lon="15.5408533"><ele>180.0</ele><time>2026-04-19T05:52:45.996Z</time></trkpt><trkpt lat="41.2240233" lon="15.5407917"><ele>180.0</ele><time>2026-04-19T05:52:46.996Z</time></trkpt><trkpt lat="41.22419" lon="15.5407267"><ele>180.0</ele><time>2026-04-19T05:52:47.996Z</time></trkpt><trkpt lat="41.2243583" lon="15.5406617"><ele>180.0</ele><time>2026-04-19T05:52:48.996Z</time></trkpt><trkpt lat="41.224525" lon="15.5405983"><ele>180.0</ele><time>2026-04-19T05:52:49.996Z</time></trkpt><trkpt lat="41.2246933" lon="15.540535"><ele>179.0</ele><time>2026-04-19T05:52:50.996Z</time></trkpt><trkpt lat="41.22486" lon="15.54047"><ele>178.0</ele><time>2026-04-19T05:52:51.996Z</time></trkpt><trkpt lat="41.2250233" lon="15.5404083"><ele>177.0</ele><time>2026-04-19T05:52:52.996Z</time></trkpt><trkpt lat="41.2251867" lon="15.540345"><ele>177.0</ele><time>2026-04-19T05:52:53.996Z</time></trkpt><trkpt lat="41.225345" lon="15.5402833"><ele>177.0</ele><time>2026-04-19T05:52:54.996Z</time></trkpt><trkpt lat="41.2255033" lon="15.5402217"><ele>177.0</ele><time>2026-04-19T05:52:55.996Z</time></trkpt><trkpt lat="41.2256617" lon="15.5401583"><ele>177.0</ele><time>2026-04-19T05:52:56.996Z</time></trkpt><trkpt lat="41.22582" lon="15.5400967"><ele>177.0</ele><time>2026-04-19T05:52:57.996Z</time></trkpt><trkpt lat="41.2259783" lon="15.5400367"><ele>177.0</ele><time>2026-04-19T05:52:58.996Z</time></trkpt><trkpt lat="41.2261367" lon="15.539975"><ele>177.0</ele><time>2026-04-19T05:52:59.996Z</time></trkpt><trkpt lat="41.226295" lon="15.53991"><ele>177.0</ele><time>2026-04-19T05:53:00.996Z</time></trkpt><trkpt lat="41.226455" lon="15.5398433"><ele>177.0</ele><time>2026-04-19T05:53:01.996Z</time></trkpt><trkpt lat="41.2266133" lon="15.53978"><ele>177.0</ele><time>2026-04-19T05:53:02.996Z</time></trkpt><trkpt lat="41.2267733" lon="15.5397183"><ele>177.0</ele><time>2026-04-19T05:53:03.996Z</time></trkpt><trkpt lat="41.2269367" lon="15.5396583"><ele>177.0</ele><time>2026-04-19T05:53:04.996Z</time></trkpt><trkpt lat="41.2271" lon="15.5395967"><ele>177.33333333333334</ele><time>2026-04-19T05:53:05.996Z</time></trkpt><trkpt lat="41.2272633" lon="15.5395367"><ele>177.66666666666669</ele><time>2026-04-19T05:53:06.996Z</time></trkpt><trkpt lat="41.2274267" lon="15.539475"><ele>178.0</ele><time>2026-04-19T05:53:07.997Z</time></trkpt><trkpt lat="41.2275917" lon="15.5394133"><ele>178.0</ele><time>2026-04-19T05:53:08.996Z</time></trkpt><trkpt lat="41.2277583" lon="15.5393517"><ele>178.0</ele><time>2026-04-19T05:53:09.996Z</time></trkpt><trkpt lat="41.227925" lon="15.5392917"><ele>178.0</ele><time>2026-04-19T05:53:10.996Z</time></trkpt><trkpt lat="41.2280933" lon="15.5392317"><ele>177.66666666666669</ele><time>2026-04-19T05:53:11.996Z</time></trkpt><trkpt lat="41.2282617" lon="15.539175"><ele>177.33333333333334</ele><time>2026-04-19T05:53:12.996Z</time></trkpt><trkpt lat="41.2284317" lon="15.539115"><ele>177.0</ele><time>2026-04-19T05:53:13.996Z</time></trkpt><trkpt lat="41.2286" lon="15.5390583"><ele>177.0</ele><time>2026-04-19T05:53:14.996Z</time></trkpt><trkpt lat="41.2287683" lon="15.5390033"><ele>177.0</ele><time>2026-04-19T05:53:15.996Z</time></trkpt><trkpt lat="41.2289367" lon="15.5389517"><ele>177.0</ele><time>2026-04-19T05:53:16.996Z</time></trkpt><trkpt lat="41.229105" lon="15.5389017"><ele>177.0</ele><time>2026-04-19T05:53:17.996Z</time></trkpt><trkpt lat="41.2292733" lon="15.53885"><ele>177.0</ele><time>2026-04-19T05:53:18.996Z</time></trkpt><trkpt lat="41.2294383" lon="15.5388"><ele>177.0</ele><time>2026-04-19T05:53:19.996Z</time></trkpt><trkpt lat="41.2296033" lon="15.53875"><ele>177.0</ele><time>2026-04-19T05:53:20.996Z</time></trkpt><trkpt lat="41.22977" lon="15.538705"><ele>177.0</ele><time>2026-04-19T05:53:21.996Z</time></trkpt><trkpt lat="41.229935" lon="15.5386567"><ele>177.0</ele><time>2026-04-19T05:53:22.996Z</time></trkpt><trkpt lat="41.2301" lon="15.5386117"><ele>177.33333333333334</ele><time>2026-04-19T05:53:23.996Z</time></trkpt><trkpt lat="41.2302667" lon="15.5385667"><ele>177.66666666666669</ele><time>2026-04-19T05:53:24.996Z</time></trkpt><trkpt lat="41.23043" lon="15.538525"><ele>178.0</ele><time>2026-04-19T05:53:25.996Z</time></trkpt><trkpt lat="41.2305983" lon="15.538485"><ele>177.33333333333334</ele><time>2026-04-19T05:53:26.996Z</time></trkpt><trkpt lat="41.2307633" lon="15.5384433"><ele>176.66666666666666</ele><time>2026-04-19T05:53:27.997Z</time></trkpt><trkpt lat="41.2309283" lon="15.5384033"><ele>176.0</ele><time>2026-04-19T05:53:28.996Z</time></trkpt><trkpt lat="41.231095" lon="15.5383617"><ele>176.0</ele><time>2026-04-19T05:53:29.996Z</time></trkpt><trkpt lat="41.2312617" lon="15.5383217"><ele>176.0</ele><time>2026-04-19T05:53:30.996Z</time></trkpt><trkpt lat="41.2314283" lon="15.538285"><ele>176.0</ele><time>2026-04-19T05:53:31.996Z</time></trkpt><trkpt lat="41.2315967" lon="15.53825"><ele>176.0</ele><time>2026-04-19T05:53:32.997Z</time></trkpt><trkpt lat="41.2317617" lon="15.538215"><ele>176.0</ele><time>2026-04-19T05:53:33.996Z</time></trkpt><trkpt lat="41.2319283" lon="15.53818"><ele>176.0</ele><time>2026-04-19T05:53:34.996Z</time></trkpt><trkpt lat="41.232095" lon="15.5381483"><ele>176.0</ele><time>2026-04-19T05:53:35.997Z</time></trkpt><trkpt lat="41.2322633" lon="15.5381167"><ele>176.0</ele><time>2026-04-19T05:53:36.996Z</time></trkpt><trkpt lat="41.2324317" lon="15.5380867"><ele>176.0</ele><time>2026-04-19T05:53:37.996Z</time></trkpt><trkpt lat="41.2326" lon="15.5380583"><ele>176.0</ele><time>2026-04-19T05:53:38.996Z</time></trkpt><trkpt lat="41.2327683" lon="15.53803"><ele>176.0</ele><time>2026-04-19T05:53:39.997Z</time></trkpt><trkpt lat="41.2329383" lon="15.5380017"><ele>176.0</ele><time>2026-04-19T05:53:40.996Z</time></trkpt><trkpt lat="41.2331067" lon="15.5379733"><ele>175.33333333333331</ele><time>2026-04-19T05:53:41.996Z</time></trkpt><trkpt lat="41.2332767" lon="15.5379467"><ele>174.66666666666666</ele><time>2026-04-19T05:53:42.996Z</time></trkpt><trkpt lat="41.2334467" lon="15.5379217"><ele>174.0</ele><time>2026-04-19T05:53:43.997Z</time></trkpt><trkpt lat="41.2336183" lon="15.5378967"><ele>174.0</ele><time>2026-04-19T05:53:44.996Z</time></trkpt><trkpt lat="41.2337917" lon="15.5378733"><ele>174.0</ele><time>2026-04-19T05:53:45.996Z</time></trkpt><trkpt lat="41.2339633" lon="15.5378517"><ele>174.0</ele><time>2026-04-19T05:53:46.996Z</time></trkpt><trkpt lat="41.234135" lon="15.5378333"><ele>174.0</ele><time>2026-04-19T05:53:47.996Z</time></trkpt><trkpt lat="41.2343083" lon="15.5378167"><ele>174.0</ele><time>2026-04-19T05:53:48.996Z</time></trkpt><trkpt lat="41.2344817" lon="15.5377983"><ele>174.0</ele><time>2026-04-19T05:53:49.996Z</time></trkpt><trkpt lat="41.234655" lon="15.53778"><ele>174.33333333333334</ele><time>2026-04-19T05:53:50.997Z</time></trkpt><trkpt lat="41.2348283" lon="15.5377617"><ele>174.66666666666669</ele><time>2026-04-19T05:53:51.996Z</time></trkpt><trkpt lat="41.2350033" lon="15.5377467"><ele>175.0</ele><time>2026-04-19T05:53:52.996Z</time></trkpt><trkpt lat="41.2351783" lon="15.5377333"><ele>175.0</ele><time>2026-04-19T05:53:53.997Z</time></trkpt><trkpt lat="41.2353533" lon="15.5377217"><ele>175.0</ele><time>2026-04-19T05:53:54.996Z</time></trkpt><trkpt lat="41.23553" lon="15.5377083"><ele>175.0</ele><time>2026-04-19T05:53:55.996Z</time></trkpt><trkpt lat="41.235705" lon="15.5376967"><ele>174.33333333333334</ele><time>2026-04-19T05:53:56.996Z</time></trkpt><trkpt lat="41.23588" lon="15.5376867"><ele>173.66666666666666</ele><time>2026-04-19T05:53:57.996Z</time></trkpt><trkpt lat="41.2360533" lon="15.5376783"><ele>173.0</ele><time>2026-04-19T05:53:58.997Z</time></trkpt><trkpt lat="41.2362283" lon="15.5376717"><ele>173.0</ele><time>2026-04-19T05:53:59.996Z</time></trkpt><trkpt lat="41.236405" lon="15.5376667"><ele>173.0</ele><time>2026-04-19T05:54:00.996Z</time></trkpt><trkpt lat="41.23658" lon="15.5376633"><ele>173.0</ele><time>2026-04-19T05:54:01.997Z</time></trkpt><trkpt lat="41.2367567" lon="15.53766"><ele>172.66666666666666</ele><time>2026-04-19T05:54:02.996Z</time></trkpt><trkpt lat="41.2369317" lon="15.53766"><ele>172.33333333333334</ele><time>2026-04-19T05:54:03.996Z</time></trkpt><trkpt lat="41.237105" lon="15.5376583"><ele>172.0</ele><time>2026-04-19T05:54:04.996Z</time></trkpt><trkpt lat="41.2372767" lon="15.5376583"><ele>171.66666666666669</ele><time>2026-04-19T05:54:05.996Z</time></trkpt><trkpt lat="41.2374517" lon="15.53766"><ele>171.33333333333334</ele><time>2026-04-19T05:54:06.996Z</time></trkpt><trkpt lat="41.237625" lon="15.5376633"><ele>171.0</ele><time>2026-04-19T05:54:07.997Z</time></trkpt><trkpt lat="41.2377983" lon="15.5376667"><ele>171.0</ele><time>2026-04-19T05:54:08.996Z</time></trkpt><trkpt lat="41.2379717" lon="15.5376683"><ele>171.0</ele><time>2026-04-19T05:54:09.996Z</time></trkpt><trkpt lat="41.2381467" lon="15.53767"><ele>171.0</ele><time>2026-04-19T05:54:10.996Z</time></trkpt><trkpt lat="41.2383217" lon="15.537675"><ele>171.33333333333334</ele><time>2026-04-19T05:54:11.996Z</time></trkpt><trkpt lat="41.238495" lon="15.5376817"><ele>171.66666666666669</ele><time>2026-04-19T05:54:12.997Z</time></trkpt><trkpt lat="41.2386683" lon="15.53769"><ele>172.0</ele><time>2026-04-19T05:54:13.996Z</time></trkpt><trkpt lat="41.23884" lon="15.5376983"><ele>172.33333333333334</ele><time>2026-04-19T05:54:14.996Z</time></trkpt><trkpt lat="41.23901" lon="15.5377117"><ele>172.66666666666666</ele><time>2026-04-19T05:54:15.996Z</time></trkpt><trkpt lat="41.23918" lon="15.5377267"><ele>173.0</ele><time>2026-04-19T05:54:16.996Z</time></trkpt><trkpt lat="41.2393517" lon="15.53774"><ele>173.0</ele><time>2026-04-19T05:54:17.996Z</time></trkpt><trkpt lat="41.239525" lon="15.5377517"><ele>173.0</ele><time>2026-04-19T05:54:18.997Z</time></trkpt><trkpt lat="41.2396967" lon="15.53776"><ele>173.0</ele><time>2026-04-19T05:54:19.996Z</time></trkpt><trkpt lat="41.2398683" lon="15.537775"><ele>172.33333333333331</ele><time>2026-04-19T05:54:20.997Z</time></trkpt><trkpt lat="41.24004" lon="15.5378"><ele>171.66666666666666</ele><time>2026-04-19T05:54:21.996Z</time></trkpt><trkpt lat="41.2402133" lon="15.5378183"><ele>171.0</ele><time>2026-04-19T05:54:22.996Z</time></trkpt><trkpt lat="41.2403883" lon="15.537835"><ele>171.0</ele><time>2026-04-19T05:54:23.997Z</time></trkpt><trkpt lat="41.240565" lon="15.5378567"><ele>171.0</ele><time>2026-04-19T05:54:24.996Z</time></trkpt><trkpt lat="41.24074" lon="15.53788"><ele>171.0</ele><time>2026-04-19T05:54:25.996Z</time></trkpt><trkpt lat="41.2409167" lon="15.5379033"><ele>170.33333333333334</ele><time>2026-04-19T05:54:26.996Z</time></trkpt><trkpt lat="41.241095" lon="15.5379267"><ele>169.66666666666669</ele><time>2026-04-19T05:54:27.996Z</time></trkpt><trkpt lat="41.2412717" lon="15.5379483"><ele>169.0</ele><time>2026-04-19T05:54:28.996Z</time></trkpt><trkpt lat="41.24145" lon="15.5379733"><ele>169.33333333333334</ele><time>2026-04-19T05:54:29.996Z</time></trkpt><trkpt lat="41.24163" lon="15.538"><ele>169.66666666666666</ele><time>2026-04-19T05:54:30.996Z</time></trkpt><trkpt lat="41.2418067" lon="15.53803"><ele>170.0</ele><time>2026-04-19T05:54:31.997Z</time></trkpt><trkpt lat="41.241985" lon="15.5380633"><ele>170.0</ele><time>2026-04-19T05:54:32.996Z</time></trkpt><trkpt lat="41.2421633" lon="15.538095"><ele>170.0</ele><time>2026-04-19T05:54:33.996Z</time></trkpt><trkpt lat="41.24234" lon="15.5381283"><ele>170.0</ele><time>2026-04-19T05:54:34.996Z</time></trkpt><trkpt lat="41.2425167" lon="15.5381617"><ele>170.33333333333331</ele><time>2026-04-19T05:54:35.996Z</time></trkpt><trkpt lat="41.2426933" lon="15.5381983"><ele>170.66666666666666</ele><time>2026-04-19T05:54:36.996Z</time></trkpt><trkpt lat="41.2428683" lon="15.538235"><ele>171.0</ele><time>2026-04-19T05:54:37.996Z</time></trkpt><trkpt lat="41.243045" lon="15.53827"><ele>170.0</ele><time>2026-04-19T05:54:38.996Z</time></trkpt><trkpt lat="41.2432217" lon="15.5383067"><ele>169.0</ele><time>2026-04-19T05:54:39.996Z</time></trkpt><trkpt lat="41.2433983" lon="15.5383467"><ele>168.0</ele><time>2026-04-19T05:54:40.996Z</time></trkpt><trkpt lat="41.243575" lon="15.5383883"><ele>168.0</ele><time>2026-04-19T05:54:41.996Z</time></trkpt><trkpt lat="41.24375" lon="15.5384317"><ele>168.0</ele><time>2026-04-19T05:54:42.996Z</time></trkpt><trkpt lat="41.2439233" lon="15.5384733"><ele>168.0</ele><time>2026-04-19T05:54:43.996Z</time></trkpt><trkpt lat="41.2440933" lon="15.5385167"><ele>168.0</ele><time>2026-04-19T05:54:44.997Z</time></trkpt><trkpt lat="41.24426" lon="15.53856"><ele>168.0</ele><time>2026-04-19T05:54:45.996Z</time></trkpt><trkpt lat="41.2444267" lon="15.538605"><ele>168.0</ele><time>2026-04-19T05:54:46.996Z</time></trkpt><trkpt lat="41.2445917" lon="15.5386533"><ele>168.0</ele><time>2026-04-19T05:54:47.997Z</time></trkpt><trkpt lat="41.2447583" lon="15.5387"><ele>168.0</ele><time>2026-04-19T05:54:48.996Z</time></trkpt><trkpt lat="41.244925" lon="15.5387483"><ele>168.0</ele><time>2026-04-19T05:54:49.996Z</time></trkpt><trkpt lat="41.2450917" lon="15.5388"><ele>167.66666666666666</ele><time>2026-04-19T05:54:50.996Z</time></trkpt><trkpt lat="41.2452633" lon="15.5388533"><ele>167.33333333333331</ele><time>2026-04-19T05:54:51.996Z</time></trkpt><trkpt lat="41.245435" lon="15.5389067"><ele>167.0</ele><time>2026-04-19T05:54:52.996Z</time></trkpt><trkpt lat="41.2456083" lon="15.53896"><ele>165.66666666666666</ele><time>2026-04-19T05:54:53.996Z</time></trkpt><trkpt lat="41.2457817" lon="15.5390133"><ele>164.33333333333334</ele><time>2026-04-19T05:54:54.996Z</time></trkpt><trkpt lat="41.2459583" lon="15.5390683"><ele>163.0</ele><time>2026-04-19T05:54:55.997Z</time></trkpt><trkpt lat="41.2461333" lon="15.5391267"><ele>163.0</ele><time>2026-04-19T05:54:56.996Z</time></trkpt><trkpt lat="41.24631" lon="15.5391883"><ele>163.0</ele><time>2026-04-19T05:54:57.996Z</time></trkpt><trkpt lat="41.2464867" lon="15.53925"><ele>163.0</ele><time>2026-04-19T05:54:58.996Z</time></trkpt><trkpt lat="41.246665" lon="15.5393133"><ele>164.0</ele><time>2026-04-19T05:54:59.997Z</time></trkpt><trkpt lat="41.246845" lon="15.5393783"><ele>165.0</ele><time>2026-04-19T05:55:00.996Z</time></trkpt><trkpt lat="41.2470233" lon="15.5394433"><ele>166.0</ele><time>2026-04-19T05:55:01.996Z</time></trkpt><trkpt lat="41.2472" lon="15.53951"><ele>165.66666666666669</ele><time>2026-04-19T05:55:02.996Z</time></trkpt><trkpt lat="41.247375" lon="15.5395783"><ele>165.33333333333334</ele><time>2026-04-19T05:55:03.996Z</time></trkpt><trkpt lat="41.2475417" lon="15.539645"><ele>165.0</ele><time>2026-04-19T05:55:04.996Z</time></trkpt><trkpt lat="41.2477" lon="15.5397117"><ele>165.0</ele><time>2026-04-19T05:55:05.996Z</time></trkpt><trkpt lat="41.2478617" lon="15.539775"><ele>165.0</ele><time>2026-04-19T05:55:06.997Z</time></trkpt><trkpt lat="41.2480233" lon="15.5398383"><ele>165.0</ele><time>2026-04-19T05:55:07.996Z</time></trkpt><trkpt lat="41.248185" lon="15.5399067"><ele>165.66666666666666</ele><time>2026-04-19T05:55:08.996Z</time></trkpt><trkpt lat="41.2483467" lon="15.539975"><ele>166.33333333333331</ele><time>2026-04-19T05:55:09.997Z</time></trkpt><trkpt lat="41.24851" lon="15.5400467"><ele>167.0</ele><time>2026-04-19T05:55:10.996Z</time></trkpt><trkpt lat="41.248675" lon="15.5401183"><ele>167.0</ele><time>2026-04-19T05:55:11.997Z</time></trkpt><trkpt lat="41.2488383" lon="15.5401883"><ele>167.0</ele><time>2026-04-19T05:55:12.997Z</time></trkpt><trkpt lat="41.2490033" lon="15.5402583"><ele>167.0</ele><time>2026-04-19T05:55:13.996Z</time></trkpt><trkpt lat="41.249165" lon="15.5403333"><ele>166.33333333333331</ele><time>2026-04-19T05:55:14.996Z</time></trkpt><trkpt lat="41.24932" lon="15.5404067"><ele>165.66666666666666</ele><time>2026-04-19T05:55:15.996Z</time></trkpt><trkpt lat="41.249475" lon="15.54048"><ele>165.0</ele><time>2026-04-19T05:55:16.996Z</time></trkpt><trkpt lat="41.24963" lon="15.5405533"><ele>165.0</ele><time>2026-04-19T05:55:17.996Z</time></trkpt><trkpt lat="41.249785" lon="15.5406333"><ele>165.0</ele><time>2026-04-19T05:55:18.996Z</time></trkpt><trkpt lat="41.2499433" lon="15.5407167"><ele>165.0</ele><time>2026-04-19T05:55:19.996Z</time></trkpt><trkpt lat="41.2501033" lon="15.5408"><ele>165.33333333333334</ele><time>2026-04-19T05:55:20.996Z</time></trkpt><trkpt lat="41.2502667" lon="15.5408817"><ele>165.66666666666669</ele><time>2026-04-19T05:55:21.996Z</time></trkpt><trkpt lat="41.2504317" lon="15.5409633"><ele>166.0</ele><time>2026-04-19T05:55:22.996Z</time></trkpt><trkpt lat="41.2505967" lon="15.5410483"><ele>166.0</ele><time>2026-04-19T05:55:23.996Z</time></trkpt><trkpt lat="41.2507583" lon="15.5411333"><ele>166.0</ele><time>2026-04-19T05:55:24.996Z</time></trkpt><trkpt lat="41.2509217" lon="15.5412217"><ele>166.0</ele><time>2026-04-19T05:55:25.997Z</time></trkpt><trkpt lat="41.251085" lon="15.5413133"><ele>165.66666666666669</ele><time>2026-04-19T05:55:26.996Z</time></trkpt><trkpt lat="41.2512483" lon="15.5414033"><ele>165.33333333333334</ele><time>2026-04-19T05:55:27.996Z</time></trkpt><trkpt lat="41.251415" lon="15.541495"><ele>165.0</ele><time>2026-04-19T05:55:28.996Z</time></trkpt><trkpt lat="41.25158" lon="15.54159"><ele>164.66666666666666</ele><time>2026-04-19T05:55:29.996Z</time></trkpt><trkpt lat="41.2517483" lon="15.541685"><ele>164.33333333333331</ele><time>2026-04-19T05:55:30.996Z</time></trkpt><trkpt lat="41.2519133" lon="15.541785"><ele>164.0</ele><time>2026-04-19T05:55:31.996Z</time></trkpt><trkpt lat="41.2520783" lon="15.541885"><ele>164.0</ele><time>2026-04-19T05:55:32.996Z</time></trkpt><trkpt lat="41.2522417" lon="15.5419833"><ele>164.0</ele><time>2026-04-19T05:55:33.996Z</time></trkpt><trkpt lat="41.2524033" lon="15.54208"><ele>164.0</ele><time>2026-04-19T05:55:34.996Z</time></trkpt><trkpt lat="41.2525617" lon="15.5421783"><ele>164.33333333333331</ele><time>2026-04-19T05:55:35.996Z</time></trkpt><trkpt lat="41.2527217" lon="15.54228"><ele>164.66666666666666</ele><time>2026-04-19T05:55:36.996Z</time></trkpt><trkpt lat="41.2528817" lon="15.542385"><ele>165.0</ele><time>2026-04-19T05:55:37.996Z</time></trkpt><trkpt lat="41.2530433" lon="15.5424883"><ele>164.33333333333334</ele><time>2026-04-19T05:55:38.996Z</time></trkpt><trkpt lat="41.2532033" lon="15.5425917"><ele>163.66666666666669</ele><time>2026-04-19T05:55:39.997Z</time></trkpt><trkpt lat="41.2533633" lon="15.5426983"><ele>163.0</ele><time>2026-04-19T05:55:40.996Z</time></trkpt><trkpt lat="41.2535217" lon="15.5428033"><ele>163.0</ele><time>2026-04-19T05:55:41.996Z</time></trkpt><trkpt lat="41.25368" lon="15.5429083"><ele>163.0</ele><time>2026-04-19T05:55:42.996Z</time></trkpt><trkpt lat="41.2538383" lon="15.5430117"><ele>163.0</ele><time>2026-04-19T05:55:43.997Z</time></trkpt><trkpt lat="41.2539983" lon="15.5431167"><ele>162.66666666666669</ele><time>2026-04-19T05:55:44.997Z</time></trkpt><trkpt lat="41.25416" lon="15.5432217"><ele>162.33333333333334</ele><time>2026-04-19T05:55:45.997Z</time></trkpt><trkpt lat="41.2543233" lon="15.5433283"><ele>162.0</ele><time>2026-04-19T05:55:46.997Z</time></trkpt><trkpt lat="41.254485" lon="15.5434367"><ele>162.0</ele><time>2026-04-19T05:55:47.997Z</time></trkpt><trkpt lat="41.2546467" lon="15.5435467"><ele>162.0</ele><time>2026-04-19T05:55:48.997Z</time></trkpt><trkpt lat="41.2548067" lon="15.5436533"><ele>162.0</ele><time>2026-04-19T05:55:49.997Z</time></trkpt><trkpt lat="41.254965" lon="15.54376"><ele>162.0</ele><time>2026-04-19T05:55:50.998Z</time></trkpt><trkpt lat="41.25512" lon="15.5438633"><ele>162.0</ele><time>2026-04-19T05:55:51.997Z</time></trkpt><trkpt lat="41.2552733" lon="15.5439667"><ele>162.0</ele><time>2026-04-19T05:55:52.997Z</time></trkpt><trkpt lat="41.255425" lon="15.54407"><ele>162.0</ele><time>2026-04-19T05:55:53.997Z</time></trkpt><trkpt lat="41.255575" lon="15.544175"><ele>162.0</ele><time>2026-04-19T05:55:54.997Z</time></trkpt><trkpt lat="41.2557267" lon="15.5442783"><ele>162.0</ele><time>2026-04-19T05:55:55.997Z</time></trkpt><trkpt lat="41.2558783" lon="15.54438"><ele>161.66666666666666</ele><time>2026-04-19T05:55:56.996Z</time></trkpt><trkpt lat="41.2560333" lon="15.5444817"><ele>161.33333333333331</ele><time>2026-04-19T05:55:57.996Z</time></trkpt><trkpt lat="41.25619" lon="15.5445867"><ele>161.0</ele><time>2026-04-19T05:55:58.996Z</time></trkpt><trkpt lat="41.2563467" lon="15.5446933"><ele>161.33333333333331</ele><time>2026-04-19T05:55:59.997Z</time></trkpt><trkpt lat="41.256505" lon="15.5447983"><ele>161.66666666666666</ele><time>2026-04-19T05:56:00.997Z</time></trkpt><trkpt lat="41.2566617" lon="15.5449017"><ele>162.0</ele><time>2026-04-19T05:56:01.996Z</time></trkpt><trkpt lat="41.25682" lon="15.545005"><ele>162.0</ele><time>2026-04-19T05:56:02.996Z</time></trkpt><trkpt lat="41.2569783" lon="15.54511"><ele>162.0</ele><time>2026-04-19T05:56:03.996Z</time></trkpt><trkpt lat="41.2571367" lon="15.5452167"><ele>162.0</ele><time>2026-04-19T05:56:04.996Z</time></trkpt><trkpt lat="41.257295" lon="15.5453217"><ele>161.0</ele><time>2026-04-19T05:56:05.996Z</time></trkpt><trkpt lat="41.2574517" lon="15.545425"><ele>160.0</ele><time>2026-04-19T05:56:06.996Z</time></trkpt><trkpt lat="41.2576083" lon="15.5455317"><ele>159.0</ele><time>2026-04-19T05:56:07.996Z</time></trkpt><trkpt lat="41.2577633" lon="15.545635"><ele>159.0</ele><time>2026-04-19T05:56:08.996Z</time></trkpt><trkpt lat="41.25792" lon="15.54574"><ele>159.0</ele><time>2026-04-19T05:56:09.996Z</time></trkpt><trkpt lat="41.258075" lon="15.5458433"><ele>159.0</ele><time>2026-04-19T05:56:10.996Z</time></trkpt><trkpt lat="41.25823" lon="15.5459467"><ele>159.0</ele><time>2026-04-19T05:56:11.996Z</time></trkpt><trkpt lat="41.2583867" lon="15.54605"><ele>159.0</ele><time>2026-04-19T05:56:12.996Z</time></trkpt><trkpt lat="41.2585433" lon="15.546155"><ele>159.0</ele><time>2026-04-19T05:56:13.997Z</time></trkpt><trkpt lat="41.2587017" lon="15.5462583"><ele>159.0</ele><time>2026-04-19T05:56:14.996Z</time></trkpt><trkpt lat="41.25886" lon="15.5463617"><ele>159.0</ele><time>2026-04-19T05:56:15.996Z</time></trkpt><trkpt lat="41.2590183" lon="15.546465"><ele>159.0</ele><time>2026-04-19T05:56:16.997Z</time></trkpt><trkpt lat="41.2591767" lon="15.5465717"><ele>158.66666666666666</ele><time>2026-04-19T05:56:17.996Z</time></trkpt><trkpt lat="41.2593333" lon="15.5466817"><ele>158.33333333333331</ele><time>2026-04-19T05:56:18.996Z</time></trkpt><trkpt lat="41.2594883" lon="15.5467867"><ele>158.0</ele><time>2026-04-19T05:56:19.997Z</time></trkpt><trkpt lat="41.259645" lon="15.54689"><ele>158.0</ele><time>2026-04-19T05:56:20.996Z</time></trkpt><trkpt lat="41.2598017" lon="15.546995"><ele>158.0</ele><time>2026-04-19T05:56:21.996Z</time></trkpt><trkpt lat="41.2599567" lon="15.5470983"><ele>158.0</ele><time>2026-04-19T05:56:22.996Z</time></trkpt><trkpt lat="41.2601117" lon="15.5472"><ele>158.0</ele><time>2026-04-19T05:56:23.996Z</time></trkpt><trkpt lat="41.2602683" lon="15.5473033"><ele>158.0</ele><time>2026-04-19T05:56:24.997Z</time></trkpt><trkpt lat="41.2604233" lon="15.5474083"><ele>158.0</ele><time>2026-04-19T05:56:25.996Z</time></trkpt><trkpt lat="41.26058" lon="15.547515"><ele>157.66666666666666</ele><time>2026-04-19T05:56:26.996Z</time></trkpt><trkpt lat="41.2607367" lon="15.5476233"><ele>157.33333333333334</ele><time>2026-04-19T05:56:27.996Z</time></trkpt><trkpt lat="41.2608967" lon="15.54773"><ele>157.0</ele><time>2026-04-19T05:56:28.996Z</time></trkpt><trkpt lat="41.261055" lon="15.5478333"><ele>157.0</ele><time>2026-04-19T05:56:29.996Z</time></trkpt><trkpt lat="41.261215" lon="15.5479383"><ele>157.0</ele><time>2026-04-19T05:56:30.997Z</time></trkpt><trkpt lat="41.261375" lon="15.5480383"><ele>157.0</ele><time>2026-04-19T05:56:31.996Z</time></trkpt><trkpt lat="41.261535" lon="15.5481417"><ele>157.66666666666669</ele><time>2026-04-19T05:56:32.996Z</time></trkpt><trkpt lat="41.261695" lon="15.54824"><ele>158.33333333333334</ele><time>2026-04-19T05:56:33.996Z</time></trkpt><trkpt lat="41.2618567" lon="15.5483367"><ele>159.0</ele><time>2026-04-19T05:56:34.996Z</time></trkpt><trkpt lat="41.2620167" lon="15.548435"><ele>159.0</ele><time>2026-04-19T05:56:35.996Z</time></trkpt><trkpt lat="41.2621783" lon="15.5485333"><ele>159.0</ele><time>2026-04-19T05:56:36.997Z</time></trkpt><trkpt lat="41.2623383" lon="15.5486317"><ele>159.0</ele><time>2026-04-19T05:56:37.996Z</time></trkpt><trkpt lat="41.2624983" lon="15.54873"><ele>157.66666666666666</ele><time>2026-04-19T05:56:38.997Z</time></trkpt><trkpt lat="41.2626567" lon="15.548825"><ele>156.33333333333331</ele><time>2026-04-19T05:56:39.996Z</time></trkpt><trkpt lat="41.2628167" lon="15.5489183"><ele>155.0</ele><time>2026-04-19T05:56:40.996Z</time></trkpt><trkpt lat="41.2629783" lon="15.54901"><ele>155.33333333333331</ele><time>2026-04-19T05:56:41.996Z</time></trkpt><trkpt lat="41.2631383" lon="15.5491017"><ele>155.66666666666666</ele><time>2026-04-19T05:56:42.997Z</time></trkpt><trkpt lat="41.2633" lon="15.5491933"><ele>156.0</ele><time>2026-04-19T05:56:43.996Z</time></trkpt><trkpt lat="41.26346" lon="15.54928"><ele>156.0</ele><time>2026-04-19T05:56:44.996Z</time></trkpt><trkpt lat="41.2636217" lon="15.5493683"><ele>156.0</ele><time>2026-04-19T05:56:45.996Z</time></trkpt><trkpt lat="41.2637817" lon="15.5494567"><ele>156.0</ele><time>2026-04-19T05:56:46.996Z</time></trkpt><trkpt lat="41.2639433" lon="15.5495417"><ele>155.66666666666666</ele><time>2026-04-19T05:56:47.996Z</time></trkpt><trkpt lat="41.2641033" lon="15.5496283"><ele>155.33333333333331</ele><time>2026-04-19T05:56:48.996Z</time></trkpt><trkpt lat="41.2642633" lon="15.5497167"><ele>155.0</ele><time>2026-04-19T05:56:49.996Z</time></trkpt><trkpt lat="41.264425" lon="15.549805"><ele>155.0</ele><time>2026-04-19T05:56:50.996Z</time></trkpt><trkpt lat="41.264585" lon="15.54989"><ele>155.0</ele><time>2026-04-19T05:56:51.996Z</time></trkpt><trkpt lat="41.2647483" lon="15.5499717"><ele>155.0</ele><time>2026-04-19T05:56:52.996Z</time></trkpt><trkpt lat="41.2649117" lon="15.5500517"><ele>154.66666666666666</ele><time>2026-04-19T05:56:53.996Z</time></trkpt><trkpt lat="41.265075" lon="15.55013"><ele>154.33333333333334</ele><time>2026-04-19T05:56:54.996Z</time></trkpt><trkpt lat="41.2652383" lon="15.55021"><ele>154.0</ele><time>2026-04-19T05:56:55.996Z</time></trkpt><trkpt lat="41.2654" lon="15.55029"><ele>154.0</ele><time>2026-04-19T05:56:56.996Z</time></trkpt><trkpt lat="41.2655633" lon="15.55037"><ele>154.0</ele><time>2026-04-19T05:56:57.996Z</time></trkpt><trkpt lat="41.2657233" lon="15.55045"><ele>154.0</ele><time>2026-04-19T05:56:58.996Z</time></trkpt><trkpt lat="41.265885" lon="15.5505267"><ele>153.66666666666669</ele><time>2026-04-19T05:56:59.996Z</time></trkpt><trkpt lat="41.2660467" lon="15.5506"><ele>153.33333333333334</ele><time>2026-04-19T05:57:00.996Z</time></trkpt><trkpt lat="41.26621" lon="15.5506717"><ele>153.0</ele><time>2026-04-19T05:57:01.996Z</time></trkpt><trkpt lat="41.266375" lon="15.550745"><ele>153.0</ele><time>2026-04-19T05:57:02.996Z</time></trkpt><trkpt lat="41.2665367" lon="15.55082"><ele>153.0</ele><time>2026-04-19T05:57:03.996Z</time></trkpt><trkpt lat="41.2667017" lon="15.5508967"><ele>153.0</ele><time>2026-04-19T05:57:04.996Z</time></trkpt><trkpt lat="41.2668667" lon="15.5509733"><ele>153.0</ele><time>2026-04-19T05:57:05.996Z</time></trkpt><trkpt lat="41.2670333" lon="15.5510467"><ele>153.0</ele><time>2026-04-19T05:57:06.996Z</time></trkpt><trkpt lat="41.2672" lon="15.5511167"><ele>153.0</ele><time>2026-04-19T05:57:07.997Z</time></trkpt><trkpt lat="41.267365" lon="15.5511867"><ele>153.33333333333334</ele><time>2026-04-19T05:57:08.996Z</time></trkpt><trkpt lat="41.2675283" lon="15.5512567"><ele>153.66666666666669</ele><time>2026-04-19T05:57:09.996Z</time></trkpt><trkpt lat="41.2676917" lon="15.5513233"><ele>154.0</ele><time>2026-04-19T05:57:10.996Z</time></trkpt><trkpt lat="41.2678517" lon="15.5513883"><ele>154.0</ele><time>2026-04-19T05:57:11.997Z</time></trkpt><trkpt lat="41.26801" lon="15.5514517"><ele>154.0</ele><time>2026-04-19T05:57:12.996Z</time></trkpt><trkpt lat="41.2681683" lon="15.5515117"><ele>154.0</ele><time>2026-04-19T05:57:13.996Z</time></trkpt><trkpt lat="41.2683267" lon="15.55157"><ele>154.33333333333334</ele><time>2026-04-19T05:57:14.996Z</time></trkpt><trkpt lat="41.2684833" lon="15.5516267"><ele>154.66666666666666</ele><time>2026-04-19T05:57:15.996Z</time></trkpt><trkpt lat="41.2686383" lon="15.5516883"><ele>155.0</ele><time>2026-04-19T05:57:16.996Z</time></trkpt><trkpt lat="41.26879" lon="15.55175"><ele>155.0</ele><time>2026-04-19T05:57:17.996Z</time></trkpt><trkpt lat="41.2689417" lon="15.5518083"><ele>155.0</ele><time>2026-04-19T05:57:18.996Z</time></trkpt><trkpt lat="41.2690933" lon="15.55186"><ele>155.0</ele><time>2026-04-19T05:57:19.996Z</time></trkpt><trkpt lat="41.269245" lon="15.5519117"><ele>154.66666666666666</ele><time>2026-04-19T05:57:20.996Z</time></trkpt><trkpt lat="41.2693983" lon="15.5519617"><ele>154.33333333333334</ele><time>2026-04-19T05:57:21.996Z</time></trkpt><trkpt lat="41.269555" lon="15.5520117"><ele>154.0</ele><time>2026-04-19T05:57:22.996Z</time></trkpt><trkpt lat="41.269715" lon="15.5520683"><ele>153.66666666666669</ele><time>2026-04-19T05:57:23.996Z</time></trkpt><trkpt lat="41.2698767" lon="15.5521233"><ele>153.33333333333334</ele><time>2026-04-19T05:57:24.996Z</time></trkpt><trkpt lat="41.2700417" lon="15.5521783"><ele>153.0</ele><time>2026-04-19T05:57:25.997Z</time></trkpt><trkpt lat="41.27021" lon="15.552235"><ele>153.0</ele><time>2026-04-19T05:57:26.997Z</time></trkpt><trkpt lat="41.2703783" lon="15.55229"><ele>153.0</ele><time>2026-04-19T05:57:27.996Z</time></trkpt><trkpt lat="41.27055" lon="15.552345"><ele>153.0</ele><time>2026-04-19T05:57:28.996Z</time></trkpt><trkpt lat="41.2707233" lon="15.5523983"><ele>153.66666666666666</ele><time>2026-04-19T05:57:29.996Z</time></trkpt><trkpt lat="41.2708967" lon="15.5524517"><ele>154.33333333333331</ele><time>2026-04-19T05:57:30.996Z</time></trkpt><trkpt lat="41.2710683" lon="15.5525017"><ele>155.0</ele><time>2026-04-19T05:57:31.996Z</time></trkpt><trkpt lat="41.27124" lon="15.55255"><ele>155.0</ele><time>2026-04-19T05:57:32.996Z</time></trkpt><trkpt lat="41.2714133" lon="15.5525983"><ele>155.0</ele><time>2026-04-19T05:57:33.996Z</time></trkpt><trkpt lat="41.2715867" lon="15.5526483"><ele>155.0</ele><time>2026-04-19T05:57:34.997Z</time></trkpt><trkpt lat="41.2717617" lon="15.5526983"><ele>155.66666666666666</ele><time>2026-04-19T05:57:35.996Z</time></trkpt><trkpt lat="41.271935" lon="15.5527467"><ele>156.33333333333334</ele><time>2026-04-19T05:57:36.996Z</time></trkpt><trkpt lat="41.27211" lon="15.5527933"><ele>157.0</ele><time>2026-04-19T05:57:37.997Z</time></trkpt><trkpt lat="41.272285" lon="15.5528367"><ele>156.0</ele><time>2026-04-19T05:57:38.996Z</time></trkpt><trkpt lat="41.2724567" lon="15.55288"><ele>155.0</ele><time>2026-04-19T05:57:39.996Z</time></trkpt><trkpt lat="41.27263" lon="15.5529233"><ele>154.0</ele><time>2026-04-19T05:57:40.996Z</time></trkpt><trkpt lat="41.2728033" lon="15.5529683"><ele>154.0</ele><time>2026-04-19T05:57:41.996Z</time></trkpt><trkpt lat="41.2729783" lon="15.5530117"><ele>154.0</ele><time>2026-04-19T05:57:42.996Z</time></trkpt><trkpt lat="41.2731533" lon="15.5530517"><ele>154.0</ele><time>2026-04-19T05:57:43.996Z</time></trkpt><trkpt lat="41.2733283" lon="15.5530917"><ele>155.0</ele><time>2026-04-19T05:57:44.996Z</time></trkpt><trkpt lat="41.2735033" lon="15.5531317"><ele>156.0</ele><time>2026-04-19T05:57:45.996Z</time></trkpt><trkpt lat="41.2736783" lon="15.55317"><ele>157.0</ele><time>2026-04-19T05:57:46.996Z</time></trkpt><trkpt lat="41.273855" lon="15.5532067"><ele>157.0</ele><time>2026-04-19T05:57:47.996Z</time></trkpt><trkpt lat="41.2740317" lon="15.5532433"><ele>157.0</ele><time>2026-04-19T05:57:48.997Z</time></trkpt><trkpt lat="41.2742083" lon="15.5532783"><ele>157.0</ele><time>2026-04-19T05:57:49.997Z</time></trkpt><trkpt lat="41.2743833" lon="15.5533117"><ele>157.0</ele><time>2026-04-19T05:57:50.996Z</time></trkpt><trkpt lat="41.2745567" lon="15.553345"><ele>157.0</ele><time>2026-04-19T05:57:51.997Z</time></trkpt><trkpt lat="41.2747283" lon="15.55338"><ele>157.0</ele><time>2026-04-19T05:57:52.997Z</time></trkpt><trkpt lat="41.2749033" lon="15.5534117"><ele>157.0</ele><time>2026-04-19T05:57:53.996Z</time></trkpt><trkpt lat="41.2750783" lon="15.5534417"><ele>157.0</ele><time>2026-04-19T05:57:54.996Z</time></trkpt><trkpt lat="41.275255" lon="15.55347"><ele>157.0</ele><time>2026-04-19T05:57:55.996Z</time></trkpt><trkpt lat="41.2754317" lon="15.5534983"><ele>157.0</ele><time>2026-04-19T05:57:56.996Z</time></trkpt><trkpt lat="41.27561" lon="15.553525"><ele>157.0</ele><time>2026-04-19T05:57:57.996Z</time></trkpt><trkpt lat="41.2757867" lon="15.55355"><ele>157.0</ele><time>2026-04-19T05:57:58.997Z</time></trkpt><trkpt lat="41.275965" lon="15.5535767"><ele>157.0</ele><time>2026-04-19T05:57:59.997Z</time></trkpt><trkpt lat="41.2761417" lon="15.5536"><ele>157.0</ele><time>2026-04-19T05:58:00.997Z</time></trkpt><trkpt lat="41.27632" lon="15.5536217"><ele>157.0</ele><time>2026-04-19T05:58:01.996Z</time></trkpt><trkpt lat="41.2764983" lon="15.5536417"><ele>157.0</ele><time>2026-04-19T05:58:02.996Z</time></trkpt><trkpt lat="41.2766767" lon="15.553665"><ele>157.0</ele><time>2026-04-19T05:58:03.996Z</time></trkpt><trkpt lat="41.276855" lon="15.553685"><ele>157.0</ele><time>2026-04-19T05:58:04.997Z</time></trkpt><trkpt lat="41.2770283" lon="15.5537083"><ele>157.0</ele><time>2026-04-19T05:58:05.996Z</time></trkpt><trkpt lat="41.2772017" lon="15.55373"><ele>157.0</ele><time>2026-04-19T05:58:06.996Z</time></trkpt><trkpt lat="41.2773733" lon="15.5537517"><ele>157.0</ele><time>2026-04-19T05:58:07.996Z</time></trkpt><trkpt lat="41.2775433" lon="15.5537733"><ele>157.66666666666669</ele><time>2026-04-19T05:58:08.996Z</time></trkpt><trkpt lat="41.2777117" lon="15.55379"><ele>158.33333333333334</ele><time>2026-04-19T05:58:09.996Z</time></trkpt><trkpt lat="41.2778817" lon="15.5538033"><ele>159.0</ele><time>2026-04-19T05:58:10.997Z</time></trkpt><trkpt lat="41.2780517" lon="15.553815"><ele>159.0</ele><time>2026-04-19T05:58:11.996Z</time></trkpt><trkpt lat="41.2782233" lon="15.5538283"><ele>159.0</ele><time>2026-04-19T05:58:12.996Z</time></trkpt><trkpt lat="41.278395" lon="15.5538417"><ele>159.0</ele><time>2026-04-19T05:58:13.997Z</time></trkpt><trkpt lat="41.2785667" lon="15.5538533"><ele>159.0</ele><time>2026-04-19T05:58:14.996Z</time></trkpt><trkpt lat="41.27874" lon="15.5538633"><ele>159.0</ele><time>2026-04-19T05:58:15.996Z</time></trkpt><trkpt lat="41.2789133" lon="15.5538717"><ele>159.0</ele><time>2026-04-19T05:58:16.997Z</time></trkpt><trkpt lat="41.279085" lon="15.5538783"><ele>159.33333333333334</ele><time>2026-04-19T05:58:17.996Z</time></trkpt><trkpt lat="41.2792567" lon="15.5538867"><ele>159.66666666666669</ele><time>2026-04-19T05:58:18.997Z</time></trkpt><trkpt lat="41.2794283" lon="15.553895"><ele>160.0</ele><time>2026-04-19T05:58:19.996Z</time></trkpt><trkpt lat="41.2795983" lon="15.5539033"><ele>160.33333333333334</ele><time>2026-04-19T05:58:20.996Z</time></trkpt><trkpt lat="41.2797683" lon="15.5539083"><ele>160.66666666666666</ele><time>2026-04-19T05:58:21.997Z</time></trkpt><trkpt lat="41.27994" lon="15.5539133"><ele>161.0</ele><time>2026-04-19T05:58:22.997Z</time></trkpt><trkpt lat="41.28011" lon="15.5539167"><ele>161.0</ele><time>2026-04-19T05:58:23.997Z</time></trkpt><trkpt lat="41.28028" lon="15.5539217"><ele>161.0</ele><time>2026-04-19T05:58:24.996Z</time></trkpt><trkpt lat="41.28045" lon="15.5539267"><ele>161.0</ele><time>2026-04-19T05:58:25.996Z</time></trkpt><trkpt lat="41.28062" lon="15.55393"><ele>161.0</ele><time>2026-04-19T05:58:26.996Z</time></trkpt><trkpt lat="41.28079" lon="15.55393"><ele>161.0</ele><time>2026-04-19T05:58:27.996Z</time></trkpt><trkpt lat="41.28096" lon="15.55393"><ele>161.0</ele><time>2026-04-19T05:58:28.997Z</time></trkpt><trkpt lat="41.2811283" lon="15.55393"><ele>161.0</ele><time>2026-04-19T05:58:29.996Z</time></trkpt><trkpt lat="41.281295" lon="15.5539267"><ele>161.0</ele><time>2026-04-19T05:58:30.997Z</time></trkpt><trkpt lat="41.2814633" lon="15.5539267"><ele>161.0</ele><time>2026-04-19T05:58:31.997Z</time></trkpt><trkpt lat="41.28163" lon="15.5539283"><ele>161.33333333333331</ele><time>2026-04-19T05:58:32.996Z</time></trkpt><trkpt lat="41.281795" lon="15.5539317"><ele>161.66666666666666</ele><time>2026-04-19T05:58:33.996Z</time></trkpt><trkpt lat="41.2819617" lon="15.5539317"><ele>162.0</ele><time>2026-04-19T05:58:34.997Z</time></trkpt><trkpt lat="41.2821267" lon="15.5539317"><ele>163.0</ele><time>2026-04-19T05:58:35.996Z</time></trkpt><trkpt lat="41.2822917" lon="15.553935"><ele>164.0</ele><time>2026-04-19T05:58:36.996Z</time></trkpt><trkpt lat="41.2824567" lon="15.5539367"><ele>165.0</ele><time>2026-04-19T05:58:37.996Z</time></trkpt><trkpt lat="41.2826217" lon="15.5539333"><ele>165.0</ele><time>2026-04-19T05:58:38.996Z</time></trkpt><trkpt lat="41.282785" lon="15.5539283"><ele>165.0</ele><time>2026-04-19T05:58:39.996Z</time></trkpt><trkpt lat="41.2829483" lon="15.55393"><ele>165.0</ele><time>2026-04-19T05:58:40.996Z</time></trkpt><trkpt lat="41.2831117" lon="15.5539317"><ele>165.33333333333334</ele><time>2026-04-19T05:58:41.996Z</time></trkpt><trkpt lat="41.283275" lon="15.5539283"><ele>165.66666666666669</ele><time>2026-04-19T05:58:42.996Z</time></trkpt><trkpt lat="41.2834383" lon="15.553925"><ele>166.0</ele><time>2026-04-19T05:58:43.996Z</time></trkpt><trkpt lat="41.2836033" lon="15.553925"><ele>166.0</ele><time>2026-04-19T05:58:44.996Z</time></trkpt><trkpt lat="41.28377" lon="15.5539283"><ele>166.0</ele><time>2026-04-19T05:58:45.996Z</time></trkpt><trkpt lat="41.283935" lon="15.5539283"><ele>166.0</ele><time>2026-04-19T05:58:46.997Z</time></trkpt><trkpt lat="41.2841" lon="15.5539267"><ele>166.66666666666669</ele><time>2026-04-19T05:58:47.996Z</time></trkpt><trkpt lat="41.2842667" lon="15.5539233"><ele>167.33333333333334</ele><time>2026-04-19T05:58:48.996Z</time></trkpt><trkpt lat="41.2844333" lon="15.5539233"><ele>168.0</ele><time>2026-04-19T05:58:49.996Z</time></trkpt><trkpt lat="41.2846033" lon="15.55393"><ele>168.0</ele><time>2026-04-19T05:58:50.996Z</time></trkpt><trkpt lat="41.2847717" lon="15.5539367"><ele>168.0</ele><time>2026-04-19T05:58:51.996Z</time></trkpt><trkpt lat="41.28494" lon="15.5539367"><ele>168.0</ele><time>2026-04-19T05:58:52.996Z</time></trkpt><trkpt lat="41.2851133" lon="15.553935"><ele>168.0</ele><time>2026-04-19T05:58:53.996Z</time></trkpt><trkpt lat="41.2852867" lon="15.5539333"><ele>168.0</ele><time>2026-04-19T05:58:54.996Z</time></trkpt><trkpt lat="41.2854617" lon="15.5539333"><ele>168.0</ele><time>2026-04-19T05:58:55.996Z</time></trkpt><trkpt lat="41.28564" lon="15.553935"><ele>167.33333333333334</ele><time>2026-04-19T05:58:56.996Z</time></trkpt><trkpt lat="41.2858167" lon="15.553935"><ele>166.66666666666669</ele><time>2026-04-19T05:58:57.996Z</time></trkpt><trkpt lat="41.285995" lon="15.553935"><ele>166.0</ele><time>2026-04-19T05:58:58.996Z</time></trkpt><trkpt lat="41.286175" lon="15.5539333"><ele>166.0</ele><time>2026-04-19T05:58:59.996Z</time></trkpt><trkpt lat="41.2863567" lon="15.5539333"><ele>166.0</ele><time>2026-04-19T05:59:00.996Z</time></trkpt><trkpt lat="41.2865383" lon="15.5539317"><ele>166.0</ele><time>2026-04-19T05:59:01.996Z</time></trkpt><trkpt lat="41.2867183" lon="15.55393"><ele>166.33333333333334</ele><time>2026-04-19T05:59:02.996Z</time></trkpt><trkpt lat="41.2869" lon="15.5539283"><ele>166.66666666666666</ele><time>2026-04-19T05:59:03.996Z</time></trkpt><trkpt lat="41.2870817" lon="15.5539283"><ele>167.0</ele><time>2026-04-19T05:59:04.996Z</time></trkpt><trkpt lat="41.287265" lon="15.55393"><ele>168.0</ele><time>2026-04-19T05:59:05.996Z</time></trkpt><trkpt lat="41.2874467" lon="15.5539317"><ele>169.0</ele><time>2026-04-19T05:59:06.996Z</time></trkpt><trkpt lat="41.2876283" lon="15.5539317"><ele>170.0</ele><time>2026-04-19T05:59:07.996Z</time></trkpt><trkpt lat="41.2878117" lon="15.5539283"><ele>170.0</ele><time>2026-04-19T05:59:08.996Z</time></trkpt><trkpt lat="41.2879933" lon="15.5539283"><ele>170.0</ele><time>2026-04-19T05:59:09.997Z</time></trkpt><trkpt lat="41.288175" lon="15.5539267"><ele>170.0</ele><time>2026-04-19T05:59:10.996Z</time></trkpt><trkpt lat="41.2883583" lon="15.553925"><ele>169.33333333333331</ele><time>2026-04-19T05:59:11.996Z</time></trkpt><trkpt lat="41.2885417" lon="15.553925"><ele>168.66666666666666</ele><time>2026-04-19T05:59:12.996Z</time></trkpt><trkpt lat="41.288725" lon="15.5539267"><ele>168.0</ele><time>2026-04-19T05:59:13.997Z</time></trkpt><trkpt lat="41.2889083" lon="15.5539283"><ele>168.33333333333334</ele><time>2026-04-19T05:59:14.996Z</time></trkpt><trkpt lat="41.28909" lon="15.5539283"><ele>168.66666666666669</ele><time>2026-04-19T05:59:15.996Z</time></trkpt><trkpt lat="41.2892733" lon="15.5539267"><ele>169.0</ele><time>2026-04-19T05:59:16.996Z</time></trkpt><trkpt lat="41.289455" lon="15.553925"><ele>169.0</ele><time>2026-04-19T05:59:17.996Z</time></trkpt><trkpt lat="41.2896367" lon="15.5539217"><ele>169.0</ele><time>2026-04-19T05:59:18.996Z</time></trkpt><trkpt lat="41.289815" lon="15.5539217"><ele>169.0</ele><time>2026-04-19T05:59:19.996Z</time></trkpt><trkpt lat="41.289995" lon="15.553925"><ele>169.0</ele><time>2026-04-19T05:59:20.996Z</time></trkpt><trkpt lat="41.2901733" lon="15.5539267"><ele>169.0</ele><time>2026-04-19T05:59:21.996Z</time></trkpt><trkpt lat="41.29035" lon="15.5539283"><ele>169.0</ele><time>2026-04-19T05:59:22.996Z</time></trkpt><trkpt lat="41.2905267" lon="15.5539317"><ele>169.66666666666669</ele><time>2026-04-19T05:59:23.996Z</time></trkpt><trkpt lat="41.290705" lon="15.5539317"><ele>170.33333333333334</ele><time>2026-04-19T05:59:24.996Z</time></trkpt><trkpt lat="41.290885" lon="15.5539333"><ele>171.0</ele><time>2026-04-19T05:59:25.996Z</time></trkpt><trkpt lat="41.291065" lon="15.5539367"><ele>171.0</ele><time>2026-04-19T05:59:26.997Z</time></trkpt><trkpt lat="41.291245" lon="15.55394"><ele>171.0</ele><time>2026-04-19T05:59:27.996Z</time></trkpt><trkpt lat="41.2914267" lon="15.5539433"><ele>171.0</ele><time>2026-04-19T05:59:28.996Z</time></trkpt><trkpt lat="41.29161" lon="15.5539483"><ele>170.66666666666666</ele><time>2026-04-19T05:59:29.996Z</time></trkpt><trkpt lat="41.2917917" lon="15.5539533"><ele>170.33333333333331</ele><time>2026-04-19T05:59:30.996Z</time></trkpt><trkpt lat="41.291975" lon="15.5539583"><ele>170.0</ele><time>2026-04-19T05:59:31.996Z</time></trkpt><trkpt lat="41.2921583" lon="15.553965"><ele>169.66666666666666</ele><time>2026-04-19T05:59:32.996Z</time></trkpt><trkpt lat="41.292345" lon="15.55397"><ele>169.33333333333334</ele><time>2026-04-19T05:59:33.996Z</time></trkpt><trkpt lat="41.29253" lon="15.5539733"><ele>169.0</ele><time>2026-04-19T05:59:34.996Z</time></trkpt><trkpt lat="41.2927133" lon="15.5539783"><ele>169.0</ele><time>2026-04-19T05:59:35.996Z</time></trkpt><trkpt lat="41.2928967" lon="15.553985"><ele>169.0</ele><time>2026-04-19T05:59:36.996Z</time></trkpt><trkpt lat="41.2930767" lon="15.5539933"><ele>169.0</ele><time>2026-04-19T05:59:37.996Z</time></trkpt><trkpt lat="41.293255" lon="15.554005"><ele>169.0</ele><time>2026-04-19T05:59:38.997Z</time></trkpt><trkpt lat="41.2934333" lon="15.554015"><ele>169.0</ele><time>2026-04-19T05:59:39.997Z</time></trkpt><trkpt lat="41.29361" lon="15.554025"><ele>169.0</ele><time>2026-04-19T05:59:40.996Z</time></trkpt><trkpt lat="41.2937833" lon="15.5540317"><ele>169.0</ele><time>2026-04-19T05:59:41.996Z</time></trkpt><trkpt lat="41.2939517" lon="15.5540417"><ele>169.0</ele><time>2026-04-19T05:59:42.996Z</time></trkpt><trkpt lat="41.2941217" lon="15.55405"><ele>169.0</ele><time>2026-04-19T05:59:43.996Z</time></trkpt><trkpt lat="41.2942883" lon="15.5540617"><ele>169.0</ele><time>2026-04-19T05:59:44.997Z</time></trkpt><trkpt lat="41.29446" lon="15.5540717"><ele>169.0</ele><time>2026-04-19T05:59:45.997Z</time></trkpt><trkpt lat="41.29463" lon="15.5540833"><ele>169.0</ele><time>2026-04-19T05:59:46.996Z</time></trkpt><trkpt lat="41.2948" lon="15.554095"><ele>168.66666666666669</ele><time>2026-04-19T05:59:47.997Z</time></trkpt><trkpt lat="41.29497" lon="15.55411"><ele>168.33333333333334</ele><time>2026-04-19T05:59:48.996Z</time></trkpt><trkpt lat="41.2951417" lon="15.554125"><ele>168.0</ele><time>2026-04-19T05:59:49.996Z</time></trkpt><trkpt lat="41.2953117" lon="15.5541417"><ele>168.0</ele><time>2026-04-19T05:59:50.996Z</time></trkpt><trkpt lat="41.2954817" lon="15.554155"><ele>168.0</ele><time>2026-04-19T05:59:51.996Z</time></trkpt><trkpt lat="41.29565" lon="15.5541667"><ele>168.0</ele><time>2026-04-19T05:59:52.996Z</time></trkpt><trkpt lat="41.2958217" lon="15.5541783"><ele>166.66666666666666</ele><time>2026-04-19T05:59:53.996Z</time></trkpt><trkpt lat="41.2959933" lon="15.5541917"><ele>165.33333333333331</ele><time>2026-04-19T05:59:54.996Z</time></trkpt><trkpt lat="41.296165" lon="15.5542067"><ele>164.0</ele><time>2026-04-19T05:59:55.996Z</time></trkpt><trkpt lat="41.29634" lon="15.5542233"><ele>161.66666666666666</ele><time>2026-04-19T05:59:56.997Z</time></trkpt><trkpt lat="41.296515" lon="15.55424"><ele>159.33333333333334</ele><time>2026-04-19T05:59:57.996Z</time></trkpt><trkpt lat="41.2966883" lon="15.55426"><ele>157.0</ele><time>2026-04-19T05:59:58.996Z</time></trkpt><trkpt lat="41.2968617" lon="15.5542783"><ele>157.0</ele><time>2026-04-19T05:59:59.997Z</time></trkpt><trkpt lat="41.2970367" lon="15.5542967"><ele>157.0</ele><time>2026-04-19T06:00:00.996Z</time></trkpt><trkpt lat="41.2972083" lon="15.554315"><ele>157.0</ele><time>2026-04-19T06:00:01.996Z</time></trkpt><trkpt lat="41.2973817" lon="15.5543367"><ele>156.33333333333334</ele><time>2026-04-19T06:00:02.996Z</time></trkpt><trkpt lat="41.2975517" lon="15.554355"><ele>155.66666666666666</ele><time>2026-04-19T06:00:03.996Z</time></trkpt><trkpt lat="41.2977217" lon="15.5543733"><ele>155.0</ele><time>2026-04-19T06:00:04.996Z</time></trkpt><trkpt lat="41.2978917" lon="15.554395"><ele>155.0</ele><time>2026-04-19T06:00:05.996Z</time></trkpt><trkpt lat="41.29806" lon="15.5544133"><ele>155.0</ele><time>2026-04-19T06:00:06.996Z</time></trkpt><trkpt lat="41.2982283" lon="15.554435"><ele>155.0</ele><time>2026-04-19T06:00:07.996Z</time></trkpt><trkpt lat="41.2983967" lon="15.5544567"><ele>155.0</ele><time>2026-04-19T06:00:08.996Z</time></trkpt><trkpt lat="41.298565" lon="15.5544783"><ele>155.0</ele><time>2026-04-19T06:00:09.996Z</time></trkpt><trkpt lat="41.298735" lon="15.5545"><ele>155.0</ele><time>2026-04-19T06:00:10.996Z</time></trkpt><trkpt lat="41.298905" lon="15.5545233"><ele>155.0</ele><time>2026-04-19T06:00:11.996Z</time></trkpt><trkpt lat="41.2990767" lon="15.5545483"><ele>155.0</ele><time>2026-04-19T06:00:12.996Z</time></trkpt><trkpt lat="41.29925" lon="15.5545733"><ele>155.0</ele><time>2026-04-19T06:00:13.996Z</time></trkpt><trkpt lat="41.2994283" lon="15.5545967"><ele>155.0</ele><time>2026-04-19T06:00:14.996Z</time></trkpt><trkpt lat="41.2996067" lon="15.55462"><ele>155.0</ele><time>2026-04-19T06:00:15.996Z</time></trkpt><trkpt lat="41.2997883" lon="15.554645"><ele>155.0</ele><time>2026-04-19T06:00:16.996Z</time></trkpt><trkpt lat="41.2999717" lon="15.5546717"><ele>152.66666666666666</ele><time>2026-04-19T06:00:17.997Z</time></trkpt><trkpt lat="41.3001533" lon="15.5546983"><ele>150.33333333333334</ele><time>2026-04-19T06:00:18.996Z</time></trkpt><trkpt lat="41.3003333" lon="15.554725"><ele>148.0</ele><time>2026-04-19T06:00:19.996Z</time></trkpt><trkpt lat="41.3005133" lon="15.5547517"><ele>147.66666666666669</ele><time>2026-04-19T06:00:20.996Z</time></trkpt><trkpt lat="41.3006933" lon="15.55478"><ele>147.33333333333334</ele><time>2026-04-19T06:00:21.996Z</time></trkpt><trkpt lat="41.3008717" lon="15.5548083"><ele>147.0</ele><time>2026-04-19T06:00:22.996Z</time></trkpt><trkpt lat="41.3010483" lon="15.5548367"><ele>147.0</ele><time>2026-04-19T06:00:23.996Z</time></trkpt><trkpt lat="41.3012233" lon="15.5548667"><ele>147.0</ele><time>2026-04-19T06:00:24.996Z</time></trkpt><trkpt lat="41.3013967" lon="15.554895"><ele>147.0</ele><time>2026-04-19T06:00:25.996Z</time></trkpt><trkpt lat="41.30157" lon="15.5549233"><ele>146.66666666666666</ele><time>2026-04-19T06:00:26.996Z</time></trkpt><trkpt lat="41.3017417" lon="15.5549533"><ele>146.33333333333331</ele><time>2026-04-19T06:00:27.997Z</time></trkpt><trkpt lat="41.301915" lon="15.5549833"><ele>146.0</ele><time>2026-04-19T06:00:28.996Z</time></trkpt><trkpt lat="41.3020867" lon="15.5550133"><ele>145.66666666666666</ele><time>2026-04-19T06:00:29.996Z</time></trkpt><trkpt lat="41.3022583" lon="15.55504"><ele>145.33333333333334</ele><time>2026-04-19T06:00:30.996Z</time></trkpt><trkpt lat="41.3024283" lon="15.5550717"><ele>145.0</ele><time>2026-04-19T06:00:31.996Z</time></trkpt><trkpt lat="41.3025983" lon="15.555105"><ele>145.0</ele><time>2026-04-19T06:00:32.996Z</time></trkpt><trkpt lat="41.3027683" lon="15.5551383"><ele>145.0</ele><time>2026-04-19T06:00:33.996Z</time></trkpt><trkpt lat="41.30294" lon="15.55517"><ele>145.0</ele><time>2026-04-19T06:00:34.997Z</time></trkpt><trkpt lat="41.30311" lon="15.5552033"><ele>144.66666666666669</ele><time>2026-04-19T06:00:35.996Z</time></trkpt><trkpt lat="41.30328" lon="15.5552383"><ele>144.33333333333334</ele><time>2026-04-19T06:00:36.996Z</time></trkpt><trkpt lat="41.30345" lon="15.5552733"><ele>144.0</ele><time>2026-04-19T06:00:37.996Z</time></trkpt><trkpt lat="41.3036217" lon="15.55531"><ele>144.0</ele><time>2026-04-19T06:00:38.996Z</time></trkpt><trkpt lat="41.3037917" lon="15.5553467"><ele>144.0</ele><time>2026-04-19T06:00:39.997Z</time></trkpt><trkpt lat="41.3039633" lon="15.555385"><ele>144.0</ele><time>2026-04-19T06:00:40.997Z</time></trkpt><trkpt lat="41.3041333" lon="15.5554217"><ele>143.33333333333334</ele><time>2026-04-19T06:00:41.996Z</time></trkpt><trkpt lat="41.304305" lon="15.555455"><ele>142.66666666666669</ele><time>2026-04-19T06:00:42.996Z</time></trkpt><trkpt lat="41.3044783" lon="15.55549"><ele>142.0</ele><time>2026-04-19T06:00:43.996Z</time></trkpt><trkpt lat="41.30465" lon="15.5555267"><ele>143.0</ele><time>2026-04-19T06:00:44.996Z</time></trkpt><trkpt lat="41.3048217" lon="15.5555633"><ele>144.0</ele><time>2026-04-19T06:00:45.996Z</time></trkpt><trkpt lat="41.3049917" lon="15.5556"><ele>145.0</ele><time>2026-04-19T06:00:46.996Z</time></trkpt><trkpt lat="41.3051633" lon="15.5556383"><ele>145.0</ele><time>2026-04-19T06:00:47.996Z</time></trkpt><trkpt lat="41.305335" lon="15.5556783"><ele>145.0</ele><time>2026-04-19T06:00:48.996Z</time></trkpt><trkpt lat="41.3055083" lon="15.55572"><ele>145.0</ele><time>2026-04-19T06:00:49.996Z</time></trkpt><trkpt lat="41.3056783" lon="15.55576"><ele>144.66666666666669</ele><time>2026-04-19T06:00:50.997Z</time></trkpt><trkpt lat="41.30585" lon="15.5558"><ele>144.33333333333334</ele><time>2026-04-19T06:00:51.996Z</time></trkpt><trkpt lat="41.3060233" lon="15.5558433"><ele>144.0</ele><time>2026-04-19T06:00:52.997Z</time></trkpt><trkpt lat="41.3061967" lon="15.5558817"><ele>144.0</ele><time>2026-04-19T06:00:53.996Z</time></trkpt><trkpt lat="41.306375" lon="15.5559233"><ele>144.0</ele><time>2026-04-19T06:00:54.996Z</time></trkpt><trkpt lat="41.3065517" lon="15.5559633"><ele>144.0</ele><time>2026-04-19T06:00:55.996Z</time></trkpt><trkpt lat="41.3067283" lon="15.5560033"><ele>144.66666666666666</ele><time>2026-04-19T06:00:56.996Z</time></trkpt><trkpt lat="41.3069033" lon="15.5560467"><ele>145.33333333333331</ele><time>2026-04-19T06:00:57.996Z</time></trkpt><trkpt lat="41.3070783" lon="15.55609"><ele>146.0</ele><time>2026-04-19T06:00:58.996Z</time></trkpt><trkpt lat="41.30725" lon="15.5561333"><ele>147.66666666666666</ele><time>2026-04-19T06:00:59.996Z</time></trkpt><trkpt lat="41.3074233" lon="15.5561733"><ele>149.33333333333334</ele><time>2026-04-19T06:01:00.996Z</time></trkpt><trkpt lat="41.307595" lon="15.5562133"><ele>151.0</ele><time>2026-04-19T06:01:01.996Z</time></trkpt><trkpt lat="41.307765" lon="15.556255"><ele>151.33333333333334</ele><time>2026-04-19T06:01:02.997Z</time></trkpt><trkpt lat="41.307935" lon="15.5562967"><ele>151.66666666666666</ele><time>2026-04-19T06:01:03.996Z</time></trkpt><trkpt lat="41.3081067" lon="15.556335"><ele>152.0</ele><time>2026-04-19T06:01:04.996Z</time></trkpt><trkpt lat="41.3082767" lon="15.5563733"><ele>153.66666666666666</ele><time>2026-04-19T06:01:05.996Z</time></trkpt><trkpt lat="41.308445" lon="15.556415"><ele>155.33333333333334</ele><time>2026-04-19T06:01:06.996Z</time></trkpt><trkpt lat="41.308615" lon="15.5564583"><ele>157.0</ele><time>2026-04-19T06:01:07.996Z</time></trkpt><trkpt lat="41.308785" lon="15.5565033"><ele>158.0</ele><time>2026-04-19T06:01:08.997Z</time></trkpt><trkpt lat="41.308955" lon="15.5565417"><ele>159.0</ele><time>2026-04-19T06:01:09.997Z</time></trkpt><trkpt lat="41.309125" lon="15.5565817"><ele>160.0</ele><time>2026-04-19T06:01:10.997Z</time></trkpt><trkpt lat="41.3092967" lon="15.5566217"><ele>160.0</ele><time>2026-04-19T06:01:11.997Z</time></trkpt><trkpt lat="41.3094633" lon="15.55666"><ele>160.0</ele><time>2026-04-19T06:01:12.997Z</time></trkpt><trkpt lat="41.3096317" lon="15.5566983"><ele>160.0</ele><time>2026-04-19T06:01:13.996Z</time></trkpt><trkpt lat="41.3097983" lon="15.5567367"><ele>160.66666666666669</ele><time>2026-04-19T06:01:14.996Z</time></trkpt><trkpt lat="41.3099667" lon="15.5567767"><ele>161.33333333333334</ele><time>2026-04-19T06:01:15.996Z</time></trkpt><trkpt lat="41.310135" lon="15.55682"><ele>162.0</ele><time>2026-04-19T06:01:16.997Z</time></trkpt><trkpt lat="41.3103067" lon="15.5568633"><ele>162.0</ele><time>2026-04-19T06:01:17.996Z</time></trkpt><trkpt lat="41.310475" lon="15.556905"><ele>162.0</ele><time>2026-04-19T06:01:18.996Z</time></trkpt><trkpt lat="41.310645" lon="15.5569417"><ele>162.0</ele><time>2026-04-19T06:01:19.996Z</time></trkpt><trkpt lat="41.3108117" lon="15.55698"><ele>162.0</ele><time>2026-04-19T06:01:20.996Z</time></trkpt><trkpt lat="41.31098" lon="15.55702"><ele>162.0</ele><time>2026-04-19T06:01:21.996Z</time></trkpt><trkpt lat="41.3111483" lon="15.55706"><ele>162.0</ele><time>2026-04-19T06:01:22.996Z</time></trkpt><trkpt lat="41.3113183" lon="15.5570983"><ele>162.33333333333334</ele><time>2026-04-19T06:01:23.996Z</time></trkpt><trkpt lat="41.31149" lon="15.5571383"><ele>162.66666666666669</ele><time>2026-04-19T06:01:24.996Z</time></trkpt><trkpt lat="41.31166" lon="15.5571767"><ele>163.0</ele><time>2026-04-19T06:01:25.996Z</time></trkpt><trkpt lat="41.3118317" lon="15.5572183"><ele>163.0</ele><time>2026-04-19T06:01:26.996Z</time></trkpt><trkpt lat="41.3120033" lon="15.55726"><ele>163.0</ele><time>2026-04-19T06:01:27.996Z</time></trkpt><trkpt lat="41.312175" lon="15.5573033"><ele>163.0</ele><time>2026-04-19T06:01:28.997Z</time></trkpt><trkpt lat="41.312345" lon="15.5573433"><ele>162.66666666666669</ele><time>2026-04-19T06:01:29.997Z</time></trkpt><trkpt lat="41.3125117" lon="15.5573833"><ele>162.33333333333334</ele><time>2026-04-19T06:01:30.996Z</time></trkpt><trkpt lat="41.3126783" lon="15.5574217"><ele>162.0</ele><time>2026-04-19T06:01:31.997Z</time></trkpt><trkpt lat="41.3128433" lon="15.55746"><ele>162.0</ele><time>2026-04-19T06:01:32.996Z</time></trkpt><trkpt lat="41.3130067" lon="15.5575017"><ele>162.0</ele><time>2026-04-19T06:01:33.996Z</time></trkpt><trkpt lat="41.3131717" lon="15.5575433"><ele>162.0</ele><time>2026-04-19T06:01:34.996Z</time></trkpt><trkpt lat="41.313335" lon="15.557585"><ele>161.66666666666666</ele><time>2026-04-19T06:01:35.996Z</time></trkpt><trkpt lat="41.3135" lon="15.557625"><ele>161.33333333333331</ele><time>2026-04-19T06:01:36.996Z</time></trkpt><trkpt lat="41.3136633" lon="15.557665"><ele>161.0</ele><time>2026-04-19T06:01:37.997Z</time></trkpt><trkpt lat="41.3138283" lon="15.5577017"><ele>161.66666666666666</ele><time>2026-04-19T06:01:38.997Z</time></trkpt><trkpt lat="41.3139933" lon="15.5577383"><ele>162.33333333333334</ele><time>2026-04-19T06:01:39.996Z</time></trkpt><trkpt lat="41.314155" lon="15.5577767"><ele>163.0</ele><time>2026-04-19T06:01:40.996Z</time></trkpt><trkpt lat="41.3143167" lon="15.5578167"><ele>163.0</ele><time>2026-04-19T06:01:41.997Z</time></trkpt><trkpt lat="41.3144833" lon="15.5578583"><ele>163.0</ele><time>2026-04-19T06:01:42.996Z</time></trkpt><trkpt lat="41.3146467" lon="15.5578983"><ele>163.0</ele><time>2026-04-19T06:01:43.996Z</time></trkpt><trkpt lat="41.3148117" lon="15.557935"><ele>162.0</ele><time>2026-04-19T06:01:44.996Z</time></trkpt><trkpt lat="41.314975" lon="15.5579767"><ele>161.0</ele><time>2026-04-19T06:01:45.996Z</time></trkpt><trkpt lat="41.315135" lon="15.5580167"><ele>160.0</ele><time>2026-04-19T06:01:46.996Z</time></trkpt><trkpt lat="41.3153017" lon="15.5580567"><ele>160.0</ele><time>2026-04-19T06:01:47.996Z</time></trkpt><trkpt lat="41.3154683" lon="15.5580933"><ele>160.0</ele><time>2026-04-19T06:01:48.996Z</time></trkpt><trkpt lat="41.3156367" lon="15.5581333"><ele>160.0</ele><time>2026-04-19T06:01:49.996Z</time></trkpt><trkpt lat="41.3158033" lon="15.5581733"><ele>158.66666666666669</ele><time>2026-04-19T06:01:50.996Z</time></trkpt><trkpt lat="41.31597" lon="15.5582133"><ele>157.33333333333334</ele><time>2026-04-19T06:01:51.996Z</time></trkpt><trkpt lat="41.3161383" lon="15.5582533"><ele>156.0</ele><time>2026-04-19T06:01:52.996Z</time></trkpt><trkpt lat="41.3163067" lon="15.5582933"><ele>156.66666666666666</ele><time>2026-04-19T06:01:53.997Z</time></trkpt><trkpt lat="41.3164767" lon="15.55833"><ele>157.33333333333331</ele><time>2026-04-19T06:01:54.996Z</time></trkpt><trkpt lat="41.316645" lon="15.5583683"><ele>158.0</ele><time>2026-04-19T06:01:55.996Z</time></trkpt><trkpt lat="41.3168117" lon="15.5584067"><ele>158.0</ele><time>2026-04-19T06:01:56.996Z</time></trkpt><trkpt lat="41.31698" lon="15.5584467"><ele>158.0</ele><time>2026-04-19T06:01:57.996Z</time></trkpt><trkpt lat="41.3171483" lon="15.5584867"><ele>158.0</ele><time>2026-04-19T06:01:58.996Z</time></trkpt><trkpt lat="41.317315" lon="15.5585267"><ele>158.66666666666666</ele><time>2026-04-19T06:01:59.996Z</time></trkpt><trkpt lat="41.3174817" lon="15.5585683"><ele>159.33333333333334</ele><time>2026-04-19T06:02:00.996Z</time></trkpt><trkpt lat="41.3176467" lon="15.5586067"><ele>160.0</ele><time>2026-04-19T06:02:01.997Z</time></trkpt><trkpt lat="41.3178117" lon="15.5586467"><ele>160.0</ele><time>2026-04-19T06:02:02.996Z</time></trkpt><trkpt lat="41.3179783" lon="15.5586883"><ele>160.0</ele><time>2026-04-19T06:02:03.996Z</time></trkpt><trkpt lat="41.318145" lon="15.55873"><ele>160.0</ele><time>2026-04-19T06:02:04.996Z</time></trkpt><trkpt lat="41.318315" lon="15.5587717"><ele>160.0</ele><time>2026-04-19T06:02:05.996Z</time></trkpt><trkpt lat="41.318485" lon="15.5588117"><ele>160.0</ele><time>2026-04-19T06:02:06.996Z</time></trkpt><trkpt lat="41.3186583" lon="15.55885"><ele>160.0</ele><time>2026-04-19T06:02:07.996Z</time></trkpt><trkpt lat="41.3188333" lon="15.5588917"><ele>160.0</ele><time>2026-04-19T06:02:08.996Z</time></trkpt><trkpt lat="41.3190083" lon="15.5589367"><ele>160.0</ele><time>2026-04-19T06:02:09.997Z</time></trkpt><trkpt lat="41.319185" lon="15.558975"><ele>160.0</ele><time>2026-04-19T06:02:10.996Z</time></trkpt><trkpt lat="41.319365" lon="15.5590117"><ele>160.0</ele><time>2026-04-19T06:02:11.997Z</time></trkpt><trkpt lat="41.3195467" lon="15.559055"><ele>160.0</ele><time>2026-04-19T06:02:12.996Z</time></trkpt><trkpt lat="41.31973" lon="15.5590983"><ele>160.0</ele><time>2026-04-19T06:02:13.996Z</time></trkpt><trkpt lat="41.319915" lon="15.5591383"><ele>159.33333333333334</ele><time>2026-04-19T06:02:14.996Z</time></trkpt><trkpt lat="41.3201" lon="15.55918"><ele>158.66666666666666</ele><time>2026-04-19T06:02:15.996Z</time></trkpt><trkpt lat="41.3202883" lon="15.5592217"><ele>158.0</ele><time>2026-04-19T06:02:16.996Z</time></trkpt><trkpt lat="41.320475" lon="15.5592617"><ele>157.66666666666666</ele><time>2026-04-19T06:02:17.996Z</time></trkpt><trkpt lat="41.320665" lon="15.5593033"><ele>157.33333333333334</ele><time>2026-04-19T06:02:18.996Z</time></trkpt><trkpt lat="41.320855" lon="15.559345"><ele>157.0</ele><time>2026-04-19T06:02:19.996Z</time></trkpt><trkpt lat="41.3210433" lon="15.5593867"><ele>157.0</ele><time>2026-04-19T06:02:20.996Z</time></trkpt><trkpt lat="41.3212317" lon="15.5594283"><ele>157.0</ele><time>2026-04-19T06:02:21.996Z</time></trkpt><trkpt lat="41.32142" lon="15.5594667"><ele>157.0</ele><time>2026-04-19T06:02:22.996Z</time></trkpt><trkpt lat="41.3216067" lon="15.559505"><ele>156.0</ele><time>2026-04-19T06:02:23.997Z</time></trkpt><trkpt lat="41.3217917" lon="15.5595417"><ele>155.0</ele><time>2026-04-19T06:02:24.997Z</time></trkpt><trkpt lat="41.3219783" lon="15.5595767"><ele>154.0</ele><time>2026-04-19T06:02:25.997Z</time></trkpt><trkpt lat="41.322165" lon="15.5596133"><ele>153.0</ele><time>2026-04-19T06:02:26.996Z</time></trkpt><trkpt lat="41.3223517" lon="15.5596467"><ele>152.0</ele><time>2026-04-19T06:02:27.997Z</time></trkpt><trkpt lat="41.3225383" lon="15.5596817"><ele>151.0</ele><time>2026-04-19T06:02:28.997Z</time></trkpt><trkpt lat="41.3227267" lon="15.559715"><ele>151.0</ele><time>2026-04-19T06:02:29.997Z</time></trkpt><trkpt lat="41.3229133" lon="15.55975"><ele>151.0</ele><time>2026-04-19T06:02:30.996Z</time></trkpt><trkpt lat="41.3231017" lon="15.559785"><ele>151.0</ele><time>2026-04-19T06:02:31.996Z</time></trkpt><trkpt lat="41.3232867" lon="15.5598167"><ele>151.0</ele><time>2026-04-19T06:02:32.996Z</time></trkpt><trkpt lat="41.32347" lon="15.5598467"><ele>151.0</ele><time>2026-04-19T06:02:33.996Z</time></trkpt><trkpt lat="41.32365" lon="15.5598767"><ele>151.0</ele><time>2026-04-19T06:02:34.996Z</time></trkpt><trkpt lat="41.32383" lon="15.5599067"><ele>150.66666666666669</ele><time>2026-04-19T06:02:35.996Z</time></trkpt><trkpt lat="41.32401" lon="15.5599383"><ele>150.33333333333334</ele><time>2026-04-19T06:02:36.996Z</time></trkpt><trkpt lat="41.32419" lon="15.5599717"><ele>150.0</ele><time>2026-04-19T06:02:37.996Z</time></trkpt><trkpt lat="41.3243683" lon="15.5600033"><ele>150.0</ele><time>2026-04-19T06:02:38.997Z</time></trkpt><trkpt lat="41.324545" lon="15.560035"><ele>150.0</ele><time>2026-04-19T06:02:39.996Z</time></trkpt><trkpt lat="41.32472" lon="15.5600667"><ele>150.0</ele><time>2026-04-19T06:02:40.996Z</time></trkpt><trkpt lat="41.324895" lon="15.560095"><ele>148.66666666666666</ele><time>2026-04-19T06:02:41.996Z</time></trkpt><trkpt lat="41.3250683" lon="15.560125"><ele>147.33333333333331</ele><time>2026-04-19T06:02:42.997Z</time></trkpt><trkpt lat="41.3252433" lon="15.5601533"><ele>146.0</ele><time>2026-04-19T06:02:43.996Z</time></trkpt><trkpt lat="41.3254167" lon="15.5601817"><ele>146.0</ele><time>2026-04-19T06:02:44.996Z</time></trkpt><trkpt lat="41.32559" lon="15.5602083"><ele>146.0</ele><time>2026-04-19T06:02:45.996Z</time></trkpt><trkpt lat="41.3257633" lon="15.56024"><ele>146.0</ele><time>2026-04-19T06:02:46.996Z</time></trkpt><trkpt lat="41.3259367" lon="15.56027"><ele>146.0</ele><time>2026-04-19T06:02:47.996Z</time></trkpt><trkpt lat="41.32611" lon="15.5603"><ele>146.0</ele><time>2026-04-19T06:02:48.997Z</time></trkpt><trkpt lat="41.3262817" lon="15.5603283"><ele>146.0</ele><time>2026-04-19T06:02:49.997Z</time></trkpt><trkpt lat="41.3264517" lon="15.5603567"><ele>144.66666666666666</ele><time>2026-04-19T06:02:50.997Z</time></trkpt><trkpt lat="41.3266233" lon="15.5603867"><ele>143.33333333333334</ele><time>2026-04-19T06:02:51.997Z</time></trkpt><trkpt lat="41.3267967" lon="15.560415"><ele>142.0</ele><time>2026-04-19T06:02:52.997Z</time></trkpt><trkpt lat="41.3269667" lon="15.5604433"><ele>142.0</ele><time>2026-04-19T06:02:53.996Z</time></trkpt><trkpt lat="41.3271383" lon="15.5604717"><ele>142.0</ele><time>2026-04-19T06:02:54.996Z</time></trkpt><trkpt lat="41.32731" lon="15.5604983"><ele>142.0</ele><time>2026-04-19T06:02:55.997Z</time></trkpt><trkpt lat="41.3274833" lon="15.5605267"><ele>142.0</ele><time>2026-04-19T06:02:56.996Z</time></trkpt><trkpt lat="41.327655" lon="15.5605583"><ele>142.0</ele><time>2026-04-19T06:02:57.996Z</time></trkpt><trkpt lat="41.3278283" lon="15.5605917"><ele>142.0</ele><time>2026-04-19T06:02:58.996Z</time></trkpt><trkpt lat="41.3280017" lon="15.56062"><ele>142.0</ele><time>2026-04-19T06:02:59.996Z</time></trkpt><trkpt lat="41.328175" lon="15.5606467"><ele>142.0</ele><time>2026-04-19T06:03:00.996Z</time></trkpt><trkpt lat="41.3283517" lon="15.560675"><ele>142.0</ele><time>2026-04-19T06:03:01.996Z</time></trkpt><trkpt lat="41.3285283" lon="15.560705"><ele>142.0</ele><time>2026-04-19T06:03:02.996Z</time></trkpt><trkpt lat="41.3287067" lon="15.560735"><ele>142.0</ele><time>2026-04-19T06:03:03.996Z</time></trkpt><trkpt lat="41.328885" lon="15.560765"><ele>142.0</ele><time>2026-04-19T06:03:04.996Z</time></trkpt><trkpt lat="41.3290633" lon="15.560795"><ele>141.0</ele><time>2026-04-19T06:03:05.996Z</time></trkpt><trkpt lat="41.3292417" lon="15.5608267"><ele>140.0</ele><time>2026-04-19T06:03:06.996Z</time></trkpt><trkpt lat="41.3294183" lon="15.5608567"><ele>139.0</ele><time>2026-04-19T06:03:07.996Z</time></trkpt><trkpt lat="41.3295967" lon="15.5608867"><ele>139.0</ele><time>2026-04-19T06:03:08.996Z</time></trkpt><trkpt lat="41.329775" lon="15.5609183"><ele>139.0</ele><time>2026-04-19T06:03:09.996Z</time></trkpt><trkpt lat="41.329955" lon="15.5609517"><ele>139.0</ele><time>2026-04-19T06:03:10.996Z</time></trkpt><trkpt lat="41.3301317" lon="15.5609833"><ele>139.0</ele><time>2026-04-19T06:03:11.996Z</time></trkpt><trkpt lat="41.3303083" lon="15.5610133"><ele>139.0</ele><time>2026-04-19T06:03:12.996Z</time></trkpt><trkpt lat="41.33048" lon="15.5610417"><ele>139.0</ele><time>2026-04-19T06:03:13.997Z</time></trkpt><trkpt lat="41.3306517" lon="15.5610717"><ele>138.66666666666669</ele><time>2026-04-19T06:03:14.996Z</time></trkpt><trkpt lat="41.330825" lon="15.5611017"><ele>138.33333333333334</ele><time>2026-04-19T06:03:15.996Z</time></trkpt><trkpt lat="41.3309967" lon="15.56113"><ele>138.0</ele><time>2026-04-19T06:03:16.997Z</time></trkpt><trkpt lat="41.33117" lon="15.5611583"><ele>138.0</ele><time>2026-04-19T06:03:17.996Z</time></trkpt><trkpt lat="41.3313417" lon="15.5611883"><ele>138.0</ele><time>2026-04-19T06:03:18.996Z</time></trkpt><trkpt lat="41.3315133" lon="15.5612167"><ele>138.0</ele><time>2026-04-19T06:03:19.997Z</time></trkpt><trkpt lat="41.331685" lon="15.5612467"><ele>137.66666666666666</ele><time>2026-04-19T06:03:20.996Z</time></trkpt><trkpt lat="41.3318567" lon="15.561275"><ele>137.33333333333331</ele><time>2026-04-19T06:03:21.996Z</time></trkpt><trkpt lat="41.3320283" lon="15.561305"><ele>137.0</ele><time>2026-04-19T06:03:22.996Z</time></trkpt><trkpt lat="41.3322" lon="15.5613367"><ele>136.33333333333331</ele><time>2026-04-19T06:03:23.997Z</time></trkpt><trkpt lat="41.3323717" lon="15.5613667"><ele>135.66666666666666</ele><time>2026-04-19T06:03:24.996Z</time></trkpt><trkpt lat="41.3325433" lon="15.5613967"><ele>135.0</ele><time>2026-04-19T06:03:25.996Z</time></trkpt><trkpt lat="41.3327167" lon="15.5614217"><ele>135.0</ele><time>2026-04-19T06:03:26.996Z</time></trkpt><trkpt lat="41.3328917" lon="15.5614483"><ele>135.0</ele><time>2026-04-19T06:03:27.996Z</time></trkpt><trkpt lat="41.333065" lon="15.56148"><ele>135.0</ele><time>2026-04-19T06:03:28.996Z</time></trkpt><trkpt lat="41.3332417" lon="15.5615133"><ele>135.0</ele><time>2026-04-19T06:03:29.997Z</time></trkpt><trkpt lat="41.3334167" lon="15.5615433"><ele>135.0</ele><time>2026-04-19T06:03:30.996Z</time></trkpt><trkpt lat="41.3335933" lon="15.561575"><ele>135.0</ele><time>2026-04-19T06:03:31.996Z</time></trkpt><trkpt lat="41.33377" lon="15.5616067"><ele>134.33333333333334</ele><time>2026-04-19T06:03:32.996Z</time></trkpt><trkpt lat="41.3339483" lon="15.5616367"><ele>133.66666666666669</ele><time>2026-04-19T06:03:33.996Z</time></trkpt><trkpt lat="41.3341283" lon="15.561665"><ele>133.0</ele><time>2026-04-19T06:03:34.996Z</time></trkpt><trkpt lat="41.3343083" lon="15.5616967"><ele>133.0</ele><time>2026-04-19T06:03:35.996Z</time></trkpt><trkpt lat="41.33449" lon="15.561725"><ele>133.0</ele><time>2026-04-19T06:03:36.996Z</time></trkpt><trkpt lat="41.3346733" lon="15.561755"><ele>133.0</ele><time>2026-04-19T06:03:37.997Z</time></trkpt><trkpt lat="41.334855" lon="15.5617817"><ele>132.0</ele><time>2026-04-19T06:03:38.996Z</time></trkpt><trkpt lat="41.33504" lon="15.5618067"><ele>131.0</ele><time>2026-04-19T06:03:39.996Z</time></trkpt><trkpt lat="41.3352233" lon="15.5618367"><ele>130.0</ele><time>2026-04-19T06:03:40.996Z</time></trkpt><trkpt lat="41.3354083" lon="15.56187"><ele>129.0</ele><time>2026-04-19T06:03:41.996Z</time></trkpt><trkpt lat="41.3355917" lon="15.561905"><ele>128.0</ele><time>2026-04-19T06:03:42.997Z</time></trkpt><trkpt lat="41.3357733" lon="15.5619367"><ele>127.0</ele><time>2026-04-19T06:03:43.996Z</time></trkpt><trkpt lat="41.3359533" lon="15.5619683"><ele>127.0</ele><time>2026-04-19T06:03:44.997Z</time></trkpt><trkpt lat="41.336135" lon="15.5619967"><ele>127.0</ele><time>2026-04-19T06:03:45.996Z</time></trkpt><trkpt lat="41.3363133" lon="15.5620233"><ele>127.0</ele><time>2026-04-19T06:03:46.996Z</time></trkpt><trkpt lat="41.3364917" lon="15.562055"><ele>126.0</ele><time>2026-04-19T06:03:47.996Z</time></trkpt><trkpt lat="41.3366683" lon="15.5620867"><ele>125.0</ele><time>2026-04-19T06:03:48.996Z</time></trkpt><trkpt lat="41.3368433" lon="15.5621183"><ele>124.0</ele><time>2026-04-19T06:03:49.996Z</time></trkpt><trkpt lat="41.3370167" lon="15.56215"><ele>124.0</ele><time>2026-04-19T06:03:50.997Z</time></trkpt><trkpt lat="41.3371917" lon="15.5621783"><ele>124.0</ele><time>2026-04-19T06:03:51.997Z</time></trkpt><trkpt lat="41.3373667" lon="15.56221"><ele>124.0</ele><time>2026-04-19T06:03:52.996Z</time></trkpt><trkpt lat="41.3375417" lon="15.56224"><ele>123.66666666666667</ele><time>2026-04-19T06:03:53.996Z</time></trkpt><trkpt lat="41.3377183" lon="15.5622683"><ele>123.33333333333334</ele><time>2026-04-19T06:03:54.996Z</time></trkpt><trkpt lat="41.337895" lon="15.5622967"><ele>123.0</ele><time>2026-04-19T06:03:55.996Z</time></trkpt><trkpt lat="41.3380733" lon="15.562325"><ele>121.66666666666666</ele><time>2026-04-19T06:03:56.996Z</time></trkpt><trkpt lat="41.3382517" lon="15.562355"><ele>120.33333333333333</ele><time>2026-04-19T06:03:57.996Z</time></trkpt><trkpt lat="41.3384317" lon="15.5623867"><ele>119.0</ele><time>2026-04-19T06:03:58.997Z</time></trkpt><trkpt lat="41.33861" lon="15.5624167"><ele>119.0</ele><time>2026-04-19T06:03:59.996Z</time></trkpt><trkpt lat="41.3387917" lon="15.5624467"><ele>119.0</ele><time>2026-04-19T06:04:00.996Z</time></trkpt><trkpt lat="41.33897" lon="15.5624783"><ele>119.0</ele><time>2026-04-19T06:04:01.996Z</time></trkpt><trkpt lat="41.3391483" lon="15.5625083"><ele>117.0</ele><time>2026-04-19T06:04:02.997Z</time></trkpt><trkpt lat="41.339325" lon="15.5625367"><ele>115.0</ele><time>2026-04-19T06:04:03.997Z</time></trkpt><trkpt lat="41.3395017" lon="15.5625633"><ele>113.0</ele><time>2026-04-19T06:04:04.996Z</time></trkpt><trkpt lat="41.3396733" lon="15.56259"><ele>112.33333333333333</ele><time>2026-04-19T06:04:05.996Z</time></trkpt><trkpt lat="41.3398433" lon="15.5626183"><ele>111.66666666666666</ele><time>2026-04-19T06:04:06.996Z</time></trkpt><trkpt lat="41.3400133" lon="15.5626467"><ele>111.0</ele><time>2026-04-19T06:04:07.996Z</time></trkpt><trkpt lat="41.340185" lon="15.5626767"><ele>111.0</ele><time>2026-04-19T06:04:08.996Z</time></trkpt><trkpt lat="41.34036" lon="15.5627067"><ele>111.0</ele><time>2026-04-19T06:04:09.997Z</time></trkpt><trkpt lat="41.340535" lon="15.5627367"><ele>111.0</ele><time>2026-04-19T06:04:10.996Z</time></trkpt><trkpt lat="41.3407117" lon="15.5627667"><ele>110.66666666666666</ele><time>2026-04-19T06:04:11.996Z</time></trkpt><trkpt lat="41.34089" lon="15.5627967"><ele>110.33333333333333</ele><time>2026-04-19T06:04:12.996Z</time></trkpt><trkpt lat="41.3410683" lon="15.5628283"><ele>110.0</ele><time>2026-04-19T06:04:13.996Z</time></trkpt><trkpt lat="41.341245" lon="15.5628583"><ele>109.0</ele><time>2026-04-19T06:04:14.996Z</time></trkpt><trkpt lat="41.3414217" lon="15.56289"><ele>108.0</ele><time>2026-04-19T06:04:15.996Z</time></trkpt><trkpt lat="41.3415983" lon="15.5629217"><ele>107.0</ele><time>2026-04-19T06:04:16.996Z</time></trkpt><trkpt lat="41.3417767" lon="15.5629517"><ele>107.0</ele><time>2026-04-19T06:04:17.996Z</time></trkpt><trkpt lat="41.3419533" lon="15.56298"><ele>107.0</ele><time>2026-04-19T06:04:18.996Z</time></trkpt><trkpt lat="41.34213" lon="15.5630083"><ele>107.0</ele><time>2026-04-19T06:04:19.997Z</time></trkpt><trkpt lat="41.3423083" lon="15.5630367"><ele>107.66666666666666</ele><time>2026-04-19T06:04:20.996Z</time></trkpt><trkpt lat="41.342485" lon="15.5630683"><ele>108.33333333333334</ele><time>2026-04-19T06:04:21.996Z</time></trkpt><trkpt lat="41.3426617" lon="15.5630983"><ele>109.0</ele><time>2026-04-19T06:04:22.997Z</time></trkpt><trkpt lat="41.34284" lon="15.5631283"><ele>109.0</ele><time>2026-04-19T06:04:23.996Z</time></trkpt><trkpt lat="41.3430167" lon="15.5631617"><ele>109.0</ele><time>2026-04-19T06:04:24.996Z</time></trkpt><trkpt lat="41.3431933" lon="15.5631933"><ele>109.0</ele><time>2026-04-19T06:04:25.996Z</time></trkpt><trkpt lat="41.3433717" lon="15.5632217"><ele>109.0</ele><time>2026-04-19T06:04:26.997Z</time></trkpt><trkpt lat="41.34355" lon="15.5632517"><ele>109.0</ele><time>2026-04-19T06:04:27.996Z</time></trkpt><trkpt lat="41.3437283" lon="15.56328"><ele>109.0</ele><time>2026-04-19T06:04:28.996Z</time></trkpt><trkpt lat="41.3439083" lon="15.5633083"><ele>109.33333333333334</ele><time>2026-04-19T06:04:29.996Z</time></trkpt><trkpt lat="41.3440867" lon="15.563335"><ele>109.66666666666666</ele><time>2026-04-19T06:04:30.996Z</time></trkpt><trkpt lat="41.344265" lon="15.5633633"><ele>110.0</ele><time>2026-04-19T06:04:31.996Z</time></trkpt><trkpt lat="41.3444417" lon="15.5633933"><ele>110.0</ele><time>2026-04-19T06:04:32.996Z</time></trkpt><trkpt lat="41.3446183" lon="15.56342"><ele>110.0</ele><time>2026-04-19T06:04:33.996Z</time></trkpt><trkpt lat="41.3447967" lon="15.5634467"><ele>110.0</ele><time>2026-04-19T06:04:34.996Z</time></trkpt><trkpt lat="41.3449717" lon="15.5634733"><ele>110.0</ele><time>2026-04-19T06:04:35.996Z</time></trkpt><trkpt lat="41.3451483" lon="15.5635"><ele>110.0</ele><time>2026-04-19T06:04:36.996Z</time></trkpt><trkpt lat="41.3453233" lon="15.5635267"><ele>110.0</ele><time>2026-04-19T06:04:37.996Z</time></trkpt><trkpt lat="41.3455" lon="15.56355"><ele>109.33333333333333</ele><time>2026-04-19T06:04:38.996Z</time></trkpt><trkpt lat="41.345675" lon="15.5635767"><ele>108.66666666666666</ele><time>2026-04-19T06:04:39.996Z</time></trkpt><trkpt lat="41.34585" lon="15.5636033"><ele>108.0</ele><time>2026-04-19T06:04:40.996Z</time></trkpt><trkpt lat="41.3460267" lon="15.5636317"><ele>108.0</ele><time>2026-04-19T06:04:41.996Z</time></trkpt><trkpt lat="41.3462" lon="15.56366"><ele>108.0</ele><time>2026-04-19T06:04:42.996Z</time></trkpt><trkpt lat="41.346375" lon="15.5636883"><ele>108.0</ele><time>2026-04-19T06:04:43.996Z</time></trkpt><trkpt lat="41.3465483" lon="15.5637117"><ele>107.66666666666666</ele><time>2026-04-19T06:04:44.996Z</time></trkpt><trkpt lat="41.3467233" lon="15.563735"><ele>107.33333333333333</ele><time>2026-04-19T06:04:45.996Z</time></trkpt><trkpt lat="41.3468967" lon="15.5637583"><ele>107.0</ele><time>2026-04-19T06:04:46.997Z</time></trkpt><trkpt lat="41.34707" lon="15.56378"><ele>107.0</ele><time>2026-04-19T06:04:47.997Z</time></trkpt><trkpt lat="41.3472433" lon="15.5638"><ele>107.0</ele><time>2026-04-19T06:04:48.996Z</time></trkpt><trkpt lat="41.3474167" lon="15.56382"><ele>107.0</ele><time>2026-04-19T06:04:49.996Z</time></trkpt><trkpt lat="41.34759" lon="15.5638417"><ele>107.0</ele><time>2026-04-19T06:04:50.996Z</time></trkpt><trkpt lat="41.3477633" lon="15.5638667"><ele>107.0</ele><time>2026-04-19T06:04:51.996Z</time></trkpt><trkpt lat="41.3479367" lon="15.563895"><ele>107.0</ele><time>2026-04-19T06:04:52.996Z</time></trkpt><trkpt lat="41.34811" lon="15.56392"><ele>107.33333333333333</ele><time>2026-04-19T06:04:53.996Z</time></trkpt><trkpt lat="41.3482833" lon="15.5639417"><ele>107.66666666666666</ele><time>2026-04-19T06:04:54.997Z</time></trkpt><trkpt lat="41.34846" lon="15.563965"><ele>108.0</ele><time>2026-04-19T06:04:55.996Z</time></trkpt><trkpt lat="41.348635" lon="15.5639867"><ele>108.0</ele><time>2026-04-19T06:04:56.996Z</time></trkpt><trkpt lat="41.3488117" lon="15.5640083"><ele>108.0</ele><time>2026-04-19T06:04:57.997Z</time></trkpt><trkpt lat="41.3489917" lon="15.56403"><ele>108.0</ele><time>2026-04-19T06:04:58.997Z</time></trkpt><trkpt lat="41.34917" lon="15.5640517"><ele>107.66666666666666</ele><time>2026-04-19T06:04:59.996Z</time></trkpt><trkpt lat="41.34935" lon="15.5640733"><ele>107.33333333333333</ele><time>2026-04-19T06:05:00.996Z</time></trkpt><trkpt lat="41.3495317" lon="15.564095"><ele>107.0</ele><time>2026-04-19T06:05:01.996Z</time></trkpt><trkpt lat="41.3497133" lon="15.5641167"><ele>107.0</ele><time>2026-04-19T06:05:02.996Z</time></trkpt><trkpt lat="41.349895" lon="15.5641383"><ele>107.0</ele><time>2026-04-19T06:05:03.996Z</time></trkpt><trkpt lat="41.3500783" lon="15.56416"><ele>107.0</ele><time>2026-04-19T06:05:04.996Z</time></trkpt><trkpt lat="41.3502617" lon="15.5641817"><ele>107.0</ele><time>2026-04-19T06:05:05.996Z</time></trkpt><trkpt lat="41.350445" lon="15.564205"><ele>107.0</ele><time>2026-04-19T06:05:06.996Z</time></trkpt><trkpt lat="41.3506283" lon="15.564225"><ele>107.0</ele><time>2026-04-19T06:05:07.996Z</time></trkpt><trkpt lat="41.35081" lon="15.5642433"><ele>106.66666666666666</ele><time>2026-04-19T06:05:08.997Z</time></trkpt><trkpt lat="41.3509933" lon="15.5642633"><ele>106.33333333333334</ele><time>2026-04-19T06:05:09.997Z</time></trkpt><trkpt lat="41.351175" lon="15.5642833"><ele>106.0</ele><time>2026-04-19T06:05:10.997Z</time></trkpt><trkpt lat="41.3513583" lon="15.5643"><ele>105.66666666666667</ele><time>2026-04-19T06:05:11.997Z</time></trkpt><trkpt lat="41.35154" lon="15.5643183"><ele>105.33333333333334</ele><time>2026-04-19T06:05:12.997Z</time></trkpt><trkpt lat="41.35172" lon="15.5643383"><ele>105.0</ele><time>2026-04-19T06:05:13.998Z</time></trkpt><trkpt lat="41.3518967" lon="15.5643567"><ele>105.0</ele><time>2026-04-19T06:05:14.997Z</time></trkpt><trkpt lat="41.3520733" lon="15.5643733"><ele>105.0</ele><time>2026-04-19T06:05:15.998Z</time></trkpt><trkpt lat="41.3522483" lon="15.5643933"><ele>105.0</ele><time>2026-04-19T06:05:16.997Z</time></trkpt><trkpt lat="41.352425" lon="15.5644083"><ele>105.0</ele><time>2026-04-19T06:05:17.997Z</time></trkpt><trkpt lat="41.3526" lon="15.564425"><ele>105.0</ele><time>2026-04-19T06:05:18.998Z</time></trkpt><trkpt lat="41.352775" lon="15.56444"><ele>105.0</ele><time>2026-04-19T06:05:19.997Z</time></trkpt><trkpt lat="41.35295" lon="15.5644583"><ele>105.0</ele><time>2026-04-19T06:05:20.997Z</time></trkpt><trkpt lat="41.3531267" lon="15.5644767"><ele>105.0</ele><time>2026-04-19T06:05:21.997Z</time></trkpt><trkpt lat="41.3533033" lon="15.5644917"><ele>105.0</ele><time>2026-04-19T06:05:22.998Z</time></trkpt><trkpt lat="41.3534817" lon="15.5645083"><ele>105.0</ele><time>2026-04-19T06:05:23.997Z</time></trkpt><trkpt lat="41.35366" lon="15.564525"><ele>105.0</ele><time>2026-04-19T06:05:24.998Z</time></trkpt><trkpt lat="41.3538383" lon="15.5645417"><ele>105.0</ele><time>2026-04-19T06:05:25.997Z</time></trkpt><trkpt lat="41.3540167" lon="15.5645583"><ele>104.66666666666666</ele><time>2026-04-19T06:05:26.998Z</time></trkpt><trkpt lat="41.3541983" lon="15.5645733"><ele>104.33333333333333</ele><time>2026-04-19T06:05:27.998Z</time></trkpt><trkpt lat="41.3543783" lon="15.5645883"><ele>104.0</ele><time>2026-04-19T06:05:28.997Z</time></trkpt><trkpt lat="41.35456" lon="15.5646067"><ele>104.33333333333333</ele><time>2026-04-19T06:05:29.997Z</time></trkpt><trkpt lat="41.3547433" lon="15.5646233"><ele>104.66666666666666</ele><time>2026-04-19T06:05:30.996Z</time></trkpt><trkpt lat="41.354925" lon="15.5646383"><ele>105.0</ele><time>2026-04-19T06:05:31.996Z</time></trkpt><trkpt lat="41.355105" lon="15.564655"><ele>105.0</ele><time>2026-04-19T06:05:32.997Z</time></trkpt><trkpt lat="41.3552883" lon="15.56467"><ele>105.0</ele><time>2026-04-19T06:05:33.997Z</time></trkpt><trkpt lat="41.3554683" lon="15.5646867"><ele>105.0</ele><time>2026-04-19T06:05:34.997Z</time></trkpt><trkpt lat="41.35565" lon="15.5647"><ele>104.33333333333334</ele><time>2026-04-19T06:05:35.996Z</time></trkpt><trkpt lat="41.35583" lon="15.5647133"><ele>103.66666666666667</ele><time>2026-04-19T06:05:36.996Z</time></trkpt><trkpt lat="41.3560083" lon="15.5647267"><ele>103.0</ele><time>2026-04-19T06:05:37.996Z</time></trkpt><trkpt lat="41.356185" lon="15.5647383"><ele>103.0</ele><time>2026-04-19T06:05:38.996Z</time></trkpt><trkpt lat="41.3563633" lon="15.5647483"><ele>103.0</ele><time>2026-04-19T06:05:39.997Z</time></trkpt><trkpt lat="41.35654" lon="15.5647583"><ele>103.0</ele><time>2026-04-19T06:05:40.996Z</time></trkpt><trkpt lat="41.3567167" lon="15.5647683"><ele>102.66666666666667</ele><time>2026-04-19T06:05:41.996Z</time></trkpt><trkpt lat="41.35689" lon="15.5647783"><ele>102.33333333333334</ele><time>2026-04-19T06:05:42.996Z</time></trkpt><trkpt lat="41.3570633" lon="15.5647867"><ele>102.0</ele><time>2026-04-19T06:05:43.996Z</time></trkpt><trkpt lat="41.3572367" lon="15.5647967"><ele>101.66666666666666</ele><time>2026-04-19T06:05:44.996Z</time></trkpt><trkpt lat="41.3574083" lon="15.564805"><ele>101.33333333333333</ele><time>2026-04-19T06:05:45.996Z</time></trkpt><trkpt lat="41.35758" lon="15.5648117"><ele>101.0</ele><time>2026-04-19T06:05:46.996Z</time></trkpt><trkpt lat="41.3577517" lon="15.5648183"><ele>101.0</ele><time>2026-04-19T06:05:47.996Z</time></trkpt><trkpt lat="41.3579217" lon="15.5648267"><ele>101.0</ele><time>2026-04-19T06:05:48.997Z</time></trkpt><trkpt lat="41.35809" lon="15.5648367"><ele>101.0</ele><time>2026-04-19T06:05:49.997Z</time></trkpt><trkpt lat="41.3582567" lon="15.5648467"><ele>100.33333333333333</ele><time>2026-04-19T06:05:50.996Z</time></trkpt><trkpt lat="41.35842" lon="15.5648567"><ele>99.66666666666666</ele><time>2026-04-19T06:05:51.996Z</time></trkpt><trkpt lat="41.358585" lon="15.564865"><ele>99.0</ele><time>2026-04-19T06:05:52.996Z</time></trkpt><trkpt lat="41.3587483" lon="15.564875"><ele>98.66666666666666</ele><time>2026-04-19T06:05:53.996Z</time></trkpt><trkpt lat="41.3589133" lon="15.5648817"><ele>98.33333333333333</ele><time>2026-04-19T06:05:54.996Z</time></trkpt><trkpt lat="41.35908" lon="15.5648867"><ele>98.0</ele><time>2026-04-19T06:05:55.997Z</time></trkpt><trkpt lat="41.359245" lon="15.564895"><ele>98.0</ele><time>2026-04-19T06:05:56.997Z</time></trkpt><trkpt lat="41.3594117" lon="15.564905"><ele>98.0</ele><time>2026-04-19T06:05:57.996Z</time></trkpt><trkpt lat="41.3595817" lon="15.5649133"><ele>98.0</ele><time>2026-04-19T06:05:58.996Z</time></trkpt><trkpt lat="41.35975" lon="15.5649217"><ele>98.33333333333333</ele><time>2026-04-19T06:05:59.996Z</time></trkpt><trkpt lat="41.3599217" lon="15.5649283"><ele>98.66666666666666</ele><time>2026-04-19T06:06:00.996Z</time></trkpt><trkpt lat="41.360095" lon="15.5649333"><ele>99.0</ele><time>2026-04-19T06:06:01.996Z</time></trkpt><trkpt lat="41.3602683" lon="15.56494"><ele>99.0</ele><time>2026-04-19T06:06:02.996Z</time></trkpt><trkpt lat="41.360445" lon="15.5649433"><ele>99.0</ele><time>2026-04-19T06:06:03.996Z</time></trkpt><trkpt lat="41.3606183" lon="15.56495"><ele>99.0</ele><time>2026-04-19T06:06:04.997Z</time></trkpt><trkpt lat="41.3607917" lon="15.564955"><ele>100.0</ele><time>2026-04-19T06:06:05.996Z</time></trkpt><trkpt lat="41.360965" lon="15.56496"><ele>101.0</ele><time>2026-04-19T06:06:06.996Z</time></trkpt><trkpt lat="41.3611383" lon="15.5649633"><ele>102.0</ele><time>2026-04-19T06:06:07.996Z</time></trkpt><trkpt lat="41.3613117" lon="15.5649667"><ele>102.0</ele><time>2026-04-19T06:06:08.996Z</time></trkpt><trkpt lat="41.3614867" lon="15.56497"><ele>102.0</ele><time>2026-04-19T06:06:09.996Z</time></trkpt><trkpt lat="41.3616617" lon="15.5649717"><ele>102.0</ele><time>2026-04-19T06:06:10.996Z</time></trkpt><trkpt lat="41.3618367" lon="15.5649733"><ele>102.0</ele><time>2026-04-19T06:06:11.996Z</time></trkpt><trkpt lat="41.3620117" lon="15.564975"><ele>102.0</ele><time>2026-04-19T06:06:12.996Z</time></trkpt><trkpt lat="41.3621867" lon="15.5649767"><ele>102.0</ele><time>2026-04-19T06:06:13.996Z</time></trkpt><trkpt lat="41.3623617" lon="15.56498"><ele>101.66666666666666</ele><time>2026-04-19T06:06:14.996Z</time></trkpt><trkpt lat="41.3625367" lon="15.5649833"><ele>101.33333333333333</ele><time>2026-04-19T06:06:15.996Z</time></trkpt><trkpt lat="41.36271" lon="15.5649833"><ele>101.0</ele><time>2026-04-19T06:06:16.996Z</time></trkpt><trkpt lat="41.3628833" lon="15.5649867"><ele>101.66666666666666</ele><time>2026-04-19T06:06:17.996Z</time></trkpt><trkpt lat="41.3630583" lon="15.5649883"><ele>102.33333333333334</ele><time>2026-04-19T06:06:18.997Z</time></trkpt><trkpt lat="41.3632333" lon="15.5649917"><ele>103.0</ele><time>2026-04-19T06:06:19.996Z</time></trkpt><trkpt lat="41.3634067" lon="15.5649933"><ele>103.0</ele><time>2026-04-19T06:06:20.996Z</time></trkpt><trkpt lat="41.3635817" lon="15.564995"><ele>103.0</ele><time>2026-04-19T06:06:21.996Z</time></trkpt><trkpt lat="41.363755" lon="15.5649917"><ele>103.0</ele><time>2026-04-19T06:06:22.996Z</time></trkpt><trkpt lat="41.3639233" lon="15.5649833"><ele>103.0</ele><time>2026-04-19T06:06:23.996Z</time></trkpt><trkpt lat="41.3640833" lon="15.5649783"><ele>103.0</ele><time>2026-04-19T06:06:24.996Z</time></trkpt><trkpt lat="41.3642367" lon="15.56498"><ele>103.0</ele><time>2026-04-19T06:06:25.996Z</time></trkpt><trkpt lat="41.3643833" lon="15.5649767"><ele>103.0</ele><time>2026-04-19T06:06:26.997Z</time></trkpt><trkpt lat="41.3645333" lon="15.5649767"><ele>103.0</ele><time>2026-04-19T06:06:27.997Z</time></trkpt><trkpt lat="41.3646867" lon="15.564975"><ele>103.0</ele><time>2026-04-19T06:06:28.996Z</time></trkpt><trkpt lat="41.3648383" lon="15.564975"><ele>102.66666666666667</ele><time>2026-04-19T06:06:29.996Z</time></trkpt><trkpt lat="41.3649917" lon="15.5649733"><ele>102.33333333333334</ele><time>2026-04-19T06:06:30.996Z</time></trkpt><trkpt lat="41.3651433" lon="15.5649717"><ele>102.0</ele><time>2026-04-19T06:06:31.996Z</time></trkpt><trkpt lat="41.3652983" lon="15.56497"><ele>102.0</ele><time>2026-04-19T06:06:32.996Z</time></trkpt><trkpt lat="41.3654583" lon="15.5649667"><ele>102.0</ele><time>2026-04-19T06:06:33.996Z</time></trkpt><trkpt lat="41.3656217" lon="15.564965"><ele>102.0</ele><time>2026-04-19T06:06:34.996Z</time></trkpt><trkpt lat="41.3657867" lon="15.564965"><ele>101.66666666666666</ele><time>2026-04-19T06:06:35.996Z</time></trkpt><trkpt lat="41.3659517" lon="15.56496"><ele>101.33333333333333</ele><time>2026-04-19T06:06:36.996Z</time></trkpt><trkpt lat="41.3661183" lon="15.564955"><ele>101.0</ele><time>2026-04-19T06:06:37.996Z</time></trkpt><trkpt lat="41.366285" lon="15.56495"><ele>101.0</ele><time>2026-04-19T06:06:38.997Z</time></trkpt><trkpt lat="41.3664533" lon="15.564945"><ele>101.0</ele><time>2026-04-19T06:06:39.996Z</time></trkpt><trkpt lat="41.3666217" lon="15.56494"><ele>101.0</ele><time>2026-04-19T06:06:40.997Z</time></trkpt><trkpt lat="41.3667933" lon="15.5649317"><ele>101.0</ele><time>2026-04-19T06:06:41.996Z</time></trkpt><trkpt lat="41.3669667" lon="15.5649233"><ele>101.0</ele><time>2026-04-19T06:06:42.996Z</time></trkpt><trkpt lat="41.3671417" lon="15.5649167"><ele>101.0</ele><time>2026-04-19T06:06:43.996Z</time></trkpt><trkpt lat="41.367315" lon="15.56491"><ele>101.33333333333333</ele><time>2026-04-19T06:06:44.996Z</time></trkpt><trkpt lat="41.3674917" lon="15.564905"><ele>101.66666666666666</ele><time>2026-04-19T06:06:45.996Z</time></trkpt><trkpt lat="41.367665" lon="15.5648967"><ele>102.0</ele><time>2026-04-19T06:06:46.996Z</time></trkpt><trkpt lat="41.3678383" lon="15.5648883"><ele>102.0</ele><time>2026-04-19T06:06:47.997Z</time></trkpt><trkpt lat="41.36801" lon="15.56488"><ele>102.0</ele><time>2026-04-19T06:06:48.996Z</time></trkpt><trkpt lat="41.3681817" lon="15.5648717"><ele>102.0</ele><time>2026-04-19T06:06:49.997Z</time></trkpt><trkpt lat="41.3683533" lon="15.5648633"><ele>101.66666666666666</ele><time>2026-04-19T06:06:50.996Z</time></trkpt><trkpt lat="41.368525" lon="15.5648567"><ele>101.33333333333333</ele><time>2026-04-19T06:06:51.996Z</time></trkpt><trkpt lat="41.368695" lon="15.56485"><ele>101.0</ele><time>2026-04-19T06:06:52.996Z</time></trkpt><trkpt lat="41.368865" lon="15.56484"><ele>101.0</ele><time>2026-04-19T06:06:53.996Z</time></trkpt><trkpt lat="41.369035" lon="15.5648283"><ele>101.0</ele><time>2026-04-19T06:06:54.996Z</time></trkpt><trkpt lat="41.3692033" lon="15.5648183"><ele>101.0</ele><time>2026-04-19T06:06:55.996Z</time></trkpt><trkpt lat="41.3693717" lon="15.5648067"><ele>101.0</ele><time>2026-04-19T06:06:56.996Z</time></trkpt><trkpt lat="41.3695383" lon="15.5647967"><ele>101.0</ele><time>2026-04-19T06:06:57.996Z</time></trkpt><trkpt lat="41.369705" lon="15.5647867"><ele>101.0</ele><time>2026-04-19T06:06:58.996Z</time></trkpt><trkpt lat="41.36987" lon="15.5647767"><ele>100.66666666666666</ele><time>2026-04-19T06:06:59.997Z</time></trkpt><trkpt lat="41.3700367" lon="15.5647667"><ele>100.33333333333334</ele><time>2026-04-19T06:07:00.996Z</time></trkpt><trkpt lat="41.370205" lon="15.564755"><ele>100.0</ele><time>2026-04-19T06:07:01.996Z</time></trkpt><trkpt lat="41.3703733" lon="15.5647417"><ele>100.0</ele><time>2026-04-19T06:07:02.996Z</time></trkpt><trkpt lat="41.3705433" lon="15.56473"><ele>100.0</ele><time>2026-04-19T06:07:03.996Z</time></trkpt><trkpt lat="41.3707133" lon="15.56472"><ele>100.0</ele><time>2026-04-19T06:07:04.996Z</time></trkpt><trkpt lat="41.3708833" lon="15.5647083"><ele>100.0</ele><time>2026-04-19T06:07:05.997Z</time></trkpt><trkpt lat="41.371055" lon="15.5646967"><ele>100.0</ele><time>2026-04-19T06:07:06.997Z</time></trkpt><trkpt lat="41.37123" lon="15.5646833"><ele>100.0</ele><time>2026-04-19T06:07:07.996Z</time></trkpt><trkpt lat="41.3714017" lon="15.5646717"><ele>100.0</ele><time>2026-04-19T06:07:08.996Z</time></trkpt><trkpt lat="41.3715733" lon="15.5646567"><ele>100.0</ele><time>2026-04-19T06:07:09.996Z</time></trkpt><trkpt lat="41.3717417" lon="15.5646417"><ele>100.0</ele><time>2026-04-19T06:07:10.996Z</time></trkpt><trkpt lat="41.3719117" lon="15.564625"><ele>100.0</ele><time>2026-04-19T06:07:11.996Z</time></trkpt><trkpt lat="41.37208" lon="15.5646117"><ele>100.0</ele><time>2026-04-19T06:07:12.996Z</time></trkpt><trkpt lat="41.372245" lon="15.5645967"><ele>100.0</ele><time>2026-04-19T06:07:13.997Z</time></trkpt><trkpt lat="41.3724117" lon="15.5645833"><ele>100.0</ele><time>2026-04-19T06:07:14.996Z</time></trkpt><trkpt lat="41.3725817" lon="15.5645717"><ele>100.0</ele><time>2026-04-19T06:07:15.996Z</time></trkpt><trkpt lat="41.3727517" lon="15.5645583"><ele>100.0</ele><time>2026-04-19T06:07:16.996Z</time></trkpt><trkpt lat="41.372925" lon="15.5645433"><ele>100.0</ele><time>2026-04-19T06:07:17.996Z</time></trkpt><trkpt lat="41.3730967" lon="15.5645267"><ele>100.0</ele><time>2026-04-19T06:07:18.996Z</time></trkpt><trkpt lat="41.37327" lon="15.5645117"><ele>100.0</ele><time>2026-04-19T06:07:19.996Z</time></trkpt><trkpt lat="41.373445" lon="15.564495"><ele>100.0</ele><time>2026-04-19T06:07:20.996Z</time></trkpt><trkpt lat="41.37362" lon="15.564475"><ele>100.0</ele><time>2026-04-19T06:07:21.996Z</time></trkpt><trkpt lat="41.3737967" lon="15.5644533"><ele>100.0</ele><time>2026-04-19T06:07:22.996Z</time></trkpt><trkpt lat="41.3739733" lon="15.5644317"><ele>99.66666666666667</ele><time>2026-04-19T06:07:23.997Z</time></trkpt><trkpt lat="41.3741533" lon="15.5644133"><ele>99.33333333333334</ele><time>2026-04-19T06:07:24.996Z</time></trkpt><trkpt lat="41.3743317" lon="15.5643933"><ele>99.0</ele><time>2026-04-19T06:07:25.997Z</time></trkpt><trkpt lat="41.3745117" lon="15.564375"><ele>98.66666666666666</ele><time>2026-04-19T06:07:26.996Z</time></trkpt><trkpt lat="41.3746933" lon="15.5643567"><ele>98.33333333333333</ele><time>2026-04-19T06:07:27.996Z</time></trkpt><trkpt lat="41.3748733" lon="15.5643367"><ele>98.0</ele><time>2026-04-19T06:07:28.996Z</time></trkpt><trkpt lat="41.375055" lon="15.5643167"><ele>98.0</ele><time>2026-04-19T06:07:29.996Z</time></trkpt><trkpt lat="41.375235" lon="15.5642967"><ele>98.0</ele><time>2026-04-19T06:07:30.996Z</time></trkpt><trkpt lat="41.3754167" lon="15.5642767"><ele>98.0</ele><time>2026-04-19T06:07:31.996Z</time></trkpt><trkpt lat="41.3755967" lon="15.5642533"><ele>97.0</ele><time>2026-04-19T06:07:32.997Z</time></trkpt><trkpt lat="41.3757783" lon="15.5642317"><ele>96.0</ele><time>2026-04-19T06:07:33.996Z</time></trkpt><trkpt lat="41.3759583" lon="15.56421"><ele>95.0</ele><time>2026-04-19T06:07:34.997Z</time></trkpt><trkpt lat="41.37614" lon="15.5641883"><ele>95.0</ele><time>2026-04-19T06:07:35.996Z</time></trkpt><trkpt lat="41.3763217" lon="15.56417"><ele>95.0</ele><time>2026-04-19T06:07:36.997Z</time></trkpt><trkpt lat="41.3765017" lon="15.5641483"><ele>95.0</ele><time>2026-04-19T06:07:37.996Z</time></trkpt><trkpt lat="41.3766833" lon="15.5641217"><ele>95.0</ele><time>2026-04-19T06:07:38.996Z</time></trkpt><trkpt lat="41.3768633" lon="15.564095"><ele>95.0</ele><time>2026-04-19T06:07:39.996Z</time></trkpt><trkpt lat="41.377045" lon="15.5640683"><ele>95.0</ele><time>2026-04-19T06:07:40.997Z</time></trkpt><trkpt lat="41.377225" lon="15.5640417"><ele>95.0</ele><time>2026-04-19T06:07:41.996Z</time></trkpt><trkpt lat="41.3774017" lon="15.56402"><ele>95.0</ele><time>2026-04-19T06:07:42.997Z</time></trkpt><trkpt lat="41.3775783" lon="15.5639967"><ele>95.0</ele><time>2026-04-19T06:07:43.996Z</time></trkpt><trkpt lat="41.377755" lon="15.56397"><ele>95.0</ele><time>2026-04-19T06:07:44.997Z</time></trkpt><trkpt lat="41.37793" lon="15.5639417"><ele>95.0</ele><time>2026-04-19T06:07:45.996Z</time></trkpt><trkpt lat="41.3781033" lon="15.5639167"><ele>95.0</ele><time>2026-04-19T06:07:46.996Z</time></trkpt><trkpt lat="41.37828" lon="15.5638883"><ele>94.33333333333334</ele><time>2026-04-19T06:07:47.996Z</time></trkpt><trkpt lat="41.3784567" lon="15.5638617"><ele>93.66666666666667</ele><time>2026-04-19T06:07:48.996Z</time></trkpt><trkpt lat="41.3786333" lon="15.5638367"><ele>93.0</ele><time>2026-04-19T06:07:49.996Z</time></trkpt><trkpt lat="41.3788117" lon="15.56381"><ele>92.33333333333333</ele><time>2026-04-19T06:07:50.997Z</time></trkpt><trkpt lat="41.3789917" lon="15.5637867"><ele>91.66666666666666</ele><time>2026-04-19T06:07:51.996Z</time></trkpt><trkpt lat="41.3791733" lon="15.5637617"><ele>91.0</ele><time>2026-04-19T06:07:52.996Z</time></trkpt><trkpt lat="41.3793533" lon="15.563735"><ele>91.0</ele><time>2026-04-19T06:07:53.996Z</time></trkpt><trkpt lat="41.379535" lon="15.5637083"><ele>91.0</ele><time>2026-04-19T06:07:54.996Z</time></trkpt><trkpt lat="41.3797183" lon="15.56368"><ele>91.0</ele><time>2026-04-19T06:07:55.996Z</time></trkpt><trkpt lat="41.3798983" lon="15.5636533"><ele>91.33333333333333</ele><time>2026-04-19T06:07:56.996Z</time></trkpt><trkpt lat="41.3800783" lon="15.5636233"><ele>91.66666666666667</ele><time>2026-04-19T06:07:57.997Z</time></trkpt><trkpt lat="41.3802583" lon="15.563595"><ele>92.0</ele><time>2026-04-19T06:07:58.997Z</time></trkpt><trkpt lat="41.3804367" lon="15.5635683"><ele>91.0</ele><time>2026-04-19T06:07:59.996Z</time></trkpt><trkpt lat="41.380615" lon="15.5635417"><ele>90.0</ele><time>2026-04-19T06:08:00.996Z</time></trkpt><trkpt lat="41.3807917" lon="15.5635167"><ele>89.0</ele><time>2026-04-19T06:08:01.996Z</time></trkpt><trkpt lat="41.3809683" lon="15.56349"><ele>89.0</ele><time>2026-04-19T06:08:02.997Z</time></trkpt><trkpt lat="41.3811433" lon="15.563465"><ele>89.0</ele><time>2026-04-19T06:08:03.996Z</time></trkpt><trkpt lat="41.3813183" lon="15.56344"><ele>89.0</ele><time>2026-04-19T06:08:04.996Z</time></trkpt><trkpt lat="41.3814933" lon="15.5634133"><ele>89.0</ele><time>2026-04-19T06:08:05.996Z</time></trkpt><trkpt lat="41.3816683" lon="15.563385"><ele>89.0</ele><time>2026-04-19T06:08:06.996Z</time></trkpt><trkpt lat="41.3818433" lon="15.5633583"><ele>89.0</ele><time>2026-04-19T06:08:07.996Z</time></trkpt><trkpt lat="41.3820167" lon="15.5633333"><ele>88.33333333333334</ele><time>2026-04-19T06:08:08.996Z</time></trkpt><trkpt lat="41.3821917" lon="15.5633117"><ele>87.66666666666667</ele><time>2026-04-19T06:08:09.997Z</time></trkpt><trkpt lat="41.3823633" lon="15.5632883"><ele>87.0</ele><time>2026-04-19T06:08:10.996Z</time></trkpt><trkpt lat="41.3825367" lon="15.563265"><ele>87.0</ele><time>2026-04-19T06:08:11.996Z</time></trkpt><trkpt lat="41.3827083" lon="15.56324"><ele>87.0</ele><time>2026-04-19T06:08:12.996Z</time></trkpt><trkpt lat="41.38288" lon="15.563215"><ele>87.0</ele><time>2026-04-19T06:08:13.996Z</time></trkpt><trkpt lat="41.383055" lon="15.5631867"><ele>87.0</ele><time>2026-04-19T06:08:14.996Z</time></trkpt><trkpt lat="41.38323" lon="15.5631583"><ele>87.0</ele><time>2026-04-19T06:08:15.996Z</time></trkpt><trkpt lat="41.3834033" lon="15.56313"><ele>87.0</ele><time>2026-04-19T06:08:16.996Z</time></trkpt><trkpt lat="41.3835783" lon="15.5631033"><ele>87.0</ele><time>2026-04-19T06:08:17.996Z</time></trkpt><trkpt lat="41.3837533" lon="15.56308"><ele>87.0</ele><time>2026-04-19T06:08:18.997Z</time></trkpt><trkpt lat="41.38393" lon="15.5630567"><ele>87.0</ele><time>2026-04-19T06:08:19.996Z</time></trkpt><trkpt lat="41.384105" lon="15.56303"><ele>86.0</ele><time>2026-04-19T06:08:20.996Z</time></trkpt><trkpt lat="41.3842817" lon="15.563005"><ele>85.0</ele><time>2026-04-19T06:08:21.997Z</time></trkpt><trkpt lat="41.3844567" lon="15.56298"><ele>84.0</ele><time>2026-04-19T06:08:22.996Z</time></trkpt><trkpt lat="41.384635" lon="15.5629533"><ele>84.0</ele><time>2026-04-19T06:08:23.996Z</time></trkpt><trkpt lat="41.3848133" lon="15.56293"><ele>84.0</ele><time>2026-04-19T06:08:24.996Z</time></trkpt><trkpt lat="41.3849917" lon="15.5629017"><ele>84.0</ele><time>2026-04-19T06:08:25.996Z</time></trkpt><trkpt lat="41.3851717" lon="15.5628717"><ele>84.33333333333333</ele><time>2026-04-19T06:08:26.997Z</time></trkpt><trkpt lat="41.38535" lon="15.5628433"><ele>84.66666666666666</ele><time>2026-04-19T06:08:27.996Z</time></trkpt><trkpt lat="41.3855283" lon="15.562815"><ele>85.0</ele><time>2026-04-19T06:08:28.996Z</time></trkpt><trkpt lat="41.3857067" lon="15.56279"><ele>85.0</ele><time>2026-04-19T06:08:29.996Z</time></trkpt><trkpt lat="41.385885" lon="15.562765"><ele>85.0</ele><time>2026-04-19T06:08:30.996Z</time></trkpt><trkpt lat="41.3860633" lon="15.5627383"><ele>85.0</ele><time>2026-04-19T06:08:31.996Z</time></trkpt><trkpt lat="41.3862417" lon="15.5627117"><ele>84.33333333333333</ele><time>2026-04-19T06:08:32.996Z</time></trkpt><trkpt lat="41.38642" lon="15.5626833"><ele>83.66666666666667</ele><time>2026-04-19T06:08:33.996Z</time></trkpt><trkpt lat="41.3866" lon="15.5626567"><ele>83.0</ele><time>2026-04-19T06:08:34.996Z</time></trkpt><trkpt lat="41.3867783" lon="15.5626283"><ele>83.0</ele><time>2026-04-19T06:08:35.996Z</time></trkpt><trkpt lat="41.3869567" lon="15.5626033"><ele>83.0</ele><time>2026-04-19T06:08:36.996Z</time></trkpt><trkpt lat="41.387135" lon="15.56258"><ele>83.0</ele><time>2026-04-19T06:08:37.996Z</time></trkpt><trkpt lat="41.3873133" lon="15.562555"><ele>83.0</ele><time>2026-04-19T06:08:38.996Z</time></trkpt><trkpt lat="41.38749" lon="15.56253"><ele>83.0</ele><time>2026-04-19T06:08:39.996Z</time></trkpt><trkpt lat="41.387665" lon="15.5625033"><ele>83.0</ele><time>2026-04-19T06:08:40.996Z</time></trkpt><trkpt lat="41.3878417" lon="15.5624767"><ele>82.66666666666667</ele><time>2026-04-19T06:08:41.996Z</time></trkpt><trkpt lat="41.388015" lon="15.5624517"><ele>82.33333333333333</ele><time>2026-04-19T06:08:42.996Z</time></trkpt><trkpt lat="41.3881867" lon="15.5624267"><ele>82.0</ele><time>2026-04-19T06:08:43.996Z</time></trkpt><trkpt lat="41.3883583" lon="15.5624"><ele>82.0</ele><time>2026-04-19T06:08:44.996Z</time></trkpt><trkpt lat="41.3885283" lon="15.5623717"><ele>82.0</ele><time>2026-04-19T06:08:45.996Z</time></trkpt><trkpt lat="41.3886983" lon="15.562345"><ele>82.0</ele><time>2026-04-19T06:08:46.997Z</time></trkpt><trkpt lat="41.3888633" lon="15.56232"><ele>82.0</ele><time>2026-04-19T06:08:47.996Z</time></trkpt><trkpt lat="41.38903" lon="15.5623"><ele>82.0</ele><time>2026-04-19T06:08:48.996Z</time></trkpt><trkpt lat="41.3891967" lon="15.56228"><ele>82.0</ele><time>2026-04-19T06:08:49.996Z</time></trkpt><trkpt lat="41.389365" lon="15.5622567"><ele>82.0</ele><time>2026-04-19T06:08:50.996Z</time></trkpt><trkpt lat="41.3895333" lon="15.5622317"><ele>82.0</ele><time>2026-04-19T06:08:51.996Z</time></trkpt><trkpt lat="41.3897033" lon="15.5622083"><ele>82.0</ele><time>2026-04-19T06:08:52.996Z</time></trkpt><trkpt lat="41.3898767" lon="15.5621833"><ele>81.66666666666666</ele><time>2026-04-19T06:08:53.996Z</time></trkpt><trkpt lat="41.39005" lon="15.5621583"><ele>81.33333333333333</ele><time>2026-04-19T06:08:54.996Z</time></trkpt><trkpt lat="41.3902233" lon="15.5621317"><ele>81.0</ele><time>2026-04-19T06:08:55.996Z</time></trkpt><trkpt lat="41.3903967" lon="15.5621017"><ele>81.33333333333333</ele><time>2026-04-19T06:08:56.996Z</time></trkpt><trkpt lat="41.3905733" lon="15.562075"><ele>81.66666666666666</ele><time>2026-04-19T06:08:57.996Z</time></trkpt><trkpt lat="41.39075" lon="15.5620517"><ele>82.0</ele><time>2026-04-19T06:08:58.996Z</time></trkpt><trkpt lat="41.3909267" lon="15.5620267"><ele>82.0</ele><time>2026-04-19T06:08:59.996Z</time></trkpt><trkpt lat="41.3911017" lon="15.562"><ele>82.0</ele><time>2026-04-19T06:09:00.996Z</time></trkpt><trkpt lat="41.3912783" lon="15.5619733"><ele>82.0</ele><time>2026-04-19T06:09:01.997Z</time></trkpt><trkpt lat="41.391455" lon="15.561945"><ele>82.0</ele><time>2026-04-19T06:09:02.996Z</time></trkpt><trkpt lat="41.3916333" lon="15.5619183"><ele>82.0</ele><time>2026-04-19T06:09:03.996Z</time></trkpt><trkpt lat="41.3918117" lon="15.5618917"><ele>82.0</ele><time>2026-04-19T06:09:04.996Z</time></trkpt><trkpt lat="41.3919867" lon="15.5618633"><ele>82.0</ele><time>2026-04-19T06:09:05.996Z</time></trkpt><trkpt lat="41.39216" lon="15.5618333"><ele>82.0</ele><time>2026-04-19T06:09:06.996Z</time></trkpt><trkpt lat="41.39233" lon="15.561805"><ele>82.0</ele><time>2026-04-19T06:09:07.996Z</time></trkpt><trkpt lat="41.3925" lon="15.5617783"><ele>82.0</ele><time>2026-04-19T06:09:08.996Z</time></trkpt><trkpt lat="41.39267" lon="15.561755"><ele>82.0</ele><time>2026-04-19T06:09:09.996Z</time></trkpt><trkpt lat="41.39284" lon="15.56173"><ele>82.0</ele><time>2026-04-19T06:09:10.996Z</time></trkpt><trkpt lat="41.39301" lon="15.561705"><ele>82.0</ele><time>2026-04-19T06:09:11.996Z</time></trkpt><trkpt lat="41.39318" lon="15.5616833"><ele>82.0</ele><time>2026-04-19T06:09:12.996Z</time></trkpt><trkpt lat="41.3933533" lon="15.56166"><ele>82.0</ele><time>2026-04-19T06:09:13.996Z</time></trkpt><trkpt lat="41.3935267" lon="15.561635"><ele>82.0</ele><time>2026-04-19T06:09:14.996Z</time></trkpt><trkpt lat="41.3937033" lon="15.5616067"><ele>82.0</ele><time>2026-04-19T06:09:15.996Z</time></trkpt><trkpt lat="41.3938783" lon="15.56158"><ele>82.0</ele><time>2026-04-19T06:09:16.996Z</time></trkpt><trkpt lat="41.394055" lon="15.5615517"><ele>81.33333333333333</ele><time>2026-04-19T06:09:17.996Z</time></trkpt><trkpt lat="41.394235" lon="15.561525"><ele>80.66666666666667</ele><time>2026-04-19T06:09:18.996Z</time></trkpt><trkpt lat="41.394415" lon="15.5614983"><ele>80.0</ele><time>2026-04-19T06:09:19.996Z</time></trkpt><trkpt lat="41.394595" lon="15.5614733"><ele>80.0</ele><time>2026-04-19T06:09:20.996Z</time></trkpt><trkpt lat="41.3947733" lon="15.5614467"><ele>80.0</ele><time>2026-04-19T06:09:21.996Z</time></trkpt><trkpt lat="41.39495" lon="15.56142"><ele>80.0</ele><time>2026-04-19T06:09:22.996Z</time></trkpt><trkpt lat="41.3951267" lon="15.561395"><ele>80.0</ele><time>2026-04-19T06:09:23.996Z</time></trkpt><trkpt lat="41.3953033" lon="15.5613667"><ele>80.0</ele><time>2026-04-19T06:09:24.997Z</time></trkpt><trkpt lat="41.3954783" lon="15.5613417"><ele>80.0</ele><time>2026-04-19T06:09:25.997Z</time></trkpt><trkpt lat="41.3956533" lon="15.5613183"><ele>79.66666666666667</ele><time>2026-04-19T06:09:26.997Z</time></trkpt><trkpt lat="41.3958267" lon="15.5612933"><ele>79.33333333333333</ele><time>2026-04-19T06:09:27.996Z</time></trkpt><trkpt lat="41.3960017" lon="15.5612667"><ele>79.0</ele><time>2026-04-19T06:09:28.996Z</time></trkpt><trkpt lat="41.3961767" lon="15.56124"><ele>79.0</ele><time>2026-04-19T06:09:29.996Z</time></trkpt><trkpt lat="41.396355" lon="15.5612133"><ele>79.0</ele><time>2026-04-19T06:09:30.996Z</time></trkpt><trkpt lat="41.3965317" lon="15.56119"><ele>79.0</ele><time>2026-04-19T06:09:31.997Z</time></trkpt><trkpt lat="41.3967083" lon="15.5611667"><ele>79.0</ele><time>2026-04-19T06:09:32.997Z</time></trkpt><trkpt lat="41.3968833" lon="15.56114"><ele>79.0</ele><time>2026-04-19T06:09:33.997Z</time></trkpt><trkpt lat="41.39706" lon="15.5611117"><ele>79.0</ele><time>2026-04-19T06:09:34.996Z</time></trkpt><trkpt lat="41.3972367" lon="15.561085"><ele>79.0</ele><time>2026-04-19T06:09:35.996Z</time></trkpt><trkpt lat="41.397415" lon="15.56106"><ele>79.0</ele><time>2026-04-19T06:09:36.997Z</time></trkpt><trkpt lat="41.3975933" lon="15.5610333"><ele>79.0</ele><time>2026-04-19T06:09:37.996Z</time></trkpt><trkpt lat="41.3977717" lon="15.5610083"><ele>79.0</ele><time>2026-04-19T06:09:38.996Z</time></trkpt><trkpt lat="41.39795" lon="15.5609833"><ele>79.0</ele><time>2026-04-19T06:09:39.997Z</time></trkpt><trkpt lat="41.3981283" lon="15.5609583"><ele>79.0</ele><time>2026-04-19T06:09:40.996Z</time></trkpt><trkpt lat="41.3983067" lon="15.5609317"><ele>78.66666666666666</ele><time>2026-04-19T06:09:41.996Z</time></trkpt><trkpt lat="41.3984867" lon="15.560905"><ele>78.33333333333333</ele><time>2026-04-19T06:09:42.997Z</time></trkpt><trkpt lat="41.398665" lon="15.5608783"><ele>78.0</ele><time>2026-04-19T06:09:43.996Z</time></trkpt><trkpt lat="41.3988433" lon="15.5608533"><ele>78.66666666666667</ele><time>2026-04-19T06:09:44.996Z</time></trkpt><trkpt lat="41.3990183" lon="15.5608283"><ele>79.33333333333334</ele><time>2026-04-19T06:09:45.996Z</time></trkpt><trkpt lat="41.3991933" lon="15.5608017"><ele>80.0</ele><time>2026-04-19T06:09:46.996Z</time></trkpt><trkpt lat="41.3993683" lon="15.5607767"><ele>80.0</ele><time>2026-04-19T06:09:47.996Z</time></trkpt><trkpt lat="41.3995383" lon="15.56075"><ele>80.0</ele><time>2026-04-19T06:09:48.996Z</time></trkpt><trkpt lat="41.3997083" lon="15.560725"><ele>80.0</ele><time>2026-04-19T06:09:49.996Z</time></trkpt><trkpt lat="41.3998767" lon="15.5606967"><ele>80.0</ele><time>2026-04-19T06:09:50.996Z</time></trkpt><trkpt lat="41.4000433" lon="15.5606617"><ele>80.0</ele><time>2026-04-19T06:09:51.997Z</time></trkpt><trkpt lat="41.40021" lon="15.560635"><ele>80.0</ele><time>2026-04-19T06:09:52.996Z</time></trkpt><trkpt lat="41.4003783" lon="15.5606117"><ele>80.0</ele><time>2026-04-19T06:09:53.996Z</time></trkpt><trkpt lat="41.400545" lon="15.56059"><ele>80.0</ele><time>2026-04-19T06:09:54.996Z</time></trkpt><trkpt lat="41.40071" lon="15.5605683"><ele>80.0</ele><time>2026-04-19T06:09:55.997Z</time></trkpt><trkpt lat="41.4008783" lon="15.5605433"><ele>80.0</ele><time>2026-04-19T06:09:56.996Z</time></trkpt><trkpt lat="41.4010467" lon="15.5605167"><ele>80.0</ele><time>2026-04-19T06:09:57.997Z</time></trkpt><trkpt lat="41.401215" lon="15.5604917"><ele>80.0</ele><time>2026-04-19T06:09:58.996Z</time></trkpt><trkpt lat="41.4013867" lon="15.5604667"><ele>80.0</ele><time>2026-04-19T06:09:59.996Z</time></trkpt><trkpt lat="41.4015583" lon="15.5604433"><ele>80.0</ele><time>2026-04-19T06:10:00.997Z</time></trkpt><trkpt lat="41.40173" lon="15.560415"><ele>80.0</ele><time>2026-04-19T06:10:01.996Z</time></trkpt><trkpt lat="41.401905" lon="15.5603867"><ele>80.0</ele><time>2026-04-19T06:10:02.996Z</time></trkpt><trkpt lat="41.40208" lon="15.56036"><ele>80.0</ele><time>2026-04-19T06:10:03.996Z</time></trkpt><trkpt lat="41.4022583" lon="15.5603367"><ele>80.0</ele><time>2026-04-19T06:10:04.996Z</time></trkpt><trkpt lat="41.4024383" lon="15.5603133"><ele>80.0</ele><time>2026-04-19T06:10:05.996Z</time></trkpt><trkpt lat="41.4026167" lon="15.5602883"><ele>80.0</ele><time>2026-04-19T06:10:06.996Z</time></trkpt><trkpt lat="41.4027933" lon="15.560265"><ele>80.0</ele><time>2026-04-19T06:10:07.997Z</time></trkpt><trkpt lat="41.4029683" lon="15.5602383"><ele>80.33333333333334</ele><time>2026-04-19T06:10:08.997Z</time></trkpt><trkpt lat="41.403145" lon="15.5602133"><ele>80.66666666666667</ele><time>2026-04-19T06:10:09.996Z</time></trkpt><trkpt lat="41.4033183" lon="15.5601883"><ele>81.0</ele><time>2026-04-19T06:10:10.996Z</time></trkpt><trkpt lat="41.4034933" lon="15.5601667"><ele>81.0</ele><time>2026-04-19T06:10:11.996Z</time></trkpt><trkpt lat="41.4036667" lon="15.5601417"><ele>81.0</ele><time>2026-04-19T06:10:12.996Z</time></trkpt><trkpt lat="41.4038383" lon="15.5601167"><ele>81.0</ele><time>2026-04-19T06:10:13.996Z</time></trkpt><trkpt lat="41.4040117" lon="15.5600917"><ele>80.66666666666667</ele><time>2026-04-19T06:10:14.996Z</time></trkpt><trkpt lat="41.4041833" lon="15.5600667"><ele>80.33333333333334</ele><time>2026-04-19T06:10:15.996Z</time></trkpt><trkpt lat="41.404355" lon="15.56004"><ele>80.0</ele><time>2026-04-19T06:10:16.997Z</time></trkpt><trkpt lat="41.4045267" lon="15.56001"><ele>80.33333333333334</ele><time>2026-04-19T06:10:17.997Z</time></trkpt><trkpt lat="41.4046983" lon="15.5599833"><ele>80.66666666666667</ele><time>2026-04-19T06:10:18.996Z</time></trkpt><trkpt lat="41.40487" lon="15.55996"><ele>81.0</ele><time>2026-04-19T06:10:19.996Z</time></trkpt><trkpt lat="41.4050417" lon="15.5599333"><ele>81.0</ele><time>2026-04-19T06:10:20.996Z</time></trkpt><trkpt lat="41.405215" lon="15.5599033"><ele>81.0</ele><time>2026-04-19T06:10:21.996Z</time></trkpt><trkpt lat="41.4053883" lon="15.5598767"><ele>81.0</ele><time>2026-04-19T06:10:22.996Z</time></trkpt><trkpt lat="41.4055617" lon="15.5598533"><ele>80.66666666666667</ele><time>2026-04-19T06:10:23.996Z</time></trkpt><trkpt lat="41.405735" lon="15.5598333"><ele>80.33333333333334</ele><time>2026-04-19T06:10:24.996Z</time></trkpt><trkpt lat="41.4059083" lon="15.5598083"><ele>80.0</ele><time>2026-04-19T06:10:25.996Z</time></trkpt><trkpt lat="41.406085" lon="15.55978"><ele>80.0</ele><time>2026-04-19T06:10:26.996Z</time></trkpt><trkpt lat="41.40626" lon="15.5597517"><ele>80.0</ele><time>2026-04-19T06:10:27.997Z</time></trkpt><trkpt lat="41.406435" lon="15.55972"><ele>80.0</ele><time>2026-04-19T06:10:28.996Z</time></trkpt><trkpt lat="41.4066117" lon="15.5596933"><ele>79.33333333333334</ele><time>2026-04-19T06:10:29.996Z</time></trkpt><trkpt lat="41.4067867" lon="15.5596683"><ele>78.66666666666667</ele><time>2026-04-19T06:10:30.996Z</time></trkpt><trkpt lat="41.406965" lon="15.559645"><ele>78.0</ele><time>2026-04-19T06:10:31.996Z</time></trkpt><trkpt lat="41.4071417" lon="15.5596183"><ele>77.66666666666667</ele><time>2026-04-19T06:10:32.996Z</time></trkpt><trkpt lat="41.4073167" lon="15.55959"><ele>77.33333333333334</ele><time>2026-04-19T06:10:33.996Z</time></trkpt><trkpt lat="41.4074933" lon="15.5595633"><ele>77.0</ele><time>2026-04-19T06:10:34.996Z</time></trkpt><trkpt lat="41.40767" lon="15.5595367"><ele>77.33333333333334</ele><time>2026-04-19T06:10:35.996Z</time></trkpt><trkpt lat="41.4078467" lon="15.55951"><ele>77.66666666666667</ele><time>2026-04-19T06:10:36.996Z</time></trkpt><trkpt lat="41.4080217" lon="15.5594817"><ele>78.0</ele><time>2026-04-19T06:10:37.996Z</time></trkpt><trkpt lat="41.4081967" lon="15.559455"><ele>78.0</ele><time>2026-04-19T06:10:38.996Z</time></trkpt><trkpt lat="41.408375" lon="15.5594283"><ele>78.0</ele><time>2026-04-19T06:10:39.996Z</time></trkpt><trkpt lat="41.408555" lon="15.5594017"><ele>78.0</ele><time>2026-04-19T06:10:40.996Z</time></trkpt><trkpt lat="41.4087333" lon="15.5593717"><ele>77.66666666666667</ele><time>2026-04-19T06:10:41.996Z</time></trkpt><trkpt lat="41.4089067" lon="15.5593467"><ele>77.33333333333334</ele><time>2026-04-19T06:10:42.996Z</time></trkpt><trkpt lat="41.4090767" lon="15.559325"><ele>77.0</ele><time>2026-04-19T06:10:43.996Z</time></trkpt><trkpt lat="41.4092467" lon="15.5593017"><ele>77.0</ele><time>2026-04-19T06:10:44.996Z</time></trkpt><trkpt lat="41.4094133" lon="15.55928"><ele>77.0</ele><time>2026-04-19T06:10:45.996Z</time></trkpt><trkpt lat="41.4095817" lon="15.5592583"><ele>77.0</ele><time>2026-04-19T06:10:46.996Z</time></trkpt><trkpt lat="41.4097517" lon="15.5592367"><ele>76.66666666666667</ele><time>2026-04-19T06:10:47.996Z</time></trkpt><trkpt lat="41.4099233" lon="15.5592117"><ele>76.33333333333333</ele><time>2026-04-19T06:10:48.997Z</time></trkpt><trkpt lat="41.4100967" lon="15.5591883"><ele>76.0</ele><time>2026-04-19T06:10:49.996Z</time></trkpt><trkpt lat="41.41027" lon="15.5591617"><ele>76.0</ele><time>2026-04-19T06:10:50.996Z</time></trkpt><trkpt lat="41.4104467" lon="15.559135"><ele>76.0</ele><time>2026-04-19T06:10:51.996Z</time></trkpt><trkpt lat="41.4106233" lon="15.5591067"><ele>76.0</ele><time>2026-04-19T06:10:52.997Z</time></trkpt><trkpt lat="41.4108017" lon="15.55908"><ele>76.33333333333333</ele><time>2026-04-19T06:10:53.996Z</time></trkpt><trkpt lat="41.41098" lon="15.55905"><ele>76.66666666666667</ele><time>2026-04-19T06:10:54.996Z</time></trkpt><trkpt lat="41.4111583" lon="15.5590233"><ele>77.0</ele><time>2026-04-19T06:10:55.996Z</time></trkpt><trkpt lat="41.4113317" lon="15.5589967"><ele>77.0</ele><time>2026-04-19T06:10:56.996Z</time></trkpt><trkpt lat="41.411505" lon="15.5589717"><ele>77.0</ele><time>2026-04-19T06:10:57.997Z</time></trkpt><trkpt lat="41.411675" lon="15.5589467"><ele>77.0</ele><time>2026-04-19T06:10:58.996Z</time></trkpt><trkpt lat="41.411845" lon="15.5589183"><ele>77.0</ele><time>2026-04-19T06:10:59.996Z</time></trkpt><trkpt lat="41.4120167" lon="15.5588933"><ele>77.0</ele><time>2026-04-19T06:11:00.996Z</time></trkpt><trkpt lat="41.4121883" lon="15.5588683"><ele>77.0</ele><time>2026-04-19T06:11:01.996Z</time></trkpt><trkpt lat="41.4123617" lon="15.5588417"><ele>77.0</ele><time>2026-04-19T06:11:02.996Z</time></trkpt><trkpt lat="41.4125367" lon="15.558815"><ele>77.0</ele><time>2026-04-19T06:11:03.996Z</time></trkpt><trkpt lat="41.4127117" lon="15.55879"><ele>77.0</ele><time>2026-04-19T06:11:04.996Z</time></trkpt><trkpt lat="41.4128817" lon="15.5587633"><ele>77.0</ele><time>2026-04-19T06:11:05.997Z</time></trkpt><trkpt lat="41.41305" lon="15.5587383"><ele>77.0</ele><time>2026-04-19T06:11:06.997Z</time></trkpt><trkpt lat="41.4132183" lon="15.5587133"><ele>77.0</ele><time>2026-04-19T06:11:07.996Z</time></trkpt><trkpt lat="41.413385" lon="15.558685"><ele>77.0</ele><time>2026-04-19T06:11:08.996Z</time></trkpt><trkpt lat="41.4135517" lon="15.5586583"><ele>77.0</ele><time>2026-04-19T06:11:09.996Z</time></trkpt><trkpt lat="41.41372" lon="15.5586333"><ele>77.0</ele><time>2026-04-19T06:11:10.997Z</time></trkpt><trkpt lat="41.41389" lon="15.55861"><ele>77.0</ele><time>2026-04-19T06:11:11.996Z</time></trkpt><trkpt lat="41.4140617" lon="15.55859"><ele>77.0</ele><time>2026-04-19T06:11:12.996Z</time></trkpt><trkpt lat="41.4142333" lon="15.5585717"><ele>77.0</ele><time>2026-04-19T06:11:13.996Z</time></trkpt><trkpt lat="41.4144067" lon="15.558555"><ele>77.0</ele><time>2026-04-19T06:11:14.996Z</time></trkpt><trkpt lat="41.4145783" lon="15.55854"><ele>77.0</ele><time>2026-04-19T06:11:15.996Z</time></trkpt><trkpt lat="41.41475" lon="15.558525"><ele>77.0</ele><time>2026-04-19T06:11:16.996Z</time></trkpt><trkpt lat="41.4149233" lon="15.5585117"><ele>76.66666666666667</ele><time>2026-04-19T06:11:17.996Z</time></trkpt><trkpt lat="41.4150967" lon="15.5585"><ele>76.33333333333333</ele><time>2026-04-19T06:11:18.996Z</time></trkpt><trkpt lat="41.41527" lon="15.558485"><ele>76.0</ele><time>2026-04-19T06:11:19.996Z</time></trkpt><trkpt lat="41.41544" lon="15.5584717"><ele>76.0</ele><time>2026-04-19T06:11:20.996Z</time></trkpt><trkpt lat="41.4156117" lon="15.5584633"><ele>76.0</ele><time>2026-04-19T06:11:21.996Z</time></trkpt><trkpt lat="41.4157833" lon="15.558455"><ele>76.0</ele><time>2026-04-19T06:11:22.996Z</time></trkpt><trkpt lat="41.4159533" lon="15.5584483"><ele>76.0</ele><time>2026-04-19T06:11:23.996Z</time></trkpt><trkpt lat="41.416125" lon="15.5584467"><ele>76.0</ele><time>2026-04-19T06:11:24.996Z</time></trkpt><trkpt lat="41.416295" lon="15.5584467"><ele>76.0</ele><time>2026-04-19T06:11:25.996Z</time></trkpt><trkpt lat="41.4164633" lon="15.558445"><ele>76.33333333333333</ele><time>2026-04-19T06:11:26.996Z</time></trkpt><trkpt lat="41.4166333" lon="15.558445"><ele>76.66666666666667</ele><time>2026-04-19T06:11:27.996Z</time></trkpt><trkpt lat="41.4168033" lon="15.5584433"><ele>77.0</ele><time>2026-04-19T06:11:28.996Z</time></trkpt><trkpt lat="41.4169733" lon="15.558445"><ele>77.0</ele><time>2026-04-19T06:11:29.996Z</time></trkpt><trkpt lat="41.4171433" lon="15.5584467"><ele>77.0</ele><time>2026-04-19T06:11:30.996Z</time></trkpt><trkpt lat="41.4173133" lon="15.5584533"><ele>77.0</ele><time>2026-04-19T06:11:31.996Z</time></trkpt><trkpt lat="41.4174833" lon="15.5584633"><ele>76.66666666666667</ele><time>2026-04-19T06:11:32.996Z</time></trkpt><trkpt lat="41.4176517" lon="15.55847"><ele>76.33333333333333</ele><time>2026-04-19T06:11:33.996Z</time></trkpt><trkpt lat="41.4178217" lon="15.5584817"><ele>76.0</ele><time>2026-04-19T06:11:34.996Z</time></trkpt><trkpt lat="41.41799" lon="15.5584917"><ele>75.33333333333333</ele><time>2026-04-19T06:11:35.996Z</time></trkpt><trkpt lat="41.4181567" lon="15.5585017"><ele>74.66666666666667</ele><time>2026-04-19T06:11:36.996Z</time></trkpt><trkpt lat="41.4183217" lon="15.5585117"><ele>74.0</ele><time>2026-04-19T06:11:37.996Z</time></trkpt><trkpt lat="41.418485" lon="15.558525"><ele>74.0</ele><time>2026-04-19T06:11:38.997Z</time></trkpt><trkpt lat="41.4186467" lon="15.5585383"><ele>74.0</ele><time>2026-04-19T06:11:39.996Z</time></trkpt><trkpt lat="41.4188067" lon="15.5585533"><ele>74.0</ele><time>2026-04-19T06:11:40.996Z</time></trkpt><trkpt lat="41.418965" lon="15.55857"><ele>73.66666666666667</ele><time>2026-04-19T06:11:41.996Z</time></trkpt><trkpt lat="41.4191217" lon="15.5585917"><ele>73.33333333333333</ele><time>2026-04-19T06:11:42.996Z</time></trkpt><trkpt lat="41.4192783" lon="15.558615"><ele>73.0</ele><time>2026-04-19T06:11:43.996Z</time></trkpt><trkpt lat="41.4194383" lon="15.55864"><ele>73.0</ele><time>2026-04-19T06:11:44.996Z</time></trkpt><trkpt lat="41.4195983" lon="15.5586667"><ele>73.0</ele><time>2026-04-19T06:11:45.996Z</time></trkpt><trkpt lat="41.41976" lon="15.5586917"><ele>73.0</ele><time>2026-04-19T06:11:46.997Z</time></trkpt><trkpt lat="41.41992" lon="15.5587183"><ele>72.66666666666666</ele><time>2026-04-19T06:11:47.996Z</time></trkpt><trkpt lat="41.4200783" lon="15.558745"><ele>72.33333333333333</ele><time>2026-04-19T06:11:48.996Z</time></trkpt><trkpt lat="41.4202367" lon="15.5587733"><ele>72.0</ele><time>2026-04-19T06:11:49.996Z</time></trkpt><trkpt lat="41.420395" lon="15.5588033"><ele>72.0</ele><time>2026-04-19T06:11:50.996Z</time></trkpt><trkpt lat="41.4205533" lon="15.558835"><ele>72.0</ele><time>2026-04-19T06:11:51.996Z</time></trkpt><trkpt lat="41.42071" lon="15.558865"><ele>72.0</ele><time>2026-04-19T06:11:52.997Z</time></trkpt><trkpt lat="41.420865" lon="15.558895"><ele>72.0</ele><time>2026-04-19T06:11:53.996Z</time></trkpt><trkpt lat="41.42102" lon="15.5589267"><ele>72.0</ele><time>2026-04-19T06:11:54.996Z</time></trkpt><trkpt lat="41.4211733" lon="15.5589567"><ele>72.0</ele><time>2026-04-19T06:11:55.997Z</time></trkpt><trkpt lat="41.42133" lon="15.558985"><ele>71.66666666666667</ele><time>2026-04-19T06:11:56.996Z</time></trkpt><trkpt lat="41.421485" lon="15.5590133"><ele>71.33333333333334</ele><time>2026-04-19T06:11:57.996Z</time></trkpt><trkpt lat="41.42164" lon="15.5590417"><ele>71.0</ele><time>2026-04-19T06:11:58.996Z</time></trkpt><trkpt lat="41.4217967" lon="15.55907"><ele>71.0</ele><time>2026-04-19T06:11:59.996Z</time></trkpt><trkpt lat="41.4219517" lon="15.5590983"><ele>71.0</ele><time>2026-04-19T06:12:00.997Z</time></trkpt><trkpt lat="41.4221067" lon="15.559125"><ele>71.0</ele><time>2026-04-19T06:12:01.996Z</time></trkpt><trkpt lat="41.42226" lon="15.55915"><ele>70.66666666666667</ele><time>2026-04-19T06:12:02.996Z</time></trkpt><trkpt lat="41.4224117" lon="15.5591733"><ele>70.33333333333333</ele><time>2026-04-19T06:12:03.996Z</time></trkpt><trkpt lat="41.4225633" lon="15.559195"><ele>70.0</ele><time>2026-04-19T06:12:04.996Z</time></trkpt><trkpt lat="41.4227133" lon="15.5592167"><ele>70.0</ele><time>2026-04-19T06:12:05.996Z</time></trkpt><trkpt lat="41.4228617" lon="15.5592383"><ele>70.0</ele><time>2026-04-19T06:12:06.996Z</time></trkpt><trkpt lat="41.42301" lon="15.5592583"><ele>70.0</ele><time>2026-04-19T06:12:07.996Z</time></trkpt><trkpt lat="41.4231583" lon="15.5592733"><ele>70.0</ele><time>2026-04-19T06:12:08.996Z</time></trkpt><trkpt lat="41.42331" lon="15.5592833"><ele>71.33333333333333</ele><time>2026-04-19T06:12:09.996Z</time></trkpt><trkpt lat="41.42346" lon="15.559295"><ele>72.66666666666667</ele><time>2026-04-19T06:12:10.996Z</time></trkpt><trkpt lat="41.4236117" lon="15.5593017"><ele>74.0</ele><time>2026-04-19T06:12:11.996Z</time></trkpt><trkpt lat="41.4237633" lon="15.5593067"><ele>74.33333333333334</ele><time>2026-04-19T06:12:12.997Z</time></trkpt><trkpt lat="41.423915" lon="15.5593117"><ele>74.66666666666667</ele><time>2026-04-19T06:12:13.997Z</time></trkpt><trkpt lat="41.424065" lon="15.5593117"><ele>75.0</ele><time>2026-04-19T06:12:14.996Z</time></trkpt><trkpt lat="41.4242167" lon="15.5593083"><ele>75.0</ele><time>2026-04-19T06:12:15.997Z</time></trkpt><trkpt lat="41.42437" lon="15.559305"><ele>75.0</ele><time>2026-04-19T06:12:16.996Z</time></trkpt><trkpt lat="41.424525" lon="15.5593"><ele>75.0</ele><time>2026-04-19T06:12:17.996Z</time></trkpt><trkpt lat="41.4246833" lon="15.55929"><ele>74.66666666666667</ele><time>2026-04-19T06:12:18.996Z</time></trkpt><trkpt lat="41.4248433" lon="15.5592783"><ele>74.33333333333334</ele><time>2026-04-19T06:12:19.996Z</time></trkpt><trkpt lat="41.4250017" lon="15.5592667"><ele>74.0</ele><time>2026-04-19T06:12:20.996Z</time></trkpt><trkpt lat="41.4251583" lon="15.5592533"><ele>74.0</ele><time>2026-04-19T06:12:21.996Z</time></trkpt><trkpt lat="41.42531" lon="15.5592367"><ele>74.0</ele><time>2026-04-19T06:12:22.996Z</time></trkpt><trkpt lat="41.4254617" lon="15.5592167"><ele>74.0</ele><time>2026-04-19T06:12:23.997Z</time></trkpt><trkpt lat="41.42561" lon="15.5591933"><ele>73.75</ele><time>2026-04-19T06:12:24.996Z</time></trkpt><trkpt lat="41.4257567" lon="15.55917"><ele>73.5</ele><time>2026-04-19T06:12:25.996Z</time></trkpt><trkpt lat="41.4259033" lon="15.5591467"><ele>73.25</ele><time>2026-04-19T06:12:26.996Z</time></trkpt><trkpt lat="41.4260467" lon="15.5591217"><ele>73.0</ele><time>2026-04-19T06:12:27.996Z</time></trkpt><trkpt lat="41.4261883" lon="15.5590967"><ele>73.0</ele><time>2026-04-19T06:12:28.996Z</time></trkpt><trkpt lat="41.426325" lon="15.55907"><ele>73.0</ele><time>2026-04-19T06:12:29.997Z</time></trkpt><trkpt lat="41.426465" lon="15.559035"><ele>73.0</ele><time>2026-04-19T06:12:30.996Z</time></trkpt><trkpt lat="41.426605" lon="15.5590017"><ele>73.0</ele><time>2026-04-19T06:12:31.996Z</time></trkpt><trkpt lat="41.4267483" lon="15.558965"><ele>73.0</ele><time>2026-04-19T06:12:32.996Z</time></trkpt><trkpt lat="41.426895" lon="15.5589233"><ele>73.0</ele><time>2026-04-19T06:12:33.996Z</time></trkpt><trkpt lat="41.427045" lon="15.5588783"><ele>73.0</ele><time>2026-04-19T06:12:34.996Z</time></trkpt><trkpt lat="41.427195" lon="15.5588333"><ele>73.0</ele><time>2026-04-19T06:12:35.997Z</time></trkpt><trkpt lat="41.4273433" lon="15.558785"><ele>73.0</ele><time>2026-04-19T06:12:36.996Z</time></trkpt><trkpt lat="41.42749" lon="15.5587367"><ele>73.0</ele><time>2026-04-19T06:12:37.997Z</time></trkpt><trkpt lat="41.4276367" lon="15.558685"><ele>73.0</ele><time>2026-04-19T06:12:38.997Z</time></trkpt><trkpt lat="41.4277783" lon="15.55863"><ele>73.0</ele><time>2026-04-19T06:12:39.996Z</time></trkpt><trkpt lat="41.4279206" lon="15.5585728"><ele>73.0</ele><time>2026-04-19T06:12:40.996Z</time></trkpt><trkpt lat="41.428066" lon="15.5585146"><ele>73.0</ele><time>2026-04-19T06:12:41.996Z</time></trkpt><trkpt lat="41.4282126" lon="15.5584549"><ele>73.0</ele><time>2026-04-19T06:12:42.996Z</time></trkpt><trkpt lat="41.4283593" lon="15.5583909"><ele>73.0</ele><time>2026-04-19T06:12:43.996Z</time></trkpt><trkpt lat="41.4285053" lon="15.5583269"><ele>73.0</ele><time>2026-04-19T06:12:44.996Z</time></trkpt><trkpt lat="41.4286501" lon="15.5582603"><ele>73.0</ele><time>2026-04-19T06:12:45.996Z</time></trkpt><trkpt lat="41.4287939" lon="15.5581934"><ele>73.0</ele><time>2026-04-19T06:12:46.996Z</time></trkpt><trkpt lat="41.4289372" lon="15.5581234"><ele>73.0</ele><time>2026-04-19T06:12:47.996Z</time></trkpt><trkpt lat="41.429079" lon="15.5580502"><ele>72.66666666666666</ele><time>2026-04-19T06:12:48.996Z</time></trkpt><trkpt lat="41.4292202" lon="15.5579754"><ele>72.33333333333333</ele><time>2026-04-19T06:12:49.996Z</time></trkpt><trkpt lat="41.4293591" lon="15.5578985"><ele>72.0</ele><time>2026-04-19T06:12:50.996Z</time></trkpt><trkpt lat="41.4294978" lon="15.557823"><ele>72.5</ele><time>2026-04-19T06:12:51.996Z</time></trkpt><trkpt lat="41.4296345" lon="15.5577432"><ele>73.0</ele><time>2026-04-19T06:12:52.996Z</time></trkpt><trkpt lat="41.4297702" lon="15.5576614"><ele>73.5</ele><time>2026-04-19T06:12:53.996Z</time></trkpt><trkpt lat="41.4299061" lon="15.5575765"><ele>74.0</ele><time>2026-04-19T06:12:54.996Z</time></trkpt><trkpt lat="41.4300428" lon="15.5574907"><ele>74.33333333333334</ele><time>2026-04-19T06:12:55.996Z</time></trkpt><trkpt lat="41.4301774" lon="15.5573988"><ele>74.66666666666667</ele><time>2026-04-19T06:12:56.996Z</time></trkpt><trkpt lat="41.4303135" lon="15.5573073"><ele>75.0</ele><time>2026-04-19T06:12:57.996Z</time></trkpt><trkpt lat="41.4304465" lon="15.5572143"><ele>75.25</ele><time>2026-04-19T06:12:58.996Z</time></trkpt><trkpt lat="41.4305768" lon="15.5571214"><ele>75.5</ele><time>2026-04-19T06:12:59.996Z</time></trkpt><trkpt lat="41.4307069" lon="15.5570321"><ele>75.75</ele><time>2026-04-19T06:13:00.996Z</time></trkpt><trkpt lat="41.4308375" lon="15.5569405"><ele>76.0</ele><time>2026-04-19T06:13:01.996Z</time></trkpt><trkpt lat="41.4309676" lon="15.5568513"><ele>76.0</ele><time>2026-04-19T06:13:02.996Z</time></trkpt><trkpt lat="41.4310958" lon="15.5567589"><ele>76.0</ele><time>2026-04-19T06:13:03.996Z</time></trkpt><trkpt lat="41.431222" lon="15.5566683"><ele>76.0</ele><time>2026-04-19T06:13:04.996Z</time></trkpt><trkpt lat="41.4313481" lon="15.5565773"><ele>76.0</ele><time>2026-04-19T06:13:05.996Z</time></trkpt><trkpt lat="41.4314755" lon="15.5564866"><ele>75.25</ele><time>2026-04-19T06:13:06.996Z</time></trkpt><trkpt lat="41.4316015" lon="15.5563946"><ele>74.5</ele><time>2026-04-19T06:13:07.997Z</time></trkpt><trkpt lat="41.4317258" lon="15.5563026"><ele>73.75</ele><time>2026-04-19T06:13:08.996Z</time></trkpt><trkpt lat="41.4318505" lon="15.5562106"><ele>73.0</ele><time>2026-04-19T06:13:09.996Z</time></trkpt><trkpt lat="41.4319748" lon="15.5561176"><ele>73.0</ele><time>2026-04-19T06:13:10.996Z</time></trkpt><trkpt lat="41.4320974" lon="15.5560265"><ele>73.0</ele><time>2026-04-19T06:13:11.996Z</time></trkpt><trkpt lat="41.4322192" lon="15.555936"><ele>73.0</ele><time>2026-04-19T06:13:12.996Z</time></trkpt><trkpt lat="41.4323387" lon="15.5558453"><ele>73.0</ele><time>2026-04-19T06:13:13.996Z</time></trkpt><trkpt lat="41.4324593" lon="15.555754"><ele>73.0</ele><time>2026-04-19T06:13:14.997Z</time></trkpt><trkpt lat="41.4325803" lon="15.5556601"><ele>73.0</ele><time>2026-04-19T06:13:15.997Z</time></trkpt><trkpt lat="41.4327014" lon="15.5555633"><ele>73.0</ele><time>2026-04-19T06:13:16.996Z</time></trkpt><trkpt lat="41.4328229" lon="15.5554648"><ele>73.0</ele><time>2026-04-19T06:13:17.996Z</time></trkpt><trkpt lat="41.4329445" lon="15.5553653"><ele>72.5</ele><time>2026-04-19T06:13:18.996Z</time></trkpt><trkpt lat="41.4330663" lon="15.5552654"><ele>72.0</ele><time>2026-04-19T06:13:19.996Z</time></trkpt><trkpt lat="41.4331905" lon="15.5551604"><ele>71.5</ele><time>2026-04-19T06:13:20.996Z</time></trkpt><trkpt lat="41.4333154" lon="15.5550528"><ele>71.0</ele><time>2026-04-19T06:13:21.996Z</time></trkpt><trkpt lat="41.4334412" lon="15.5549437"><ele>71.0</ele><time>2026-04-19T06:13:22.997Z</time></trkpt><trkpt lat="41.4335675" lon="15.5548349"><ele>71.0</ele><time>2026-04-19T06:13:23.996Z</time></trkpt><trkpt lat="41.433692" lon="15.5547223"><ele>71.0</ele><time>2026-04-19T06:13:24.996Z</time></trkpt><trkpt lat="41.4338158" lon="15.5546081"><ele>71.66666666666667</ele><time>2026-04-19T06:13:25.996Z</time></trkpt><trkpt lat="41.4339392" lon="15.5544899"><ele>72.33333333333333</ele><time>2026-04-19T06:13:26.996Z</time></trkpt><trkpt lat="41.434062" lon="15.5543695"><ele>73.0</ele><time>2026-04-19T06:13:27.996Z</time></trkpt><trkpt lat="41.4341858" lon="15.5542521"><ele>73.0</ele><time>2026-04-19T06:13:28.996Z</time></trkpt><trkpt lat="41.4343099" lon="15.5541365"><ele>73.0</ele><time>2026-04-19T06:13:29.997Z</time></trkpt><trkpt lat="41.4344327" lon="15.5540193"><ele>73.0</ele><time>2026-04-19T06:13:30.996Z</time></trkpt><trkpt lat="41.4345536" lon="15.553897"><ele>72.75</ele><time>2026-04-19T06:13:31.997Z</time></trkpt><trkpt lat="41.4346675" lon="15.5537733"><ele>72.5</ele><time>2026-04-19T06:13:32.996Z</time></trkpt><trkpt lat="41.4347765" lon="15.5536544"><ele>72.25</ele><time>2026-04-19T06:13:33.996Z</time></trkpt><trkpt lat="41.4348841" lon="15.5535369"><ele>72.0</ele><time>2026-04-19T06:13:34.996Z</time></trkpt><trkpt lat="41.4349918" lon="15.5534174"><ele>72.0</ele><time>2026-04-19T06:13:35.996Z</time></trkpt><trkpt lat="41.435099" lon="15.5532957"><ele>72.0</ele><time>2026-04-19T06:13:36.996Z</time></trkpt><trkpt lat="41.4352051" lon="15.5531721"><ele>72.0</ele><time>2026-04-19T06:13:37.996Z</time></trkpt><trkpt lat="41.4353097" lon="15.5530467"><ele>72.0</ele><time>2026-04-19T06:13:38.996Z</time></trkpt><trkpt lat="41.4354136" lon="15.5529208"><ele>71.75</ele><time>2026-04-19T06:13:39.997Z</time></trkpt><trkpt lat="41.4355174" lon="15.5527952"><ele>71.5</ele><time>2026-04-19T06:13:40.996Z</time></trkpt><trkpt lat="41.4356226" lon="15.5526698"><ele>71.25</ele><time>2026-04-19T06:13:41.996Z</time></trkpt><trkpt lat="41.4357272" lon="15.5525426"><ele>71.0</ele><time>2026-04-19T06:13:42.996Z</time></trkpt><trkpt lat="41.4358307" lon="15.5524139"><ele>71.0</ele><time>2026-04-19T06:13:43.996Z</time></trkpt><trkpt lat="41.4359342" lon="15.5522811"><ele>71.0</ele><time>2026-04-19T06:13:44.997Z</time></trkpt><trkpt lat="41.4360378" lon="15.5521456"><ele>71.0</ele><time>2026-04-19T06:13:45.996Z</time></trkpt><trkpt lat="41.4361399" lon="15.552007"><ele>71.0</ele><time>2026-04-19T06:13:46.996Z</time></trkpt><trkpt lat="41.4362412" lon="15.5518675"><ele>70.75</ele><time>2026-04-19T06:13:47.996Z</time></trkpt><trkpt lat="41.4363417" lon="15.5517265"><ele>70.5</ele><time>2026-04-19T06:13:48.996Z</time></trkpt><trkpt lat="41.4364414" lon="15.5515839"><ele>70.25</ele><time>2026-04-19T06:13:49.996Z</time></trkpt><trkpt lat="41.4365413" lon="15.5514416"><ele>70.0</ele><time>2026-04-19T06:13:50.997Z</time></trkpt><trkpt lat="41.4366432" lon="15.5512987"><ele>70.25</ele><time>2026-04-19T06:13:51.996Z</time></trkpt><trkpt lat="41.436744" lon="15.5511546"><ele>70.5</ele><time>2026-04-19T06:13:52.996Z</time></trkpt><trkpt lat="41.4368446" lon="15.5510088"><ele>70.75</ele><time>2026-04-19T06:13:53.996Z</time></trkpt><trkpt lat="41.4369414" lon="15.5508604"><ele>71.0</ele><time>2026-04-19T06:13:54.997Z</time></trkpt><trkpt lat="41.4370364" lon="15.5507101"><ele>71.0</ele><time>2026-04-19T06:13:55.996Z</time></trkpt><trkpt lat="41.4371307" lon="15.5505588"><ele>71.0</ele><time>2026-04-19T06:13:56.996Z</time></trkpt><trkpt lat="41.4372232" lon="15.5504125"><ele>71.0</ele><time>2026-04-19T06:13:57.996Z</time></trkpt><trkpt lat="41.4373161" lon="15.5502677"><ele>71.0</ele><time>2026-04-19T06:13:58.996Z</time></trkpt><trkpt lat="41.4374076" lon="15.5501196"><ele>71.25</ele><time>2026-04-19T06:13:59.996Z</time></trkpt><trkpt lat="41.4374978" lon="15.5499729"><ele>71.5</ele><time>2026-04-19T06:14:00.996Z</time></trkpt><trkpt lat="41.4375867" lon="15.5498264"><ele>71.75</ele><time>2026-04-19T06:14:01.996Z</time></trkpt><trkpt lat="41.4376706" lon="15.5496843"><ele>72.0</ele><time>2026-04-19T06:14:02.996Z</time></trkpt><trkpt lat="41.4377509" lon="15.5495468"><ele>72.25</ele><time>2026-04-19T06:14:03.996Z</time></trkpt><trkpt lat="41.4378279" lon="15.5494142"><ele>72.5</ele><time>2026-04-19T06:14:04.996Z</time></trkpt><trkpt lat="41.4379021" lon="15.5492802"><ele>72.75</ele><time>2026-04-19T06:14:05.996Z</time></trkpt><trkpt lat="41.4379788" lon="15.5491449"><ele>73.0</ele><time>2026-04-19T06:14:06.996Z</time></trkpt><trkpt lat="41.4380591" lon="15.5490092"><ele>72.5</ele><time>2026-04-19T06:14:07.996Z</time></trkpt><trkpt lat="41.438145" lon="15.5488744"><ele>72.0</ele><time>2026-04-19T06:14:08.996Z</time></trkpt><trkpt lat="41.4382326" lon="15.5487384"><ele>71.5</ele><time>2026-04-19T06:14:09.996Z</time></trkpt><trkpt lat="41.4383188" lon="15.5485969"><ele>71.0</ele><time>2026-04-19T06:14:10.997Z</time></trkpt><trkpt lat="41.4384063" lon="15.5484508"><ele>71.0</ele><time>2026-04-19T06:14:11.996Z</time></trkpt><trkpt lat="41.438494" lon="15.548302"><ele>71.0</ele><time>2026-04-19T06:14:12.996Z</time></trkpt><trkpt lat="41.4385827" lon="15.548151"><ele>71.0</ele><time>2026-04-19T06:14:13.997Z</time></trkpt><trkpt lat="41.4386725" lon="15.5479996"><ele>71.0</ele><time>2026-04-19T06:14:14.997Z</time></trkpt><trkpt lat="41.438762" lon="15.5478448"><ele>71.25</ele><time>2026-04-19T06:14:15.996Z</time></trkpt><trkpt lat="41.438851" lon="15.5476902"><ele>71.5</ele><time>2026-04-19T06:14:16.996Z</time></trkpt><trkpt lat="41.4389398" lon="15.5475355"><ele>71.75</ele><time>2026-04-19T06:14:17.997Z</time></trkpt><trkpt lat="41.4390319" lon="15.5473849"><ele>72.0</ele><time>2026-04-19T06:14:18.997Z</time></trkpt><trkpt lat="41.4391255" lon="15.5472376"><ele>72.0</ele><time>2026-04-19T06:14:19.996Z</time></trkpt><trkpt lat="41.4392155" lon="15.5470975"><ele>72.0</ele><time>2026-04-19T06:14:20.996Z</time></trkpt><trkpt lat="41.4392996" lon="15.5469685"><ele>72.0</ele><time>2026-04-19T06:14:21.996Z</time></trkpt><trkpt lat="41.4393826" lon="15.5468514"><ele>72.0</ele><time>2026-04-19T06:14:22.996Z</time></trkpt><trkpt lat="41.4394624" lon="15.5467445"><ele>72.2</ele><time>2026-04-19T06:14:23.996Z</time></trkpt><trkpt lat="41.4395387" lon="15.546646"><ele>72.4</ele><time>2026-04-19T06:14:24.996Z</time></trkpt><trkpt lat="41.439608" lon="15.5465569"><ele>72.6</ele><time>2026-04-19T06:14:25.996Z</time></trkpt><trkpt lat="41.4396757" lon="15.5464818"><ele>72.8</ele><time>2026-04-19T06:14:26.996Z</time></trkpt><trkpt lat="41.4397493" lon="15.5464279"><ele>73.0</ele><time>2026-04-19T06:14:27.996Z</time></trkpt><trkpt lat="41.4398253" lon="15.5463942"><ele>72.66666666666666</ele><time>2026-04-19T06:14:28.996Z</time></trkpt><trkpt lat="41.4398981" lon="15.5463736"><ele>72.33333333333333</ele><time>2026-04-19T06:14:29.996Z</time></trkpt><trkpt lat="41.4399766" lon="15.5463633"><ele>72.0</ele><time>2026-04-19T06:14:30.996Z</time></trkpt><trkpt lat="41.4400581" lon="15.5463604"><ele>71.66666666666667</ele><time>2026-04-19T06:14:31.996Z</time></trkpt><trkpt lat="41.440139" lon="15.5463532"><ele>71.33333333333334</ele><time>2026-04-19T06:14:32.996Z</time></trkpt><trkpt lat="41.4402267" lon="15.5463425"><ele>71.0</ele><time>2026-04-19T06:14:33.996Z</time></trkpt><trkpt lat="41.4403178" lon="15.5463282"><ele>71.0</ele><time>2026-04-19T06:14:34.996Z</time></trkpt><trkpt lat="41.4404136" lon="15.5463077"><ele>71.0</ele><time>2026-04-19T06:14:35.996Z</time></trkpt><trkpt lat="41.4405127" lon="15.5462804"><ele>71.0</ele><time>2026-04-19T06:14:36.996Z</time></trkpt><trkpt lat="41.4406135" lon="15.5462476"><ele>71.0</ele><time>2026-04-19T06:14:37.996Z</time></trkpt><trkpt lat="41.4407056" lon="15.5462124"><ele>71.0</ele><time>2026-04-19T06:14:38.996Z</time></trkpt><trkpt lat="41.4407878" lon="15.5461734"><ele>71.2</ele><time>2026-04-19T06:14:39.997Z</time></trkpt><trkpt lat="41.440864" lon="15.5461284"><ele>71.39999999999999</ele><time>2026-04-19T06:14:40.996Z</time></trkpt><trkpt lat="41.4409291" lon="15.5460778"><ele>71.6</ele><time>2026-04-19T06:14:41.996Z</time></trkpt><trkpt lat="41.4409805" lon="15.546019"><ele>71.8</ele><time>2026-04-19T06:14:42.996Z</time></trkpt><trkpt lat="41.4410463" lon="15.545889"><ele>72.0</ele><time>2026-04-19T06:14:44.996Z</time></trkpt><trkpt lat="41.4410788" lon="15.5457346"><ele>72.0</ele><time>2026-04-19T06:14:46.996Z</time></trkpt><trkpt lat="41.4410826" lon="15.5456467"><ele>72.0</ele><time>2026-04-19T06:14:47.996Z</time></trkpt><trkpt lat="41.4410752" lon="15.5455544"><ele>72.0</ele><time>2026-04-19T06:14:48.996Z</time></trkpt><trkpt lat="41.4410517" lon="15.5454585"><ele>72.0</ele><time>2026-04-19T06:14:49.997Z</time></trkpt><trkpt lat="41.4410138" lon="15.5453642"><ele>72.0</ele><time>2026-04-19T06:14:50.996Z</time></trkpt><trkpt lat="41.440965" lon="15.5452711"><ele>72.0</ele><time>2026-04-19T06:14:51.997Z</time></trkpt><trkpt lat="41.4409089" lon="15.5451797"><ele>72.0</ele><time>2026-04-19T06:14:52.996Z</time></trkpt><trkpt lat="41.4408479" lon="15.5450874"><ele>72.0</ele><time>2026-04-19T06:14:53.997Z</time></trkpt><trkpt lat="41.4407846" lon="15.5449914"><ele>72.0</ele><time>2026-04-19T06:14:54.996Z</time></trkpt><trkpt lat="41.4407259" lon="15.5448985"><ele>72.0</ele><time>2026-04-19T06:14:55.996Z</time></trkpt><trkpt lat="41.4406784" lon="15.544801"><ele>72.0</ele><time>2026-04-19T06:14:56.997Z</time></trkpt><trkpt lat="41.4406358" lon="15.544699"><ele>72.0</ele><time>2026-04-19T06:14:57.996Z</time></trkpt><trkpt lat="41.4406042" lon="15.5445921"><ele>72.0</ele><time>2026-04-19T06:14:58.996Z</time></trkpt><trkpt lat="41.4405871" lon="15.5444749"><ele>72.0</ele><time>2026-04-19T06:14:59.996Z</time></trkpt><trkpt lat="41.4405928" lon="15.5443524"><ele>72.0</ele><time>2026-04-19T06:15:00.996Z</time></trkpt><trkpt lat="41.4406221" lon="15.5442292"><ele>72.0</ele><time>2026-04-19T06:15:01.996Z</time></trkpt><trkpt lat="41.4406674" lon="15.5441096"><ele>72.0</ele><time>2026-04-19T06:15:02.996Z</time></trkpt><trkpt lat="41.4407231" lon="15.543991"><ele>72.0</ele><time>2026-04-19T06:15:03.996Z</time></trkpt><trkpt lat="41.4407835" lon="15.5438671"><ele>72.0</ele><time>2026-04-19T06:15:04.996Z</time></trkpt><trkpt lat="41.4408447" lon="15.5437362"><ele>72.0</ele><time>2026-04-19T06:15:05.997Z</time></trkpt><trkpt lat="41.4409051" lon="15.5435996"><ele>72.0</ele><time>2026-04-19T06:15:06.996Z</time></trkpt><trkpt lat="41.440968" lon="15.5434609"><ele>72.0</ele><time>2026-04-19T06:15:07.997Z</time></trkpt><trkpt lat="41.4410303" lon="15.5433219"><ele>72.0</ele><time>2026-04-19T06:15:08.996Z</time></trkpt><trkpt lat="41.4410918" lon="15.5431816"><ele>72.0</ele><time>2026-04-19T06:15:09.997Z</time></trkpt><trkpt lat="41.4411532" lon="15.5430467"><ele>72.0</ele><time>2026-04-19T06:15:10.997Z</time></trkpt><trkpt lat="41.4412083" lon="15.5429183"><ele>72.0</ele><time>2026-04-19T06:15:11.997Z</time></trkpt><trkpt lat="41.441265" lon="15.542785"><ele>72.0</ele><time>2026-04-19T06:15:12.996Z</time></trkpt><trkpt lat="41.44132" lon="15.5426467"><ele>72.0</ele><time>2026-04-19T06:15:13.996Z</time></trkpt><trkpt lat="41.44137" lon="15.5425067"><ele>72.0</ele><time>2026-04-19T06:15:14.997Z</time></trkpt><trkpt lat="41.4414117" lon="15.54236"><ele>72.0</ele><time>2026-04-19T06:15:15.996Z</time></trkpt><trkpt lat="41.441445" lon="15.54221"><ele>72.0</ele><time>2026-04-19T06:15:16.997Z</time></trkpt><trkpt lat="41.4414733" lon="15.5420583"><ele>72.0</ele><time>2026-04-19T06:15:17.997Z</time></trkpt><trkpt lat="41.441495" lon="15.5419033"><ele>72.0</ele><time>2026-04-19T06:15:18.996Z</time></trkpt><trkpt lat="41.44151" lon="15.5417433"><ele>72.0</ele><time>2026-04-19T06:15:19.996Z</time></trkpt><trkpt lat="41.4415233" lon="15.5415817"><ele>72.0</ele><time>2026-04-19T06:15:20.996Z</time></trkpt><trkpt lat="41.4415333" lon="15.54142"><ele>72.0</ele><time>2026-04-19T06:15:21.996Z</time></trkpt><trkpt lat="41.4415417" lon="15.54126"><ele>72.0</ele><time>2026-04-19T06:15:22.996Z</time></trkpt><trkpt lat="41.4415483" lon="15.5411"><ele>72.0</ele><time>2026-04-19T06:15:23.996Z</time></trkpt><trkpt lat="41.4415567" lon="15.5409383"><ele>72.0</ele><time>2026-04-19T06:15:24.996Z</time></trkpt><trkpt lat="41.441565" lon="15.5407783"><ele>72.0</ele><time>2026-04-19T06:15:25.997Z</time></trkpt><trkpt lat="41.4415717" lon="15.5406217"><ele>72.0</ele><time>2026-04-19T06:15:26.997Z</time></trkpt><trkpt lat="41.4415783" lon="15.540465"><ele>72.0</ele><time>2026-04-19T06:15:27.996Z</time></trkpt><trkpt lat="41.4415833" lon="15.5403067"><ele>72.0</ele><time>2026-04-19T06:15:28.996Z</time></trkpt><trkpt lat="41.4415917" lon="15.5401433"><ele>72.0</ele><time>2026-04-19T06:15:29.996Z</time></trkpt><trkpt lat="41.4416017" lon="15.5399833"><ele>72.25</ele><time>2026-04-19T06:15:30.996Z</time></trkpt><trkpt lat="41.4416117" lon="15.5398233"><ele>72.5</ele><time>2026-04-19T06:15:31.996Z</time></trkpt><trkpt lat="41.4416217" lon="15.53966"><ele>72.75</ele><time>2026-04-19T06:15:32.997Z</time></trkpt><trkpt lat="41.44163" lon="15.5395033"><ele>73.0</ele><time>2026-04-19T06:15:33.996Z</time></trkpt><trkpt lat="41.4416367" lon="15.5393517"><ele>73.2</ele><time>2026-04-19T06:15:34.996Z</time></trkpt><trkpt lat="41.4416467" lon="15.5391967"><ele>73.4</ele><time>2026-04-19T06:15:35.996Z</time></trkpt><trkpt lat="41.4416583" lon="15.5390517"><ele>73.60000000000001</ele><time>2026-04-19T06:15:36.996Z</time></trkpt><trkpt lat="41.4416633" lon="15.5389167"><ele>73.8</ele><time>2026-04-19T06:15:37.996Z</time></trkpt><trkpt lat="41.4416667" lon="15.538785"><ele>74.0</ele><time>2026-04-19T06:15:38.996Z</time></trkpt><trkpt lat="41.4416717" lon="15.5386533"><ele>74.0</ele><time>2026-04-19T06:15:39.996Z</time></trkpt><trkpt lat="41.4416817" lon="15.53852"><ele>74.0</ele><time>2026-04-19T06:15:40.996Z</time></trkpt><trkpt lat="41.44169" lon="15.5383833"><ele>74.0</ele><time>2026-04-19T06:15:41.997Z</time></trkpt><trkpt lat="41.4416983" lon="15.5382467"><ele>74.0</ele><time>2026-04-19T06:15:42.996Z</time></trkpt><trkpt lat="41.441705" lon="15.5381067"><ele>74.0</ele><time>2026-04-19T06:15:43.996Z</time></trkpt><trkpt lat="41.4417117" lon="15.5379733"><ele>73.60000000000001</ele><time>2026-04-19T06:15:44.997Z</time></trkpt><trkpt lat="41.44172" lon="15.5378383"><ele>73.2</ele><time>2026-04-19T06:15:45.996Z</time></trkpt><trkpt lat="41.44173" lon="15.5377133"><ele>72.80000000000001</ele><time>2026-04-19T06:15:46.997Z</time></trkpt><trkpt lat="41.4417367" lon="15.5375867"><ele>72.4</ele><time>2026-04-19T06:15:47.996Z</time></trkpt><trkpt lat="41.441745" lon="15.5374533"><ele>72.0</ele><time>2026-04-19T06:15:48.996Z</time></trkpt><trkpt lat="41.441755" lon="15.5373167"><ele>72.0</ele><time>2026-04-19T06:15:49.997Z</time></trkpt><trkpt lat="41.441765" lon="15.5371733"><ele>72.0</ele><time>2026-04-19T06:15:50.996Z</time></trkpt><trkpt lat="41.4417717" lon="15.5370267"><ele>72.0</ele><time>2026-04-19T06:15:51.996Z</time></trkpt><trkpt lat="41.4417783" lon="15.5368683"><ele>72.0</ele><time>2026-04-19T06:15:52.996Z</time></trkpt><trkpt lat="41.441785" lon="15.5367033"><ele>72.33333333333333</ele><time>2026-04-19T06:15:53.997Z</time></trkpt><trkpt lat="41.4417983" lon="15.5365167"><ele>72.66666666666666</ele><time>2026-04-19T06:15:54.996Z</time></trkpt><trkpt lat="41.4418167" lon="15.5362983"><ele>73.0</ele><time>2026-04-19T06:15:55.996Z</time></trkpt><trkpt lat="41.4418317" lon="15.53607"><ele>73.33333333333333</ele><time>2026-04-19T06:15:56.996Z</time></trkpt><trkpt lat="41.4418483" lon="15.5358217"><ele>73.66666666666667</ele><time>2026-04-19T06:15:57.997Z</time></trkpt><trkpt lat="41.4418617" lon="15.5355683"><ele>74.0</ele><time>2026-04-19T06:15:58.996Z</time></trkpt><trkpt lat="41.4418717" lon="15.535325"><ele>74.33333333333334</ele><time>2026-04-19T06:15:59.996Z</time></trkpt><trkpt lat="41.4418783" lon="15.5351"><ele>74.66666666666667</ele><time>2026-04-19T06:16:00.997Z</time></trkpt><trkpt lat="41.4418883" lon="15.5348833"><ele>75.0</ele><time>2026-04-19T06:16:01.996Z</time></trkpt><trkpt lat="41.441905" lon="15.5346733"><ele>75.0</ele><time>2026-04-19T06:16:02.996Z</time></trkpt><trkpt lat="41.4419283" lon="15.534465"><ele>75.0</ele><time>2026-04-19T06:16:03.996Z</time></trkpt><trkpt lat="41.441965" lon="15.5342633"><ele>75.0</ele><time>2026-04-19T06:16:04.996Z</time></trkpt><trkpt lat="41.442015" lon="15.53407"><ele>75.0</ele><time>2026-04-19T06:16:05.996Z</time></trkpt><trkpt lat="41.4420733" lon="15.53389"><ele>75.0</ele><time>2026-04-19T06:16:06.996Z</time></trkpt><trkpt lat="41.4421317" lon="15.533725"><ele>75.0</ele><time>2026-04-19T06:16:07.996Z</time></trkpt><trkpt lat="41.4421983" lon="15.53357"><ele>75.0</ele><time>2026-04-19T06:16:08.996Z</time></trkpt><trkpt lat="41.4422683" lon="15.5334317"><ele>75.2</ele><time>2026-04-19T06:16:09.996Z</time></trkpt><trkpt lat="41.4423383" lon="15.5333067"><ele>75.4</ele><time>2026-04-19T06:16:10.996Z</time></trkpt><trkpt lat="41.4424117" lon="15.533205"><ele>75.6</ele><time>2026-04-19T06:16:11.996Z</time></trkpt><trkpt lat="41.442485" lon="15.5331333"><ele>75.8</ele><time>2026-04-19T06:16:12.996Z</time></trkpt><trkpt lat="41.4425567" lon="15.5330867"><ele>76.0</ele><time>2026-04-19T06:16:13.997Z</time></trkpt><trkpt lat="41.4426183" lon="15.5330583"><ele>76.0</ele><time>2026-04-19T06:16:14.996Z</time></trkpt><trkpt lat="41.44273" lon="15.5330233"><ele>76.0</ele><time>2026-04-19T06:16:16.997Z</time></trkpt><trkpt lat="41.4427983" lon="15.5330117"><ele>76.0</ele><time>2026-04-19T06:16:17.996Z</time></trkpt><trkpt lat="41.4428733" lon="15.5330167"><ele>76.0</ele><time>2026-04-19T06:16:18.997Z</time></trkpt><trkpt lat="41.4429483" lon="15.5330333"><ele>76.0</ele><time>2026-04-19T06:16:19.996Z</time></trkpt><trkpt lat="41.4430233" lon="15.533055"><ele>76.0</ele><time>2026-04-19T06:16:20.996Z</time></trkpt><trkpt lat="41.443105" lon="15.5330767"><ele>76.16666666666666</ele><time>2026-04-19T06:16:21.996Z</time></trkpt><trkpt lat="41.4431883" lon="15.5331033"><ele>76.33333333333333</ele><time>2026-04-19T06:16:22.996Z</time></trkpt><trkpt lat="41.4432733" lon="15.5331333"><ele>76.5</ele><time>2026-04-19T06:16:23.996Z</time></trkpt><trkpt lat="41.4433533" lon="15.533165"><ele>76.66666666666667</ele><time>2026-04-19T06:16:24.996Z</time></trkpt><trkpt lat="41.4434267" lon="15.5331967"><ele>76.83333333333334</ele><time>2026-04-19T06:16:25.996Z</time></trkpt><trkpt lat="41.443495" lon="15.5332233"><ele>77.0</ele><time>2026-04-19T06:16:26.997Z</time></trkpt><trkpt lat="41.4435583" lon="15.5332467"><ele>77.0</ele><time>2026-04-19T06:16:27.996Z</time></trkpt><trkpt lat="41.44362" lon="15.5332717"><ele>77.0</ele><time>2026-04-19T06:16:28.996Z</time></trkpt><trkpt lat="41.4436883" lon="15.5333033"><ele>77.0</ele><time>2026-04-19T06:16:29.996Z</time></trkpt><trkpt lat="41.4437683" lon="15.533345"><ele>77.0</ele><time>2026-04-19T06:16:30.997Z</time></trkpt><trkpt lat="41.4438517" lon="15.5333967"><ele>77.0</ele><time>2026-04-19T06:16:31.997Z</time></trkpt><trkpt lat="41.4439367" lon="15.5334517"><ele>77.0</ele><time>2026-04-19T06:16:32.997Z</time></trkpt><trkpt lat="41.4440233" lon="15.533515"><ele>77.16666666666667</ele><time>2026-04-19T06:16:33.996Z</time></trkpt><trkpt lat="41.4441067" lon="15.5335833"><ele>77.33333333333334</ele><time>2026-04-19T06:16:34.996Z</time></trkpt><trkpt lat="41.444185" lon="15.5336483"><ele>77.5</ele><time>2026-04-19T06:16:35.996Z</time></trkpt><trkpt lat="41.4442517" lon="15.5337067"><ele>77.66666666666667</ele><time>2026-04-19T06:16:36.996Z</time></trkpt><trkpt lat="41.444305" lon="15.5337583"><ele>77.83333333333333</ele><time>2026-04-19T06:16:37.996Z</time></trkpt><trkpt lat="41.4443683" lon="15.5338483"><ele>78.0</ele><time>2026-04-19T06:16:39.997Z</time></trkpt><trkpt lat="41.4444017" lon="15.5339467"><ele>77.6</ele><time>2026-04-19T06:16:41.996Z</time></trkpt><trkpt lat="41.44444" lon="15.53405"><ele>77.19999999999999</ele><time>2026-04-19T06:16:43.996Z</time></trkpt><trkpt lat="41.444495" lon="15.5341467"><ele>76.8</ele><time>2026-04-19T06:16:45.996Z</time></trkpt><trkpt lat="41.4445767" lon="15.5342367"><ele>76.39999999999999</ele><time>2026-04-19T06:16:47.996Z</time></trkpt><trkpt lat="41.4446617" lon="15.5342683"><ele>76.0</ele><time>2026-04-19T06:16:49.996Z</time></trkpt><trkpt lat="41.4447417" lon="15.53419"><ele>76.0</ele><time>2026-04-19T06:17:19.997Z</time></trkpt><trkpt lat="41.4448183" lon="15.5340317"><ele>76.0</ele><time>2026-04-19T06:17:22.996Z</time></trkpt><trkpt lat="41.44484" lon="15.5338867"><ele>76.0</ele><time>2026-04-19T06:17:24.996Z</time></trkpt><trkpt lat="41.4448317" lon="15.5337433"><ele>76.0</ele><time>2026-04-19T06:17:26.996Z</time></trkpt><trkpt lat="41.4448367" lon="15.5335967"><ele>76.0</ele><time>2026-04-19T06:17:28.996Z</time></trkpt><trkpt lat="41.444875" lon="15.5334317"><ele>76.0</ele><time>2026-04-19T06:17:30.996Z</time></trkpt><trkpt lat="41.4449067" lon="15.533335"><ele>76.0</ele><time>2026-04-19T06:17:31.996Z</time></trkpt><trkpt lat="41.44494" lon="15.5332333"><ele>76.0</ele><time>2026-04-19T06:17:32.996Z</time></trkpt><trkpt lat="41.4449783" lon="15.5331233"><ele>76.0</ele><time>2026-04-19T06:17:33.996Z</time></trkpt><trkpt lat="41.4450183" lon="15.5330083"><ele>76.39999999999999</ele><time>2026-04-19T06:17:34.996Z</time></trkpt><trkpt lat="41.445065" lon="15.5328867"><ele>76.8</ele><time>2026-04-19T06:17:35.996Z</time></trkpt><trkpt lat="41.4451083" lon="15.532765"><ele>77.19999999999999</ele><time>2026-04-19T06:17:36.996Z</time></trkpt><trkpt lat="41.4451533" lon="15.5326367"><ele>77.6</ele><time>2026-04-19T06:17:37.996Z</time></trkpt><trkpt lat="41.4451983" lon="15.53251"><ele>78.0</ele><time>2026-04-19T06:17:38.996Z</time></trkpt><trkpt lat="41.4452467" lon="15.532395"><ele>78.0</ele><time>2026-04-19T06:17:39.996Z</time></trkpt><trkpt lat="41.4452883" lon="15.5322917"><ele>78.0</ele><time>2026-04-19T06:17:40.996Z</time></trkpt><trkpt lat="41.445325" lon="15.532185"><ele>78.0</ele><time>2026-04-19T06:17:41.996Z</time></trkpt><trkpt lat="41.4453617" lon="15.5320733"><ele>78.0</ele><time>2026-04-19T06:17:42.996Z</time></trkpt><trkpt lat="41.4454" lon="15.5319633"><ele>78.0</ele><time>2026-04-19T06:17:43.997Z</time></trkpt><trkpt lat="41.4454383" lon="15.53185"><ele>77.6</ele><time>2026-04-19T06:17:44.997Z</time></trkpt><trkpt lat="41.4454767" lon="15.5317367"><ele>77.19999999999999</ele><time>2026-04-19T06:17:45.996Z</time></trkpt><trkpt lat="41.445515" lon="15.5316183"><ele>76.8</ele><time>2026-04-19T06:17:46.996Z</time></trkpt><trkpt lat="41.4455567" lon="15.5314983"><ele>76.39999999999999</ele><time>2026-04-19T06:17:47.997Z</time></trkpt><trkpt lat="41.4455983" lon="15.5313717"><ele>76.0</ele><time>2026-04-19T06:17:48.996Z</time></trkpt><trkpt lat="41.44564" lon="15.5312417"><ele>76.39999999999999</ele><time>2026-04-19T06:17:49.996Z</time></trkpt><trkpt lat="41.4456817" lon="15.5311067"><ele>76.8</ele><time>2026-04-19T06:17:50.997Z</time></trkpt><trkpt lat="41.445715" lon="15.53097"><ele>77.19999999999999</ele><time>2026-04-19T06:17:51.996Z</time></trkpt><trkpt lat="41.445745" lon="15.530825"><ele>77.6</ele><time>2026-04-19T06:17:52.996Z</time></trkpt><trkpt lat="41.4457717" lon="15.5306717"><ele>78.0</ele><time>2026-04-19T06:17:53.996Z</time></trkpt><trkpt lat="41.4457917" lon="15.5305167"><ele>77.75</ele><time>2026-04-19T06:17:54.996Z</time></trkpt><trkpt lat="41.445805" lon="15.5303567"><ele>77.5</ele><time>2026-04-19T06:17:55.996Z</time></trkpt><trkpt lat="41.44581" lon="15.5301933"><ele>77.25</ele><time>2026-04-19T06:17:56.996Z</time></trkpt><trkpt lat="41.44581" lon="15.5300283"><ele>77.0</ele><time>2026-04-19T06:17:57.997Z</time></trkpt><trkpt lat="41.445805" lon="15.52986"><ele>77.0</ele><time>2026-04-19T06:17:58.996Z</time></trkpt><trkpt lat="41.4457967" lon="15.5296883"><ele>77.0</ele><time>2026-04-19T06:17:59.996Z</time></trkpt><trkpt lat="41.44579" lon="15.5295167"><ele>77.0</ele><time>2026-04-19T06:18:00.997Z</time></trkpt><trkpt lat="41.4457833" lon="15.529345"><ele>77.0</ele><time>2026-04-19T06:18:01.996Z</time></trkpt><trkpt lat="41.4457767" lon="15.5291717"><ele>77.0</ele><time>2026-04-19T06:18:02.996Z</time></trkpt><trkpt lat="41.445775" lon="15.529"><ele>77.0</ele><time>2026-04-19T06:18:03.997Z</time></trkpt><trkpt lat="41.44577" lon="15.5288317"><ele>77.0</ele><time>2026-04-19T06:18:04.997Z</time></trkpt><trkpt lat="41.445765" lon="15.52866"><ele>77.0</ele><time>2026-04-19T06:18:05.996Z</time></trkpt><trkpt lat="41.4457533" lon="15.5284833"><ele>77.0</ele><time>2026-04-19T06:18:06.996Z</time></trkpt><trkpt lat="41.4457417" lon="15.5283"><ele>77.0</ele><time>2026-04-19T06:18:07.996Z</time></trkpt><trkpt lat="41.4457367" lon="15.528125"><ele>77.0</ele><time>2026-04-19T06:18:08.997Z</time></trkpt><trkpt lat="41.4457333" lon="15.5279667"><ele>77.0</ele><time>2026-04-19T06:18:09.996Z</time></trkpt><trkpt lat="41.4457283" lon="15.52782"><ele>76.83333333333334</ele><time>2026-04-19T06:18:10.997Z</time></trkpt><trkpt lat="41.4457217" lon="15.5276817"><ele>76.66666666666667</ele><time>2026-04-19T06:18:11.996Z</time></trkpt><trkpt lat="41.445725" lon="15.5275517"><ele>76.5</ele><time>2026-04-19T06:18:12.996Z</time></trkpt><trkpt lat="41.44574" lon="15.5274333"><ele>76.33333333333333</ele><time>2026-04-19T06:18:13.996Z</time></trkpt><trkpt lat="41.4457683" lon="15.5273317"><ele>76.16666666666666</ele><time>2026-04-19T06:18:14.997Z</time></trkpt><trkpt lat="41.4458017" lon="15.5272433"><ele>76.0</ele><time>2026-04-19T06:18:15.996Z</time></trkpt><trkpt lat="41.4458233" lon="15.527155"><ele>76.0</ele><time>2026-04-19T06:18:16.996Z</time></trkpt><trkpt lat="41.4458267" lon="15.5270633"><ele>76.0</ele><time>2026-04-19T06:18:17.996Z</time></trkpt><trkpt lat="41.445815" lon="15.5269767"><ele>76.0</ele><time>2026-04-19T06:18:18.996Z</time></trkpt><trkpt lat="41.4457517" lon="15.5268117"><ele>76.0</ele><time>2026-04-19T06:18:20.997Z</time></trkpt><trkpt lat="41.4457133" lon="15.526695"><ele>76.0</ele><time>2026-04-19T06:18:21.997Z</time></trkpt><trkpt lat="41.4456883" lon="15.5265567"><ele>76.0</ele><time>2026-04-19T06:18:22.996Z</time></trkpt><trkpt lat="41.4456767" lon="15.52641"><ele>76.0</ele><time>2026-04-19T06:18:23.997Z</time></trkpt><trkpt lat="41.44567" lon="15.5262683"><ele>76.0</ele><time>2026-04-19T06:18:24.996Z</time></trkpt><trkpt lat="41.445665" lon="15.5261217"><ele>76.0</ele><time>2026-04-19T06:18:25.996Z</time></trkpt><trkpt lat="41.4456633" lon="15.52597"><ele>76.0</ele><time>2026-04-19T06:18:26.996Z</time></trkpt><trkpt lat="41.4456617" lon="15.5258117"><ele>76.5</ele><time>2026-04-19T06:18:27.996Z</time></trkpt><trkpt lat="41.44566" lon="15.5256567"><ele>77.0</ele><time>2026-04-19T06:18:28.996Z</time></trkpt><trkpt lat="41.4456567" lon="15.5254983"><ele>77.5</ele><time>2026-04-19T06:18:29.996Z</time></trkpt><trkpt lat="41.445655" lon="15.525345"><ele>78.0</ele><time>2026-04-19T06:18:30.996Z</time></trkpt><trkpt lat="41.44565" lon="15.5252"><ele>78.0</ele><time>2026-04-19T06:18:31.997Z</time></trkpt><trkpt lat="41.4456467" lon="15.5250517"><ele>78.0</ele><time>2026-04-19T06:18:32.996Z</time></trkpt><trkpt lat="41.4456417" lon="15.5248917"><ele>78.0</ele><time>2026-04-19T06:18:33.996Z</time></trkpt><trkpt lat="41.4456383" lon="15.5247283"><ele>78.0</ele><time>2026-04-19T06:18:34.996Z</time></trkpt><trkpt lat="41.445635" lon="15.5245617"><ele>78.0</ele><time>2026-04-19T06:18:35.996Z</time></trkpt><trkpt lat="41.4456333" lon="15.52439"><ele>78.0</ele><time>2026-04-19T06:18:36.996Z</time></trkpt><trkpt lat="41.4456317" lon="15.5242167"><ele>78.0</ele><time>2026-04-19T06:18:37.996Z</time></trkpt><trkpt lat="41.4456367" lon="15.5240367"><ele>78.0</ele><time>2026-04-19T06:18:38.996Z</time></trkpt><trkpt lat="41.4456517" lon="15.5238583"><ele>78.5</ele><time>2026-04-19T06:18:39.996Z</time></trkpt><trkpt lat="41.4456767" lon="15.5236833"><ele>79.0</ele><time>2026-04-19T06:18:40.997Z</time></trkpt><trkpt lat="41.44571" lon="15.523515"><ele>79.5</ele><time>2026-04-19T06:18:41.996Z</time></trkpt><trkpt lat="41.4457533" lon="15.52335"><ele>80.0</ele><time>2026-04-19T06:18:42.996Z</time></trkpt><trkpt lat="41.4458017" lon="15.5231883"><ele>80.0</ele><time>2026-04-19T06:18:43.996Z</time></trkpt><trkpt lat="41.4458517" lon="15.52303"><ele>80.0</ele><time>2026-04-19T06:18:44.996Z</time></trkpt><trkpt lat="41.4459083" lon="15.5228783"><ele>80.0</ele><time>2026-04-19T06:18:45.996Z</time></trkpt><trkpt lat="41.4459717" lon="15.5227317"><ele>80.0</ele><time>2026-04-19T06:18:46.996Z</time></trkpt><trkpt lat="41.4460417" lon="15.52259"><ele>80.0</ele><time>2026-04-19T06:18:47.997Z</time></trkpt><trkpt lat="41.4461183" lon="15.522455"><ele>80.0</ele><time>2026-04-19T06:18:48.997Z</time></trkpt><trkpt lat="41.4461967" lon="15.5223267"><ele>80.0</ele><time>2026-04-19T06:18:49.996Z</time></trkpt><trkpt lat="41.4462817" lon="15.5222033"><ele>80.0</ele><time>2026-04-19T06:18:50.996Z</time></trkpt><trkpt lat="41.4463717" lon="15.522085"><ele>79.75</ele><time>2026-04-19T06:18:51.997Z</time></trkpt><trkpt lat="41.44647" lon="15.521975"><ele>79.5</ele><time>2026-04-19T06:18:52.996Z</time></trkpt><trkpt lat="41.4465733" lon="15.5218717"><ele>79.25</ele><time>2026-04-19T06:18:53.997Z</time></trkpt><trkpt lat="41.4466817" lon="15.52177"><ele>79.0</ele><time>2026-04-19T06:18:54.997Z</time></trkpt><trkpt lat="41.4467983" lon="15.5216717"><ele>79.0</ele><time>2026-04-19T06:18:55.996Z</time></trkpt><trkpt lat="41.4469167" lon="15.521575"><ele>79.0</ele><time>2026-04-19T06:18:56.996Z</time></trkpt><trkpt lat="41.4470367" lon="15.521475"><ele>79.0</ele><time>2026-04-19T06:18:57.996Z</time></trkpt><trkpt lat="41.4471583" lon="15.5213733"><ele>79.0</ele><time>2026-04-19T06:18:58.996Z</time></trkpt><trkpt lat="41.447285" lon="15.521275"><ele>79.0</ele><time>2026-04-19T06:18:59.997Z</time></trkpt><trkpt lat="41.4474117" lon="15.5211767"><ele>79.0</ele><time>2026-04-19T06:19:00.997Z</time></trkpt><trkpt lat="41.4475383" lon="15.5210783"><ele>79.0</ele><time>2026-04-19T06:19:01.996Z</time></trkpt><trkpt lat="41.4476633" lon="15.5209783"><ele>79.0</ele><time>2026-04-19T06:19:02.996Z</time></trkpt><trkpt lat="41.4477867" lon="15.5208767"><ele>79.0</ele><time>2026-04-19T06:19:03.996Z</time></trkpt><trkpt lat="41.44791" lon="15.520775"><ele>79.0</ele><time>2026-04-19T06:19:04.996Z</time></trkpt><trkpt lat="41.4480367" lon="15.520675"><ele>79.0</ele><time>2026-04-19T06:19:05.996Z</time></trkpt><trkpt lat="41.448165" lon="15.5205767"><ele>79.0</ele><time>2026-04-19T06:19:06.996Z</time></trkpt><trkpt lat="41.4482933" lon="15.5204767"><ele>79.0</ele><time>2026-04-19T06:19:07.996Z</time></trkpt><trkpt lat="41.4484217" lon="15.520375"><ele>79.0</ele><time>2026-04-19T06:19:08.997Z</time></trkpt><trkpt lat="41.44855" lon="15.5202733"><ele>79.0</ele><time>2026-04-19T06:19:09.996Z</time></trkpt><trkpt lat="41.44868" lon="15.5201717"><ele>79.0</ele><time>2026-04-19T06:19:10.997Z</time></trkpt><trkpt lat="41.4488133" lon="15.52007"><ele>79.0</ele><time>2026-04-19T06:19:11.996Z</time></trkpt><trkpt lat="41.4489433" lon="15.5199683"><ele>79.0</ele><time>2026-04-19T06:19:12.996Z</time></trkpt><trkpt lat="41.4490733" lon="15.519865"><ele>79.0</ele><time>2026-04-19T06:19:13.997Z</time></trkpt><trkpt lat="41.449205" lon="15.5197583"><ele>79.0</ele><time>2026-04-19T06:19:14.996Z</time></trkpt><trkpt lat="41.4493367" lon="15.5196533"><ele>79.0</ele><time>2026-04-19T06:19:15.996Z</time></trkpt><trkpt lat="41.4494683" lon="15.5195483"><ele>79.0</ele><time>2026-04-19T06:19:16.997Z</time></trkpt><trkpt lat="41.4496" lon="15.519445"><ele>79.25</ele><time>2026-04-19T06:19:17.996Z</time></trkpt><trkpt lat="41.4497283" lon="15.5193417"><ele>79.5</ele><time>2026-04-19T06:19:18.997Z</time></trkpt><trkpt lat="41.4498567" lon="15.51924"><ele>79.75</ele><time>2026-04-19T06:19:19.996Z</time></trkpt><trkpt lat="41.4499867" lon="15.51914"><ele>80.0</ele><time>2026-04-19T06:19:20.996Z</time></trkpt><trkpt lat="41.4501083" lon="15.5190433"><ele>80.0</ele><time>2026-04-19T06:19:21.997Z</time></trkpt><trkpt lat="41.4502233" lon="15.518955"><ele>80.0</ele><time>2026-04-19T06:19:22.997Z</time></trkpt><trkpt lat="41.4503333" lon="15.51887"><ele>80.0</ele><time>2026-04-19T06:19:23.996Z</time></trkpt><trkpt lat="41.4504383" lon="15.5187883"><ele>80.0</ele><time>2026-04-19T06:19:24.996Z</time></trkpt><trkpt lat="41.4505433" lon="15.518705"><ele>80.0</ele><time>2026-04-19T06:19:25.997Z</time></trkpt><trkpt lat="41.4506467" lon="15.5186217"><ele>80.0</ele><time>2026-04-19T06:19:26.996Z</time></trkpt><trkpt lat="41.450745" lon="15.5185467"><ele>80.0</ele><time>2026-04-19T06:19:27.996Z</time></trkpt><trkpt lat="41.450835" lon="15.518475"><ele>80.0</ele><time>2026-04-19T06:19:28.996Z</time></trkpt><trkpt lat="41.4509183" lon="15.5184083"><ele>80.0</ele><time>2026-04-19T06:19:29.996Z</time></trkpt><trkpt lat="41.451" lon="15.51835"><ele>80.0</ele><time>2026-04-19T06:19:30.996Z</time></trkpt><trkpt lat="41.451075" lon="15.5183067"><ele>80.0</ele><time>2026-04-19T06:19:31.996Z</time></trkpt><trkpt lat="41.4511467" lon="15.5182833"><ele>80.0</ele><time>2026-04-19T06:19:32.997Z</time></trkpt><trkpt lat="41.4512167" lon="15.5182883"><ele>80.0</ele><time>2026-04-19T06:19:33.996Z</time></trkpt><trkpt lat="41.4512883" lon="15.5182917"><ele>80.0</ele><time>2026-04-19T06:19:34.996Z</time></trkpt><trkpt lat="41.4513617" lon="15.518285"><ele>80.0</ele><time>2026-04-19T06:19:35.996Z</time></trkpt><trkpt lat="41.4514283" lon="15.5182567"><ele>80.0</ele><time>2026-04-19T06:19:36.996Z</time></trkpt><trkpt lat="41.4514867" lon="15.5182117"><ele>80.0</ele><time>2026-04-19T06:19:37.996Z</time></trkpt><trkpt lat="41.4515333" lon="15.5181483"><ele>80.0</ele><time>2026-04-19T06:19:38.996Z</time></trkpt><trkpt lat="41.45157" lon="15.5180667"><ele>80.0</ele><time>2026-04-19T06:19:39.996Z</time></trkpt><trkpt lat="41.4516083" lon="15.5179717"><ele>80.0</ele><time>2026-04-19T06:19:40.996Z</time></trkpt><trkpt lat="41.45166" lon="15.5178683"><ele>80.0</ele><time>2026-04-19T06:19:41.996Z</time></trkpt><trkpt lat="41.4517367" lon="15.5177667"><ele>80.0</ele><time>2026-04-19T06:19:42.996Z</time></trkpt><trkpt lat="41.4518333" lon="15.51767"><ele>80.25</ele><time>2026-04-19T06:19:43.996Z</time></trkpt><trkpt lat="41.4519467" lon="15.5175733"><ele>80.5</ele><time>2026-04-19T06:19:44.996Z</time></trkpt><trkpt lat="41.4520617" lon="15.5174767"><ele>80.75</ele><time>2026-04-19T06:19:45.996Z</time></trkpt><trkpt lat="41.452175" lon="15.51738"><ele>81.0</ele><time>2026-04-19T06:19:46.996Z</time></trkpt><trkpt lat="41.45229" lon="15.5172833"><ele>81.0</ele><time>2026-04-19T06:19:47.996Z</time></trkpt><trkpt lat="41.452405" lon="15.5171867"><ele>81.0</ele><time>2026-04-19T06:19:48.996Z</time></trkpt><trkpt lat="41.4525217" lon="15.5170917"><ele>81.0</ele><time>2026-04-19T06:19:49.996Z</time></trkpt><trkpt lat="41.4526367" lon="15.5169983"><ele>81.0</ele><time>2026-04-19T06:19:50.996Z</time></trkpt><trkpt lat="41.4527517" lon="15.516905"><ele>81.0</ele><time>2026-04-19T06:19:51.996Z</time></trkpt><trkpt lat="41.452865" lon="15.51681"><ele>81.0</ele><time>2026-04-19T06:19:52.996Z</time></trkpt><trkpt lat="41.4529783" lon="15.516715"><ele>81.0</ele><time>2026-04-19T06:19:53.997Z</time></trkpt><trkpt lat="41.4530933" lon="15.5166217"><ele>81.0</ele><time>2026-04-19T06:19:54.996Z</time></trkpt><trkpt lat="41.45321" lon="15.516525"><ele>81.25</ele><time>2026-04-19T06:19:55.996Z</time></trkpt><trkpt lat="41.453325" lon="15.51643"><ele>81.5</ele><time>2026-04-19T06:19:56.996Z</time></trkpt><trkpt lat="41.4534383" lon="15.5163367"><ele>81.75</ele><time>2026-04-19T06:19:57.996Z</time></trkpt><trkpt lat="41.453545" lon="15.51625"><ele>82.0</ele><time>2026-04-19T06:19:58.996Z</time></trkpt><trkpt lat="41.4536533" lon="15.5161617"><ele>82.0</ele><time>2026-04-19T06:19:59.996Z</time></trkpt><trkpt lat="41.4537617" lon="15.5160717"><ele>82.0</ele><time>2026-04-19T06:20:00.996Z</time></trkpt><trkpt lat="41.45387" lon="15.51598"><ele>82.0</ele><time>2026-04-19T06:20:01.997Z</time></trkpt><trkpt lat="41.45398" lon="15.5158883"><ele>82.0</ele><time>2026-04-19T06:20:02.996Z</time></trkpt><trkpt lat="41.45409" lon="15.5157983"><ele>81.5</ele><time>2026-04-19T06:20:03.996Z</time></trkpt><trkpt lat="41.4541967" lon="15.5157133"><ele>81.0</ele><time>2026-04-19T06:20:04.996Z</time></trkpt><trkpt lat="41.4542983" lon="15.51563"><ele>80.5</ele><time>2026-04-19T06:20:05.996Z</time></trkpt><trkpt lat="41.45439" lon="15.5155517"><ele>80.0</ele><time>2026-04-19T06:20:06.996Z</time></trkpt><trkpt lat="41.4544783" lon="15.5154833"><ele>80.0</ele><time>2026-04-19T06:20:07.996Z</time></trkpt><trkpt lat="41.4545633" lon="15.5154267"><ele>80.0</ele><time>2026-04-19T06:20:08.996Z</time></trkpt><trkpt lat="41.4546433" lon="15.5153867"><ele>80.0</ele><time>2026-04-19T06:20:09.996Z</time></trkpt><trkpt lat="41.4547233" lon="15.5153733"><ele>80.0</ele><time>2026-04-19T06:20:10.997Z</time></trkpt><trkpt lat="41.4548033" lon="15.5153717"><ele>80.0</ele><time>2026-04-19T06:20:11.996Z</time></trkpt><trkpt lat="41.4548817" lon="15.5153667"><ele>80.0</ele><time>2026-04-19T06:20:12.996Z</time></trkpt><trkpt lat="41.4549583" lon="15.5153383"><ele>80.16666666666667</ele><time>2026-04-19T06:20:13.996Z</time></trkpt><trkpt lat="41.4550217" lon="15.515285"><ele>80.33333333333334</ele><time>2026-04-19T06:20:14.996Z</time></trkpt><trkpt lat="41.4550633" lon="15.51521"><ele>80.5</ele><time>2026-04-19T06:20:15.997Z</time></trkpt><trkpt lat="41.455095" lon="15.51512"><ele>80.66666666666667</ele><time>2026-04-19T06:20:16.996Z</time></trkpt><trkpt lat="41.4551217" lon="15.515015"><ele>80.83333333333333</ele><time>2026-04-19T06:20:17.996Z</time></trkpt><trkpt lat="41.45516" lon="15.51491"><ele>81.0</ele><time>2026-04-19T06:20:18.996Z</time></trkpt><trkpt lat="41.4552217" lon="15.5148117"><ele>81.0</ele><time>2026-04-19T06:20:19.996Z</time></trkpt><trkpt lat="41.455295" lon="15.5147167"><ele>81.0</ele><time>2026-04-19T06:20:20.996Z</time></trkpt><trkpt lat="41.4553767" lon="15.51462"><ele>81.0</ele><time>2026-04-19T06:20:21.996Z</time></trkpt><trkpt lat="41.45546" lon="15.5145233"><ele>81.0</ele><time>2026-04-19T06:20:22.996Z</time></trkpt><trkpt lat="41.45555" lon="15.5144233"><ele>81.0</ele><time>2026-04-19T06:20:23.996Z</time></trkpt><trkpt lat="41.4556467" lon="15.5143217"><ele>81.25</ele><time>2026-04-19T06:20:24.996Z</time></trkpt><trkpt lat="41.4557433" lon="15.5142167"><ele>81.5</ele><time>2026-04-19T06:20:25.997Z</time></trkpt><trkpt lat="41.4558433" lon="15.51411"><ele>81.75</ele><time>2026-04-19T06:20:26.996Z</time></trkpt><trkpt lat="41.4559433" lon="15.514005"><ele>82.0</ele><time>2026-04-19T06:20:27.997Z</time></trkpt><trkpt lat="41.4560483" lon="15.5138983"><ele>82.0</ele><time>2026-04-19T06:20:28.996Z</time></trkpt><trkpt lat="41.4561567" lon="15.5137983"><ele>82.0</ele><time>2026-04-19T06:20:29.996Z</time></trkpt><trkpt lat="41.4562717" lon="15.5137017"><ele>82.0</ele><time>2026-04-19T06:20:30.996Z</time></trkpt><trkpt lat="41.4563917" lon="15.51361"><ele>82.0</ele><time>2026-04-19T06:20:31.996Z</time></trkpt><trkpt lat="41.4565167" lon="15.5135217"><ele>82.0</ele><time>2026-04-19T06:20:32.997Z</time></trkpt><trkpt lat="41.4566433" lon="15.5134333"><ele>82.0</ele><time>2026-04-19T06:20:33.997Z</time></trkpt><trkpt lat="41.45677" lon="15.513345"><ele>82.0</ele><time>2026-04-19T06:20:34.996Z</time></trkpt><trkpt lat="41.4568967" lon="15.5132517"><ele>82.0</ele><time>2026-04-19T06:20:35.996Z</time></trkpt><trkpt lat="41.4570233" lon="15.5131583"><ele>82.0</ele><time>2026-04-19T06:20:36.996Z</time></trkpt><trkpt lat="41.4571517" lon="15.5130683"><ele>82.0</ele><time>2026-04-19T06:20:37.996Z</time></trkpt><trkpt lat="41.4572767" lon="15.5129767"><ele>82.0</ele><time>2026-04-19T06:20:38.996Z</time></trkpt><trkpt lat="41.4574017" lon="15.512885"><ele>82.0</ele><time>2026-04-19T06:20:39.996Z</time></trkpt><trkpt lat="41.45753" lon="15.5127933"><ele>82.0</ele><time>2026-04-19T06:20:40.996Z</time></trkpt><trkpt lat="41.4576567" lon="15.5127033"><ele>82.0</ele><time>2026-04-19T06:20:41.996Z</time></trkpt><trkpt lat="41.4577817" lon="15.5126133"><ele>82.0</ele><time>2026-04-19T06:20:42.997Z</time></trkpt><trkpt lat="41.4579067" lon="15.5125217"><ele>82.0</ele><time>2026-04-19T06:20:43.996Z</time></trkpt><trkpt lat="41.45803" lon="15.5124283"><ele>82.0</ele><time>2026-04-19T06:20:44.996Z</time></trkpt><trkpt lat="41.4581533" lon="15.51234"><ele>82.0</ele><time>2026-04-19T06:20:45.996Z</time></trkpt><trkpt lat="41.4582783" lon="15.51225"><ele>82.0</ele><time>2026-04-19T06:20:46.996Z</time></trkpt><trkpt lat="41.4584033" lon="15.512155"><ele>82.0</ele><time>2026-04-19T06:20:47.997Z</time></trkpt><trkpt lat="41.4585283" lon="15.512065"><ele>82.25</ele><time>2026-04-19T06:20:48.996Z</time></trkpt><trkpt lat="41.458655" lon="15.5119733"><ele>82.5</ele><time>2026-04-19T06:20:49.996Z</time></trkpt><trkpt lat="41.458785" lon="15.5118817"><ele>82.75</ele><time>2026-04-19T06:20:50.996Z</time></trkpt><trkpt lat="41.4589167" lon="15.51179"><ele>83.0</ele><time>2026-04-19T06:20:51.996Z</time></trkpt><trkpt lat="41.459045" lon="15.51169"><ele>83.0</ele><time>2026-04-19T06:20:52.996Z</time></trkpt><trkpt lat="41.4591767" lon="15.5115933"><ele>83.0</ele><time>2026-04-19T06:20:53.997Z</time></trkpt><trkpt lat="41.45931" lon="15.5114983"><ele>83.0</ele><time>2026-04-19T06:20:54.996Z</time></trkpt><trkpt lat="41.4594433" lon="15.5114017"><ele>83.0</ele><time>2026-04-19T06:20:55.996Z</time></trkpt><trkpt lat="41.459575" lon="15.511305"><ele>83.0</ele><time>2026-04-19T06:20:56.996Z</time></trkpt><trkpt lat="41.459705" lon="15.5112083"><ele>83.0</ele><time>2026-04-19T06:20:57.996Z</time></trkpt><trkpt lat="41.4598367" lon="15.5111167"><ele>83.0</ele><time>2026-04-19T06:20:58.996Z</time></trkpt><trkpt lat="41.4599667" lon="15.511025"><ele>82.75</ele><time>2026-04-19T06:20:59.997Z</time></trkpt><trkpt lat="41.4600983" lon="15.5109333"><ele>82.5</ele><time>2026-04-19T06:21:00.996Z</time></trkpt><trkpt lat="41.46023" lon="15.5108417"><ele>82.25</ele><time>2026-04-19T06:21:01.996Z</time></trkpt><trkpt lat="41.4603583" lon="15.51075"><ele>82.0</ele><time>2026-04-19T06:21:02.996Z</time></trkpt><trkpt lat="41.4604917" lon="15.5106667"><ele>82.0</ele><time>2026-04-19T06:21:03.997Z</time></trkpt><trkpt lat="41.46063" lon="15.5106017"><ele>82.0</ele><time>2026-04-19T06:21:04.997Z</time></trkpt><trkpt lat="41.4607733" lon="15.5105583"><ele>82.0</ele><time>2026-04-19T06:21:05.997Z</time></trkpt><trkpt lat="41.4609167" lon="15.5105183"><ele>82.0</ele><time>2026-04-19T06:21:06.996Z</time></trkpt><trkpt lat="41.46106" lon="15.5104933"><ele>82.0</ele><time>2026-04-19T06:21:07.996Z</time></trkpt><trkpt lat="41.4612067" lon="15.51048"><ele>82.0</ele><time>2026-04-19T06:21:08.996Z</time></trkpt><trkpt lat="41.461355" lon="15.5104833"><ele>82.0</ele><time>2026-04-19T06:21:09.996Z</time></trkpt><trkpt lat="41.461505" lon="15.5104983"><ele>82.0</ele><time>2026-04-19T06:21:10.996Z</time></trkpt><trkpt lat="41.4616583" lon="15.5105217"><ele>82.0</ele><time>2026-04-19T06:21:11.996Z</time></trkpt><trkpt lat="41.4618083" lon="15.5105617"><ele>82.0</ele><time>2026-04-19T06:21:12.996Z</time></trkpt><trkpt lat="41.4619583" lon="15.510615"><ele>82.0</ele><time>2026-04-19T06:21:13.996Z</time></trkpt><trkpt lat="41.4621033" lon="15.5106833"><ele>81.33333333333333</ele><time>2026-04-19T06:21:14.996Z</time></trkpt><trkpt lat="41.4622433" lon="15.51077"><ele>80.66666666666667</ele><time>2026-04-19T06:21:15.996Z</time></trkpt><trkpt lat="41.4623783" lon="15.5108683"><ele>80.0</ele><time>2026-04-19T06:21:16.996Z</time></trkpt><trkpt lat="41.46251" lon="15.5109733"><ele>80.0</ele><time>2026-04-19T06:21:17.996Z</time></trkpt><trkpt lat="41.4626367" lon="15.511085"><ele>80.0</ele><time>2026-04-19T06:21:18.996Z</time></trkpt><trkpt lat="41.4627533" lon="15.5112133"><ele>80.0</ele><time>2026-04-19T06:21:19.996Z</time></trkpt><trkpt lat="41.4628633" lon="15.5113517"><ele>80.25</ele><time>2026-04-19T06:21:20.997Z</time></trkpt><trkpt lat="41.4629667" lon="15.511495"><ele>80.5</ele><time>2026-04-19T06:21:21.997Z</time></trkpt><trkpt lat="41.46306" lon="15.5116483"><ele>80.75</ele><time>2026-04-19T06:21:22.997Z</time></trkpt><trkpt lat="41.4631467" lon="15.51181"><ele>81.0</ele><time>2026-04-19T06:21:23.997Z</time></trkpt><trkpt lat="41.46322" lon="15.51198"><ele>80.5</ele><time>2026-04-19T06:21:24.996Z</time></trkpt><trkpt lat="41.4632883" lon="15.5121533"><ele>80.0</ele><time>2026-04-19T06:21:25.997Z</time></trkpt><trkpt lat="41.4633483" lon="15.5123333"><ele>79.5</ele><time>2026-04-19T06:21:26.997Z</time></trkpt><trkpt lat="41.4633983" lon="15.5125167"><ele>79.0</ele><time>2026-04-19T06:21:27.996Z</time></trkpt><trkpt lat="41.4634417" lon="15.5127017"><ele>79.0</ele><time>2026-04-19T06:21:28.996Z</time></trkpt><trkpt lat="41.463485" lon="15.5128883"><ele>79.0</ele><time>2026-04-19T06:21:29.996Z</time></trkpt><trkpt lat="41.4635217" lon="15.5130767"><ele>79.0</ele><time>2026-04-19T06:21:30.996Z</time></trkpt><trkpt lat="41.4635633" lon="15.5132667"><ele>79.0</ele><time>2026-04-19T06:21:31.997Z</time></trkpt><trkpt lat="41.4636083" lon="15.513455"><ele>79.0</ele><time>2026-04-19T06:21:32.996Z</time></trkpt><trkpt lat="41.4636533" lon="15.513645"><ele>79.0</ele><time>2026-04-19T06:21:33.996Z</time></trkpt><trkpt lat="41.4637" lon="15.5138367"><ele>79.0</ele><time>2026-04-19T06:21:34.996Z</time></trkpt><trkpt lat="41.4637467" lon="15.5140283"><ele>78.66666666666666</ele><time>2026-04-19T06:21:35.996Z</time></trkpt><trkpt lat="41.463785" lon="15.5142217"><ele>78.33333333333333</ele><time>2026-04-19T06:21:36.996Z</time></trkpt><trkpt lat="41.463825" lon="15.5144167"><ele>78.0</ele><time>2026-04-19T06:21:37.997Z</time></trkpt><trkpt lat="41.4638617" lon="15.5146133"><ele>78.0</ele><time>2026-04-19T06:21:38.996Z</time></trkpt><trkpt lat="41.4639017" lon="15.51481"><ele>78.0</ele><time>2026-04-19T06:21:39.996Z</time></trkpt><trkpt lat="41.46394" lon="15.5150067"><ele>78.0</ele><time>2026-04-19T06:21:40.996Z</time></trkpt><trkpt lat="41.4639817" lon="15.5152017"><ele>78.0</ele><time>2026-04-19T06:21:41.997Z</time></trkpt><trkpt lat="41.4640267" lon="15.5153967"><ele>78.0</ele><time>2026-04-19T06:21:42.996Z</time></trkpt><trkpt lat="41.4640717" lon="15.5155917"><ele>78.0</ele><time>2026-04-19T06:21:43.996Z</time></trkpt><trkpt lat="41.46412" lon="15.5157833"><ele>78.0</ele><time>2026-04-19T06:21:44.996Z</time></trkpt><trkpt lat="41.46418" lon="15.515965"><ele>78.0</ele><time>2026-04-19T06:21:45.996Z</time></trkpt><trkpt lat="41.4642533" lon="15.5161383"><ele>78.0</ele><time>2026-04-19T06:21:46.996Z</time></trkpt><trkpt lat="41.4643283" lon="15.5163117"><ele>78.0</ele><time>2026-04-19T06:21:47.996Z</time></trkpt><trkpt lat="41.4644117" lon="15.516475"><ele>77.75</ele><time>2026-04-19T06:21:48.997Z</time></trkpt><trkpt lat="41.4645017" lon="15.5166317"><ele>77.5</ele><time>2026-04-19T06:21:49.996Z</time></trkpt><trkpt lat="41.4646017" lon="15.5167783"><ele>77.25</ele><time>2026-04-19T06:21:50.997Z</time></trkpt><trkpt lat="41.46471" lon="15.516915"><ele>77.0</ele><time>2026-04-19T06:21:51.997Z</time></trkpt><trkpt lat="41.4648233" lon="15.5170433"><ele>77.25</ele><time>2026-04-19T06:21:52.996Z</time></trkpt><trkpt lat="41.4649417" lon="15.517165"><ele>77.5</ele><time>2026-04-19T06:21:53.996Z</time></trkpt><trkpt lat="41.4650667" lon="15.5172733"><ele>77.75</ele><time>2026-04-19T06:21:54.996Z</time></trkpt><trkpt lat="41.465195" lon="15.5173667"><ele>78.0</ele><time>2026-04-19T06:21:55.996Z</time></trkpt><trkpt lat="41.4653217" lon="15.517445"><ele>78.0</ele><time>2026-04-19T06:21:56.996Z</time></trkpt><trkpt lat="41.465445" lon="15.517515"><ele>78.0</ele><time>2026-04-19T06:21:57.997Z</time></trkpt><trkpt lat="41.4655633" lon="15.517575"><ele>78.0</ele><time>2026-04-19T06:21:58.997Z</time></trkpt><trkpt lat="41.4656833" lon="15.5176317"><ele>78.0</ele><time>2026-04-19T06:21:59.996Z</time></trkpt><trkpt lat="41.4657967" lon="15.51769"><ele>77.8</ele><time>2026-04-19T06:22:00.996Z</time></trkpt><trkpt lat="41.465905" lon="15.5177417"><ele>77.6</ele><time>2026-04-19T06:22:01.996Z</time></trkpt><trkpt lat="41.46601" lon="15.5177883"><ele>77.4</ele><time>2026-04-19T06:22:02.996Z</time></trkpt><trkpt lat="41.4661117" lon="15.5178367"><ele>77.2</ele><time>2026-04-19T06:22:03.997Z</time></trkpt><trkpt lat="41.4662083" lon="15.517885"><ele>77.0</ele><time>2026-04-19T06:22:04.996Z</time></trkpt><trkpt lat="41.4663017" lon="15.5179333"><ele>76.83333333333334</ele><time>2026-04-19T06:22:05.996Z</time></trkpt><trkpt lat="41.4663917" lon="15.5179817"><ele>76.66666666666667</ele><time>2026-04-19T06:22:06.996Z</time></trkpt><trkpt lat="41.4664833" lon="15.51802"><ele>76.5</ele><time>2026-04-19T06:22:07.996Z</time></trkpt><trkpt lat="41.4665683" lon="15.5180567"><ele>76.33333333333333</ele><time>2026-04-19T06:22:08.996Z</time></trkpt><trkpt lat="41.466645" lon="15.5180967"><ele>76.16666666666666</ele><time>2026-04-19T06:22:09.996Z</time></trkpt><trkpt lat="41.4667117" lon="15.5181417"><ele>76.0</ele><time>2026-04-19T06:22:10.996Z</time></trkpt><trkpt lat="41.4667683" lon="15.5182033"><ele>76.0</ele><time>2026-04-19T06:22:11.996Z</time></trkpt><trkpt lat="41.4668217" lon="15.5182633"><ele>76.0</ele><time>2026-04-19T06:22:12.996Z</time></trkpt><trkpt lat="41.46688" lon="15.518315"><ele>76.0</ele><time>2026-04-19T06:22:13.996Z</time></trkpt><trkpt lat="41.4669433" lon="15.5183467"><ele>76.0</ele><time>2026-04-19T06:22:14.996Z</time></trkpt><trkpt lat="41.4670133" lon="15.5183583"><ele>76.0</ele><time>2026-04-19T06:22:15.996Z</time></trkpt><trkpt lat="41.4670917" lon="15.518355"><ele>76.0</ele><time>2026-04-19T06:22:16.996Z</time></trkpt><trkpt lat="41.4671817" lon="15.5183467"><ele>76.0</ele><time>2026-04-19T06:22:17.996Z</time></trkpt><trkpt lat="41.4672767" lon="15.5183467"><ele>76.39999999999999</ele><time>2026-04-19T06:22:18.996Z</time></trkpt><trkpt lat="41.4673767" lon="15.5183617"><ele>76.8</ele><time>2026-04-19T06:22:19.997Z</time></trkpt><trkpt lat="41.4674783" lon="15.51839"><ele>77.19999999999999</ele><time>2026-04-19T06:22:20.996Z</time></trkpt><trkpt lat="41.4675833" lon="15.5184267"><ele>77.6</ele><time>2026-04-19T06:22:21.996Z</time></trkpt><trkpt lat="41.4676917" lon="15.5184667"><ele>78.0</ele><time>2026-04-19T06:22:22.996Z</time></trkpt><trkpt lat="41.4678017" lon="15.518505"><ele>78.0</ele><time>2026-04-19T06:22:23.996Z</time></trkpt><trkpt lat="41.467915" lon="15.5185433"><ele>78.0</ele><time>2026-04-19T06:22:24.997Z</time></trkpt><trkpt lat="41.46803" lon="15.518585"><ele>78.0</ele><time>2026-04-19T06:22:25.996Z</time></trkpt><trkpt lat="41.468145" lon="15.5186283"><ele>78.0</ele><time>2026-04-19T06:22:26.996Z</time></trkpt><trkpt lat="41.4682567" lon="15.5186667"><ele>77.6</ele><time>2026-04-19T06:22:27.996Z</time></trkpt><trkpt lat="41.4683633" lon="15.5187017"><ele>77.19999999999999</ele><time>2026-04-19T06:22:28.996Z</time></trkpt><trkpt lat="41.46846" lon="15.5187367"><ele>76.8</ele><time>2026-04-19T06:22:29.996Z</time></trkpt><trkpt lat="41.4685517" lon="15.5187683"><ele>76.39999999999999</ele><time>2026-04-19T06:22:30.996Z</time></trkpt><trkpt lat="41.4686367" lon="15.5188017"><ele>76.0</ele><time>2026-04-19T06:22:31.996Z</time></trkpt><trkpt lat="41.468715" lon="15.5188317"><ele>75.85714285714285</ele><time>2026-04-19T06:22:32.996Z</time></trkpt><trkpt lat="41.46879" lon="15.5188567"><ele>75.71428571428572</ele><time>2026-04-19T06:22:33.996Z</time></trkpt><trkpt lat="41.4688583" lon="15.5188917"><ele>75.57142857142857</ele><time>2026-04-19T06:22:34.996Z</time></trkpt><trkpt lat="41.46892" lon="15.5189433"><ele>75.42857142857142</ele><time>2026-04-19T06:22:35.996Z</time></trkpt><trkpt lat="41.468975" lon="15.51901"><ele>75.28571428571428</ele><time>2026-04-19T06:22:36.996Z</time></trkpt><trkpt lat="41.46903" lon="15.5190783"><ele>75.14285714285714</ele><time>2026-04-19T06:22:37.996Z</time></trkpt><trkpt lat="41.469085" lon="15.5191317"><ele>75.0</ele><time>2026-04-19T06:22:38.996Z</time></trkpt><trkpt lat="41.4691483" lon="15.519165"><ele>75.0</ele><time>2026-04-19T06:22:39.996Z</time></trkpt><trkpt lat="41.4692133" lon="15.5191767"><ele>75.0</ele><time>2026-04-19T06:22:40.996Z</time></trkpt><trkpt lat="41.4692767" lon="15.5191633"><ele>75.0</ele><time>2026-04-19T06:22:41.996Z</time></trkpt><trkpt lat="41.4693333" lon="15.51912"><ele>75.0</ele><time>2026-04-19T06:22:42.997Z</time></trkpt><trkpt lat="41.4693767" lon="15.5190567"><ele>75.0</ele><time>2026-04-19T06:22:43.996Z</time></trkpt><trkpt lat="41.4694117" lon="15.5188967"><ele>75.0</ele><time>2026-04-19T06:22:45.996Z</time></trkpt><trkpt lat="41.4693933" lon="15.518735"><ele>74.66666666666667</ele><time>2026-04-19T06:22:47.996Z</time></trkpt><trkpt lat="41.469355" lon="15.5185883"><ele>74.33333333333333</ele><time>2026-04-19T06:22:49.996Z</time></trkpt><trkpt lat="41.4693383" lon="15.518505"><ele>74.0</ele><time>2026-04-19T06:22:50.996Z</time></trkpt><trkpt lat="41.469335" lon="15.5184117"><ele>73.66666666666666</ele><time>2026-04-19T06:22:51.996Z</time></trkpt><trkpt lat="41.4693483" lon="15.5183067"><ele>73.33333333333333</ele><time>2026-04-19T06:22:52.996Z</time></trkpt><trkpt lat="41.4693717" lon="15.5181933"><ele>73.0</ele><time>2026-04-19T06:22:53.997Z</time></trkpt><trkpt lat="41.4693983" lon="15.51807"><ele>73.0</ele><time>2026-04-19T06:22:54.997Z</time></trkpt><trkpt lat="41.4694283" lon="15.517935"><ele>73.0</ele><time>2026-04-19T06:22:55.996Z</time></trkpt><trkpt lat="41.4694583" lon="15.5177917"><ele>73.0</ele><time>2026-04-19T06:22:56.996Z</time></trkpt><trkpt lat="41.4694883" lon="15.5176417"><ele>73.0</ele><time>2026-04-19T06:22:57.996Z</time></trkpt><trkpt lat="41.4695167" lon="15.5174867"><ele>73.5</ele><time>2026-04-19T06:22:58.996Z</time></trkpt><trkpt lat="41.4695467" lon="15.517325"><ele>74.0</ele><time>2026-04-19T06:22:59.996Z</time></trkpt><trkpt lat="41.4695767" lon="15.5171617"><ele>74.5</ele><time>2026-04-19T06:23:00.996Z</time></trkpt><trkpt lat="41.4696117" lon="15.516995"><ele>75.0</ele><time>2026-04-19T06:23:01.996Z</time></trkpt><trkpt lat="41.4696433" lon="15.516825"><ele>75.25</ele><time>2026-04-19T06:23:02.996Z</time></trkpt><trkpt lat="41.4696767" lon="15.5166533"><ele>75.5</ele><time>2026-04-19T06:23:03.996Z</time></trkpt><trkpt lat="41.4697117" lon="15.5164783"><ele>75.75</ele><time>2026-04-19T06:23:04.997Z</time></trkpt><trkpt lat="41.4697467" lon="15.5163033"><ele>76.0</ele><time>2026-04-19T06:23:05.997Z</time></trkpt><trkpt lat="41.4697817" lon="15.516125"><ele>76.0</ele><time>2026-04-19T06:23:06.996Z</time></trkpt><trkpt lat="41.4698183" lon="15.51595"><ele>76.0</ele><time>2026-04-19T06:23:07.996Z</time></trkpt><trkpt lat="41.4698533" lon="15.5157767"><ele>76.0</ele><time>2026-04-19T06:23:08.996Z</time></trkpt><trkpt lat="41.4698867" lon="15.5156"><ele>76.0</ele><time>2026-04-19T06:23:09.997Z</time></trkpt><trkpt lat="41.469925" lon="15.5154217"><ele>75.75</ele><time>2026-04-19T06:23:10.997Z</time></trkpt><trkpt lat="41.4699583" lon="15.5152433"><ele>75.5</ele><time>2026-04-19T06:23:11.996Z</time></trkpt><trkpt lat="41.4699933" lon="15.5150633"><ele>75.25</ele><time>2026-04-19T06:23:12.996Z</time></trkpt><trkpt lat="41.4700333" lon="15.514885"><ele>75.0</ele><time>2026-04-19T06:23:13.996Z</time></trkpt><trkpt lat="41.4700733" lon="15.5147067"><ele>74.75</ele><time>2026-04-19T06:23:14.997Z</time></trkpt><trkpt lat="41.4701083" lon="15.514525"><ele>74.5</ele><time>2026-04-19T06:23:15.996Z</time></trkpt><trkpt lat="41.4701417" lon="15.5143467"><ele>74.25</ele><time>2026-04-19T06:23:16.996Z</time></trkpt><trkpt lat="41.4701767" lon="15.5141683"><ele>74.0</ele><time>2026-04-19T06:23:17.996Z</time></trkpt><trkpt lat="41.4702117" lon="15.5139933"><ele>74.0</ele><time>2026-04-19T06:23:18.996Z</time></trkpt><trkpt lat="41.470245" lon="15.5138217"><ele>74.0</ele><time>2026-04-19T06:23:19.996Z</time></trkpt><trkpt lat="41.470275" lon="15.51366"><ele>74.0</ele><time>2026-04-19T06:23:20.996Z</time></trkpt><trkpt lat="41.470305" lon="15.5135083"><ele>74.0</ele><time>2026-04-19T06:23:21.997Z</time></trkpt><trkpt lat="41.4703383" lon="15.5133683"><ele>74.0</ele><time>2026-04-19T06:23:22.996Z</time></trkpt><trkpt lat="41.470365" lon="15.5132367"><ele>74.0</ele><time>2026-04-19T06:23:23.996Z</time></trkpt><trkpt lat="41.4703833" lon="15.513115"><ele>74.0</ele><time>2026-04-19T06:23:24.997Z</time></trkpt><trkpt lat="41.4704067" lon="15.5130033"><ele>74.0</ele><time>2026-04-19T06:23:25.996Z</time></trkpt><trkpt lat="41.4704283" lon="15.5129067"><ele>74.0</ele><time>2026-04-19T06:23:26.996Z</time></trkpt><trkpt lat="41.4704483" lon="15.5128233"><ele>74.0</ele><time>2026-04-19T06:23:27.997Z</time></trkpt><trkpt lat="41.4704867" lon="15.51269"><ele>74.33333333333334</ele><time>2026-04-19T06:23:29.996Z</time></trkpt><trkpt lat="41.47053" lon="15.5125967"><ele>74.66666666666667</ele><time>2026-04-19T06:23:31.996Z</time></trkpt><trkpt lat="41.4705783" lon="15.512525"><ele>75.0</ele><time>2026-04-19T06:23:33.996Z</time></trkpt><trkpt lat="41.4706333" lon="15.5124367"><ele>75.33333333333333</ele><time>2026-04-19T06:23:36.996Z</time></trkpt><trkpt lat="41.470705" lon="15.5123533"><ele>75.66666666666666</ele><time>2026-04-19T06:23:39.996Z</time></trkpt><trkpt lat="41.4707417" lon="15.51225"><ele>76.0</ele><time>2026-04-19T06:23:41.996Z</time></trkpt><trkpt lat="41.4707833" lon="15.5121667"><ele>76.16666666666666</ele><time>2026-04-19T06:23:43.996Z</time></trkpt><trkpt lat="41.470785" lon="15.5120317"><ele>76.33333333333333</ele><time>2026-04-19T06:32:15.996Z</time></trkpt><trkpt lat="41.4707233" lon="15.511965"><ele>76.5</ele><time>2026-04-19T06:32:18.996Z</time></trkpt><trkpt lat="41.4706733" lon="15.5118817"><ele>76.66666666666667</ele><time>2026-04-19T06:32:20.996Z</time></trkpt><trkpt lat="41.4706383" lon="15.5117917"><ele>76.83333333333334</ele><time>2026-04-19T06:32:22.997Z</time></trkpt><trkpt lat="41.4706633" lon="15.5116533"><ele>77.0</ele><time>2026-04-19T06:32:24.996Z</time></trkpt><trkpt lat="41.4706917" lon="15.5115"><ele>77.0</ele><time>2026-04-19T06:32:26.996Z</time></trkpt><trkpt lat="41.470715" lon="15.5113333"><ele>77.0</ele><time>2026-04-19T06:32:28.996Z</time></trkpt><trkpt lat="41.4707283" lon="15.5112333"><ele>77.0</ele><time>2026-04-19T06:32:29.996Z</time></trkpt><trkpt lat="41.470745" lon="15.51113"><ele>77.0</ele><time>2026-04-19T06:32:30.996Z</time></trkpt><trkpt lat="41.4707633" lon="15.5110217"><ele>77.0</ele><time>2026-04-19T06:32:31.996Z</time></trkpt><trkpt lat="41.470785" lon="15.5109117"><ele>77.0</ele><time>2026-04-19T06:32:32.996Z</time></trkpt><trkpt lat="41.4708117" lon="15.5107983"><ele>77.0</ele><time>2026-04-19T06:32:33.996Z</time></trkpt><trkpt lat="41.4708383" lon="15.51068"><ele>77.0</ele><time>2026-04-19T06:32:34.996Z</time></trkpt><trkpt lat="41.4708617" lon="15.5105567"><ele>77.0</ele><time>2026-04-19T06:32:35.996Z</time></trkpt><trkpt lat="41.4708867" lon="15.5104367"><ele>77.0</ele><time>2026-04-19T06:32:36.996Z</time></trkpt><trkpt lat="41.47091" lon="15.5103267"><ele>77.0</ele><time>2026-04-19T06:32:37.997Z</time></trkpt><trkpt lat="41.4709333" lon="15.510225"><ele>77.0</ele><time>2026-04-19T06:32:38.997Z</time></trkpt><trkpt lat="41.4709517" lon="15.5101233"><ele>77.0</ele><time>2026-04-19T06:32:39.996Z</time></trkpt><trkpt lat="41.470975" lon="15.5100217"><ele>77.0</ele><time>2026-04-19T06:32:40.996Z</time></trkpt><trkpt lat="41.471" lon="15.50992"><ele>77.0</ele><time>2026-04-19T06:32:41.996Z</time></trkpt><trkpt lat="41.4710233" lon="15.5098217"><ele>77.0</ele><time>2026-04-19T06:32:42.996Z</time></trkpt><trkpt lat="41.4710417" lon="15.50973"><ele>77.0</ele><time>2026-04-19T06:32:43.996Z</time></trkpt><trkpt lat="41.4710783" lon="15.5095783"><ele>77.0</ele><time>2026-04-19T06:32:45.996Z</time></trkpt><trkpt lat="41.4711317" lon="15.5094367"><ele>77.0</ele><time>2026-04-19T06:32:47.997Z</time></trkpt><trkpt lat="41.4711667" lon="15.5093633"><ele>77.0</ele><time>2026-04-19T06:32:48.996Z</time></trkpt><trkpt lat="41.4712067" lon="15.50929"><ele>77.0</ele><time>2026-04-19T06:32:49.996Z</time></trkpt><trkpt lat="41.47126" lon="15.5092183"><ele>77.0</ele><time>2026-04-19T06:32:50.996Z</time></trkpt><trkpt lat="41.4713283" lon="15.50915"><ele>77.0</ele><time>2026-04-19T06:32:51.996Z</time></trkpt><trkpt lat="41.4714033" lon="15.5090817"><ele>77.0</ele><time>2026-04-19T06:32:52.996Z</time></trkpt><trkpt lat="41.4714883" lon="15.5090167"><ele>77.0</ele><time>2026-04-19T06:32:53.996Z</time></trkpt><trkpt lat="41.47158" lon="15.50896"><ele>77.0</ele><time>2026-04-19T06:32:54.996Z</time></trkpt><trkpt lat="41.4716767" lon="15.5089083"><ele>77.0</ele><time>2026-04-19T06:32:55.996Z</time></trkpt><trkpt lat="41.4717717" lon="15.50886"><ele>77.0</ele><time>2026-04-19T06:32:56.997Z</time></trkpt><trkpt lat="41.47186" lon="15.50881"><ele>77.0</ele><time>2026-04-19T06:32:57.997Z</time></trkpt><trkpt lat="41.4719417" lon="15.508765"><ele>77.0</ele><time>2026-04-19T06:32:58.996Z</time></trkpt><trkpt lat="41.47202" lon="15.5087283"><ele>77.0</ele><time>2026-04-19T06:32:59.996Z</time></trkpt><trkpt lat="41.472095" lon="15.5086983"><ele>77.0</ele><time>2026-04-19T06:33:00.996Z</time></trkpt><trkpt lat="41.472175" lon="15.5086767"><ele>77.0</ele><time>2026-04-19T06:33:01.996Z</time></trkpt><trkpt lat="41.4722583" lon="15.5086617"><ele>77.4</ele><time>2026-04-19T06:33:02.996Z</time></trkpt><trkpt lat="41.4723433" lon="15.5086667"><ele>77.80000000000001</ele><time>2026-04-19T06:33:03.996Z</time></trkpt><trkpt lat="41.4724333" lon="15.5087"><ele>78.2</ele><time>2026-04-19T06:33:04.996Z</time></trkpt><trkpt lat="41.47253" lon="15.50873"><ele>78.60000000000001</ele><time>2026-04-19T06:33:05.996Z</time></trkpt><trkpt lat="41.47263" lon="15.5087633"><ele>79.0</ele><time>2026-04-19T06:33:06.997Z</time></trkpt><trkpt lat="41.4727333" lon="15.5087967"><ele>79.0</ele><time>2026-04-19T06:33:07.996Z</time></trkpt><trkpt lat="41.4728333" lon="15.5088317"><ele>79.0</ele><time>2026-04-19T06:33:08.996Z</time></trkpt><trkpt lat="41.4729333" lon="15.5088633"><ele>79.0</ele><time>2026-04-19T06:33:09.997Z</time></trkpt><trkpt lat="41.47303" lon="15.5089"><ele>79.0</ele><time>2026-04-19T06:33:10.996Z</time></trkpt><trkpt lat="41.473125" lon="15.508935"><ele>79.0</ele><time>2026-04-19T06:33:11.997Z</time></trkpt><trkpt lat="41.4732167" lon="15.5089633"><ele>78.60000000000001</ele><time>2026-04-19T06:33:12.996Z</time></trkpt><trkpt lat="41.4733083" lon="15.5089933"><ele>78.2</ele><time>2026-04-19T06:33:13.996Z</time></trkpt><trkpt lat="41.4734" lon="15.50903"><ele>77.80000000000001</ele><time>2026-04-19T06:33:14.996Z</time></trkpt><trkpt lat="41.4734917" lon="15.5090733"><ele>77.4</ele><time>2026-04-19T06:33:15.996Z</time></trkpt><trkpt lat="41.4735783" lon="15.5091083"><ele>77.0</ele><time>2026-04-19T06:33:16.996Z</time></trkpt><trkpt lat="41.4736683" lon="15.5091333"><ele>77.0</ele><time>2026-04-19T06:33:17.996Z</time></trkpt><trkpt lat="41.47376" lon="15.5091517"><ele>77.0</ele><time>2026-04-19T06:33:18.996Z</time></trkpt><trkpt lat="41.4738533" lon="15.5091683"><ele>77.0</ele><time>2026-04-19T06:33:19.996Z</time></trkpt><trkpt lat="41.4739483" lon="15.5091833"><ele>77.0</ele><time>2026-04-19T06:33:20.996Z</time></trkpt><trkpt lat="41.4740417" lon="15.5092"><ele>77.0</ele><time>2026-04-19T06:33:21.997Z</time></trkpt><trkpt lat="41.4741283" lon="15.5092167"><ele>76.4</ele><time>2026-04-19T06:33:22.996Z</time></trkpt><trkpt lat="41.474215" lon="15.5092333"><ele>75.80000000000001</ele><time>2026-04-19T06:33:23.996Z</time></trkpt><trkpt lat="41.4743" lon="15.5092567"><ele>75.2</ele><time>2026-04-19T06:33:24.996Z</time></trkpt><trkpt lat="41.4743867" lon="15.5092867"><ele>74.60000000000001</ele><time>2026-04-19T06:33:25.996Z</time></trkpt><trkpt lat="41.4744783" lon="15.5093217"><ele>74.0</ele><time>2026-04-19T06:33:26.997Z</time></trkpt><trkpt lat="41.4745767" lon="15.509365"><ele>74.0</ele><time>2026-04-19T06:33:27.996Z</time></trkpt><trkpt lat="41.4746783" lon="15.5094167"><ele>74.0</ele><time>2026-04-19T06:33:28.997Z</time></trkpt><trkpt lat="41.4747833" lon="15.5094717"><ele>74.0</ele><time>2026-04-19T06:33:29.997Z</time></trkpt><trkpt lat="41.4748883" lon="15.5095233"><ele>74.0</ele><time>2026-04-19T06:33:30.996Z</time></trkpt><trkpt lat="41.4749883" lon="15.50957"><ele>74.0</ele><time>2026-04-19T06:33:31.996Z</time></trkpt><trkpt lat="41.4750783" lon="15.5096167"><ele>73.83333333333334</ele><time>2026-04-19T06:33:32.996Z</time></trkpt><trkpt lat="41.47516" lon="15.5096633"><ele>73.66666666666667</ele><time>2026-04-19T06:33:33.996Z</time></trkpt><trkpt lat="41.4752333" lon="15.50971"><ele>73.5</ele><time>2026-04-19T06:33:34.996Z</time></trkpt><trkpt lat="41.4753067" lon="15.5097483"><ele>73.33333333333333</ele><time>2026-04-19T06:33:35.996Z</time></trkpt><trkpt lat="41.4753733" lon="15.50979"><ele>73.16666666666666</ele><time>2026-04-19T06:33:36.996Z</time></trkpt><trkpt lat="41.4754317" lon="15.5098267"><ele>73.0</ele><time>2026-04-19T06:33:37.996Z</time></trkpt><trkpt lat="41.4755017" lon="15.5098817"><ele>72.8</ele><time>2026-04-19T06:33:39.996Z</time></trkpt><trkpt lat="41.4756429" lon="15.509961"><ele>72.6</ele><time>2026-04-19T06:34:10.996Z</time></trkpt><trkpt lat="41.4757341" lon="15.51002"><ele>72.4</ele><time>2026-04-19T06:34:11.996Z</time></trkpt><trkpt lat="41.4758175" lon="15.5100823"><ele>72.2</ele><time>2026-04-19T06:34:12.996Z</time></trkpt><trkpt lat="41.4759042" lon="15.5101461"><ele>72.0</ele><time>2026-04-19T06:34:13.997Z</time></trkpt><trkpt lat="41.475997" lon="15.5102203"><ele>72.0</ele><time>2026-04-19T06:34:14.997Z</time></trkpt><trkpt lat="41.4760984" lon="15.5103074"><ele>72.0</ele><time>2026-04-19T06:34:15.996Z</time></trkpt><trkpt lat="41.4762089" lon="15.5104042"><ele>72.0</ele><time>2026-04-19T06:34:16.997Z</time></trkpt><trkpt lat="41.4763256" lon="15.5105079"><ele>72.0</ele><time>2026-04-19T06:34:17.997Z</time></trkpt><trkpt lat="41.4764447" lon="15.5106234"><ele>72.0</ele><time>2026-04-19T06:34:18.998Z</time></trkpt><trkpt lat="41.4765677" lon="15.5107465"><ele>72.0</ele><time>2026-04-19T06:34:19.998Z</time></trkpt><trkpt lat="41.4766944" lon="15.5108812"><ele>72.0</ele><time>2026-04-19T06:34:20.997Z</time></trkpt><trkpt lat="41.4768244" lon="15.5110249"><ele>72.0</ele><time>2026-04-19T06:34:21.997Z</time></trkpt><trkpt lat="41.4769574" lon="15.5111749"><ele>72.0</ele><time>2026-04-19T06:34:22.997Z</time></trkpt><trkpt lat="41.4770885" lon="15.5113328"><ele>72.0</ele><time>2026-04-19T06:34:23.997Z</time></trkpt><trkpt lat="41.4772211" lon="15.5114909"><ele>71.66666666666667</ele><time>2026-04-19T06:34:24.998Z</time></trkpt><trkpt lat="41.4773491" lon="15.5116518"><ele>71.33333333333334</ele><time>2026-04-19T06:34:25.997Z</time></trkpt><trkpt lat="41.4774773" lon="15.511809"><ele>71.0</ele><time>2026-04-19T06:34:26.997Z</time></trkpt><trkpt lat="41.4776056" lon="15.5119639"><ele>71.0</ele><time>2026-04-19T06:34:27.997Z</time></trkpt><trkpt lat="41.4777336" lon="15.5121208"><ele>71.0</ele><time>2026-04-19T06:34:28.997Z</time></trkpt><trkpt lat="41.4778605" lon="15.5122803"><ele>71.0</ele><time>2026-04-19T06:34:29.997Z</time></trkpt><trkpt lat="41.4779871" lon="15.5124412"><ele>71.0</ele><time>2026-04-19T06:34:30.997Z</time></trkpt><trkpt lat="41.4781115" lon="15.5125994"><ele>71.0</ele><time>2026-04-19T06:34:31.998Z</time></trkpt><trkpt lat="41.4782356" lon="15.5127559"><ele>71.0</ele><time>2026-04-19T06:34:32.998Z</time></trkpt><trkpt lat="41.47836" lon="15.5129147"><ele>71.0</ele><time>2026-04-19T06:34:33.997Z</time></trkpt><trkpt lat="41.4784836" lon="15.5130772"><ele>71.0</ele><time>2026-04-19T06:34:34.997Z</time></trkpt><trkpt lat="41.4786105" lon="15.5132403"><ele>71.0</ele><time>2026-04-19T06:34:35.997Z</time></trkpt><trkpt lat="41.4787389" lon="15.513404"><ele>70.66666666666667</ele><time>2026-04-19T06:34:36.997Z</time></trkpt><trkpt lat="41.478869" lon="15.5135662"><ele>70.33333333333333</ele><time>2026-04-19T06:34:37.997Z</time></trkpt><trkpt lat="41.4790007" lon="15.513728"><ele>70.0</ele><time>2026-04-19T06:34:38.998Z</time></trkpt><trkpt lat="41.4791327" lon="15.5138892"><ele>70.0</ele><time>2026-04-19T06:34:39.997Z</time></trkpt><trkpt lat="41.4792642" lon="15.5140503"><ele>70.0</ele><time>2026-04-19T06:34:40.997Z</time></trkpt><trkpt lat="41.4793948" lon="15.5142129"><ele>70.0</ele><time>2026-04-19T06:34:41.997Z</time></trkpt><trkpt lat="41.4795273" lon="15.5143764"><ele>69.66666666666666</ele><time>2026-04-19T06:34:42.997Z</time></trkpt><trkpt lat="41.4796597" lon="15.5145413"><ele>69.33333333333333</ele><time>2026-04-19T06:34:43.997Z</time></trkpt><trkpt lat="41.4797928" lon="15.514704"><ele>69.0</ele><time>2026-04-19T06:34:44.997Z</time></trkpt><trkpt lat="41.4799255" lon="15.5148655"><ele>69.0</ele><time>2026-04-19T06:34:45.997Z</time></trkpt><trkpt lat="41.480057" lon="15.515029"><ele>69.0</ele><time>2026-04-19T06:34:46.998Z</time></trkpt><trkpt lat="41.4801892" lon="15.5151956"><ele>69.0</ele><time>2026-04-19T06:34:47.997Z</time></trkpt><trkpt lat="41.4803221" lon="15.5153638"><ele>68.66666666666667</ele><time>2026-04-19T06:34:48.997Z</time></trkpt><trkpt lat="41.4804546" lon="15.5155301"><ele>68.33333333333334</ele><time>2026-04-19T06:34:49.996Z</time></trkpt><trkpt lat="41.4805868" lon="15.5156944"><ele>68.0</ele><time>2026-04-19T06:34:50.997Z</time></trkpt><trkpt lat="41.4807164" lon="15.5158588"><ele>68.0</ele><time>2026-04-19T06:34:51.997Z</time></trkpt><trkpt lat="41.4808435" lon="15.5160229"><ele>68.0</ele><time>2026-04-19T06:34:52.996Z</time></trkpt><trkpt lat="41.480971" lon="15.5161887"><ele>68.0</ele><time>2026-04-19T06:34:53.996Z</time></trkpt><trkpt lat="41.4811018" lon="15.5163534"><ele>68.0</ele><time>2026-04-19T06:34:54.996Z</time></trkpt><trkpt lat="41.4812345" lon="15.5165195"><ele>68.0</ele><time>2026-04-19T06:34:55.997Z</time></trkpt><trkpt lat="41.4813682" lon="15.5166872"><ele>68.0</ele><time>2026-04-19T06:34:56.996Z</time></trkpt><trkpt lat="41.4815028" lon="15.5168555"><ele>67.66666666666667</ele><time>2026-04-19T06:34:57.996Z</time></trkpt><trkpt lat="41.4816387" lon="15.5170229"><ele>67.33333333333333</ele><time>2026-04-19T06:34:58.996Z</time></trkpt><trkpt lat="41.4817753" lon="15.5171892"><ele>67.0</ele><time>2026-04-19T06:34:59.997Z</time></trkpt><trkpt lat="41.4819092" lon="15.5173569"><ele>67.0</ele><time>2026-04-19T06:35:00.996Z</time></trkpt><trkpt lat="41.4820395" lon="15.5175267"><ele>67.0</ele><time>2026-04-19T06:35:01.996Z</time></trkpt><trkpt lat="41.4821696" lon="15.5176992"><ele>67.0</ele><time>2026-04-19T06:35:02.996Z</time></trkpt><trkpt lat="41.4823006" lon="15.5178727"><ele>66.33333333333333</ele><time>2026-04-19T06:35:03.996Z</time></trkpt><trkpt lat="41.4824356" lon="15.5180423"><ele>65.66666666666667</ele><time>2026-04-19T06:35:04.997Z</time></trkpt><trkpt lat="41.4825722" lon="15.5182092"><ele>65.0</ele><time>2026-04-19T06:35:05.996Z</time></trkpt><trkpt lat="41.4827061" lon="15.5183764"><ele>65.0</ele><time>2026-04-19T06:35:06.996Z</time></trkpt><trkpt lat="41.4828394" lon="15.518545"><ele>65.0</ele><time>2026-04-19T06:35:07.997Z</time></trkpt><trkpt lat="41.4829709" lon="15.5187135"><ele>65.0</ele><time>2026-04-19T06:35:08.996Z</time></trkpt><trkpt lat="41.4831034" lon="15.518882"><ele>64.66666666666667</ele><time>2026-04-19T06:35:09.996Z</time></trkpt><trkpt lat="41.4832354" lon="15.5190473"><ele>64.33333333333333</ele><time>2026-04-19T06:35:10.996Z</time></trkpt><trkpt lat="41.4833658" lon="15.5192117"><ele>64.0</ele><time>2026-04-19T06:35:11.996Z</time></trkpt><trkpt lat="41.4834946" lon="15.5193718"><ele>64.0</ele><time>2026-04-19T06:35:12.996Z</time></trkpt><trkpt lat="41.4836225" lon="15.519529"><ele>64.0</ele><time>2026-04-19T06:35:13.996Z</time></trkpt><trkpt lat="41.483748" lon="15.5196847"><ele>64.0</ele><time>2026-04-19T06:35:14.996Z</time></trkpt><trkpt lat="41.4838727" lon="15.5198382"><ele>64.33333333333333</ele><time>2026-04-19T06:35:15.996Z</time></trkpt><trkpt lat="41.4839986" lon="15.5199885"><ele>64.66666666666667</ele><time>2026-04-19T06:35:16.997Z</time></trkpt><trkpt lat="41.4841208" lon="15.5201407"><ele>65.0</ele><time>2026-04-19T06:35:17.996Z</time></trkpt><trkpt lat="41.4842445" lon="15.5202936"><ele>65.0</ele><time>2026-04-19T06:35:18.997Z</time></trkpt><trkpt lat="41.4843724" lon="15.5204457"><ele>65.0</ele><time>2026-04-19T06:35:19.996Z</time></trkpt><trkpt lat="41.4845068" lon="15.5205964"><ele>65.0</ele><time>2026-04-19T06:35:20.996Z</time></trkpt><trkpt lat="41.4846467" lon="15.520742"><ele>65.0</ele><time>2026-04-19T06:35:21.996Z</time></trkpt><trkpt lat="41.4847908" lon="15.5208834"><ele>65.0</ele><time>2026-04-19T06:35:22.996Z</time></trkpt><trkpt lat="41.4849389" lon="15.5210215"><ele>65.0</ele><time>2026-04-19T06:35:23.996Z</time></trkpt><trkpt lat="41.4850914" lon="15.5211577"><ele>64.66666666666667</ele><time>2026-04-19T06:35:24.996Z</time></trkpt><trkpt lat="41.4852441" lon="15.5212888"><ele>64.33333333333333</ele><time>2026-04-19T06:35:25.996Z</time></trkpt><trkpt lat="41.4853965" lon="15.5214159"><ele>64.0</ele><time>2026-04-19T06:35:26.996Z</time></trkpt><trkpt lat="41.4855496" lon="15.5215403"><ele>64.0</ele><time>2026-04-19T06:35:27.996Z</time></trkpt><trkpt lat="41.4857052" lon="15.5216609"><ele>64.0</ele><time>2026-04-19T06:35:28.996Z</time></trkpt><trkpt lat="41.485862" lon="15.5217758"><ele>64.0</ele><time>2026-04-19T06:35:29.996Z</time></trkpt><trkpt lat="41.486017" lon="15.5218833"><ele>64.0</ele><time>2026-04-19T06:35:30.996Z</time></trkpt><trkpt lat="41.4861725" lon="15.5219828"><ele>64.0</ele><time>2026-04-19T06:35:31.996Z</time></trkpt><trkpt lat="41.4863267" lon="15.5220786"><ele>64.0</ele><time>2026-04-19T06:35:32.997Z</time></trkpt><trkpt lat="41.486482" lon="15.5221725"><ele>64.0</ele><time>2026-04-19T06:35:33.996Z</time></trkpt><trkpt lat="41.4866423" lon="15.5222585"><ele>64.0</ele><time>2026-04-19T06:35:34.996Z</time></trkpt><trkpt lat="41.4868057" lon="15.5223394"><ele>64.0</ele><time>2026-04-19T06:35:35.996Z</time></trkpt><trkpt lat="41.48697" lon="15.5224182"><ele>64.0</ele><time>2026-04-19T06:35:36.996Z</time></trkpt><trkpt lat="41.4871354" lon="15.5224923"><ele>64.0</ele><time>2026-04-19T06:35:37.996Z</time></trkpt><trkpt lat="41.4873042" lon="15.5225604"><ele>64.0</ele><time>2026-04-19T06:35:38.996Z</time></trkpt><trkpt lat="41.4874749" lon="15.522624"><ele>64.0</ele><time>2026-04-19T06:35:39.996Z</time></trkpt><trkpt lat="41.4876471" lon="15.5226848"><ele>64.0</ele><time>2026-04-19T06:35:40.996Z</time></trkpt><trkpt lat="41.4878207" lon="15.5227402"><ele>64.0</ele><time>2026-04-19T06:35:41.996Z</time></trkpt><trkpt lat="41.4879955" lon="15.5227894"><ele>63.666666666666664</ele><time>2026-04-19T06:35:42.996Z</time></trkpt><trkpt lat="41.4881675" lon="15.5228311"><ele>63.33333333333333</ele><time>2026-04-19T06:35:43.996Z</time></trkpt><trkpt lat="41.4883354" lon="15.5228667"><ele>63.0</ele><time>2026-04-19T06:35:44.996Z</time></trkpt><trkpt lat="41.4885004" lon="15.522899"><ele>63.0</ele><time>2026-04-19T06:35:45.996Z</time></trkpt><trkpt lat="41.4886603" lon="15.5229242"><ele>63.0</ele><time>2026-04-19T06:35:46.997Z</time></trkpt><trkpt lat="41.4888184" lon="15.5229457"><ele>63.0</ele><time>2026-04-19T06:35:47.996Z</time></trkpt><trkpt lat="41.4889756" lon="15.5229668"><ele>63.0</ele><time>2026-04-19T06:35:48.997Z</time></trkpt><trkpt lat="41.4891329" lon="15.5229826"><ele>63.0</ele><time>2026-04-19T06:35:49.996Z</time></trkpt><trkpt lat="41.489292" lon="15.5229923"><ele>63.0</ele><time>2026-04-19T06:35:50.997Z</time></trkpt><trkpt lat="41.4894527" lon="15.5229996"><ele>63.0</ele><time>2026-04-19T06:35:51.996Z</time></trkpt><trkpt lat="41.4896131" lon="15.523004"><ele>63.0</ele><time>2026-04-19T06:35:52.996Z</time></trkpt><trkpt lat="41.4897685" lon="15.5230029"><ele>63.0</ele><time>2026-04-19T06:35:53.996Z</time></trkpt><trkpt lat="41.4899156" lon="15.5229938"><ele>63.0</ele><time>2026-04-19T06:35:54.996Z</time></trkpt><trkpt lat="41.4900548" lon="15.5229826"><ele>63.0</ele><time>2026-04-19T06:35:55.996Z</time></trkpt><trkpt lat="41.490186" lon="15.5229709"><ele>63.0</ele><time>2026-04-19T06:35:56.996Z</time></trkpt><trkpt lat="41.4903132" lon="15.5229612"><ele>63.0</ele><time>2026-04-19T06:35:57.996Z</time></trkpt><trkpt lat="41.4904408" lon="15.5229524"><ele>63.0</ele><time>2026-04-19T06:35:58.997Z</time></trkpt><trkpt lat="41.4905717" lon="15.5229435"><ele>63.0</ele><time>2026-04-19T06:35:59.996Z</time></trkpt><trkpt lat="41.4907078" lon="15.522928"><ele>63.0</ele><time>2026-04-19T06:36:00.996Z</time></trkpt><trkpt lat="41.4908463" lon="15.5229011"><ele>63.0</ele><time>2026-04-19T06:36:01.996Z</time></trkpt><trkpt lat="41.4909877" lon="15.5228684"><ele>63.25</ele><time>2026-04-19T06:36:02.996Z</time></trkpt><trkpt lat="41.4911264" lon="15.5228349"><ele>63.5</ele><time>2026-04-19T06:36:03.996Z</time></trkpt><trkpt lat="41.4912637" lon="15.5228004"><ele>63.75</ele><time>2026-04-19T06:36:04.996Z</time></trkpt><trkpt lat="41.4914024" lon="15.5227624"><ele>64.0</ele><time>2026-04-19T06:36:05.996Z</time></trkpt><trkpt lat="41.4915434" lon="15.522717"><ele>64.0</ele><time>2026-04-19T06:36:06.997Z</time></trkpt><trkpt lat="41.491689" lon="15.5226628"><ele>64.0</ele><time>2026-04-19T06:36:07.996Z</time></trkpt><trkpt lat="41.4918393" lon="15.5226009"><ele>64.0</ele><time>2026-04-19T06:36:08.996Z</time></trkpt><trkpt lat="41.4919958" lon="15.5225368"><ele>63.33333333333333</ele><time>2026-04-19T06:36:09.996Z</time></trkpt><trkpt lat="41.4921577" lon="15.5224638"><ele>62.66666666666667</ele><time>2026-04-19T06:36:10.996Z</time></trkpt><trkpt lat="41.4923177" lon="15.5223828"><ele>62.0</ele><time>2026-04-19T06:36:11.996Z</time></trkpt><trkpt lat="41.4924761" lon="15.5222898"><ele>62.0</ele><time>2026-04-19T06:36:12.996Z</time></trkpt><trkpt lat="41.4926338" lon="15.5221857"><ele>62.0</ele><time>2026-04-19T06:36:13.996Z</time></trkpt><trkpt lat="41.4927922" lon="15.5220813"><ele>62.0</ele><time>2026-04-19T06:36:14.996Z</time></trkpt><trkpt lat="41.4929503" lon="15.5219804"><ele>62.333333333333336</ele><time>2026-04-19T06:36:15.996Z</time></trkpt><trkpt lat="41.4931086" lon="15.521879"><ele>62.66666666666667</ele><time>2026-04-19T06:36:16.997Z</time></trkpt><trkpt lat="41.4932673" lon="15.5217772"><ele>63.0</ele><time>2026-04-19T06:36:17.997Z</time></trkpt><trkpt lat="41.4934268" lon="15.5216763"><ele>63.0</ele><time>2026-04-19T06:36:18.996Z</time></trkpt><trkpt lat="41.4935868" lon="15.5215776"><ele>63.0</ele><time>2026-04-19T06:36:19.996Z</time></trkpt><trkpt lat="41.4937486" lon="15.5214814"><ele>63.0</ele><time>2026-04-19T06:36:20.996Z</time></trkpt><trkpt lat="41.4939098" lon="15.5213866"><ele>63.0</ele><time>2026-04-19T06:36:21.996Z</time></trkpt><trkpt lat="41.4940685" lon="15.5212889"><ele>63.0</ele><time>2026-04-19T06:36:22.996Z</time></trkpt><trkpt lat="41.4942293" lon="15.5211941"><ele>63.0</ele><time>2026-04-19T06:36:23.996Z</time></trkpt><trkpt lat="41.4943929" lon="15.5211018"><ele>63.0</ele><time>2026-04-19T06:36:24.996Z</time></trkpt><trkpt lat="41.4945579" lon="15.5210123"><ele>63.0</ele><time>2026-04-19T06:36:25.996Z</time></trkpt><trkpt lat="41.4947239" lon="15.520923"><ele>63.0</ele><time>2026-04-19T06:36:26.997Z</time></trkpt><trkpt lat="41.4948894" lon="15.5208343"><ele>62.66666666666667</ele><time>2026-04-19T06:36:27.996Z</time></trkpt><trkpt lat="41.4950555" lon="15.520745"><ele>62.333333333333336</ele><time>2026-04-19T06:36:28.996Z</time></trkpt><trkpt lat="41.495221" lon="15.5206554"><ele>62.0</ele><time>2026-04-19T06:36:29.996Z</time></trkpt><trkpt lat="41.4953875" lon="15.5205689"><ele>62.0</ele><time>2026-04-19T06:36:30.996Z</time></trkpt><trkpt lat="41.4955529" lon="15.5204809"><ele>62.0</ele><time>2026-04-19T06:36:31.996Z</time></trkpt><trkpt lat="41.4957203" lon="15.5203951"><ele>62.0</ele><time>2026-04-19T06:36:32.996Z</time></trkpt><trkpt lat="41.4958874" lon="15.5203077"><ele>61.66666666666667</ele><time>2026-04-19T06:36:33.996Z</time></trkpt><trkpt lat="41.4960539" lon="15.5202207"><ele>61.33333333333333</ele><time>2026-04-19T06:36:34.996Z</time></trkpt><trkpt lat="41.4962193" lon="15.5201361"><ele>61.0</ele><time>2026-04-19T06:36:35.997Z</time></trkpt><trkpt lat="41.4963843" lon="15.5200517"><ele>61.0</ele><time>2026-04-19T06:36:36.996Z</time></trkpt><trkpt lat="41.4965491" lon="15.5199659"><ele>61.0</ele><time>2026-04-19T06:36:37.996Z</time></trkpt><trkpt lat="41.4967124" lon="15.5198798"><ele>61.0</ele><time>2026-04-19T06:36:38.996Z</time></trkpt><trkpt lat="41.4968755" lon="15.5197965"><ele>61.0</ele><time>2026-04-19T06:36:39.996Z</time></trkpt><trkpt lat="41.4970389" lon="15.5197133"><ele>61.0</ele><time>2026-04-19T06:36:40.996Z</time></trkpt><trkpt lat="41.4972021" lon="15.5196281"><ele>61.0</ele><time>2026-04-19T06:36:41.996Z</time></trkpt><trkpt lat="41.497363" lon="15.5195409"><ele>61.666666666666664</ele><time>2026-04-19T06:36:42.996Z</time></trkpt><trkpt lat="41.4975242" lon="15.519455"><ele>62.33333333333333</ele><time>2026-04-19T06:36:43.996Z</time></trkpt><trkpt lat="41.4976869" lon="15.5193704"><ele>63.0</ele><time>2026-04-19T06:36:44.996Z</time></trkpt><trkpt lat="41.4978523" lon="15.5192864"><ele>62.33333333333333</ele><time>2026-04-19T06:36:45.997Z</time></trkpt><trkpt lat="41.4980186" lon="15.5192026"><ele>61.666666666666664</ele><time>2026-04-19T06:36:46.997Z</time></trkpt><trkpt lat="41.4981863" lon="15.5191185"><ele>61.0</ele><time>2026-04-19T06:36:47.996Z</time></trkpt><trkpt lat="41.498353" lon="15.5190303"><ele>61.0</ele><time>2026-04-19T06:36:48.996Z</time></trkpt><trkpt lat="41.4985212" lon="15.518941"><ele>61.0</ele><time>2026-04-19T06:36:49.996Z</time></trkpt><trkpt lat="41.4986908" lon="15.5188527"><ele>61.0</ele><time>2026-04-19T06:36:50.996Z</time></trkpt><trkpt lat="41.49886" lon="15.5187655"><ele>61.33333333333333</ele><time>2026-04-19T06:36:51.996Z</time></trkpt><trkpt lat="41.4990277" lon="15.5186784"><ele>61.66666666666667</ele><time>2026-04-19T06:36:52.997Z</time></trkpt><trkpt lat="41.4991967" lon="15.5185899"><ele>62.0</ele><time>2026-04-19T06:36:53.996Z</time></trkpt><trkpt lat="41.4993656" lon="15.5185012"><ele>62.0</ele><time>2026-04-19T06:36:54.996Z</time></trkpt><trkpt lat="41.499534" lon="15.5184116"><ele>62.0</ele><time>2026-04-19T06:36:55.996Z</time></trkpt><trkpt lat="41.4997035" lon="15.5183239"><ele>62.0</ele><time>2026-04-19T06:36:56.996Z</time></trkpt><trkpt lat="41.4998737" lon="15.5182368"><ele>62.0</ele><time>2026-04-19T06:36:57.996Z</time></trkpt><trkpt lat="41.5000429" lon="15.5181479"><ele>62.0</ele><time>2026-04-19T06:36:58.996Z</time></trkpt><trkpt lat="41.5002133" lon="15.5180562"><ele>62.0</ele><time>2026-04-19T06:36:59.996Z</time></trkpt><trkpt lat="41.5003825" lon="15.5179643"><ele>61.66666666666667</ele><time>2026-04-19T06:37:00.997Z</time></trkpt><trkpt lat="41.5005521" lon="15.5178726"><ele>61.33333333333333</ele><time>2026-04-19T06:37:01.997Z</time></trkpt><trkpt lat="41.500722" lon="15.5177818"><ele>61.0</ele><time>2026-04-19T06:37:02.997Z</time></trkpt><trkpt lat="41.5008919" lon="15.5176925"><ele>61.0</ele><time>2026-04-19T06:37:03.996Z</time></trkpt><trkpt lat="41.5010607" lon="15.5176029"><ele>61.0</ele><time>2026-04-19T06:37:04.996Z</time></trkpt><trkpt lat="41.5012302" lon="15.517514"><ele>61.0</ele><time>2026-04-19T06:37:05.996Z</time></trkpt><trkpt lat="41.5014002" lon="15.5174257"><ele>61.0</ele><time>2026-04-19T06:37:06.996Z</time></trkpt><trkpt lat="41.5015707" lon="15.5173374"><ele>61.0</ele><time>2026-04-19T06:37:07.996Z</time></trkpt><trkpt lat="41.5017422" lon="15.5172491"><ele>61.0</ele><time>2026-04-19T06:37:08.996Z</time></trkpt><trkpt lat="41.5019163" lon="15.5171573"><ele>61.0</ele><time>2026-04-19T06:37:09.997Z</time></trkpt><trkpt lat="41.5020928" lon="15.5170641"><ele>61.0</ele><time>2026-04-19T06:37:10.996Z</time></trkpt><trkpt lat="41.5022725" lon="15.5169723"><ele>61.0</ele><time>2026-04-19T06:37:11.996Z</time></trkpt><trkpt lat="41.5024534" lon="15.5168781"><ele>61.0</ele><time>2026-04-19T06:37:12.996Z</time></trkpt><trkpt lat="41.5026364" lon="15.5167832"><ele>61.0</ele><time>2026-04-19T06:37:13.996Z</time></trkpt><trkpt lat="41.50282" lon="15.516689"><ele>61.0</ele><time>2026-04-19T06:37:14.996Z</time></trkpt><trkpt lat="41.5030038" lon="15.5165955"><ele>60.666666666666664</ele><time>2026-04-19T06:37:15.996Z</time></trkpt><trkpt lat="41.5031866" lon="15.5165031"><ele>60.33333333333333</ele><time>2026-04-19T06:37:16.996Z</time></trkpt><trkpt lat="41.5033693" lon="15.5164069"><ele>60.0</ele><time>2026-04-19T06:37:17.996Z</time></trkpt><trkpt lat="41.5035511" lon="15.516308"><ele>60.0</ele><time>2026-04-19T06:37:18.996Z</time></trkpt><trkpt lat="41.5037349" lon="15.5162113"><ele>60.0</ele><time>2026-04-19T06:37:19.996Z</time></trkpt><trkpt lat="41.5039188" lon="15.5161168"><ele>60.0</ele><time>2026-04-19T06:37:20.996Z</time></trkpt><trkpt lat="41.5041013" lon="15.5160213"><ele>60.0</ele><time>2026-04-19T06:37:21.996Z</time></trkpt><trkpt lat="41.5042843" lon="15.5159261"><ele>60.0</ele><time>2026-04-19T06:37:22.996Z</time></trkpt><trkpt lat="41.5044675" lon="15.5158288"><ele>60.0</ele><time>2026-04-19T06:37:23.996Z</time></trkpt><trkpt lat="41.5046506" lon="15.5157318"><ele>59.66666666666667</ele><time>2026-04-19T06:37:24.997Z</time></trkpt><trkpt lat="41.504833" lon="15.515636"><ele>59.333333333333336</ele><time>2026-04-19T06:37:25.996Z</time></trkpt><trkpt lat="41.505016" lon="15.515542"><ele>59.0</ele><time>2026-04-19T06:37:26.996Z</time></trkpt><trkpt lat="41.5051994" lon="15.5154473"><ele>59.333333333333336</ele><time>2026-04-19T06:37:27.996Z</time></trkpt><trkpt lat="41.5053849" lon="15.5153513"><ele>59.66666666666667</ele><time>2026-04-19T06:37:28.996Z</time></trkpt><trkpt lat="41.5055705" lon="15.5152548"><ele>60.0</ele><time>2026-04-19T06:37:29.997Z</time></trkpt><trkpt lat="41.5057569" lon="15.5151567"><ele>59.33333333333333</ele><time>2026-04-19T06:37:30.996Z</time></trkpt><trkpt lat="41.5059423" lon="15.5150562"><ele>58.666666666666664</ele><time>2026-04-19T06:37:31.997Z</time></trkpt><trkpt lat="41.5061263" lon="15.5149577"><ele>58.0</ele><time>2026-04-19T06:37:32.996Z</time></trkpt><trkpt lat="41.5063108" lon="15.5148594"><ele>57.666666666666664</ele><time>2026-04-19T06:37:33.996Z</time></trkpt><trkpt lat="41.5064953" lon="15.5147621"><ele>57.33333333333333</ele><time>2026-04-19T06:37:34.996Z</time></trkpt><trkpt lat="41.5066777" lon="15.5146669"><ele>57.0</ele><time>2026-04-19T06:37:35.997Z</time></trkpt><trkpt lat="41.5068606" lon="15.5145732"><ele>57.33333333333333</ele><time>2026-04-19T06:37:36.996Z</time></trkpt><trkpt lat="41.5070439" lon="15.5144789"><ele>57.666666666666664</ele><time>2026-04-19T06:37:37.996Z</time></trkpt><trkpt lat="41.5072274" lon="15.5143832"><ele>58.0</ele><time>2026-04-19T06:37:38.996Z</time></trkpt><trkpt lat="41.5074109" lon="15.5142878"><ele>58.0</ele><time>2026-04-19T06:37:39.996Z</time></trkpt><trkpt lat="41.5075943" lon="15.5141927"><ele>58.0</ele><time>2026-04-19T06:37:40.996Z</time></trkpt><trkpt lat="41.5077775" lon="15.5140974"><ele>58.0</ele><time>2026-04-19T06:37:41.996Z</time></trkpt><trkpt lat="41.5079609" lon="15.5140013"><ele>57.666666666666664</ele><time>2026-04-19T06:37:42.996Z</time></trkpt><trkpt lat="41.5081442" lon="15.5139057"><ele>57.33333333333333</ele><time>2026-04-19T06:37:43.996Z</time></trkpt><trkpt lat="41.5083281" lon="15.5138087"><ele>57.0</ele><time>2026-04-19T06:37:44.996Z</time></trkpt><trkpt lat="41.5085131" lon="15.5137144"><ele>57.0</ele><time>2026-04-19T06:37:45.996Z</time></trkpt><trkpt lat="41.5086977" lon="15.5136178"><ele>57.0</ele><time>2026-04-19T06:37:46.996Z</time></trkpt><trkpt lat="41.5088834" lon="15.5135211"><ele>57.0</ele><time>2026-04-19T06:37:47.996Z</time></trkpt><trkpt lat="41.5090689" lon="15.5134245"><ele>57.0</ele><time>2026-04-19T06:37:48.996Z</time></trkpt><trkpt lat="41.5092555" lon="15.5133274"><ele>57.0</ele><time>2026-04-19T06:37:49.996Z</time></trkpt><trkpt lat="41.5094417" lon="15.5132279"><ele>57.0</ele><time>2026-04-19T06:37:50.996Z</time></trkpt><trkpt lat="41.5096301" lon="15.5131314"><ele>57.0</ele><time>2026-04-19T06:37:51.997Z</time></trkpt><trkpt lat="41.5098176" lon="15.5130348"><ele>57.0</ele><time>2026-04-19T06:37:52.996Z</time></trkpt><trkpt lat="41.5100046" lon="15.5129364"><ele>57.0</ele><time>2026-04-19T06:37:53.996Z</time></trkpt><trkpt lat="41.5101924" lon="15.5128389"><ele>57.33333333333333</ele><time>2026-04-19T06:37:54.996Z</time></trkpt><trkpt lat="41.5103784" lon="15.5127429"><ele>57.666666666666664</ele><time>2026-04-19T06:37:55.996Z</time></trkpt><trkpt lat="41.5105646" lon="15.5126466"><ele>58.0</ele><time>2026-04-19T06:37:56.996Z</time></trkpt><trkpt lat="41.5107494" lon="15.5125496"><ele>57.33333333333333</ele><time>2026-04-19T06:37:57.997Z</time></trkpt><trkpt lat="41.510933" lon="15.512451"><ele>56.66666666666667</ele><time>2026-04-19T06:37:58.996Z</time></trkpt><trkpt lat="41.5111178" lon="15.5123542"><ele>56.0</ele><time>2026-04-19T06:37:59.996Z</time></trkpt><trkpt lat="41.5113027" lon="15.5122576"><ele>56.0</ele><time>2026-04-19T06:38:00.996Z</time></trkpt><trkpt lat="41.5114864" lon="15.5121621"><ele>56.0</ele><time>2026-04-19T06:38:01.996Z</time></trkpt><trkpt lat="41.5116707" lon="15.5120669"><ele>56.0</ele><time>2026-04-19T06:38:02.996Z</time></trkpt><trkpt lat="41.5118531" lon="15.5119721"><ele>56.0</ele><time>2026-04-19T06:38:03.997Z</time></trkpt><trkpt lat="41.5120334" lon="15.5118776"><ele>56.0</ele><time>2026-04-19T06:38:04.996Z</time></trkpt><trkpt lat="41.5122135" lon="15.5117838"><ele>56.0</ele><time>2026-04-19T06:38:05.996Z</time></trkpt><trkpt lat="41.5123944" lon="15.5116902"><ele>56.0</ele><time>2026-04-19T06:38:06.996Z</time></trkpt><trkpt lat="41.5125734" lon="15.511598"><ele>56.0</ele><time>2026-04-19T06:38:07.996Z</time></trkpt><trkpt lat="41.5127514" lon="15.5115064"><ele>56.0</ele><time>2026-04-19T06:38:08.996Z</time></trkpt><trkpt lat="41.5129281" lon="15.511415"><ele>55.66666666666667</ele><time>2026-04-19T06:38:09.996Z</time></trkpt><trkpt lat="41.5131022" lon="15.511324"><ele>55.33333333333333</ele><time>2026-04-19T06:38:10.996Z</time></trkpt><trkpt lat="41.5132762" lon="15.5112329"><ele>55.0</ele><time>2026-04-19T06:38:11.996Z</time></trkpt><trkpt lat="41.5134511" lon="15.5111422"><ele>55.33333333333333</ele><time>2026-04-19T06:38:12.996Z</time></trkpt><trkpt lat="41.5136269" lon="15.511051"><ele>55.66666666666667</ele><time>2026-04-19T06:38:13.996Z</time></trkpt><trkpt lat="41.5138037" lon="15.5109593"><ele>56.0</ele><time>2026-04-19T06:38:14.996Z</time></trkpt><trkpt lat="41.5139807" lon="15.5108667"><ele>56.0</ele><time>2026-04-19T06:38:15.997Z</time></trkpt><trkpt lat="41.5141578" lon="15.5107736"><ele>56.0</ele><time>2026-04-19T06:38:16.996Z</time></trkpt><trkpt lat="41.514337" lon="15.510681"><ele>56.0</ele><time>2026-04-19T06:38:17.996Z</time></trkpt><trkpt lat="41.5145181" lon="15.5105878"><ele>56.0</ele><time>2026-04-19T06:38:18.996Z</time></trkpt><trkpt lat="41.5146998" lon="15.5104943"><ele>56.0</ele><time>2026-04-19T06:38:19.996Z</time></trkpt><trkpt lat="41.5148818" lon="15.5103999"><ele>56.0</ele><time>2026-04-19T06:38:20.996Z</time></trkpt><trkpt lat="41.5150639" lon="15.5103049"><ele>56.0</ele><time>2026-04-19T06:38:21.996Z</time></trkpt><trkpt lat="41.5152461" lon="15.510211"><ele>56.0</ele><time>2026-04-19T06:38:22.996Z</time></trkpt><trkpt lat="41.5154282" lon="15.5101187"><ele>56.0</ele><time>2026-04-19T06:38:23.996Z</time></trkpt><trkpt lat="41.5156089" lon="15.5100259"><ele>55.66666666666667</ele><time>2026-04-19T06:38:24.997Z</time></trkpt><trkpt lat="41.5157887" lon="15.5099297"><ele>55.33333333333333</ele><time>2026-04-19T06:38:25.997Z</time></trkpt><trkpt lat="41.5159684" lon="15.5098341"><ele>55.0</ele><time>2026-04-19T06:38:26.997Z</time></trkpt><trkpt lat="41.5161483" lon="15.5097388"><ele>55.0</ele><time>2026-04-19T06:38:27.996Z</time></trkpt><trkpt lat="41.5163282" lon="15.5096459"><ele>55.0</ele><time>2026-04-19T06:38:28.996Z</time></trkpt><trkpt lat="41.5165082" lon="15.5095552"><ele>55.0</ele><time>2026-04-19T06:38:29.996Z</time></trkpt><trkpt lat="41.516686" lon="15.509463"><ele>55.0</ele><time>2026-04-19T06:38:30.996Z</time></trkpt><trkpt lat="41.5168635" lon="15.5093702"><ele>55.0</ele><time>2026-04-19T06:38:31.997Z</time></trkpt><trkpt lat="41.5170402" lon="15.5092769"><ele>55.0</ele><time>2026-04-19T06:38:32.997Z</time></trkpt><trkpt lat="41.5172166" lon="15.5091837"><ele>55.33333333333333</ele><time>2026-04-19T06:38:33.996Z</time></trkpt><trkpt lat="41.517392" lon="15.5090915"><ele>55.66666666666667</ele><time>2026-04-19T06:38:34.996Z</time></trkpt><trkpt lat="41.5175668" lon="15.5089997"><ele>56.0</ele><time>2026-04-19T06:38:35.997Z</time></trkpt><trkpt lat="41.5177415" lon="15.5089092"><ele>55.66666666666667</ele><time>2026-04-19T06:38:36.996Z</time></trkpt><trkpt lat="41.5179161" lon="15.5088181"><ele>55.33333333333333</ele><time>2026-04-19T06:38:37.996Z</time></trkpt><trkpt lat="41.5180908" lon="15.5087277"><ele>55.0</ele><time>2026-04-19T06:38:38.996Z</time></trkpt><trkpt lat="41.5182654" lon="15.5086354"><ele>55.666666666666664</ele><time>2026-04-19T06:38:39.997Z</time></trkpt><trkpt lat="41.5184403" lon="15.5085426"><ele>56.33333333333333</ele><time>2026-04-19T06:38:40.996Z</time></trkpt><trkpt lat="41.5186142" lon="15.5084534"><ele>57.0</ele><time>2026-04-19T06:38:41.996Z</time></trkpt><trkpt lat="41.5187888" lon="15.5083639"><ele>57.0</ele><time>2026-04-19T06:38:42.996Z</time></trkpt><trkpt lat="41.5189626" lon="15.5082742"><ele>57.0</ele><time>2026-04-19T06:38:43.996Z</time></trkpt><trkpt lat="41.5191359" lon="15.5081853"><ele>57.0</ele><time>2026-04-19T06:38:44.996Z</time></trkpt><trkpt lat="41.5193093" lon="15.5080958"><ele>57.0</ele><time>2026-04-19T06:38:45.997Z</time></trkpt><trkpt lat="41.5194816" lon="15.508006"><ele>57.0</ele><time>2026-04-19T06:38:46.996Z</time></trkpt><trkpt lat="41.519652" lon="15.5079174"><ele>57.0</ele><time>2026-04-19T06:38:47.996Z</time></trkpt><trkpt lat="41.5198207" lon="15.5078302"><ele>57.0</ele><time>2026-04-19T06:38:48.996Z</time></trkpt><trkpt lat="41.5199898" lon="15.5077426"><ele>57.0</ele><time>2026-04-19T06:38:49.996Z</time></trkpt><trkpt lat="41.5201573" lon="15.5076555"><ele>57.0</ele><time>2026-04-19T06:38:50.996Z</time></trkpt><trkpt lat="41.5203261" lon="15.5075701"><ele>57.0</ele><time>2026-04-19T06:38:51.996Z</time></trkpt><trkpt lat="41.5204936" lon="15.507485"><ele>57.0</ele><time>2026-04-19T06:38:52.996Z</time></trkpt><trkpt lat="41.5206603" lon="15.5073971"><ele>57.0</ele><time>2026-04-19T06:38:53.996Z</time></trkpt><trkpt lat="41.5208266" lon="15.507309"><ele>57.0</ele><time>2026-04-19T06:38:54.996Z</time></trkpt><trkpt lat="41.520992" lon="15.5072218"><ele>57.0</ele><time>2026-04-19T06:38:55.996Z</time></trkpt><trkpt lat="41.5211567" lon="15.5071348"><ele>57.0</ele><time>2026-04-19T06:38:56.996Z</time></trkpt><trkpt lat="41.5213199" lon="15.5070474"><ele>57.33333333333333</ele><time>2026-04-19T06:38:57.996Z</time></trkpt><trkpt lat="41.521483" lon="15.5069635"><ele>57.666666666666664</ele><time>2026-04-19T06:38:58.996Z</time></trkpt><trkpt lat="41.5216463" lon="15.5068792"><ele>58.0</ele><time>2026-04-19T06:38:59.996Z</time></trkpt><trkpt lat="41.5218094" lon="15.5067935"><ele>58.0</ele><time>2026-04-19T06:39:00.996Z</time></trkpt><trkpt lat="41.5219737" lon="15.5067064"><ele>58.0</ele><time>2026-04-19T06:39:01.996Z</time></trkpt><trkpt lat="41.5221389" lon="15.5066192"><ele>58.0</ele><time>2026-04-19T06:39:02.996Z</time></trkpt><trkpt lat="41.5223054" lon="15.5065311"><ele>57.666666666666664</ele><time>2026-04-19T06:39:03.996Z</time></trkpt><trkpt lat="41.5224722" lon="15.5064414"><ele>57.33333333333333</ele><time>2026-04-19T06:39:04.996Z</time></trkpt><trkpt lat="41.52264" lon="15.5063512"><ele>57.0</ele><time>2026-04-19T06:39:05.996Z</time></trkpt><trkpt lat="41.5228073" lon="15.5062643"><ele>57.0</ele><time>2026-04-19T06:39:06.996Z</time></trkpt><trkpt lat="41.5229744" lon="15.5061784"><ele>57.0</ele><time>2026-04-19T06:39:07.996Z</time></trkpt><trkpt lat="41.5231409" lon="15.5060906"><ele>57.0</ele><time>2026-04-19T06:39:08.996Z</time></trkpt><trkpt lat="41.5233067" lon="15.5060034"><ele>57.0</ele><time>2026-04-19T06:39:09.997Z</time></trkpt><trkpt lat="41.5234736" lon="15.5059114"><ele>57.0</ele><time>2026-04-19T06:39:10.996Z</time></trkpt><trkpt lat="41.5236417" lon="15.5058223"><ele>57.0</ele><time>2026-04-19T06:39:11.996Z</time></trkpt><trkpt lat="41.5238112" lon="15.5057347"><ele>56.33333333333333</ele><time>2026-04-19T06:39:12.997Z</time></trkpt><trkpt lat="41.5239803" lon="15.5056467"><ele>55.666666666666664</ele><time>2026-04-19T06:39:13.996Z</time></trkpt><trkpt lat="41.5241504" lon="15.5055573"><ele>55.0</ele><time>2026-04-19T06:39:14.997Z</time></trkpt><trkpt lat="41.5243208" lon="15.5054673"><ele>55.0</ele><time>2026-04-19T06:39:15.996Z</time></trkpt><trkpt lat="41.524491" lon="15.5053782"><ele>55.0</ele><time>2026-04-19T06:39:16.996Z</time></trkpt><trkpt lat="41.5246596" lon="15.5052897"><ele>55.0</ele><time>2026-04-19T06:39:17.996Z</time></trkpt><trkpt lat="41.5248264" lon="15.5052003"><ele>55.666666666666664</ele><time>2026-04-19T06:39:18.996Z</time></trkpt><trkpt lat="41.5249925" lon="15.5051116"><ele>56.33333333333333</ele><time>2026-04-19T06:39:19.996Z</time></trkpt><trkpt lat="41.5251564" lon="15.5050256"><ele>57.0</ele><time>2026-04-19T06:39:20.997Z</time></trkpt><trkpt lat="41.5253186" lon="15.504944"><ele>56.66666666666667</ele><time>2026-04-19T06:39:21.996Z</time></trkpt><trkpt lat="41.525479" lon="15.5048651"><ele>56.333333333333336</ele><time>2026-04-19T06:39:22.996Z</time></trkpt><trkpt lat="41.52564" lon="15.504795"><ele>56.0</ele><time>2026-04-19T06:39:23.996Z</time></trkpt><trkpt lat="41.5258017" lon="15.5047317"><ele>56.0</ele><time>2026-04-19T06:39:24.996Z</time></trkpt><trkpt lat="41.5259617" lon="15.5046817"><ele>56.0</ele><time>2026-04-19T06:39:25.996Z</time></trkpt><trkpt lat="41.5261233" lon="15.5046433"><ele>56.0</ele><time>2026-04-19T06:39:26.997Z</time></trkpt><trkpt lat="41.526285" lon="15.5046067"><ele>55.66666666666667</ele><time>2026-04-19T06:39:27.996Z</time></trkpt><trkpt lat="41.52645" lon="15.5045767"><ele>55.33333333333333</ele><time>2026-04-19T06:39:28.996Z</time></trkpt><trkpt lat="41.5266167" lon="15.5045483"><ele>55.0</ele><time>2026-04-19T06:39:29.997Z</time></trkpt><trkpt lat="41.5267867" lon="15.5045267"><ele>55.0</ele><time>2026-04-19T06:39:30.996Z</time></trkpt><trkpt lat="41.52696" lon="15.5045033"><ele>55.0</ele><time>2026-04-19T06:39:31.996Z</time></trkpt><trkpt lat="41.5271317" lon="15.50448"><ele>55.0</ele><time>2026-04-19T06:39:32.996Z</time></trkpt><trkpt lat="41.527305" lon="15.5044567"><ele>55.0</ele><time>2026-04-19T06:39:33.996Z</time></trkpt><trkpt lat="41.5274783" lon="15.5044333"><ele>55.0</ele><time>2026-04-19T06:39:34.997Z</time></trkpt><trkpt lat="41.5276533" lon="15.50441"><ele>55.0</ele><time>2026-04-19T06:39:35.996Z</time></trkpt><trkpt lat="41.52783" lon="15.5043867"><ele>55.0</ele><time>2026-04-19T06:39:36.996Z</time></trkpt><trkpt lat="41.5280067" lon="15.504365"><ele>55.0</ele><time>2026-04-19T06:39:37.996Z</time></trkpt><trkpt lat="41.528185" lon="15.5043417"><ele>55.0</ele><time>2026-04-19T06:39:38.996Z</time></trkpt><trkpt lat="41.5283633" lon="15.5043167"><ele>55.0</ele><time>2026-04-19T06:39:39.997Z</time></trkpt><trkpt lat="41.5285417" lon="15.50429"><ele>55.0</ele><time>2026-04-19T06:39:40.996Z</time></trkpt><trkpt lat="41.5287233" lon="15.5042633"><ele>55.0</ele><time>2026-04-19T06:39:41.996Z</time></trkpt><trkpt lat="41.5289033" lon="15.50424"><ele>55.33333333333333</ele><time>2026-04-19T06:39:42.996Z</time></trkpt><trkpt lat="41.5290833" lon="15.504215"><ele>55.66666666666667</ele><time>2026-04-19T06:39:43.997Z</time></trkpt><trkpt lat="41.529265" lon="15.5041917"><ele>56.0</ele><time>2026-04-19T06:39:44.996Z</time></trkpt><trkpt lat="41.529445" lon="15.5041667"><ele>56.0</ele><time>2026-04-19T06:39:45.996Z</time></trkpt><trkpt lat="41.5296233" lon="15.5041433"><ele>56.0</ele><time>2026-04-19T06:39:46.996Z</time></trkpt><trkpt lat="41.5298" lon="15.50412"><ele>56.0</ele><time>2026-04-19T06:39:47.996Z</time></trkpt><trkpt lat="41.52998" lon="15.5040983"><ele>56.0</ele><time>2026-04-19T06:39:48.997Z</time></trkpt><trkpt lat="41.5301583" lon="15.504075"><ele>56.0</ele><time>2026-04-19T06:39:49.996Z</time></trkpt><trkpt lat="41.5303317" lon="15.5040467"><ele>56.0</ele><time>2026-04-19T06:39:50.996Z</time></trkpt><trkpt lat="41.5304933" lon="15.50402"><ele>56.0</ele><time>2026-04-19T06:39:51.996Z</time></trkpt><trkpt lat="41.5306533" lon="15.503995"><ele>56.0</ele><time>2026-04-19T06:39:52.997Z</time></trkpt><trkpt lat="41.5308133" lon="15.5039767"><ele>56.0</ele><time>2026-04-19T06:39:53.997Z</time></trkpt><trkpt lat="41.530975" lon="15.50396"><ele>56.0</ele><time>2026-04-19T06:39:54.996Z</time></trkpt><trkpt lat="41.5311333" lon="15.5039417"><ele>56.0</ele><time>2026-04-19T06:39:55.997Z</time></trkpt><trkpt lat="41.5312933" lon="15.50392"><ele>56.0</ele><time>2026-04-19T06:39:56.996Z</time></trkpt><trkpt lat="41.5314562" lon="15.5038981"><ele>56.66666666666667</ele><time>2026-04-19T06:39:57.996Z</time></trkpt><trkpt lat="41.5316198" lon="15.503876"><ele>57.33333333333333</ele><time>2026-04-19T06:39:58.996Z</time></trkpt><trkpt lat="41.5317868" lon="15.5038531"><ele>58.0</ele><time>2026-04-19T06:39:59.996Z</time></trkpt><trkpt lat="41.5319567" lon="15.5038316"><ele>57.33333333333333</ele><time>2026-04-19T06:40:00.996Z</time></trkpt><trkpt lat="41.5321282" lon="15.5038108"><ele>56.66666666666667</ele><time>2026-04-19T06:40:01.997Z</time></trkpt><trkpt lat="41.5323018" lon="15.5037903"><ele>56.0</ele><time>2026-04-19T06:40:02.996Z</time></trkpt><trkpt lat="41.5324773" lon="15.503769"><ele>56.0</ele><time>2026-04-19T06:40:03.996Z</time></trkpt><trkpt lat="41.5326532" lon="15.5037456"><ele>56.0</ele><time>2026-04-19T06:40:04.997Z</time></trkpt><trkpt lat="41.5328286" lon="15.5037214"><ele>56.0</ele><time>2026-04-19T06:40:05.996Z</time></trkpt><trkpt lat="41.5330045" lon="15.5036985"><ele>56.0</ele><time>2026-04-19T06:40:06.996Z</time></trkpt><trkpt lat="41.5331804" lon="15.5036727"><ele>56.0</ele><time>2026-04-19T06:40:07.996Z</time></trkpt><trkpt lat="41.5333568" lon="15.5036463"><ele>56.0</ele><time>2026-04-19T06:40:08.997Z</time></trkpt><trkpt lat="41.5335345" lon="15.5036198"><ele>56.0</ele><time>2026-04-19T06:40:09.997Z</time></trkpt><trkpt lat="41.5337133" lon="15.5035966"><ele>56.0</ele><time>2026-04-19T06:40:10.996Z</time></trkpt><trkpt lat="41.5338919" lon="15.5035743"><ele>56.0</ele><time>2026-04-19T06:40:11.996Z</time></trkpt><trkpt lat="41.5340691" lon="15.5035506"><ele>55.66666666666667</ele><time>2026-04-19T06:40:12.996Z</time></trkpt><trkpt lat="41.5342472" lon="15.5035261"><ele>55.33333333333333</ele><time>2026-04-19T06:40:13.996Z</time></trkpt><trkpt lat="41.5344256" lon="15.5034994"><ele>55.0</ele><time>2026-04-19T06:40:14.996Z</time></trkpt><trkpt lat="41.5346012" lon="15.5034747"><ele>54.666666666666664</ele><time>2026-04-19T06:40:15.996Z</time></trkpt><trkpt lat="41.5347751" lon="15.5034526"><ele>54.33333333333333</ele><time>2026-04-19T06:40:16.996Z</time></trkpt><trkpt lat="41.5349446" lon="15.5034328"><ele>54.0</ele><time>2026-04-19T06:40:17.996Z</time></trkpt><trkpt lat="41.535111" lon="15.5034113"><ele>54.0</ele><time>2026-04-19T06:40:18.996Z</time></trkpt><trkpt lat="41.5352757" lon="15.5033889"><ele>54.0</ele><time>2026-04-19T06:40:19.996Z</time></trkpt><trkpt lat="41.5354384" lon="15.5033654"><ele>54.0</ele><time>2026-04-19T06:40:20.996Z</time></trkpt><trkpt lat="41.5356008" lon="15.5033439"><ele>54.66666666666667</ele><time>2026-04-19T06:40:21.996Z</time></trkpt><trkpt lat="41.5357619" lon="15.5033232"><ele>55.333333333333336</ele><time>2026-04-19T06:40:22.996Z</time></trkpt><trkpt lat="41.5359233" lon="15.503302"><ele>56.0</ele><time>2026-04-19T06:40:23.997Z</time></trkpt><trkpt lat="41.5360855" lon="15.5032799"><ele>55.66666666666667</ele><time>2026-04-19T06:40:24.996Z</time></trkpt><trkpt lat="41.5362503" lon="15.5032596"><ele>55.33333333333333</ele><time>2026-04-19T06:40:25.997Z</time></trkpt><trkpt lat="41.5364169" lon="15.50324"><ele>55.0</ele><time>2026-04-19T06:40:26.996Z</time></trkpt><trkpt lat="41.5365866" lon="15.5032175"><ele>55.0</ele><time>2026-04-19T06:40:27.996Z</time></trkpt><trkpt lat="41.5367573" lon="15.5031944"><ele>55.0</ele><time>2026-04-19T06:40:28.997Z</time></trkpt><trkpt lat="41.5369289" lon="15.5031712"><ele>55.0</ele><time>2026-04-19T06:40:29.996Z</time></trkpt><trkpt lat="41.5371016" lon="15.5031477"><ele>54.666666666666664</ele><time>2026-04-19T06:40:30.996Z</time></trkpt><trkpt lat="41.5372748" lon="15.5031243"><ele>54.33333333333333</ele><time>2026-04-19T06:40:31.997Z</time></trkpt><trkpt lat="41.5374504" lon="15.5031008"><ele>54.0</ele><time>2026-04-19T06:40:32.996Z</time></trkpt><trkpt lat="41.5376271" lon="15.5030765"><ele>54.0</ele><time>2026-04-19T06:40:33.996Z</time></trkpt><trkpt lat="41.5378057" lon="15.5030525"><ele>54.0</ele><time>2026-04-19T06:40:34.996Z</time></trkpt><trkpt lat="41.5379833" lon="15.5030298"><ele>54.0</ele><time>2026-04-19T06:40:35.997Z</time></trkpt><trkpt lat="41.538159" lon="15.5030059"><ele>53.66666666666667</ele><time>2026-04-19T06:40:36.996Z</time></trkpt><trkpt lat="41.5383349" lon="15.5029823"><ele>53.333333333333336</ele><time>2026-04-19T06:40:37.996Z</time></trkpt><trkpt lat="41.5385063" lon="15.502957"><ele>53.0</ele><time>2026-04-19T06:40:38.996Z</time></trkpt><trkpt lat="41.5386701" lon="15.5029335"><ele>53.333333333333336</ele><time>2026-04-19T06:40:39.996Z</time></trkpt><trkpt lat="41.5388307" lon="15.5029129"><ele>53.66666666666667</ele><time>2026-04-19T06:40:40.997Z</time></trkpt><trkpt lat="41.5389912" lon="15.5028902"><ele>54.0</ele><time>2026-04-19T06:40:41.996Z</time></trkpt><trkpt lat="41.5391512" lon="15.5028697"><ele>54.0</ele><time>2026-04-19T06:40:42.996Z</time></trkpt><trkpt lat="41.5393108" lon="15.5028478"><ele>54.0</ele><time>2026-04-19T06:40:43.996Z</time></trkpt><trkpt lat="41.5394707" lon="15.5028259"><ele>54.0</ele><time>2026-04-19T06:40:44.997Z</time></trkpt><trkpt lat="41.5396286" lon="15.5028028"><ele>54.0</ele><time>2026-04-19T06:40:45.996Z</time></trkpt><trkpt lat="41.5397868" lon="15.5027796"><ele>54.0</ele><time>2026-04-19T06:40:46.996Z</time></trkpt><trkpt lat="41.539947" lon="15.5027585"><ele>54.0</ele><time>2026-04-19T06:40:47.996Z</time></trkpt><trkpt lat="41.5401058" lon="15.5027356"><ele>54.0</ele><time>2026-04-19T06:40:48.996Z</time></trkpt><trkpt lat="41.5402654" lon="15.502715"><ele>54.0</ele><time>2026-04-19T06:40:49.996Z</time></trkpt><trkpt lat="41.5404266" lon="15.5026938"><ele>54.0</ele><time>2026-04-19T06:40:50.996Z</time></trkpt><trkpt lat="41.5405884" lon="15.5026706"><ele>54.33333333333333</ele><time>2026-04-19T06:40:51.996Z</time></trkpt><trkpt lat="41.5407503" lon="15.5026499"><ele>54.666666666666664</ele><time>2026-04-19T06:40:52.996Z</time></trkpt><trkpt lat="41.5409131" lon="15.5026287"><ele>55.0</ele><time>2026-04-19T06:40:53.996Z</time></trkpt><trkpt lat="41.5410797" lon="15.502608"><ele>54.666666666666664</ele><time>2026-04-19T06:40:54.997Z</time></trkpt><trkpt lat="41.5412483" lon="15.5025902"><ele>54.33333333333333</ele><time>2026-04-19T06:40:55.996Z</time></trkpt><trkpt lat="41.5414198" lon="15.5025692"><ele>54.0</ele><time>2026-04-19T06:40:56.996Z</time></trkpt><trkpt lat="41.5415922" lon="15.5025453"><ele>54.0</ele><time>2026-04-19T06:40:57.997Z</time></trkpt><trkpt lat="41.5417647" lon="15.5025214"><ele>54.0</ele><time>2026-04-19T06:40:58.997Z</time></trkpt><trkpt lat="41.5419345" lon="15.5024987"><ele>54.0</ele><time>2026-04-19T06:40:59.996Z</time></trkpt><trkpt lat="41.5421041" lon="15.5024749"><ele>53.66666666666667</ele><time>2026-04-19T06:41:00.997Z</time></trkpt><trkpt lat="41.5422725" lon="15.5024532"><ele>53.333333333333336</ele><time>2026-04-19T06:41:01.996Z</time></trkpt><trkpt lat="41.5424396" lon="15.5024333"><ele>53.0</ele><time>2026-04-19T06:41:02.997Z</time></trkpt><trkpt lat="41.5426025" lon="15.5024119"><ele>53.0</ele><time>2026-04-19T06:41:03.996Z</time></trkpt><trkpt lat="41.5427615" lon="15.5023935"><ele>53.0</ele><time>2026-04-19T06:41:04.996Z</time></trkpt><trkpt lat="41.5429169" lon="15.5023744"><ele>53.0</ele><time>2026-04-19T06:41:05.996Z</time></trkpt><trkpt lat="41.5430698" lon="15.5023559"><ele>52.333333333333336</ele><time>2026-04-19T06:41:06.997Z</time></trkpt><trkpt lat="41.5432209" lon="15.5023387"><ele>51.66666666666667</ele><time>2026-04-19T06:41:07.996Z</time></trkpt><trkpt lat="41.5433744" lon="15.5023199"><ele>51.0</ele><time>2026-04-19T06:41:08.996Z</time></trkpt><trkpt lat="41.5435317" lon="15.5022992"><ele>51.0</ele><time>2026-04-19T06:41:09.996Z</time></trkpt><trkpt lat="41.5436938" lon="15.5022787"><ele>51.0</ele><time>2026-04-19T06:41:10.996Z</time></trkpt><trkpt lat="41.5438563" lon="15.5022575"><ele>51.0</ele><time>2026-04-19T06:41:11.996Z</time></trkpt><trkpt lat="41.5440203" lon="15.5022368"><ele>51.33333333333333</ele><time>2026-04-19T06:41:12.996Z</time></trkpt><trkpt lat="41.5441865" lon="15.5022145"><ele>51.666666666666664</ele><time>2026-04-19T06:41:13.996Z</time></trkpt><trkpt lat="41.5443525" lon="15.5021925"><ele>52.0</ele><time>2026-04-19T06:41:14.996Z</time></trkpt><trkpt lat="41.5445215" lon="15.5021706"><ele>52.33333333333333</ele><time>2026-04-19T06:41:15.996Z</time></trkpt><trkpt lat="41.5446896" lon="15.5021487"><ele>52.66666666666667</ele><time>2026-04-19T06:41:16.997Z</time></trkpt><trkpt lat="41.5448566" lon="15.5021261"><ele>53.0</ele><time>2026-04-19T06:41:17.996Z</time></trkpt><trkpt lat="41.5450233" lon="15.5021031"><ele>53.0</ele><time>2026-04-19T06:41:18.996Z</time></trkpt><trkpt lat="41.5451911" lon="15.5020808"><ele>53.0</ele><time>2026-04-19T06:41:19.997Z</time></trkpt><trkpt lat="41.5453583" lon="15.5020589"><ele>53.0</ele><time>2026-04-19T06:41:20.997Z</time></trkpt><trkpt lat="41.5455252" lon="15.5020371"><ele>53.0</ele><time>2026-04-19T06:41:21.996Z</time></trkpt><trkpt lat="41.5456909" lon="15.5020144"><ele>53.0</ele><time>2026-04-19T06:41:22.996Z</time></trkpt><trkpt lat="41.5458572" lon="15.5019914"><ele>53.0</ele><time>2026-04-19T06:41:23.996Z</time></trkpt><trkpt lat="41.5460238" lon="15.5019681"><ele>53.0</ele><time>2026-04-19T06:41:24.997Z</time></trkpt><trkpt lat="41.5461892" lon="15.5019456"><ele>53.0</ele><time>2026-04-19T06:41:25.996Z</time></trkpt><trkpt lat="41.5463528" lon="15.5019237"><ele>53.0</ele><time>2026-04-19T06:41:26.996Z</time></trkpt><trkpt lat="41.5465146" lon="15.501904"><ele>53.0</ele><time>2026-04-19T06:41:27.996Z</time></trkpt><trkpt lat="41.5466757" lon="15.5018855"><ele>53.0</ele><time>2026-04-19T06:41:28.997Z</time></trkpt><trkpt lat="41.5468357" lon="15.5018665"><ele>53.0</ele><time>2026-04-19T06:41:29.996Z</time></trkpt><trkpt lat="41.5469941" lon="15.501846"><ele>53.0</ele><time>2026-04-19T06:41:30.996Z</time></trkpt><trkpt lat="41.5471544" lon="15.5018236"><ele>53.0</ele><time>2026-04-19T06:41:31.997Z</time></trkpt><trkpt lat="41.5473146" lon="15.5018025"><ele>53.0</ele><time>2026-04-19T06:41:32.996Z</time></trkpt><trkpt lat="41.5474761" lon="15.5017819"><ele>53.0</ele><time>2026-04-19T06:41:33.996Z</time></trkpt><trkpt lat="41.5476391" lon="15.5017606"><ele>53.0</ele><time>2026-04-19T06:41:34.996Z</time></trkpt><trkpt lat="41.5478026" lon="15.5017401"><ele>53.0</ele><time>2026-04-19T06:41:35.996Z</time></trkpt><trkpt lat="41.5479677" lon="15.5017187"><ele>53.0</ele><time>2026-04-19T06:41:36.996Z</time></trkpt><trkpt lat="41.548132" lon="15.5016981"><ele>53.0</ele><time>2026-04-19T06:41:37.996Z</time></trkpt><trkpt lat="41.5482967" lon="15.501676"><ele>53.0</ele><time>2026-04-19T06:41:38.997Z</time></trkpt><trkpt lat="41.5484619" lon="15.5016541"><ele>53.0</ele><time>2026-04-19T06:41:39.996Z</time></trkpt><trkpt lat="41.5486282" lon="15.5016311"><ele>53.0</ele><time>2026-04-19T06:41:40.996Z</time></trkpt><trkpt lat="41.5487959" lon="15.5016066"><ele>53.0</ele><time>2026-04-19T06:41:41.996Z</time></trkpt><trkpt lat="41.5489628" lon="15.5015848"><ele>53.0</ele><time>2026-04-19T06:41:42.996Z</time></trkpt><trkpt lat="41.5491308" lon="15.5015652"><ele>53.0</ele><time>2026-04-19T06:41:43.997Z</time></trkpt><trkpt lat="41.5492982" lon="15.5015467"><ele>53.0</ele><time>2026-04-19T06:41:44.996Z</time></trkpt><trkpt lat="41.5494663" lon="15.5015286"><ele>52.333333333333336</ele><time>2026-04-19T06:41:45.996Z</time></trkpt><trkpt lat="41.5496358" lon="15.5015095"><ele>51.66666666666667</ele><time>2026-04-19T06:41:46.996Z</time></trkpt><trkpt lat="41.5498058" lon="15.5014878"><ele>51.0</ele><time>2026-04-19T06:41:47.996Z</time></trkpt><trkpt lat="41.5499761" lon="15.5014638"><ele>51.0</ele><time>2026-04-19T06:41:48.996Z</time></trkpt><trkpt lat="41.5501501" lon="15.5014409"><ele>51.0</ele><time>2026-04-19T06:41:49.997Z</time></trkpt><trkpt lat="41.5503267" lon="15.5014185"><ele>51.0</ele><time>2026-04-19T06:41:50.996Z</time></trkpt><trkpt lat="41.5505049" lon="15.5013974"><ele>50.66666666666667</ele><time>2026-04-19T06:41:51.996Z</time></trkpt><trkpt lat="41.5506824" lon="15.501375"><ele>50.333333333333336</ele><time>2026-04-19T06:41:52.996Z</time></trkpt><trkpt lat="41.5508586" lon="15.5013511"><ele>50.0</ele><time>2026-04-19T06:41:53.996Z</time></trkpt><trkpt lat="41.551035" lon="15.5013275"><ele>49.66666666666667</ele><time>2026-04-19T06:41:54.997Z</time></trkpt><trkpt lat="41.5512117" lon="15.5013059"><ele>49.33333333333333</ele><time>2026-04-19T06:41:55.996Z</time></trkpt><trkpt lat="41.5513884" lon="15.5012853"><ele>49.0</ele><time>2026-04-19T06:41:56.996Z</time></trkpt><trkpt lat="41.5515639" lon="15.5012638"><ele>48.33333333333333</ele><time>2026-04-19T06:41:57.996Z</time></trkpt><trkpt lat="41.5517377" lon="15.5012407"><ele>47.666666666666664</ele><time>2026-04-19T06:41:58.996Z</time></trkpt><trkpt lat="41.5519096" lon="15.5012183"><ele>47.0</ele><time>2026-04-19T06:41:59.996Z</time></trkpt><trkpt lat="41.5520795" lon="15.5011995"><ele>46.33333333333333</ele><time>2026-04-19T06:42:00.996Z</time></trkpt><trkpt lat="41.5522488" lon="15.5011801"><ele>45.666666666666664</ele><time>2026-04-19T06:42:01.996Z</time></trkpt><trkpt lat="41.552417" lon="15.5011597"><ele>45.0</ele><time>2026-04-19T06:42:02.996Z</time></trkpt><trkpt lat="41.5525851" lon="15.5011396"><ele>45.0</ele><time>2026-04-19T06:42:03.996Z</time></trkpt><trkpt lat="41.5527544" lon="15.5011166"><ele>45.0</ele><time>2026-04-19T06:42:04.996Z</time></trkpt><trkpt lat="41.5529232" lon="15.5010941"><ele>45.0</ele><time>2026-04-19T06:42:05.997Z</time></trkpt><trkpt lat="41.5530927" lon="15.5010731"><ele>44.666666666666664</ele><time>2026-04-19T06:42:06.996Z</time></trkpt><trkpt lat="41.5532591" lon="15.5010527"><ele>44.33333333333333</ele><time>2026-04-19T06:42:07.996Z</time></trkpt><trkpt lat="41.553419" lon="15.501033"><ele>44.0</ele><time>2026-04-19T06:42:08.996Z</time></trkpt><trkpt lat="41.5535764" lon="15.5010154"><ele>43.666666666666664</ele><time>2026-04-19T06:42:09.996Z</time></trkpt><trkpt lat="41.5537327" lon="15.5009966"><ele>43.333333333333336</ele><time>2026-04-19T06:42:10.996Z</time></trkpt><trkpt lat="41.5538887" lon="15.5009811"><ele>43.0</ele><time>2026-04-19T06:42:11.996Z</time></trkpt><trkpt lat="41.5540433" lon="15.5009683"><ele>43.0</ele><time>2026-04-19T06:42:12.996Z</time></trkpt><trkpt lat="41.5542017" lon="15.50095"><ele>43.0</ele><time>2026-04-19T06:42:13.996Z</time></trkpt><trkpt lat="41.5543567" lon="15.5009317"><ele>43.0</ele><time>2026-04-19T06:42:14.996Z</time></trkpt><trkpt lat="41.5545133" lon="15.50091"><ele>43.0</ele><time>2026-04-19T06:42:15.996Z</time></trkpt><trkpt lat="41.55467" lon="15.50089"><ele>43.0</ele><time>2026-04-19T06:42:16.997Z</time></trkpt><trkpt lat="41.5548267" lon="15.50087"><ele>43.0</ele><time>2026-04-19T06:42:17.996Z</time></trkpt><trkpt lat="41.5549833" lon="15.5008483"><ele>43.0</ele><time>2026-04-19T06:42:18.996Z</time></trkpt><trkpt lat="41.55514" lon="15.50083"><ele>43.0</ele><time>2026-04-19T06:42:19.996Z</time></trkpt><trkpt lat="41.5552933" lon="15.5008133"><ele>43.0</ele><time>2026-04-19T06:42:20.996Z</time></trkpt><trkpt lat="41.555445" lon="15.5007967"><ele>43.0</ele><time>2026-04-19T06:42:21.996Z</time></trkpt><trkpt lat="41.5556" lon="15.50078"><ele>43.0</ele><time>2026-04-19T06:42:22.996Z</time></trkpt><trkpt lat="41.5557533" lon="15.5007617"><ele>43.0</ele><time>2026-04-19T06:42:23.996Z</time></trkpt><trkpt lat="41.55591" lon="15.5007433"><ele>43.0</ele><time>2026-04-19T06:42:24.997Z</time></trkpt><trkpt lat="41.5560667" lon="15.5007217"><ele>43.0</ele><time>2026-04-19T06:42:25.996Z</time></trkpt><trkpt lat="41.5562267" lon="15.5007"><ele>43.0</ele><time>2026-04-19T06:42:26.996Z</time></trkpt><trkpt lat="41.55639" lon="15.5006783"><ele>43.333333333333336</ele><time>2026-04-19T06:42:27.996Z</time></trkpt><trkpt lat="41.556555" lon="15.500655"><ele>43.666666666666664</ele><time>2026-04-19T06:42:28.997Z</time></trkpt><trkpt lat="41.5567183" lon="15.5006333"><ele>44.0</ele><time>2026-04-19T06:42:29.997Z</time></trkpt><trkpt lat="41.5568817" lon="15.500615"><ele>44.0</ele><time>2026-04-19T06:42:30.996Z</time></trkpt><trkpt lat="41.5570433" lon="15.500595"><ele>44.0</ele><time>2026-04-19T06:42:31.996Z</time></trkpt><trkpt lat="41.557205" lon="15.5005767"><ele>44.0</ele><time>2026-04-19T06:42:32.996Z</time></trkpt><trkpt lat="41.5573683" lon="15.5005567"><ele>44.0</ele><time>2026-04-19T06:42:33.996Z</time></trkpt><trkpt lat="41.55753" lon="15.500535"><ele>44.0</ele><time>2026-04-19T06:42:34.996Z</time></trkpt><trkpt lat="41.5576883" lon="15.5005133"><ele>44.0</ele><time>2026-04-19T06:42:35.996Z</time></trkpt><trkpt lat="41.5578433" lon="15.500495"><ele>44.0</ele><time>2026-04-19T06:42:36.997Z</time></trkpt><trkpt lat="41.558" lon="15.5004733"><ele>44.0</ele><time>2026-04-19T06:42:37.996Z</time></trkpt><trkpt lat="41.5581583" lon="15.50045"><ele>44.0</ele><time>2026-04-19T06:42:38.996Z</time></trkpt><trkpt lat="41.558315" lon="15.5004283"><ele>43.666666666666664</ele><time>2026-04-19T06:42:39.996Z</time></trkpt><trkpt lat="41.5584733" lon="15.5004083"><ele>43.333333333333336</ele><time>2026-04-19T06:42:40.996Z</time></trkpt><trkpt lat="41.5586333" lon="15.5003867"><ele>43.0</ele><time>2026-04-19T06:42:41.996Z</time></trkpt><trkpt lat="41.5587933" lon="15.5003617"><ele>43.0</ele><time>2026-04-19T06:42:42.997Z</time></trkpt><trkpt lat="41.5589533" lon="15.5003367"><ele>43.0</ele><time>2026-04-19T06:42:43.997Z</time></trkpt><trkpt lat="41.5591133" lon="15.5003117"><ele>43.0</ele><time>2026-04-19T06:42:44.996Z</time></trkpt><trkpt lat="41.5592717" lon="15.5002867"><ele>43.0</ele><time>2026-04-19T06:42:45.996Z</time></trkpt><trkpt lat="41.5594333" lon="15.5002633"><ele>43.0</ele><time>2026-04-19T06:42:46.996Z</time></trkpt><trkpt lat="41.559595" lon="15.50024"><ele>43.0</ele><time>2026-04-19T06:42:47.997Z</time></trkpt><trkpt lat="41.5597567" lon="15.5002167"><ele>42.66666666666667</ele><time>2026-04-19T06:42:48.996Z</time></trkpt><trkpt lat="41.5599183" lon="15.5001883"><ele>42.333333333333336</ele><time>2026-04-19T06:42:49.996Z</time></trkpt><trkpt lat="41.5600783" lon="15.5001633"><ele>42.0</ele><time>2026-04-19T06:42:50.996Z</time></trkpt><trkpt lat="41.56024" lon="15.500135"><ele>42.0</ele><time>2026-04-19T06:42:51.997Z</time></trkpt><trkpt lat="41.5604067" lon="15.5001067"><ele>42.0</ele><time>2026-04-19T06:42:52.996Z</time></trkpt><trkpt lat="41.5605733" lon="15.5000783"><ele>42.0</ele><time>2026-04-19T06:42:53.996Z</time></trkpt><trkpt lat="41.5607433" lon="15.5000483"><ele>42.0</ele><time>2026-04-19T06:42:54.996Z</time></trkpt><trkpt lat="41.5609133" lon="15.50002"><ele>42.0</ele><time>2026-04-19T06:42:55.996Z</time></trkpt><trkpt lat="41.5610767" lon="15.499995"><ele>42.0</ele><time>2026-04-19T06:42:56.997Z</time></trkpt><trkpt lat="41.56124" lon="15.4999667"><ele>42.333333333333336</ele><time>2026-04-19T06:42:57.996Z</time></trkpt><trkpt lat="41.5614033" lon="15.49994"><ele>42.66666666666667</ele><time>2026-04-19T06:42:58.996Z</time></trkpt><trkpt lat="41.56157" lon="15.4999133"><ele>43.0</ele><time>2026-04-19T06:42:59.996Z</time></trkpt><trkpt lat="41.5617383" lon="15.49989"><ele>43.0</ele><time>2026-04-19T06:43:00.996Z</time></trkpt><trkpt lat="41.5619083" lon="15.4998667"><ele>43.0</ele><time>2026-04-19T06:43:01.996Z</time></trkpt><trkpt lat="41.5620767" lon="15.4998417"><ele>43.0</ele><time>2026-04-19T06:43:02.996Z</time></trkpt><trkpt lat="41.562245" lon="15.4998133"><ele>42.66666666666667</ele><time>2026-04-19T06:43:03.996Z</time></trkpt><trkpt lat="41.5624117" lon="15.499785"><ele>42.333333333333336</ele><time>2026-04-19T06:43:04.997Z</time></trkpt><trkpt lat="41.5625767" lon="15.4997567"><ele>42.0</ele><time>2026-04-19T06:43:05.997Z</time></trkpt><trkpt lat="41.5627417" lon="15.4997317"><ele>42.0</ele><time>2026-04-19T06:43:06.996Z</time></trkpt><trkpt lat="41.5629083" lon="15.499705"><ele>42.0</ele><time>2026-04-19T06:43:07.996Z</time></trkpt><trkpt lat="41.5630733" lon="15.49968"><ele>42.0</ele><time>2026-04-19T06:43:08.996Z</time></trkpt><trkpt lat="41.56324" lon="15.4996517"><ele>42.0</ele><time>2026-04-19T06:43:09.996Z</time></trkpt><trkpt lat="41.563405" lon="15.4996217"><ele>42.0</ele><time>2026-04-19T06:43:10.996Z</time></trkpt><trkpt lat="41.56357" lon="15.4995933"><ele>42.0</ele><time>2026-04-19T06:43:11.997Z</time></trkpt><trkpt lat="41.5637333" lon="15.4995683"><ele>42.333333333333336</ele><time>2026-04-19T06:43:12.996Z</time></trkpt><trkpt lat="41.5638967" lon="15.4995417"><ele>42.66666666666667</ele><time>2026-04-19T06:43:13.996Z</time></trkpt><trkpt lat="41.5640583" lon="15.4995167"><ele>43.0</ele><time>2026-04-19T06:43:14.997Z</time></trkpt><trkpt lat="41.5642183" lon="15.4994933"><ele>43.0</ele><time>2026-04-19T06:43:15.996Z</time></trkpt><trkpt lat="41.56438" lon="15.4994667"><ele>43.0</ele><time>2026-04-19T06:43:16.996Z</time></trkpt><trkpt lat="41.5645417" lon="15.4994367"><ele>43.0</ele><time>2026-04-19T06:43:17.996Z</time></trkpt><trkpt lat="41.5647017" lon="15.4994017"><ele>42.66666666666667</ele><time>2026-04-19T06:43:18.996Z</time></trkpt><trkpt lat="41.56486" lon="15.49936"><ele>42.333333333333336</ele><time>2026-04-19T06:43:19.996Z</time></trkpt><trkpt lat="41.5650171" lon="15.4993109"><ele>42.0</ele><time>2026-04-19T06:43:20.996Z</time></trkpt><trkpt lat="41.5651701" lon="15.4992518"><ele>42.0</ele><time>2026-04-19T06:43:21.996Z</time></trkpt><trkpt lat="41.5653219" lon="15.4991818"><ele>42.0</ele><time>2026-04-19T06:43:22.996Z</time></trkpt><trkpt lat="41.5654745" lon="15.4991074"><ele>42.0</ele><time>2026-04-19T06:43:23.996Z</time></trkpt><trkpt lat="41.5656277" lon="15.4990332"><ele>42.0</ele><time>2026-04-19T06:43:24.996Z</time></trkpt><trkpt lat="41.5657805" lon="15.498953"><ele>42.0</ele><time>2026-04-19T06:43:25.996Z</time></trkpt><trkpt lat="41.5659322" lon="15.4988685"><ele>42.0</ele><time>2026-04-19T06:43:26.996Z</time></trkpt><trkpt lat="41.566081" lon="15.4987797"><ele>41.666666666666664</ele><time>2026-04-19T06:43:27.996Z</time></trkpt><trkpt lat="41.5662276" lon="15.4986889"><ele>41.33333333333333</ele><time>2026-04-19T06:43:28.996Z</time></trkpt><trkpt lat="41.5663712" lon="15.4985985"><ele>41.0</ele><time>2026-04-19T06:43:29.996Z</time></trkpt><trkpt lat="41.5665144" lon="15.4985092"><ele>41.0</ele><time>2026-04-19T06:43:30.996Z</time></trkpt><trkpt lat="41.5666575" lon="15.4984215"><ele>41.0</ele><time>2026-04-19T06:43:31.996Z</time></trkpt><trkpt lat="41.5667984" lon="15.4983337"><ele>41.0</ele><time>2026-04-19T06:43:32.996Z</time></trkpt><trkpt lat="41.5669384" lon="15.4982449"><ele>41.666666666666664</ele><time>2026-04-19T06:43:33.997Z</time></trkpt><trkpt lat="41.5670783" lon="15.4981542"><ele>42.333333333333336</ele><time>2026-04-19T06:43:34.997Z</time></trkpt><trkpt lat="41.5672165" lon="15.4980601"><ele>43.0</ele><time>2026-04-19T06:43:35.996Z</time></trkpt><trkpt lat="41.5673522" lon="15.4979611"><ele>43.0</ele><time>2026-04-19T06:43:36.996Z</time></trkpt><trkpt lat="41.5674869" lon="15.4978563"><ele>43.0</ele><time>2026-04-19T06:43:37.996Z</time></trkpt><trkpt lat="41.5676216" lon="15.4977474"><ele>43.0</ele><time>2026-04-19T06:43:38.996Z</time></trkpt><trkpt lat="41.5677574" lon="15.4976355"><ele>42.333333333333336</ele><time>2026-04-19T06:43:39.996Z</time></trkpt><trkpt lat="41.5678928" lon="15.497521"><ele>41.666666666666664</ele><time>2026-04-19T06:43:40.997Z</time></trkpt><trkpt lat="41.5680257" lon="15.4974016"><ele>41.0</ele><time>2026-04-19T06:43:41.996Z</time></trkpt><trkpt lat="41.568157" lon="15.497279"><ele>41.0</ele><time>2026-04-19T06:43:42.996Z</time></trkpt><trkpt lat="41.568288" lon="15.4971566"><ele>41.0</ele><time>2026-04-19T06:43:43.996Z</time></trkpt><trkpt lat="41.5684179" lon="15.4970347"><ele>41.0</ele><time>2026-04-19T06:43:44.996Z</time></trkpt><trkpt lat="41.5685452" lon="15.4969143"><ele>41.0</ele><time>2026-04-19T06:43:45.996Z</time></trkpt><trkpt lat="41.5686728" lon="15.4967957"><ele>41.0</ele><time>2026-04-19T06:43:46.996Z</time></trkpt><trkpt lat="41.5688009" lon="15.4966747"><ele>41.0</ele><time>2026-04-19T06:43:47.997Z</time></trkpt><trkpt lat="41.5689277" lon="15.4965487"><ele>41.0</ele><time>2026-04-19T06:43:48.996Z</time></trkpt><trkpt lat="41.5690543" lon="15.4964226"><ele>41.0</ele><time>2026-04-19T06:43:49.996Z</time></trkpt><trkpt lat="41.569181" lon="15.4962938"><ele>41.0</ele><time>2026-04-19T06:43:50.996Z</time></trkpt><trkpt lat="41.5693076" lon="15.496166"><ele>41.0</ele><time>2026-04-19T06:43:51.996Z</time></trkpt><trkpt lat="41.5694342" lon="15.4960389"><ele>41.0</ele><time>2026-04-19T06:43:52.996Z</time></trkpt><trkpt lat="41.5695608" lon="15.4959111"><ele>41.0</ele><time>2026-04-19T06:43:53.996Z</time></trkpt><trkpt lat="41.5696885" lon="15.4957819"><ele>41.0</ele><time>2026-04-19T06:43:54.996Z</time></trkpt><trkpt lat="41.5698167" lon="15.495652"><ele>41.0</ele><time>2026-04-19T06:43:55.996Z</time></trkpt><trkpt lat="41.5699466" lon="15.4955239"><ele>41.0</ele><time>2026-04-19T06:43:56.996Z</time></trkpt><trkpt lat="41.5700782" lon="15.4953974"><ele>41.33333333333333</ele><time>2026-04-19T06:43:57.996Z</time></trkpt><trkpt lat="41.5702104" lon="15.4952694"><ele>41.666666666666664</ele><time>2026-04-19T06:43:58.997Z</time></trkpt><trkpt lat="41.5703412" lon="15.4951382"><ele>42.0</ele><time>2026-04-19T06:43:59.996Z</time></trkpt><trkpt lat="41.5704711" lon="15.4950068"><ele>42.0</ele><time>2026-04-19T06:44:00.996Z</time></trkpt><trkpt lat="41.5705996" lon="15.4948763"><ele>42.0</ele><time>2026-04-19T06:44:01.997Z</time></trkpt><trkpt lat="41.5707276" lon="15.4947455"><ele>42.0</ele><time>2026-04-19T06:44:02.997Z</time></trkpt><trkpt lat="41.5708558" lon="15.4946152"><ele>42.0</ele><time>2026-04-19T06:44:03.996Z</time></trkpt><trkpt lat="41.5709829" lon="15.4944861"><ele>42.0</ele><time>2026-04-19T06:44:04.996Z</time></trkpt><trkpt lat="41.5711109" lon="15.4943597"><ele>42.0</ele><time>2026-04-19T06:44:05.996Z</time></trkpt><trkpt lat="41.5712381" lon="15.4942352"><ele>42.0</ele><time>2026-04-19T06:44:06.996Z</time></trkpt><trkpt lat="41.5713633" lon="15.494111"><ele>42.0</ele><time>2026-04-19T06:44:07.996Z</time></trkpt><trkpt lat="41.5714878" lon="15.493984"><ele>42.0</ele><time>2026-04-19T06:44:08.996Z</time></trkpt><trkpt lat="41.5716114" lon="15.4938571"><ele>41.666666666666664</ele><time>2026-04-19T06:44:09.996Z</time></trkpt><trkpt lat="41.5717337" lon="15.4937292"><ele>41.33333333333333</ele><time>2026-04-19T06:44:10.996Z</time></trkpt><trkpt lat="41.5718552" lon="15.4935984"><ele>41.0</ele><time>2026-04-19T06:44:11.996Z</time></trkpt><trkpt lat="41.5719755" lon="15.4934668"><ele>41.33333333333333</ele><time>2026-04-19T06:44:12.996Z</time></trkpt><trkpt lat="41.5720941" lon="15.4933321"><ele>41.666666666666664</ele><time>2026-04-19T06:44:13.996Z</time></trkpt><trkpt lat="41.5722143" lon="15.4931926"><ele>42.0</ele><time>2026-04-19T06:44:14.996Z</time></trkpt><trkpt lat="41.5723344" lon="15.4930468"><ele>42.0</ele><time>2026-04-19T06:44:15.997Z</time></trkpt><trkpt lat="41.5724544" lon="15.4928971"><ele>42.0</ele><time>2026-04-19T06:44:16.997Z</time></trkpt><trkpt lat="41.5725748" lon="15.4927437"><ele>42.0</ele><time>2026-04-19T06:44:17.996Z</time></trkpt><trkpt lat="41.5726924" lon="15.4925868"><ele>42.0</ele><time>2026-04-19T06:44:18.996Z</time></trkpt><trkpt lat="41.5728048" lon="15.4924284"><ele>42.0</ele><time>2026-04-19T06:44:19.996Z</time></trkpt><trkpt lat="41.5729128" lon="15.4922679"><ele>42.0</ele><time>2026-04-19T06:44:20.996Z</time></trkpt><trkpt lat="41.5730184" lon="15.4921081"><ele>42.666666666666664</ele><time>2026-04-19T06:44:21.996Z</time></trkpt><trkpt lat="41.5731218" lon="15.4919455"><ele>43.33333333333333</ele><time>2026-04-19T06:44:22.997Z</time></trkpt><trkpt lat="41.573222" lon="15.4917818"><ele>44.0</ele><time>2026-04-19T06:44:23.996Z</time></trkpt><trkpt lat="41.5733199" lon="15.4916179"><ele>44.0</ele><time>2026-04-19T06:44:24.996Z</time></trkpt><trkpt lat="41.5734162" lon="15.4914519"><ele>44.0</ele><time>2026-04-19T06:44:25.996Z</time></trkpt><trkpt lat="41.5735113" lon="15.4912862"><ele>44.0</ele><time>2026-04-19T06:44:26.996Z</time></trkpt><trkpt lat="41.5736067" lon="15.4911192"><ele>44.33333333333333</ele><time>2026-04-19T06:44:27.996Z</time></trkpt><trkpt lat="41.5737016" lon="15.4909535"><ele>44.666666666666664</ele><time>2026-04-19T06:44:28.997Z</time></trkpt><trkpt lat="41.5737974" lon="15.4907894"><ele>45.0</ele><time>2026-04-19T06:44:29.996Z</time></trkpt><trkpt lat="41.5738926" lon="15.490625"><ele>45.0</ele><time>2026-04-19T06:44:30.997Z</time></trkpt><trkpt lat="41.5739875" lon="15.4904606"><ele>45.0</ele><time>2026-04-19T06:44:31.996Z</time></trkpt><trkpt lat="41.5740826" lon="15.4902971"><ele>45.0</ele><time>2026-04-19T06:44:32.996Z</time></trkpt><trkpt lat="41.5741761" lon="15.4901347"><ele>45.333333333333336</ele><time>2026-04-19T06:44:33.996Z</time></trkpt><trkpt lat="41.5742668" lon="15.4899723"><ele>45.66666666666667</ele><time>2026-04-19T06:44:34.997Z</time></trkpt><trkpt lat="41.5743559" lon="15.4898086"><ele>46.0</ele><time>2026-04-19T06:44:35.996Z</time></trkpt><trkpt lat="41.5744464" lon="15.4896449"><ele>46.66666666666667</ele><time>2026-04-19T06:44:36.996Z</time></trkpt><trkpt lat="41.5745384" lon="15.4894794"><ele>47.333333333333336</ele><time>2026-04-19T06:44:37.996Z</time></trkpt><trkpt lat="41.5746367" lon="15.4893117"><ele>48.0</ele><time>2026-04-19T06:44:38.996Z</time></trkpt><trkpt lat="41.574735" lon="15.4891417"><ele>48.0</ele><time>2026-04-19T06:44:39.996Z</time></trkpt><trkpt lat="41.5748333" lon="15.4889683"><ele>48.0</ele><time>2026-04-19T06:44:40.996Z</time></trkpt><trkpt lat="41.5749333" lon="15.4887933"><ele>48.0</ele><time>2026-04-19T06:44:41.996Z</time></trkpt><trkpt lat="41.5750333" lon="15.4886167"><ele>47.333333333333336</ele><time>2026-04-19T06:44:42.997Z</time></trkpt><trkpt lat="41.575135" lon="15.4884383"><ele>46.66666666666667</ele><time>2026-04-19T06:44:43.997Z</time></trkpt><trkpt lat="41.5752383" lon="15.4882617"><ele>46.0</ele><time>2026-04-19T06:44:44.996Z</time></trkpt><trkpt lat="41.5753417" lon="15.4880833"><ele>46.0</ele><time>2026-04-19T06:44:45.996Z</time></trkpt><trkpt lat="41.5754517" lon="15.48791"><ele>46.0</ele><time>2026-04-19T06:44:46.997Z</time></trkpt><trkpt lat="41.5755617" lon="15.4877383"><ele>46.0</ele><time>2026-04-19T06:44:47.996Z</time></trkpt><trkpt lat="41.5756717" lon="15.4875683"><ele>46.0</ele><time>2026-04-19T06:44:48.996Z</time></trkpt><trkpt lat="41.575785" lon="15.4874"><ele>46.0</ele><time>2026-04-19T06:44:49.997Z</time></trkpt><trkpt lat="41.5759017" lon="15.487235"><ele>46.0</ele><time>2026-04-19T06:44:50.996Z</time></trkpt><trkpt lat="41.5760233" lon="15.4870717"><ele>46.0</ele><time>2026-04-19T06:44:51.996Z</time></trkpt><trkpt lat="41.5761467" lon="15.48691"><ele>46.0</ele><time>2026-04-19T06:44:52.996Z</time></trkpt><trkpt lat="41.5762733" lon="15.4867517"><ele>46.0</ele><time>2026-04-19T06:44:53.996Z</time></trkpt><trkpt lat="41.576405" lon="15.4865983"><ele>46.0</ele><time>2026-04-19T06:44:54.996Z</time></trkpt><trkpt lat="41.57654" lon="15.486445"><ele>46.0</ele><time>2026-04-19T06:44:55.996Z</time></trkpt><trkpt lat="41.5766767" lon="15.486295"><ele>46.0</ele><time>2026-04-19T06:44:56.996Z</time></trkpt><trkpt lat="41.5768133" lon="15.486145"><ele>46.0</ele><time>2026-04-19T06:44:57.997Z</time></trkpt><trkpt lat="41.5769533" lon="15.4859983"><ele>46.0</ele><time>2026-04-19T06:44:58.996Z</time></trkpt><trkpt lat="41.5770933" lon="15.48585"><ele>46.0</ele><time>2026-04-19T06:44:59.996Z</time></trkpt><trkpt lat="41.5772317" lon="15.4857"><ele>46.333333333333336</ele><time>2026-04-19T06:45:00.996Z</time></trkpt><trkpt lat="41.5773717" lon="15.4855517"><ele>46.666666666666664</ele><time>2026-04-19T06:45:01.996Z</time></trkpt><trkpt lat="41.5775083" lon="15.485405"><ele>47.0</ele><time>2026-04-19T06:45:02.996Z</time></trkpt><trkpt lat="41.5776467" lon="15.4852583"><ele>47.0</ele><time>2026-04-19T06:45:03.996Z</time></trkpt><trkpt lat="41.577785" lon="15.4851083"><ele>47.0</ele><time>2026-04-19T06:45:04.996Z</time></trkpt><trkpt lat="41.5779217" lon="15.4849633"><ele>47.0</ele><time>2026-04-19T06:45:05.996Z</time></trkpt><trkpt lat="41.5780617" lon="15.4848217"><ele>47.0</ele><time>2026-04-19T06:45:06.997Z</time></trkpt><trkpt lat="41.5781983" lon="15.4846817"><ele>47.0</ele><time>2026-04-19T06:45:07.997Z</time></trkpt><trkpt lat="41.5783367" lon="15.48454"><ele>47.0</ele><time>2026-04-19T06:45:08.996Z</time></trkpt><trkpt lat="41.5784717" lon="15.4843983"><ele>47.0</ele><time>2026-04-19T06:45:09.996Z</time></trkpt><trkpt lat="41.578605" lon="15.4842567"><ele>47.0</ele><time>2026-04-19T06:45:10.996Z</time></trkpt><trkpt lat="41.5787383" lon="15.484115"><ele>47.0</ele><time>2026-04-19T06:45:11.996Z</time></trkpt><trkpt lat="41.5788733" lon="15.483975"><ele>46.666666666666664</ele><time>2026-04-19T06:45:12.996Z</time></trkpt><trkpt lat="41.5790083" lon="15.483835"><ele>46.333333333333336</ele><time>2026-04-19T06:45:13.996Z</time></trkpt><trkpt lat="41.5791417" lon="15.483695"><ele>46.0</ele><time>2026-04-19T06:45:14.996Z</time></trkpt><trkpt lat="41.579275" lon="15.4835567"><ele>46.0</ele><time>2026-04-19T06:45:15.996Z</time></trkpt><trkpt lat="41.5794067" lon="15.4834183"><ele>46.0</ele><time>2026-04-19T06:45:16.997Z</time></trkpt><trkpt lat="41.57954" lon="15.4832783"><ele>46.0</ele><time>2026-04-19T06:45:17.997Z</time></trkpt><trkpt lat="41.5796717" lon="15.4831383"><ele>46.0</ele><time>2026-04-19T06:45:18.996Z</time></trkpt><trkpt lat="41.579805" lon="15.4829983"><ele>46.0</ele><time>2026-04-19T06:45:19.996Z</time></trkpt><trkpt lat="41.57994" lon="15.4828617"><ele>46.0</ele><time>2026-04-19T06:45:20.996Z</time></trkpt><trkpt lat="41.5800733" lon="15.482725"><ele>46.0</ele><time>2026-04-19T06:45:21.997Z</time></trkpt><trkpt lat="41.580205" lon="15.4825883"><ele>46.0</ele><time>2026-04-19T06:45:22.996Z</time></trkpt><trkpt lat="41.5803367" lon="15.48245"><ele>46.0</ele><time>2026-04-19T06:45:23.996Z</time></trkpt><trkpt lat="41.58047" lon="15.48231"><ele>46.0</ele><time>2026-04-19T06:45:24.996Z</time></trkpt><trkpt lat="41.5806017" lon="15.48217"><ele>46.0</ele><time>2026-04-19T06:45:25.996Z</time></trkpt><trkpt lat="41.5807317" lon="15.48203"><ele>46.0</ele><time>2026-04-19T06:45:26.996Z</time></trkpt><trkpt lat="41.5808633" lon="15.4818917"><ele>46.0</ele><time>2026-04-19T06:45:27.997Z</time></trkpt><trkpt lat="41.580995" lon="15.481755"><ele>46.0</ele><time>2026-04-19T06:45:28.996Z</time></trkpt><trkpt lat="41.5811267" lon="15.4816183"><ele>46.0</ele><time>2026-04-19T06:45:29.996Z</time></trkpt><trkpt lat="41.5812583" lon="15.4814817"><ele>45.66666666666667</ele><time>2026-04-19T06:45:30.996Z</time></trkpt><trkpt lat="41.5813883" lon="15.4813467"><ele>45.333333333333336</ele><time>2026-04-19T06:45:31.996Z</time></trkpt><trkpt lat="41.581515" lon="15.481215"><ele>45.0</ele><time>2026-04-19T06:45:32.996Z</time></trkpt><trkpt lat="41.5816433" lon="15.4810833"><ele>45.0</ele><time>2026-04-19T06:45:33.996Z</time></trkpt><trkpt lat="41.5817683" lon="15.4809533"><ele>45.0</ele><time>2026-04-19T06:45:34.996Z</time></trkpt><trkpt lat="41.5818917" lon="15.4808233"><ele>45.0</ele><time>2026-04-19T06:45:35.996Z</time></trkpt><trkpt lat="41.582015" lon="15.4806933"><ele>45.333333333333336</ele><time>2026-04-19T06:45:36.996Z</time></trkpt><trkpt lat="41.5821367" lon="15.480565"><ele>45.66666666666667</ele><time>2026-04-19T06:45:37.996Z</time></trkpt><trkpt lat="41.5822567" lon="15.4804383"><ele>46.0</ele><time>2026-04-19T06:45:38.997Z</time></trkpt><trkpt lat="41.5823783" lon="15.4803133"><ele>46.333333333333336</ele><time>2026-04-19T06:45:39.996Z</time></trkpt><trkpt lat="41.5824983" lon="15.4801883"><ele>46.666666666666664</ele><time>2026-04-19T06:45:40.997Z</time></trkpt><trkpt lat="41.58262" lon="15.4800633"><ele>47.0</ele><time>2026-04-19T06:45:41.996Z</time></trkpt><trkpt lat="41.5827433" lon="15.4799383"><ele>47.0</ele><time>2026-04-19T06:45:42.997Z</time></trkpt><trkpt lat="41.582865" lon="15.47981"><ele>47.0</ele><time>2026-04-19T06:45:43.996Z</time></trkpt><trkpt lat="41.5829883" lon="15.4796817"><ele>47.0</ele><time>2026-04-19T06:45:44.996Z</time></trkpt><trkpt lat="41.58311" lon="15.4795533"><ele>47.0</ele><time>2026-04-19T06:45:45.996Z</time></trkpt><trkpt lat="41.5832317" lon="15.4794233"><ele>47.0</ele><time>2026-04-19T06:45:46.996Z</time></trkpt><trkpt lat="41.583355" lon="15.4792933"><ele>47.0</ele><time>2026-04-19T06:45:47.996Z</time></trkpt><trkpt lat="41.5834767" lon="15.4791667"><ele>47.0</ele><time>2026-04-19T06:45:48.996Z</time></trkpt><trkpt lat="41.5835983" lon="15.47904"><ele>47.0</ele><time>2026-04-19T06:45:49.996Z</time></trkpt><trkpt lat="41.5837167" lon="15.4789183"><ele>47.0</ele><time>2026-04-19T06:45:50.996Z</time></trkpt><trkpt lat="41.583835" lon="15.4787983"><ele>47.0</ele><time>2026-04-19T06:45:51.996Z</time></trkpt><trkpt lat="41.5839517" lon="15.47868"><ele>47.0</ele><time>2026-04-19T06:45:52.997Z</time></trkpt><trkpt lat="41.5840683" lon="15.47856"><ele>47.0</ele><time>2026-04-19T06:45:53.996Z</time></trkpt><trkpt lat="41.584185" lon="15.47844"><ele>47.0</ele><time>2026-04-19T06:45:54.996Z</time></trkpt><trkpt lat="41.5843033" lon="15.4783167"><ele>47.0</ele><time>2026-04-19T06:45:55.996Z</time></trkpt><trkpt lat="41.5844233" lon="15.47819"><ele>47.0</ele><time>2026-04-19T06:45:56.996Z</time></trkpt><trkpt lat="41.584545" lon="15.4780583"><ele>47.0</ele><time>2026-04-19T06:45:57.996Z</time></trkpt><trkpt lat="41.5846683" lon="15.4779283"><ele>46.666666666666664</ele><time>2026-04-19T06:45:58.997Z</time></trkpt><trkpt lat="41.5847933" lon="15.4777983"><ele>46.333333333333336</ele><time>2026-04-19T06:45:59.996Z</time></trkpt><trkpt lat="41.5849183" lon="15.4776667"><ele>46.0</ele><time>2026-04-19T06:46:00.997Z</time></trkpt><trkpt lat="41.5850417" lon="15.477535"><ele>46.0</ele><time>2026-04-19T06:46:01.997Z</time></trkpt><trkpt lat="41.585165" lon="15.4774017"><ele>46.0</ele><time>2026-04-19T06:46:02.996Z</time></trkpt><trkpt lat="41.58529" lon="15.4772717"><ele>46.0</ele><time>2026-04-19T06:46:03.996Z</time></trkpt><trkpt lat="41.585415" lon="15.47714"><ele>45.66666666666667</ele><time>2026-04-19T06:46:04.996Z</time></trkpt><trkpt lat="41.58554" lon="15.47701"><ele>45.333333333333336</ele><time>2026-04-19T06:46:05.996Z</time></trkpt><trkpt lat="41.5856667" lon="15.47688"><ele>45.0</ele><time>2026-04-19T06:46:06.997Z</time></trkpt><trkpt lat="41.5857917" lon="15.4767517"><ele>45.0</ele><time>2026-04-19T06:46:07.996Z</time></trkpt><trkpt lat="41.5859183" lon="15.4766233"><ele>45.0</ele><time>2026-04-19T06:46:08.996Z</time></trkpt><trkpt lat="41.586045" lon="15.476495"><ele>45.0</ele><time>2026-04-19T06:46:09.996Z</time></trkpt><trkpt lat="41.5861717" lon="15.476365"><ele>45.666666666666664</ele><time>2026-04-19T06:46:10.997Z</time></trkpt><trkpt lat="41.5862967" lon="15.476235"><ele>46.33333333333333</ele><time>2026-04-19T06:46:11.996Z</time></trkpt><trkpt lat="41.5864233" lon="15.476105"><ele>47.0</ele><time>2026-04-19T06:46:12.997Z</time></trkpt><trkpt lat="41.58655" lon="15.4759767"><ele>47.0</ele><time>2026-04-19T06:46:13.996Z</time></trkpt><trkpt lat="41.5866783" lon="15.4758533"><ele>47.0</ele><time>2026-04-19T06:46:14.996Z</time></trkpt><trkpt lat="41.58681" lon="15.4757367"><ele>47.0</ele><time>2026-04-19T06:46:15.996Z</time></trkpt><trkpt lat="41.5869483" lon="15.4756283"><ele>47.0</ele><time>2026-04-19T06:46:16.997Z</time></trkpt><trkpt lat="41.58709" lon="15.4755283"><ele>47.0</ele><time>2026-04-19T06:46:17.996Z</time></trkpt><trkpt lat="41.587235" lon="15.475435"><ele>47.0</ele><time>2026-04-19T06:46:18.996Z</time></trkpt><trkpt lat="41.5873833" lon="15.47534"><ele>46.666666666666664</ele><time>2026-04-19T06:46:19.996Z</time></trkpt><trkpt lat="41.5875317" lon="15.4752483"><ele>46.333333333333336</ele><time>2026-04-19T06:46:20.997Z</time></trkpt><trkpt lat="41.5876833" lon="15.4751583"><ele>46.0</ele><time>2026-04-19T06:46:21.996Z</time></trkpt><trkpt lat="41.5878333" lon="15.47507"><ele>46.0</ele><time>2026-04-19T06:46:22.996Z</time></trkpt><trkpt lat="41.5879817" lon="15.4749833"><ele>46.0</ele><time>2026-04-19T06:46:23.996Z</time></trkpt><trkpt lat="41.58813" lon="15.474895"><ele>46.0</ele><time>2026-04-19T06:46:24.997Z</time></trkpt><trkpt lat="41.5882783" lon="15.474805"><ele>46.0</ele><time>2026-04-19T06:46:25.996Z</time></trkpt><trkpt lat="41.588425" lon="15.474715"><ele>46.0</ele><time>2026-04-19T06:46:26.996Z</time></trkpt><trkpt lat="41.5885717" lon="15.4746267"><ele>46.0</ele><time>2026-04-19T06:46:27.996Z</time></trkpt><trkpt lat="41.5887133" lon="15.4745417"><ele>46.333333333333336</ele><time>2026-04-19T06:46:28.996Z</time></trkpt><trkpt lat="41.5888533" lon="15.4744583"><ele>46.666666666666664</ele><time>2026-04-19T06:46:29.996Z</time></trkpt><trkpt lat="41.5889933" lon="15.4743767"><ele>47.0</ele><time>2026-04-19T06:46:30.997Z</time></trkpt><trkpt lat="41.58913" lon="15.4742967"><ele>47.0</ele><time>2026-04-19T06:46:31.997Z</time></trkpt><trkpt lat="41.589265" lon="15.4742133"><ele>47.0</ele><time>2026-04-19T06:46:32.996Z</time></trkpt><trkpt lat="41.5894" lon="15.4741333"><ele>47.0</ele><time>2026-04-19T06:46:33.996Z</time></trkpt><trkpt lat="41.5895367" lon="15.474055"><ele>47.0</ele><time>2026-04-19T06:46:34.997Z</time></trkpt><trkpt lat="41.589675" lon="15.4739767"><ele>47.0</ele><time>2026-04-19T06:46:35.996Z</time></trkpt><trkpt lat="41.5898133" lon="15.473895"><ele>47.0</ele><time>2026-04-19T06:46:36.996Z</time></trkpt><trkpt lat="41.5899517" lon="15.4738117"><ele>47.0</ele><time>2026-04-19T06:46:37.997Z</time></trkpt><trkpt lat="41.59009" lon="15.4737283"><ele>47.0</ele><time>2026-04-19T06:46:38.996Z</time></trkpt><trkpt lat="41.59023" lon="15.4736433"><ele>47.0</ele><time>2026-04-19T06:46:39.996Z</time></trkpt><trkpt lat="41.5903717" lon="15.4735583"><ele>47.0</ele><time>2026-04-19T06:46:40.996Z</time></trkpt><trkpt lat="41.5905167" lon="15.4734733"><ele>46.666666666666664</ele><time>2026-04-19T06:46:41.996Z</time></trkpt><trkpt lat="41.5906633" lon="15.4733883"><ele>46.333333333333336</ele><time>2026-04-19T06:46:42.996Z</time></trkpt><trkpt lat="41.5908117" lon="15.4733017"><ele>46.0</ele><time>2026-04-19T06:46:43.996Z</time></trkpt><trkpt lat="41.5909617" lon="15.4732167"><ele>46.0</ele><time>2026-04-19T06:46:44.997Z</time></trkpt><trkpt lat="41.59111" lon="15.4731317"><ele>46.0</ele><time>2026-04-19T06:46:45.996Z</time></trkpt><trkpt lat="41.59126" lon="15.473045"><ele>46.0</ele><time>2026-04-19T06:46:46.996Z</time></trkpt><trkpt lat="41.5914083" lon="15.4729567"><ele>46.0</ele><time>2026-04-19T06:46:47.997Z</time></trkpt><trkpt lat="41.5915583" lon="15.4728667"><ele>46.0</ele><time>2026-04-19T06:46:48.996Z</time></trkpt><trkpt lat="41.5917083" lon="15.4727767"><ele>46.0</ele><time>2026-04-19T06:46:49.997Z</time></trkpt><trkpt lat="41.5918567" lon="15.4726867"><ele>46.0</ele><time>2026-04-19T06:46:50.997Z</time></trkpt><trkpt lat="41.592005" lon="15.472595"><ele>46.0</ele><time>2026-04-19T06:46:51.996Z</time></trkpt><trkpt lat="41.5921517" lon="15.472505"><ele>46.0</ele><time>2026-04-19T06:46:52.997Z</time></trkpt><trkpt lat="41.5923" lon="15.4724183"><ele>46.333333333333336</ele><time>2026-04-19T06:46:53.996Z</time></trkpt><trkpt lat="41.5924467" lon="15.47233"><ele>46.666666666666664</ele><time>2026-04-19T06:46:54.996Z</time></trkpt><trkpt lat="41.592595" lon="15.4722417"><ele>47.0</ele><time>2026-04-19T06:46:55.996Z</time></trkpt><trkpt lat="41.5927433" lon="15.472155"><ele>46.666666666666664</ele><time>2026-04-19T06:46:56.997Z</time></trkpt><trkpt lat="41.592895" lon="15.4720667"><ele>46.333333333333336</ele><time>2026-04-19T06:46:57.996Z</time></trkpt><trkpt lat="41.593045" lon="15.4719783"><ele>46.0</ele><time>2026-04-19T06:46:58.997Z</time></trkpt><trkpt lat="41.593195" lon="15.4718883"><ele>46.0</ele><time>2026-04-19T06:46:59.996Z</time></trkpt><trkpt lat="41.593345" lon="15.4718"><ele>46.0</ele><time>2026-04-19T06:47:00.997Z</time></trkpt><trkpt lat="41.5934933" lon="15.4717133"><ele>46.0</ele><time>2026-04-19T06:47:01.997Z</time></trkpt><trkpt lat="41.59364" lon="15.4716283"><ele>46.333333333333336</ele><time>2026-04-19T06:47:02.996Z</time></trkpt><trkpt lat="41.5937867" lon="15.4715433"><ele>46.666666666666664</ele><time>2026-04-19T06:47:03.996Z</time></trkpt><trkpt lat="41.5939317" lon="15.47146"><ele>47.0</ele><time>2026-04-19T06:47:04.996Z</time></trkpt><trkpt lat="41.5940767" lon="15.471375"><ele>47.0</ele><time>2026-04-19T06:47:05.996Z</time></trkpt><trkpt lat="41.5942217" lon="15.4712883"><ele>47.0</ele><time>2026-04-19T06:47:06.996Z</time></trkpt><trkpt lat="41.594365" lon="15.4712033"><ele>47.0</ele><time>2026-04-19T06:47:07.996Z</time></trkpt><trkpt lat="41.5945067" lon="15.4711133"><ele>47.0</ele><time>2026-04-19T06:47:08.997Z</time></trkpt><trkpt lat="41.5946467" lon="15.471025"><ele>47.0</ele><time>2026-04-19T06:47:09.996Z</time></trkpt><trkpt lat="41.59479" lon="15.4709417"><ele>47.0</ele><time>2026-04-19T06:47:10.996Z</time></trkpt><trkpt lat="41.5949333" lon="15.4708567"><ele>47.0</ele><time>2026-04-19T06:47:11.996Z</time></trkpt><trkpt lat="41.595075" lon="15.4707667"><ele>47.0</ele><time>2026-04-19T06:47:12.996Z</time></trkpt><trkpt lat="41.5952167" lon="15.4706817"><ele>47.0</ele><time>2026-04-19T06:47:13.996Z</time></trkpt><trkpt lat="41.59536" lon="15.4706017"><ele>46.666666666666664</ele><time>2026-04-19T06:47:14.996Z</time></trkpt><trkpt lat="41.5955033" lon="15.4705183"><ele>46.333333333333336</ele><time>2026-04-19T06:47:15.996Z</time></trkpt><trkpt lat="41.5956483" lon="15.470435"><ele>46.0</ele><time>2026-04-19T06:47:16.996Z</time></trkpt><trkpt lat="41.5957917" lon="15.4703483"><ele>46.0</ele><time>2026-04-19T06:47:17.996Z</time></trkpt><trkpt lat="41.5959333" lon="15.4702633"><ele>46.0</ele><time>2026-04-19T06:47:18.996Z</time></trkpt><trkpt lat="41.5960717" lon="15.4701783"><ele>46.0</ele><time>2026-04-19T06:47:19.996Z</time></trkpt><trkpt lat="41.5962083" lon="15.470095"><ele>46.0</ele><time>2026-04-19T06:47:20.996Z</time></trkpt><trkpt lat="41.5963467" lon="15.4700133"><ele>46.0</ele><time>2026-04-19T06:47:21.997Z</time></trkpt><trkpt lat="41.5964833" lon="15.4699317"><ele>46.0</ele><time>2026-04-19T06:47:22.997Z</time></trkpt><trkpt lat="41.59662" lon="15.4698533"><ele>46.0</ele><time>2026-04-19T06:47:23.996Z</time></trkpt><trkpt lat="41.5967567" lon="15.4697683"><ele>46.0</ele><time>2026-04-19T06:47:24.996Z</time></trkpt><trkpt lat="41.596895" lon="15.4696833"><ele>46.0</ele><time>2026-04-19T06:47:25.997Z</time></trkpt><trkpt lat="41.597035" lon="15.4696033"><ele>46.0</ele><time>2026-04-19T06:47:26.996Z</time></trkpt><trkpt lat="41.59718" lon="15.4695267"><ele>46.0</ele><time>2026-04-19T06:47:27.997Z</time></trkpt><trkpt lat="41.5973233" lon="15.4694433"><ele>46.0</ele><time>2026-04-19T06:47:28.996Z</time></trkpt><trkpt lat="41.5974667" lon="15.469355"><ele>46.0</ele><time>2026-04-19T06:47:29.997Z</time></trkpt><trkpt lat="41.59761" lon="15.4692667"><ele>46.0</ele><time>2026-04-19T06:47:30.996Z</time></trkpt><trkpt lat="41.5977567" lon="15.4691783"><ele>46.0</ele><time>2026-04-19T06:47:31.996Z</time></trkpt><trkpt lat="41.5979033" lon="15.46909"><ele>46.0</ele><time>2026-04-19T06:47:32.997Z</time></trkpt><trkpt lat="41.5980517" lon="15.469"><ele>46.0</ele><time>2026-04-19T06:47:33.996Z</time></trkpt><trkpt lat="41.5982017" lon="15.4689133"><ele>46.0</ele><time>2026-04-19T06:47:34.996Z</time></trkpt><trkpt lat="41.5983517" lon="15.4688267"><ele>46.0</ele><time>2026-04-19T06:47:35.997Z</time></trkpt><trkpt lat="41.5985017" lon="15.4687417"><ele>46.0</ele><time>2026-04-19T06:47:36.996Z</time></trkpt><trkpt lat="41.5986533" lon="15.4686533"><ele>46.0</ele><time>2026-04-19T06:47:37.996Z</time></trkpt><trkpt lat="41.5988033" lon="15.4685617"><ele>46.0</ele><time>2026-04-19T06:47:38.996Z</time></trkpt><trkpt lat="41.598955" lon="15.4684667"><ele>46.0</ele><time>2026-04-19T06:47:39.996Z</time></trkpt><trkpt lat="41.5991067" lon="15.4683717"><ele>46.0</ele><time>2026-04-19T06:47:40.996Z</time></trkpt><trkpt lat="41.5992617" lon="15.4682783"><ele>46.0</ele><time>2026-04-19T06:47:41.996Z</time></trkpt><trkpt lat="41.5994167" lon="15.4681833"><ele>46.0</ele><time>2026-04-19T06:47:42.996Z</time></trkpt><trkpt lat="41.5995733" lon="15.46809"><ele>46.0</ele><time>2026-04-19T06:47:43.996Z</time></trkpt><trkpt lat="41.59973" lon="15.4679983"><ele>46.333333333333336</ele><time>2026-04-19T06:47:44.996Z</time></trkpt><trkpt lat="41.5998867" lon="15.4679067"><ele>46.666666666666664</ele><time>2026-04-19T06:47:45.996Z</time></trkpt><trkpt lat="41.6000417" lon="15.467815"><ele>47.0</ele><time>2026-04-19T06:47:46.996Z</time></trkpt><trkpt lat="41.6001983" lon="15.4677233"><ele>47.0</ele><time>2026-04-19T06:47:47.996Z</time></trkpt><trkpt lat="41.600355" lon="15.46763"><ele>47.0</ele><time>2026-04-19T06:47:48.996Z</time></trkpt><trkpt lat="41.6005083" lon="15.4675367"><ele>47.0</ele><time>2026-04-19T06:47:49.996Z</time></trkpt><trkpt lat="41.60066" lon="15.4674467"><ele>47.0</ele><time>2026-04-19T06:47:50.996Z</time></trkpt><trkpt lat="41.6008117" lon="15.4673567"><ele>47.0</ele><time>2026-04-19T06:47:51.997Z</time></trkpt><trkpt lat="41.6009617" lon="15.467265"><ele>47.0</ele><time>2026-04-19T06:47:52.996Z</time></trkpt><trkpt lat="41.6011117" lon="15.4671733"><ele>46.666666666666664</ele><time>2026-04-19T06:47:53.996Z</time></trkpt><trkpt lat="41.6012617" lon="15.467085"><ele>46.333333333333336</ele><time>2026-04-19T06:47:54.996Z</time></trkpt><trkpt lat="41.6014133" lon="15.466995"><ele>46.0</ele><time>2026-04-19T06:47:55.996Z</time></trkpt><trkpt lat="41.6015633" lon="15.466905"><ele>46.0</ele><time>2026-04-19T06:47:56.996Z</time></trkpt><trkpt lat="41.6017117" lon="15.4668133"><ele>46.0</ele><time>2026-04-19T06:47:57.996Z</time></trkpt><trkpt lat="41.6018617" lon="15.4667233"><ele>46.0</ele><time>2026-04-19T06:47:58.996Z</time></trkpt><trkpt lat="41.6020117" lon="15.4666317"><ele>46.0</ele><time>2026-04-19T06:47:59.996Z</time></trkpt><trkpt lat="41.6021583" lon="15.46654"><ele>46.0</ele><time>2026-04-19T06:48:00.996Z</time></trkpt><trkpt lat="41.602305" lon="15.4664517"><ele>46.0</ele><time>2026-04-19T06:48:01.996Z</time></trkpt><trkpt lat="41.6024517" lon="15.4663633"><ele>46.333333333333336</ele><time>2026-04-19T06:48:02.996Z</time></trkpt><trkpt lat="41.6026" lon="15.4662767"><ele>46.666666666666664</ele><time>2026-04-19T06:48:03.997Z</time></trkpt><trkpt lat="41.6027483" lon="15.4661917"><ele>47.0</ele><time>2026-04-19T06:48:04.997Z</time></trkpt><trkpt lat="41.6028933" lon="15.4661083"><ele>47.0</ele><time>2026-04-19T06:48:05.997Z</time></trkpt><trkpt lat="41.60304" lon="15.4660217"><ele>47.0</ele><time>2026-04-19T06:48:06.996Z</time></trkpt><trkpt lat="41.6031883" lon="15.465935"><ele>47.0</ele><time>2026-04-19T06:48:07.996Z</time></trkpt><trkpt lat="41.6033383" lon="15.4658483"><ele>47.0</ele><time>2026-04-19T06:48:08.996Z</time></trkpt><trkpt lat="41.6034867" lon="15.4657617"><ele>47.0</ele><time>2026-04-19T06:48:09.996Z</time></trkpt><trkpt lat="41.6036367" lon="15.465675"><ele>47.0</ele><time>2026-04-19T06:48:10.997Z</time></trkpt><trkpt lat="41.6037867" lon="15.4655833"><ele>47.0</ele><time>2026-04-19T06:48:11.997Z</time></trkpt><trkpt lat="41.6039367" lon="15.4654867"><ele>47.0</ele><time>2026-04-19T06:48:12.996Z</time></trkpt><trkpt lat="41.60409" lon="15.4653883"><ele>47.0</ele><time>2026-04-19T06:48:13.996Z</time></trkpt><trkpt lat="41.6042467" lon="15.4652933"><ele>47.0</ele><time>2026-04-19T06:48:14.997Z</time></trkpt><trkpt lat="41.604405" lon="15.4652017"><ele>47.0</ele><time>2026-04-19T06:48:15.996Z</time></trkpt><trkpt lat="41.6045667" lon="15.4651133"><ele>47.0</ele><time>2026-04-19T06:48:16.996Z</time></trkpt><trkpt lat="41.6047233" lon="15.465015"><ele>47.33333333333333</ele><time>2026-04-19T06:48:17.996Z</time></trkpt><trkpt lat="41.604885" lon="15.464915"><ele>47.666666666666664</ele><time>2026-04-19T06:48:18.996Z</time></trkpt><trkpt lat="41.6050467" lon="15.4648233"><ele>48.0</ele><time>2026-04-19T06:48:19.996Z</time></trkpt><trkpt lat="41.6052083" lon="15.4647317"><ele>47.666666666666664</ele><time>2026-04-19T06:48:20.996Z</time></trkpt><trkpt lat="41.60537" lon="15.4646367"><ele>47.33333333333333</ele><time>2026-04-19T06:48:21.996Z</time></trkpt><trkpt lat="41.6055317" lon="15.46454"><ele>47.0</ele><time>2026-04-19T06:48:22.996Z</time></trkpt><trkpt lat="41.6056917" lon="15.464445"><ele>46.666666666666664</ele><time>2026-04-19T06:48:23.996Z</time></trkpt><trkpt lat="41.6058517" lon="15.4643483"><ele>46.333333333333336</ele><time>2026-04-19T06:48:24.996Z</time></trkpt><trkpt lat="41.60601" lon="15.4642467"><ele>46.0</ele><time>2026-04-19T06:48:25.996Z</time></trkpt><trkpt lat="41.60617" lon="15.4641483"><ele>47.0</ele><time>2026-04-19T06:48:26.996Z</time></trkpt><trkpt lat="41.6063283" lon="15.4640517"><ele>48.0</ele><time>2026-04-19T06:48:27.997Z</time></trkpt><trkpt lat="41.6064867" lon="15.4639583"><ele>49.0</ele><time>2026-04-19T06:48:28.997Z</time></trkpt><trkpt lat="41.6066467" lon="15.463865"><ele>49.0</ele><time>2026-04-19T06:48:29.996Z</time></trkpt><trkpt lat="41.6068033" lon="15.4637733"><ele>49.0</ele><time>2026-04-19T06:48:30.996Z</time></trkpt><trkpt lat="41.6069633" lon="15.46368"><ele>49.0</ele><time>2026-04-19T06:48:31.996Z</time></trkpt><trkpt lat="41.60712" lon="15.46359"><ele>48.666666666666664</ele><time>2026-04-19T06:48:32.996Z</time></trkpt><trkpt lat="41.607275" lon="15.4634983"><ele>48.33333333333333</ele><time>2026-04-19T06:48:33.996Z</time></trkpt><trkpt lat="41.6074283" lon="15.4634083"><ele>48.0</ele><time>2026-04-19T06:48:34.997Z</time></trkpt><trkpt lat="41.6075817" lon="15.4633167"><ele>48.0</ele><time>2026-04-19T06:48:35.997Z</time></trkpt><trkpt lat="41.607735" lon="15.463225"><ele>48.0</ele><time>2026-04-19T06:48:36.996Z</time></trkpt><trkpt lat="41.6078883" lon="15.4631317"><ele>48.0</ele><time>2026-04-19T06:48:37.996Z</time></trkpt><trkpt lat="41.6080383" lon="15.4630367"><ele>48.0</ele><time>2026-04-19T06:48:38.996Z</time></trkpt><trkpt lat="41.6081867" lon="15.46294"><ele>48.0</ele><time>2026-04-19T06:48:39.996Z</time></trkpt><trkpt lat="41.6083333" lon="15.46284"><ele>48.0</ele><time>2026-04-19T06:48:40.997Z</time></trkpt><trkpt lat="41.6084783" lon="15.462735"><ele>48.0</ele><time>2026-04-19T06:48:41.996Z</time></trkpt><trkpt lat="41.6086217" lon="15.4626233"><ele>48.0</ele><time>2026-04-19T06:48:42.996Z</time></trkpt><trkpt lat="41.6087633" lon="15.46251"><ele>48.0</ele><time>2026-04-19T06:48:43.996Z</time></trkpt><trkpt lat="41.608905" lon="15.4623967"><ele>47.666666666666664</ele><time>2026-04-19T06:48:44.996Z</time></trkpt><trkpt lat="41.6090433" lon="15.4622767"><ele>47.33333333333333</ele><time>2026-04-19T06:48:45.996Z</time></trkpt><trkpt lat="41.6091833" lon="15.46215"><ele>47.0</ele><time>2026-04-19T06:48:46.996Z</time></trkpt><trkpt lat="41.6093217" lon="15.4620233"><ele>47.0</ele><time>2026-04-19T06:48:47.996Z</time></trkpt><trkpt lat="41.60946" lon="15.4618967"><ele>47.0</ele><time>2026-04-19T06:48:48.997Z</time></trkpt><trkpt lat="41.6096017" lon="15.4617683"><ele>47.0</ele><time>2026-04-19T06:48:49.996Z</time></trkpt><trkpt lat="41.6097433" lon="15.4616417"><ele>47.0</ele><time>2026-04-19T06:48:50.996Z</time></trkpt><trkpt lat="41.609885" lon="15.4615167"><ele>47.0</ele><time>2026-04-19T06:48:51.996Z</time></trkpt><trkpt lat="41.6100217" lon="15.46139"><ele>47.0</ele><time>2026-04-19T06:48:52.996Z</time></trkpt><trkpt lat="41.6101583" lon="15.461265"><ele>47.0</ele><time>2026-04-19T06:48:53.996Z</time></trkpt><trkpt lat="41.6102933" lon="15.461145"><ele>47.0</ele><time>2026-04-19T06:48:54.997Z</time></trkpt><trkpt lat="41.6104267" lon="15.461025"><ele>47.0</ele><time>2026-04-19T06:48:55.996Z</time></trkpt><trkpt lat="41.61056" lon="15.4609033"><ele>47.33333333333333</ele><time>2026-04-19T06:48:56.996Z</time></trkpt><trkpt lat="41.6106917" lon="15.4607817"><ele>47.666666666666664</ele><time>2026-04-19T06:48:57.997Z</time></trkpt><trkpt lat="41.6108233" lon="15.4606583"><ele>48.0</ele><time>2026-04-19T06:48:58.997Z</time></trkpt><trkpt lat="41.6109567" lon="15.4605367"><ele>48.0</ele><time>2026-04-19T06:48:59.996Z</time></trkpt><trkpt lat="41.6110883" lon="15.4604167"><ele>48.0</ele><time>2026-04-19T06:49:00.997Z</time></trkpt><trkpt lat="41.6112217" lon="15.4602967"><ele>48.0</ele><time>2026-04-19T06:49:01.997Z</time></trkpt><trkpt lat="41.6113533" lon="15.4601767"><ele>47.666666666666664</ele><time>2026-04-19T06:49:02.996Z</time></trkpt><trkpt lat="41.611485" lon="15.460055"><ele>47.33333333333333</ele><time>2026-04-19T06:49:03.996Z</time></trkpt><trkpt lat="41.6116183" lon="15.4599333"><ele>47.0</ele><time>2026-04-19T06:49:04.996Z</time></trkpt><trkpt lat="41.61175" lon="15.459815"><ele>47.0</ele><time>2026-04-19T06:49:05.996Z</time></trkpt><trkpt lat="41.6118783" lon="15.4596967"><ele>47.0</ele><time>2026-04-19T06:49:06.996Z</time></trkpt><trkpt lat="41.6120067" lon="15.45958"><ele>47.0</ele><time>2026-04-19T06:49:07.996Z</time></trkpt><trkpt lat="41.61213" lon="15.4594683"><ele>46.75</ele><time>2026-04-19T06:49:08.996Z</time></trkpt><trkpt lat="41.61225" lon="15.4593583"><ele>46.5</ele><time>2026-04-19T06:49:09.996Z</time></trkpt><trkpt lat="41.6123633" lon="15.4592533"><ele>46.25</ele><time>2026-04-19T06:49:10.997Z</time></trkpt><trkpt lat="41.6124783" lon="15.4591483"><ele>46.0</ele><time>2026-04-19T06:49:11.996Z</time></trkpt><trkpt lat="41.6125967" lon="15.4590367"><ele>46.0</ele><time>2026-04-19T06:49:12.996Z</time></trkpt><trkpt lat="41.6127183" lon="15.458925"><ele>46.0</ele><time>2026-04-19T06:49:13.996Z</time></trkpt><trkpt lat="41.6128417" lon="15.4588133"><ele>46.0</ele><time>2026-04-19T06:49:14.996Z</time></trkpt><trkpt lat="41.6129633" lon="15.4587"><ele>46.0</ele><time>2026-04-19T06:49:15.996Z</time></trkpt><trkpt lat="41.6130867" lon="15.4585817"><ele>46.333333333333336</ele><time>2026-04-19T06:49:16.996Z</time></trkpt><trkpt lat="41.6132133" lon="15.4584633"><ele>46.666666666666664</ele><time>2026-04-19T06:49:17.996Z</time></trkpt><trkpt lat="41.613345" lon="15.4583467"><ele>47.0</ele><time>2026-04-19T06:49:18.997Z</time></trkpt><trkpt lat="41.61348" lon="15.458225"><ele>47.0</ele><time>2026-04-19T06:49:19.996Z</time></trkpt><trkpt lat="41.6136167" lon="15.4581"><ele>47.0</ele><time>2026-04-19T06:49:20.996Z</time></trkpt><trkpt lat="41.6137533" lon="15.4579733"><ele>47.0</ele><time>2026-04-19T06:49:21.997Z</time></trkpt><trkpt lat="41.61389" lon="15.4578467"><ele>47.33333333333333</ele><time>2026-04-19T06:49:22.996Z</time></trkpt><trkpt lat="41.614025" lon="15.457725"><ele>47.666666666666664</ele><time>2026-04-19T06:49:23.996Z</time></trkpt><trkpt lat="41.6141533" lon="15.4576083"><ele>48.0</ele><time>2026-04-19T06:49:24.996Z</time></trkpt><trkpt lat="41.6142783" lon="15.4574967"><ele>48.0</ele><time>2026-04-19T06:49:25.996Z</time></trkpt><trkpt lat="41.6144033" lon="15.4573867"><ele>48.0</ele><time>2026-04-19T06:49:26.996Z</time></trkpt><trkpt lat="41.6145283" lon="15.4572767"><ele>48.0</ele><time>2026-04-19T06:49:27.996Z</time></trkpt><trkpt lat="41.61465" lon="15.4571667"><ele>48.0</ele><time>2026-04-19T06:49:28.996Z</time></trkpt><trkpt lat="41.6147667" lon="15.457055"><ele>47.5</ele><time>2026-04-19T06:49:29.996Z</time></trkpt><trkpt lat="41.614885" lon="15.456945"><ele>47.0</ele><time>2026-04-19T06:49:30.996Z</time></trkpt><trkpt lat="41.6150017" lon="15.4568367"><ele>46.5</ele><time>2026-04-19T06:49:31.996Z</time></trkpt><trkpt lat="41.6151183" lon="15.4567267"><ele>46.0</ele><time>2026-04-19T06:49:32.996Z</time></trkpt><trkpt lat="41.615235" lon="15.456615"><ele>46.5</ele><time>2026-04-19T06:49:33.996Z</time></trkpt><trkpt lat="41.6153467" lon="15.4565"><ele>47.0</ele><time>2026-04-19T06:49:34.996Z</time></trkpt><trkpt lat="41.6154567" lon="15.456385"><ele>47.5</ele><time>2026-04-19T06:49:35.996Z</time></trkpt><trkpt lat="41.6155633" lon="15.45627"><ele>48.0</ele><time>2026-04-19T06:49:36.996Z</time></trkpt><trkpt lat="41.6156717" lon="15.4561583"><ele>48.0</ele><time>2026-04-19T06:49:37.997Z</time></trkpt><trkpt lat="41.6157817" lon="15.456045"><ele>48.0</ele><time>2026-04-19T06:49:38.996Z</time></trkpt><trkpt lat="41.6158933" lon="15.4559333"><ele>48.0</ele><time>2026-04-19T06:49:39.996Z</time></trkpt><trkpt lat="41.6160067" lon="15.45582"><ele>48.0</ele><time>2026-04-19T06:49:40.996Z</time></trkpt><trkpt lat="41.61612" lon="15.4556983"><ele>48.0</ele><time>2026-04-19T06:49:41.996Z</time></trkpt><trkpt lat="41.616235" lon="15.4555767"><ele>48.0</ele><time>2026-04-19T06:49:42.996Z</time></trkpt><trkpt lat="41.61635" lon="15.4554533"><ele>48.0</ele><time>2026-04-19T06:49:43.996Z</time></trkpt><trkpt lat="41.6164667" lon="15.4553283"><ele>48.0</ele><time>2026-04-19T06:49:44.996Z</time></trkpt><trkpt lat="41.6165817" lon="15.455205"><ele>48.0</ele><time>2026-04-19T06:49:45.997Z</time></trkpt><trkpt lat="41.616695" lon="15.455085"><ele>48.0</ele><time>2026-04-19T06:49:46.996Z</time></trkpt><trkpt lat="41.61681" lon="15.4549633"><ele>48.0</ele><time>2026-04-19T06:49:47.996Z</time></trkpt><trkpt lat="41.6169283" lon="15.4548383"><ele>48.0</ele><time>2026-04-19T06:49:48.996Z</time></trkpt><trkpt lat="41.617045" lon="15.4547083"><ele>48.0</ele><time>2026-04-19T06:49:49.996Z</time></trkpt><trkpt lat="41.617165" lon="15.45458"><ele>48.0</ele><time>2026-04-19T06:49:50.997Z</time></trkpt><trkpt lat="41.6172917" lon="15.4544617"><ele>48.0</ele><time>2026-04-19T06:49:51.997Z</time></trkpt><trkpt lat="41.61742" lon="15.454345"><ele>48.0</ele><time>2026-04-19T06:49:52.996Z</time></trkpt><trkpt lat="41.617545" lon="15.4542167"><ele>48.0</ele><time>2026-04-19T06:49:53.997Z</time></trkpt><trkpt lat="41.61767" lon="15.4540833"><ele>48.0</ele><time>2026-04-19T06:49:54.997Z</time></trkpt><trkpt lat="41.617795" lon="15.4539517"><ele>48.33333333333333</ele><time>2026-04-19T06:49:55.996Z</time></trkpt><trkpt lat="41.6179217" lon="15.4538183"><ele>48.666666666666664</ele><time>2026-04-19T06:49:56.997Z</time></trkpt><trkpt lat="41.6180467" lon="15.4536817"><ele>49.0</ele><time>2026-04-19T06:49:57.996Z</time></trkpt><trkpt lat="41.6181717" lon="15.4535467"><ele>49.0</ele><time>2026-04-19T06:49:58.996Z</time></trkpt><trkpt lat="41.618295" lon="15.4534133"><ele>49.0</ele><time>2026-04-19T06:49:59.997Z</time></trkpt><trkpt lat="41.6184183" lon="15.45328"><ele>49.0</ele><time>2026-04-19T06:50:00.996Z</time></trkpt><trkpt lat="41.6185417" lon="15.4531517"><ele>48.666666666666664</ele><time>2026-04-19T06:50:01.996Z</time></trkpt><trkpt lat="41.61867" lon="15.4530233"><ele>48.33333333333333</ele><time>2026-04-19T06:50:02.996Z</time></trkpt><trkpt lat="41.6187983" lon="15.452895"><ele>48.0</ele><time>2026-04-19T06:50:03.996Z</time></trkpt><trkpt lat="41.6189267" lon="15.4527633"><ele>48.0</ele><time>2026-04-19T06:50:04.996Z</time></trkpt><trkpt lat="41.6190583" lon="15.45263"><ele>48.0</ele><time>2026-04-19T06:50:05.997Z</time></trkpt><trkpt lat="41.6191933" lon="15.4524917"><ele>48.0</ele><time>2026-04-19T06:50:06.996Z</time></trkpt><trkpt lat="41.6193283" lon="15.4523467"><ele>48.0</ele><time>2026-04-19T06:50:07.996Z</time></trkpt><trkpt lat="41.6194633" lon="15.4522017"><ele>48.0</ele><time>2026-04-19T06:50:08.996Z</time></trkpt><trkpt lat="41.6196017" lon="15.452055"><ele>48.0</ele><time>2026-04-19T06:50:09.996Z</time></trkpt><trkpt lat="41.6197417" lon="15.45191"><ele>48.0</ele><time>2026-04-19T06:50:10.996Z</time></trkpt><trkpt lat="41.6198817" lon="15.4517633"><ele>48.0</ele><time>2026-04-19T06:50:11.996Z</time></trkpt><trkpt lat="41.6200217" lon="15.4516167"><ele>48.0</ele><time>2026-04-19T06:50:12.996Z</time></trkpt><trkpt lat="41.6201633" lon="15.4514717"><ele>48.0</ele><time>2026-04-19T06:50:13.996Z</time></trkpt><trkpt lat="41.6203033" lon="15.451325"><ele>48.0</ele><time>2026-04-19T06:50:14.996Z</time></trkpt><trkpt lat="41.6204467" lon="15.4511767"><ele>48.0</ele><time>2026-04-19T06:50:15.996Z</time></trkpt><trkpt lat="41.6205883" lon="15.4510267"><ele>48.0</ele><time>2026-04-19T06:50:16.996Z</time></trkpt><trkpt lat="41.6207317" lon="15.450875"><ele>48.0</ele><time>2026-04-19T06:50:17.996Z</time></trkpt><trkpt lat="41.6208733" lon="15.4507217"><ele>48.0</ele><time>2026-04-19T06:50:18.996Z</time></trkpt><trkpt lat="41.621015" lon="15.4505683"><ele>48.33333333333333</ele><time>2026-04-19T06:50:19.997Z</time></trkpt><trkpt lat="41.6211567" lon="15.450415"><ele>48.666666666666664</ele><time>2026-04-19T06:50:20.996Z</time></trkpt><trkpt lat="41.6212983" lon="15.450265"><ele>49.0</ele><time>2026-04-19T06:50:21.996Z</time></trkpt><trkpt lat="41.62144" lon="15.4501133"><ele>49.0</ele><time>2026-04-19T06:50:22.996Z</time></trkpt><trkpt lat="41.6215733" lon="15.44997"><ele>49.0</ele><time>2026-04-19T06:50:23.996Z</time></trkpt><trkpt lat="41.6217033" lon="15.4498283"><ele>49.0</ele><time>2026-04-19T06:50:24.996Z</time></trkpt><trkpt lat="41.621835" lon="15.4496933"><ele>49.0</ele><time>2026-04-19T06:50:25.996Z</time></trkpt><trkpt lat="41.621965" lon="15.4495583"><ele>49.0</ele><time>2026-04-19T06:50:26.997Z</time></trkpt><trkpt lat="41.6220967" lon="15.449425"><ele>49.0</ele><time>2026-04-19T06:50:27.998Z</time></trkpt><trkpt lat="41.6222267" lon="15.44929"><ele>49.0</ele><time>2026-04-19T06:50:28.998Z</time></trkpt><trkpt lat="41.622355" lon="15.4491533"><ele>49.0</ele><time>2026-04-19T06:50:29.997Z</time></trkpt><trkpt lat="41.6224883" lon="15.44902"><ele>49.0</ele><time>2026-04-19T06:50:30.997Z</time></trkpt><trkpt lat="41.6226233" lon="15.4488883"><ele>49.0</ele><time>2026-04-19T06:50:31.997Z</time></trkpt><trkpt lat="41.622755" lon="15.44875"><ele>49.0</ele><time>2026-04-19T06:50:32.997Z</time></trkpt><trkpt lat="41.6228867" lon="15.4486117"><ele>49.0</ele><time>2026-04-19T06:50:33.997Z</time></trkpt><trkpt lat="41.6230167" lon="15.44847"><ele>49.0</ele><time>2026-04-19T06:50:34.998Z</time></trkpt><trkpt lat="41.62315" lon="15.4483283"><ele>49.0</ele><time>2026-04-19T06:50:35.997Z</time></trkpt><trkpt lat="41.6232833" lon="15.4481867"><ele>49.0</ele><time>2026-04-19T06:50:36.997Z</time></trkpt><trkpt lat="41.62342" lon="15.4480467"><ele>48.666666666666664</ele><time>2026-04-19T06:50:37.998Z</time></trkpt><trkpt lat="41.6235567" lon="15.4479083"><ele>48.33333333333333</ele><time>2026-04-19T06:50:38.996Z</time></trkpt><trkpt lat="41.6236917" lon="15.4477667"><ele>48.0</ele><time>2026-04-19T06:50:39.996Z</time></trkpt><trkpt lat="41.6238233" lon="15.4476267"><ele>48.0</ele><time>2026-04-19T06:50:40.996Z</time></trkpt><trkpt lat="41.623955" lon="15.447485"><ele>48.0</ele><time>2026-04-19T06:50:41.996Z</time></trkpt><trkpt lat="41.62409" lon="15.447345"><ele>48.0</ele><time>2026-04-19T06:50:42.997Z</time></trkpt><trkpt lat="41.6242233" lon="15.4472067"><ele>48.0</ele><time>2026-04-19T06:50:43.997Z</time></trkpt><trkpt lat="41.6243583" lon="15.4470633"><ele>48.0</ele><time>2026-04-19T06:50:44.996Z</time></trkpt><trkpt lat="41.6244933" lon="15.4469183"><ele>48.0</ele><time>2026-04-19T06:50:45.996Z</time></trkpt><trkpt lat="41.6246283" lon="15.446775"><ele>48.0</ele><time>2026-04-19T06:50:46.996Z</time></trkpt><trkpt lat="41.624765" lon="15.4466333"><ele>48.0</ele><time>2026-04-19T06:50:47.996Z</time></trkpt><trkpt lat="41.6249017" lon="15.4464917"><ele>48.0</ele><time>2026-04-19T06:50:48.996Z</time></trkpt><trkpt lat="41.6250383" lon="15.4463467"><ele>48.66666666666667</ele><time>2026-04-19T06:50:49.996Z</time></trkpt><trkpt lat="41.625175" lon="15.4462033"><ele>49.333333333333336</ele><time>2026-04-19T06:50:50.996Z</time></trkpt><trkpt lat="41.6253105" lon="15.4460613"><ele>50.0</ele><time>2026-04-19T06:50:51.996Z</time></trkpt><trkpt lat="41.6254443" lon="15.4459209"><ele>50.333333333333336</ele><time>2026-04-19T06:50:52.996Z</time></trkpt><trkpt lat="41.625578" lon="15.4457813"><ele>50.66666666666667</ele><time>2026-04-19T06:50:53.997Z</time></trkpt><trkpt lat="41.6257109" lon="15.445642"><ele>51.0</ele><time>2026-04-19T06:50:54.997Z</time></trkpt><trkpt lat="41.6258449" lon="15.4455004"><ele>50.66666666666667</ele><time>2026-04-19T06:50:55.996Z</time></trkpt><trkpt lat="41.6259795" lon="15.445356"><ele>50.333333333333336</ele><time>2026-04-19T06:50:56.996Z</time></trkpt><trkpt lat="41.626117" lon="15.4452132"><ele>50.0</ele><time>2026-04-19T06:50:57.997Z</time></trkpt><trkpt lat="41.6262574" lon="15.4450712"><ele>50.0</ele><time>2026-04-19T06:50:58.996Z</time></trkpt><trkpt lat="41.6263964" lon="15.4449225"><ele>50.0</ele><time>2026-04-19T06:50:59.996Z</time></trkpt><trkpt lat="41.6265366" lon="15.4447723"><ele>50.0</ele><time>2026-04-19T06:51:00.997Z</time></trkpt><trkpt lat="41.6266771" lon="15.4446234"><ele>50.0</ele><time>2026-04-19T06:51:01.996Z</time></trkpt><trkpt lat="41.6268151" lon="15.4444763"><ele>50.0</ele><time>2026-04-19T06:51:02.996Z</time></trkpt><trkpt lat="41.6269502" lon="15.4443335"><ele>50.0</ele><time>2026-04-19T06:51:03.996Z</time></trkpt><trkpt lat="41.6270844" lon="15.4441931"><ele>49.66666666666667</ele><time>2026-04-19T06:51:04.996Z</time></trkpt><trkpt lat="41.627221" lon="15.444051"><ele>49.33333333333333</ele><time>2026-04-19T06:51:05.996Z</time></trkpt><trkpt lat="41.627359" lon="15.4439076"><ele>49.0</ele><time>2026-04-19T06:51:06.996Z</time></trkpt><trkpt lat="41.6274974" lon="15.4437623"><ele>48.666666666666664</ele><time>2026-04-19T06:51:07.996Z</time></trkpt><trkpt lat="41.6276374" lon="15.4436156"><ele>48.33333333333333</ele><time>2026-04-19T06:51:08.996Z</time></trkpt><trkpt lat="41.62778" lon="15.4434682"><ele>48.0</ele><time>2026-04-19T06:51:09.996Z</time></trkpt><trkpt lat="41.6279209" lon="15.4433166"><ele>48.66666666666667</ele><time>2026-04-19T06:51:10.996Z</time></trkpt><trkpt lat="41.6280616" lon="15.4431653"><ele>49.333333333333336</ele><time>2026-04-19T06:51:11.997Z</time></trkpt><trkpt lat="41.6282036" lon="15.4430158"><ele>50.0</ele><time>2026-04-19T06:51:12.996Z</time></trkpt><trkpt lat="41.6283465" lon="15.4428669"><ele>50.0</ele><time>2026-04-19T06:51:13.996Z</time></trkpt><trkpt lat="41.6284909" lon="15.4427161"><ele>50.0</ele><time>2026-04-19T06:51:14.996Z</time></trkpt><trkpt lat="41.6286349" lon="15.4425675"><ele>50.0</ele><time>2026-04-19T06:51:15.996Z</time></trkpt><trkpt lat="41.6287768" lon="15.4424197"><ele>49.66666666666667</ele><time>2026-04-19T06:51:16.997Z</time></trkpt><trkpt lat="41.6289113" lon="15.4422746"><ele>49.33333333333333</ele><time>2026-04-19T06:51:17.997Z</time></trkpt><trkpt lat="41.6290412" lon="15.4421347"><ele>49.0</ele><time>2026-04-19T06:51:18.997Z</time></trkpt><trkpt lat="41.6291694" lon="15.4419994"><ele>48.666666666666664</ele><time>2026-04-19T06:51:19.996Z</time></trkpt><trkpt lat="41.6292962" lon="15.441864"><ele>48.33333333333333</ele><time>2026-04-19T06:51:20.996Z</time></trkpt><trkpt lat="41.6294245" lon="15.4417292"><ele>48.0</ele><time>2026-04-19T06:51:21.996Z</time></trkpt><trkpt lat="41.6295553" lon="15.4415972"><ele>48.66666666666667</ele><time>2026-04-19T06:51:22.996Z</time></trkpt><trkpt lat="41.629686" lon="15.4414623"><ele>49.333333333333336</ele><time>2026-04-19T06:51:23.996Z</time></trkpt><trkpt lat="41.6298156" lon="15.4413264"><ele>50.0</ele><time>2026-04-19T06:51:24.997Z</time></trkpt><trkpt lat="41.6299467" lon="15.4411891"><ele>50.0</ele><time>2026-04-19T06:51:25.996Z</time></trkpt><trkpt lat="41.6300807" lon="15.4410527"><ele>50.0</ele><time>2026-04-19T06:51:26.996Z</time></trkpt><trkpt lat="41.6302149" lon="15.440916"><ele>50.0</ele><time>2026-04-19T06:51:27.996Z</time></trkpt><trkpt lat="41.63035" lon="15.4407769"><ele>50.0</ele><time>2026-04-19T06:51:28.996Z</time></trkpt><trkpt lat="41.6304865" lon="15.4406363"><ele>50.0</ele><time>2026-04-19T06:51:29.996Z</time></trkpt><trkpt lat="41.6306231" lon="15.4404942"><ele>50.0</ele><time>2026-04-19T06:51:30.996Z</time></trkpt><trkpt lat="41.6307603" lon="15.4403523"><ele>50.0</ele><time>2026-04-19T06:51:31.997Z</time></trkpt><trkpt lat="41.6308971" lon="15.4402076"><ele>50.0</ele><time>2026-04-19T06:51:32.996Z</time></trkpt><trkpt lat="41.6310348" lon="15.4400635"><ele>50.0</ele><time>2026-04-19T06:51:33.996Z</time></trkpt><trkpt lat="41.6311742" lon="15.4399208"><ele>50.66666666666667</ele><time>2026-04-19T06:51:34.996Z</time></trkpt><trkpt lat="41.6313158" lon="15.4397791"><ele>51.33333333333333</ele><time>2026-04-19T06:51:35.996Z</time></trkpt><trkpt lat="41.6314568" lon="15.4396363"><ele>52.0</ele><time>2026-04-19T06:51:36.996Z</time></trkpt><trkpt lat="41.6315952" lon="15.4394888"><ele>52.0</ele><time>2026-04-19T06:51:37.996Z</time></trkpt><trkpt lat="41.6317317" lon="15.4393389"><ele>52.0</ele><time>2026-04-19T06:51:38.996Z</time></trkpt><trkpt lat="41.6318681" lon="15.43919"><ele>52.0</ele><time>2026-04-19T06:51:39.996Z</time></trkpt><trkpt lat="41.6320058" lon="15.4390443"><ele>51.666666666666664</ele><time>2026-04-19T06:51:40.996Z</time></trkpt><trkpt lat="41.6321428" lon="15.4389028"><ele>51.33333333333333</ele><time>2026-04-19T06:51:41.996Z</time></trkpt><trkpt lat="41.6322783" lon="15.438766"><ele>51.0</ele><time>2026-04-19T06:51:42.996Z</time></trkpt><trkpt lat="41.6324128" lon="15.4386322"><ele>51.0</ele><time>2026-04-19T06:51:43.996Z</time></trkpt><trkpt lat="41.6325451" lon="15.4384974"><ele>51.0</ele><time>2026-04-19T06:51:44.996Z</time></trkpt><trkpt lat="41.6326768" lon="15.4383628"><ele>51.0</ele><time>2026-04-19T06:51:45.997Z</time></trkpt><trkpt lat="41.6328048" lon="15.4382286"><ele>51.33333333333333</ele><time>2026-04-19T06:51:46.996Z</time></trkpt><trkpt lat="41.6329302" lon="15.4380921"><ele>51.666666666666664</ele><time>2026-04-19T06:51:47.996Z</time></trkpt><trkpt lat="41.6330556" lon="15.4379551"><ele>52.0</ele><time>2026-04-19T06:51:48.997Z</time></trkpt><trkpt lat="41.633184" lon="15.4378207"><ele>52.0</ele><time>2026-04-19T06:51:49.997Z</time></trkpt><trkpt lat="41.6333137" lon="15.437687"><ele>52.0</ele><time>2026-04-19T06:51:50.997Z</time></trkpt><trkpt lat="41.633443" lon="15.4375522"><ele>52.0</ele><time>2026-04-19T06:51:51.996Z</time></trkpt><trkpt lat="41.6335703" lon="15.4374147"><ele>52.666666666666664</ele><time>2026-04-19T06:51:52.996Z</time></trkpt><trkpt lat="41.6336969" lon="15.4372799"><ele>53.33333333333333</ele><time>2026-04-19T06:51:53.997Z</time></trkpt><trkpt lat="41.6338227" lon="15.4371487"><ele>54.0</ele><time>2026-04-19T06:51:54.996Z</time></trkpt><trkpt lat="41.6339464" lon="15.4370212"><ele>54.0</ele><time>2026-04-19T06:51:55.996Z</time></trkpt><trkpt lat="41.6340673" lon="15.4368958"><ele>54.0</ele><time>2026-04-19T06:51:56.996Z</time></trkpt><trkpt lat="41.6341868" lon="15.4367706"><ele>54.0</ele><time>2026-04-19T06:51:57.996Z</time></trkpt><trkpt lat="41.6343067" lon="15.43665"><ele>54.0</ele><time>2026-04-19T06:51:58.996Z</time></trkpt><trkpt lat="41.6344267" lon="15.4365267"><ele>54.0</ele><time>2026-04-19T06:51:59.996Z</time></trkpt><trkpt lat="41.6345467" lon="15.4364"><ele>54.0</ele><time>2026-04-19T06:52:00.996Z</time></trkpt><trkpt lat="41.6346683" lon="15.4362767"><ele>54.66666666666667</ele><time>2026-04-19T06:52:01.996Z</time></trkpt><trkpt lat="41.6347917" lon="15.4361517"><ele>55.333333333333336</ele><time>2026-04-19T06:52:02.997Z</time></trkpt><trkpt lat="41.6349133" lon="15.4360233"><ele>56.0</ele><time>2026-04-19T06:52:03.997Z</time></trkpt><trkpt lat="41.6350367" lon="15.4358967"><ele>56.0</ele><time>2026-04-19T06:52:04.996Z</time></trkpt><trkpt lat="41.6351617" lon="15.4357683"><ele>56.0</ele><time>2026-04-19T06:52:05.996Z</time></trkpt><trkpt lat="41.6352867" lon="15.4356433"><ele>56.0</ele><time>2026-04-19T06:52:06.996Z</time></trkpt><trkpt lat="41.6354117" lon="15.435515"><ele>56.66666666666667</ele><time>2026-04-19T06:52:07.996Z</time></trkpt><trkpt lat="41.635535" lon="15.4353867"><ele>57.33333333333333</ele><time>2026-04-19T06:52:08.997Z</time></trkpt><trkpt lat="41.6356583" lon="15.435255"><ele>58.0</ele><time>2026-04-19T06:52:09.996Z</time></trkpt><trkpt lat="41.6357817" lon="15.4351233"><ele>58.0</ele><time>2026-04-19T06:52:10.996Z</time></trkpt><trkpt lat="41.635905" lon="15.4349917"><ele>58.0</ele><time>2026-04-19T06:52:11.996Z</time></trkpt><trkpt lat="41.63603" lon="15.4348617"><ele>58.0</ele><time>2026-04-19T06:52:12.996Z</time></trkpt><trkpt lat="41.6361533" lon="15.4347317"><ele>58.33333333333333</ele><time>2026-04-19T06:52:13.996Z</time></trkpt><trkpt lat="41.63628" lon="15.4346017"><ele>58.66666666666667</ele><time>2026-04-19T06:52:14.997Z</time></trkpt><trkpt lat="41.6364067" lon="15.434475"><ele>59.0</ele><time>2026-04-19T06:52:15.996Z</time></trkpt><trkpt lat="41.6365317" lon="15.4343467"><ele>59.0</ele><time>2026-04-19T06:52:16.996Z</time></trkpt><trkpt lat="41.6366567" lon="15.4342133"><ele>59.0</ele><time>2026-04-19T06:52:17.996Z</time></trkpt><trkpt lat="41.6367833" lon="15.4340783"><ele>59.0</ele><time>2026-04-19T06:52:18.996Z</time></trkpt><trkpt lat="41.6369117" lon="15.4339433"><ele>60.0</ele><time>2026-04-19T06:52:19.997Z</time></trkpt><trkpt lat="41.6370433" lon="15.4338083"><ele>61.0</ele><time>2026-04-19T06:52:20.997Z</time></trkpt><trkpt lat="41.6371783" lon="15.4336717"><ele>62.0</ele><time>2026-04-19T06:52:21.996Z</time></trkpt><trkpt lat="41.6373133" lon="15.4335317"><ele>62.0</ele><time>2026-04-19T06:52:22.996Z</time></trkpt><trkpt lat="41.63745" lon="15.43339"><ele>62.0</ele><time>2026-04-19T06:52:23.996Z</time></trkpt><trkpt lat="41.6375867" lon="15.4332467"><ele>62.0</ele><time>2026-04-19T06:52:24.996Z</time></trkpt><trkpt lat="41.6377217" lon="15.433105"><ele>62.333333333333336</ele><time>2026-04-19T06:52:25.996Z</time></trkpt><trkpt lat="41.6378583" lon="15.432965"><ele>62.66666666666667</ele><time>2026-04-19T06:52:26.996Z</time></trkpt><trkpt lat="41.6379933" lon="15.432825"><ele>63.0</ele><time>2026-04-19T06:52:27.997Z</time></trkpt><trkpt lat="41.6381283" lon="15.4326833"><ele>63.0</ele><time>2026-04-19T06:52:28.996Z</time></trkpt><trkpt lat="41.6382617" lon="15.4325417"><ele>63.0</ele><time>2026-04-19T06:52:29.996Z</time></trkpt><trkpt lat="41.6383917" lon="15.4324033"><ele>63.0</ele><time>2026-04-19T06:52:30.996Z</time></trkpt><trkpt lat="41.63852" lon="15.432265"><ele>63.33333333333333</ele><time>2026-04-19T06:52:31.996Z</time></trkpt><trkpt lat="41.6386433" lon="15.4321333"><ele>63.666666666666664</ele><time>2026-04-19T06:52:32.996Z</time></trkpt><trkpt lat="41.638765" lon="15.43201"><ele>64.0</ele><time>2026-04-19T06:52:33.997Z</time></trkpt><trkpt lat="41.6388817" lon="15.4318917"><ele>64.0</ele><time>2026-04-19T06:52:34.997Z</time></trkpt><trkpt lat="41.6389967" lon="15.4317717"><ele>64.0</ele><time>2026-04-19T06:52:35.997Z</time></trkpt><trkpt lat="41.639115" lon="15.4316517"><ele>64.0</ele><time>2026-04-19T06:52:36.996Z</time></trkpt><trkpt lat="41.6392317" lon="15.4315317"><ele>64.0</ele><time>2026-04-19T06:52:37.996Z</time></trkpt><trkpt lat="41.6393483" lon="15.4314083"><ele>63.75</ele><time>2026-04-19T06:52:38.997Z</time></trkpt><trkpt lat="41.6394633" lon="15.431285"><ele>63.5</ele><time>2026-04-19T06:52:39.996Z</time></trkpt><trkpt lat="41.6395783" lon="15.4311617"><ele>63.25</ele><time>2026-04-19T06:52:40.996Z</time></trkpt><trkpt lat="41.6396933" lon="15.43104"><ele>63.0</ele><time>2026-04-19T06:52:41.997Z</time></trkpt><trkpt lat="41.63981" lon="15.4309183"><ele>63.5</ele><time>2026-04-19T06:52:42.996Z</time></trkpt><trkpt lat="41.6399283" lon="15.4307967"><ele>64.0</ele><time>2026-04-19T06:52:43.996Z</time></trkpt><trkpt lat="41.6400433" lon="15.4306783"><ele>64.5</ele><time>2026-04-19T06:52:44.996Z</time></trkpt><trkpt lat="41.640155" lon="15.43056"><ele>65.0</ele><time>2026-04-19T06:52:45.996Z</time></trkpt><trkpt lat="41.6402633" lon="15.430445"><ele>65.0</ele><time>2026-04-19T06:52:46.997Z</time></trkpt><trkpt lat="41.6403717" lon="15.43033"><ele>65.0</ele><time>2026-04-19T06:52:47.996Z</time></trkpt><trkpt lat="41.64048" lon="15.430215"><ele>65.0</ele><time>2026-04-19T06:52:48.996Z</time></trkpt><trkpt lat="41.64059" lon="15.4301017"><ele>65.0</ele><time>2026-04-19T06:52:49.997Z</time></trkpt><trkpt lat="41.640695" lon="15.42999"><ele>65.0</ele><time>2026-04-19T06:52:50.996Z</time></trkpt><trkpt lat="41.6407933" lon="15.429885"><ele>65.0</ele><time>2026-04-19T06:52:51.996Z</time></trkpt><trkpt lat="41.6408867" lon="15.4297867"><ele>65.0</ele><time>2026-04-19T06:52:52.996Z</time></trkpt><trkpt lat="41.6409767" lon="15.4296933"><ele>65.0</ele><time>2026-04-19T06:52:53.996Z</time></trkpt><trkpt lat="41.641065" lon="15.429605"><ele>65.0</ele><time>2026-04-19T06:52:54.996Z</time></trkpt><trkpt lat="41.6411467" lon="15.42952"><ele>65.0</ele><time>2026-04-19T06:52:55.996Z</time></trkpt><trkpt lat="41.6412283" lon="15.429435"><ele>65.0</ele><time>2026-04-19T06:52:56.996Z</time></trkpt><trkpt lat="41.64131" lon="15.429355"><ele>65.0</ele><time>2026-04-19T06:52:57.996Z</time></trkpt><trkpt lat="41.6413933" lon="15.4292933"><ele>65.0</ele><time>2026-04-19T06:52:58.996Z</time></trkpt><trkpt lat="41.6414733" lon="15.4292483"><ele>65.0</ele><time>2026-04-19T06:52:59.996Z</time></trkpt><trkpt lat="41.6415467" lon="15.429215"><ele>65.0</ele><time>2026-04-19T06:53:00.996Z</time></trkpt><trkpt lat="41.6416183" lon="15.42918"><ele>65.0</ele><time>2026-04-19T06:53:01.996Z</time></trkpt><trkpt lat="41.641685" lon="15.4291183"><ele>65.0</ele><time>2026-04-19T06:53:02.996Z</time></trkpt><trkpt lat="41.6417383" lon="15.4290317"><ele>65.0</ele><time>2026-04-19T06:53:03.996Z</time></trkpt><trkpt lat="41.6417833" lon="15.4289267"><ele>65.0</ele><time>2026-04-19T06:53:04.996Z</time></trkpt><trkpt lat="41.6418383" lon="15.4288183"><ele>64.8</ele><time>2026-04-19T06:53:05.997Z</time></trkpt><trkpt lat="41.6419133" lon="15.4287233"><ele>64.6</ele><time>2026-04-19T06:53:06.996Z</time></trkpt><trkpt lat="41.641995" lon="15.42863"><ele>64.4</ele><time>2026-04-19T06:53:07.996Z</time></trkpt><trkpt lat="41.6420833" lon="15.42854"><ele>64.2</ele><time>2026-04-19T06:53:08.996Z</time></trkpt><trkpt lat="41.6421733" lon="15.42844"><ele>64.0</ele><time>2026-04-19T06:53:09.996Z</time></trkpt><trkpt lat="41.6422717" lon="15.42834"><ele>64.0</ele><time>2026-04-19T06:53:10.996Z</time></trkpt><trkpt lat="41.6423717" lon="15.42823"><ele>64.0</ele><time>2026-04-19T06:53:11.997Z</time></trkpt><trkpt lat="41.6424733" lon="15.4281183"><ele>64.0</ele><time>2026-04-19T06:53:12.996Z</time></trkpt><trkpt lat="41.64258" lon="15.4280083"><ele>64.0</ele><time>2026-04-19T06:53:13.996Z</time></trkpt><trkpt lat="41.6426883" lon="15.42789"><ele>63.75</ele><time>2026-04-19T06:53:14.996Z</time></trkpt><trkpt lat="41.6428017" lon="15.4277683"><ele>63.5</ele><time>2026-04-19T06:53:15.997Z</time></trkpt><trkpt lat="41.6429167" lon="15.42765"><ele>63.25</ele><time>2026-04-19T06:53:16.996Z</time></trkpt><trkpt lat="41.6430317" lon="15.4275283"><ele>63.0</ele><time>2026-04-19T06:53:17.997Z</time></trkpt><trkpt lat="41.6431483" lon="15.427405"><ele>63.0</ele><time>2026-04-19T06:53:18.996Z</time></trkpt><trkpt lat="41.6432633" lon="15.42728"><ele>63.0</ele><time>2026-04-19T06:53:19.996Z</time></trkpt><trkpt lat="41.64338" lon="15.4271583"><ele>63.0</ele><time>2026-04-19T06:53:20.996Z</time></trkpt><trkpt lat="41.643495" lon="15.4270367"><ele>63.0</ele><time>2026-04-19T06:53:21.996Z</time></trkpt><trkpt lat="41.64361" lon="15.42692"><ele>63.0</ele><time>2026-04-19T06:53:22.997Z</time></trkpt><trkpt lat="41.6437283" lon="15.4268033"><ele>63.0</ele><time>2026-04-19T06:53:23.997Z</time></trkpt><trkpt lat="41.6438467" lon="15.4266817"><ele>63.0</ele><time>2026-04-19T06:53:24.997Z</time></trkpt><trkpt lat="41.6439633" lon="15.4265583"><ele>63.0</ele><time>2026-04-19T06:53:25.996Z</time></trkpt><trkpt lat="41.6440817" lon="15.4264333"><ele>63.0</ele><time>2026-04-19T06:53:26.996Z</time></trkpt><trkpt lat="41.6442017" lon="15.42631"><ele>63.0</ele><time>2026-04-19T06:53:27.997Z</time></trkpt><trkpt lat="41.6443217" lon="15.4261833"><ele>63.0</ele><time>2026-04-19T06:53:28.996Z</time></trkpt><trkpt lat="41.6444417" lon="15.426055"><ele>63.0</ele><time>2026-04-19T06:53:29.996Z</time></trkpt><trkpt lat="41.6445617" lon="15.42593"><ele>63.0</ele><time>2026-04-19T06:53:30.996Z</time></trkpt><trkpt lat="41.6446833" lon="15.425805"><ele>63.0</ele><time>2026-04-19T06:53:31.996Z</time></trkpt><trkpt lat="41.6448033" lon="15.4256783"><ele>63.0</ele><time>2026-04-19T06:53:32.996Z</time></trkpt><trkpt lat="41.644925" lon="15.4255517"><ele>63.0</ele><time>2026-04-19T06:53:33.996Z</time></trkpt><trkpt lat="41.6450467" lon="15.425425"><ele>63.0</ele><time>2026-04-19T06:53:34.996Z</time></trkpt><trkpt lat="41.645165" lon="15.4253"><ele>63.33333333333333</ele><time>2026-04-19T06:53:35.996Z</time></trkpt><trkpt lat="41.6452833" lon="15.4251767"><ele>63.666666666666664</ele><time>2026-04-19T06:53:36.996Z</time></trkpt><trkpt lat="41.6454017" lon="15.4250517"><ele>64.0</ele><time>2026-04-19T06:53:37.996Z</time></trkpt><trkpt lat="41.6455217" lon="15.4249283"><ele>64.33333333333333</ele><time>2026-04-19T06:53:38.997Z</time></trkpt><trkpt lat="41.64564" lon="15.4248033"><ele>64.66666666666667</ele><time>2026-04-19T06:53:39.997Z</time></trkpt><trkpt lat="41.6457617" lon="15.424675"><ele>65.0</ele><time>2026-04-19T06:53:40.996Z</time></trkpt><trkpt lat="41.6458833" lon="15.4245483"><ele>65.0</ele><time>2026-04-19T06:53:41.996Z</time></trkpt><trkpt lat="41.6460067" lon="15.4244183"><ele>65.0</ele><time>2026-04-19T06:53:42.996Z</time></trkpt><trkpt lat="41.64613" lon="15.4242883"><ele>65.0</ele><time>2026-04-19T06:53:43.996Z</time></trkpt><trkpt lat="41.6462517" lon="15.424155"><ele>65.0</ele><time>2026-04-19T06:53:44.996Z</time></trkpt><trkpt lat="41.6463767" lon="15.4240217"><ele>65.0</ele><time>2026-04-19T06:53:45.997Z</time></trkpt><trkpt lat="41.6465017" lon="15.42389"><ele>65.0</ele><time>2026-04-19T06:53:46.996Z</time></trkpt><trkpt lat="41.6466283" lon="15.42376"><ele>65.0</ele><time>2026-04-19T06:53:47.996Z</time></trkpt><trkpt lat="41.646755" lon="15.4236283"><ele>65.0</ele><time>2026-04-19T06:53:48.997Z</time></trkpt><trkpt lat="41.6468817" lon="15.423495"><ele>65.0</ele><time>2026-04-19T06:53:49.997Z</time></trkpt><trkpt lat="41.6470067" lon="15.42336"><ele>65.0</ele><time>2026-04-19T06:53:50.996Z</time></trkpt><trkpt lat="41.6471317" lon="15.4232267"><ele>65.0</ele><time>2026-04-19T06:53:51.996Z</time></trkpt><trkpt lat="41.6472567" lon="15.4230917"><ele>65.0</ele><time>2026-04-19T06:53:52.996Z</time></trkpt><trkpt lat="41.647385" lon="15.4229617"><ele>65.0</ele><time>2026-04-19T06:53:53.996Z</time></trkpt><trkpt lat="41.647515" lon="15.42283"><ele>65.0</ele><time>2026-04-19T06:53:54.996Z</time></trkpt><trkpt lat="41.6476433" lon="15.4226983"><ele>65.0</ele><time>2026-04-19T06:53:55.997Z</time></trkpt><trkpt lat="41.64777" lon="15.4225633"><ele>65.33333333333334</ele><time>2026-04-19T06:53:56.996Z</time></trkpt><trkpt lat="41.6478967" lon="15.4224283"><ele>65.66666666666667</ele><time>2026-04-19T06:53:57.996Z</time></trkpt><trkpt lat="41.6480233" lon="15.4222933"><ele>66.0</ele><time>2026-04-19T06:53:58.996Z</time></trkpt><trkpt lat="41.64815" lon="15.42216"><ele>66.0</ele><time>2026-04-19T06:53:59.996Z</time></trkpt><trkpt lat="41.64828" lon="15.42203"><ele>66.0</ele><time>2026-04-19T06:54:00.996Z</time></trkpt><trkpt lat="41.6484117" lon="15.4219"><ele>66.0</ele><time>2026-04-19T06:54:01.997Z</time></trkpt><trkpt lat="41.6485417" lon="15.4217683"><ele>65.66666666666667</ele><time>2026-04-19T06:54:02.996Z</time></trkpt><trkpt lat="41.6486717" lon="15.421635"><ele>65.33333333333334</ele><time>2026-04-19T06:54:03.996Z</time></trkpt><trkpt lat="41.6488" lon="15.4214967"><ele>65.0</ele><time>2026-04-19T06:54:04.997Z</time></trkpt><trkpt lat="41.64893" lon="15.42136"><ele>65.33333333333334</ele><time>2026-04-19T06:54:05.997Z</time></trkpt><trkpt lat="41.64906" lon="15.421225"><ele>65.66666666666667</ele><time>2026-04-19T06:54:06.996Z</time></trkpt><trkpt lat="41.6491883" lon="15.42109"><ele>66.0</ele><time>2026-04-19T06:54:07.996Z</time></trkpt><trkpt lat="41.6493183" lon="15.4209533"><ele>66.0</ele><time>2026-04-19T06:54:08.996Z</time></trkpt><trkpt lat="41.649445" lon="15.4208167"><ele>66.0</ele><time>2026-04-19T06:54:09.996Z</time></trkpt><trkpt lat="41.6495733" lon="15.4206783"><ele>66.0</ele><time>2026-04-19T06:54:10.997Z</time></trkpt><trkpt lat="41.6497033" lon="15.42054"><ele>65.33333333333333</ele><time>2026-04-19T06:54:11.996Z</time></trkpt><trkpt lat="41.6498367" lon="15.4204017"><ele>64.66666666666666</ele><time>2026-04-19T06:54:12.996Z</time></trkpt><trkpt lat="41.6499667" lon="15.4202617"><ele>64.0</ele><time>2026-04-19T06:54:13.996Z</time></trkpt><trkpt lat="41.650095" lon="15.4201233"><ele>64.0</ele><time>2026-04-19T06:54:14.996Z</time></trkpt><trkpt lat="41.6502217" lon="15.4199883"><ele>64.0</ele><time>2026-04-19T06:54:15.997Z</time></trkpt><trkpt lat="41.6503467" lon="15.4198583"><ele>64.0</ele><time>2026-04-19T06:54:16.996Z</time></trkpt><trkpt lat="41.6504683" lon="15.4197283"><ele>64.33333333333333</ele><time>2026-04-19T06:54:17.996Z</time></trkpt><trkpt lat="41.65059" lon="15.4196"><ele>64.66666666666667</ele><time>2026-04-19T06:54:18.996Z</time></trkpt><trkpt lat="41.65071" lon="15.419465"><ele>65.0</ele><time>2026-04-19T06:54:19.997Z</time></trkpt><trkpt lat="41.65083" lon="15.4193283"><ele>65.0</ele><time>2026-04-19T06:54:20.996Z</time></trkpt><trkpt lat="41.6509483" lon="15.4191867"><ele>65.0</ele><time>2026-04-19T06:54:21.996Z</time></trkpt><trkpt lat="41.651065" lon="15.4190417"><ele>65.0</ele><time>2026-04-19T06:54:22.996Z</time></trkpt><trkpt lat="41.6511783" lon="15.4188933"><ele>65.33333333333334</ele><time>2026-04-19T06:54:23.996Z</time></trkpt><trkpt lat="41.65129" lon="15.418745"><ele>65.66666666666667</ele><time>2026-04-19T06:54:24.996Z</time></trkpt><trkpt lat="41.6513983" lon="15.4185933"><ele>66.0</ele><time>2026-04-19T06:54:25.996Z</time></trkpt><trkpt lat="41.651505" lon="15.4184417"><ele>66.0</ele><time>2026-04-19T06:54:26.996Z</time></trkpt><trkpt lat="41.6516083" lon="15.4182867"><ele>66.0</ele><time>2026-04-19T06:54:27.996Z</time></trkpt><trkpt lat="41.6517067" lon="15.4181333"><ele>66.0</ele><time>2026-04-19T06:54:28.996Z</time></trkpt><trkpt lat="41.6518033" lon="15.4179783"><ele>66.5</ele><time>2026-04-19T06:54:29.996Z</time></trkpt><trkpt lat="41.6518983" lon="15.4178233"><ele>67.0</ele><time>2026-04-19T06:54:30.996Z</time></trkpt><trkpt lat="41.6519883" lon="15.417665"><ele>67.5</ele><time>2026-04-19T06:54:31.997Z</time></trkpt><trkpt lat="41.6520767" lon="15.4175067"><ele>68.0</ele><time>2026-04-19T06:54:32.996Z</time></trkpt><trkpt lat="41.652165" lon="15.417345"><ele>68.25</ele><time>2026-04-19T06:54:33.996Z</time></trkpt><trkpt lat="41.6522533" lon="15.417185"><ele>68.5</ele><time>2026-04-19T06:54:34.996Z</time></trkpt><trkpt lat="41.6523367" lon="15.417025"><ele>68.75</ele><time>2026-04-19T06:54:35.997Z</time></trkpt><trkpt lat="41.65242" lon="15.4168633"><ele>69.0</ele><time>2026-04-19T06:54:36.996Z</time></trkpt><trkpt lat="41.6525017" lon="15.416695"><ele>69.0</ele><time>2026-04-19T06:54:37.996Z</time></trkpt><trkpt lat="41.6525783" lon="15.4165233"><ele>69.0</ele><time>2026-04-19T06:54:38.996Z</time></trkpt><trkpt lat="41.6526533" lon="15.4163433"><ele>69.0</ele><time>2026-04-19T06:54:39.997Z</time></trkpt><trkpt lat="41.6527283" lon="15.4161633"><ele>69.33333333333333</ele><time>2026-04-19T06:54:40.996Z</time></trkpt><trkpt lat="41.6528017" lon="15.41598"><ele>69.66666666666666</ele><time>2026-04-19T06:54:41.996Z</time></trkpt><trkpt lat="41.6528717" lon="15.415795"><ele>70.0</ele><time>2026-04-19T06:54:42.996Z</time></trkpt><trkpt lat="41.6529417" lon="15.4156133"><ele>70.0</ele><time>2026-04-19T06:54:43.996Z</time></trkpt><trkpt lat="41.6530117" lon="15.41543"><ele>70.0</ele><time>2026-04-19T06:54:44.996Z</time></trkpt><trkpt lat="41.6530767" lon="15.415245"><ele>70.0</ele><time>2026-04-19T06:54:45.996Z</time></trkpt><trkpt lat="41.65314" lon="15.415055"><ele>70.0</ele><time>2026-04-19T06:54:46.996Z</time></trkpt><trkpt lat="41.6532017" lon="15.4148617"><ele>70.0</ele><time>2026-04-19T06:54:47.996Z</time></trkpt><trkpt lat="41.6532601" lon="15.4146654"><ele>70.0</ele><time>2026-04-19T06:54:48.996Z</time></trkpt><trkpt lat="41.6533157" lon="15.4144674"><ele>70.33333333333333</ele><time>2026-04-19T06:54:49.996Z</time></trkpt><trkpt lat="41.653369" lon="15.4142675"><ele>70.66666666666667</ele><time>2026-04-19T06:54:50.996Z</time></trkpt><trkpt lat="41.6534203" lon="15.4140648"><ele>71.0</ele><time>2026-04-19T06:54:51.996Z</time></trkpt><trkpt lat="41.6534708" lon="15.4138637"><ele>71.33333333333334</ele><time>2026-04-19T06:54:52.997Z</time></trkpt><trkpt lat="41.6535219" lon="15.413663"><ele>71.66666666666667</ele><time>2026-04-19T06:54:53.996Z</time></trkpt><trkpt lat="41.6535674" lon="15.4134603"><ele>72.0</ele><time>2026-04-19T06:54:54.996Z</time></trkpt><trkpt lat="41.6536096" lon="15.4132563"><ele>71.66666666666667</ele><time>2026-04-19T06:54:55.996Z</time></trkpt><trkpt lat="41.6536493" lon="15.4130518"><ele>71.33333333333334</ele><time>2026-04-19T06:54:56.996Z</time></trkpt><trkpt lat="41.653688" lon="15.4128461"><ele>71.0</ele><time>2026-04-19T06:54:57.996Z</time></trkpt><trkpt lat="41.6537235" lon="15.4126395"><ele>71.0</ele><time>2026-04-19T06:54:58.996Z</time></trkpt><trkpt lat="41.6537567" lon="15.4124343"><ele>71.0</ele><time>2026-04-19T06:54:59.996Z</time></trkpt><trkpt lat="41.653788" lon="15.4122281"><ele>71.0</ele><time>2026-04-19T06:55:00.996Z</time></trkpt><trkpt lat="41.6538154" lon="15.4120235"><ele>71.0</ele><time>2026-04-19T06:55:01.996Z</time></trkpt><trkpt lat="41.6538386" lon="15.4118196"><ele>71.0</ele><time>2026-04-19T06:55:02.997Z</time></trkpt><trkpt lat="41.6538581" lon="15.4116154"><ele>71.0</ele><time>2026-04-19T06:55:03.996Z</time></trkpt><trkpt lat="41.6538713" lon="15.4114095"><ele>71.0</ele><time>2026-04-19T06:55:04.996Z</time></trkpt><trkpt lat="41.6538821" lon="15.4112016"><ele>71.0</ele><time>2026-04-19T06:55:05.996Z</time></trkpt><trkpt lat="41.653897" lon="15.4109938"><ele>71.0</ele><time>2026-04-19T06:55:06.996Z</time></trkpt><trkpt lat="41.6539096" lon="15.4107866"><ele>71.0</ele><time>2026-04-19T06:55:07.996Z</time></trkpt><trkpt lat="41.6539149" lon="15.4105784"><ele>71.0</ele><time>2026-04-19T06:55:08.996Z</time></trkpt><trkpt lat="41.6539144" lon="15.4103696"><ele>71.0</ele><time>2026-04-19T06:55:09.996Z</time></trkpt><trkpt lat="41.6539127" lon="15.4101572"><ele>71.33333333333334</ele><time>2026-04-19T06:55:10.996Z</time></trkpt><trkpt lat="41.6539105" lon="15.4099448"><ele>71.66666666666667</ele><time>2026-04-19T06:55:11.996Z</time></trkpt><trkpt lat="41.6539086" lon="15.4097306"><ele>72.0</ele><time>2026-04-19T06:55:12.996Z</time></trkpt><trkpt lat="41.653904" lon="15.4095178"><ele>72.0</ele><time>2026-04-19T06:55:13.996Z</time></trkpt><trkpt lat="41.6538978" lon="15.4093059"><ele>72.0</ele><time>2026-04-19T06:55:14.996Z</time></trkpt><trkpt lat="41.6538911" lon="15.4090949"><ele>72.0</ele><time>2026-04-19T06:55:15.996Z</time></trkpt><trkpt lat="41.6538827" lon="15.4088881"><ele>72.0</ele><time>2026-04-19T06:55:16.996Z</time></trkpt><trkpt lat="41.6538754" lon="15.4086988"><ele>72.0</ele><time>2026-04-19T06:55:17.997Z</time></trkpt><trkpt lat="41.6538666" lon="15.408537"><ele>72.0</ele><time>2026-04-19T06:55:18.997Z</time></trkpt><trkpt lat="41.6538613" lon="15.4083974"><ele>72.0</ele><time>2026-04-19T06:55:19.996Z</time></trkpt><trkpt lat="41.6538633" lon="15.4082705"><ele>72.0</ele><time>2026-04-19T06:55:20.997Z</time></trkpt><trkpt lat="41.6538676" lon="15.4081451"><ele>72.0</ele><time>2026-04-19T06:55:21.996Z</time></trkpt><trkpt lat="41.6538704" lon="15.4080057"><ele>72.0</ele><time>2026-04-19T06:55:22.997Z</time></trkpt><trkpt lat="41.6538692" lon="15.4078494"><ele>72.0</ele><time>2026-04-19T06:55:23.996Z</time></trkpt><trkpt lat="41.6538652" lon="15.4076821"><ele>72.0</ele><time>2026-04-19T06:55:24.997Z</time></trkpt><trkpt lat="41.6538612" lon="15.407506"><ele>72.25</ele><time>2026-04-19T06:55:25.996Z</time></trkpt><trkpt lat="41.6538594" lon="15.4073242"><ele>72.5</ele><time>2026-04-19T06:55:26.997Z</time></trkpt><trkpt lat="41.6538576" lon="15.407138"><ele>72.75</ele><time>2026-04-19T06:55:27.997Z</time></trkpt><trkpt lat="41.653854" lon="15.4069508"><ele>73.0</ele><time>2026-04-19T06:55:28.996Z</time></trkpt><trkpt lat="41.6538496" lon="15.406763"><ele>73.25</ele><time>2026-04-19T06:55:29.996Z</time></trkpt><trkpt lat="41.6538457" lon="15.4065718"><ele>73.5</ele><time>2026-04-19T06:55:30.996Z</time></trkpt><trkpt lat="41.6538421" lon="15.4063768"><ele>73.75</ele><time>2026-04-19T06:55:31.996Z</time></trkpt><trkpt lat="41.6538386" lon="15.4061806"><ele>74.0</ele><time>2026-04-19T06:55:32.997Z</time></trkpt><trkpt lat="41.653836" lon="15.4059809"><ele>74.25</ele><time>2026-04-19T06:55:33.996Z</time></trkpt><trkpt lat="41.653833" lon="15.4057798"><ele>74.5</ele><time>2026-04-19T06:55:34.996Z</time></trkpt><trkpt lat="41.6538281" lon="15.405586"><ele>74.75</ele><time>2026-04-19T06:55:35.996Z</time></trkpt><trkpt lat="41.6538223" lon="15.4054071"><ele>75.0</ele><time>2026-04-19T06:55:36.996Z</time></trkpt><trkpt lat="41.6538171" lon="15.4052404"><ele>74.6</ele><time>2026-04-19T06:55:37.996Z</time></trkpt><trkpt lat="41.6538129" lon="15.4050757"><ele>74.2</ele><time>2026-04-19T06:55:38.996Z</time></trkpt><trkpt lat="41.6538093" lon="15.4049172"><ele>73.8</ele><time>2026-04-19T06:55:39.996Z</time></trkpt><trkpt lat="41.6538052" lon="15.4047721"><ele>73.4</ele><time>2026-04-19T06:55:40.996Z</time></trkpt><trkpt lat="41.6538007" lon="15.4046397"><ele>73.0</ele><time>2026-04-19T06:55:41.996Z</time></trkpt><trkpt lat="41.6537974" lon="15.4045265"><ele>73.0</ele><time>2026-04-19T06:55:42.996Z</time></trkpt><trkpt lat="41.6538002" lon="15.4044358"><ele>73.0</ele><time>2026-04-19T06:55:43.997Z</time></trkpt><trkpt lat="41.6538125" lon="15.4043398"><ele>73.0</ele><time>2026-04-19T06:55:45.996Z</time></trkpt><trkpt lat="41.6538229" lon="15.4042096"><ele>73.0</ele><time>2026-04-19T06:56:06.996Z</time></trkpt><trkpt lat="41.6538172" lon="15.4040888"><ele>73.0</ele><time>2026-04-19T06:56:07.996Z</time></trkpt><trkpt lat="41.6538057" lon="15.4039494"><ele>73.0</ele><time>2026-04-19T06:56:08.996Z</time></trkpt><trkpt lat="41.6537947" lon="15.4037898"><ele>73.0</ele><time>2026-04-19T06:56:09.996Z</time></trkpt><trkpt lat="41.6537896" lon="15.4036162"><ele>73.0</ele><time>2026-04-19T06:56:10.996Z</time></trkpt><trkpt lat="41.6537881" lon="15.4034329"><ele>73.0</ele><time>2026-04-19T06:56:11.997Z</time></trkpt><trkpt lat="41.6537879" lon="15.4032445"><ele>73.0</ele><time>2026-04-19T06:56:12.996Z</time></trkpt><trkpt lat="41.6537849" lon="15.4030473"><ele>73.33333333333333</ele><time>2026-04-19T06:56:13.996Z</time></trkpt><trkpt lat="41.65378" lon="15.4028424"><ele>73.66666666666667</ele><time>2026-04-19T06:56:14.996Z</time></trkpt><trkpt lat="41.6537768" lon="15.4026335"><ele>74.0</ele><time>2026-04-19T06:56:15.996Z</time></trkpt><trkpt lat="41.6537764" lon="15.4024234"><ele>74.0</ele><time>2026-04-19T06:56:16.996Z</time></trkpt><trkpt lat="41.6537751" lon="15.4022076"><ele>74.0</ele><time>2026-04-19T06:56:17.996Z</time></trkpt><trkpt lat="41.6537719" lon="15.4019867"><ele>74.0</ele><time>2026-04-19T06:56:18.996Z</time></trkpt><trkpt lat="41.6537642" lon="15.4017577"><ele>74.0</ele><time>2026-04-19T06:56:19.996Z</time></trkpt><trkpt lat="41.653755" lon="15.4015258"><ele>74.0</ele><time>2026-04-19T06:56:20.996Z</time></trkpt><trkpt lat="41.6537491" lon="15.4012893"><ele>74.0</ele><time>2026-04-19T06:56:21.997Z</time></trkpt><trkpt lat="41.6537501" lon="15.4010525"><ele>74.0</ele><time>2026-04-19T06:56:22.997Z</time></trkpt><trkpt lat="41.6537561" lon="15.4008167"><ele>74.0</ele><time>2026-04-19T06:56:23.996Z</time></trkpt><trkpt lat="41.6537601" lon="15.4005913"><ele>74.0</ele><time>2026-04-19T06:56:24.996Z</time></trkpt><trkpt lat="41.653762" lon="15.4003672"><ele>74.66666666666667</ele><time>2026-04-19T06:56:25.996Z</time></trkpt><trkpt lat="41.6537621" lon="15.4001426"><ele>75.33333333333333</ele><time>2026-04-19T06:56:26.997Z</time></trkpt><trkpt lat="41.6537616" lon="15.3999081"><ele>76.0</ele><time>2026-04-19T06:56:27.996Z</time></trkpt><trkpt lat="41.6537599" lon="15.3996705"><ele>76.66666666666666</ele><time>2026-04-19T06:56:28.996Z</time></trkpt><trkpt lat="41.6537621" lon="15.3994354"><ele>77.33333333333333</ele><time>2026-04-19T06:56:29.996Z</time></trkpt><trkpt lat="41.6537658" lon="15.399203"><ele>78.0</ele><time>2026-04-19T06:56:30.996Z</time></trkpt><trkpt lat="41.6537698" lon="15.3989756"><ele>78.0</ele><time>2026-04-19T06:56:31.996Z</time></trkpt><trkpt lat="41.653772" lon="15.3987517"><ele>78.0</ele><time>2026-04-19T06:56:32.996Z</time></trkpt><trkpt lat="41.6537706" lon="15.398528"><ele>78.0</ele><time>2026-04-19T06:56:33.996Z</time></trkpt><trkpt lat="41.6537726" lon="15.3983056"><ele>78.0</ele><time>2026-04-19T06:56:34.996Z</time></trkpt><trkpt lat="41.6537855" lon="15.3980802"><ele>78.0</ele><time>2026-04-19T06:56:35.996Z</time></trkpt><trkpt lat="41.6537965" lon="15.3978505"><ele>78.0</ele><time>2026-04-19T06:56:36.996Z</time></trkpt><trkpt lat="41.6537991" lon="15.3976169"><ele>77.66666666666667</ele><time>2026-04-19T06:56:37.996Z</time></trkpt><trkpt lat="41.6537861" lon="15.3973821"><ele>77.33333333333334</ele><time>2026-04-19T06:56:38.996Z</time></trkpt><trkpt lat="41.6537852" lon="15.3971546"><ele>77.0</ele><time>2026-04-19T06:56:39.996Z</time></trkpt><trkpt lat="41.6537912" lon="15.3969258"><ele>77.0</ele><time>2026-04-19T06:56:40.996Z</time></trkpt><trkpt lat="41.6538051" lon="15.3966956"><ele>77.0</ele><time>2026-04-19T06:56:41.996Z</time></trkpt><trkpt lat="41.6538281" lon="15.3964666"><ele>77.0</ele><time>2026-04-19T06:56:42.997Z</time></trkpt><trkpt lat="41.6538635" lon="15.3962403"><ele>77.0</ele><time>2026-04-19T06:56:43.996Z</time></trkpt><trkpt lat="41.6538995" lon="15.3960137"><ele>77.0</ele><time>2026-04-19T06:56:44.997Z</time></trkpt><trkpt lat="41.6539306" lon="15.3957908"><ele>77.0</ele><time>2026-04-19T06:56:45.996Z</time></trkpt><trkpt lat="41.6539645" lon="15.3955732"><ele>76.33333333333334</ele><time>2026-04-19T06:56:46.996Z</time></trkpt><trkpt lat="41.6540036" lon="15.3953581"><ele>75.66666666666667</ele><time>2026-04-19T06:56:47.996Z</time></trkpt><trkpt lat="41.6540444" lon="15.3951437"><ele>75.0</ele><time>2026-04-19T06:56:48.996Z</time></trkpt><trkpt lat="41.6540833" lon="15.3949362"><ele>75.0</ele><time>2026-04-19T06:56:49.996Z</time></trkpt><trkpt lat="41.6541207" lon="15.3947376"><ele>75.0</ele><time>2026-04-19T06:56:50.996Z</time></trkpt><trkpt lat="41.6541583" lon="15.3945379"><ele>75.0</ele><time>2026-04-19T06:56:51.996Z</time></trkpt><trkpt lat="41.6541949" lon="15.3943328"><ele>74.33333333333333</ele><time>2026-04-19T06:56:52.996Z</time></trkpt><trkpt lat="41.654237" lon="15.3941276"><ele>73.66666666666666</ele><time>2026-04-19T06:56:53.996Z</time></trkpt><trkpt lat="41.6542806" lon="15.3939215"><ele>73.0</ele><time>2026-04-19T06:56:54.997Z</time></trkpt><trkpt lat="41.6543219" lon="15.3937141"><ele>72.66666666666666</ele><time>2026-04-19T06:56:55.996Z</time></trkpt><trkpt lat="41.6543624" lon="15.3935068"><ele>72.33333333333333</ele><time>2026-04-19T06:56:56.996Z</time></trkpt><trkpt lat="41.6544041" lon="15.393301"><ele>72.0</ele><time>2026-04-19T06:56:57.996Z</time></trkpt><trkpt lat="41.6544489" lon="15.3930989"><ele>72.0</ele><time>2026-04-19T06:56:58.996Z</time></trkpt><trkpt lat="41.6544942" lon="15.3929048"><ele>72.0</ele><time>2026-04-19T06:56:59.997Z</time></trkpt><trkpt lat="41.6545396" lon="15.3927146"><ele>72.0</ele><time>2026-04-19T06:57:00.996Z</time></trkpt><trkpt lat="41.6545856" lon="15.3925185"><ele>72.0</ele><time>2026-04-19T06:57:01.996Z</time></trkpt><trkpt lat="41.6546279" lon="15.3923168"><ele>72.0</ele><time>2026-04-19T06:57:02.996Z</time></trkpt><trkpt lat="41.6546677" lon="15.3921126"><ele>72.0</ele><time>2026-04-19T06:57:03.996Z</time></trkpt><trkpt lat="41.6547083" lon="15.3919101"><ele>71.75</ele><time>2026-04-19T06:57:04.997Z</time></trkpt><trkpt lat="41.6547486" lon="15.3917149"><ele>71.5</ele><time>2026-04-19T06:57:05.996Z</time></trkpt><trkpt lat="41.6547884" lon="15.3915239"><ele>71.25</ele><time>2026-04-19T06:57:06.997Z</time></trkpt><trkpt lat="41.6548252" lon="15.3913337"><ele>71.0</ele><time>2026-04-19T06:57:07.996Z</time></trkpt><trkpt lat="41.654859" lon="15.3911422"><ele>70.75</ele><time>2026-04-19T06:57:08.996Z</time></trkpt><trkpt lat="41.6548814" lon="15.3909442"><ele>70.5</ele><time>2026-04-19T06:57:09.996Z</time></trkpt><trkpt lat="41.6549093" lon="15.3907501"><ele>70.25</ele><time>2026-04-19T06:57:10.996Z</time></trkpt><trkpt lat="41.6549409" lon="15.3905559"><ele>70.0</ele><time>2026-04-19T06:57:11.996Z</time></trkpt><trkpt lat="41.6549736" lon="15.3903592"><ele>69.75</ele><time>2026-04-19T06:57:12.996Z</time></trkpt><trkpt lat="41.6550082" lon="15.3901626"><ele>69.5</ele><time>2026-04-19T06:57:13.996Z</time></trkpt><trkpt lat="41.6550449" lon="15.3899712"><ele>69.25</ele><time>2026-04-19T06:57:14.996Z</time></trkpt><trkpt lat="41.6550804" lon="15.3897774"><ele>69.0</ele><time>2026-04-19T06:57:15.997Z</time></trkpt><trkpt lat="41.655115" lon="15.3895831"><ele>69.0</ele><time>2026-04-19T06:57:16.996Z</time></trkpt><trkpt lat="41.6551492" lon="15.389395"><ele>69.0</ele><time>2026-04-19T06:57:17.997Z</time></trkpt><trkpt lat="41.6551847" lon="15.3892139"><ele>69.0</ele><time>2026-04-19T06:57:18.996Z</time></trkpt><trkpt lat="41.6552191" lon="15.3890363"><ele>69.0</ele><time>2026-04-19T06:57:19.996Z</time></trkpt><trkpt lat="41.6552495" lon="15.3888586"><ele>69.0</ele><time>2026-04-19T06:57:20.997Z</time></trkpt><trkpt lat="41.6552782" lon="15.3886856"><ele>69.0</ele><time>2026-04-19T06:57:21.997Z</time></trkpt><trkpt lat="41.6553161" lon="15.3885144"><ele>69.0</ele><time>2026-04-19T06:57:22.997Z</time></trkpt><trkpt lat="41.6553565" lon="15.3883429"><ele>69.0</ele><time>2026-04-19T06:57:23.996Z</time></trkpt><trkpt lat="41.6553929" lon="15.3881765"><ele>69.0</ele><time>2026-04-19T06:57:24.996Z</time></trkpt><trkpt lat="41.6554282" lon="15.388006"><ele>69.0</ele><time>2026-04-19T06:57:25.996Z</time></trkpt><trkpt lat="41.6554641" lon="15.3878352"><ele>69.0</ele><time>2026-04-19T06:57:26.996Z</time></trkpt><trkpt lat="41.6554988" lon="15.3876613"><ele>69.0</ele><time>2026-04-19T06:57:27.996Z</time></trkpt><trkpt lat="41.6555311" lon="15.3874831"><ele>69.0</ele><time>2026-04-19T06:57:28.996Z</time></trkpt><trkpt lat="41.6555587" lon="15.3872999"><ele>69.0</ele><time>2026-04-19T06:57:29.996Z</time></trkpt><trkpt lat="41.6555876" lon="15.3871182"><ele>69.0</ele><time>2026-04-19T06:57:30.996Z</time></trkpt><trkpt lat="41.6556217" lon="15.3869397"><ele>69.0</ele><time>2026-04-19T06:57:31.996Z</time></trkpt><trkpt lat="41.6556573" lon="15.3867644"><ele>69.0</ele><time>2026-04-19T06:57:32.996Z</time></trkpt><trkpt lat="41.6556948" lon="15.3865816"><ele>69.0</ele><time>2026-04-19T06:57:33.997Z</time></trkpt><trkpt lat="41.655732" lon="15.3863936"><ele>69.0</ele><time>2026-04-19T06:57:34.997Z</time></trkpt><trkpt lat="41.6557673" lon="15.3861983"><ele>69.0</ele><time>2026-04-19T06:57:35.996Z</time></trkpt><trkpt lat="41.6558056" lon="15.3860005"><ele>68.66666666666667</ele><time>2026-04-19T06:57:36.996Z</time></trkpt><trkpt lat="41.6558428" lon="15.3858027"><ele>68.33333333333334</ele><time>2026-04-19T06:57:37.997Z</time></trkpt><trkpt lat="41.6558807" lon="15.3856034"><ele>68.0</ele><time>2026-04-19T06:57:38.997Z</time></trkpt><trkpt lat="41.6559193" lon="15.3853995"><ele>68.0</ele><time>2026-04-19T06:57:39.996Z</time></trkpt><trkpt lat="41.6559579" lon="15.3851939"><ele>68.0</ele><time>2026-04-19T06:57:40.996Z</time></trkpt><trkpt lat="41.6559966" lon="15.3849857"><ele>68.0</ele><time>2026-04-19T06:57:41.996Z</time></trkpt><trkpt lat="41.6560371" lon="15.3847756"><ele>68.0</ele><time>2026-04-19T06:57:42.996Z</time></trkpt><trkpt lat="41.6560783" lon="15.3845648"><ele>68.0</ele><time>2026-04-19T06:57:43.996Z</time></trkpt><trkpt lat="41.65612" lon="15.3843527"><ele>68.0</ele><time>2026-04-19T06:57:44.996Z</time></trkpt><trkpt lat="41.6561655" lon="15.3841391"><ele>68.0</ele><time>2026-04-19T06:57:45.996Z</time></trkpt><trkpt lat="41.6562165" lon="15.3839268"><ele>68.0</ele><time>2026-04-19T06:57:46.996Z</time></trkpt><trkpt lat="41.6562752" lon="15.3837165"><ele>68.0</ele><time>2026-04-19T06:57:47.996Z</time></trkpt><trkpt lat="41.6563412" lon="15.3835074"><ele>68.0</ele><time>2026-04-19T06:57:48.997Z</time></trkpt><trkpt lat="41.6564113" lon="15.3832998"><ele>68.0</ele><time>2026-04-19T06:57:49.996Z</time></trkpt><trkpt lat="41.6564835" lon="15.3830944"><ele>68.0</ele><time>2026-04-19T06:57:50.997Z</time></trkpt><trkpt lat="41.6565613" lon="15.382891"><ele>68.0</ele><time>2026-04-19T06:57:51.996Z</time></trkpt><trkpt lat="41.6566453" lon="15.3826885"><ele>68.0</ele><time>2026-04-19T06:57:52.996Z</time></trkpt><trkpt lat="41.6567304" lon="15.3824868"><ele>68.0</ele><time>2026-04-19T06:57:53.996Z</time></trkpt><trkpt lat="41.6568148" lon="15.3822841"><ele>67.66666666666667</ele><time>2026-04-19T06:57:54.996Z</time></trkpt><trkpt lat="41.6568995" lon="15.382082"><ele>67.33333333333333</ele><time>2026-04-19T06:57:55.996Z</time></trkpt><trkpt lat="41.6569847" lon="15.3818797"><ele>67.0</ele><time>2026-04-19T06:57:56.996Z</time></trkpt><trkpt lat="41.6570717" lon="15.3816776"><ele>67.0</ele><time>2026-04-19T06:57:57.996Z</time></trkpt><trkpt lat="41.6571615" lon="15.3814784"><ele>67.0</ele><time>2026-04-19T06:57:58.996Z</time></trkpt><trkpt lat="41.6572525" lon="15.3812795"><ele>67.0</ele><time>2026-04-19T06:57:59.997Z</time></trkpt><trkpt lat="41.6573431" lon="15.38108"><ele>67.0</ele><time>2026-04-19T06:58:00.996Z</time></trkpt><trkpt lat="41.6574327" lon="15.3808765"><ele>67.0</ele><time>2026-04-19T06:58:01.996Z</time></trkpt><trkpt lat="41.6575214" lon="15.3806744"><ele>67.0</ele><time>2026-04-19T06:58:02.997Z</time></trkpt><trkpt lat="41.6576089" lon="15.3804715"><ele>67.0</ele><time>2026-04-19T06:58:03.997Z</time></trkpt><trkpt lat="41.6576978" lon="15.3802673"><ele>67.0</ele><time>2026-04-19T06:58:04.997Z</time></trkpt><trkpt lat="41.6577902" lon="15.3800671"><ele>67.0</ele><time>2026-04-19T06:58:05.996Z</time></trkpt><trkpt lat="41.657883" lon="15.3798695"><ele>67.0</ele><time>2026-04-19T06:58:06.996Z</time></trkpt><trkpt lat="41.6579732" lon="15.379671"><ele>67.0</ele><time>2026-04-19T06:58:07.996Z</time></trkpt><trkpt lat="41.6580626" lon="15.3794654"><ele>67.0</ele><time>2026-04-19T06:58:08.997Z</time></trkpt><trkpt lat="41.6581507" lon="15.3792572"><ele>67.0</ele><time>2026-04-19T06:58:09.997Z</time></trkpt><trkpt lat="41.658242" lon="15.3790491"><ele>67.0</ele><time>2026-04-19T06:58:10.996Z</time></trkpt><trkpt lat="41.6583346" lon="15.3788434"><ele>67.0</ele><time>2026-04-19T06:58:11.997Z</time></trkpt><trkpt lat="41.6584268" lon="15.3786372"><ele>67.33333333333333</ele><time>2026-04-19T06:58:12.996Z</time></trkpt><trkpt lat="41.6585169" lon="15.3784298"><ele>67.66666666666667</ele><time>2026-04-19T06:58:13.996Z</time></trkpt><trkpt lat="41.6586065" lon="15.3782225"><ele>68.0</ele><time>2026-04-19T06:58:14.997Z</time></trkpt><trkpt lat="41.6586993" lon="15.3780171"><ele>68.33333333333334</ele><time>2026-04-19T06:58:15.996Z</time></trkpt><trkpt lat="41.6587938" lon="15.3778124"><ele>68.66666666666667</ele><time>2026-04-19T06:58:16.996Z</time></trkpt><trkpt lat="41.6588867" lon="15.3776069"><ele>69.0</ele><time>2026-04-19T06:58:17.996Z</time></trkpt><trkpt lat="41.6589768" lon="15.3774001"><ele>69.0</ele><time>2026-04-19T06:58:18.996Z</time></trkpt><trkpt lat="41.6590675" lon="15.3771946"><ele>69.0</ele><time>2026-04-19T06:58:19.996Z</time></trkpt><trkpt lat="41.6591568" lon="15.3769899"><ele>69.0</ele><time>2026-04-19T06:58:20.996Z</time></trkpt><trkpt lat="41.6592462" lon="15.3767865"><ele>69.0</ele><time>2026-04-19T06:58:21.996Z</time></trkpt><trkpt lat="41.6593359" lon="15.3765834"><ele>69.0</ele><time>2026-04-19T06:58:22.996Z</time></trkpt><trkpt lat="41.6594246" lon="15.376379"><ele>69.0</ele><time>2026-04-19T06:58:23.996Z</time></trkpt><trkpt lat="41.6595159" lon="15.3761784"><ele>69.66666666666667</ele><time>2026-04-19T06:58:24.996Z</time></trkpt><trkpt lat="41.6596091" lon="15.3759784"><ele>70.33333333333334</ele><time>2026-04-19T06:58:25.996Z</time></trkpt><trkpt lat="41.6596998" lon="15.3757765"><ele>71.0</ele><time>2026-04-19T06:58:26.996Z</time></trkpt><trkpt lat="41.6597892" lon="15.3755744"><ele>71.66666666666667</ele><time>2026-04-19T06:58:27.996Z</time></trkpt><trkpt lat="41.6598799" lon="15.3753747"><ele>72.33333333333333</ele><time>2026-04-19T06:58:28.996Z</time></trkpt><trkpt lat="41.6599706" lon="15.3751741"><ele>73.0</ele><time>2026-04-19T06:58:29.996Z</time></trkpt><trkpt lat="41.6600592" lon="15.3749713"><ele>73.0</ele><time>2026-04-19T06:58:30.996Z</time></trkpt><trkpt lat="41.660147" lon="15.3747672"><ele>73.0</ele><time>2026-04-19T06:58:31.996Z</time></trkpt><trkpt lat="41.6602359" lon="15.3745658"><ele>73.0</ele><time>2026-04-19T06:58:32.996Z</time></trkpt><trkpt lat="41.6603262" lon="15.3743662"><ele>73.0</ele><time>2026-04-19T06:58:33.996Z</time></trkpt><trkpt lat="41.6604182" lon="15.3741669"><ele>73.0</ele><time>2026-04-19T06:58:34.996Z</time></trkpt><trkpt lat="41.6605103" lon="15.3739662"><ele>73.0</ele><time>2026-04-19T06:58:35.996Z</time></trkpt><trkpt lat="41.6606013" lon="15.3737623"><ele>73.33333333333333</ele><time>2026-04-19T06:58:36.996Z</time></trkpt><trkpt lat="41.6606921" lon="15.3735568"><ele>73.66666666666667</ele><time>2026-04-19T06:58:37.996Z</time></trkpt><trkpt lat="41.6607834" lon="15.3733522"><ele>74.0</ele><time>2026-04-19T06:58:38.997Z</time></trkpt><trkpt lat="41.6608761" lon="15.3731448"><ele>74.0</ele><time>2026-04-19T06:58:39.996Z</time></trkpt><trkpt lat="41.6609702" lon="15.3729386"><ele>74.0</ele><time>2026-04-19T06:58:40.996Z</time></trkpt><trkpt lat="41.6610641" lon="15.3727344"><ele>74.0</ele><time>2026-04-19T06:58:41.996Z</time></trkpt><trkpt lat="41.6611561" lon="15.3725316"><ele>74.0</ele><time>2026-04-19T06:58:42.996Z</time></trkpt><trkpt lat="41.6612458" lon="15.3723289"><ele>74.0</ele><time>2026-04-19T06:58:43.996Z</time></trkpt><trkpt lat="41.6613347" lon="15.372129"><ele>74.0</ele><time>2026-04-19T06:58:44.996Z</time></trkpt><trkpt lat="41.6614218" lon="15.3719318"><ele>73.66666666666667</ele><time>2026-04-19T06:58:45.996Z</time></trkpt><trkpt lat="41.6615094" lon="15.3717348"><ele>73.33333333333333</ele><time>2026-04-19T06:58:46.996Z</time></trkpt><trkpt lat="41.6615992" lon="15.3715383"><ele>73.0</ele><time>2026-04-19T06:58:47.996Z</time></trkpt><trkpt lat="41.6616881" lon="15.3713407"><ele>73.0</ele><time>2026-04-19T06:58:48.996Z</time></trkpt><trkpt lat="41.6617762" lon="15.3711435"><ele>73.0</ele><time>2026-04-19T06:58:49.996Z</time></trkpt><trkpt lat="41.6618648" lon="15.3709447"><ele>73.0</ele><time>2026-04-19T06:58:50.996Z</time></trkpt><trkpt lat="41.6619538" lon="15.3707445"><ele>74.0</ele><time>2026-04-19T06:58:51.996Z</time></trkpt><trkpt lat="41.6620423" lon="15.3705442"><ele>75.0</ele><time>2026-04-19T06:58:52.996Z</time></trkpt><trkpt lat="41.6621328" lon="15.3703439"><ele>76.0</ele><time>2026-04-19T06:58:53.996Z</time></trkpt><trkpt lat="41.6622249" lon="15.3701419"><ele>76.0</ele><time>2026-04-19T06:58:54.997Z</time></trkpt><trkpt lat="41.6623164" lon="15.3699383"><ele>76.0</ele><time>2026-04-19T06:58:55.996Z</time></trkpt><trkpt lat="41.6624058" lon="15.3697363"><ele>76.0</ele><time>2026-04-19T06:58:56.996Z</time></trkpt><trkpt lat="41.6624949" lon="15.3695385"><ele>76.0</ele><time>2026-04-19T06:58:57.996Z</time></trkpt><trkpt lat="41.6625831" lon="15.3693432"><ele>76.0</ele><time>2026-04-19T06:58:58.997Z</time></trkpt><trkpt lat="41.6626702" lon="15.3691497"><ele>76.0</ele><time>2026-04-19T06:58:59.996Z</time></trkpt><trkpt lat="41.6627569" lon="15.3689548"><ele>77.0</ele><time>2026-04-19T06:59:00.996Z</time></trkpt><trkpt lat="41.6628427" lon="15.3687599"><ele>78.0</ele><time>2026-04-19T06:59:01.996Z</time></trkpt><trkpt lat="41.6629319" lon="15.3685658"><ele>79.0</ele><time>2026-04-19T06:59:02.996Z</time></trkpt><trkpt lat="41.6630218" lon="15.3683705"><ele>79.0</ele><time>2026-04-19T06:59:03.997Z</time></trkpt><trkpt lat="41.6631111" lon="15.368173"><ele>79.0</ele><time>2026-04-19T06:59:04.996Z</time></trkpt><trkpt lat="41.6631998" lon="15.3679743"><ele>79.0</ele><time>2026-04-19T06:59:05.997Z</time></trkpt><trkpt lat="41.6632893" lon="15.3677751"><ele>79.33333333333333</ele><time>2026-04-19T06:59:06.996Z</time></trkpt><trkpt lat="41.6633782" lon="15.3675754"><ele>79.66666666666667</ele><time>2026-04-19T06:59:07.997Z</time></trkpt><trkpt lat="41.663468" lon="15.3673731"><ele>80.0</ele><time>2026-04-19T06:59:08.996Z</time></trkpt><trkpt lat="41.6635582" lon="15.3671707"><ele>81.0</ele><time>2026-04-19T06:59:09.996Z</time></trkpt><trkpt lat="41.6636493" lon="15.3669685"><ele>82.0</ele><time>2026-04-19T06:59:10.996Z</time></trkpt><trkpt lat="41.6637378" lon="15.3667648"><ele>83.0</ele><time>2026-04-19T06:59:11.996Z</time></trkpt><trkpt lat="41.663826" lon="15.3665596"><ele>82.66666666666667</ele><time>2026-04-19T06:59:12.996Z</time></trkpt><trkpt lat="41.6639165" lon="15.3663567"><ele>82.33333333333333</ele><time>2026-04-19T06:59:13.996Z</time></trkpt><trkpt lat="41.6640076" lon="15.3661557"><ele>82.0</ele><time>2026-04-19T06:59:14.996Z</time></trkpt><trkpt lat="41.6640962" lon="15.3659556"><ele>82.0</ele><time>2026-04-19T06:59:15.996Z</time></trkpt><trkpt lat="41.664184" lon="15.3657585"><ele>82.0</ele><time>2026-04-19T06:59:16.996Z</time></trkpt><trkpt lat="41.6642696" lon="15.3655649"><ele>82.0</ele><time>2026-04-19T06:59:17.996Z</time></trkpt><trkpt lat="41.6643534" lon="15.3653739"><ele>81.66666666666666</ele><time>2026-04-19T06:59:18.996Z</time></trkpt><trkpt lat="41.6644357" lon="15.3651852"><ele>81.33333333333333</ele><time>2026-04-19T06:59:19.996Z</time></trkpt><trkpt lat="41.6645135" lon="15.3650061"><ele>81.0</ele><time>2026-04-19T06:59:20.997Z</time></trkpt><trkpt lat="41.6645851" lon="15.3648365"><ele>81.25</ele><time>2026-04-19T06:59:21.997Z</time></trkpt><trkpt lat="41.6646573" lon="15.3646724"><ele>81.5</ele><time>2026-04-19T06:59:22.997Z</time></trkpt><trkpt lat="41.6647315" lon="15.3645096"><ele>81.75</ele><time>2026-04-19T06:59:23.996Z</time></trkpt><trkpt lat="41.664807" lon="15.3643464"><ele>82.0</ele><time>2026-04-19T06:59:24.996Z</time></trkpt><trkpt lat="41.6648816" lon="15.3641793"><ele>82.0</ele><time>2026-04-19T06:59:25.996Z</time></trkpt><trkpt lat="41.6649568" lon="15.3640105"><ele>82.0</ele><time>2026-04-19T06:59:26.996Z</time></trkpt><trkpt lat="41.6650308" lon="15.3638433"><ele>82.0</ele><time>2026-04-19T06:59:27.996Z</time></trkpt><trkpt lat="41.6651052" lon="15.3636759"><ele>82.0</ele><time>2026-04-19T06:59:28.996Z</time></trkpt><trkpt lat="41.6651801" lon="15.3635076"><ele>81.66666666666666</ele><time>2026-04-19T06:59:29.997Z</time></trkpt><trkpt lat="41.6652553" lon="15.363336"><ele>81.33333333333333</ele><time>2026-04-19T06:59:30.996Z</time></trkpt><trkpt lat="41.6653319" lon="15.3631609"><ele>81.0</ele><time>2026-04-19T06:59:31.996Z</time></trkpt><trkpt lat="41.6654077" lon="15.362985"><ele>82.0</ele><time>2026-04-19T06:59:32.996Z</time></trkpt><trkpt lat="41.665487" lon="15.3628079"><ele>83.0</ele><time>2026-04-19T06:59:33.996Z</time></trkpt><trkpt lat="41.665567" lon="15.3626321"><ele>84.0</ele><time>2026-04-19T06:59:34.997Z</time></trkpt><trkpt lat="41.6656449" lon="15.3624585"><ele>84.0</ele><time>2026-04-19T06:59:35.996Z</time></trkpt><trkpt lat="41.6657248" lon="15.3622869"><ele>84.0</ele><time>2026-04-19T06:59:36.997Z</time></trkpt><trkpt lat="41.6658051" lon="15.3621153"><ele>84.0</ele><time>2026-04-19T06:59:37.996Z</time></trkpt><trkpt lat="41.665886" lon="15.3619432"><ele>84.33333333333333</ele><time>2026-04-19T06:59:38.997Z</time></trkpt><trkpt lat="41.6659667" lon="15.3617689"><ele>84.66666666666666</ele><time>2026-04-19T06:59:39.996Z</time></trkpt><trkpt lat="41.6660471" lon="15.3615931"><ele>85.0</ele><time>2026-04-19T06:59:40.997Z</time></trkpt><trkpt lat="41.6661254" lon="15.361414"><ele>85.66666666666666</ele><time>2026-04-19T06:59:41.996Z</time></trkpt><trkpt lat="41.6662031" lon="15.361232"><ele>86.33333333333333</ele><time>2026-04-19T06:59:42.997Z</time></trkpt><trkpt lat="41.6662824" lon="15.3610493"><ele>87.0</ele><time>2026-04-19T06:59:43.996Z</time></trkpt><trkpt lat="41.6663629" lon="15.36087"><ele>87.0</ele><time>2026-04-19T06:59:44.996Z</time></trkpt><trkpt lat="41.6664453" lon="15.3606899"><ele>87.0</ele><time>2026-04-19T06:59:45.997Z</time></trkpt><trkpt lat="41.6665312" lon="15.360511"><ele>87.0</ele><time>2026-04-19T06:59:46.996Z</time></trkpt><trkpt lat="41.6666171" lon="15.3603306"><ele>86.66666666666667</ele><time>2026-04-19T06:59:47.996Z</time></trkpt><trkpt lat="41.6666997" lon="15.3601478"><ele>86.33333333333334</ele><time>2026-04-19T06:59:48.996Z</time></trkpt><trkpt lat="41.6667811" lon="15.3599613"><ele>86.0</ele><time>2026-04-19T06:59:49.997Z</time></trkpt><trkpt lat="41.6668626" lon="15.3597757"><ele>86.0</ele><time>2026-04-19T06:59:50.996Z</time></trkpt><trkpt lat="41.6669442" lon="15.3595894"><ele>86.0</ele><time>2026-04-19T06:59:51.996Z</time></trkpt><trkpt lat="41.6670267" lon="15.3594039"><ele>86.0</ele><time>2026-04-19T06:59:52.996Z</time></trkpt><trkpt lat="41.6671088" lon="15.3592185"><ele>85.33333333333334</ele><time>2026-04-19T06:59:53.996Z</time></trkpt><trkpt lat="41.6671895" lon="15.3590339"><ele>84.66666666666667</ele><time>2026-04-19T06:59:54.996Z</time></trkpt><trkpt lat="41.667271" lon="15.3588505"><ele>84.0</ele><time>2026-04-19T06:59:55.996Z</time></trkpt><trkpt lat="41.6673524" lon="15.3586677"><ele>84.0</ele><time>2026-04-19T06:59:56.996Z</time></trkpt><trkpt lat="41.667432" lon="15.3584829"><ele>84.0</ele><time>2026-04-19T06:59:57.996Z</time></trkpt><trkpt lat="41.6675116" lon="15.3583013"><ele>84.0</ele><time>2026-04-19T06:59:58.996Z</time></trkpt><trkpt lat="41.6675912" lon="15.3581209"><ele>84.0</ele><time>2026-04-19T06:59:59.997Z</time></trkpt><trkpt lat="41.6676699" lon="15.3579397"><ele>84.0</ele><time>2026-04-19T07:00:00.996Z</time></trkpt><trkpt lat="41.6677482" lon="15.3577592"><ele>84.0</ele><time>2026-04-19T07:00:01.996Z</time></trkpt><trkpt lat="41.6678274" lon="15.3575794"><ele>83.33333333333333</ele><time>2026-04-19T07:00:02.996Z</time></trkpt><trkpt lat="41.667907" lon="15.3573995"><ele>82.66666666666666</ele><time>2026-04-19T07:00:03.996Z</time></trkpt><trkpt lat="41.6679857" lon="15.3572219"><ele>82.0</ele><time>2026-04-19T07:00:04.996Z</time></trkpt><trkpt lat="41.6680651" lon="15.3570451"><ele>82.0</ele><time>2026-04-19T07:00:05.996Z</time></trkpt><trkpt lat="41.6681427" lon="15.3568719"><ele>82.0</ele><time>2026-04-19T07:00:06.996Z</time></trkpt><trkpt lat="41.6682156" lon="15.356708"><ele>82.0</ele><time>2026-04-19T07:00:07.997Z</time></trkpt><trkpt lat="41.6682879" lon="15.3565463"><ele>82.0</ele><time>2026-04-19T07:00:08.996Z</time></trkpt><trkpt lat="41.6683616" lon="15.3563855"><ele>82.0</ele><time>2026-04-19T07:00:09.997Z</time></trkpt><trkpt lat="41.6684367" lon="15.3562223"><ele>82.0</ele><time>2026-04-19T07:00:10.996Z</time></trkpt><trkpt lat="41.6685105" lon="15.3560573"><ele>82.0</ele><time>2026-04-19T07:00:11.997Z</time></trkpt><trkpt lat="41.6685839" lon="15.3558924"><ele>82.0</ele><time>2026-04-19T07:00:12.996Z</time></trkpt><trkpt lat="41.6686571" lon="15.3557299"><ele>82.0</ele><time>2026-04-19T07:00:13.996Z</time></trkpt><trkpt lat="41.6687319" lon="15.3555674"><ele>82.0</ele><time>2026-04-19T07:00:14.996Z</time></trkpt><trkpt lat="41.6688071" lon="15.3554034"><ele>82.0</ele><time>2026-04-19T07:00:15.996Z</time></trkpt><trkpt lat="41.6688826" lon="15.355237"><ele>82.0</ele><time>2026-04-19T07:00:16.996Z</time></trkpt><trkpt lat="41.6689569" lon="15.3550709"><ele>82.0</ele><time>2026-04-19T07:00:17.996Z</time></trkpt><trkpt lat="41.6690296" lon="15.3549044"><ele>82.0</ele><time>2026-04-19T07:00:18.997Z</time></trkpt><trkpt lat="41.669101" lon="15.3547412"><ele>82.0</ele><time>2026-04-19T07:00:19.996Z</time></trkpt><trkpt lat="41.6691753" lon="15.35458"><ele>82.0</ele><time>2026-04-19T07:00:20.996Z</time></trkpt><trkpt lat="41.6692505" lon="15.3544189"><ele>82.0</ele><time>2026-04-19T07:00:21.996Z</time></trkpt><trkpt lat="41.6693212" lon="15.3542651"><ele>82.0</ele><time>2026-04-19T07:00:22.996Z</time></trkpt><trkpt lat="41.6693885" lon="15.3541105"><ele>82.0</ele><time>2026-04-19T07:00:23.996Z</time></trkpt><trkpt lat="41.6694566" lon="15.3539578"><ele>82.0</ele><time>2026-04-19T07:00:24.996Z</time></trkpt><trkpt lat="41.6695287" lon="15.353809"><ele>82.25</ele><time>2026-04-19T07:00:25.996Z</time></trkpt><trkpt lat="41.6696056" lon="15.3536655"><ele>82.5</ele><time>2026-04-19T07:00:26.996Z</time></trkpt><trkpt lat="41.6696894" lon="15.3535291"><ele>82.75</ele><time>2026-04-19T07:00:27.996Z</time></trkpt><trkpt lat="41.6697751" lon="15.3534017"><ele>83.0</ele><time>2026-04-19T07:00:28.996Z</time></trkpt><trkpt lat="41.6698562" lon="15.353286"><ele>83.0</ele><time>2026-04-19T07:00:29.996Z</time></trkpt><trkpt lat="41.6699327" lon="15.3531776"><ele>83.0</ele><time>2026-04-19T07:00:30.997Z</time></trkpt><trkpt lat="41.6700078" lon="15.3530659"><ele>83.0</ele><time>2026-04-19T07:00:31.997Z</time></trkpt><trkpt lat="41.6700813" lon="15.3529426"><ele>83.0</ele><time>2026-04-19T07:00:32.996Z</time></trkpt><trkpt lat="41.6701507" lon="15.3528091"><ele>83.0</ele><time>2026-04-19T07:00:33.996Z</time></trkpt><trkpt lat="41.6702126" lon="15.352664"><ele>83.0</ele><time>2026-04-19T07:00:34.996Z</time></trkpt><trkpt lat="41.6702675" lon="15.3525097"><ele>83.0</ele><time>2026-04-19T07:00:35.996Z</time></trkpt><trkpt lat="41.6703174" lon="15.3523472"><ele>83.0</ele><time>2026-04-19T07:00:36.996Z</time></trkpt><trkpt lat="41.6703647" lon="15.3521816"><ele>83.25</ele><time>2026-04-19T07:00:37.996Z</time></trkpt><trkpt lat="41.6704122" lon="15.3520126"><ele>83.5</ele><time>2026-04-19T07:00:38.996Z</time></trkpt><trkpt lat="41.6704675" lon="15.3518485"><ele>83.75</ele><time>2026-04-19T07:00:39.996Z</time></trkpt><trkpt lat="41.670533" lon="15.351692"><ele>84.0</ele><time>2026-04-19T07:00:40.996Z</time></trkpt><trkpt lat="41.6706073" lon="15.3515416"><ele>84.0</ele><time>2026-04-19T07:00:41.996Z</time></trkpt><trkpt lat="41.670687" lon="15.3513947"><ele>84.0</ele><time>2026-04-19T07:00:42.997Z</time></trkpt><trkpt lat="41.6707733" lon="15.3512487"><ele>84.0</ele><time>2026-04-19T07:00:43.996Z</time></trkpt><trkpt lat="41.6708645" lon="15.351104"><ele>84.0</ele><time>2026-04-19T07:00:44.996Z</time></trkpt><trkpt lat="41.6709598" lon="15.3509632"><ele>84.25</ele><time>2026-04-19T07:00:45.997Z</time></trkpt><trkpt lat="41.671056" lon="15.3508272"><ele>84.5</ele><time>2026-04-19T07:00:46.996Z</time></trkpt><trkpt lat="41.6711509" lon="15.3506917"><ele>84.75</ele><time>2026-04-19T07:00:47.996Z</time></trkpt><trkpt lat="41.6712459" lon="15.3505537"><ele>85.0</ele><time>2026-04-19T07:00:48.996Z</time></trkpt><trkpt lat="41.6713445" lon="15.350413"><ele>85.0</ele><time>2026-04-19T07:00:49.996Z</time></trkpt><trkpt lat="41.671446" lon="15.3502746"><ele>85.0</ele><time>2026-04-19T07:00:50.996Z</time></trkpt><trkpt lat="41.6715531" lon="15.350139"><ele>85.0</ele><time>2026-04-19T07:00:51.996Z</time></trkpt><trkpt lat="41.671663" lon="15.350005"><ele>85.0</ele><time>2026-04-19T07:00:52.996Z</time></trkpt><trkpt lat="41.6717736" lon="15.3498728"><ele>85.0</ele><time>2026-04-19T07:00:53.996Z</time></trkpt><trkpt lat="41.6718846" lon="15.3497404"><ele>85.0</ele><time>2026-04-19T07:00:54.996Z</time></trkpt><trkpt lat="41.6719964" lon="15.3496087"><ele>85.0</ele><time>2026-04-19T07:00:55.996Z</time></trkpt><trkpt lat="41.6721108" lon="15.3494787"><ele>85.0</ele><time>2026-04-19T07:00:56.996Z</time></trkpt><trkpt lat="41.6722285" lon="15.3493532"><ele>85.75</ele><time>2026-04-19T07:00:57.996Z</time></trkpt><trkpt lat="41.6723491" lon="15.3492348"><ele>86.5</ele><time>2026-04-19T07:00:58.996Z</time></trkpt><trkpt lat="41.6724687" lon="15.3491197"><ele>87.25</ele><time>2026-04-19T07:00:59.996Z</time></trkpt><trkpt lat="41.6725861" lon="15.3490042"><ele>88.0</ele><time>2026-04-19T07:01:00.996Z</time></trkpt><trkpt lat="41.6727041" lon="15.3488927"><ele>88.0</ele><time>2026-04-19T07:01:01.997Z</time></trkpt><trkpt lat="41.6728221" lon="15.3487816"><ele>88.0</ele><time>2026-04-19T07:01:02.996Z</time></trkpt><trkpt lat="41.6729429" lon="15.3486737"><ele>88.0</ele><time>2026-04-19T07:01:03.996Z</time></trkpt><trkpt lat="41.6730701" lon="15.3485697"><ele>88.0</ele><time>2026-04-19T07:01:04.997Z</time></trkpt><trkpt lat="41.673202" lon="15.3484696"><ele>88.0</ele><time>2026-04-19T07:01:05.996Z</time></trkpt><trkpt lat="41.6733362" lon="15.348373"><ele>88.0</ele><time>2026-04-19T07:01:06.996Z</time></trkpt><trkpt lat="41.673472" lon="15.3482782"><ele>88.0</ele><time>2026-04-19T07:01:07.996Z</time></trkpt><trkpt lat="41.6736102" lon="15.3481838"><ele>88.33333333333333</ele><time>2026-04-19T07:01:08.996Z</time></trkpt><trkpt lat="41.6737481" lon="15.3480929"><ele>88.66666666666667</ele><time>2026-04-19T07:01:09.996Z</time></trkpt><trkpt lat="41.6738852" lon="15.3480029"><ele>89.0</ele><time>2026-04-19T07:01:10.997Z</time></trkpt><trkpt lat="41.6740232" lon="15.347914"><ele>89.0</ele><time>2026-04-19T07:01:11.996Z</time></trkpt><trkpt lat="41.6741624" lon="15.3478294"><ele>89.0</ele><time>2026-04-19T07:01:12.996Z</time></trkpt><trkpt lat="41.6743025" lon="15.3477509"><ele>89.0</ele><time>2026-04-19T07:01:13.996Z</time></trkpt><trkpt lat="41.6744417" lon="15.347677"><ele>89.0</ele><time>2026-04-19T07:01:14.996Z</time></trkpt><trkpt lat="41.6745778" lon="15.3476079"><ele>89.0</ele><time>2026-04-19T07:01:15.996Z</time></trkpt><trkpt lat="41.6747116" lon="15.3475394"><ele>89.0</ele><time>2026-04-19T07:01:16.996Z</time></trkpt><trkpt lat="41.6748479" lon="15.3474752"><ele>89.0</ele><time>2026-04-19T07:01:17.996Z</time></trkpt><trkpt lat="41.6749873" lon="15.3474146"><ele>89.0</ele><time>2026-04-19T07:01:18.996Z</time></trkpt><trkpt lat="41.6751267" lon="15.3473575"><ele>89.0</ele><time>2026-04-19T07:01:19.996Z</time></trkpt><trkpt lat="41.6752677" lon="15.3473011"><ele>89.0</ele><time>2026-04-19T07:01:20.996Z</time></trkpt><trkpt lat="41.6754058" lon="15.347249"><ele>89.0</ele><time>2026-04-19T07:01:21.996Z</time></trkpt><trkpt lat="41.6755388" lon="15.3471963"><ele>90.25</ele><time>2026-04-19T07:01:22.996Z</time></trkpt><trkpt lat="41.6756672" lon="15.3471436"><ele>91.5</ele><time>2026-04-19T07:01:23.996Z</time></trkpt><trkpt lat="41.6757945" lon="15.3471018"><ele>92.75</ele><time>2026-04-19T07:01:24.996Z</time></trkpt><trkpt lat="41.6759185" lon="15.3470707"><ele>94.0</ele><time>2026-04-19T07:01:25.996Z</time></trkpt><trkpt lat="41.6760342" lon="15.3470453"><ele>93.5</ele><time>2026-04-19T07:01:26.996Z</time></trkpt><trkpt lat="41.6761452" lon="15.3470272"><ele>93.0</ele><time>2026-04-19T07:01:27.996Z</time></trkpt><trkpt lat="41.6762603" lon="15.3470159"><ele>92.5</ele><time>2026-04-19T07:01:28.997Z</time></trkpt><trkpt lat="41.6763834" lon="15.347007"><ele>92.0</ele><time>2026-04-19T07:01:29.997Z</time></trkpt><trkpt lat="41.6765123" lon="15.3469926"><ele>92.0</ele><time>2026-04-19T07:01:30.996Z</time></trkpt><trkpt lat="41.6766435" lon="15.3469765"><ele>92.0</ele><time>2026-04-19T07:01:31.996Z</time></trkpt><trkpt lat="41.6767808" lon="15.3469633"><ele>92.0</ele><time>2026-04-19T07:01:32.996Z</time></trkpt><trkpt lat="41.6769233" lon="15.3469504"><ele>92.0</ele><time>2026-04-19T07:01:33.996Z</time></trkpt><trkpt lat="41.6770655" lon="15.3469331"><ele>91.75</ele><time>2026-04-19T07:01:34.996Z</time></trkpt><trkpt lat="41.6772082" lon="15.3469136"><ele>91.5</ele><time>2026-04-19T07:01:35.996Z</time></trkpt><trkpt lat="41.6773529" lon="15.3468938"><ele>91.25</ele><time>2026-04-19T07:01:36.996Z</time></trkpt><trkpt lat="41.6775007" lon="15.3468725"><ele>91.0</ele><time>2026-04-19T07:01:37.996Z</time></trkpt><trkpt lat="41.6776485" lon="15.3468519"><ele>91.5</ele><time>2026-04-19T07:01:38.996Z</time></trkpt><trkpt lat="41.6777961" lon="15.3468367"><ele>92.0</ele><time>2026-04-19T07:01:39.996Z</time></trkpt><trkpt lat="41.6779431" lon="15.3468099"><ele>92.5</ele><time>2026-04-19T07:01:40.996Z</time></trkpt><trkpt lat="41.6780886" lon="15.3467799"><ele>93.0</ele><time>2026-04-19T07:01:41.996Z</time></trkpt><trkpt lat="41.6782366" lon="15.34675"><ele>93.0</ele><time>2026-04-19T07:01:42.996Z</time></trkpt><trkpt lat="41.6783828" lon="15.3467247"><ele>93.0</ele><time>2026-04-19T07:01:43.996Z</time></trkpt><trkpt lat="41.6785293" lon="15.3467004"><ele>93.0</ele><time>2026-04-19T07:01:44.997Z</time></trkpt><trkpt lat="41.6786774" lon="15.3466799"><ele>93.0</ele><time>2026-04-19T07:01:45.996Z</time></trkpt><trkpt lat="41.6788285" lon="15.3466591"><ele>93.66666666666667</ele><time>2026-04-19T07:01:46.997Z</time></trkpt><trkpt lat="41.6789803" lon="15.3466369"><ele>94.33333333333334</ele><time>2026-04-19T07:01:47.996Z</time></trkpt><trkpt lat="41.6791324" lon="15.346613"><ele>95.0</ele><time>2026-04-19T07:01:48.997Z</time></trkpt><trkpt lat="41.6792869" lon="15.3465893"><ele>96.0</ele><time>2026-04-19T07:01:49.997Z</time></trkpt><trkpt lat="41.6794421" lon="15.3465646"><ele>97.0</ele><time>2026-04-19T07:01:50.997Z</time></trkpt><trkpt lat="41.6796012" lon="15.3465397"><ele>98.0</ele><time>2026-04-19T07:01:51.996Z</time></trkpt><trkpt lat="41.6797575" lon="15.3465187"><ele>98.0</ele><time>2026-04-19T07:01:52.996Z</time></trkpt><trkpt lat="41.6799152" lon="15.3464968"><ele>98.0</ele><time>2026-04-19T07:01:53.996Z</time></trkpt><trkpt lat="41.6800747" lon="15.3464738"><ele>98.0</ele><time>2026-04-19T07:01:54.996Z</time></trkpt><trkpt lat="41.6802343" lon="15.3464485"><ele>98.33333333333333</ele><time>2026-04-19T07:01:55.996Z</time></trkpt><trkpt lat="41.6803935" lon="15.3464258"><ele>98.66666666666666</ele><time>2026-04-19T07:01:56.996Z</time></trkpt><trkpt lat="41.6805533" lon="15.346404"><ele>99.0</ele><time>2026-04-19T07:01:57.996Z</time></trkpt><trkpt lat="41.6807132" lon="15.3463821"><ele>99.5</ele><time>2026-04-19T07:01:58.997Z</time></trkpt><trkpt lat="41.6808671" lon="15.3463574"><ele>100.0</ele><time>2026-04-19T07:01:59.996Z</time></trkpt><trkpt lat="41.6810099" lon="15.3463328"><ele>100.5</ele><time>2026-04-19T07:02:00.996Z</time></trkpt><trkpt lat="41.6811488" lon="15.3463093"><ele>101.0</ele><time>2026-04-19T07:02:01.996Z</time></trkpt><trkpt lat="41.6812884" lon="15.3462884"><ele>101.5</ele><time>2026-04-19T07:02:02.997Z</time></trkpt><trkpt lat="41.6814289" lon="15.3462689"><ele>102.0</ele><time>2026-04-19T07:02:03.997Z</time></trkpt><trkpt lat="41.68157" lon="15.3462452"><ele>102.5</ele><time>2026-04-19T07:02:04.997Z</time></trkpt><trkpt lat="41.6817125" lon="15.3462175"><ele>103.0</ele><time>2026-04-19T07:02:05.996Z</time></trkpt><trkpt lat="41.6818569" lon="15.3461893"><ele>103.0</ele><time>2026-04-19T07:02:06.996Z</time></trkpt><trkpt lat="41.6820022" lon="15.3461625"><ele>103.0</ele><time>2026-04-19T07:02:07.996Z</time></trkpt><trkpt lat="41.6821489" lon="15.3461338"><ele>103.0</ele><time>2026-04-19T07:02:08.996Z</time></trkpt><trkpt lat="41.6822971" lon="15.346106"><ele>103.0</ele><time>2026-04-19T07:02:09.996Z</time></trkpt><trkpt lat="41.6824458" lon="15.3460768"><ele>103.0</ele><time>2026-04-19T07:02:10.996Z</time></trkpt><trkpt lat="41.6825958" lon="15.346047"><ele>103.0</ele><time>2026-04-19T07:02:11.996Z</time></trkpt><trkpt lat="41.6827495" lon="15.3460201"><ele>103.0</ele><time>2026-04-19T07:02:12.996Z</time></trkpt><trkpt lat="41.6829048" lon="15.3459941"><ele>103.0</ele><time>2026-04-19T07:02:13.997Z</time></trkpt><trkpt lat="41.6830616" lon="15.3459646"><ele>103.0</ele><time>2026-04-19T07:02:14.996Z</time></trkpt><trkpt lat="41.6832188" lon="15.3459334"><ele>103.0</ele><time>2026-04-19T07:02:15.996Z</time></trkpt><trkpt lat="41.6833772" lon="15.3459009"><ele>103.0</ele><time>2026-04-19T07:02:16.996Z</time></trkpt><trkpt lat="41.6835371" lon="15.3458707"><ele>103.0</ele><time>2026-04-19T07:02:17.996Z</time></trkpt><trkpt lat="41.6836975" lon="15.3458418"><ele>103.0</ele><time>2026-04-19T07:02:18.997Z</time></trkpt><trkpt lat="41.683858" lon="15.3458141"><ele>102.66666666666667</ele><time>2026-04-19T07:02:19.996Z</time></trkpt><trkpt lat="41.6840183" lon="15.345785"><ele>102.33333333333334</ele><time>2026-04-19T07:02:20.996Z</time></trkpt><trkpt lat="41.6841807" lon="15.3457552"><ele>102.0</ele><time>2026-04-19T07:02:21.997Z</time></trkpt><trkpt lat="41.6843437" lon="15.3457262"><ele>101.0</ele><time>2026-04-19T07:02:22.996Z</time></trkpt><trkpt lat="41.6845072" lon="15.3456958"><ele>100.0</ele><time>2026-04-19T07:02:23.997Z</time></trkpt><trkpt lat="41.6846699" lon="15.3456666"><ele>99.0</ele><time>2026-04-19T07:02:24.997Z</time></trkpt><trkpt lat="41.6848258" lon="15.3456349"><ele>99.0</ele><time>2026-04-19T07:02:25.996Z</time></trkpt><trkpt lat="41.6849775" lon="15.3456036"><ele>99.0</ele><time>2026-04-19T07:02:26.996Z</time></trkpt><trkpt lat="41.6851275" lon="15.3455773"><ele>99.0</ele><time>2026-04-19T07:02:27.996Z</time></trkpt><trkpt lat="41.6852772" lon="15.3455511"><ele>98.66666666666666</ele><time>2026-04-19T07:02:28.996Z</time></trkpt><trkpt lat="41.6854266" lon="15.345525"><ele>98.33333333333333</ele><time>2026-04-19T07:02:29.996Z</time></trkpt><trkpt lat="41.685576" lon="15.3454986"><ele>98.0</ele><time>2026-04-19T07:02:30.996Z</time></trkpt><trkpt lat="41.6857256" lon="15.3454711"><ele>98.0</ele><time>2026-04-19T07:02:31.996Z</time></trkpt><trkpt lat="41.6858775" lon="15.3454409"><ele>98.0</ele><time>2026-04-19T07:02:32.996Z</time></trkpt><trkpt lat="41.6860309" lon="15.3454106"><ele>98.0</ele><time>2026-04-19T07:02:33.996Z</time></trkpt><trkpt lat="41.686186" lon="15.3453801"><ele>97.0</ele><time>2026-04-19T07:02:34.996Z</time></trkpt><trkpt lat="41.6863425" lon="15.3453485"><ele>96.0</ele><time>2026-04-19T07:02:35.996Z</time></trkpt><trkpt lat="41.6864995" lon="15.3453171"><ele>95.0</ele><time>2026-04-19T07:02:36.996Z</time></trkpt><trkpt lat="41.6866576" lon="15.3452881"><ele>95.0</ele><time>2026-04-19T07:02:37.996Z</time></trkpt><trkpt lat="41.6868162" lon="15.3452619"><ele>95.0</ele><time>2026-04-19T07:02:38.996Z</time></trkpt><trkpt lat="41.6869758" lon="15.3452363"><ele>95.0</ele><time>2026-04-19T07:02:39.996Z</time></trkpt><trkpt lat="41.6871347" lon="15.3452104"><ele>95.0</ele><time>2026-04-19T07:02:40.996Z</time></trkpt><trkpt lat="41.6872919" lon="15.345182"><ele>95.0</ele><time>2026-04-19T07:02:41.997Z</time></trkpt><trkpt lat="41.6874486" lon="15.3451526"><ele>95.0</ele><time>2026-04-19T07:02:42.996Z</time></trkpt><trkpt lat="41.687605" lon="15.3451251"><ele>94.66666666666667</ele><time>2026-04-19T07:02:43.996Z</time></trkpt><trkpt lat="41.6877627" lon="15.3450967"><ele>94.33333333333333</ele><time>2026-04-19T07:02:44.996Z</time></trkpt><trkpt lat="41.6879186" lon="15.3450665"><ele>94.0</ele><time>2026-04-19T07:02:45.997Z</time></trkpt><trkpt lat="41.6880702" lon="15.3450373"><ele>94.0</ele><time>2026-04-19T07:02:46.996Z</time></trkpt><trkpt lat="41.6882135" lon="15.3450093"><ele>94.0</ele><time>2026-04-19T07:02:47.997Z</time></trkpt><trkpt lat="41.6883493" lon="15.3449847"><ele>94.0</ele><time>2026-04-19T07:02:48.997Z</time></trkpt><trkpt lat="41.6884757" lon="15.3449614"><ele>94.0</ele><time>2026-04-19T07:02:49.997Z</time></trkpt><trkpt lat="41.6885866" lon="15.3449412"><ele>93.66666666666666</ele><time>2026-04-19T07:02:50.996Z</time></trkpt><trkpt lat="41.68867" lon="15.3449317"><ele>93.33333333333333</ele><time>2026-04-19T07:02:51.996Z</time></trkpt><trkpt lat="41.6887467" lon="15.344925"><ele>93.0</ele><time>2026-04-19T07:02:52.996Z</time></trkpt><trkpt lat="41.6888167" lon="15.3449183"><ele>92.66666666666667</ele><time>2026-04-19T07:02:53.996Z</time></trkpt><trkpt lat="41.6888833" lon="15.3449067"><ele>92.33333333333334</ele><time>2026-04-19T07:02:54.997Z</time></trkpt><trkpt lat="41.6889967" lon="15.3448783"><ele>92.0</ele><time>2026-04-19T07:02:56.996Z</time></trkpt><trkpt lat="41.6891" lon="15.34487"><ele>92.0</ele><time>2026-04-19T07:02:58.996Z</time></trkpt><trkpt lat="41.6892167" lon="15.344855"><ele>92.0</ele><time>2026-04-19T07:03:00.996Z</time></trkpt><trkpt lat="41.6893333" lon="15.344825"><ele>92.0</ele><time>2026-04-19T07:03:02.997Z</time></trkpt><trkpt lat="41.6894483" lon="15.3448033"><ele>92.0</ele><time>2026-04-19T07:03:04.996Z</time></trkpt><trkpt lat="41.6895717" lon="15.34477"><ele>91.66666666666667</ele><time>2026-04-19T07:03:06.996Z</time></trkpt><trkpt lat="41.6896433" lon="15.34476"><ele>91.33333333333334</ele><time>2026-04-19T07:03:07.996Z</time></trkpt><trkpt lat="41.6897133" lon="15.3447517"><ele>91.0</ele><time>2026-04-19T07:03:08.996Z</time></trkpt><trkpt lat="41.6897867" lon="15.3447467"><ele>90.66666666666667</ele><time>2026-04-19T07:03:09.996Z</time></trkpt><trkpt lat="41.689865" lon="15.3447367"><ele>90.33333333333333</ele><time>2026-04-19T07:03:10.997Z</time></trkpt><trkpt lat="41.68995" lon="15.3447233"><ele>90.0</ele><time>2026-04-19T07:03:11.996Z</time></trkpt><trkpt lat="41.6900433" lon="15.3447067"><ele>90.0</ele><time>2026-04-19T07:03:12.996Z</time></trkpt><trkpt lat="41.6901483" lon="15.344685"><ele>90.0</ele><time>2026-04-19T07:03:13.997Z</time></trkpt><trkpt lat="41.69026" lon="15.3446617"><ele>90.0</ele><time>2026-04-19T07:03:14.996Z</time></trkpt><trkpt lat="41.690375" lon="15.3446483"><ele>90.0</ele><time>2026-04-19T07:03:15.996Z</time></trkpt><trkpt lat="41.6904917" lon="15.3446283"><ele>89.4</ele><time>2026-04-19T07:03:16.996Z</time></trkpt><trkpt lat="41.6906033" lon="15.3446083"><ele>88.8</ele><time>2026-04-19T07:03:17.997Z</time></trkpt><trkpt lat="41.6907067" lon="15.3445867"><ele>88.19999999999999</ele><time>2026-04-19T07:03:18.997Z</time></trkpt><trkpt lat="41.6908033" lon="15.3445767"><ele>87.6</ele><time>2026-04-19T07:03:19.996Z</time></trkpt><trkpt lat="41.690895" lon="15.3445667"><ele>87.0</ele><time>2026-04-19T07:03:20.996Z</time></trkpt><trkpt lat="41.6909767" lon="15.3445567"><ele>87.0</ele><time>2026-04-19T07:03:21.997Z</time></trkpt><trkpt lat="41.6910483" lon="15.3445483"><ele>87.0</ele><time>2026-04-19T07:03:22.996Z</time></trkpt><trkpt lat="41.6911117" lon="15.3445467"><ele>87.0</ele><time>2026-04-19T07:03:23.996Z</time></trkpt><trkpt lat="41.6912134" lon="15.3445661"><ele>87.0</ele><time>2026-04-19T07:03:25.996Z</time></trkpt><trkpt lat="41.691274" lon="15.3446043"><ele>87.0</ele><time>2026-04-19T07:03:27.996Z</time></trkpt><trkpt lat="41.6913202" lon="15.3446619"><ele>87.0</ele><time>2026-04-19T07:03:29.996Z</time></trkpt><trkpt lat="41.6913378" lon="15.3447984"><ele>87.0</ele><time>2026-04-19T07:03:31.996Z</time></trkpt><trkpt lat="41.6912952" lon="15.3449497"><ele>87.0</ele><time>2026-04-19T07:03:33.996Z</time></trkpt><trkpt lat="41.6912119" lon="15.3450569"><ele>87.0</ele><time>2026-04-19T07:03:35.996Z</time></trkpt><trkpt lat="41.6910988" lon="15.3451308"><ele>87.0</ele><time>2026-04-19T07:03:37.996Z</time></trkpt><trkpt lat="41.6910245" lon="15.3451613"><ele>87.0</ele><time>2026-04-19T07:03:38.996Z</time></trkpt><trkpt lat="41.6909432" lon="15.3451972"><ele>87.0</ele><time>2026-04-19T07:03:39.996Z</time></trkpt><trkpt lat="41.6908592" lon="15.3452379"><ele>87.0</ele><time>2026-04-19T07:03:40.996Z</time></trkpt><trkpt lat="41.6907724" lon="15.3452815"><ele>87.0</ele><time>2026-04-19T07:03:41.996Z</time></trkpt><trkpt lat="41.6906837" lon="15.3453247"><ele>87.0</ele><time>2026-04-19T07:03:42.996Z</time></trkpt><trkpt lat="41.6905911" lon="15.3453626"><ele>87.0</ele><time>2026-04-19T07:03:43.997Z</time></trkpt><trkpt lat="41.6904989" lon="15.3454067"><ele>87.0</ele><time>2026-04-19T07:03:44.996Z</time></trkpt><trkpt lat="41.6904056" lon="15.3454487"><ele>87.0</ele><time>2026-04-19T07:03:45.996Z</time></trkpt><trkpt lat="41.6903138" lon="15.3454909"><ele>87.0</ele><time>2026-04-19T07:03:46.996Z</time></trkpt><trkpt lat="41.6902246" lon="15.3455346"><ele>87.0</ele><time>2026-04-19T07:03:47.997Z</time></trkpt><trkpt lat="41.6901408" lon="15.345575"><ele>87.0</ele><time>2026-04-19T07:03:48.996Z</time></trkpt><trkpt lat="41.6900597" lon="15.3456133"><ele>87.83333333333333</ele><time>2026-04-19T07:03:49.996Z</time></trkpt><trkpt lat="41.6899813" lon="15.3456495"><ele>88.66666666666667</ele><time>2026-04-19T07:03:50.996Z</time></trkpt><trkpt lat="41.6899034" lon="15.3456824"><ele>89.5</ele><time>2026-04-19T07:03:51.996Z</time></trkpt><trkpt lat="41.6898296" lon="15.3457168"><ele>90.33333333333334</ele><time>2026-04-19T07:03:52.996Z</time></trkpt><trkpt lat="41.6897611" lon="15.3457526"><ele>91.16666666666667</ele><time>2026-04-19T07:03:53.996Z</time></trkpt><trkpt lat="41.689696" lon="15.3457872"><ele>92.0</ele><time>2026-04-19T07:03:54.996Z</time></trkpt><trkpt lat="41.6896313" lon="15.3458129"><ele>92.0</ele><time>2026-04-19T07:03:55.996Z</time></trkpt><trkpt lat="41.6895111" lon="15.3458215"><ele>92.0</ele><time>2026-04-19T07:03:57.997Z</time></trkpt><trkpt lat="41.6894026" lon="15.3457601"><ele>92.0</ele><time>2026-04-19T07:03:59.996Z</time></trkpt><trkpt lat="41.6893508" lon="15.3455935"><ele>92.0</ele><time>2026-04-19T07:04:01.996Z</time></trkpt><trkpt lat="41.689342" lon="15.3454784"><ele>92.0</ele><time>2026-04-19T07:04:02.997Z</time></trkpt><trkpt lat="41.689338" lon="15.3453536"><ele>92.0</ele><time>2026-04-19T07:04:03.996Z</time></trkpt><trkpt lat="41.6893276" lon="15.3452217"><ele>92.0</ele><time>2026-04-19T07:04:04.996Z</time></trkpt><trkpt lat="41.6893126" lon="15.3450838"><ele>92.0</ele><time>2026-04-19T07:04:05.997Z</time></trkpt><trkpt lat="41.6893071" lon="15.3449401"><ele>92.0</ele><time>2026-04-19T07:04:06.996Z</time></trkpt><trkpt lat="41.6893028" lon="15.3447916"><ele>92.25</ele><time>2026-04-19T07:04:07.996Z</time></trkpt><trkpt lat="41.6893025" lon="15.3446352"><ele>92.5</ele><time>2026-04-19T07:04:08.996Z</time></trkpt><trkpt lat="41.6893041" lon="15.3444729"><ele>92.75</ele><time>2026-04-19T07:04:09.996Z</time></trkpt><trkpt lat="41.6893082" lon="15.3443054"><ele>93.0</ele><time>2026-04-19T07:04:10.996Z</time></trkpt><trkpt lat="41.6893123" lon="15.3441408"><ele>93.0</ele><time>2026-04-19T07:04:11.996Z</time></trkpt><trkpt lat="41.6893136" lon="15.3439817"><ele>93.0</ele><time>2026-04-19T07:04:12.996Z</time></trkpt><trkpt lat="41.6893135" lon="15.3438194"><ele>93.0</ele><time>2026-04-19T07:04:13.996Z</time></trkpt><trkpt lat="41.689314" lon="15.3436514"><ele>93.0</ele><time>2026-04-19T07:04:14.996Z</time></trkpt><trkpt lat="41.6893153" lon="15.3434796"><ele>93.25</ele><time>2026-04-19T07:04:15.996Z</time></trkpt><trkpt lat="41.6893151" lon="15.3433039"><ele>93.5</ele><time>2026-04-19T07:04:16.996Z</time></trkpt><trkpt lat="41.689315" lon="15.3431271"><ele>93.75</ele><time>2026-04-19T07:04:17.996Z</time></trkpt><trkpt lat="41.689315" lon="15.3429515"><ele>94.0</ele><time>2026-04-19T07:04:18.996Z</time></trkpt><trkpt lat="41.6893131" lon="15.3427751"><ele>94.0</ele><time>2026-04-19T07:04:19.996Z</time></trkpt><trkpt lat="41.6893126" lon="15.3425969"><ele>94.0</ele><time>2026-04-19T07:04:20.996Z</time></trkpt><trkpt lat="41.689313" lon="15.3424169"><ele>94.0</ele><time>2026-04-19T07:04:21.996Z</time></trkpt><trkpt lat="41.6893121" lon="15.3422405"><ele>94.0</ele><time>2026-04-19T07:04:22.996Z</time></trkpt><trkpt lat="41.6893118" lon="15.3420693"><ele>94.0</ele><time>2026-04-19T07:04:23.996Z</time></trkpt><trkpt lat="41.6893118" lon="15.3418975"><ele>94.0</ele><time>2026-04-19T07:04:24.996Z</time></trkpt><trkpt lat="41.6893124" lon="15.3417236"><ele>94.0</ele><time>2026-04-19T07:04:25.997Z</time></trkpt><trkpt lat="41.6893142" lon="15.3415481"><ele>94.0</ele><time>2026-04-19T07:04:26.996Z</time></trkpt><trkpt lat="41.6893182" lon="15.3413718"><ele>94.25</ele><time>2026-04-19T07:04:27.996Z</time></trkpt><trkpt lat="41.6893217" lon="15.3411967"><ele>94.5</ele><time>2026-04-19T07:04:28.996Z</time></trkpt><trkpt lat="41.6893251" lon="15.3410201"><ele>94.75</ele><time>2026-04-19T07:04:29.996Z</time></trkpt><trkpt lat="41.6893307" lon="15.3408446"><ele>95.0</ele><time>2026-04-19T07:04:30.996Z</time></trkpt><trkpt lat="41.6893359" lon="15.3406707"><ele>94.5</ele><time>2026-04-19T07:04:31.996Z</time></trkpt><trkpt lat="41.6893423" lon="15.340499"><ele>94.0</ele><time>2026-04-19T07:04:32.996Z</time></trkpt><trkpt lat="41.6893438" lon="15.3403262"><ele>93.5</ele><time>2026-04-19T07:04:33.996Z</time></trkpt><trkpt lat="41.6893447" lon="15.3401515"><ele>93.0</ele><time>2026-04-19T07:04:34.997Z</time></trkpt><trkpt lat="41.6893467" lon="15.339975"><ele>93.0</ele><time>2026-04-19T07:04:35.997Z</time></trkpt><trkpt lat="41.6893496" lon="15.3397955"><ele>93.0</ele><time>2026-04-19T07:04:36.996Z</time></trkpt><trkpt lat="41.68935" lon="15.3396163"><ele>93.0</ele><time>2026-04-19T07:04:37.996Z</time></trkpt><trkpt lat="41.6893524" lon="15.3394363"><ele>93.0</ele><time>2026-04-19T07:04:38.996Z</time></trkpt><trkpt lat="41.6893519" lon="15.3392548"><ele>93.0</ele><time>2026-04-19T07:04:39.996Z</time></trkpt><trkpt lat="41.6893529" lon="15.3390717"><ele>93.0</ele><time>2026-04-19T07:04:40.996Z</time></trkpt><trkpt lat="41.6893507" lon="15.338887"><ele>93.0</ele><time>2026-04-19T07:04:41.996Z</time></trkpt><trkpt lat="41.6893484" lon="15.3387006"><ele>93.0</ele><time>2026-04-19T07:04:42.996Z</time></trkpt><trkpt lat="41.6893482" lon="15.3385137"><ele>92.75</ele><time>2026-04-19T07:04:43.996Z</time></trkpt><trkpt lat="41.6893484" lon="15.3383269"><ele>92.5</ele><time>2026-04-19T07:04:44.996Z</time></trkpt><trkpt lat="41.6893513" lon="15.3381387"><ele>92.25</ele><time>2026-04-19T07:04:45.996Z</time></trkpt><trkpt lat="41.6893525" lon="15.3379512"><ele>92.0</ele><time>2026-04-19T07:04:46.996Z</time></trkpt><trkpt lat="41.6893528" lon="15.3377654"><ele>91.5</ele><time>2026-04-19T07:04:47.996Z</time></trkpt><trkpt lat="41.6893522" lon="15.3375846"><ele>91.0</ele><time>2026-04-19T07:04:48.996Z</time></trkpt><trkpt lat="41.6893531" lon="15.3374046"><ele>90.5</ele><time>2026-04-19T07:04:49.996Z</time></trkpt><trkpt lat="41.689355" lon="15.3372238"><ele>90.0</ele><time>2026-04-19T07:04:50.996Z</time></trkpt><trkpt lat="41.6893569" lon="15.3370412"><ele>89.75</ele><time>2026-04-19T07:04:51.996Z</time></trkpt><trkpt lat="41.6893587" lon="15.3368556"><ele>89.5</ele><time>2026-04-19T07:04:52.996Z</time></trkpt><trkpt lat="41.6893604" lon="15.3366688"><ele>89.25</ele><time>2026-04-19T07:04:53.997Z</time></trkpt><trkpt lat="41.6893621" lon="15.3364831"><ele>89.0</ele><time>2026-04-19T07:04:54.996Z</time></trkpt><trkpt lat="41.6893628" lon="15.3362992"><ele>89.0</ele><time>2026-04-19T07:04:55.996Z</time></trkpt><trkpt lat="41.6893641" lon="15.3361149"><ele>89.0</ele><time>2026-04-19T07:04:56.996Z</time></trkpt><trkpt lat="41.6893656" lon="15.33593"><ele>89.0</ele><time>2026-04-19T07:04:57.997Z</time></trkpt><trkpt lat="41.6893672" lon="15.3357442"><ele>89.0</ele><time>2026-04-19T07:04:58.996Z</time></trkpt><trkpt lat="41.6893698" lon="15.3355592"><ele>89.0</ele><time>2026-04-19T07:04:59.996Z</time></trkpt><trkpt lat="41.6893718" lon="15.3353728"><ele>89.0</ele><time>2026-04-19T07:05:00.997Z</time></trkpt><trkpt lat="41.6893737" lon="15.335188"><ele>89.0</ele><time>2026-04-19T07:05:01.997Z</time></trkpt><trkpt lat="41.6893754" lon="15.3350068"><ele>89.0</ele><time>2026-04-19T07:05:02.996Z</time></trkpt><trkpt lat="41.6893771" lon="15.3348256"><ele>89.0</ele><time>2026-04-19T07:05:03.996Z</time></trkpt><trkpt lat="41.6893778" lon="15.3346439"><ele>89.0</ele><time>2026-04-19T07:05:04.996Z</time></trkpt><trkpt lat="41.689377" lon="15.3344597"><ele>89.0</ele><time>2026-04-19T07:05:05.996Z</time></trkpt><trkpt lat="41.6893759" lon="15.3342729"><ele>89.0</ele><time>2026-04-19T07:05:06.996Z</time></trkpt><trkpt lat="41.6893753" lon="15.3340869"><ele>89.0</ele><time>2026-04-19T07:05:07.996Z</time></trkpt><trkpt lat="41.6893759" lon="15.3339005"><ele>89.0</ele><time>2026-04-19T07:05:08.996Z</time></trkpt><trkpt lat="41.689379" lon="15.3337159"><ele>89.0</ele><time>2026-04-19T07:05:09.996Z</time></trkpt><trkpt lat="41.6893832" lon="15.3335312"><ele>89.0</ele><time>2026-04-19T07:05:10.996Z</time></trkpt><trkpt lat="41.6893879" lon="15.3333463"><ele>88.5</ele><time>2026-04-19T07:05:11.996Z</time></trkpt><trkpt lat="41.6893891" lon="15.3331597"><ele>88.0</ele><time>2026-04-19T07:05:12.996Z</time></trkpt><trkpt lat="41.6893895" lon="15.3329739"><ele>87.5</ele><time>2026-04-19T07:05:13.996Z</time></trkpt><trkpt lat="41.6893887" lon="15.3327897"><ele>87.0</ele><time>2026-04-19T07:05:14.996Z</time></trkpt><trkpt lat="41.6893912" lon="15.3326056"><ele>87.0</ele><time>2026-04-19T07:05:15.996Z</time></trkpt><trkpt lat="41.6893932" lon="15.3324183"><ele>87.0</ele><time>2026-04-19T07:05:16.996Z</time></trkpt><trkpt lat="41.6893942" lon="15.3322293"><ele>87.0</ele><time>2026-04-19T07:05:17.996Z</time></trkpt><trkpt lat="41.6893964" lon="15.3320406"><ele>87.0</ele><time>2026-04-19T07:05:18.996Z</time></trkpt><trkpt lat="41.6893993" lon="15.331851"><ele>87.5</ele><time>2026-04-19T07:05:19.996Z</time></trkpt><trkpt lat="41.6894035" lon="15.3316603"><ele>88.0</ele><time>2026-04-19T07:05:20.996Z</time></trkpt><trkpt lat="41.6894063" lon="15.331469"><ele>88.5</ele><time>2026-04-19T07:05:21.996Z</time></trkpt><trkpt lat="41.6894084" lon="15.3312775"><ele>89.0</ele><time>2026-04-19T07:05:22.997Z</time></trkpt><trkpt lat="41.6894121" lon="15.3310841"><ele>89.75</ele><time>2026-04-19T07:05:23.996Z</time></trkpt><trkpt lat="41.6894121" lon="15.330889"><ele>90.5</ele><time>2026-04-19T07:05:24.997Z</time></trkpt><trkpt lat="41.68941" lon="15.3306931"><ele>91.25</ele><time>2026-04-19T07:05:25.997Z</time></trkpt><trkpt lat="41.689408" lon="15.3304986"><ele>92.0</ele><time>2026-04-19T07:05:26.996Z</time></trkpt><trkpt lat="41.6894081" lon="15.330303"><ele>92.0</ele><time>2026-04-19T07:05:27.996Z</time></trkpt><trkpt lat="41.6894091" lon="15.3301087"><ele>92.0</ele><time>2026-04-19T07:05:28.996Z</time></trkpt><trkpt lat="41.6894112" lon="15.3299164"><ele>92.0</ele><time>2026-04-19T07:05:29.996Z</time></trkpt><trkpt lat="41.689416" lon="15.3297251"><ele>92.0</ele><time>2026-04-19T07:05:30.996Z</time></trkpt><trkpt lat="41.689421" lon="15.3295336"><ele>92.0</ele><time>2026-04-19T07:05:31.996Z</time></trkpt><trkpt lat="41.6894243" lon="15.3293435"><ele>92.0</ele><time>2026-04-19T07:05:32.996Z</time></trkpt><trkpt lat="41.6894265" lon="15.3291558"><ele>92.0</ele><time>2026-04-19T07:05:33.996Z</time></trkpt><trkpt lat="41.6894284" lon="15.3289712"><ele>92.0</ele><time>2026-04-19T07:05:34.996Z</time></trkpt><trkpt lat="41.6894302" lon="15.3287874"><ele>92.75</ele><time>2026-04-19T07:05:35.996Z</time></trkpt><trkpt lat="41.689431" lon="15.3286037"><ele>93.5</ele><time>2026-04-19T07:05:36.996Z</time></trkpt><trkpt lat="41.6894322" lon="15.3284199"><ele>94.25</ele><time>2026-04-19T07:05:37.996Z</time></trkpt><trkpt lat="41.6894328" lon="15.3282367"><ele>95.0</ele><time>2026-04-19T07:05:38.996Z</time></trkpt><trkpt lat="41.6894349" lon="15.3280515"><ele>95.25</ele><time>2026-04-19T07:05:39.997Z</time></trkpt><trkpt lat="41.6894359" lon="15.327865"><ele>95.5</ele><time>2026-04-19T07:05:40.996Z</time></trkpt><trkpt lat="41.689437" lon="15.3276756"><ele>95.75</ele><time>2026-04-19T07:05:41.996Z</time></trkpt><trkpt lat="41.689437" lon="15.3274851"><ele>96.0</ele><time>2026-04-19T07:05:42.996Z</time></trkpt><trkpt lat="41.6894386" lon="15.3272922"><ele>96.5</ele><time>2026-04-19T07:05:43.996Z</time></trkpt><trkpt lat="41.6894403" lon="15.3270985"><ele>97.0</ele><time>2026-04-19T07:05:44.996Z</time></trkpt><trkpt lat="41.689441" lon="15.3269036"><ele>97.5</ele><time>2026-04-19T07:05:45.997Z</time></trkpt><trkpt lat="41.6894413" lon="15.3267075"><ele>98.0</ele><time>2026-04-19T07:05:46.996Z</time></trkpt><trkpt lat="41.6894404" lon="15.326509"><ele>98.0</ele><time>2026-04-19T07:05:47.996Z</time></trkpt><trkpt lat="41.6894408" lon="15.3263068"><ele>98.0</ele><time>2026-04-19T07:05:48.996Z</time></trkpt><trkpt lat="41.6894421" lon="15.3261029"><ele>98.0</ele><time>2026-04-19T07:05:49.997Z</time></trkpt><trkpt lat="41.6894427" lon="15.3258968"><ele>98.0</ele><time>2026-04-19T07:05:50.996Z</time></trkpt><trkpt lat="41.689441" lon="15.3256881"><ele>98.0</ele><time>2026-04-19T07:05:51.997Z</time></trkpt><trkpt lat="41.6894401" lon="15.3254813"><ele>98.0</ele><time>2026-04-19T07:05:52.997Z</time></trkpt><trkpt lat="41.6894398" lon="15.3252762"><ele>98.0</ele><time>2026-04-19T07:05:53.996Z</time></trkpt><trkpt lat="41.6894425" lon="15.3250711"><ele>98.0</ele><time>2026-04-19T07:05:54.996Z</time></trkpt><trkpt lat="41.6894445" lon="15.3248647"><ele>98.0</ele><time>2026-04-19T07:05:55.997Z</time></trkpt><trkpt lat="41.6894474" lon="15.3246577"><ele>98.0</ele><time>2026-04-19T07:05:56.996Z</time></trkpt><trkpt lat="41.6894507" lon="15.324455"><ele>98.0</ele><time>2026-04-19T07:05:57.996Z</time></trkpt><trkpt lat="41.6894542" lon="15.3242599"><ele>98.0</ele><time>2026-04-19T07:05:58.996Z</time></trkpt><trkpt lat="41.6894539" lon="15.3240683"><ele>98.0</ele><time>2026-04-19T07:05:59.996Z</time></trkpt><trkpt lat="41.6894497" lon="15.3238775"><ele>97.75</ele><time>2026-04-19T07:06:00.996Z</time></trkpt><trkpt lat="41.6894487" lon="15.3236859"><ele>97.5</ele><time>2026-04-19T07:06:01.996Z</time></trkpt><trkpt lat="41.6894503" lon="15.3234946"><ele>97.25</ele><time>2026-04-19T07:06:02.996Z</time></trkpt><trkpt lat="41.689451" lon="15.3233041"><ele>97.0</ele><time>2026-04-19T07:06:03.996Z</time></trkpt><trkpt lat="41.6894523" lon="15.323115"><ele>97.0</ele><time>2026-04-19T07:06:04.996Z</time></trkpt><trkpt lat="41.6894528" lon="15.3229263"><ele>97.0</ele><time>2026-04-19T07:06:05.996Z</time></trkpt><trkpt lat="41.689452" lon="15.3227369"><ele>97.0</ele><time>2026-04-19T07:06:06.996Z</time></trkpt><trkpt lat="41.6894516" lon="15.3225499"><ele>97.0</ele><time>2026-04-19T07:06:07.997Z</time></trkpt><trkpt lat="41.6894524" lon="15.3223646"><ele>97.25</ele><time>2026-04-19T07:06:08.997Z</time></trkpt><trkpt lat="41.6894537" lon="15.3221793"><ele>97.5</ele><time>2026-04-19T07:06:09.996Z</time></trkpt><trkpt lat="41.6894534" lon="15.3219932"><ele>97.75</ele><time>2026-04-19T07:06:10.996Z</time></trkpt><trkpt lat="41.6894532" lon="15.321807"><ele>98.0</ele><time>2026-04-19T07:06:11.996Z</time></trkpt><trkpt lat="41.689454" lon="15.3216237"><ele>98.0</ele><time>2026-04-19T07:06:12.996Z</time></trkpt><trkpt lat="41.6894562" lon="15.3214427"><ele>98.0</ele><time>2026-04-19T07:06:13.996Z</time></trkpt><trkpt lat="41.6894611" lon="15.3212648"><ele>98.0</ele><time>2026-04-19T07:06:14.996Z</time></trkpt><trkpt lat="41.6894652" lon="15.3210875"><ele>98.0</ele><time>2026-04-19T07:06:15.996Z</time></trkpt><trkpt lat="41.689467" lon="15.3209117"><ele>98.25</ele><time>2026-04-19T07:06:16.996Z</time></trkpt><trkpt lat="41.689465" lon="15.3207362"><ele>98.5</ele><time>2026-04-19T07:06:17.996Z</time></trkpt><trkpt lat="41.6894649" lon="15.3205597"><ele>98.75</ele><time>2026-04-19T07:06:18.997Z</time></trkpt><trkpt lat="41.6894676" lon="15.3203831"><ele>99.0</ele><time>2026-04-19T07:06:19.996Z</time></trkpt><trkpt lat="41.6894707" lon="15.3202073"><ele>99.0</ele><time>2026-04-19T07:06:20.997Z</time></trkpt><trkpt lat="41.689473" lon="15.3200303"><ele>99.0</ele><time>2026-04-19T07:06:21.996Z</time></trkpt><trkpt lat="41.689475" lon="15.3198537"><ele>99.0</ele><time>2026-04-19T07:06:22.996Z</time></trkpt><trkpt lat="41.6894787" lon="15.319677"><ele>99.0</ele><time>2026-04-19T07:06:23.997Z</time></trkpt><trkpt lat="41.6894808" lon="15.3195004"><ele>99.5</ele><time>2026-04-19T07:06:24.996Z</time></trkpt><trkpt lat="41.6894831" lon="15.3193249"><ele>100.0</ele><time>2026-04-19T07:06:25.996Z</time></trkpt><trkpt lat="41.6894822" lon="15.3191474"><ele>100.5</ele><time>2026-04-19T07:06:26.996Z</time></trkpt><trkpt lat="41.689483" lon="15.3189689"><ele>101.0</ele><time>2026-04-19T07:06:27.996Z</time></trkpt><trkpt lat="41.6894832" lon="15.3187916"><ele>101.25</ele><time>2026-04-19T07:06:28.996Z</time></trkpt><trkpt lat="41.6894832" lon="15.3186123"><ele>101.5</ele><time>2026-04-19T07:06:29.996Z</time></trkpt><trkpt lat="41.6894837" lon="15.3184333"><ele>101.75</ele><time>2026-04-19T07:06:30.996Z</time></trkpt><trkpt lat="41.6894862" lon="15.3182549"><ele>102.0</ele><time>2026-04-19T07:06:31.996Z</time></trkpt><trkpt lat="41.6894864" lon="15.3180781"><ele>102.0</ele><time>2026-04-19T07:06:32.996Z</time></trkpt><trkpt lat="41.6894853" lon="15.3179016"><ele>102.0</ele><time>2026-04-19T07:06:33.996Z</time></trkpt><trkpt lat="41.6894873" lon="15.317725"><ele>102.0</ele><time>2026-04-19T07:06:34.996Z</time></trkpt><trkpt lat="41.6894879" lon="15.3175539"><ele>102.0</ele><time>2026-04-19T07:06:35.996Z</time></trkpt><trkpt lat="41.6894876" lon="15.3173917"><ele>101.75</ele><time>2026-04-19T07:06:36.996Z</time></trkpt><trkpt lat="41.6894881" lon="15.3172318"><ele>101.5</ele><time>2026-04-19T07:06:37.996Z</time></trkpt><trkpt lat="41.6894911" lon="15.3170719"><ele>101.25</ele><time>2026-04-19T07:06:38.997Z</time></trkpt><trkpt lat="41.6894881" lon="15.3169071"><ele>101.0</ele><time>2026-04-19T07:06:39.996Z</time></trkpt><trkpt lat="41.6894832" lon="15.3167432"><ele>101.0</ele><time>2026-04-19T07:06:40.996Z</time></trkpt><trkpt lat="41.6894798" lon="15.3165786"><ele>101.0</ele><time>2026-04-19T07:06:41.996Z</time></trkpt><trkpt lat="41.6894794" lon="15.3164137"><ele>101.0</ele><time>2026-04-19T07:06:42.996Z</time></trkpt><trkpt lat="41.6894817" lon="15.3162512"><ele>101.0</ele><time>2026-04-19T07:06:43.996Z</time></trkpt><trkpt lat="41.6894886" lon="15.3160882"><ele>101.25</ele><time>2026-04-19T07:06:44.996Z</time></trkpt><trkpt lat="41.6894968" lon="15.3159221"><ele>101.5</ele><time>2026-04-19T07:06:45.996Z</time></trkpt><trkpt lat="41.6895063" lon="15.3157553"><ele>101.75</ele><time>2026-04-19T07:06:46.996Z</time></trkpt><trkpt lat="41.6895192" lon="15.3155873"><ele>102.0</ele><time>2026-04-19T07:06:47.997Z</time></trkpt><trkpt lat="41.6895347" lon="15.3154201"><ele>102.5</ele><time>2026-04-19T07:06:48.996Z</time></trkpt><trkpt lat="41.68955" lon="15.3152508"><ele>103.0</ele><time>2026-04-19T07:06:49.996Z</time></trkpt><trkpt lat="41.6895652" lon="15.3150803"><ele>103.5</ele><time>2026-04-19T07:06:50.996Z</time></trkpt><trkpt lat="41.6895844" lon="15.3149101"><ele>104.0</ele><time>2026-04-19T07:06:51.996Z</time></trkpt><trkpt lat="41.6896059" lon="15.3147388"><ele>104.25</ele><time>2026-04-19T07:06:52.997Z</time></trkpt><trkpt lat="41.6896225" lon="15.3145655"><ele>104.5</ele><time>2026-04-19T07:06:53.997Z</time></trkpt><trkpt lat="41.6896413" lon="15.314392"><ele>104.75</ele><time>2026-04-19T07:06:54.996Z</time></trkpt><trkpt lat="41.6896599" lon="15.3142169"><ele>105.0</ele><time>2026-04-19T07:06:55.996Z</time></trkpt><trkpt lat="41.6896777" lon="15.3140412"><ele>105.5</ele><time>2026-04-19T07:06:56.996Z</time></trkpt><trkpt lat="41.6896953" lon="15.3138651"><ele>106.0</ele><time>2026-04-19T07:06:57.996Z</time></trkpt><trkpt lat="41.6897128" lon="15.3136895"><ele>106.5</ele><time>2026-04-19T07:06:58.997Z</time></trkpt><trkpt lat="41.6897295" lon="15.313519"><ele>107.0</ele><time>2026-04-19T07:06:59.996Z</time></trkpt><trkpt lat="41.6897444" lon="15.3133552"><ele>107.0</ele><time>2026-04-19T07:07:00.997Z</time></trkpt><trkpt lat="41.6897651" lon="15.3131953"><ele>107.0</ele><time>2026-04-19T07:07:01.996Z</time></trkpt><trkpt lat="41.689791" lon="15.3130383"><ele>107.0</ele><time>2026-04-19T07:07:02.996Z</time></trkpt><trkpt lat="41.6898137" lon="15.3128921"><ele>107.0</ele><time>2026-04-19T07:07:03.996Z</time></trkpt><trkpt lat="41.6898291" lon="15.3127532"><ele>107.39999999999999</ele><time>2026-04-19T07:07:04.996Z</time></trkpt><trkpt lat="41.6898372" lon="15.3126158"><ele>107.79999999999998</ele><time>2026-04-19T07:07:05.996Z</time></trkpt><trkpt lat="41.6898461" lon="15.3124836"><ele>108.2</ele><time>2026-04-19T07:07:06.996Z</time></trkpt><trkpt lat="41.6898535" lon="15.3123654"><ele>108.6</ele><time>2026-04-19T07:07:07.996Z</time></trkpt><trkpt lat="41.6898598" lon="15.3122686"><ele>109.0</ele><time>2026-04-19T07:07:08.996Z</time></trkpt><trkpt lat="41.6898718" lon="15.3121322"><ele>110.0</ele><time>2026-04-19T07:07:10.997Z</time></trkpt><trkpt lat="41.6898895" lon="15.3120474"><ele>110.0</ele><time>2026-04-19T07:07:12.996Z</time></trkpt><trkpt lat="41.6899484" lon="15.3119787"><ele>110.0</ele><time>2026-04-19T07:07:15.996Z</time></trkpt><trkpt lat="41.6899985" lon="15.311924"><ele>110.0</ele><time>2026-04-19T07:07:18.997Z</time></trkpt><trkpt lat="41.6900349" lon="15.3118535"><ele>110.0</ele><time>2026-04-19T07:07:38.266Z</time></trkpt><trkpt lat="41.690075" lon="15.31176"><ele>110.0</ele><time>2026-04-19T07:07:52.997Z</time></trkpt><trkpt lat="41.690065" lon="15.311655"><ele>110.0</ele><time>2026-04-19T07:07:54.996Z</time></trkpt></trkseg><trkseg><trkpt lat="41.69188" lon="15.2995017"><ele>167.0</ele><time>2026-04-19T07:27:28.371Z</time></trkpt><trkpt lat="41.693455" lon="15.29345"><ele>167.0</ele><time>2026-04-19T07:34:25.996Z</time></trkpt></trkseg><trkseg><trkpt lat="41.6898483" lon="15.3045517"><ele>131.0</ele><time>2026-04-19T16:06:22.996Z</time></trkpt><trkpt lat="41.6899483" lon="15.304625"><ele>131.0</ele><time>2026-04-19T16:09:05.996Z</time></trkpt><trkpt lat="41.69003" lon="15.3046767"><ele>131.0</ele><time>2026-04-19T16:09:07.996Z</time></trkpt><trkpt lat="41.69013" lon="15.304745"><ele>131.0</ele><time>2026-04-19T16:09:09.997Z</time></trkpt><trkpt lat="41.6902333" lon="15.3048167"><ele>131.0</ele><time>2026-04-19T16:09:11.996Z</time></trkpt><trkpt lat="41.6902933" lon="15.3048567"><ele>130.16666666666666</ele><time>2026-04-19T16:09:12.997Z</time></trkpt><trkpt lat="41.6903567" lon="15.3048983"><ele>129.33333333333331</ele><time>2026-04-19T16:09:13.997Z</time></trkpt><trkpt lat="41.69042" lon="15.30494"><ele>128.5</ele><time>2026-04-19T16:09:14.996Z</time></trkpt><trkpt lat="41.6904833" lon="15.30498"><ele>127.66666666666666</ele><time>2026-04-19T16:09:15.997Z</time></trkpt><trkpt lat="41.6905467" lon="15.3050183"><ele>126.83333333333333</ele><time>2026-04-19T16:09:16.996Z</time></trkpt><trkpt lat="41.6906083" lon="15.305055"><ele>126.0</ele><time>2026-04-19T16:09:17.996Z</time></trkpt><trkpt lat="41.69072" lon="15.3051233"><ele>126.0</ele><time>2026-04-19T16:09:19.996Z</time></trkpt><trkpt lat="41.69083" lon="15.305195"><ele>126.0</ele><time>2026-04-19T16:09:21.997Z</time></trkpt><trkpt lat="41.690935" lon="15.3052717"><ele>126.0</ele><time>2026-04-19T16:09:23.996Z</time></trkpt><trkpt lat="41.691045" lon="15.3053567"><ele>126.0</ele><time>2026-04-19T16:09:25.997Z</time></trkpt><trkpt lat="41.6911017" lon="15.3054"><ele>126.0</ele><time>2026-04-19T16:09:26.996Z</time></trkpt><trkpt lat="41.6912083" lon="15.305475"><ele>125.8</ele><time>2026-04-19T16:09:28.996Z</time></trkpt><trkpt lat="41.6913117" lon="15.3055517"><ele>125.6</ele><time>2026-04-19T16:09:30.996Z</time></trkpt><trkpt lat="41.691415" lon="15.3056217"><ele>125.4</ele><time>2026-04-19T16:09:32.996Z</time></trkpt><trkpt lat="41.691505" lon="15.305685"><ele>125.2</ele><time>2026-04-19T16:09:34.997Z</time></trkpt><trkpt lat="41.6915917" lon="15.305745"><ele>125.0</ele><time>2026-04-19T16:09:36.996Z</time></trkpt><trkpt lat="41.6916583" lon="15.3058133"><ele>124.49999999999999</ele><time>2026-04-19T16:09:38.997Z</time></trkpt><trkpt lat="41.69169" lon="15.3059083"><ele>124.0</ele><time>2026-04-19T16:09:40.997Z</time></trkpt><trkpt lat="41.6916833" lon="15.306055"><ele>123.5</ele><time>2026-04-19T16:09:42.997Z</time></trkpt><trkpt lat="41.6916567" lon="15.3061433"><ele>123.0</ele><time>2026-04-19T16:09:43.997Z</time></trkpt><trkpt lat="41.6916183" lon="15.3062317"><ele>122.49999999999999</ele><time>2026-04-19T16:09:44.997Z</time></trkpt><trkpt lat="41.6915783" lon="15.3063267"><ele>122.0</ele><time>2026-04-19T16:09:45.996Z</time></trkpt><trkpt lat="41.6915367" lon="15.3064267"><ele>121.39999999999999</ele><time>2026-04-19T16:09:46.996Z</time></trkpt><trkpt lat="41.69149" lon="15.3065283"><ele>120.79999999999998</ele><time>2026-04-19T16:09:47.996Z</time></trkpt><trkpt lat="41.6914417" lon="15.3066333"><ele>120.2</ele><time>2026-04-19T16:09:48.996Z</time></trkpt><trkpt lat="41.6913967" lon="15.3067467"><ele>119.6</ele><time>2026-04-19T16:09:49.996Z</time></trkpt><trkpt lat="41.69135" lon="15.3068617"><ele>119.0</ele><time>2026-04-19T16:09:50.996Z</time></trkpt><trkpt lat="41.6912967" lon="15.3069767"><ele>119.0</ele><time>2026-04-19T16:09:51.996Z</time></trkpt><trkpt lat="41.691245" lon="15.307095"><ele>119.0</ele><time>2026-04-19T16:09:52.996Z</time></trkpt><trkpt lat="41.6911917" lon="15.3072133"><ele>119.0</ele><time>2026-04-19T16:09:53.996Z</time></trkpt><trkpt lat="41.691135" lon="15.30733"><ele>119.0</ele><time>2026-04-19T16:09:54.996Z</time></trkpt><trkpt lat="41.6910833" lon="15.3074583"><ele>119.0</ele><time>2026-04-19T16:09:55.996Z</time></trkpt><trkpt lat="41.691025" lon="15.30759"><ele>118.6</ele><time>2026-04-19T16:09:56.996Z</time></trkpt><trkpt lat="41.6909633" lon="15.3077233"><ele>118.2</ele><time>2026-04-19T16:09:57.996Z</time></trkpt><trkpt lat="41.6909" lon="15.3078517"><ele>117.79999999999998</ele><time>2026-04-19T16:09:58.996Z</time></trkpt><trkpt lat="41.6908417" lon="15.3079767"><ele>117.39999999999999</ele><time>2026-04-19T16:09:59.997Z</time></trkpt><trkpt lat="41.6907817" lon="15.3080883"><ele>117.0</ele><time>2026-04-19T16:10:00.996Z</time></trkpt><trkpt lat="41.6907283" lon="15.3081983"><ele>117.0</ele><time>2026-04-19T16:10:01.997Z</time></trkpt><trkpt lat="41.6906783" lon="15.308305"><ele>116.99999999999999</ele><time>2026-04-19T16:10:02.996Z</time></trkpt><trkpt lat="41.6906333" lon="15.308415"><ele>116.99999999999999</ele><time>2026-04-19T16:10:03.996Z</time></trkpt><trkpt lat="41.6905867" lon="15.30852"><ele>117.0</ele><time>2026-04-19T16:10:04.996Z</time></trkpt><trkpt lat="41.6905467" lon="15.308625"><ele>117.0</ele><time>2026-04-19T16:10:05.996Z</time></trkpt><trkpt lat="41.69051" lon="15.3087333"><ele>117.0</ele><time>2026-04-19T16:10:06.996Z</time></trkpt><trkpt lat="41.6904683" lon="15.3088433"><ele>116.99999999999999</ele><time>2026-04-19T16:10:07.996Z</time></trkpt><trkpt lat="41.6904217" lon="15.308955"><ele>116.99999999999999</ele><time>2026-04-19T16:10:08.996Z</time></trkpt><trkpt lat="41.6903733" lon="15.3090733"><ele>117.0</ele><time>2026-04-19T16:10:09.996Z</time></trkpt><trkpt lat="41.6903283" lon="15.309195"><ele>117.0</ele><time>2026-04-19T16:10:10.996Z</time></trkpt><trkpt lat="41.6902867" lon="15.3093183"><ele>116.19999999999999</ele><time>2026-04-19T16:10:11.996Z</time></trkpt><trkpt lat="41.6902417" lon="15.3094417"><ele>115.39999999999999</ele><time>2026-04-19T16:10:12.997Z</time></trkpt><trkpt lat="41.6901967" lon="15.3095667"><ele>114.60000000000001</ele><time>2026-04-19T16:10:13.997Z</time></trkpt><trkpt lat="41.6901483" lon="15.3096917"><ele>113.80000000000001</ele><time>2026-04-19T16:10:14.996Z</time></trkpt><trkpt lat="41.6901017" lon="15.30982"><ele>113.0</ele><time>2026-04-19T16:10:15.997Z</time></trkpt><trkpt lat="41.6900567" lon="15.309945"><ele>112.80000000000001</ele><time>2026-04-19T16:10:16.996Z</time></trkpt><trkpt lat="41.6900167" lon="15.310065"><ele>112.60000000000001</ele><time>2026-04-19T16:10:17.997Z</time></trkpt><trkpt lat="41.68998" lon="15.3101833"><ele>112.39999999999999</ele><time>2026-04-19T16:10:18.997Z</time></trkpt><trkpt lat="41.68995" lon="15.3103083"><ele>112.19999999999999</ele><time>2026-04-19T16:10:19.996Z</time></trkpt><trkpt lat="41.689925" lon="15.3104383"><ele>112.0</ele><time>2026-04-19T16:10:20.996Z</time></trkpt><trkpt lat="41.6899117" lon="15.3105717"><ele>111.66666666666667</ele><time>2026-04-19T16:10:21.996Z</time></trkpt><trkpt lat="41.6899017" lon="15.3107"><ele>111.33333333333334</ele><time>2026-04-19T16:10:22.996Z</time></trkpt><trkpt lat="41.689895" lon="15.31082"><ele>111.0</ele><time>2026-04-19T16:10:23.996Z</time></trkpt><trkpt lat="41.6898867" lon="15.3109267"><ele>110.66666666666666</ele><time>2026-04-19T16:10:24.996Z</time></trkpt><trkpt lat="41.68988" lon="15.3110267"><ele>110.33333333333333</ele><time>2026-04-19T16:10:25.996Z</time></trkpt><trkpt lat="41.689875" lon="15.3111133"><ele>110.0</ele><time>2026-04-19T16:10:26.996Z</time></trkpt><trkpt lat="41.68988" lon="15.311255"><ele>109.99999999999999</ele><time>2026-04-19T16:10:28.996Z</time></trkpt><trkpt lat="41.6899017" lon="15.3113683"><ele>110.0</ele><time>2026-04-19T16:10:30.996Z</time></trkpt><trkpt lat="41.6899417" lon="15.3114483"><ele>110.0</ele><time>2026-04-19T16:10:32.996Z</time></trkpt><trkpt lat="41.68999" lon="15.311515"><ele>110.0</ele><time>2026-04-19T16:10:34.996Z</time></trkpt><trkpt lat="41.6900317" lon="15.311589"><ele>109.99999999999999</ele><time>2026-04-19T16:10:38.286Z</time></trkpt><trkpt lat="41.6900841" lon="15.31165"><ele>110.0</ele><time>2026-04-19T16:10:42.302Z</time></trkpt><trkpt lat="41.6900117" lon="15.3118583"><ele>109.99999999999999</ele><time>2026-04-19T16:19:12.996Z</time></trkpt><trkpt lat="41.68993" lon="15.3118733"><ele>110.0</ele><time>2026-04-19T16:19:38.996Z</time></trkpt><trkpt lat="41.689865" lon="15.3119217"><ele>110.0</ele><time>2026-04-19T16:19:41.997Z</time></trkpt><trkpt lat="41.6898383" lon="15.3120433"><ele>110.0</ele><time>2026-04-19T16:19:43.997Z</time></trkpt><trkpt lat="41.689835" lon="15.3121317"><ele>109.99999999999999</ele><time>2026-04-19T16:19:44.996Z</time></trkpt><trkpt lat="41.6898317" lon="15.3122333"><ele>110.0</ele><time>2026-04-19T16:19:45.996Z</time></trkpt><trkpt lat="41.6898217" lon="15.3123383"><ele>109.83333333333333</ele><time>2026-04-19T16:19:46.996Z</time></trkpt><trkpt lat="41.6898117" lon="15.3124483"><ele>109.66666666666666</ele><time>2026-04-19T16:19:47.996Z</time></trkpt><trkpt lat="41.6898033" lon="15.3125583"><ele>109.5</ele><time>2026-04-19T16:19:48.996Z</time></trkpt><trkpt lat="41.6897933" lon="15.3126717"><ele>109.33333333333334</ele><time>2026-04-19T16:19:49.996Z</time></trkpt><trkpt lat="41.6897833" lon="15.31279"><ele>109.16666666666667</ele><time>2026-04-19T16:19:50.996Z</time></trkpt><trkpt lat="41.6897667" lon="15.3129167"><ele>109.0</ele><time>2026-04-19T16:19:51.996Z</time></trkpt><trkpt lat="41.6897517" lon="15.3130483"><ele>108.6</ele><time>2026-04-19T16:19:52.996Z</time></trkpt><trkpt lat="41.6897383" lon="15.3131833"><ele>108.2</ele><time>2026-04-19T16:19:53.996Z</time></trkpt><trkpt lat="41.6897183" lon="15.3133233"><ele>107.79999999999998</ele><time>2026-04-19T16:19:54.997Z</time></trkpt><trkpt lat="41.6897083" lon="15.3134683"><ele>107.39999999999999</ele><time>2026-04-19T16:19:55.996Z</time></trkpt><trkpt lat="41.6896933" lon="15.3136183"><ele>107.0</ele><time>2026-04-19T16:19:56.996Z</time></trkpt><trkpt lat="41.6896767" lon="15.313765"><ele>106.6</ele><time>2026-04-19T16:19:57.996Z</time></trkpt><trkpt lat="41.6896617" lon="15.31391"><ele>106.19999999999999</ele><time>2026-04-19T16:19:58.996Z</time></trkpt><trkpt lat="41.6896433" lon="15.314055"><ele>105.8</ele><time>2026-04-19T16:19:59.996Z</time></trkpt><trkpt lat="41.689625" lon="15.3142017"><ele>105.4</ele><time>2026-04-19T16:20:00.996Z</time></trkpt><trkpt lat="41.68961" lon="15.31435"><ele>105.0</ele><time>2026-04-19T16:20:01.996Z</time></trkpt><trkpt lat="41.689595" lon="15.3145"><ele>105.0</ele><time>2026-04-19T16:20:02.996Z</time></trkpt><trkpt lat="41.6895783" lon="15.3146517"><ele>105.0</ele><time>2026-04-19T16:20:03.996Z</time></trkpt><trkpt lat="41.6895583" lon="15.3148017"><ele>105.0</ele><time>2026-04-19T16:20:04.996Z</time></trkpt><trkpt lat="41.68954" lon="15.3149533"><ele>105.0</ele><time>2026-04-19T16:20:05.996Z</time></trkpt><trkpt lat="41.68952" lon="15.3151067"><ele>104.75</ele><time>2026-04-19T16:20:06.996Z</time></trkpt><trkpt lat="41.68951" lon="15.31526"><ele>104.5</ele><time>2026-04-19T16:20:07.996Z</time></trkpt><trkpt lat="41.6894967" lon="15.3154167"><ele>104.25</ele><time>2026-04-19T16:20:08.996Z</time></trkpt><trkpt lat="41.689475" lon="15.3155717"><ele>104.0</ele><time>2026-04-19T16:20:09.996Z</time></trkpt><trkpt lat="41.6894583" lon="15.3157283"><ele>103.5</ele><time>2026-04-19T16:20:10.996Z</time></trkpt><trkpt lat="41.68945" lon="15.3158867"><ele>103.0</ele><time>2026-04-19T16:20:11.996Z</time></trkpt><trkpt lat="41.68945" lon="15.3160483"><ele>102.5</ele><time>2026-04-19T16:20:12.996Z</time></trkpt><trkpt lat="41.6894417" lon="15.3162067"><ele>102.0</ele><time>2026-04-19T16:20:13.996Z</time></trkpt><trkpt lat="41.68944" lon="15.3163683"><ele>101.75</ele><time>2026-04-19T16:20:14.996Z</time></trkpt><trkpt lat="41.6894417" lon="15.3165333"><ele>101.5</ele><time>2026-04-19T16:20:15.996Z</time></trkpt><trkpt lat="41.6894367" lon="15.3166983"><ele>101.25</ele><time>2026-04-19T16:20:16.996Z</time></trkpt><trkpt lat="41.689435" lon="15.3168617"><ele>101.0</ele><time>2026-04-19T16:20:17.996Z</time></trkpt><trkpt lat="41.6894386" lon="15.3170272"><ele>101.0</ele><time>2026-04-19T16:20:18.996Z</time></trkpt><trkpt lat="41.6894369" lon="15.3171946"><ele>101.0</ele><time>2026-04-19T16:20:19.996Z</time></trkpt><trkpt lat="41.6894341" lon="15.3173641"><ele>101.0</ele><time>2026-04-19T16:20:20.996Z</time></trkpt><trkpt lat="41.6894347" lon="15.3175343"><ele>101.0</ele><time>2026-04-19T16:20:21.996Z</time></trkpt><trkpt lat="41.6894296" lon="15.3177044"><ele>101.25</ele><time>2026-04-19T16:20:22.996Z</time></trkpt><trkpt lat="41.689439" lon="15.3178641"><ele>101.5</ele><time>2026-04-19T16:20:23.996Z</time></trkpt><trkpt lat="41.6894439" lon="15.3180175"><ele>101.75</ele><time>2026-04-19T16:20:24.996Z</time></trkpt><trkpt lat="41.6894465" lon="15.3181717"><ele>102.0</ele><time>2026-04-19T16:20:25.996Z</time></trkpt><trkpt lat="41.6894497" lon="15.3183323"><ele>102.0</ele><time>2026-04-19T16:20:26.996Z</time></trkpt><trkpt lat="41.6894517" lon="15.3184946"><ele>102.0</ele><time>2026-04-19T16:20:27.996Z</time></trkpt><trkpt lat="41.6894506" lon="15.3186572"><ele>102.0</ele><time>2026-04-19T16:20:28.996Z</time></trkpt><trkpt lat="41.689453" lon="15.3188207"><ele>102.0</ele><time>2026-04-19T16:20:29.996Z</time></trkpt><trkpt lat="41.6894492" lon="15.3189851"><ele>101.75</ele><time>2026-04-19T16:20:30.996Z</time></trkpt><trkpt lat="41.6894456" lon="15.3191532"><ele>101.5</ele><time>2026-04-19T16:20:31.996Z</time></trkpt><trkpt lat="41.6894433" lon="15.3193229"><ele>101.25</ele><time>2026-04-19T16:20:32.996Z</time></trkpt><trkpt lat="41.6894438" lon="15.3194941"><ele>101.0</ele><time>2026-04-19T16:20:33.996Z</time></trkpt><trkpt lat="41.6894417" lon="15.3196649"><ele>100.5</ele><time>2026-04-19T16:20:34.996Z</time></trkpt><trkpt lat="41.6894371" lon="15.3198366"><ele>100.0</ele><time>2026-04-19T16:20:35.997Z</time></trkpt><trkpt lat="41.6894328" lon="15.3200096"><ele>99.5</ele><time>2026-04-19T16:20:36.996Z</time></trkpt><trkpt lat="41.6894321" lon="15.3201832"><ele>99.0</ele><time>2026-04-19T16:20:37.996Z</time></trkpt><trkpt lat="41.6894313" lon="15.3203568"><ele>99.0</ele><time>2026-04-19T16:20:38.996Z</time></trkpt><trkpt lat="41.6894346" lon="15.3205291"><ele>99.0</ele><time>2026-04-19T16:20:39.996Z</time></trkpt><trkpt lat="41.6894374" lon="15.3207042"><ele>99.0</ele><time>2026-04-19T16:20:40.996Z</time></trkpt><trkpt lat="41.6894376" lon="15.3208785"><ele>99.0</ele><time>2026-04-19T16:20:41.996Z</time></trkpt><trkpt lat="41.6894334" lon="15.3210517"><ele>99.0</ele><time>2026-04-19T16:20:42.997Z</time></trkpt><trkpt lat="41.6894285" lon="15.3212236"><ele>99.0</ele><time>2026-04-19T16:20:43.996Z</time></trkpt><trkpt lat="41.6894226" lon="15.3213938"><ele>99.0</ele><time>2026-04-19T16:20:44.997Z</time></trkpt><trkpt lat="41.689426" lon="15.3215617"><ele>99.0</ele><time>2026-04-19T16:20:45.996Z</time></trkpt><trkpt lat="41.6894282" lon="15.3217315"><ele>98.75</ele><time>2026-04-19T16:20:46.997Z</time></trkpt><trkpt lat="41.6894294" lon="15.3219017"><ele>98.5</ele><time>2026-04-19T16:20:47.996Z</time></trkpt><trkpt lat="41.6894291" lon="15.3220763"><ele>98.25</ele><time>2026-04-19T16:20:48.996Z</time></trkpt><trkpt lat="41.6894279" lon="15.3222515"><ele>98.0</ele><time>2026-04-19T16:20:49.996Z</time></trkpt><trkpt lat="41.6894248" lon="15.3224292"><ele>98.0</ele><time>2026-04-19T16:20:50.996Z</time></trkpt><trkpt lat="41.6894245" lon="15.3226077"><ele>98.0</ele><time>2026-04-19T16:20:51.996Z</time></trkpt><trkpt lat="41.6894255" lon="15.3227864"><ele>98.0</ele><time>2026-04-19T16:20:52.996Z</time></trkpt><trkpt lat="41.6894241" lon="15.3229649"><ele>98.0</ele><time>2026-04-19T16:20:53.996Z</time></trkpt><trkpt lat="41.6894232" lon="15.3231422"><ele>98.0</ele><time>2026-04-19T16:20:54.996Z</time></trkpt><trkpt lat="41.6894217" lon="15.3233198"><ele>98.0</ele><time>2026-04-19T16:20:55.996Z</time></trkpt><trkpt lat="41.6894217" lon="15.3234968"><ele>98.0</ele><time>2026-04-19T16:20:56.996Z</time></trkpt><trkpt lat="41.6894224" lon="15.3236748"><ele>98.0</ele><time>2026-04-19T16:20:57.996Z</time></trkpt><trkpt lat="41.6894237" lon="15.3238526"><ele>97.75</ele><time>2026-04-19T16:20:58.996Z</time></trkpt><trkpt lat="41.6894246" lon="15.3240288"><ele>97.5</ele><time>2026-04-19T16:20:59.996Z</time></trkpt><trkpt lat="41.6894167" lon="15.3242053"><ele>97.25</ele><time>2026-04-19T16:21:00.996Z</time></trkpt><trkpt lat="41.6894155" lon="15.3243806"><ele>97.0</ele><time>2026-04-19T16:21:01.996Z</time></trkpt><trkpt lat="41.6894174" lon="15.3245581"><ele>97.5</ele><time>2026-04-19T16:21:02.996Z</time></trkpt><trkpt lat="41.6894191" lon="15.3247339"><ele>98.0</ele><time>2026-04-19T16:21:03.996Z</time></trkpt><trkpt lat="41.6894179" lon="15.3249127"><ele>98.5</ele><time>2026-04-19T16:21:04.996Z</time></trkpt><trkpt lat="41.6894186" lon="15.3250916"><ele>99.0</ele><time>2026-04-19T16:21:05.996Z</time></trkpt><trkpt lat="41.6894184" lon="15.3252714"><ele>99.0</ele><time>2026-04-19T16:21:06.996Z</time></trkpt><trkpt lat="41.6894224" lon="15.3254529"><ele>99.0</ele><time>2026-04-19T16:21:07.997Z</time></trkpt><trkpt lat="41.6894219" lon="15.3256366"><ele>99.0</ele><time>2026-04-19T16:21:08.996Z</time></trkpt><trkpt lat="41.6894187" lon="15.3258242"><ele>99.0</ele><time>2026-04-19T16:21:09.996Z</time></trkpt><trkpt lat="41.6894166" lon="15.3260144"><ele>99.0</ele><time>2026-04-19T16:21:10.996Z</time></trkpt><trkpt lat="41.6894143" lon="15.3262059"><ele>99.0</ele><time>2026-04-19T16:21:11.996Z</time></trkpt><trkpt lat="41.6894133" lon="15.3263997"><ele>99.0</ele><time>2026-04-19T16:21:12.997Z</time></trkpt><trkpt lat="41.689413" lon="15.3265943"><ele>99.0</ele><time>2026-04-19T16:21:13.996Z</time></trkpt><trkpt lat="41.6894129" lon="15.326791"><ele>99.0</ele><time>2026-04-19T16:21:14.996Z</time></trkpt><trkpt lat="41.6894109" lon="15.3269878"><ele>99.0</ele><time>2026-04-19T16:21:15.996Z</time></trkpt><trkpt lat="41.6894069" lon="15.3271861"><ele>99.0</ele><time>2026-04-19T16:21:16.996Z</time></trkpt><trkpt lat="41.6894064" lon="15.3273822"><ele>99.0</ele><time>2026-04-19T16:21:17.996Z</time></trkpt><trkpt lat="41.689403" lon="15.3275762"><ele>98.5</ele><time>2026-04-19T16:21:18.996Z</time></trkpt><trkpt lat="41.6894002" lon="15.3277715"><ele>98.0</ele><time>2026-04-19T16:21:19.996Z</time></trkpt><trkpt lat="41.689399" lon="15.3279665"><ele>97.5</ele><time>2026-04-19T16:21:20.996Z</time></trkpt><trkpt lat="41.6893984" lon="15.3281598"><ele>97.0</ele><time>2026-04-19T16:21:21.996Z</time></trkpt><trkpt lat="41.6893934" lon="15.3283548"><ele>96.5</ele><time>2026-04-19T16:21:22.997Z</time></trkpt><trkpt lat="41.6893893" lon="15.3285521"><ele>96.0</ele><time>2026-04-19T16:21:23.996Z</time></trkpt><trkpt lat="41.6893894" lon="15.3287529"><ele>95.5</ele><time>2026-04-19T16:21:24.996Z</time></trkpt><trkpt lat="41.6893915" lon="15.3289537"><ele>95.0</ele><time>2026-04-19T16:21:25.996Z</time></trkpt><trkpt lat="41.6893925" lon="15.3291532"><ele>94.5</ele><time>2026-04-19T16:21:26.996Z</time></trkpt><trkpt lat="41.689394" lon="15.3293508"><ele>94.0</ele><time>2026-04-19T16:21:27.997Z</time></trkpt><trkpt lat="41.6893946" lon="15.3295478"><ele>93.5</ele><time>2026-04-19T16:21:28.996Z</time></trkpt><trkpt lat="41.689396" lon="15.3297444"><ele>93.0</ele><time>2026-04-19T16:21:29.996Z</time></trkpt><trkpt lat="41.6893956" lon="15.3299385"><ele>92.75</ele><time>2026-04-19T16:21:30.996Z</time></trkpt><trkpt lat="41.6893927" lon="15.3301294"><ele>92.5</ele><time>2026-04-19T16:21:31.997Z</time></trkpt><trkpt lat="41.6893913" lon="15.3303172"><ele>92.25</ele><time>2026-04-19T16:21:32.996Z</time></trkpt><trkpt lat="41.6893899" lon="15.3305036"><ele>92.0</ele><time>2026-04-19T16:21:33.996Z</time></trkpt><trkpt lat="41.6893864" lon="15.3306875"><ele>92.0</ele><time>2026-04-19T16:21:34.996Z</time></trkpt><trkpt lat="41.6893829" lon="15.3308704"><ele>92.0</ele><time>2026-04-19T16:21:35.996Z</time></trkpt><trkpt lat="41.6893785" lon="15.3310529"><ele>92.0</ele><time>2026-04-19T16:21:36.996Z</time></trkpt><trkpt lat="41.6893774" lon="15.3312341"><ele>92.0</ele><time>2026-04-19T16:21:37.996Z</time></trkpt><trkpt lat="41.6893789" lon="15.3314165"><ele>91.25</ele><time>2026-04-19T16:21:38.996Z</time></trkpt><trkpt lat="41.6893731" lon="15.3316005"><ele>90.5</ele><time>2026-04-19T16:21:39.996Z</time></trkpt><trkpt lat="41.6893666" lon="15.331786"><ele>89.75</ele><time>2026-04-19T16:21:40.996Z</time></trkpt><trkpt lat="41.6893637" lon="15.3319744"><ele>89.0</ele><time>2026-04-19T16:21:41.997Z</time></trkpt><trkpt lat="41.6893644" lon="15.3321644"><ele>88.5</ele><time>2026-04-19T16:21:42.996Z</time></trkpt><trkpt lat="41.6893647" lon="15.3323544"><ele>88.0</ele><time>2026-04-19T16:21:43.996Z</time></trkpt><trkpt lat="41.6893669" lon="15.332546"><ele>87.5</ele><time>2026-04-19T16:21:44.996Z</time></trkpt><trkpt lat="41.689367" lon="15.3327391"><ele>87.0</ele><time>2026-04-19T16:21:45.996Z</time></trkpt><trkpt lat="41.6893633" lon="15.3329341"><ele>87.0</ele><time>2026-04-19T16:21:46.997Z</time></trkpt><trkpt lat="41.6893615" lon="15.3331312"><ele>87.0</ele><time>2026-04-19T16:21:47.996Z</time></trkpt><trkpt lat="41.6893598" lon="15.3333276"><ele>87.0</ele><time>2026-04-19T16:21:48.996Z</time></trkpt><trkpt lat="41.6893583" lon="15.3335275"><ele>87.0</ele><time>2026-04-19T16:21:49.996Z</time></trkpt><trkpt lat="41.6893557" lon="15.3337256"><ele>87.66666666666667</ele><time>2026-04-19T16:21:50.996Z</time></trkpt><trkpt lat="41.6893564" lon="15.3339248"><ele>88.33333333333334</ele><time>2026-04-19T16:21:51.996Z</time></trkpt><trkpt lat="41.6893568" lon="15.3341263"><ele>89.0</ele><time>2026-04-19T16:21:52.996Z</time></trkpt><trkpt lat="41.6893561" lon="15.3343288"><ele>89.0</ele><time>2026-04-19T16:21:53.996Z</time></trkpt><trkpt lat="41.6893528" lon="15.3345325"><ele>89.0</ele><time>2026-04-19T16:21:54.996Z</time></trkpt><trkpt lat="41.6893483" lon="15.3347384"><ele>89.0</ele><time>2026-04-19T16:21:55.996Z</time></trkpt><trkpt lat="41.6893444" lon="15.3349474"><ele>89.0</ele><time>2026-04-19T16:21:56.997Z</time></trkpt><trkpt lat="41.6893436" lon="15.3351564"><ele>89.0</ele><time>2026-04-19T16:21:57.997Z</time></trkpt><trkpt lat="41.6893426" lon="15.3353664"><ele>89.0</ele><time>2026-04-19T16:21:58.996Z</time></trkpt><trkpt lat="41.689342" lon="15.3355765"><ele>89.0</ele><time>2026-04-19T16:21:59.996Z</time></trkpt><trkpt lat="41.6893399" lon="15.3357894"><ele>89.0</ele><time>2026-04-19T16:22:00.996Z</time></trkpt><trkpt lat="41.6893381" lon="15.3360042"><ele>89.0</ele><time>2026-04-19T16:22:01.996Z</time></trkpt><trkpt lat="41.6893353" lon="15.3362186"><ele>89.0</ele><time>2026-04-19T16:22:02.996Z</time></trkpt><trkpt lat="41.6893341" lon="15.3364332"><ele>89.0</ele><time>2026-04-19T16:22:03.997Z</time></trkpt><trkpt lat="41.6893327" lon="15.3366459"><ele>89.0</ele><time>2026-04-19T16:22:04.996Z</time></trkpt><trkpt lat="41.6893311" lon="15.3368565"><ele>89.0</ele><time>2026-04-19T16:22:05.996Z</time></trkpt><trkpt lat="41.6893286" lon="15.3370651"><ele>89.0</ele><time>2026-04-19T16:22:06.996Z</time></trkpt><trkpt lat="41.6893265" lon="15.3372731"><ele>89.0</ele><time>2026-04-19T16:22:07.996Z</time></trkpt><trkpt lat="41.6893246" lon="15.3374815"><ele>89.33333333333334</ele><time>2026-04-19T16:22:08.996Z</time></trkpt><trkpt lat="41.6893219" lon="15.3376898"><ele>89.66666666666667</ele><time>2026-04-19T16:22:09.996Z</time></trkpt><trkpt lat="41.6893189" lon="15.337899"><ele>90.0</ele><time>2026-04-19T16:22:10.996Z</time></trkpt><trkpt lat="41.6893156" lon="15.3381086"><ele>90.66666666666667</ele><time>2026-04-19T16:22:11.996Z</time></trkpt><trkpt lat="41.6893122" lon="15.3383186"><ele>91.33333333333334</ele><time>2026-04-19T16:22:12.996Z</time></trkpt><trkpt lat="41.6893101" lon="15.3385288"><ele>92.0</ele><time>2026-04-19T16:22:13.996Z</time></trkpt><trkpt lat="41.6893109" lon="15.3387406"><ele>92.33333333333334</ele><time>2026-04-19T16:22:14.996Z</time></trkpt><trkpt lat="41.6893123" lon="15.3389547"><ele>92.66666666666667</ele><time>2026-04-19T16:22:15.996Z</time></trkpt><trkpt lat="41.6893119" lon="15.3391687"><ele>93.0</ele><time>2026-04-19T16:22:16.997Z</time></trkpt><trkpt lat="41.6893108" lon="15.3393848"><ele>93.0</ele><time>2026-04-19T16:22:17.996Z</time></trkpt><trkpt lat="41.6893094" lon="15.3396015"><ele>93.0</ele><time>2026-04-19T16:22:18.997Z</time></trkpt><trkpt lat="41.6893077" lon="15.3398183"><ele>93.0</ele><time>2026-04-19T16:22:19.996Z</time></trkpt><trkpt lat="41.6893075" lon="15.3400351"><ele>93.0</ele><time>2026-04-19T16:22:20.996Z</time></trkpt><trkpt lat="41.6893089" lon="15.3402542"><ele>93.0</ele><time>2026-04-19T16:22:21.996Z</time></trkpt><trkpt lat="41.6893095" lon="15.3404768"><ele>93.0</ele><time>2026-04-19T16:22:22.997Z</time></trkpt><trkpt lat="41.689308" lon="15.3407008"><ele>93.66666666666667</ele><time>2026-04-19T16:22:23.997Z</time></trkpt><trkpt lat="41.6893061" lon="15.3409261"><ele>94.33333333333334</ele><time>2026-04-19T16:22:24.996Z</time></trkpt><trkpt lat="41.6893036" lon="15.3411526"><ele>95.0</ele><time>2026-04-19T16:22:25.997Z</time></trkpt><trkpt lat="41.6893012" lon="15.3413781"><ele>94.66666666666667</ele><time>2026-04-19T16:22:26.996Z</time></trkpt><trkpt lat="41.6892975" lon="15.3416027"><ele>94.33333333333333</ele><time>2026-04-19T16:22:27.997Z</time></trkpt><trkpt lat="41.6892948" lon="15.3418252"><ele>94.0</ele><time>2026-04-19T16:22:28.996Z</time></trkpt><trkpt lat="41.6892938" lon="15.3420427"><ele>94.0</ele><time>2026-04-19T16:22:29.996Z</time></trkpt><trkpt lat="41.6892935" lon="15.3422499"><ele>94.0</ele><time>2026-04-19T16:22:30.997Z</time></trkpt><trkpt lat="41.6892921" lon="15.3424446"><ele>94.0</ele><time>2026-04-19T16:22:31.996Z</time></trkpt><trkpt lat="41.6892869" lon="15.3426255"><ele>94.0</ele><time>2026-04-19T16:22:32.996Z</time></trkpt><trkpt lat="41.68928" lon="15.3427929"><ele>94.0</ele><time>2026-04-19T16:22:33.996Z</time></trkpt><trkpt lat="41.6892724" lon="15.3429466"><ele>94.0</ele><time>2026-04-19T16:22:34.996Z</time></trkpt><trkpt lat="41.6892628" lon="15.3430841"><ele>94.0</ele><time>2026-04-19T16:22:35.996Z</time></trkpt><trkpt lat="41.6892503" lon="15.3432068"><ele>94.0</ele><time>2026-04-19T16:22:36.996Z</time></trkpt><trkpt lat="41.6892304" lon="15.343314"><ele>94.0</ele><time>2026-04-19T16:22:37.997Z</time></trkpt><trkpt lat="41.6892001" lon="15.3434037"><ele>94.0</ele><time>2026-04-19T16:22:38.996Z</time></trkpt><trkpt lat="41.6891531" lon="15.3434716"><ele>94.0</ele><time>2026-04-19T16:22:39.997Z</time></trkpt><trkpt lat="41.689091" lon="15.3435302"><ele>94.0</ele><time>2026-04-19T16:22:40.996Z</time></trkpt><trkpt lat="41.6890172" lon="15.3435913"><ele>94.0</ele><time>2026-04-19T16:22:41.996Z</time></trkpt><trkpt lat="41.6889368" lon="15.3436564"><ele>94.0</ele><time>2026-04-19T16:22:42.996Z</time></trkpt><trkpt lat="41.6888512" lon="15.3437197"><ele>94.0</ele><time>2026-04-19T16:22:43.996Z</time></trkpt><trkpt lat="41.6887591" lon="15.3437851"><ele>94.0</ele><time>2026-04-19T16:22:44.996Z</time></trkpt><trkpt lat="41.6886618" lon="15.3438482"><ele>94.0</ele><time>2026-04-19T16:22:45.997Z</time></trkpt><trkpt lat="41.68856" lon="15.3439084"><ele>94.0</ele><time>2026-04-19T16:22:46.996Z</time></trkpt><trkpt lat="41.6884537" lon="15.3439634"><ele>94.0</ele><time>2026-04-19T16:22:47.996Z</time></trkpt><trkpt lat="41.6883465" lon="15.3440225"><ele>94.0</ele><time>2026-04-19T16:22:48.996Z</time></trkpt><trkpt lat="41.6882351" lon="15.3440781"><ele>93.75</ele><time>2026-04-19T16:22:49.996Z</time></trkpt><trkpt lat="41.68812" lon="15.3441283"><ele>93.5</ele><time>2026-04-19T16:22:50.996Z</time></trkpt><trkpt lat="41.6880117" lon="15.3441883"><ele>93.25</ele><time>2026-04-19T16:22:51.996Z</time></trkpt><trkpt lat="41.687905" lon="15.3442333"><ele>93.0</ele><time>2026-04-19T16:22:52.996Z</time></trkpt><trkpt lat="41.6878067" lon="15.3442833"><ele>93.2</ele><time>2026-04-19T16:22:53.996Z</time></trkpt><trkpt lat="41.6877083" lon="15.3443183"><ele>93.4</ele><time>2026-04-19T16:22:54.996Z</time></trkpt><trkpt lat="41.6876183" lon="15.3443633"><ele>93.60000000000001</ele><time>2026-04-19T16:22:55.996Z</time></trkpt><trkpt lat="41.6875317" lon="15.3444"><ele>93.80000000000001</ele><time>2026-04-19T16:22:56.997Z</time></trkpt><trkpt lat="41.6874517" lon="15.3444433"><ele>94.0</ele><time>2026-04-19T16:22:57.996Z</time></trkpt><trkpt lat="41.68737" lon="15.344475"><ele>94.0</ele><time>2026-04-19T16:22:58.996Z</time></trkpt><trkpt lat="41.6872983" lon="15.344525"><ele>94.0</ele><time>2026-04-19T16:22:59.996Z</time></trkpt><trkpt lat="41.6872283" lon="15.3445833"><ele>94.0</ele><time>2026-04-19T16:23:00.996Z</time></trkpt><trkpt lat="41.68716" lon="15.34465"><ele>94.0</ele><time>2026-04-19T16:23:01.996Z</time></trkpt><trkpt lat="41.687095" lon="15.3447167"><ele>94.0</ele><time>2026-04-19T16:23:02.996Z</time></trkpt><trkpt lat="41.6870317" lon="15.34479"><ele>94.0</ele><time>2026-04-19T16:23:03.996Z</time></trkpt><trkpt lat="41.6869717" lon="15.3448617"><ele>94.16666666666666</ele><time>2026-04-19T16:23:04.996Z</time></trkpt><trkpt lat="41.6869167" lon="15.3449417"><ele>94.33333333333333</ele><time>2026-04-19T16:23:05.996Z</time></trkpt><trkpt lat="41.686865" lon="15.345015"><ele>94.5</ele><time>2026-04-19T16:23:06.996Z</time></trkpt><trkpt lat="41.6867717" lon="15.345095"><ele>94.66666666666667</ele><time>2026-04-19T16:23:08.996Z</time></trkpt><trkpt lat="41.68671" lon="15.34514"><ele>94.83333333333334</ele><time>2026-04-19T16:23:10.997Z</time></trkpt><trkpt lat="41.6866383" lon="15.34519"><ele>95.0</ele><time>2026-04-19T16:23:12.996Z</time></trkpt><trkpt lat="41.6865517" lon="15.3452067"><ele>95.0</ele><time>2026-04-19T16:23:14.997Z</time></trkpt><trkpt lat="41.6864417" lon="15.34524"><ele>95.0</ele><time>2026-04-19T16:23:16.996Z</time></trkpt><trkpt lat="41.6863733" lon="15.3452667"><ele>95.0</ele><time>2026-04-19T16:23:17.997Z</time></trkpt><trkpt lat="41.6863017" lon="15.3453033"><ele>95.0</ele><time>2026-04-19T16:23:18.996Z</time></trkpt><trkpt lat="41.6862233" lon="15.34533"><ele>95.0</ele><time>2026-04-19T16:23:19.996Z</time></trkpt><trkpt lat="41.6861367" lon="15.3453483"><ele>95.0</ele><time>2026-04-19T16:23:20.996Z</time></trkpt><trkpt lat="41.686045" lon="15.34537"><ele>95.6</ele><time>2026-04-19T16:23:21.996Z</time></trkpt><trkpt lat="41.6859483" lon="15.3453933"><ele>96.2</ele><time>2026-04-19T16:23:22.996Z</time></trkpt><trkpt lat="41.685845" lon="15.3454133"><ele>96.80000000000001</ele><time>2026-04-19T16:23:23.996Z</time></trkpt><trkpt lat="41.68574" lon="15.3454217"><ele>97.4</ele><time>2026-04-19T16:23:24.996Z</time></trkpt><trkpt lat="41.6856317" lon="15.3454383"><ele>98.0</ele><time>2026-04-19T16:23:25.996Z</time></trkpt><trkpt lat="41.68552" lon="15.3454517"><ele>98.0</ele><time>2026-04-19T16:23:26.996Z</time></trkpt><trkpt lat="41.6854067" lon="15.3454783"><ele>98.0</ele><time>2026-04-19T16:23:27.996Z</time></trkpt><trkpt lat="41.6852867" lon="15.3454967"><ele>98.0</ele><time>2026-04-19T16:23:28.996Z</time></trkpt><trkpt lat="41.6851633" lon="15.3455183"><ele>98.0</ele><time>2026-04-19T16:23:29.996Z</time></trkpt><trkpt lat="41.6850317" lon="15.345545"><ele>98.25</ele><time>2026-04-19T16:23:30.996Z</time></trkpt><trkpt lat="41.684895" lon="15.3455667"><ele>98.5</ele><time>2026-04-19T16:23:31.996Z</time></trkpt><trkpt lat="41.684755" lon="15.3455917"><ele>98.75</ele><time>2026-04-19T16:23:32.996Z</time></trkpt><trkpt lat="41.6846133" lon="15.3456167"><ele>99.0</ele><time>2026-04-19T16:23:33.996Z</time></trkpt><trkpt lat="41.68447" lon="15.3456417"><ele>99.75</ele><time>2026-04-19T16:23:34.996Z</time></trkpt><trkpt lat="41.684325" lon="15.3456717"><ele>100.5</ele><time>2026-04-19T16:23:35.996Z</time></trkpt><trkpt lat="41.6841767" lon="15.3457017"><ele>101.25</ele><time>2026-04-19T16:23:36.996Z</time></trkpt><trkpt lat="41.6840283" lon="15.3457267"><ele>102.0</ele><time>2026-04-19T16:23:37.997Z</time></trkpt><trkpt lat="41.68388" lon="15.3457533"><ele>102.0</ele><time>2026-04-19T16:23:38.996Z</time></trkpt><trkpt lat="41.68373" lon="15.34578"><ele>102.0</ele><time>2026-04-19T16:23:39.996Z</time></trkpt><trkpt lat="41.6835783" lon="15.34581"><ele>102.0</ele><time>2026-04-19T16:23:40.997Z</time></trkpt><trkpt lat="41.6834267" lon="15.3458433"><ele>102.33333333333334</ele><time>2026-04-19T16:23:41.996Z</time></trkpt><trkpt lat="41.6832733" lon="15.3458683"><ele>102.66666666666667</ele><time>2026-04-19T16:23:42.996Z</time></trkpt><trkpt lat="41.68312" lon="15.34589"><ele>103.0</ele><time>2026-04-19T16:23:43.996Z</time></trkpt><trkpt lat="41.682965" lon="15.3459183"><ele>103.0</ele><time>2026-04-19T16:23:44.996Z</time></trkpt><trkpt lat="41.6828067" lon="15.34595"><ele>103.0</ele><time>2026-04-19T16:23:45.996Z</time></trkpt><trkpt lat="41.68265" lon="15.345975"><ele>103.0</ele><time>2026-04-19T16:23:46.997Z</time></trkpt><trkpt lat="41.6824917" lon="15.3460017"><ele>103.0</ele><time>2026-04-19T16:23:47.996Z</time></trkpt><trkpt lat="41.6823317" lon="15.3460283"><ele>103.0</ele><time>2026-04-19T16:23:48.996Z</time></trkpt><trkpt lat="41.68217" lon="15.3460517"><ele>103.0</ele><time>2026-04-19T16:23:49.996Z</time></trkpt><trkpt lat="41.6820083" lon="15.3460783"><ele>103.0</ele><time>2026-04-19T16:23:50.996Z</time></trkpt><trkpt lat="41.6818433" lon="15.3461067"><ele>103.0</ele><time>2026-04-19T16:23:51.996Z</time></trkpt><trkpt lat="41.68168" lon="15.3461433"><ele>103.0</ele><time>2026-04-19T16:23:52.996Z</time></trkpt><trkpt lat="41.6815133" lon="15.34617"><ele>103.0</ele><time>2026-04-19T16:23:53.996Z</time></trkpt><trkpt lat="41.6813483" lon="15.3461967"><ele>103.0</ele><time>2026-04-19T16:23:54.997Z</time></trkpt><trkpt lat="41.68118" lon="15.3462233"><ele>103.0</ele><time>2026-04-19T16:23:55.996Z</time></trkpt><trkpt lat="41.68101" lon="15.34625"><ele>102.33333333333334</ele><time>2026-04-19T16:23:56.996Z</time></trkpt><trkpt lat="41.68084" lon="15.346275"><ele>101.66666666666666</ele><time>2026-04-19T16:23:57.996Z</time></trkpt><trkpt lat="41.6806733" lon="15.3463017"><ele>101.0</ele><time>2026-04-19T16:23:58.996Z</time></trkpt><trkpt lat="41.680505" lon="15.3463283"><ele>101.0</ele><time>2026-04-19T16:23:59.996Z</time></trkpt><trkpt lat="41.6803367" lon="15.3463533"><ele>101.0</ele><time>2026-04-19T16:24:00.996Z</time></trkpt><trkpt lat="41.680165" lon="15.3463783"><ele>101.0</ele><time>2026-04-19T16:24:01.996Z</time></trkpt><trkpt lat="41.6799983" lon="15.346405"><ele>100.0</ele><time>2026-04-19T16:24:02.996Z</time></trkpt><trkpt lat="41.6798367" lon="15.3464283"><ele>99.0</ele><time>2026-04-19T16:24:03.996Z</time></trkpt><trkpt lat="41.6796717" lon="15.3464467"><ele>98.0</ele><time>2026-04-19T16:24:04.996Z</time></trkpt><trkpt lat="41.6795067" lon="15.3464683"><ele>97.0</ele><time>2026-04-19T16:24:05.996Z</time></trkpt><trkpt lat="41.6793417" lon="15.3464967"><ele>96.0</ele><time>2026-04-19T16:24:06.996Z</time></trkpt><trkpt lat="41.67918" lon="15.346525"><ele>95.0</ele><time>2026-04-19T16:24:07.997Z</time></trkpt><trkpt lat="41.6790167" lon="15.3465517"><ele>95.0</ele><time>2026-04-19T16:24:08.996Z</time></trkpt><trkpt lat="41.67885" lon="15.3465783"><ele>95.0</ele><time>2026-04-19T16:24:09.996Z</time></trkpt><trkpt lat="41.678685" lon="15.3466017"><ele>95.0</ele><time>2026-04-19T16:24:10.997Z</time></trkpt><trkpt lat="41.678515" lon="15.3466217"><ele>94.33333333333334</ele><time>2026-04-19T16:24:11.996Z</time></trkpt><trkpt lat="41.6783467" lon="15.346645"><ele>93.66666666666667</ele><time>2026-04-19T16:24:12.996Z</time></trkpt><trkpt lat="41.67818" lon="15.3466717"><ele>93.0</ele><time>2026-04-19T16:24:13.996Z</time></trkpt><trkpt lat="41.678015" lon="15.346695"><ele>93.0</ele><time>2026-04-19T16:24:14.996Z</time></trkpt><trkpt lat="41.6778533" lon="15.3467217"><ele>93.0</ele><time>2026-04-19T16:24:15.996Z</time></trkpt><trkpt lat="41.6776917" lon="15.3467433"><ele>93.0</ele><time>2026-04-19T16:24:16.996Z</time></trkpt><trkpt lat="41.6775317" lon="15.3467617"><ele>92.33333333333333</ele><time>2026-04-19T16:24:17.996Z</time></trkpt><trkpt lat="41.677375" lon="15.3467833"><ele>91.66666666666666</ele><time>2026-04-19T16:24:18.996Z</time></trkpt><trkpt lat="41.67722" lon="15.3468067"><ele>91.0</ele><time>2026-04-19T16:24:19.996Z</time></trkpt><trkpt lat="41.6770633" lon="15.34683"><ele>91.33333333333333</ele><time>2026-04-19T16:24:20.996Z</time></trkpt><trkpt lat="41.676905" lon="15.3468517"><ele>91.66666666666667</ele><time>2026-04-19T16:24:21.997Z</time></trkpt><trkpt lat="41.6767483" lon="15.346875"><ele>92.0</ele><time>2026-04-19T16:24:22.996Z</time></trkpt><trkpt lat="41.6765883" lon="15.3469"><ele>92.0</ele><time>2026-04-19T16:24:23.996Z</time></trkpt><trkpt lat="41.6764283" lon="15.3469267"><ele>92.0</ele><time>2026-04-19T16:24:24.996Z</time></trkpt><trkpt lat="41.676265" lon="15.34696"><ele>92.0</ele><time>2026-04-19T16:24:25.996Z</time></trkpt><trkpt lat="41.6761033" lon="15.3469983"><ele>92.66666666666667</ele><time>2026-04-19T16:24:26.996Z</time></trkpt><trkpt lat="41.6759383" lon="15.34704"><ele>93.33333333333333</ele><time>2026-04-19T16:24:27.997Z</time></trkpt><trkpt lat="41.67577" lon="15.3470867"><ele>94.0</ele><time>2026-04-19T16:24:28.996Z</time></trkpt><trkpt lat="41.6756" lon="15.3471367"><ele>94.0</ele><time>2026-04-19T16:24:29.996Z</time></trkpt><trkpt lat="41.67543" lon="15.3471917"><ele>94.0</ele><time>2026-04-19T16:24:30.996Z</time></trkpt><trkpt lat="41.6752583" lon="15.3472533"><ele>94.0</ele><time>2026-04-19T16:24:31.996Z</time></trkpt><trkpt lat="41.6750883" lon="15.3473183"><ele>92.33333333333333</ele><time>2026-04-19T16:24:32.996Z</time></trkpt><trkpt lat="41.6749217" lon="15.3473867"><ele>90.66666666666667</ele><time>2026-04-19T16:24:33.996Z</time></trkpt><trkpt lat="41.6747533" lon="15.34746"><ele>89.0</ele><time>2026-04-19T16:24:34.996Z</time></trkpt><trkpt lat="41.674585" lon="15.3475367"><ele>89.33333333333334</ele><time>2026-04-19T16:24:35.996Z</time></trkpt><trkpt lat="41.6744133" lon="15.3476183"><ele>89.66666666666667</ele><time>2026-04-19T16:24:36.996Z</time></trkpt><trkpt lat="41.6742417" lon="15.3477"><ele>90.0</ele><time>2026-04-19T16:24:37.997Z</time></trkpt><trkpt lat="41.674075" lon="15.3477933"><ele>90.0</ele><time>2026-04-19T16:24:38.996Z</time></trkpt><trkpt lat="41.67391" lon="15.3478967"><ele>90.0</ele><time>2026-04-19T16:24:39.996Z</time></trkpt><trkpt lat="41.6737483" lon="15.3480017"><ele>90.0</ele><time>2026-04-19T16:24:40.996Z</time></trkpt><trkpt lat="41.6735917" lon="15.3481083"><ele>89.33333333333333</ele><time>2026-04-19T16:24:41.996Z</time></trkpt><trkpt lat="41.673435" lon="15.3482217"><ele>88.66666666666666</ele><time>2026-04-19T16:24:42.996Z</time></trkpt><trkpt lat="41.67328" lon="15.3483383"><ele>88.0</ele><time>2026-04-19T16:24:43.996Z</time></trkpt><trkpt lat="41.6731267" lon="15.348455"><ele>88.0</ele><time>2026-04-19T16:24:44.996Z</time></trkpt><trkpt lat="41.6729783" lon="15.348575"><ele>88.0</ele><time>2026-04-19T16:24:45.997Z</time></trkpt><trkpt lat="41.672835" lon="15.3486983"><ele>88.0</ele><time>2026-04-19T16:24:46.997Z</time></trkpt><trkpt lat="41.6726967" lon="15.34882"><ele>88.0</ele><time>2026-04-19T16:24:47.996Z</time></trkpt><trkpt lat="41.6725617" lon="15.3489417"><ele>88.0</ele><time>2026-04-19T16:24:48.996Z</time></trkpt><trkpt lat="41.67243" lon="15.3490633"><ele>88.0</ele><time>2026-04-19T16:24:49.997Z</time></trkpt><trkpt lat="41.6723017" lon="15.34919"><ele>88.0</ele><time>2026-04-19T16:24:50.997Z</time></trkpt><trkpt lat="41.6721733" lon="15.3493233"><ele>88.0</ele><time>2026-04-19T16:24:51.996Z</time></trkpt><trkpt lat="41.6720467" lon="15.3494583"><ele>88.0</ele><time>2026-04-19T16:24:52.996Z</time></trkpt><trkpt lat="41.6719233" lon="15.3495967"><ele>87.0</ele><time>2026-04-19T16:24:53.996Z</time></trkpt><trkpt lat="41.6718017" lon="15.3497383"><ele>86.0</ele><time>2026-04-19T16:24:54.997Z</time></trkpt><trkpt lat="41.67168" lon="15.349885"><ele>85.0</ele><time>2026-04-19T16:24:55.997Z</time></trkpt><trkpt lat="41.6715617" lon="15.350035"><ele>85.0</ele><time>2026-04-19T16:24:56.996Z</time></trkpt><trkpt lat="41.6714433" lon="15.3501883"><ele>85.0</ele><time>2026-04-19T16:24:57.997Z</time></trkpt><trkpt lat="41.6713283" lon="15.350345"><ele>85.0</ele><time>2026-04-19T16:24:58.996Z</time></trkpt><trkpt lat="41.6712167" lon="15.3505033"><ele>85.33333333333333</ele><time>2026-04-19T16:24:59.996Z</time></trkpt><trkpt lat="41.6711117" lon="15.3506617"><ele>85.66666666666667</ele><time>2026-04-19T16:25:00.996Z</time></trkpt><trkpt lat="41.671015" lon="15.3508117"><ele>86.0</ele><time>2026-04-19T16:25:01.996Z</time></trkpt><trkpt lat="41.6709183" lon="15.3509617"><ele>86.0</ele><time>2026-04-19T16:25:02.996Z</time></trkpt><trkpt lat="41.6708217" lon="15.3511133"><ele>86.0</ele><time>2026-04-19T16:25:03.997Z</time></trkpt><trkpt lat="41.670725" lon="15.35126"><ele>86.0</ele><time>2026-04-19T16:25:04.996Z</time></trkpt><trkpt lat="41.670635" lon="15.3514033"><ele>86.0</ele><time>2026-04-19T16:25:05.997Z</time></trkpt><trkpt lat="41.6705483" lon="15.3515383"><ele>85.75</ele><time>2026-04-19T16:25:06.996Z</time></trkpt><trkpt lat="41.6704633" lon="15.3516667"><ele>85.5</ele><time>2026-04-19T16:25:07.996Z</time></trkpt><trkpt lat="41.6703767" lon="15.35179"><ele>85.25</ele><time>2026-04-19T16:25:08.996Z</time></trkpt><trkpt lat="41.6702883" lon="15.3519067"><ele>85.0</ele><time>2026-04-19T16:25:09.996Z</time></trkpt><trkpt lat="41.6702017" lon="15.35202"><ele>85.0</ele><time>2026-04-19T16:25:10.997Z</time></trkpt><trkpt lat="41.67012" lon="15.3521367"><ele>85.0</ele><time>2026-04-19T16:25:11.996Z</time></trkpt><trkpt lat="41.6700433" lon="15.3522617"><ele>85.0</ele><time>2026-04-19T16:25:12.996Z</time></trkpt><trkpt lat="41.66997" lon="15.3523933"><ele>85.0</ele><time>2026-04-19T16:25:13.997Z</time></trkpt><trkpt lat="41.669905" lon="15.352535"><ele>84.5</ele><time>2026-04-19T16:25:14.998Z</time></trkpt><trkpt lat="41.6698467" lon="15.3526883"><ele>84.0</ele><time>2026-04-19T16:25:15.997Z</time></trkpt><trkpt lat="41.6697967" lon="15.3528517"><ele>83.5</ele><time>2026-04-19T16:25:16.997Z</time></trkpt><trkpt lat="41.6697483" lon="15.35302"><ele>83.0</ele><time>2026-04-19T16:25:17.997Z</time></trkpt><trkpt lat="41.6696933" lon="15.35319"><ele>83.0</ele><time>2026-04-19T16:25:18.997Z</time></trkpt><trkpt lat="41.669635" lon="15.3533667"><ele>83.0</ele><time>2026-04-19T16:25:19.997Z</time></trkpt><trkpt lat="41.6695733" lon="15.35355"><ele>83.0</ele><time>2026-04-19T16:25:20.997Z</time></trkpt><trkpt lat="41.669505" lon="15.353735"><ele>83.0</ele><time>2026-04-19T16:25:21.998Z</time></trkpt><trkpt lat="41.6694267" lon="15.3539167"><ele>83.0</ele><time>2026-04-19T16:25:22.997Z</time></trkpt><trkpt lat="41.669345" lon="15.3541"><ele>83.0</ele><time>2026-04-19T16:25:23.997Z</time></trkpt><trkpt lat="41.6692633" lon="15.3542867"><ele>83.0</ele><time>2026-04-19T16:25:24.997Z</time></trkpt><trkpt lat="41.6691783" lon="15.354475"><ele>83.0</ele><time>2026-04-19T16:25:25.997Z</time></trkpt><trkpt lat="41.6690933" lon="15.3546667"><ele>83.0</ele><time>2026-04-19T16:25:26.997Z</time></trkpt><trkpt lat="41.6690083" lon="15.3548617"><ele>83.0</ele><time>2026-04-19T16:25:27.997Z</time></trkpt><trkpt lat="41.6689217" lon="15.3550583"><ele>82.66666666666667</ele><time>2026-04-19T16:25:28.997Z</time></trkpt><trkpt lat="41.6688333" lon="15.35526"><ele>82.33333333333333</ele><time>2026-04-19T16:25:29.998Z</time></trkpt><trkpt lat="41.6687433" lon="15.3554633"><ele>82.0</ele><time>2026-04-19T16:25:30.997Z</time></trkpt><trkpt lat="41.6686533" lon="15.35567"><ele>82.33333333333333</ele><time>2026-04-19T16:25:31.998Z</time></trkpt><trkpt lat="41.6685617" lon="15.3558783"><ele>82.66666666666667</ele><time>2026-04-19T16:25:32.997Z</time></trkpt><trkpt lat="41.6684683" lon="15.3560867"><ele>83.0</ele><time>2026-04-19T16:25:33.997Z</time></trkpt><trkpt lat="41.668375" lon="15.3562967"><ele>82.66666666666667</ele><time>2026-04-19T16:25:34.997Z</time></trkpt><trkpt lat="41.66828" lon="15.3565067"><ele>82.33333333333333</ele><time>2026-04-19T16:25:35.997Z</time></trkpt><trkpt lat="41.6681867" lon="15.3567133"><ele>82.0</ele><time>2026-04-19T16:25:36.997Z</time></trkpt><trkpt lat="41.6680933" lon="15.3569167"><ele>82.0</ele><time>2026-04-19T16:25:37.997Z</time></trkpt><trkpt lat="41.6680033" lon="15.3571183"><ele>82.0</ele><time>2026-04-19T16:25:38.997Z</time></trkpt><trkpt lat="41.6679133" lon="15.3573217"><ele>82.0</ele><time>2026-04-19T16:25:39.997Z</time></trkpt><trkpt lat="41.6678217" lon="15.357525"><ele>82.66666666666666</ele><time>2026-04-19T16:25:40.998Z</time></trkpt><trkpt lat="41.6677283" lon="15.35773"><ele>83.33333333333333</ele><time>2026-04-19T16:25:41.997Z</time></trkpt><trkpt lat="41.6676383" lon="15.3579367"><ele>84.0</ele><time>2026-04-19T16:25:42.997Z</time></trkpt><trkpt lat="41.6675467" lon="15.3581433"><ele>84.0</ele><time>2026-04-19T16:25:43.997Z</time></trkpt><trkpt lat="41.6674567" lon="15.35835"><ele>84.0</ele><time>2026-04-19T16:25:44.997Z</time></trkpt><trkpt lat="41.667365" lon="15.358555"><ele>84.0</ele><time>2026-04-19T16:25:45.997Z</time></trkpt><trkpt lat="41.6672733" lon="15.3587617"><ele>84.0</ele><time>2026-04-19T16:25:46.997Z</time></trkpt><trkpt lat="41.6671833" lon="15.3589667"><ele>84.0</ele><time>2026-04-19T16:25:47.997Z</time></trkpt><trkpt lat="41.6670917" lon="15.3591733"><ele>84.0</ele><time>2026-04-19T16:25:48.997Z</time></trkpt><trkpt lat="41.667" lon="15.3593783"><ele>84.66666666666667</ele><time>2026-04-19T16:25:49.997Z</time></trkpt><trkpt lat="41.66691" lon="15.3595817"><ele>85.33333333333334</ele><time>2026-04-19T16:25:50.997Z</time></trkpt><trkpt lat="41.6668183" lon="15.359785"><ele>86.0</ele><time>2026-04-19T16:25:51.998Z</time></trkpt><trkpt lat="41.6667283" lon="15.3599883"><ele>86.0</ele><time>2026-04-19T16:25:52.997Z</time></trkpt><trkpt lat="41.66664" lon="15.3601917"><ele>86.0</ele><time>2026-04-19T16:25:53.997Z</time></trkpt><trkpt lat="41.66655" lon="15.3603967"><ele>86.0</ele><time>2026-04-19T16:25:54.997Z</time></trkpt><trkpt lat="41.66646" lon="15.3605983"><ele>86.33333333333334</ele><time>2026-04-19T16:25:55.998Z</time></trkpt><trkpt lat="41.66637" lon="15.3608017"><ele>86.66666666666667</ele><time>2026-04-19T16:25:56.997Z</time></trkpt><trkpt lat="41.6662783" lon="15.3610083"><ele>87.0</ele><time>2026-04-19T16:25:57.997Z</time></trkpt><trkpt lat="41.6661867" lon="15.3612117"><ele>86.33333333333333</ele><time>2026-04-19T16:25:58.997Z</time></trkpt><trkpt lat="41.666095" lon="15.3614167"><ele>85.66666666666666</ele><time>2026-04-19T16:25:59.997Z</time></trkpt><trkpt lat="41.6660033" lon="15.3616217"><ele>85.0</ele><time>2026-04-19T16:26:00.996Z</time></trkpt><trkpt lat="41.6659117" lon="15.361825"><ele>85.0</ele><time>2026-04-19T16:26:01.996Z</time></trkpt><trkpt lat="41.66582" lon="15.3620283"><ele>85.0</ele><time>2026-04-19T16:26:02.996Z</time></trkpt><trkpt lat="41.6657283" lon="15.3622333"><ele>85.0</ele><time>2026-04-19T16:26:03.996Z</time></trkpt><trkpt lat="41.6656383" lon="15.36244"><ele>84.66666666666666</ele><time>2026-04-19T16:26:04.996Z</time></trkpt><trkpt lat="41.6655483" lon="15.362645"><ele>84.33333333333333</ele><time>2026-04-19T16:26:05.996Z</time></trkpt><trkpt lat="41.66546" lon="15.3628517"><ele>84.0</ele><time>2026-04-19T16:26:06.996Z</time></trkpt><trkpt lat="41.6653683" lon="15.363055"><ele>83.66666666666667</ele><time>2026-04-19T16:26:07.996Z</time></trkpt><trkpt lat="41.66528" lon="15.36326"><ele>83.33333333333334</ele><time>2026-04-19T16:26:08.996Z</time></trkpt><trkpt lat="41.66519" lon="15.363465"><ele>83.0</ele><time>2026-04-19T16:26:09.996Z</time></trkpt><trkpt lat="41.6651" lon="15.3636667"><ele>82.66666666666667</ele><time>2026-04-19T16:26:10.996Z</time></trkpt><trkpt lat="41.6650117" lon="15.36387"><ele>82.33333333333333</ele><time>2026-04-19T16:26:11.996Z</time></trkpt><trkpt lat="41.664925" lon="15.3640717"><ele>82.0</ele><time>2026-04-19T16:26:12.996Z</time></trkpt><trkpt lat="41.664835" lon="15.3642683"><ele>82.0</ele><time>2026-04-19T16:26:13.996Z</time></trkpt><trkpt lat="41.6647467" lon="15.364465"><ele>82.0</ele><time>2026-04-19T16:26:14.996Z</time></trkpt><trkpt lat="41.6646567" lon="15.3646617"><ele>82.0</ele><time>2026-04-19T16:26:15.997Z</time></trkpt><trkpt lat="41.6645683" lon="15.3648567"><ele>82.33333333333333</ele><time>2026-04-19T16:26:16.996Z</time></trkpt><trkpt lat="41.66448" lon="15.3650517"><ele>82.66666666666667</ele><time>2026-04-19T16:26:17.996Z</time></trkpt><trkpt lat="41.6643933" lon="15.3652483"><ele>83.0</ele><time>2026-04-19T16:26:18.996Z</time></trkpt><trkpt lat="41.6643067" lon="15.365445"><ele>82.66666666666667</ele><time>2026-04-19T16:26:19.997Z</time></trkpt><trkpt lat="41.66422" lon="15.36564"><ele>82.33333333333333</ele><time>2026-04-19T16:26:20.996Z</time></trkpt><trkpt lat="41.6641333" lon="15.3658333"><ele>82.0</ele><time>2026-04-19T16:26:21.996Z</time></trkpt><trkpt lat="41.6640483" lon="15.3660267"><ele>82.0</ele><time>2026-04-19T16:26:22.996Z</time></trkpt><trkpt lat="41.6639617" lon="15.3662167"><ele>82.0</ele><time>2026-04-19T16:26:23.997Z</time></trkpt><trkpt lat="41.663875" lon="15.3664067"><ele>82.0</ele><time>2026-04-19T16:26:24.997Z</time></trkpt><trkpt lat="41.6637883" lon="15.366595"><ele>82.33333333333333</ele><time>2026-04-19T16:26:25.997Z</time></trkpt><trkpt lat="41.663705" lon="15.3667867"><ele>82.66666666666667</ele><time>2026-04-19T16:26:26.997Z</time></trkpt><trkpt lat="41.6636217" lon="15.3669767"><ele>83.0</ele><time>2026-04-19T16:26:27.996Z</time></trkpt><trkpt lat="41.6635367" lon="15.367165"><ele>82.0</ele><time>2026-04-19T16:26:28.996Z</time></trkpt><trkpt lat="41.6634517" lon="15.3673533"><ele>81.0</ele><time>2026-04-19T16:26:29.996Z</time></trkpt><trkpt lat="41.6633683" lon="15.3675433"><ele>80.0</ele><time>2026-04-19T16:26:30.996Z</time></trkpt><trkpt lat="41.6632833" lon="15.367735"><ele>80.0</ele><time>2026-04-19T16:26:31.996Z</time></trkpt><trkpt lat="41.6631967" lon="15.3679267"><ele>80.0</ele><time>2026-04-19T16:26:32.996Z</time></trkpt><trkpt lat="41.6631083" lon="15.3681167"><ele>80.0</ele><time>2026-04-19T16:26:33.996Z</time></trkpt><trkpt lat="41.66302" lon="15.3683117"><ele>79.66666666666667</ele><time>2026-04-19T16:26:34.996Z</time></trkpt><trkpt lat="41.66293" lon="15.368505"><ele>79.33333333333333</ele><time>2026-04-19T16:26:35.996Z</time></trkpt><trkpt lat="41.6628433" lon="15.3687033"><ele>79.0</ele><time>2026-04-19T16:26:36.996Z</time></trkpt><trkpt lat="41.6627567" lon="15.3689"><ele>78.0</ele><time>2026-04-19T16:26:37.996Z</time></trkpt><trkpt lat="41.66267" lon="15.3690983"><ele>77.0</ele><time>2026-04-19T16:26:38.996Z</time></trkpt><trkpt lat="41.6625833" lon="15.3692983"><ele>76.0</ele><time>2026-04-19T16:26:39.996Z</time></trkpt><trkpt lat="41.6624983" lon="15.3694967"><ele>76.33333333333333</ele><time>2026-04-19T16:26:40.997Z</time></trkpt><trkpt lat="41.66241" lon="15.3696933"><ele>76.66666666666667</ele><time>2026-04-19T16:26:41.996Z</time></trkpt><trkpt lat="41.66232" lon="15.3698883"><ele>77.0</ele><time>2026-04-19T16:26:42.996Z</time></trkpt><trkpt lat="41.66223" lon="15.370085"><ele>77.0</ele><time>2026-04-19T16:26:43.996Z</time></trkpt><trkpt lat="41.6621417" lon="15.3702783"><ele>77.0</ele><time>2026-04-19T16:26:44.996Z</time></trkpt><trkpt lat="41.662055" lon="15.37047"><ele>77.0</ele><time>2026-04-19T16:26:45.996Z</time></trkpt><trkpt lat="41.6619717" lon="15.3706667"><ele>75.66666666666667</ele><time>2026-04-19T16:26:46.996Z</time></trkpt><trkpt lat="41.6618867" lon="15.3708617"><ele>74.33333333333333</ele><time>2026-04-19T16:26:47.996Z</time></trkpt><trkpt lat="41.6618033" lon="15.3710583"><ele>73.0</ele><time>2026-04-19T16:26:48.996Z</time></trkpt><trkpt lat="41.6617167" lon="15.3712533"><ele>73.0</ele><time>2026-04-19T16:26:49.996Z</time></trkpt><trkpt lat="41.6616267" lon="15.3714533"><ele>73.0</ele><time>2026-04-19T16:26:50.996Z</time></trkpt><trkpt lat="41.6615383" lon="15.3716533"><ele>73.0</ele><time>2026-04-19T16:26:51.996Z</time></trkpt><trkpt lat="41.66145" lon="15.3718533"><ele>73.0</ele><time>2026-04-19T16:26:52.996Z</time></trkpt><trkpt lat="41.6613617" lon="15.3720517"><ele>73.0</ele><time>2026-04-19T16:26:53.996Z</time></trkpt><trkpt lat="41.661275" lon="15.3722467"><ele>73.0</ele><time>2026-04-19T16:26:54.996Z</time></trkpt><trkpt lat="41.661185" lon="15.3724383"><ele>73.33333333333333</ele><time>2026-04-19T16:26:55.996Z</time></trkpt><trkpt lat="41.6610983" lon="15.37263"><ele>73.66666666666667</ele><time>2026-04-19T16:26:56.996Z</time></trkpt><trkpt lat="41.6610133" lon="15.3728217"><ele>74.0</ele><time>2026-04-19T16:26:57.996Z</time></trkpt><trkpt lat="41.66093" lon="15.3730117"><ele>74.0</ele><time>2026-04-19T16:26:58.997Z</time></trkpt><trkpt lat="41.6608467" lon="15.3732"><ele>74.0</ele><time>2026-04-19T16:26:59.996Z</time></trkpt><trkpt lat="41.6607617" lon="15.3733917"><ele>74.0</ele><time>2026-04-19T16:27:00.996Z</time></trkpt><trkpt lat="41.6606767" lon="15.3735817"><ele>74.0</ele><time>2026-04-19T16:27:01.996Z</time></trkpt><trkpt lat="41.6605917" lon="15.3737717"><ele>74.0</ele><time>2026-04-19T16:27:02.996Z</time></trkpt><trkpt lat="41.6605083" lon="15.3739633"><ele>74.0</ele><time>2026-04-19T16:27:03.996Z</time></trkpt><trkpt lat="41.6604233" lon="15.374155"><ele>73.66666666666667</ele><time>2026-04-19T16:27:04.996Z</time></trkpt><trkpt lat="41.66034" lon="15.3743467"><ele>73.33333333333333</ele><time>2026-04-19T16:27:05.996Z</time></trkpt><trkpt lat="41.660255" lon="15.3745383"><ele>73.0</ele><time>2026-04-19T16:27:06.996Z</time></trkpt><trkpt lat="41.6601683" lon="15.3747283"><ele>73.0</ele><time>2026-04-19T16:27:07.996Z</time></trkpt><trkpt lat="41.6600833" lon="15.37492"><ele>73.0</ele><time>2026-04-19T16:27:08.996Z</time></trkpt><trkpt lat="41.6599967" lon="15.3751133"><ele>73.0</ele><time>2026-04-19T16:27:09.996Z</time></trkpt><trkpt lat="41.65991" lon="15.375305"><ele>73.0</ele><time>2026-04-19T16:27:10.996Z</time></trkpt><trkpt lat="41.6598267" lon="15.375495"><ele>73.0</ele><time>2026-04-19T16:27:11.996Z</time></trkpt><trkpt lat="41.6597417" lon="15.3756867"><ele>73.0</ele><time>2026-04-19T16:27:12.996Z</time></trkpt><trkpt lat="41.659655" lon="15.3758783"><ele>72.33333333333333</ele><time>2026-04-19T16:27:13.996Z</time></trkpt><trkpt lat="41.6595683" lon="15.37607"><ele>71.66666666666667</ele><time>2026-04-19T16:27:14.996Z</time></trkpt><trkpt lat="41.6594817" lon="15.376265"><ele>71.0</ele><time>2026-04-19T16:27:15.996Z</time></trkpt><trkpt lat="41.659395" lon="15.37646"><ele>70.33333333333334</ele><time>2026-04-19T16:27:16.996Z</time></trkpt><trkpt lat="41.6593083" lon="15.37666"><ele>69.66666666666667</ele><time>2026-04-19T16:27:17.996Z</time></trkpt><trkpt lat="41.65922" lon="15.3768583"><ele>69.0</ele><time>2026-04-19T16:27:18.997Z</time></trkpt><trkpt lat="41.65913" lon="15.3770567"><ele>69.0</ele><time>2026-04-19T16:27:19.996Z</time></trkpt><trkpt lat="41.65904" lon="15.377255"><ele>69.0</ele><time>2026-04-19T16:27:20.996Z</time></trkpt><trkpt lat="41.65895" lon="15.377455"><ele>69.0</ele><time>2026-04-19T16:27:21.996Z</time></trkpt><trkpt lat="41.6588622" lon="15.3776538"><ele>69.0</ele><time>2026-04-19T16:27:22.996Z</time></trkpt><trkpt lat="41.6587743" lon="15.3778548"><ele>69.0</ele><time>2026-04-19T16:27:23.996Z</time></trkpt><trkpt lat="41.6586862" lon="15.3780553"><ele>69.0</ele><time>2026-04-19T16:27:24.996Z</time></trkpt><trkpt lat="41.658597" lon="15.3782538"><ele>68.66666666666667</ele><time>2026-04-19T16:27:25.996Z</time></trkpt><trkpt lat="41.6585076" lon="15.3784509"><ele>68.33333333333334</ele><time>2026-04-19T16:27:26.996Z</time></trkpt><trkpt lat="41.6584179" lon="15.3786477"><ele>68.0</ele><time>2026-04-19T16:27:27.996Z</time></trkpt><trkpt lat="41.6583289" lon="15.3788455"><ele>67.66666666666667</ele><time>2026-04-19T16:27:28.996Z</time></trkpt><trkpt lat="41.6582411" lon="15.3790437"><ele>67.33333333333333</ele><time>2026-04-19T16:27:29.996Z</time></trkpt><trkpt lat="41.658152" lon="15.3792402"><ele>67.0</ele><time>2026-04-19T16:27:30.996Z</time></trkpt><trkpt lat="41.6580613" lon="15.3794359"><ele>67.0</ele><time>2026-04-19T16:27:31.996Z</time></trkpt><trkpt lat="41.657971" lon="15.3796323"><ele>67.0</ele><time>2026-04-19T16:27:32.996Z</time></trkpt><trkpt lat="41.6578828" lon="15.3798315"><ele>67.0</ele><time>2026-04-19T16:27:33.996Z</time></trkpt><trkpt lat="41.6577946" lon="15.3800322"><ele>67.0</ele><time>2026-04-19T16:27:34.996Z</time></trkpt><trkpt lat="41.657706" lon="15.380233"><ele>67.0</ele><time>2026-04-19T16:27:35.996Z</time></trkpt><trkpt lat="41.6576155" lon="15.380434"><ele>67.0</ele><time>2026-04-19T16:27:36.996Z</time></trkpt><trkpt lat="41.6575261" lon="15.3806355"><ele>67.0</ele><time>2026-04-19T16:27:37.997Z</time></trkpt><trkpt lat="41.6574346" lon="15.3808364"><ele>67.0</ele><time>2026-04-19T16:27:38.996Z</time></trkpt><trkpt lat="41.6573426" lon="15.381037"><ele>67.0</ele><time>2026-04-19T16:27:39.996Z</time></trkpt><trkpt lat="41.6572515" lon="15.3812387"><ele>67.0</ele><time>2026-04-19T16:27:40.996Z</time></trkpt><trkpt lat="41.6571651" lon="15.3814453"><ele>67.0</ele><time>2026-04-19T16:27:41.996Z</time></trkpt><trkpt lat="41.6570767" lon="15.3816504"><ele>67.0</ele><time>2026-04-19T16:27:42.997Z</time></trkpt><trkpt lat="41.6569895" lon="15.3818539"><ele>67.0</ele><time>2026-04-19T16:27:43.997Z</time></trkpt><trkpt lat="41.6568999" lon="15.3820552"><ele>67.0</ele><time>2026-04-19T16:27:44.997Z</time></trkpt><trkpt lat="41.6568101" lon="15.3822553"><ele>67.0</ele><time>2026-04-19T16:27:45.996Z</time></trkpt><trkpt lat="41.6567209" lon="15.3824568"><ele>67.33333333333333</ele><time>2026-04-19T16:27:46.997Z</time></trkpt><trkpt lat="41.6566365" lon="15.3826592"><ele>67.66666666666667</ele><time>2026-04-19T16:27:47.996Z</time></trkpt><trkpt lat="41.656552" lon="15.3828621"><ele>68.0</ele><time>2026-04-19T16:27:48.996Z</time></trkpt><trkpt lat="41.6564733" lon="15.3830663"><ele>68.0</ele><time>2026-04-19T16:27:49.996Z</time></trkpt><trkpt lat="41.6564005" lon="15.3832728"><ele>68.0</ele><time>2026-04-19T16:27:50.996Z</time></trkpt><trkpt lat="41.6563336" lon="15.3834802"><ele>68.0</ele><time>2026-04-19T16:27:51.996Z</time></trkpt><trkpt lat="41.6562755" lon="15.383692"><ele>68.0</ele><time>2026-04-19T16:27:52.996Z</time></trkpt><trkpt lat="41.6562169" lon="15.3839014"><ele>68.0</ele><time>2026-04-19T16:27:53.996Z</time></trkpt><trkpt lat="41.6561598" lon="15.384111"><ele>68.0</ele><time>2026-04-19T16:27:54.996Z</time></trkpt><trkpt lat="41.6561084" lon="15.3843233"><ele>68.0</ele><time>2026-04-19T16:27:55.996Z</time></trkpt><trkpt lat="41.6560628" lon="15.3845369"><ele>68.0</ele><time>2026-04-19T16:27:56.996Z</time></trkpt><trkpt lat="41.6560207" lon="15.3847539"><ele>68.0</ele><time>2026-04-19T16:27:57.997Z</time></trkpt><trkpt lat="41.655979" lon="15.38497"><ele>68.0</ele><time>2026-04-19T16:27:58.997Z</time></trkpt><trkpt lat="41.6559377" lon="15.3851843"><ele>68.0</ele><time>2026-04-19T16:27:59.996Z</time></trkpt><trkpt lat="41.6558973" lon="15.3853965"><ele>68.0</ele><time>2026-04-19T16:28:00.996Z</time></trkpt><trkpt lat="41.6558543" lon="15.3856077"><ele>68.0</ele><time>2026-04-19T16:28:01.996Z</time></trkpt><trkpt lat="41.6558112" lon="15.385819"><ele>68.0</ele><time>2026-04-19T16:28:02.996Z</time></trkpt><trkpt lat="41.6557678" lon="15.3860295"><ele>68.0</ele><time>2026-04-19T16:28:03.996Z</time></trkpt><trkpt lat="41.6557264" lon="15.3862407"><ele>68.33333333333334</ele><time>2026-04-19T16:28:04.996Z</time></trkpt><trkpt lat="41.6556858" lon="15.3864521"><ele>68.66666666666667</ele><time>2026-04-19T16:28:05.996Z</time></trkpt><trkpt lat="41.6556467" lon="15.3866625"><ele>69.0</ele><time>2026-04-19T16:28:06.997Z</time></trkpt><trkpt lat="41.6556113" lon="15.3868733"><ele>69.0</ele><time>2026-04-19T16:28:07.996Z</time></trkpt><trkpt lat="41.655576" lon="15.3870832"><ele>69.0</ele><time>2026-04-19T16:28:08.996Z</time></trkpt><trkpt lat="41.6555335" lon="15.387287"><ele>69.0</ele><time>2026-04-19T16:28:09.997Z</time></trkpt><trkpt lat="41.6554815" lon="15.3874869"><ele>69.0</ele><time>2026-04-19T16:28:10.996Z</time></trkpt><trkpt lat="41.6554308" lon="15.3876833"><ele>69.0</ele><time>2026-04-19T16:28:11.996Z</time></trkpt><trkpt lat="41.6553868" lon="15.3878775"><ele>69.0</ele><time>2026-04-19T16:28:12.996Z</time></trkpt><trkpt lat="41.6553439" lon="15.3880715"><ele>69.0</ele><time>2026-04-19T16:28:13.996Z</time></trkpt><trkpt lat="41.6553017" lon="15.3882678"><ele>69.0</ele><time>2026-04-19T16:28:14.996Z</time></trkpt><trkpt lat="41.6552596" lon="15.3884664"><ele>69.0</ele><time>2026-04-19T16:28:15.996Z</time></trkpt><trkpt lat="41.6552173" lon="15.3886683"><ele>69.0</ele><time>2026-04-19T16:28:16.996Z</time></trkpt><trkpt lat="41.6551755" lon="15.388875"><ele>69.0</ele><time>2026-04-19T16:28:17.996Z</time></trkpt><trkpt lat="41.6551341" lon="15.3890894"><ele>69.0</ele><time>2026-04-19T16:28:18.996Z</time></trkpt><trkpt lat="41.6550929" lon="15.3893131"><ele>69.0</ele><time>2026-04-19T16:28:19.996Z</time></trkpt><trkpt lat="41.655051" lon="15.3895453"><ele>69.0</ele><time>2026-04-19T16:28:20.996Z</time></trkpt><trkpt lat="41.6550077" lon="15.389783"><ele>69.0</ele><time>2026-04-19T16:28:21.996Z</time></trkpt><trkpt lat="41.6549602" lon="15.3900249"><ele>69.0</ele><time>2026-04-19T16:28:22.996Z</time></trkpt><trkpt lat="41.6549119" lon="15.3902696"><ele>69.0</ele><time>2026-04-19T16:28:23.996Z</time></trkpt><trkpt lat="41.6548663" lon="15.3905168"><ele>69.0</ele><time>2026-04-19T16:28:24.996Z</time></trkpt><trkpt lat="41.6548211" lon="15.3907654"><ele>69.33333333333333</ele><time>2026-04-19T16:28:25.996Z</time></trkpt><trkpt lat="41.6547757" lon="15.3910125"><ele>69.66666666666666</ele><time>2026-04-19T16:28:26.996Z</time></trkpt><trkpt lat="41.6547297" lon="15.3912547"><ele>70.0</ele><time>2026-04-19T16:28:27.997Z</time></trkpt><trkpt lat="41.654685" lon="15.3914969"><ele>70.33333333333333</ele><time>2026-04-19T16:28:28.996Z</time></trkpt><trkpt lat="41.6546387" lon="15.3917298"><ele>70.66666666666667</ele><time>2026-04-19T16:28:29.996Z</time></trkpt><trkpt lat="41.6545884" lon="15.391949"><ele>71.0</ele><time>2026-04-19T16:28:30.996Z</time></trkpt><trkpt lat="41.6545392" lon="15.3921522"><ele>71.33333333333334</ele><time>2026-04-19T16:28:31.996Z</time></trkpt><trkpt lat="41.6544932" lon="15.3923492"><ele>71.66666666666667</ele><time>2026-04-19T16:28:32.997Z</time></trkpt><trkpt lat="41.6544516" lon="15.3925486"><ele>72.0</ele><time>2026-04-19T16:28:33.996Z</time></trkpt><trkpt lat="41.6544064" lon="15.3927469"><ele>72.0</ele><time>2026-04-19T16:28:34.997Z</time></trkpt><trkpt lat="41.6543605" lon="15.3929422"><ele>72.0</ele><time>2026-04-19T16:28:35.996Z</time></trkpt><trkpt lat="41.6543248" lon="15.3931399"><ele>72.0</ele><time>2026-04-19T16:28:36.997Z</time></trkpt><trkpt lat="41.6542875" lon="15.39333"><ele>72.0</ele><time>2026-04-19T16:28:37.996Z</time></trkpt><trkpt lat="41.6542414" lon="15.3935176"><ele>72.0</ele><time>2026-04-19T16:28:38.997Z</time></trkpt><trkpt lat="41.6542001" lon="15.3937052"><ele>72.0</ele><time>2026-04-19T16:28:39.996Z</time></trkpt><trkpt lat="41.6541603" lon="15.3938897"><ele>72.0</ele><time>2026-04-19T16:28:40.996Z</time></trkpt><trkpt lat="41.6541238" lon="15.3940709"><ele>72.25</ele><time>2026-04-19T16:28:41.997Z</time></trkpt><trkpt lat="41.6540899" lon="15.394243"><ele>72.5</ele><time>2026-04-19T16:28:42.996Z</time></trkpt><trkpt lat="41.6540577" lon="15.3944071"><ele>72.75</ele><time>2026-04-19T16:28:43.996Z</time></trkpt><trkpt lat="41.6540385" lon="15.3945802"><ele>73.0</ele><time>2026-04-19T16:28:44.996Z</time></trkpt><trkpt lat="41.6540195" lon="15.394751"><ele>73.5</ele><time>2026-04-19T16:28:45.997Z</time></trkpt><trkpt lat="41.6539948" lon="15.3949138"><ele>74.0</ele><time>2026-04-19T16:28:46.996Z</time></trkpt><trkpt lat="41.6539663" lon="15.3950676"><ele>74.5</ele><time>2026-04-19T16:28:47.996Z</time></trkpt><trkpt lat="41.6539347" lon="15.3952174"><ele>75.0</ele><time>2026-04-19T16:28:48.997Z</time></trkpt><trkpt lat="41.6539022" lon="15.3953674"><ele>75.5</ele><time>2026-04-19T16:28:49.997Z</time></trkpt><trkpt lat="41.6538707" lon="15.3955226"><ele>76.0</ele><time>2026-04-19T16:28:50.996Z</time></trkpt><trkpt lat="41.6538408" lon="15.395678"><ele>76.5</ele><time>2026-04-19T16:28:51.996Z</time></trkpt><trkpt lat="41.6538119" lon="15.3958279"><ele>77.0</ele><time>2026-04-19T16:28:52.996Z</time></trkpt><trkpt lat="41.6537833" lon="15.3959759"><ele>77.0</ele><time>2026-04-19T16:28:53.996Z</time></trkpt><trkpt lat="41.6537583" lon="15.3961246"><ele>77.0</ele><time>2026-04-19T16:28:54.996Z</time></trkpt><trkpt lat="41.6537316" lon="15.3962741"><ele>77.0</ele><time>2026-04-19T16:28:55.996Z</time></trkpt><trkpt lat="41.6537027" lon="15.3964265"><ele>77.0</ele><time>2026-04-19T16:28:56.997Z</time></trkpt><trkpt lat="41.6536786" lon="15.3965872"><ele>77.0</ele><time>2026-04-19T16:28:57.996Z</time></trkpt><trkpt lat="41.6536572" lon="15.3967579"><ele>77.0</ele><time>2026-04-19T16:28:58.996Z</time></trkpt><trkpt lat="41.6536373" lon="15.3969349"><ele>77.0</ele><time>2026-04-19T16:28:59.996Z</time></trkpt><trkpt lat="41.6536277" lon="15.3971192"><ele>77.0</ele><time>2026-04-19T16:29:00.996Z</time></trkpt><trkpt lat="41.65361" lon="15.3973108"><ele>78.0</ele><time>2026-04-19T16:29:01.996Z</time></trkpt><trkpt lat="41.6535967" lon="15.39751"><ele>79.0</ele><time>2026-04-19T16:29:02.996Z</time></trkpt><trkpt lat="41.6535883" lon="15.3977167"><ele>80.0</ele><time>2026-04-19T16:29:03.996Z</time></trkpt><trkpt lat="41.6535833" lon="15.3979283"><ele>80.0</ele><time>2026-04-19T16:29:04.996Z</time></trkpt><trkpt lat="41.6535933" lon="15.3981417"><ele>80.0</ele><time>2026-04-19T16:29:05.997Z</time></trkpt><trkpt lat="41.6535917" lon="15.3983567"><ele>80.0</ele><time>2026-04-19T16:29:06.996Z</time></trkpt><trkpt lat="41.65359" lon="15.3985733"><ele>80.0</ele><time>2026-04-19T16:29:07.997Z</time></trkpt><trkpt lat="41.65359" lon="15.3987883"><ele>80.0</ele><time>2026-04-19T16:29:08.997Z</time></trkpt><trkpt lat="41.653605" lon="15.3989867"><ele>80.0</ele><time>2026-04-19T16:29:09.996Z</time></trkpt><trkpt lat="41.6536133" lon="15.39918"><ele>79.5</ele><time>2026-04-19T16:29:10.997Z</time></trkpt><trkpt lat="41.6536217" lon="15.3993667"><ele>79.0</ele><time>2026-04-19T16:29:11.996Z</time></trkpt><trkpt lat="41.65363" lon="15.3995483"><ele>78.5</ele><time>2026-04-19T16:29:12.996Z</time></trkpt><trkpt lat="41.6536417" lon="15.399735"><ele>78.0</ele><time>2026-04-19T16:29:13.996Z</time></trkpt><trkpt lat="41.6536483" lon="15.399925"><ele>77.5</ele><time>2026-04-19T16:29:14.996Z</time></trkpt><trkpt lat="41.6536483" lon="15.4001117"><ele>77.0</ele><time>2026-04-19T16:29:15.997Z</time></trkpt><trkpt lat="41.6536467" lon="15.4002983"><ele>76.5</ele><time>2026-04-19T16:29:16.996Z</time></trkpt><trkpt lat="41.6536517" lon="15.4004883"><ele>76.0</ele><time>2026-04-19T16:29:17.996Z</time></trkpt><trkpt lat="41.6536633" lon="15.4006817"><ele>75.5</ele><time>2026-04-19T16:29:18.996Z</time></trkpt><trkpt lat="41.653675" lon="15.4008767"><ele>75.0</ele><time>2026-04-19T16:29:19.996Z</time></trkpt><trkpt lat="41.6536833" lon="15.401075"><ele>74.5</ele><time>2026-04-19T16:29:20.996Z</time></trkpt><trkpt lat="41.65369" lon="15.401275"><ele>74.0</ele><time>2026-04-19T16:29:21.996Z</time></trkpt><trkpt lat="41.6536967" lon="15.4014783"><ele>73.66666666666667</ele><time>2026-04-19T16:29:22.996Z</time></trkpt><trkpt lat="41.6537033" lon="15.4016833"><ele>73.33333333333333</ele><time>2026-04-19T16:29:23.996Z</time></trkpt><trkpt lat="41.6537083" lon="15.40189"><ele>73.0</ele><time>2026-04-19T16:29:24.996Z</time></trkpt><trkpt lat="41.6537117" lon="15.4020967"><ele>73.33333333333333</ele><time>2026-04-19T16:29:25.996Z</time></trkpt><trkpt lat="41.6537167" lon="15.402305"><ele>73.66666666666667</ele><time>2026-04-19T16:29:26.997Z</time></trkpt><trkpt lat="41.6537217" lon="15.4025133"><ele>74.0</ele><time>2026-04-19T16:29:27.996Z</time></trkpt><trkpt lat="41.6537267" lon="15.4027217"><ele>74.0</ele><time>2026-04-19T16:29:28.996Z</time></trkpt><trkpt lat="41.65373" lon="15.4029317"><ele>74.0</ele><time>2026-04-19T16:29:29.996Z</time></trkpt><trkpt lat="41.653735" lon="15.4031433"><ele>74.0</ele><time>2026-04-19T16:29:30.996Z</time></trkpt><trkpt lat="41.65374" lon="15.4033567"><ele>73.66666666666667</ele><time>2026-04-19T16:29:31.996Z</time></trkpt><trkpt lat="41.6537433" lon="15.4035717"><ele>73.33333333333333</ele><time>2026-04-19T16:29:32.997Z</time></trkpt><trkpt lat="41.6537467" lon="15.4037867"><ele>73.0</ele><time>2026-04-19T16:29:33.996Z</time></trkpt><trkpt lat="41.65375" lon="15.404005"><ele>73.0</ele><time>2026-04-19T16:29:34.997Z</time></trkpt><trkpt lat="41.6537533" lon="15.404225"><ele>73.0</ele><time>2026-04-19T16:29:35.996Z</time></trkpt><trkpt lat="41.6537567" lon="15.40445"><ele>73.0</ele><time>2026-04-19T16:29:36.996Z</time></trkpt><trkpt lat="41.65376" lon="15.4046767"><ele>73.0</ele><time>2026-04-19T16:29:37.996Z</time></trkpt><trkpt lat="41.653765" lon="15.4049017"><ele>73.0</ele><time>2026-04-19T16:29:38.996Z</time></trkpt><trkpt lat="41.65377" lon="15.4051283"><ele>73.0</ele><time>2026-04-19T16:29:39.997Z</time></trkpt><trkpt lat="41.653775" lon="15.405355"><ele>73.66666666666666</ele><time>2026-04-19T16:29:40.996Z</time></trkpt><trkpt lat="41.6537783" lon="15.4055833"><ele>74.33333333333333</ele><time>2026-04-19T16:29:41.996Z</time></trkpt><trkpt lat="41.6537817" lon="15.40581"><ele>75.0</ele><time>2026-04-19T16:29:42.996Z</time></trkpt><trkpt lat="41.6537867" lon="15.406035"><ele>75.0</ele><time>2026-04-19T16:29:43.996Z</time></trkpt><trkpt lat="41.6537933" lon="15.4062567"><ele>75.0</ele><time>2026-04-19T16:29:44.997Z</time></trkpt><trkpt lat="41.6538" lon="15.4064767"><ele>75.0</ele><time>2026-04-19T16:29:45.996Z</time></trkpt><trkpt lat="41.653805" lon="15.406695"><ele>74.66666666666667</ele><time>2026-04-19T16:29:46.996Z</time></trkpt><trkpt lat="41.6538083" lon="15.4069083"><ele>74.33333333333334</ele><time>2026-04-19T16:29:47.997Z</time></trkpt><trkpt lat="41.6538117" lon="15.40711"><ele>74.0</ele><time>2026-04-19T16:29:48.996Z</time></trkpt><trkpt lat="41.6538133" lon="15.4073067"><ele>73.75</ele><time>2026-04-19T16:29:49.996Z</time></trkpt><trkpt lat="41.653815" lon="15.4075"><ele>73.5</ele><time>2026-04-19T16:29:50.996Z</time></trkpt><trkpt lat="41.6538167" lon="15.40768"><ele>73.25</ele><time>2026-04-19T16:29:51.996Z</time></trkpt><trkpt lat="41.6538183" lon="15.4078483"><ele>73.0</ele><time>2026-04-19T16:29:52.996Z</time></trkpt><trkpt lat="41.65382" lon="15.408015"><ele>72.75</ele><time>2026-04-19T16:29:53.996Z</time></trkpt><trkpt lat="41.65382" lon="15.4081733"><ele>72.5</ele><time>2026-04-19T16:29:54.996Z</time></trkpt><trkpt lat="41.6538233" lon="15.4083217"><ele>72.25</ele><time>2026-04-19T16:29:55.996Z</time></trkpt><trkpt lat="41.653825" lon="15.4084717"><ele>72.0</ele><time>2026-04-19T16:29:56.996Z</time></trkpt><trkpt lat="41.6538267" lon="15.40863"><ele>72.0</ele><time>2026-04-19T16:29:57.996Z</time></trkpt><trkpt lat="41.6538317" lon="15.4087933"><ele>72.0</ele><time>2026-04-19T16:29:58.996Z</time></trkpt><trkpt lat="41.6538367" lon="15.4089567"><ele>72.0</ele><time>2026-04-19T16:29:59.997Z</time></trkpt><trkpt lat="41.6538467" lon="15.409125"><ele>72.0</ele><time>2026-04-19T16:30:00.996Z</time></trkpt><trkpt lat="41.6538483" lon="15.4092917"><ele>72.0</ele><time>2026-04-19T16:30:01.996Z</time></trkpt><trkpt lat="41.6538517" lon="15.4094633"><ele>72.0</ele><time>2026-04-19T16:30:02.997Z</time></trkpt><trkpt lat="41.6538433" lon="15.40964"><ele>72.0</ele><time>2026-04-19T16:30:03.997Z</time></trkpt><trkpt lat="41.6538483" lon="15.40982"><ele>72.0</ele><time>2026-04-19T16:30:04.996Z</time></trkpt><trkpt lat="41.6538533" lon="15.4100017"><ele>72.0</ele><time>2026-04-19T16:30:05.996Z</time></trkpt><trkpt lat="41.653855" lon="15.4101833"><ele>72.0</ele><time>2026-04-19T16:30:06.996Z</time></trkpt><trkpt lat="41.6538533" lon="15.41037"><ele>72.0</ele><time>2026-04-19T16:30:07.997Z</time></trkpt><trkpt lat="41.65385" lon="15.4105583"><ele>72.0</ele><time>2026-04-19T16:30:08.996Z</time></trkpt><trkpt lat="41.6538467" lon="15.41075"><ele>71.75</ele><time>2026-04-19T16:30:09.997Z</time></trkpt><trkpt lat="41.6538433" lon="15.4109433"><ele>71.5</ele><time>2026-04-19T16:30:10.997Z</time></trkpt><trkpt lat="41.6538367" lon="15.4111367"><ele>71.25</ele><time>2026-04-19T16:30:11.996Z</time></trkpt><trkpt lat="41.6538283" lon="15.4113283"><ele>71.0</ele><time>2026-04-19T16:30:12.996Z</time></trkpt><trkpt lat="41.6538183" lon="15.41152"><ele>71.0</ele><time>2026-04-19T16:30:13.996Z</time></trkpt><trkpt lat="41.6538033" lon="15.4117117"><ele>71.0</ele><time>2026-04-19T16:30:14.996Z</time></trkpt><trkpt lat="41.6537817" lon="15.4118983"><ele>71.0</ele><time>2026-04-19T16:30:15.996Z</time></trkpt><trkpt lat="41.65376" lon="15.4120867"><ele>71.0</ele><time>2026-04-19T16:30:16.996Z</time></trkpt><trkpt lat="41.65374" lon="15.4122767"><ele>71.0</ele><time>2026-04-19T16:30:17.996Z</time></trkpt><trkpt lat="41.6537167" lon="15.4124667"><ele>71.0</ele><time>2026-04-19T16:30:18.996Z</time></trkpt><trkpt lat="41.65369" lon="15.4126583"><ele>71.0</ele><time>2026-04-19T16:30:19.997Z</time></trkpt><trkpt lat="41.6536583" lon="15.4128517"><ele>71.0</ele><time>2026-04-19T16:30:20.997Z</time></trkpt><trkpt lat="41.6536233" lon="15.4130433"><ele>71.25</ele><time>2026-04-19T16:30:21.996Z</time></trkpt><trkpt lat="41.653585" lon="15.4132367"><ele>71.5</ele><time>2026-04-19T16:30:22.996Z</time></trkpt><trkpt lat="41.6535433" lon="15.4134233"><ele>71.75</ele><time>2026-04-19T16:30:23.996Z</time></trkpt><trkpt lat="41.6534967" lon="15.4136083"><ele>72.0</ele><time>2026-04-19T16:30:24.996Z</time></trkpt><trkpt lat="41.6534517" lon="15.4137983"><ele>71.75</ele><time>2026-04-19T16:30:25.996Z</time></trkpt><trkpt lat="41.6534083" lon="15.41399"><ele>71.5</ele><time>2026-04-19T16:30:26.997Z</time></trkpt><trkpt lat="41.6533617" lon="15.41418"><ele>71.25</ele><time>2026-04-19T16:30:27.996Z</time></trkpt><trkpt lat="41.6533117" lon="15.414365"><ele>71.0</ele><time>2026-04-19T16:30:28.996Z</time></trkpt><trkpt lat="41.6532583" lon="15.4145467"><ele>70.66666666666667</ele><time>2026-04-19T16:30:29.996Z</time></trkpt><trkpt lat="41.6532017" lon="15.4147367"><ele>70.33333333333333</ele><time>2026-04-19T16:30:30.996Z</time></trkpt><trkpt lat="41.653145" lon="15.414925"><ele>70.0</ele><time>2026-04-19T16:30:31.996Z</time></trkpt><trkpt lat="41.653085" lon="15.415115"><ele>70.0</ele><time>2026-04-19T16:30:32.996Z</time></trkpt><trkpt lat="41.6530233" lon="15.4153033"><ele>70.0</ele><time>2026-04-19T16:30:33.996Z</time></trkpt><trkpt lat="41.652955" lon="15.4154917"><ele>70.0</ele><time>2026-04-19T16:30:34.996Z</time></trkpt><trkpt lat="41.6528867" lon="15.4156817"><ele>70.0</ele><time>2026-04-19T16:30:35.997Z</time></trkpt><trkpt lat="41.6528133" lon="15.415865"><ele>70.0</ele><time>2026-04-19T16:30:36.996Z</time></trkpt><trkpt lat="41.6527433" lon="15.4160433"><ele>70.0</ele><time>2026-04-19T16:30:37.996Z</time></trkpt><trkpt lat="41.652675" lon="15.4162133"><ele>70.0</ele><time>2026-04-19T16:30:38.996Z</time></trkpt><trkpt lat="41.6526033" lon="15.416385"><ele>70.0</ele><time>2026-04-19T16:30:39.996Z</time></trkpt><trkpt lat="41.6525317" lon="15.416555"><ele>70.0</ele><time>2026-04-19T16:30:40.997Z</time></trkpt><trkpt lat="41.6524567" lon="15.4167217"><ele>70.0</ele><time>2026-04-19T16:30:41.996Z</time></trkpt><trkpt lat="41.6523767" lon="15.4168883"><ele>70.0</ele><time>2026-04-19T16:30:42.996Z</time></trkpt><trkpt lat="41.6522917" lon="15.417055"><ele>70.0</ele><time>2026-04-19T16:30:43.996Z</time></trkpt><trkpt lat="41.6522033" lon="15.4172183"><ele>70.0</ele><time>2026-04-19T16:30:44.996Z</time></trkpt><trkpt lat="41.652115" lon="15.4173833"><ele>69.66666666666666</ele><time>2026-04-19T16:30:45.996Z</time></trkpt><trkpt lat="41.6520267" lon="15.4175467"><ele>69.33333333333333</ele><time>2026-04-19T16:30:46.996Z</time></trkpt><trkpt lat="41.651935" lon="15.4177083"><ele>69.0</ele><time>2026-04-19T16:30:47.996Z</time></trkpt><trkpt lat="41.6518417" lon="15.4178633"><ele>68.25</ele><time>2026-04-19T16:30:48.996Z</time></trkpt><trkpt lat="41.6517467" lon="15.4180167"><ele>67.5</ele><time>2026-04-19T16:30:49.996Z</time></trkpt><trkpt lat="41.6516533" lon="15.4181617"><ele>66.75</ele><time>2026-04-19T16:30:50.996Z</time></trkpt><trkpt lat="41.651555" lon="15.418305"><ele>66.0</ele><time>2026-04-19T16:30:51.996Z</time></trkpt><trkpt lat="41.651455" lon="15.4184467"><ele>66.0</ele><time>2026-04-19T16:30:52.996Z</time></trkpt><trkpt lat="41.6513533" lon="15.41859"><ele>66.0</ele><time>2026-04-19T16:30:53.997Z</time></trkpt><trkpt lat="41.6512433" lon="15.418735"><ele>66.0</ele><time>2026-04-19T16:30:54.997Z</time></trkpt><trkpt lat="41.6511317" lon="15.41888"><ele>65.66666666666667</ele><time>2026-04-19T16:30:55.996Z</time></trkpt><trkpt lat="41.6510167" lon="15.4190233"><ele>65.33333333333334</ele><time>2026-04-19T16:30:56.996Z</time></trkpt><trkpt lat="41.6509033" lon="15.419165"><ele>65.0</ele><time>2026-04-19T16:30:57.996Z</time></trkpt><trkpt lat="41.650785" lon="15.4193083"><ele>65.0</ele><time>2026-04-19T16:30:58.996Z</time></trkpt><trkpt lat="41.6506667" lon="15.419445"><ele>65.0</ele><time>2026-04-19T16:30:59.996Z</time></trkpt><trkpt lat="41.6505467" lon="15.4195783"><ele>65.0</ele><time>2026-04-19T16:31:00.996Z</time></trkpt><trkpt lat="41.650425" lon="15.4197083"><ele>65.0</ele><time>2026-04-19T16:31:01.996Z</time></trkpt><trkpt lat="41.650305" lon="15.4198383"><ele>65.0</ele><time>2026-04-19T16:31:02.996Z</time></trkpt><trkpt lat="41.650185" lon="15.41997"><ele>65.0</ele><time>2026-04-19T16:31:03.997Z</time></trkpt><trkpt lat="41.650065" lon="15.4201017"><ele>64.66666666666667</ele><time>2026-04-19T16:31:04.997Z</time></trkpt><trkpt lat="41.6499433" lon="15.4202333"><ele>64.33333333333333</ele><time>2026-04-19T16:31:05.996Z</time></trkpt><trkpt lat="41.64982" lon="15.4203633"><ele>64.0</ele><time>2026-04-19T16:31:06.997Z</time></trkpt><trkpt lat="41.6496967" lon="15.4204933"><ele>64.0</ele><time>2026-04-19T16:31:07.996Z</time></trkpt><trkpt lat="41.6495733" lon="15.4206217"><ele>64.0</ele><time>2026-04-19T16:31:08.996Z</time></trkpt><trkpt lat="41.6494517" lon="15.4207517"><ele>64.0</ele><time>2026-04-19T16:31:09.996Z</time></trkpt><trkpt lat="41.64933" lon="15.4208817"><ele>64.66666666666666</ele><time>2026-04-19T16:31:10.996Z</time></trkpt><trkpt lat="41.6492083" lon="15.4210117"><ele>65.33333333333333</ele><time>2026-04-19T16:31:11.997Z</time></trkpt><trkpt lat="41.649085" lon="15.42114"><ele>66.0</ele><time>2026-04-19T16:31:12.996Z</time></trkpt><trkpt lat="41.6489617" lon="15.4212683"><ele>66.0</ele><time>2026-04-19T16:31:13.996Z</time></trkpt><trkpt lat="41.6488383" lon="15.4213967"><ele>66.0</ele><time>2026-04-19T16:31:14.996Z</time></trkpt><trkpt lat="41.6487133" lon="15.4215283"><ele>66.0</ele><time>2026-04-19T16:31:15.996Z</time></trkpt><trkpt lat="41.6485867" lon="15.4216583"><ele>66.0</ele><time>2026-04-19T16:31:16.996Z</time></trkpt><trkpt lat="41.6484583" lon="15.4217917"><ele>66.0</ele><time>2026-04-19T16:31:17.996Z</time></trkpt><trkpt lat="41.6483267" lon="15.4219267"><ele>66.0</ele><time>2026-04-19T16:31:18.996Z</time></trkpt><trkpt lat="41.6481933" lon="15.422065"><ele>66.0</ele><time>2026-04-19T16:31:19.996Z</time></trkpt><trkpt lat="41.6480567" lon="15.4222067"><ele>66.0</ele><time>2026-04-19T16:31:20.997Z</time></trkpt><trkpt lat="41.6479183" lon="15.4223517"><ele>66.0</ele><time>2026-04-19T16:31:21.996Z</time></trkpt><trkpt lat="41.6477783" lon="15.4225"><ele>65.66666666666667</ele><time>2026-04-19T16:31:22.996Z</time></trkpt><trkpt lat="41.6476367" lon="15.42265"><ele>65.33333333333334</ele><time>2026-04-19T16:31:23.996Z</time></trkpt><trkpt lat="41.6474933" lon="15.4227983"><ele>65.0</ele><time>2026-04-19T16:31:24.996Z</time></trkpt><trkpt lat="41.6473483" lon="15.4229467"><ele>65.0</ele><time>2026-04-19T16:31:25.996Z</time></trkpt><trkpt lat="41.647205" lon="15.4230917"><ele>65.0</ele><time>2026-04-19T16:31:26.996Z</time></trkpt><trkpt lat="41.647065" lon="15.42324"><ele>65.0</ele><time>2026-04-19T16:31:27.997Z</time></trkpt><trkpt lat="41.646925" lon="15.4233867"><ele>65.0</ele><time>2026-04-19T16:31:28.996Z</time></trkpt><trkpt lat="41.6467867" lon="15.4235333"><ele>65.0</ele><time>2026-04-19T16:31:29.996Z</time></trkpt><trkpt lat="41.6466517" lon="15.4236783"><ele>65.0</ele><time>2026-04-19T16:31:30.997Z</time></trkpt><trkpt lat="41.6465183" lon="15.4238233"><ele>65.0</ele><time>2026-04-19T16:31:31.997Z</time></trkpt><trkpt lat="41.646385" lon="15.4239667"><ele>65.0</ele><time>2026-04-19T16:31:32.996Z</time></trkpt><trkpt lat="41.6462517" lon="15.4241067"><ele>65.0</ele><time>2026-04-19T16:31:33.997Z</time></trkpt><trkpt lat="41.64612" lon="15.4242433"><ele>65.0</ele><time>2026-04-19T16:31:34.996Z</time></trkpt><trkpt lat="41.64599" lon="15.4243783"><ele>65.0</ele><time>2026-04-19T16:31:35.996Z</time></trkpt><trkpt lat="41.64586" lon="15.4245117"><ele>65.0</ele><time>2026-04-19T16:31:36.996Z</time></trkpt><trkpt lat="41.64573" lon="15.4246467"><ele>65.0</ele><time>2026-04-19T16:31:37.996Z</time></trkpt><trkpt lat="41.6456" lon="15.4247817"><ele>65.0</ele><time>2026-04-19T16:31:38.996Z</time></trkpt><trkpt lat="41.6454717" lon="15.4249167"><ele>65.0</ele><time>2026-04-19T16:31:39.996Z</time></trkpt><trkpt lat="41.6453433" lon="15.4250517"><ele>64.66666666666667</ele><time>2026-04-19T16:31:40.996Z</time></trkpt><trkpt lat="41.6452183" lon="15.42518"><ele>64.33333333333333</ele><time>2026-04-19T16:31:41.996Z</time></trkpt><trkpt lat="41.6450917" lon="15.4253117"><ele>64.0</ele><time>2026-04-19T16:31:42.996Z</time></trkpt><trkpt lat="41.6449633" lon="15.4254417"><ele>63.666666666666664</ele><time>2026-04-19T16:31:43.996Z</time></trkpt><trkpt lat="41.6448383" lon="15.4255733"><ele>63.33333333333333</ele><time>2026-04-19T16:31:44.996Z</time></trkpt><trkpt lat="41.6447133" lon="15.4257083"><ele>63.0</ele><time>2026-04-19T16:31:45.996Z</time></trkpt><trkpt lat="41.6445867" lon="15.425845"><ele>63.0</ele><time>2026-04-19T16:31:46.996Z</time></trkpt><trkpt lat="41.6444567" lon="15.4259817"><ele>63.0</ele><time>2026-04-19T16:31:47.996Z</time></trkpt><trkpt lat="41.6443283" lon="15.42612"><ele>63.0</ele><time>2026-04-19T16:31:48.996Z</time></trkpt><trkpt lat="41.6441967" lon="15.42626"><ele>63.0</ele><time>2026-04-19T16:31:49.996Z</time></trkpt><trkpt lat="41.644065" lon="15.4263967"><ele>63.0</ele><time>2026-04-19T16:31:50.996Z</time></trkpt><trkpt lat="41.6439317" lon="15.4265317"><ele>63.0</ele><time>2026-04-19T16:31:51.996Z</time></trkpt><trkpt lat="41.6438017" lon="15.42667"><ele>63.0</ele><time>2026-04-19T16:31:52.996Z</time></trkpt><trkpt lat="41.6436732" lon="15.4268087"><ele>63.0</ele><time>2026-04-19T16:31:53.996Z</time></trkpt><trkpt lat="41.6435457" lon="15.4269483"><ele>63.0</ele><time>2026-04-19T16:31:54.996Z</time></trkpt><trkpt lat="41.6434189" lon="15.4270845"><ele>63.0</ele><time>2026-04-19T16:31:55.996Z</time></trkpt><trkpt lat="41.6432928" lon="15.4272194"><ele>63.0</ele><time>2026-04-19T16:31:56.996Z</time></trkpt><trkpt lat="41.643169" lon="15.4273498"><ele>63.0</ele><time>2026-04-19T16:31:57.996Z</time></trkpt><trkpt lat="41.6430475" lon="15.4274759"><ele>63.0</ele><time>2026-04-19T16:31:58.996Z</time></trkpt><trkpt lat="41.6429285" lon="15.4275986"><ele>63.0</ele><time>2026-04-19T16:31:59.996Z</time></trkpt><trkpt lat="41.642812" lon="15.4277202"><ele>63.0</ele><time>2026-04-19T16:32:00.996Z</time></trkpt><trkpt lat="41.642695" lon="15.4278422"><ele>63.0</ele><time>2026-04-19T16:32:01.996Z</time></trkpt><trkpt lat="41.642578" lon="15.4279652"><ele>63.25</ele><time>2026-04-19T16:32:02.997Z</time></trkpt><trkpt lat="41.6424637" lon="15.4280857"><ele>63.5</ele><time>2026-04-19T16:32:03.996Z</time></trkpt><trkpt lat="41.6423553" lon="15.4281996"><ele>63.75</ele><time>2026-04-19T16:32:04.996Z</time></trkpt><trkpt lat="41.6422563" lon="15.4283035"><ele>64.0</ele><time>2026-04-19T16:32:05.996Z</time></trkpt><trkpt lat="41.6421669" lon="15.4283948"><ele>63.99999999999999</ele><time>2026-04-19T16:32:06.996Z</time></trkpt><trkpt lat="41.6420842" lon="15.428479"><ele>64.0</ele><time>2026-04-19T16:32:07.997Z</time></trkpt><trkpt lat="41.642009" lon="15.4285563"><ele>64.0</ele><time>2026-04-19T16:32:08.996Z</time></trkpt><trkpt lat="41.6419437" lon="15.4286212"><ele>64.0</ele><time>2026-04-19T16:32:09.997Z</time></trkpt><trkpt lat="41.6418857" lon="15.428676"><ele>63.99999999999999</ele><time>2026-04-19T16:32:10.996Z</time></trkpt><trkpt lat="41.6418252" lon="15.4287174"><ele>64.0</ele><time>2026-04-19T16:32:11.996Z</time></trkpt><trkpt lat="41.6417591" lon="15.4287461"><ele>63.83333333333333</ele><time>2026-04-19T16:32:12.997Z</time></trkpt><trkpt lat="41.6416901" lon="15.4287696"><ele>63.666666666666664</ele><time>2026-04-19T16:32:13.996Z</time></trkpt><trkpt lat="41.6416231" lon="15.4287955"><ele>63.5</ele><time>2026-04-19T16:32:14.996Z</time></trkpt><trkpt lat="41.6415612" lon="15.4288484"><ele>63.33333333333333</ele><time>2026-04-19T16:32:15.996Z</time></trkpt><trkpt lat="41.6415099" lon="15.4289288"><ele>63.166666666666664</ele><time>2026-04-19T16:32:16.996Z</time></trkpt><trkpt lat="41.6414654" lon="15.4290198"><ele>63.0</ele><time>2026-04-19T16:32:17.996Z</time></trkpt><trkpt lat="41.6414216" lon="15.4291276"><ele>63.4</ele><time>2026-04-19T16:32:18.996Z</time></trkpt><trkpt lat="41.6413618" lon="15.4292279"><ele>63.8</ele><time>2026-04-19T16:32:19.996Z</time></trkpt><trkpt lat="41.6412871" lon="15.4293205"><ele>64.2</ele><time>2026-04-19T16:32:20.996Z</time></trkpt><trkpt lat="41.6412023" lon="15.4294087"><ele>64.6</ele><time>2026-04-19T16:32:21.996Z</time></trkpt><trkpt lat="41.6411119" lon="15.4294982"><ele>65.0</ele><time>2026-04-19T16:32:22.996Z</time></trkpt><trkpt lat="41.641019" lon="15.4295934"><ele>65.0</ele><time>2026-04-19T16:32:23.996Z</time></trkpt><trkpt lat="41.6409225" lon="15.4296966"><ele>65.0</ele><time>2026-04-19T16:32:24.996Z</time></trkpt><trkpt lat="41.6408232" lon="15.4298047"><ele>65.0</ele><time>2026-04-19T16:32:25.996Z</time></trkpt><trkpt lat="41.6407212" lon="15.4299188"><ele>65.0</ele><time>2026-04-19T16:32:26.996Z</time></trkpt><trkpt lat="41.6406113" lon="15.4300302"><ele>65.0</ele><time>2026-04-19T16:32:27.996Z</time></trkpt><trkpt lat="41.6405015" lon="15.4301497"><ele>65.0</ele><time>2026-04-19T16:32:28.996Z</time></trkpt><trkpt lat="41.6403863" lon="15.4302636"><ele>65.0</ele><time>2026-04-19T16:32:29.996Z</time></trkpt><trkpt lat="41.640272" lon="15.4303866"><ele>65.0</ele><time>2026-04-19T16:32:30.997Z</time></trkpt><trkpt lat="41.6401567" lon="15.4305116"><ele>65.0</ele><time>2026-04-19T16:32:31.997Z</time></trkpt><trkpt lat="41.6400416" lon="15.4306331"><ele>65.0</ele><time>2026-04-19T16:32:32.997Z</time></trkpt><trkpt lat="41.6399253" lon="15.4307514"><ele>65.0</ele><time>2026-04-19T16:32:33.997Z</time></trkpt><trkpt lat="41.6398087" lon="15.4308697"><ele>65.0</ele><time>2026-04-19T16:32:34.996Z</time></trkpt><trkpt lat="41.6396936" lon="15.4309842"><ele>65.0</ele><time>2026-04-19T16:32:35.996Z</time></trkpt><trkpt lat="41.6395854" lon="15.4310989"><ele>65.0</ele><time>2026-04-19T16:32:36.996Z</time></trkpt><trkpt lat="41.6394793" lon="15.4312112"><ele>65.0</ele><time>2026-04-19T16:32:37.996Z</time></trkpt><trkpt lat="41.6393714" lon="15.431323"><ele>65.0</ele><time>2026-04-19T16:32:38.996Z</time></trkpt><trkpt lat="41.6392624" lon="15.4314365"><ele>64.75</ele><time>2026-04-19T16:32:39.996Z</time></trkpt><trkpt lat="41.6391511" lon="15.4315525"><ele>64.5</ele><time>2026-04-19T16:32:40.997Z</time></trkpt><trkpt lat="41.6390387" lon="15.4316716"><ele>64.25</ele><time>2026-04-19T16:32:41.996Z</time></trkpt><trkpt lat="41.6389236" lon="15.4317899"><ele>64.0</ele><time>2026-04-19T16:32:42.996Z</time></trkpt><trkpt lat="41.6388078" lon="15.4319098"><ele>64.0</ele><time>2026-04-19T16:32:43.996Z</time></trkpt><trkpt lat="41.638691" lon="15.4320314"><ele>64.0</ele><time>2026-04-19T16:32:44.996Z</time></trkpt><trkpt lat="41.6385722" lon="15.4321559"><ele>64.0</ele><time>2026-04-19T16:32:45.996Z</time></trkpt><trkpt lat="41.6384521" lon="15.4322816"><ele>63.666666666666664</ele><time>2026-04-19T16:32:46.996Z</time></trkpt><trkpt lat="41.6383302" lon="15.4324078"><ele>63.33333333333333</ele><time>2026-04-19T16:32:47.997Z</time></trkpt><trkpt lat="41.6382091" lon="15.4325355"><ele>63.0</ele><time>2026-04-19T16:32:48.996Z</time></trkpt><trkpt lat="41.6380876" lon="15.4326647"><ele>63.0</ele><time>2026-04-19T16:32:49.996Z</time></trkpt><trkpt lat="41.6379639" lon="15.4327983"><ele>63.0</ele><time>2026-04-19T16:32:50.996Z</time></trkpt><trkpt lat="41.6378371" lon="15.4329314"><ele>63.0</ele><time>2026-04-19T16:32:51.996Z</time></trkpt><trkpt lat="41.6377085" lon="15.4330676"><ele>62.66666666666667</ele><time>2026-04-19T16:32:52.996Z</time></trkpt><trkpt lat="41.6375787" lon="15.4332044"><ele>62.333333333333336</ele><time>2026-04-19T16:32:53.996Z</time></trkpt><trkpt lat="41.6374495" lon="15.4333413"><ele>62.0</ele><time>2026-04-19T16:32:54.996Z</time></trkpt><trkpt lat="41.6373208" lon="15.4334773"><ele>62.0</ele><time>2026-04-19T16:32:55.996Z</time></trkpt><trkpt lat="41.6371942" lon="15.4336136"><ele>62.0</ele><time>2026-04-19T16:32:56.996Z</time></trkpt><trkpt lat="41.6370677" lon="15.4337473"><ele>62.0</ele><time>2026-04-19T16:32:57.996Z</time></trkpt><trkpt lat="41.6369409" lon="15.4338781"><ele>61.0</ele><time>2026-04-19T16:32:58.996Z</time></trkpt><trkpt lat="41.6368146" lon="15.4340079"><ele>60.0</ele><time>2026-04-19T16:32:59.997Z</time></trkpt><trkpt lat="41.63669" lon="15.4341397"><ele>59.0</ele><time>2026-04-19T16:33:00.996Z</time></trkpt><trkpt lat="41.636567" lon="15.4342731"><ele>59.0</ele><time>2026-04-19T16:33:01.996Z</time></trkpt><trkpt lat="41.6364423" lon="15.4344035"><ele>59.0</ele><time>2026-04-19T16:33:02.997Z</time></trkpt><trkpt lat="41.6363159" lon="15.4345322"><ele>59.0</ele><time>2026-04-19T16:33:03.996Z</time></trkpt><trkpt lat="41.6361873" lon="15.434661"><ele>58.66666666666667</ele><time>2026-04-19T16:33:04.997Z</time></trkpt><trkpt lat="41.636058" lon="15.4347931"><ele>58.33333333333333</ele><time>2026-04-19T16:33:05.997Z</time></trkpt><trkpt lat="41.6359308" lon="15.4349282"><ele>58.0</ele><time>2026-04-19T16:33:06.996Z</time></trkpt><trkpt lat="41.6358023" lon="15.4350657"><ele>58.0</ele><time>2026-04-19T16:33:07.996Z</time></trkpt><trkpt lat="41.6356713" lon="15.435201"><ele>58.0</ele><time>2026-04-19T16:33:08.997Z</time></trkpt><trkpt lat="41.6355378" lon="15.43534"><ele>58.0</ele><time>2026-04-19T16:33:09.996Z</time></trkpt><trkpt lat="41.6354014" lon="15.4354827"><ele>57.33333333333333</ele><time>2026-04-19T16:33:10.996Z</time></trkpt><trkpt lat="41.6352628" lon="15.4356281"><ele>56.66666666666667</ele><time>2026-04-19T16:33:11.996Z</time></trkpt><trkpt lat="41.6351246" lon="15.435774"><ele>56.0</ele><time>2026-04-19T16:33:12.996Z</time></trkpt><trkpt lat="41.6349865" lon="15.4359173"><ele>56.0</ele><time>2026-04-19T16:33:13.996Z</time></trkpt><trkpt lat="41.6348483" lon="15.4360596"><ele>56.0</ele><time>2026-04-19T16:33:14.996Z</time></trkpt><trkpt lat="41.6347109" lon="15.4362033"><ele>56.0</ele><time>2026-04-19T16:33:15.996Z</time></trkpt><trkpt lat="41.634574" lon="15.4363476"><ele>55.333333333333336</ele><time>2026-04-19T16:33:16.996Z</time></trkpt><trkpt lat="41.6344374" lon="15.4364913"><ele>54.66666666666667</ele><time>2026-04-19T16:33:17.996Z</time></trkpt><trkpt lat="41.6342999" lon="15.4366338"><ele>54.0</ele><time>2026-04-19T16:33:18.996Z</time></trkpt><trkpt lat="41.6341633" lon="15.4367762"><ele>54.0</ele><time>2026-04-19T16:33:19.996Z</time></trkpt><trkpt lat="41.6340254" lon="15.4369204"><ele>54.0</ele><time>2026-04-19T16:33:20.996Z</time></trkpt><trkpt lat="41.6338878" lon="15.4370664"><ele>54.0</ele><time>2026-04-19T16:33:21.996Z</time></trkpt><trkpt lat="41.6337487" lon="15.4372111"><ele>53.33333333333333</ele><time>2026-04-19T16:33:22.996Z</time></trkpt><trkpt lat="41.6336079" lon="15.4373555"><ele>52.666666666666664</ele><time>2026-04-19T16:33:23.996Z</time></trkpt><trkpt lat="41.6334684" lon="15.4375012"><ele>52.0</ele><time>2026-04-19T16:33:24.996Z</time></trkpt><trkpt lat="41.633329" lon="15.4376492"><ele>52.0</ele><time>2026-04-19T16:33:25.996Z</time></trkpt><trkpt lat="41.6331884" lon="15.4377962"><ele>52.0</ele><time>2026-04-19T16:33:26.996Z</time></trkpt><trkpt lat="41.6330476" lon="15.4379444"><ele>52.0</ele><time>2026-04-19T16:33:27.996Z</time></trkpt><trkpt lat="41.6329063" lon="15.4380938"><ele>51.666666666666664</ele><time>2026-04-19T16:33:28.996Z</time></trkpt><trkpt lat="41.6327652" lon="15.438246"><ele>51.33333333333333</ele><time>2026-04-19T16:33:29.996Z</time></trkpt><trkpt lat="41.632624" lon="15.4383979"><ele>51.0</ele><time>2026-04-19T16:33:30.996Z</time></trkpt><trkpt lat="41.6324808" lon="15.4385502"><ele>51.0</ele><time>2026-04-19T16:33:31.996Z</time></trkpt><trkpt lat="41.6323345" lon="15.4386971"><ele>51.0</ele><time>2026-04-19T16:33:32.996Z</time></trkpt><trkpt lat="41.6321907" lon="15.4388478"><ele>51.0</ele><time>2026-04-19T16:33:33.996Z</time></trkpt><trkpt lat="41.6320459" lon="15.438998"><ele>51.33333333333333</ele><time>2026-04-19T16:33:34.996Z</time></trkpt><trkpt lat="41.6319021" lon="15.4391447"><ele>51.666666666666664</ele><time>2026-04-19T16:33:35.996Z</time></trkpt><trkpt lat="41.6317603" lon="15.4392909"><ele>52.0</ele><time>2026-04-19T16:33:36.996Z</time></trkpt><trkpt lat="41.631623" lon="15.4394362"><ele>52.0</ele><time>2026-04-19T16:33:37.996Z</time></trkpt><trkpt lat="41.6314867" lon="15.4395784"><ele>52.0</ele><time>2026-04-19T16:33:38.996Z</time></trkpt><trkpt lat="41.6313516" lon="15.4397192"><ele>52.0</ele><time>2026-04-19T16:33:39.996Z</time></trkpt><trkpt lat="41.6312197" lon="15.439858"><ele>51.33333333333333</ele><time>2026-04-19T16:33:40.997Z</time></trkpt><trkpt lat="41.6310881" lon="15.4399942"><ele>50.66666666666667</ele><time>2026-04-19T16:33:41.997Z</time></trkpt><trkpt lat="41.6309581" lon="15.440129"><ele>50.0</ele><time>2026-04-19T16:33:42.996Z</time></trkpt><trkpt lat="41.6308282" lon="15.4402627"><ele>50.0</ele><time>2026-04-19T16:33:43.997Z</time></trkpt><trkpt lat="41.6306996" lon="15.4403959"><ele>50.0</ele><time>2026-04-19T16:33:44.997Z</time></trkpt><trkpt lat="41.6305714" lon="15.4405305"><ele>50.0</ele><time>2026-04-19T16:33:45.996Z</time></trkpt><trkpt lat="41.6304423" lon="15.4406658"><ele>50.0</ele><time>2026-04-19T16:33:46.996Z</time></trkpt><trkpt lat="41.6303111" lon="15.4408013"><ele>50.0</ele><time>2026-04-19T16:33:47.996Z</time></trkpt><trkpt lat="41.6301795" lon="15.4409378"><ele>50.0</ele><time>2026-04-19T16:33:48.996Z</time></trkpt><trkpt lat="41.6300478" lon="15.4410744"><ele>50.0</ele><time>2026-04-19T16:33:49.996Z</time></trkpt><trkpt lat="41.629916" lon="15.4412124"><ele>50.0</ele><time>2026-04-19T16:33:50.996Z</time></trkpt><trkpt lat="41.6297854" lon="15.441352"><ele>50.0</ele><time>2026-04-19T16:33:51.996Z</time></trkpt><trkpt lat="41.6296539" lon="15.4414908"><ele>50.0</ele><time>2026-04-19T16:33:52.996Z</time></trkpt><trkpt lat="41.6295211" lon="15.4416292"><ele>50.0</ele><time>2026-04-19T16:33:53.996Z</time></trkpt><trkpt lat="41.6293889" lon="15.4417676"><ele>50.0</ele><time>2026-04-19T16:33:54.996Z</time></trkpt><trkpt lat="41.6292569" lon="15.4419067"><ele>49.66666666666667</ele><time>2026-04-19T16:33:55.996Z</time></trkpt><trkpt lat="41.6291254" lon="15.442047"><ele>49.33333333333333</ele><time>2026-04-19T16:33:56.997Z</time></trkpt><trkpt lat="41.6289938" lon="15.4421881"><ele>49.0</ele><time>2026-04-19T16:33:57.996Z</time></trkpt><trkpt lat="41.6288622" lon="15.4423286"><ele>49.0</ele><time>2026-04-19T16:33:58.996Z</time></trkpt><trkpt lat="41.6287303" lon="15.4424675"><ele>49.0</ele><time>2026-04-19T16:33:59.996Z</time></trkpt><trkpt lat="41.6285969" lon="15.4426069"><ele>49.0</ele><time>2026-04-19T16:34:00.996Z</time></trkpt><trkpt lat="41.6284623" lon="15.4427468"><ele>49.33333333333333</ele><time>2026-04-19T16:34:01.997Z</time></trkpt><trkpt lat="41.6283275" lon="15.4428873"><ele>49.66666666666667</ele><time>2026-04-19T16:34:02.996Z</time></trkpt><trkpt lat="41.6281947" lon="15.443027"><ele>50.0</ele><time>2026-04-19T16:34:03.996Z</time></trkpt><trkpt lat="41.6280614" lon="15.4431668"><ele>50.66666666666667</ele><time>2026-04-19T16:34:04.996Z</time></trkpt><trkpt lat="41.627928" lon="15.4433057"><ele>51.33333333333333</ele><time>2026-04-19T16:34:05.996Z</time></trkpt><trkpt lat="41.6277952" lon="15.4434474"><ele>52.0</ele><time>2026-04-19T16:34:06.996Z</time></trkpt><trkpt lat="41.6276609" lon="15.443588"><ele>51.0</ele><time>2026-04-19T16:34:07.996Z</time></trkpt><trkpt lat="41.6275273" lon="15.443727"><ele>50.0</ele><time>2026-04-19T16:34:08.996Z</time></trkpt><trkpt lat="41.6273935" lon="15.4438644"><ele>49.0</ele><time>2026-04-19T16:34:09.997Z</time></trkpt><trkpt lat="41.6272594" lon="15.4440033"><ele>49.0</ele><time>2026-04-19T16:34:10.997Z</time></trkpt><trkpt lat="41.627127" lon="15.4441431"><ele>49.0</ele><time>2026-04-19T16:34:11.996Z</time></trkpt><trkpt lat="41.626994" lon="15.4442806"><ele>49.0</ele><time>2026-04-19T16:34:12.996Z</time></trkpt><trkpt lat="41.6268633" lon="15.4444172"><ele>49.33333333333333</ele><time>2026-04-19T16:34:13.996Z</time></trkpt><trkpt lat="41.6267317" lon="15.4445538"><ele>49.66666666666667</ele><time>2026-04-19T16:34:14.997Z</time></trkpt><trkpt lat="41.6266012" lon="15.4446905"><ele>50.0</ele><time>2026-04-19T16:34:15.996Z</time></trkpt><trkpt lat="41.6264699" lon="15.4448237"><ele>50.0</ele><time>2026-04-19T16:34:16.996Z</time></trkpt><trkpt lat="41.6263386" lon="15.4449567"><ele>50.0</ele><time>2026-04-19T16:34:17.996Z</time></trkpt><trkpt lat="41.6262088" lon="15.4450942"><ele>50.0</ele><time>2026-04-19T16:34:18.996Z</time></trkpt><trkpt lat="41.6260801" lon="15.4452299"><ele>50.0</ele><time>2026-04-19T16:34:19.996Z</time></trkpt><trkpt lat="41.6259505" lon="15.4453675"><ele>50.0</ele><time>2026-04-19T16:34:20.997Z</time></trkpt><trkpt lat="41.6258205" lon="15.4455056"><ele>50.0</ele><time>2026-04-19T16:34:21.996Z</time></trkpt><trkpt lat="41.6256882" lon="15.4456428"><ele>50.0</ele><time>2026-04-19T16:34:22.996Z</time></trkpt><trkpt lat="41.6255556" lon="15.4457801"><ele>50.0</ele><time>2026-04-19T16:34:23.997Z</time></trkpt><trkpt lat="41.6254234" lon="15.4459195"><ele>50.0</ele><time>2026-04-19T16:34:24.997Z</time></trkpt><trkpt lat="41.6252944" lon="15.4460601"><ele>50.0</ele><time>2026-04-19T16:34:25.997Z</time></trkpt><trkpt lat="41.6251624" lon="15.4462015"><ele>50.0</ele><time>2026-04-19T16:34:26.997Z</time></trkpt><trkpt lat="41.6250306" lon="15.446344"><ele>50.0</ele><time>2026-04-19T16:34:27.998Z</time></trkpt><trkpt lat="41.6248964" lon="15.4464875"><ele>49.333333333333336</ele><time>2026-04-19T16:34:28.997Z</time></trkpt><trkpt lat="41.6247618" lon="15.4466332"><ele>48.66666666666667</ele><time>2026-04-19T16:34:29.997Z</time></trkpt><trkpt lat="41.6246254" lon="15.4467789"><ele>48.0</ele><time>2026-04-19T16:34:30.997Z</time></trkpt><trkpt lat="41.6244876" lon="15.4469254"><ele>48.0</ele><time>2026-04-19T16:34:31.997Z</time></trkpt><trkpt lat="41.6243492" lon="15.4470697"><ele>48.0</ele><time>2026-04-19T16:34:32.997Z</time></trkpt><trkpt lat="41.6242114" lon="15.4472139"><ele>48.0</ele><time>2026-04-19T16:34:33.997Z</time></trkpt><trkpt lat="41.6240736" lon="15.4473595"><ele>48.0</ele><time>2026-04-19T16:34:34.997Z</time></trkpt><trkpt lat="41.6239367" lon="15.4475059"><ele>48.0</ele><time>2026-04-19T16:34:35.997Z</time></trkpt><trkpt lat="41.6238023" lon="15.4476547"><ele>48.0</ele><time>2026-04-19T16:34:36.998Z</time></trkpt><trkpt lat="41.6236677" lon="15.4478028"><ele>48.0</ele><time>2026-04-19T16:34:37.997Z</time></trkpt><trkpt lat="41.6235301" lon="15.4479468"><ele>48.0</ele><time>2026-04-19T16:34:38.997Z</time></trkpt><trkpt lat="41.6233951" lon="15.4480918"><ele>48.0</ele><time>2026-04-19T16:34:39.997Z</time></trkpt><trkpt lat="41.6232585" lon="15.4482326"><ele>48.33333333333333</ele><time>2026-04-19T16:34:40.997Z</time></trkpt><trkpt lat="41.6231221" lon="15.4483726"><ele>48.666666666666664</ele><time>2026-04-19T16:34:41.997Z</time></trkpt><trkpt lat="41.6229883" lon="15.4485168"><ele>49.0</ele><time>2026-04-19T16:34:42.997Z</time></trkpt><trkpt lat="41.6228533" lon="15.4486561"><ele>49.0</ele><time>2026-04-19T16:34:43.997Z</time></trkpt><trkpt lat="41.6227217" lon="15.4487959"><ele>49.0</ele><time>2026-04-19T16:34:44.997Z</time></trkpt><trkpt lat="41.6225888" lon="15.4489324"><ele>49.0</ele><time>2026-04-19T16:34:45.997Z</time></trkpt><trkpt lat="41.622457" lon="15.4490687"><ele>49.0</ele><time>2026-04-19T16:34:46.997Z</time></trkpt><trkpt lat="41.6223232" lon="15.4492029"><ele>49.0</ele><time>2026-04-19T16:34:47.997Z</time></trkpt><trkpt lat="41.6221927" lon="15.4493383"><ele>49.0</ele><time>2026-04-19T16:34:48.997Z</time></trkpt><trkpt lat="41.6220649" lon="15.4494768"><ele>49.0</ele><time>2026-04-19T16:34:49.997Z</time></trkpt><trkpt lat="41.621938" lon="15.4496138"><ele>49.0</ele><time>2026-04-19T16:34:50.998Z</time></trkpt><trkpt lat="41.6218103" lon="15.4497505"><ele>49.0</ele><time>2026-04-19T16:34:51.997Z</time></trkpt><trkpt lat="41.621682" lon="15.449886"><ele>49.0</ele><time>2026-04-19T16:34:52.997Z</time></trkpt><trkpt lat="41.621552" lon="15.4500172"><ele>49.0</ele><time>2026-04-19T16:34:53.997Z</time></trkpt><trkpt lat="41.6214223" lon="15.450153"><ele>49.0</ele><time>2026-04-19T16:34:54.998Z</time></trkpt><trkpt lat="41.6212924" lon="15.4502941"><ele>49.0</ele><time>2026-04-19T16:34:55.997Z</time></trkpt><trkpt lat="41.6211574" lon="15.4504246"><ele>49.0</ele><time>2026-04-19T16:34:56.997Z</time></trkpt><trkpt lat="41.6210258" lon="15.4505617"><ele>49.0</ele><time>2026-04-19T16:34:57.998Z</time></trkpt><trkpt lat="41.6208926" lon="15.4507"><ele>48.666666666666664</ele><time>2026-04-19T16:34:58.998Z</time></trkpt><trkpt lat="41.6207581" lon="15.4508384"><ele>48.33333333333333</ele><time>2026-04-19T16:34:59.997Z</time></trkpt><trkpt lat="41.6206214" lon="15.4509739"><ele>48.0</ele><time>2026-04-19T16:35:00.997Z</time></trkpt><trkpt lat="41.6204845" lon="15.4511091"><ele>48.0</ele><time>2026-04-19T16:35:01.997Z</time></trkpt><trkpt lat="41.6203501" lon="15.4512476"><ele>48.0</ele><time>2026-04-19T16:35:02.997Z</time></trkpt><trkpt lat="41.6202164" lon="15.451386"><ele>48.0</ele><time>2026-04-19T16:35:03.997Z</time></trkpt><trkpt lat="41.6200845" lon="15.4515322"><ele>48.0</ele><time>2026-04-19T16:35:04.997Z</time></trkpt><trkpt lat="41.619954" lon="15.4516776"><ele>48.0</ele><time>2026-04-19T16:35:05.997Z</time></trkpt><trkpt lat="41.6198229" lon="15.4518202"><ele>48.0</ele><time>2026-04-19T16:35:06.997Z</time></trkpt><trkpt lat="41.6196928" lon="15.451963"><ele>48.0</ele><time>2026-04-19T16:35:07.997Z</time></trkpt><trkpt lat="41.619563" lon="15.4521035"><ele>48.0</ele><time>2026-04-19T16:35:08.998Z</time></trkpt><trkpt lat="41.6194304" lon="15.4522383"><ele>48.0</ele><time>2026-04-19T16:35:09.997Z</time></trkpt><trkpt lat="41.6192984" lon="15.4523755"><ele>48.0</ele><time>2026-04-19T16:35:10.998Z</time></trkpt><trkpt lat="41.6191697" lon="15.4525139"><ele>48.0</ele><time>2026-04-19T16:35:11.997Z</time></trkpt><trkpt lat="41.6190427" lon="15.4526557"><ele>48.0</ele><time>2026-04-19T16:35:12.998Z</time></trkpt><trkpt lat="41.6189161" lon="15.4527948"><ele>48.0</ele><time>2026-04-19T16:35:13.997Z</time></trkpt><trkpt lat="41.6187871" lon="15.452932"><ele>48.0</ele><time>2026-04-19T16:35:14.997Z</time></trkpt><trkpt lat="41.6186559" lon="15.4530635"><ele>48.0</ele><time>2026-04-19T16:35:15.997Z</time></trkpt><trkpt lat="41.6185259" lon="15.453198"><ele>48.33333333333333</ele><time>2026-04-19T16:35:16.998Z</time></trkpt><trkpt lat="41.6183959" lon="15.4533327"><ele>48.666666666666664</ele><time>2026-04-19T16:35:17.997Z</time></trkpt><trkpt lat="41.6182657" lon="15.4534637"><ele>49.0</ele><time>2026-04-19T16:35:18.997Z</time></trkpt><trkpt lat="41.6181359" lon="15.4535955"><ele>49.0</ele><time>2026-04-19T16:35:19.997Z</time></trkpt><trkpt lat="41.6180073" lon="15.4537272"><ele>49.0</ele><time>2026-04-19T16:35:20.997Z</time></trkpt><trkpt lat="41.617879" lon="15.45386"><ele>49.0</ele><time>2026-04-19T16:35:21.998Z</time></trkpt><trkpt lat="41.6177509" lon="15.4539893"><ele>48.75</ele><time>2026-04-19T16:35:22.996Z</time></trkpt><trkpt lat="41.6176268" lon="15.4541186"><ele>48.5</ele><time>2026-04-19T16:35:23.996Z</time></trkpt><trkpt lat="41.6175081" lon="15.4542398"><ele>48.25</ele><time>2026-04-19T16:35:24.996Z</time></trkpt><trkpt lat="41.6173961" lon="15.4543534"><ele>48.0</ele><time>2026-04-19T16:35:25.997Z</time></trkpt><trkpt lat="41.6172896" lon="15.4544582"><ele>48.0</ele><time>2026-04-19T16:35:26.996Z</time></trkpt><trkpt lat="41.6171894" lon="15.4545566"><ele>48.0</ele><time>2026-04-19T16:35:27.997Z</time></trkpt><trkpt lat="41.6170961" lon="15.4546524"><ele>48.0</ele><time>2026-04-19T16:35:28.996Z</time></trkpt><trkpt lat="41.6170119" lon="15.4547409"><ele>48.0</ele><time>2026-04-19T16:35:29.996Z</time></trkpt><trkpt lat="41.6169371" lon="15.454814"><ele>48.0</ele><time>2026-04-19T16:35:30.996Z</time></trkpt><trkpt lat="41.6168693" lon="15.4548772"><ele>48.0</ele><time>2026-04-19T16:35:31.996Z</time></trkpt><trkpt lat="41.616806" lon="15.4549432"><ele>48.0</ele><time>2026-04-19T16:35:32.996Z</time></trkpt><trkpt lat="41.6167332" lon="15.4550166"><ele>48.0</ele><time>2026-04-19T16:35:33.996Z</time></trkpt><trkpt lat="41.6166505" lon="15.4550977"><ele>48.0</ele><time>2026-04-19T16:35:34.996Z</time></trkpt><trkpt lat="41.616555" lon="15.4551933"><ele>48.0</ele><time>2026-04-19T16:35:35.997Z</time></trkpt><trkpt lat="41.6164542" lon="15.4552987"><ele>48.0</ele><time>2026-04-19T16:35:36.997Z</time></trkpt><trkpt lat="41.6163459" lon="15.4554095"><ele>48.0</ele><time>2026-04-19T16:35:37.996Z</time></trkpt><trkpt lat="41.6162332" lon="15.4555261"><ele>48.0</ele><time>2026-04-19T16:35:38.997Z</time></trkpt><trkpt lat="41.6161191" lon="15.4556469"><ele>48.0</ele><time>2026-04-19T16:35:39.996Z</time></trkpt><trkpt lat="41.6160025" lon="15.455769"><ele>48.0</ele><time>2026-04-19T16:35:40.997Z</time></trkpt><trkpt lat="41.6158815" lon="15.455894"><ele>48.0</ele><time>2026-04-19T16:35:41.997Z</time></trkpt><trkpt lat="41.6157566" lon="15.4560226"><ele>48.0</ele><time>2026-04-19T16:35:42.996Z</time></trkpt><trkpt lat="41.6156271" lon="15.4561518"><ele>48.0</ele><time>2026-04-19T16:35:43.996Z</time></trkpt><trkpt lat="41.6154948" lon="15.4562855"><ele>48.0</ele><time>2026-04-19T16:35:44.996Z</time></trkpt><trkpt lat="41.6153597" lon="15.4564209"><ele>48.0</ele><time>2026-04-19T16:35:45.996Z</time></trkpt><trkpt lat="41.6152228" lon="15.4565577"><ele>47.333333333333336</ele><time>2026-04-19T16:35:46.996Z</time></trkpt><trkpt lat="41.6150828" lon="15.4566948"><ele>46.66666666666667</ele><time>2026-04-19T16:35:47.996Z</time></trkpt><trkpt lat="41.6149381" lon="15.456832"><ele>46.0</ele><time>2026-04-19T16:35:48.997Z</time></trkpt><trkpt lat="41.6147905" lon="15.4569678"><ele>46.0</ele><time>2026-04-19T16:35:49.996Z</time></trkpt><trkpt lat="41.6146416" lon="15.4571052"><ele>46.0</ele><time>2026-04-19T16:35:50.996Z</time></trkpt><trkpt lat="41.6144926" lon="15.4572438"><ele>46.0</ele><time>2026-04-19T16:35:51.996Z</time></trkpt><trkpt lat="41.6143419" lon="15.4573836"><ele>46.66666666666667</ele><time>2026-04-19T16:35:52.997Z</time></trkpt><trkpt lat="41.6141896" lon="15.4575232"><ele>47.333333333333336</ele><time>2026-04-19T16:35:53.996Z</time></trkpt><trkpt lat="41.614036" lon="15.4576635"><ele>48.0</ele><time>2026-04-19T16:35:54.996Z</time></trkpt><trkpt lat="41.6138832" lon="15.4578048"><ele>48.0</ele><time>2026-04-19T16:35:55.996Z</time></trkpt><trkpt lat="41.61373" lon="15.4579474"><ele>48.0</ele><time>2026-04-19T16:35:56.996Z</time></trkpt><trkpt lat="41.613578" lon="15.4580872"><ele>48.0</ele><time>2026-04-19T16:35:57.996Z</time></trkpt><trkpt lat="41.613429" lon="15.4582234"><ele>47.666666666666664</ele><time>2026-04-19T16:35:58.996Z</time></trkpt><trkpt lat="41.6132826" lon="15.4583576"><ele>47.33333333333333</ele><time>2026-04-19T16:35:59.996Z</time></trkpt><trkpt lat="41.6131389" lon="15.4584905"><ele>47.0</ele><time>2026-04-19T16:36:00.996Z</time></trkpt><trkpt lat="41.6129971" lon="15.458623"><ele>47.0</ele><time>2026-04-19T16:36:01.996Z</time></trkpt><trkpt lat="41.6128535" lon="15.4587546"><ele>47.0</ele><time>2026-04-19T16:36:02.996Z</time></trkpt><trkpt lat="41.6127076" lon="15.4588865"><ele>47.0</ele><time>2026-04-19T16:36:03.996Z</time></trkpt><trkpt lat="41.6125622" lon="15.4590216"><ele>46.666666666666664</ele><time>2026-04-19T16:36:04.996Z</time></trkpt><trkpt lat="41.612416" lon="15.4591559"><ele>46.333333333333336</ele><time>2026-04-19T16:36:05.996Z</time></trkpt><trkpt lat="41.6122693" lon="15.4592894"><ele>46.0</ele><time>2026-04-19T16:36:06.996Z</time></trkpt><trkpt lat="41.612123" lon="15.4594225"><ele>46.333333333333336</ele><time>2026-04-19T16:36:07.996Z</time></trkpt><trkpt lat="41.6119758" lon="15.4595576"><ele>46.666666666666664</ele><time>2026-04-19T16:36:08.996Z</time></trkpt><trkpt lat="41.6118289" lon="15.4596918"><ele>47.0</ele><time>2026-04-19T16:36:09.996Z</time></trkpt><trkpt lat="41.611681" lon="15.4598253"><ele>47.0</ele><time>2026-04-19T16:36:10.996Z</time></trkpt><trkpt lat="41.6115325" lon="15.4599581"><ele>47.0</ele><time>2026-04-19T16:36:11.996Z</time></trkpt><trkpt lat="41.6113855" lon="15.4600929"><ele>47.0</ele><time>2026-04-19T16:36:12.996Z</time></trkpt><trkpt lat="41.6112402" lon="15.4602265"><ele>47.33333333333333</ele><time>2026-04-19T16:36:13.997Z</time></trkpt><trkpt lat="41.6110942" lon="15.4603579"><ele>47.666666666666664</ele><time>2026-04-19T16:36:14.996Z</time></trkpt><trkpt lat="41.6109478" lon="15.4604882"><ele>48.0</ele><time>2026-04-19T16:36:15.996Z</time></trkpt><trkpt lat="41.6108022" lon="15.4606174"><ele>48.0</ele><time>2026-04-19T16:36:16.996Z</time></trkpt><trkpt lat="41.6106585" lon="15.4607475"><ele>48.0</ele><time>2026-04-19T16:36:17.996Z</time></trkpt><trkpt lat="41.6105163" lon="15.4608775"><ele>48.0</ele><time>2026-04-19T16:36:18.996Z</time></trkpt><trkpt lat="41.6103737" lon="15.4610073"><ele>48.0</ele><time>2026-04-19T16:36:19.996Z</time></trkpt><trkpt lat="41.610231" lon="15.461137"><ele>48.0</ele><time>2026-04-19T16:36:20.996Z</time></trkpt><trkpt lat="41.610089" lon="15.4612667"><ele>48.0</ele><time>2026-04-19T16:36:21.996Z</time></trkpt><trkpt lat="41.6099496" lon="15.4613952"><ele>48.0</ele><time>2026-04-19T16:36:22.996Z</time></trkpt><trkpt lat="41.6098116" lon="15.4615229"><ele>48.0</ele><time>2026-04-19T16:36:23.996Z</time></trkpt><trkpt lat="41.6096773" lon="15.4616449"><ele>48.0</ele><time>2026-04-19T16:36:24.996Z</time></trkpt><trkpt lat="41.6095467" lon="15.4617622"><ele>47.666666666666664</ele><time>2026-04-19T16:36:25.996Z</time></trkpt><trkpt lat="41.6094174" lon="15.4618793"><ele>47.33333333333333</ele><time>2026-04-19T16:36:26.996Z</time></trkpt><trkpt lat="41.6092884" lon="15.4619978"><ele>47.0</ele><time>2026-04-19T16:36:27.996Z</time></trkpt><trkpt lat="41.6091601" lon="15.4621139"><ele>46.666666666666664</ele><time>2026-04-19T16:36:28.996Z</time></trkpt><trkpt lat="41.6090297" lon="15.4622283"><ele>46.333333333333336</ele><time>2026-04-19T16:36:29.996Z</time></trkpt><trkpt lat="41.6088993" lon="15.4623417"><ele>46.0</ele><time>2026-04-19T16:36:30.996Z</time></trkpt><trkpt lat="41.6087666" lon="15.4624531"><ele>46.66666666666667</ele><time>2026-04-19T16:36:31.996Z</time></trkpt><trkpt lat="41.608633" lon="15.4625604"><ele>47.333333333333336</ele><time>2026-04-19T16:36:32.996Z</time></trkpt><trkpt lat="41.6084959" lon="15.4626611"><ele>48.0</ele><time>2026-04-19T16:36:33.996Z</time></trkpt><trkpt lat="41.6083568" lon="15.4627562"><ele>48.0</ele><time>2026-04-19T16:36:34.996Z</time></trkpt><trkpt lat="41.6082175" lon="15.4628489"><ele>48.0</ele><time>2026-04-19T16:36:35.996Z</time></trkpt><trkpt lat="41.6080764" lon="15.4629435"><ele>48.0</ele><time>2026-04-19T16:36:36.996Z</time></trkpt><trkpt lat="41.6079322" lon="15.4630367"><ele>48.0</ele><time>2026-04-19T16:36:37.996Z</time></trkpt><trkpt lat="41.6077853" lon="15.4631284"><ele>48.0</ele><time>2026-04-19T16:36:38.996Z</time></trkpt><trkpt lat="41.6076364" lon="15.4632181"><ele>48.0</ele><time>2026-04-19T16:36:39.996Z</time></trkpt><trkpt lat="41.6074862" lon="15.4633069"><ele>48.0</ele><time>2026-04-19T16:36:40.996Z</time></trkpt><trkpt lat="41.6073366" lon="15.4633956"><ele>48.0</ele><time>2026-04-19T16:36:41.996Z</time></trkpt><trkpt lat="41.6071892" lon="15.4634849"><ele>48.0</ele><time>2026-04-19T16:36:42.996Z</time></trkpt><trkpt lat="41.6070428" lon="15.4635765"><ele>48.33333333333333</ele><time>2026-04-19T16:36:43.997Z</time></trkpt><trkpt lat="41.6068969" lon="15.4636669"><ele>48.666666666666664</ele><time>2026-04-19T16:36:44.996Z</time></trkpt><trkpt lat="41.6067526" lon="15.463756"><ele>49.0</ele><time>2026-04-19T16:36:45.996Z</time></trkpt><trkpt lat="41.606608" lon="15.4638414"><ele>49.0</ele><time>2026-04-19T16:36:46.996Z</time></trkpt><trkpt lat="41.6064631" lon="15.4639268"><ele>49.0</ele><time>2026-04-19T16:36:47.997Z</time></trkpt><trkpt lat="41.6063162" lon="15.4640158"><ele>49.0</ele><time>2026-04-19T16:36:48.996Z</time></trkpt><trkpt lat="41.6061664" lon="15.4641052"><ele>48.0</ele><time>2026-04-19T16:36:49.996Z</time></trkpt><trkpt lat="41.6060135" lon="15.4641958"><ele>47.0</ele><time>2026-04-19T16:36:50.997Z</time></trkpt><trkpt lat="41.6058596" lon="15.4642864"><ele>46.0</ele><time>2026-04-19T16:36:51.996Z</time></trkpt><trkpt lat="41.6057038" lon="15.4643791"><ele>46.0</ele><time>2026-04-19T16:36:52.996Z</time></trkpt><trkpt lat="41.6055443" lon="15.4644739"><ele>46.0</ele><time>2026-04-19T16:36:53.996Z</time></trkpt><trkpt lat="41.6053823" lon="15.4645668"><ele>46.0</ele><time>2026-04-19T16:36:54.996Z</time></trkpt><trkpt lat="41.6052218" lon="15.4646593"><ele>46.66666666666667</ele><time>2026-04-19T16:36:55.996Z</time></trkpt><trkpt lat="41.6050643" lon="15.4647508"><ele>47.333333333333336</ele><time>2026-04-19T16:36:56.996Z</time></trkpt><trkpt lat="41.6049113" lon="15.4648444"><ele>48.0</ele><time>2026-04-19T16:36:57.996Z</time></trkpt><trkpt lat="41.6047593" lon="15.4649353"><ele>48.0</ele><time>2026-04-19T16:36:58.996Z</time></trkpt><trkpt lat="41.6046058" lon="15.4650266"><ele>48.0</ele><time>2026-04-19T16:36:59.996Z</time></trkpt><trkpt lat="41.6044512" lon="15.4651192"><ele>48.0</ele><time>2026-04-19T16:37:00.996Z</time></trkpt><trkpt lat="41.6042938" lon="15.4652136"><ele>47.666666666666664</ele><time>2026-04-19T16:37:01.996Z</time></trkpt><trkpt lat="41.6041363" lon="15.4653068"><ele>47.33333333333333</ele><time>2026-04-19T16:37:02.997Z</time></trkpt><trkpt lat="41.6039766" lon="15.4654005"><ele>47.0</ele><time>2026-04-19T16:37:03.996Z</time></trkpt><trkpt lat="41.6038152" lon="15.4654944"><ele>47.0</ele><time>2026-04-19T16:37:04.996Z</time></trkpt><trkpt lat="41.6036534" lon="15.4655918"><ele>47.0</ele><time>2026-04-19T16:37:05.996Z</time></trkpt><trkpt lat="41.6034894" lon="15.4656891"><ele>47.0</ele><time>2026-04-19T16:37:06.996Z</time></trkpt><trkpt lat="41.6033246" lon="15.4657867"><ele>47.0</ele><time>2026-04-19T16:37:07.996Z</time></trkpt><trkpt lat="41.6031596" lon="15.4658883"><ele>47.0</ele><time>2026-04-19T16:37:08.996Z</time></trkpt><trkpt lat="41.6029938" lon="15.4659886"><ele>47.0</ele><time>2026-04-19T16:37:09.996Z</time></trkpt><trkpt lat="41.6028288" lon="15.4660905"><ele>47.0</ele><time>2026-04-19T16:37:10.996Z</time></trkpt><trkpt lat="41.6026639" lon="15.4661904"><ele>47.0</ele><time>2026-04-19T16:37:11.997Z</time></trkpt><trkpt lat="41.6024991" lon="15.4662894"><ele>47.0</ele><time>2026-04-19T16:37:12.997Z</time></trkpt><trkpt lat="41.6023362" lon="15.4663871"><ele>46.666666666666664</ele><time>2026-04-19T16:37:13.996Z</time></trkpt><trkpt lat="41.6021772" lon="15.4664823"><ele>46.333333333333336</ele><time>2026-04-19T16:37:14.997Z</time></trkpt><trkpt lat="41.6020218" lon="15.4665757"><ele>46.0</ele><time>2026-04-19T16:37:15.996Z</time></trkpt><trkpt lat="41.6018688" lon="15.4666682"><ele>46.0</ele><time>2026-04-19T16:37:16.996Z</time></trkpt><trkpt lat="41.6017186" lon="15.4667586"><ele>46.0</ele><time>2026-04-19T16:37:17.996Z</time></trkpt><trkpt lat="41.6015719" lon="15.4668478"><ele>46.0</ele><time>2026-04-19T16:37:18.997Z</time></trkpt><trkpt lat="41.6014272" lon="15.4669341"><ele>46.0</ele><time>2026-04-19T16:37:19.996Z</time></trkpt><trkpt lat="41.6012836" lon="15.4670197"><ele>46.0</ele><time>2026-04-19T16:37:20.996Z</time></trkpt><trkpt lat="41.6011379" lon="15.4671061"><ele>46.0</ele><time>2026-04-19T16:37:21.996Z</time></trkpt><trkpt lat="41.6009898" lon="15.4671934"><ele>46.333333333333336</ele><time>2026-04-19T16:37:22.996Z</time></trkpt><trkpt lat="41.6008403" lon="15.467285"><ele>46.666666666666664</ele><time>2026-04-19T16:37:23.996Z</time></trkpt><trkpt lat="41.6006897" lon="15.4673772"><ele>47.0</ele><time>2026-04-19T16:37:24.996Z</time></trkpt><trkpt lat="41.6005368" lon="15.4674696"><ele>47.0</ele><time>2026-04-19T16:37:25.996Z</time></trkpt><trkpt lat="41.6003822" lon="15.4675602"><ele>47.0</ele><time>2026-04-19T16:37:26.996Z</time></trkpt><trkpt lat="41.6002277" lon="15.4676525"><ele>47.0</ele><time>2026-04-19T16:37:27.996Z</time></trkpt><trkpt lat="41.6000742" lon="15.467747"><ele>47.0</ele><time>2026-04-19T16:37:28.996Z</time></trkpt><trkpt lat="41.5999197" lon="15.46784"><ele>47.0</ele><time>2026-04-19T16:37:29.996Z</time></trkpt><trkpt lat="41.5997633" lon="15.467932"><ele>47.0</ele><time>2026-04-19T16:37:30.996Z</time></trkpt><trkpt lat="41.599607" lon="15.4680263"><ele>46.666666666666664</ele><time>2026-04-19T16:37:31.996Z</time></trkpt><trkpt lat="41.599451" lon="15.4681203"><ele>46.333333333333336</ele><time>2026-04-19T16:37:32.996Z</time></trkpt><trkpt lat="41.5992951" lon="15.4682115"><ele>46.0</ele><time>2026-04-19T16:37:33.996Z</time></trkpt><trkpt lat="41.5991401" lon="15.4683026"><ele>46.0</ele><time>2026-04-19T16:37:34.996Z</time></trkpt><trkpt lat="41.5989836" lon="15.4683963"><ele>46.0</ele><time>2026-04-19T16:37:35.996Z</time></trkpt><trkpt lat="41.5988283" lon="15.4684923"><ele>46.0</ele><time>2026-04-19T16:37:36.996Z</time></trkpt><trkpt lat="41.5986721" lon="15.4685878"><ele>46.0</ele><time>2026-04-19T16:37:37.997Z</time></trkpt><trkpt lat="41.5985152" lon="15.4686797"><ele>46.0</ele><time>2026-04-19T16:37:38.997Z</time></trkpt><trkpt lat="41.5983573" lon="15.4687725"><ele>46.0</ele><time>2026-04-19T16:37:39.996Z</time></trkpt><trkpt lat="41.5981996" lon="15.4688654"><ele>46.0</ele><time>2026-04-19T16:37:40.996Z</time></trkpt><trkpt lat="41.5980416" lon="15.4689568"><ele>46.0</ele><time>2026-04-19T16:37:41.996Z</time></trkpt><trkpt lat="41.5978842" lon="15.4690502"><ele>46.0</ele><time>2026-04-19T16:37:42.997Z</time></trkpt><trkpt lat="41.5977272" lon="15.4691444"><ele>46.0</ele><time>2026-04-19T16:37:43.997Z</time></trkpt><trkpt lat="41.5975704" lon="15.4692391"><ele>46.0</ele><time>2026-04-19T16:37:44.996Z</time></trkpt><trkpt lat="41.5974137" lon="15.4693348"><ele>46.0</ele><time>2026-04-19T16:37:45.996Z</time></trkpt><trkpt lat="41.5972571" lon="15.4694292"><ele>46.0</ele><time>2026-04-19T16:37:46.996Z</time></trkpt><trkpt lat="41.5971005" lon="15.4695221"><ele>46.0</ele><time>2026-04-19T16:37:47.996Z</time></trkpt><trkpt lat="41.596943" lon="15.4696133"><ele>46.0</ele><time>2026-04-19T16:37:48.996Z</time></trkpt><trkpt lat="41.5967854" lon="15.4697023"><ele>46.0</ele><time>2026-04-19T16:37:49.996Z</time></trkpt><trkpt lat="41.5966284" lon="15.4697936"><ele>46.0</ele><time>2026-04-19T16:37:50.996Z</time></trkpt><trkpt lat="41.5964708" lon="15.4698887"><ele>46.0</ele><time>2026-04-19T16:37:51.996Z</time></trkpt><trkpt lat="41.5963142" lon="15.4699817"><ele>46.0</ele><time>2026-04-19T16:37:52.996Z</time></trkpt><trkpt lat="41.5961599" lon="15.4700736"><ele>46.0</ele><time>2026-04-19T16:37:53.996Z</time></trkpt><trkpt lat="41.5960049" lon="15.4701628"><ele>46.0</ele><time>2026-04-19T16:37:54.996Z</time></trkpt><trkpt lat="41.595851" lon="15.4702514"><ele>46.0</ele><time>2026-04-19T16:37:55.996Z</time></trkpt><trkpt lat="41.595701" lon="15.4703425"><ele>46.0</ele><time>2026-04-19T16:37:56.997Z</time></trkpt><trkpt lat="41.5955519" lon="15.4704315"><ele>46.0</ele><time>2026-04-19T16:37:57.996Z</time></trkpt><trkpt lat="41.5954062" lon="15.4705176"><ele>46.333333333333336</ele><time>2026-04-19T16:37:58.996Z</time></trkpt><trkpt lat="41.5952606" lon="15.4706036"><ele>46.666666666666664</ele><time>2026-04-19T16:37:59.996Z</time></trkpt><trkpt lat="41.595115" lon="15.4706893"><ele>47.0</ele><time>2026-04-19T16:38:00.996Z</time></trkpt><trkpt lat="41.5949714" lon="15.4707777"><ele>47.0</ele><time>2026-04-19T16:38:01.996Z</time></trkpt><trkpt lat="41.5948272" lon="15.4708651"><ele>47.0</ele><time>2026-04-19T16:38:02.996Z</time></trkpt><trkpt lat="41.5946865" lon="15.4709484"><ele>47.0</ele><time>2026-04-19T16:38:03.996Z</time></trkpt><trkpt lat="41.5945563" lon="15.471021"><ele>47.0</ele><time>2026-04-19T16:38:04.996Z</time></trkpt><trkpt lat="41.5944372" lon="15.471084"><ele>47.0</ele><time>2026-04-19T16:38:05.996Z</time></trkpt><trkpt lat="41.594324" lon="15.4711545"><ele>47.0</ele><time>2026-04-19T16:38:06.996Z</time></trkpt><trkpt lat="41.59421" lon="15.4712241"><ele>47.0</ele><time>2026-04-19T16:38:07.996Z</time></trkpt><trkpt lat="41.5940932" lon="15.4712899"><ele>47.0</ele><time>2026-04-19T16:38:08.997Z</time></trkpt><trkpt lat="41.5939742" lon="15.4713631"><ele>47.0</ele><time>2026-04-19T16:38:09.996Z</time></trkpt><trkpt lat="41.5938503" lon="15.4714407"><ele>47.0</ele><time>2026-04-19T16:38:10.996Z</time></trkpt><trkpt lat="41.5937222" lon="15.4715195"><ele>47.0</ele><time>2026-04-19T16:38:11.996Z</time></trkpt><trkpt lat="41.5935927" lon="15.471595"><ele>46.75</ele><time>2026-04-19T16:38:12.996Z</time></trkpt><trkpt lat="41.5934632" lon="15.4716723"><ele>46.5</ele><time>2026-04-19T16:38:13.996Z</time></trkpt><trkpt lat="41.5933347" lon="15.4717506"><ele>46.25</ele><time>2026-04-19T16:38:14.996Z</time></trkpt><trkpt lat="41.5932063" lon="15.4718281"><ele>46.0</ele><time>2026-04-19T16:38:15.996Z</time></trkpt><trkpt lat="41.5930776" lon="15.4719044"><ele>46.0</ele><time>2026-04-19T16:38:16.997Z</time></trkpt><trkpt lat="41.5929476" lon="15.4719789"><ele>46.0</ele><time>2026-04-19T16:38:17.996Z</time></trkpt><trkpt lat="41.5928153" lon="15.4720548"><ele>46.0</ele><time>2026-04-19T16:38:18.996Z</time></trkpt><trkpt lat="41.5926801" lon="15.4721353"><ele>46.0</ele><time>2026-04-19T16:38:19.996Z</time></trkpt><trkpt lat="41.5925436" lon="15.4722159"><ele>46.0</ele><time>2026-04-19T16:38:20.996Z</time></trkpt><trkpt lat="41.5924079" lon="15.4722962"><ele>46.0</ele><time>2026-04-19T16:38:21.997Z</time></trkpt><trkpt lat="41.5922721" lon="15.4723775"><ele>46.0</ele><time>2026-04-19T16:38:22.997Z</time></trkpt><trkpt lat="41.5921354" lon="15.4724568"><ele>46.0</ele><time>2026-04-19T16:38:23.996Z</time></trkpt><trkpt lat="41.591999" lon="15.4725396"><ele>46.0</ele><time>2026-04-19T16:38:24.996Z</time></trkpt><trkpt lat="41.5918625" lon="15.4726219"><ele>46.0</ele><time>2026-04-19T16:38:25.996Z</time></trkpt><trkpt lat="41.5917258" lon="15.472703"><ele>46.0</ele><time>2026-04-19T16:38:26.996Z</time></trkpt><trkpt lat="41.5915866" lon="15.4727831"><ele>46.0</ele><time>2026-04-19T16:38:27.996Z</time></trkpt><trkpt lat="41.5914451" lon="15.4728665"><ele>46.0</ele><time>2026-04-19T16:38:28.997Z</time></trkpt><trkpt lat="41.5913015" lon="15.4729513"><ele>46.0</ele><time>2026-04-19T16:38:29.996Z</time></trkpt><trkpt lat="41.5911564" lon="15.4730367"><ele>46.0</ele><time>2026-04-19T16:38:30.996Z</time></trkpt><trkpt lat="41.5910105" lon="15.4731232"><ele>46.0</ele><time>2026-04-19T16:38:31.996Z</time></trkpt><trkpt lat="41.5908626" lon="15.4732104"><ele>46.0</ele><time>2026-04-19T16:38:32.996Z</time></trkpt><trkpt lat="41.5907181" lon="15.4732981"><ele>46.0</ele><time>2026-04-19T16:38:33.997Z</time></trkpt><trkpt lat="41.5905771" lon="15.4733849"><ele>46.0</ele><time>2026-04-19T16:38:34.997Z</time></trkpt><trkpt lat="41.5904353" lon="15.4734702"><ele>46.0</ele><time>2026-04-19T16:38:35.996Z</time></trkpt><trkpt lat="41.5902926" lon="15.4735552"><ele>46.333333333333336</ele><time>2026-04-19T16:38:36.996Z</time></trkpt><trkpt lat="41.5901489" lon="15.4736385"><ele>46.666666666666664</ele><time>2026-04-19T16:38:37.997Z</time></trkpt><trkpt lat="41.5900053" lon="15.4737237"><ele>47.0</ele><time>2026-04-19T16:38:38.996Z</time></trkpt><trkpt lat="41.5898609" lon="15.473811"><ele>47.0</ele><time>2026-04-19T16:38:39.996Z</time></trkpt><trkpt lat="41.5897134" lon="15.4738994"><ele>47.0</ele><time>2026-04-19T16:38:40.996Z</time></trkpt><trkpt lat="41.5895631" lon="15.4739874"><ele>47.0</ele><time>2026-04-19T16:38:41.996Z</time></trkpt><trkpt lat="41.5894115" lon="15.4740769"><ele>47.0</ele><time>2026-04-19T16:38:42.996Z</time></trkpt><trkpt lat="41.5892597" lon="15.474169"><ele>47.0</ele><time>2026-04-19T16:38:43.996Z</time></trkpt><trkpt lat="41.5891125" lon="15.4742578"><ele>47.0</ele><time>2026-04-19T16:38:44.996Z</time></trkpt><trkpt lat="41.5889703" lon="15.4743419"><ele>47.0</ele><time>2026-04-19T16:38:45.996Z</time></trkpt><trkpt lat="41.5888303" lon="15.4744228"><ele>47.0</ele><time>2026-04-19T16:38:46.996Z</time></trkpt><trkpt lat="41.5886912" lon="15.4745028"><ele>47.0</ele><time>2026-04-19T16:38:47.996Z</time></trkpt><trkpt lat="41.5885556" lon="15.4745832"><ele>46.75</ele><time>2026-04-19T16:38:48.997Z</time></trkpt><trkpt lat="41.5884202" lon="15.4746618"><ele>46.5</ele><time>2026-04-19T16:38:49.996Z</time></trkpt><trkpt lat="41.5882837" lon="15.4747404"><ele>46.25</ele><time>2026-04-19T16:38:50.996Z</time></trkpt><trkpt lat="41.5881446" lon="15.4748219"><ele>46.0</ele><time>2026-04-19T16:38:51.996Z</time></trkpt><trkpt lat="41.5880045" lon="15.4749047"><ele>46.0</ele><time>2026-04-19T16:38:52.997Z</time></trkpt><trkpt lat="41.5878628" lon="15.4749895"><ele>46.0</ele><time>2026-04-19T16:38:53.996Z</time></trkpt><trkpt lat="41.5877197" lon="15.4750757"><ele>46.0</ele><time>2026-04-19T16:38:54.996Z</time></trkpt><trkpt lat="41.5875751" lon="15.4751593"><ele>46.0</ele><time>2026-04-19T16:38:55.997Z</time></trkpt><trkpt lat="41.5874299" lon="15.475244"><ele>46.0</ele><time>2026-04-19T16:38:56.997Z</time></trkpt><trkpt lat="41.5872848" lon="15.4753321"><ele>46.0</ele><time>2026-04-19T16:38:57.997Z</time></trkpt><trkpt lat="41.5871419" lon="15.4754226"><ele>46.333333333333336</ele><time>2026-04-19T16:38:58.996Z</time></trkpt><trkpt lat="41.5870027" lon="15.4755199"><ele>46.666666666666664</ele><time>2026-04-19T16:38:59.996Z</time></trkpt><trkpt lat="41.5868685" lon="15.4756246"><ele>47.0</ele><time>2026-04-19T16:39:00.996Z</time></trkpt><trkpt lat="41.5867392" lon="15.4757352"><ele>47.0</ele><time>2026-04-19T16:39:01.996Z</time></trkpt><trkpt lat="41.5866144" lon="15.4758547"><ele>47.0</ele><time>2026-04-19T16:39:02.996Z</time></trkpt><trkpt lat="41.5864915" lon="15.4759776"><ele>47.0</ele><time>2026-04-19T16:39:03.997Z</time></trkpt><trkpt lat="41.586369" lon="15.4761003"><ele>47.0</ele><time>2026-04-19T16:39:04.997Z</time></trkpt><trkpt lat="41.5862474" lon="15.4762228"><ele>47.0</ele><time>2026-04-19T16:39:05.997Z</time></trkpt><trkpt lat="41.586126" lon="15.4763487"><ele>47.0</ele><time>2026-04-19T16:39:06.996Z</time></trkpt><trkpt lat="41.5860042" lon="15.4764756"><ele>46.33333333333333</ele><time>2026-04-19T16:39:07.997Z</time></trkpt><trkpt lat="41.5858816" lon="15.4766028"><ele>45.666666666666664</ele><time>2026-04-19T16:39:08.996Z</time></trkpt><trkpt lat="41.5857584" lon="15.4767309"><ele>45.0</ele><time>2026-04-19T16:39:09.996Z</time></trkpt><trkpt lat="41.585635" lon="15.4768592"><ele>45.0</ele><time>2026-04-19T16:39:10.996Z</time></trkpt><trkpt lat="41.5855126" lon="15.4769876"><ele>45.0</ele><time>2026-04-19T16:39:11.996Z</time></trkpt><trkpt lat="41.5853896" lon="15.4771159"><ele>45.0</ele><time>2026-04-19T16:39:12.996Z</time></trkpt><trkpt lat="41.5852654" lon="15.4772452"><ele>45.333333333333336</ele><time>2026-04-19T16:39:13.997Z</time></trkpt><trkpt lat="41.5851393" lon="15.4773726"><ele>45.66666666666667</ele><time>2026-04-19T16:39:14.996Z</time></trkpt><trkpt lat="41.5850114" lon="15.4775011"><ele>46.0</ele><time>2026-04-19T16:39:15.996Z</time></trkpt><trkpt lat="41.5848849" lon="15.4776334"><ele>46.0</ele><time>2026-04-19T16:39:16.997Z</time></trkpt><trkpt lat="41.5847579" lon="15.4777686"><ele>46.0</ele><time>2026-04-19T16:39:17.997Z</time></trkpt><trkpt lat="41.5846295" lon="15.4779028"><ele>46.0</ele><time>2026-04-19T16:39:18.996Z</time></trkpt><trkpt lat="41.584503" lon="15.4780326"><ele>46.333333333333336</ele><time>2026-04-19T16:39:19.996Z</time></trkpt><trkpt lat="41.5843786" lon="15.4781584"><ele>46.666666666666664</ele><time>2026-04-19T16:39:20.997Z</time></trkpt><trkpt lat="41.5842592" lon="15.4782874"><ele>47.0</ele><time>2026-04-19T16:39:21.996Z</time></trkpt><trkpt lat="41.5841401" lon="15.4784183"><ele>47.0</ele><time>2026-04-19T16:39:22.997Z</time></trkpt><trkpt lat="41.5840178" lon="15.478547"><ele>47.0</ele><time>2026-04-19T16:39:23.996Z</time></trkpt><trkpt lat="41.5838923" lon="15.4786735"><ele>47.0</ele><time>2026-04-19T16:39:24.997Z</time></trkpt><trkpt lat="41.5837663" lon="15.4788035"><ele>47.0</ele><time>2026-04-19T16:39:25.997Z</time></trkpt><trkpt lat="41.5836401" lon="15.4789362"><ele>47.0</ele><time>2026-04-19T16:39:26.997Z</time></trkpt><trkpt lat="41.5835133" lon="15.4790689"><ele>47.0</ele><time>2026-04-19T16:39:27.996Z</time></trkpt><trkpt lat="41.5833886" lon="15.4792016"><ele>47.0</ele><time>2026-04-19T16:39:28.996Z</time></trkpt><trkpt lat="41.5832667" lon="15.4793308"><ele>47.0</ele><time>2026-04-19T16:39:29.996Z</time></trkpt><trkpt lat="41.5831513" lon="15.479452"><ele>47.0</ele><time>2026-04-19T16:39:30.996Z</time></trkpt><trkpt lat="41.5830355" lon="15.4795721"><ele>47.0</ele><time>2026-04-19T16:39:31.996Z</time></trkpt><trkpt lat="41.5829187" lon="15.4796901"><ele>47.0</ele><time>2026-04-19T16:39:32.996Z</time></trkpt><trkpt lat="41.5828039" lon="15.4798098"><ele>47.0</ele><time>2026-04-19T16:39:33.996Z</time></trkpt><trkpt lat="41.5826906" lon="15.4799289"><ele>47.0</ele><time>2026-04-19T16:39:34.996Z</time></trkpt><trkpt lat="41.5825778" lon="15.4800452"><ele>47.0</ele><time>2026-04-19T16:39:35.996Z</time></trkpt><trkpt lat="41.5824655" lon="15.4801611"><ele>47.0</ele><time>2026-04-19T16:39:36.996Z</time></trkpt><trkpt lat="41.582354" lon="15.4802785"><ele>47.0</ele><time>2026-04-19T16:39:37.996Z</time></trkpt><trkpt lat="41.5822421" lon="15.4803942"><ele>47.0</ele><time>2026-04-19T16:39:38.996Z</time></trkpt><trkpt lat="41.5821275" lon="15.480513"><ele>47.0</ele><time>2026-04-19T16:39:39.996Z</time></trkpt><trkpt lat="41.5820125" lon="15.480633"><ele>46.5</ele><time>2026-04-19T16:39:40.996Z</time></trkpt><trkpt lat="41.5818981" lon="15.4807532"><ele>46.0</ele><time>2026-04-19T16:39:41.996Z</time></trkpt><trkpt lat="41.5817833" lon="15.4808734"><ele>45.5</ele><time>2026-04-19T16:39:42.996Z</time></trkpt><trkpt lat="41.5816693" lon="15.4809925"><ele>45.0</ele><time>2026-04-19T16:39:43.997Z</time></trkpt><trkpt lat="41.581555" lon="15.48111"><ele>45.0</ele><time>2026-04-19T16:39:44.996Z</time></trkpt><trkpt lat="41.5814415" lon="15.4812277"><ele>45.0</ele><time>2026-04-19T16:39:45.996Z</time></trkpt><trkpt lat="41.5813275" lon="15.4813472"><ele>45.0</ele><time>2026-04-19T16:39:46.996Z</time></trkpt><trkpt lat="41.5812098" lon="15.4814683"><ele>45.0</ele><time>2026-04-19T16:39:47.996Z</time></trkpt><trkpt lat="41.5810899" lon="15.4815926"><ele>45.333333333333336</ele><time>2026-04-19T16:39:48.996Z</time></trkpt><trkpt lat="41.5809689" lon="15.4817203"><ele>45.66666666666667</ele><time>2026-04-19T16:39:49.996Z</time></trkpt><trkpt lat="41.5808466" lon="15.4818494"><ele>46.0</ele><time>2026-04-19T16:39:50.996Z</time></trkpt><trkpt lat="41.580723" lon="15.4819797"><ele>46.0</ele><time>2026-04-19T16:39:51.996Z</time></trkpt><trkpt lat="41.5805974" lon="15.4821102"><ele>46.0</ele><time>2026-04-19T16:39:52.996Z</time></trkpt><trkpt lat="41.5804725" lon="15.482241"><ele>46.0</ele><time>2026-04-19T16:39:53.996Z</time></trkpt><trkpt lat="41.5803476" lon="15.4823713"><ele>46.0</ele><time>2026-04-19T16:39:54.996Z</time></trkpt><trkpt lat="41.5802229" lon="15.4825012"><ele>46.0</ele><time>2026-04-19T16:39:55.996Z</time></trkpt><trkpt lat="41.5800991" lon="15.48263"><ele>46.0</ele><time>2026-04-19T16:39:56.996Z</time></trkpt><trkpt lat="41.579976" lon="15.4827572"><ele>46.0</ele><time>2026-04-19T16:39:57.997Z</time></trkpt><trkpt lat="41.5798527" lon="15.4828843"><ele>46.0</ele><time>2026-04-19T16:39:58.996Z</time></trkpt><trkpt lat="41.5797308" lon="15.4830141"><ele>46.0</ele><time>2026-04-19T16:39:59.996Z</time></trkpt><trkpt lat="41.5796081" lon="15.4831423"><ele>45.66666666666667</ele><time>2026-04-19T16:40:00.996Z</time></trkpt><trkpt lat="41.5794841" lon="15.4832706"><ele>45.333333333333336</ele><time>2026-04-19T16:40:01.996Z</time></trkpt><trkpt lat="41.5793593" lon="15.4833985"><ele>45.0</ele><time>2026-04-19T16:40:02.996Z</time></trkpt><trkpt lat="41.5792333" lon="15.4835266"><ele>45.0</ele><time>2026-04-19T16:40:03.997Z</time></trkpt><trkpt lat="41.5791054" lon="15.4836554"><ele>45.0</ele><time>2026-04-19T16:40:04.996Z</time></trkpt><trkpt lat="41.5789777" lon="15.4837872"><ele>45.0</ele><time>2026-04-19T16:40:05.996Z</time></trkpt><trkpt lat="41.57885" lon="15.4839214"><ele>45.333333333333336</ele><time>2026-04-19T16:40:06.996Z</time></trkpt><trkpt lat="41.5787195" lon="15.4840578"><ele>45.66666666666667</ele><time>2026-04-19T16:40:07.996Z</time></trkpt><trkpt lat="41.5785899" lon="15.4841945"><ele>46.0</ele><time>2026-04-19T16:40:08.997Z</time></trkpt><trkpt lat="41.5784596" lon="15.4843318"><ele>46.0</ele><time>2026-04-19T16:40:09.996Z</time></trkpt><trkpt lat="41.5783293" lon="15.484469"><ele>46.0</ele><time>2026-04-19T16:40:10.996Z</time></trkpt><trkpt lat="41.578198" lon="15.4846052"><ele>46.0</ele><time>2026-04-19T16:40:11.997Z</time></trkpt><trkpt lat="41.5780678" lon="15.4847395"><ele>46.0</ele><time>2026-04-19T16:40:12.996Z</time></trkpt><trkpt lat="41.5779394" lon="15.4848714"><ele>46.0</ele><time>2026-04-19T16:40:13.996Z</time></trkpt><trkpt lat="41.5778125" lon="15.4850015"><ele>46.0</ele><time>2026-04-19T16:40:14.996Z</time></trkpt><trkpt lat="41.5776875" lon="15.4851317"><ele>46.333333333333336</ele><time>2026-04-19T16:40:15.996Z</time></trkpt><trkpt lat="41.5775641" lon="15.4852635"><ele>46.666666666666664</ele><time>2026-04-19T16:40:16.996Z</time></trkpt><trkpt lat="41.5774401" lon="15.4853951"><ele>47.0</ele><time>2026-04-19T16:40:17.996Z</time></trkpt><trkpt lat="41.5773174" lon="15.4855255"><ele>47.33333333333333</ele><time>2026-04-19T16:40:18.996Z</time></trkpt><trkpt lat="41.5771919" lon="15.4856565"><ele>47.666666666666664</ele><time>2026-04-19T16:40:19.996Z</time></trkpt><trkpt lat="41.5770643" lon="15.4857885"><ele>48.0</ele><time>2026-04-19T16:40:20.996Z</time></trkpt><trkpt lat="41.5769362" lon="15.4859219"><ele>47.333333333333336</ele><time>2026-04-19T16:40:21.996Z</time></trkpt><trkpt lat="41.5768088" lon="15.4860566"><ele>46.66666666666667</ele><time>2026-04-19T16:40:22.996Z</time></trkpt><trkpt lat="41.5766818" lon="15.4861926"><ele>46.0</ele><time>2026-04-19T16:40:23.996Z</time></trkpt><trkpt lat="41.5765558" lon="15.4863304"><ele>46.0</ele><time>2026-04-19T16:40:24.996Z</time></trkpt><trkpt lat="41.5764312" lon="15.4864727"><ele>46.0</ele><time>2026-04-19T16:40:25.997Z</time></trkpt><trkpt lat="41.5763094" lon="15.4866207"><ele>46.0</ele><time>2026-04-19T16:40:26.997Z</time></trkpt><trkpt lat="41.5761884" lon="15.4867714"><ele>46.0</ele><time>2026-04-19T16:40:27.996Z</time></trkpt><trkpt lat="41.5760686" lon="15.486925"><ele>46.0</ele><time>2026-04-19T16:40:28.996Z</time></trkpt><trkpt lat="41.5759494" lon="15.4870819"><ele>46.0</ele><time>2026-04-19T16:40:29.996Z</time></trkpt><trkpt lat="41.5758333" lon="15.4872419"><ele>46.0</ele><time>2026-04-19T16:40:30.996Z</time></trkpt><trkpt lat="41.5757197" lon="15.487405"><ele>46.0</ele><time>2026-04-19T16:40:31.996Z</time></trkpt><trkpt lat="41.5756093" lon="15.4875691"><ele>46.0</ele><time>2026-04-19T16:40:32.996Z</time></trkpt><trkpt lat="41.5755035" lon="15.4877353"><ele>46.0</ele><time>2026-04-19T16:40:33.996Z</time></trkpt><trkpt lat="41.575402" lon="15.4879025"><ele>46.0</ele><time>2026-04-19T16:40:34.996Z</time></trkpt><trkpt lat="41.5753022" lon="15.4880691"><ele>46.0</ele><time>2026-04-19T16:40:35.996Z</time></trkpt><trkpt lat="41.5752043" lon="15.4882374"><ele>46.0</ele><time>2026-04-19T16:40:36.997Z</time></trkpt><trkpt lat="41.5751081" lon="15.488407"><ele>46.0</ele><time>2026-04-19T16:40:37.997Z</time></trkpt><trkpt lat="41.5750118" lon="15.4885769"><ele>46.0</ele><time>2026-04-19T16:40:38.996Z</time></trkpt><trkpt lat="41.5749153" lon="15.4887484"><ele>46.66666666666667</ele><time>2026-04-19T16:40:39.996Z</time></trkpt><trkpt lat="41.5748191" lon="15.4889223"><ele>47.333333333333336</ele><time>2026-04-19T16:40:40.997Z</time></trkpt><trkpt lat="41.5747268" lon="15.4890939"><ele>48.0</ele><time>2026-04-19T16:40:41.997Z</time></trkpt><trkpt lat="41.5746376" lon="15.48926"><ele>48.0</ele><time>2026-04-19T16:40:42.996Z</time></trkpt><trkpt lat="41.5745483" lon="15.4894204"><ele>48.0</ele><time>2026-04-19T16:40:43.996Z</time></trkpt><trkpt lat="41.5744579" lon="15.4895784"><ele>48.0</ele><time>2026-04-19T16:40:44.997Z</time></trkpt><trkpt lat="41.5743685" lon="15.4897354"><ele>48.0</ele><time>2026-04-19T16:40:45.996Z</time></trkpt><trkpt lat="41.5742792" lon="15.4898945"><ele>47.333333333333336</ele><time>2026-04-19T16:40:46.996Z</time></trkpt><trkpt lat="41.5741877" lon="15.490054"><ele>46.66666666666667</ele><time>2026-04-19T16:40:47.996Z</time></trkpt><trkpt lat="41.5740959" lon="15.4902153"><ele>46.0</ele><time>2026-04-19T16:40:48.996Z</time></trkpt><trkpt lat="41.5740033" lon="15.49038"><ele>45.66666666666667</ele><time>2026-04-19T16:40:49.996Z</time></trkpt><trkpt lat="41.57391" lon="15.4905467"><ele>45.333333333333336</ele><time>2026-04-19T16:40:50.996Z</time></trkpt><trkpt lat="41.573815" lon="15.4907133"><ele>45.0</ele><time>2026-04-19T16:40:51.997Z</time></trkpt><trkpt lat="41.573715" lon="15.4908817"><ele>44.666666666666664</ele><time>2026-04-19T16:40:52.996Z</time></trkpt><trkpt lat="41.5736167" lon="15.4910533"><ele>44.33333333333333</ele><time>2026-04-19T16:40:53.996Z</time></trkpt><trkpt lat="41.5735183" lon="15.4912283"><ele>44.0</ele><time>2026-04-19T16:40:54.996Z</time></trkpt><trkpt lat="41.57342" lon="15.4914067"><ele>44.0</ele><time>2026-04-19T16:40:55.996Z</time></trkpt><trkpt lat="41.5733183" lon="15.4915833"><ele>44.0</ele><time>2026-04-19T16:40:56.996Z</time></trkpt><trkpt lat="41.573215" lon="15.49176"><ele>44.0</ele><time>2026-04-19T16:40:57.997Z</time></trkpt><trkpt lat="41.5731083" lon="15.49193"><ele>44.0</ele><time>2026-04-19T16:40:58.996Z</time></trkpt><trkpt lat="41.5729983" lon="15.492095"><ele>44.0</ele><time>2026-04-19T16:40:59.997Z</time></trkpt><trkpt lat="41.5728883" lon="15.492255"><ele>44.0</ele><time>2026-04-19T16:41:00.997Z</time></trkpt><trkpt lat="41.5727767" lon="15.4924117"><ele>43.33333333333333</ele><time>2026-04-19T16:41:01.996Z</time></trkpt><trkpt lat="41.57266" lon="15.4925667"><ele>42.666666666666664</ele><time>2026-04-19T16:41:02.996Z</time></trkpt><trkpt lat="41.5725433" lon="15.49272"><ele>42.0</ele><time>2026-04-19T16:41:03.996Z</time></trkpt><trkpt lat="41.572425" lon="15.4928683"><ele>42.0</ele><time>2026-04-19T16:41:04.996Z</time></trkpt><trkpt lat="41.5723067" lon="15.4930167"><ele>42.0</ele><time>2026-04-19T16:41:05.996Z</time></trkpt><trkpt lat="41.5721867" lon="15.4931617"><ele>42.0</ele><time>2026-04-19T16:41:06.996Z</time></trkpt><trkpt lat="41.5720617" lon="15.4933"><ele>41.666666666666664</ele><time>2026-04-19T16:41:07.996Z</time></trkpt><trkpt lat="41.5719367" lon="15.4934367"><ele>41.33333333333333</ele><time>2026-04-19T16:41:08.996Z</time></trkpt><trkpt lat="41.5718117" lon="15.4935767"><ele>41.0</ele><time>2026-04-19T16:41:09.997Z</time></trkpt><trkpt lat="41.5716867" lon="15.4937133"><ele>41.33333333333333</ele><time>2026-04-19T16:41:10.996Z</time></trkpt><trkpt lat="41.5715567" lon="15.493845"><ele>41.666666666666664</ele><time>2026-04-19T16:41:11.996Z</time></trkpt><trkpt lat="41.5714233" lon="15.493975"><ele>42.0</ele><time>2026-04-19T16:41:12.996Z</time></trkpt><trkpt lat="41.5712917" lon="15.4941017"><ele>41.333333333333336</ele><time>2026-04-19T16:41:13.996Z</time></trkpt><trkpt lat="41.5711617" lon="15.4942283"><ele>40.66666666666667</ele><time>2026-04-19T16:41:14.997Z</time></trkpt><trkpt lat="41.5710333" lon="15.4943567"><ele>40.0</ele><time>2026-04-19T16:41:15.997Z</time></trkpt><trkpt lat="41.5709067" lon="15.4944833"><ele>40.66666666666667</ele><time>2026-04-19T16:41:16.996Z</time></trkpt><trkpt lat="41.57078" lon="15.4946117"><ele>41.333333333333336</ele><time>2026-04-19T16:41:17.996Z</time></trkpt><trkpt lat="41.570655" lon="15.4947383"><ele>42.0</ele><time>2026-04-19T16:41:18.996Z</time></trkpt><trkpt lat="41.57053" lon="15.4948633"><ele>42.0</ele><time>2026-04-19T16:41:19.996Z</time></trkpt><trkpt lat="41.5704067" lon="15.4949883"><ele>42.0</ele><time>2026-04-19T16:41:20.996Z</time></trkpt><trkpt lat="41.5702817" lon="15.49511"><ele>42.0</ele><time>2026-04-19T16:41:21.996Z</time></trkpt><trkpt lat="41.57016" lon="15.4952333"><ele>42.0</ele><time>2026-04-19T16:41:22.996Z</time></trkpt><trkpt lat="41.5700383" lon="15.495355"><ele>42.0</ele><time>2026-04-19T16:41:23.996Z</time></trkpt><trkpt lat="41.5699167" lon="15.4954783"><ele>42.0</ele><time>2026-04-19T16:41:24.996Z</time></trkpt><trkpt lat="41.5697933" lon="15.4956033"><ele>41.666666666666664</ele><time>2026-04-19T16:41:25.997Z</time></trkpt><trkpt lat="41.5696683" lon="15.49573"><ele>41.33333333333333</ele><time>2026-04-19T16:41:26.996Z</time></trkpt><trkpt lat="41.5695417" lon="15.4958583"><ele>41.0</ele><time>2026-04-19T16:41:27.996Z</time></trkpt><trkpt lat="41.5694133" lon="15.495985"><ele>41.0</ele><time>2026-04-19T16:41:28.996Z</time></trkpt><trkpt lat="41.569285" lon="15.4961133"><ele>41.0</ele><time>2026-04-19T16:41:29.996Z</time></trkpt><trkpt lat="41.5691583" lon="15.496245"><ele>41.0</ele><time>2026-04-19T16:41:30.996Z</time></trkpt><trkpt lat="41.5690283" lon="15.4963783"><ele>41.0</ele><time>2026-04-19T16:41:31.996Z</time></trkpt><trkpt lat="41.5688983" lon="15.4965117"><ele>41.0</ele><time>2026-04-19T16:41:32.997Z</time></trkpt><trkpt lat="41.5687683" lon="15.4966433"><ele>41.0</ele><time>2026-04-19T16:41:33.996Z</time></trkpt><trkpt lat="41.5686367" lon="15.4967717"><ele>41.0</ele><time>2026-04-19T16:41:34.996Z</time></trkpt><trkpt lat="41.5685033" lon="15.4969"><ele>41.0</ele><time>2026-04-19T16:41:35.996Z</time></trkpt><trkpt lat="41.5683717" lon="15.4970267"><ele>41.0</ele><time>2026-04-19T16:41:36.997Z</time></trkpt><trkpt lat="41.56824" lon="15.4971517"><ele>41.0</ele><time>2026-04-19T16:41:37.996Z</time></trkpt><trkpt lat="41.5681067" lon="15.4972733"><ele>41.0</ele><time>2026-04-19T16:41:38.996Z</time></trkpt><trkpt lat="41.5679733" lon="15.4973933"><ele>41.0</ele><time>2026-04-19T16:41:39.996Z</time></trkpt><trkpt lat="41.5678417" lon="15.4975083"><ele>41.666666666666664</ele><time>2026-04-19T16:41:40.996Z</time></trkpt><trkpt lat="41.56771" lon="15.4976217"><ele>42.333333333333336</ele><time>2026-04-19T16:41:41.996Z</time></trkpt><trkpt lat="41.56758" lon="15.4977317"><ele>43.0</ele><time>2026-04-19T16:41:42.996Z</time></trkpt><trkpt lat="41.56745" lon="15.4978367"><ele>43.0</ele><time>2026-04-19T16:41:43.996Z</time></trkpt><trkpt lat="41.5673183" lon="15.4979383"><ele>43.0</ele><time>2026-04-19T16:41:44.997Z</time></trkpt><trkpt lat="41.5671833" lon="15.49803"><ele>43.0</ele><time>2026-04-19T16:41:45.996Z</time></trkpt><trkpt lat="41.5670467" lon="15.49812"><ele>42.333333333333336</ele><time>2026-04-19T16:41:46.996Z</time></trkpt><trkpt lat="41.56691" lon="15.4982067"><ele>41.666666666666664</ele><time>2026-04-19T16:41:47.996Z</time></trkpt><trkpt lat="41.5667733" lon="15.4982933"><ele>41.0</ele><time>2026-04-19T16:41:48.997Z</time></trkpt><trkpt lat="41.56664" lon="15.4983783"><ele>41.0</ele><time>2026-04-19T16:41:49.996Z</time></trkpt><trkpt lat="41.5665133" lon="15.49846"><ele>41.0</ele><time>2026-04-19T16:41:50.996Z</time></trkpt><trkpt lat="41.56639" lon="15.4985433"><ele>41.0</ele><time>2026-04-19T16:41:51.996Z</time></trkpt><trkpt lat="41.5662667" lon="15.4986233"><ele>41.0</ele><time>2026-04-19T16:41:52.996Z</time></trkpt><trkpt lat="41.5661417" lon="15.4987017"><ele>41.25</ele><time>2026-04-19T16:41:53.996Z</time></trkpt><trkpt lat="41.5660133" lon="15.49878"><ele>41.5</ele><time>2026-04-19T16:41:54.996Z</time></trkpt><trkpt lat="41.5658817" lon="15.4988567"><ele>41.75</ele><time>2026-04-19T16:41:55.996Z</time></trkpt><trkpt lat="41.5657467" lon="15.4989267"><ele>42.0</ele><time>2026-04-19T16:41:56.996Z</time></trkpt><trkpt lat="41.56561" lon="15.498995"><ele>42.0</ele><time>2026-04-19T16:41:57.996Z</time></trkpt><trkpt lat="41.5654733" lon="15.4990617"><ele>42.0</ele><time>2026-04-19T16:41:58.996Z</time></trkpt><trkpt lat="41.5653367" lon="15.499125"><ele>42.0</ele><time>2026-04-19T16:41:59.997Z</time></trkpt><trkpt lat="41.5651967" lon="15.4991867"><ele>42.0</ele><time>2026-04-19T16:42:00.997Z</time></trkpt><trkpt lat="41.56505" lon="15.499245"><ele>42.0</ele><time>2026-04-19T16:42:01.996Z</time></trkpt><trkpt lat="41.5648983" lon="15.4992983"><ele>42.0</ele><time>2026-04-19T16:42:02.996Z</time></trkpt><trkpt lat="41.5647433" lon="15.4993433"><ele>42.0</ele><time>2026-04-19T16:42:03.996Z</time></trkpt><trkpt lat="41.5645867" lon="15.499375"><ele>42.333333333333336</ele><time>2026-04-19T16:42:04.996Z</time></trkpt><trkpt lat="41.5644283" lon="15.4994017"><ele>42.66666666666667</ele><time>2026-04-19T16:42:05.997Z</time></trkpt><trkpt lat="41.56427" lon="15.4994317"><ele>43.0</ele><time>2026-04-19T16:42:06.996Z</time></trkpt><trkpt lat="41.5641133" lon="15.4994583"><ele>43.0</ele><time>2026-04-19T16:42:07.996Z</time></trkpt><trkpt lat="41.5639583" lon="15.4994833"><ele>43.0</ele><time>2026-04-19T16:42:08.996Z</time></trkpt><trkpt lat="41.5638017" lon="15.4995117"><ele>43.0</ele><time>2026-04-19T16:42:09.996Z</time></trkpt><trkpt lat="41.5636467" lon="15.4995367"><ele>42.66666666666667</ele><time>2026-04-19T16:42:10.996Z</time></trkpt><trkpt lat="41.5634933" lon="15.4995617"><ele>42.333333333333336</ele><time>2026-04-19T16:42:11.996Z</time></trkpt><trkpt lat="41.56334" lon="15.4995867"><ele>42.0</ele><time>2026-04-19T16:42:12.996Z</time></trkpt><trkpt lat="41.5631867" lon="15.4996117"><ele>42.0</ele><time>2026-04-19T16:42:13.996Z</time></trkpt><trkpt lat="41.5630317" lon="15.4996383"><ele>42.0</ele><time>2026-04-19T16:42:14.997Z</time></trkpt><trkpt lat="41.5628783" lon="15.4996633"><ele>42.0</ele><time>2026-04-19T16:42:15.996Z</time></trkpt><trkpt lat="41.562725" lon="15.49969"><ele>42.0</ele><time>2026-04-19T16:42:16.997Z</time></trkpt><trkpt lat="41.5625717" lon="15.4997167"><ele>42.0</ele><time>2026-04-19T16:42:17.996Z</time></trkpt><trkpt lat="41.5624167" lon="15.4997433"><ele>42.0</ele><time>2026-04-19T16:42:18.996Z</time></trkpt><trkpt lat="41.56226" lon="15.49977"><ele>42.0</ele><time>2026-04-19T16:42:19.996Z</time></trkpt><trkpt lat="41.5621033" lon="15.499795"><ele>42.0</ele><time>2026-04-19T16:42:20.996Z</time></trkpt><trkpt lat="41.561945" lon="15.4998183"><ele>42.0</ele><time>2026-04-19T16:42:21.997Z</time></trkpt><trkpt lat="41.5617833" lon="15.4998417"><ele>42.333333333333336</ele><time>2026-04-19T16:42:22.996Z</time></trkpt><trkpt lat="41.56162" lon="15.4998683"><ele>42.66666666666667</ele><time>2026-04-19T16:42:23.997Z</time></trkpt><trkpt lat="41.561455" lon="15.4998933"><ele>43.0</ele><time>2026-04-19T16:42:24.996Z</time></trkpt><trkpt lat="41.56129" lon="15.49992"><ele>42.66666666666667</ele><time>2026-04-19T16:42:25.997Z</time></trkpt><trkpt lat="41.5611233" lon="15.4999483"><ele>42.333333333333336</ele><time>2026-04-19T16:42:26.996Z</time></trkpt><trkpt lat="41.560955" lon="15.499975"><ele>42.0</ele><time>2026-04-19T16:42:27.996Z</time></trkpt><trkpt lat="41.5607867" lon="15.5000017"><ele>42.0</ele><time>2026-04-19T16:42:28.996Z</time></trkpt><trkpt lat="41.5606183" lon="15.5000283"><ele>42.0</ele><time>2026-04-19T16:42:29.996Z</time></trkpt><trkpt lat="41.5604517" lon="15.500055"><ele>42.0</ele><time>2026-04-19T16:42:30.996Z</time></trkpt><trkpt lat="41.5602833" lon="15.5000817"><ele>42.0</ele><time>2026-04-19T16:42:31.996Z</time></trkpt><trkpt lat="41.56012" lon="15.50011"><ele>42.0</ele><time>2026-04-19T16:42:32.996Z</time></trkpt><trkpt lat="41.559955" lon="15.5001383"><ele>42.0</ele><time>2026-04-19T16:42:33.996Z</time></trkpt><trkpt lat="41.5597933" lon="15.5001667"><ele>42.0</ele><time>2026-04-19T16:42:34.997Z</time></trkpt><trkpt lat="41.5596333" lon="15.5001933"><ele>42.0</ele><time>2026-04-19T16:42:35.996Z</time></trkpt><trkpt lat="41.5594733" lon="15.50022"><ele>42.0</ele><time>2026-04-19T16:42:36.997Z</time></trkpt><trkpt lat="41.5593167" lon="15.5002433"><ele>42.333333333333336</ele><time>2026-04-19T16:42:37.996Z</time></trkpt><trkpt lat="41.5591617" lon="15.5002667"><ele>42.66666666666667</ele><time>2026-04-19T16:42:38.996Z</time></trkpt><trkpt lat="41.5590067" lon="15.5002933"><ele>43.0</ele><time>2026-04-19T16:42:39.996Z</time></trkpt><trkpt lat="41.5588517" lon="15.50032"><ele>43.0</ele><time>2026-04-19T16:42:40.996Z</time></trkpt><trkpt lat="41.5587" lon="15.5003433"><ele>43.0</ele><time>2026-04-19T16:42:41.996Z</time></trkpt><trkpt lat="41.5585483" lon="15.5003617"><ele>43.0</ele><time>2026-04-19T16:42:42.996Z</time></trkpt><trkpt lat="41.5583983" lon="15.5003817"><ele>43.0</ele><time>2026-04-19T16:42:43.996Z</time></trkpt><trkpt lat="41.5582467" lon="15.5004"><ele>43.0</ele><time>2026-04-19T16:42:44.997Z</time></trkpt><trkpt lat="41.5580933" lon="15.50042"><ele>43.0</ele><time>2026-04-19T16:42:45.996Z</time></trkpt><trkpt lat="41.5579417" lon="15.5004383"><ele>43.25</ele><time>2026-04-19T16:42:46.996Z</time></trkpt><trkpt lat="41.5577917" lon="15.5004567"><ele>43.5</ele><time>2026-04-19T16:42:47.997Z</time></trkpt><trkpt lat="41.5576417" lon="15.500475"><ele>43.75</ele><time>2026-04-19T16:42:48.996Z</time></trkpt><trkpt lat="41.557495" lon="15.5004917"><ele>44.0</ele><time>2026-04-19T16:42:49.997Z</time></trkpt><trkpt lat="41.5573517" lon="15.50051"><ele>44.0</ele><time>2026-04-19T16:42:50.996Z</time></trkpt><trkpt lat="41.5572117" lon="15.5005283"><ele>44.0</ele><time>2026-04-19T16:42:51.997Z</time></trkpt><trkpt lat="41.5570733" lon="15.500545"><ele>44.0</ele><time>2026-04-19T16:42:52.996Z</time></trkpt><trkpt lat="41.55693" lon="15.5005617"><ele>44.0</ele><time>2026-04-19T16:42:53.996Z</time></trkpt><trkpt lat="41.5567833" lon="15.50058"><ele>44.0</ele><time>2026-04-19T16:42:54.996Z</time></trkpt><trkpt lat="41.5566333" lon="15.5006017"><ele>44.0</ele><time>2026-04-19T16:42:55.996Z</time></trkpt><trkpt lat="41.5564817" lon="15.5006217"><ele>44.0</ele><time>2026-04-19T16:42:56.996Z</time></trkpt><trkpt lat="41.556325" lon="15.50064"><ele>43.666666666666664</ele><time>2026-04-19T16:42:57.997Z</time></trkpt><trkpt lat="41.5561683" lon="15.5006617"><ele>43.333333333333336</ele><time>2026-04-19T16:42:58.996Z</time></trkpt><trkpt lat="41.5560067" lon="15.50068"><ele>43.0</ele><time>2026-04-19T16:42:59.996Z</time></trkpt><trkpt lat="41.5558467" lon="15.5007017"><ele>43.0</ele><time>2026-04-19T16:43:00.996Z</time></trkpt><trkpt lat="41.5556833" lon="15.5007233"><ele>43.0</ele><time>2026-04-19T16:43:01.996Z</time></trkpt><trkpt lat="41.55552" lon="15.500745"><ele>43.0</ele><time>2026-04-19T16:43:02.996Z</time></trkpt><trkpt lat="41.5553533" lon="15.5007633"><ele>43.0</ele><time>2026-04-19T16:43:03.996Z</time></trkpt><trkpt lat="41.5551883" lon="15.5007833"><ele>43.0</ele><time>2026-04-19T16:43:04.996Z</time></trkpt><trkpt lat="41.5550233" lon="15.5008067"><ele>43.0</ele><time>2026-04-19T16:43:05.996Z</time></trkpt><trkpt lat="41.5548583" lon="15.500825"><ele>43.0</ele><time>2026-04-19T16:43:06.996Z</time></trkpt><trkpt lat="41.5546967" lon="15.5008417"><ele>43.0</ele><time>2026-04-19T16:43:07.996Z</time></trkpt><trkpt lat="41.554535" lon="15.50086"><ele>43.0</ele><time>2026-04-19T16:43:08.996Z</time></trkpt><trkpt lat="41.554375" lon="15.5008767"><ele>43.0</ele><time>2026-04-19T16:43:09.996Z</time></trkpt><trkpt lat="41.5542167" lon="15.5008967"><ele>43.0</ele><time>2026-04-19T16:43:10.996Z</time></trkpt><trkpt lat="41.55406" lon="15.500915"><ele>43.0</ele><time>2026-04-19T16:43:11.996Z</time></trkpt><trkpt lat="41.5539067" lon="15.500935"><ele>43.0</ele><time>2026-04-19T16:43:12.997Z</time></trkpt><trkpt lat="41.553755" lon="15.500955"><ele>43.0</ele><time>2026-04-19T16:43:13.996Z</time></trkpt><trkpt lat="41.5536033" lon="15.5009733"><ele>43.0</ele><time>2026-04-19T16:43:14.997Z</time></trkpt><trkpt lat="41.5534533" lon="15.5009917"><ele>43.333333333333336</ele><time>2026-04-19T16:43:15.997Z</time></trkpt><trkpt lat="41.5533033" lon="15.5010083"><ele>43.666666666666664</ele><time>2026-04-19T16:43:16.996Z</time></trkpt><trkpt lat="41.5531517" lon="15.5010283"><ele>44.0</ele><time>2026-04-19T16:43:17.996Z</time></trkpt><trkpt lat="41.5530017" lon="15.5010483"><ele>44.33333333333333</ele><time>2026-04-19T16:43:18.997Z</time></trkpt><trkpt lat="41.5528517" lon="15.5010667"><ele>44.666666666666664</ele><time>2026-04-19T16:43:19.996Z</time></trkpt><trkpt lat="41.5527" lon="15.501085"><ele>45.0</ele><time>2026-04-19T16:43:20.997Z</time></trkpt><trkpt lat="41.55255" lon="15.5011067"><ele>45.0</ele><time>2026-04-19T16:43:21.996Z</time></trkpt><trkpt lat="41.5524" lon="15.5011267"><ele>45.0</ele><time>2026-04-19T16:43:22.997Z</time></trkpt><trkpt lat="41.5522467" lon="15.501145"><ele>45.0</ele><time>2026-04-19T16:43:23.997Z</time></trkpt><trkpt lat="41.5520933" lon="15.5011633"><ele>45.666666666666664</ele><time>2026-04-19T16:43:24.996Z</time></trkpt><trkpt lat="41.5519383" lon="15.5011817"><ele>46.33333333333333</ele><time>2026-04-19T16:43:25.996Z</time></trkpt><trkpt lat="41.5517817" lon="15.5012"><ele>47.0</ele><time>2026-04-19T16:43:26.996Z</time></trkpt><trkpt lat="41.5516217" lon="15.5012183"><ele>47.0</ele><time>2026-04-19T16:43:27.996Z</time></trkpt><trkpt lat="41.55146" lon="15.5012383"><ele>47.0</ele><time>2026-04-19T16:43:28.996Z</time></trkpt><trkpt lat="41.5513" lon="15.5012567"><ele>47.0</ele><time>2026-04-19T16:43:29.997Z</time></trkpt><trkpt lat="41.5511417" lon="15.5012733"><ele>48.0</ele><time>2026-04-19T16:43:30.996Z</time></trkpt><trkpt lat="41.5509867" lon="15.5012917"><ele>49.0</ele><time>2026-04-19T16:43:31.996Z</time></trkpt><trkpt lat="41.550835" lon="15.50131"><ele>50.0</ele><time>2026-04-19T16:43:32.996Z</time></trkpt><trkpt lat="41.5506883" lon="15.5013283"><ele>50.0</ele><time>2026-04-19T16:43:33.997Z</time></trkpt><trkpt lat="41.55055" lon="15.501345"><ele>50.0</ele><time>2026-04-19T16:43:34.997Z</time></trkpt><trkpt lat="41.55042" lon="15.5013617"><ele>50.0</ele><time>2026-04-19T16:43:35.997Z</time></trkpt><trkpt lat="41.5502917" lon="15.5013767"><ele>50.0</ele><time>2026-04-19T16:43:36.996Z</time></trkpt><trkpt lat="41.55016" lon="15.5013917"><ele>50.25</ele><time>2026-04-19T16:43:37.996Z</time></trkpt><trkpt lat="41.5500283" lon="15.5014067"><ele>50.5</ele><time>2026-04-19T16:43:38.997Z</time></trkpt><trkpt lat="41.5498967" lon="15.5014233"><ele>50.75</ele><time>2026-04-19T16:43:39.996Z</time></trkpt><trkpt lat="41.549765" lon="15.5014383"><ele>51.0</ele><time>2026-04-19T16:43:40.996Z</time></trkpt><trkpt lat="41.54963" lon="15.501455"><ele>51.5</ele><time>2026-04-19T16:43:41.996Z</time></trkpt><trkpt lat="41.5494933" lon="15.5014733"><ele>52.0</ele><time>2026-04-19T16:43:42.997Z</time></trkpt><trkpt lat="41.549355" lon="15.5014917"><ele>52.5</ele><time>2026-04-19T16:43:43.996Z</time></trkpt><trkpt lat="41.549215" lon="15.50151"><ele>53.0</ele><time>2026-04-19T16:43:44.996Z</time></trkpt><trkpt lat="41.5490717" lon="15.50153"><ele>53.0</ele><time>2026-04-19T16:43:45.997Z</time></trkpt><trkpt lat="41.5489267" lon="15.5015483"><ele>53.0</ele><time>2026-04-19T16:43:46.996Z</time></trkpt><trkpt lat="41.54878" lon="15.501565"><ele>53.0</ele><time>2026-04-19T16:43:47.996Z</time></trkpt><trkpt lat="41.5486317" lon="15.501585"><ele>53.0</ele><time>2026-04-19T16:43:48.997Z</time></trkpt><trkpt lat="41.5484817" lon="15.5016083"><ele>53.0</ele><time>2026-04-19T16:43:49.997Z</time></trkpt><trkpt lat="41.54833" lon="15.5016317"><ele>53.0</ele><time>2026-04-19T16:43:50.996Z</time></trkpt><trkpt lat="41.5481767" lon="15.5016517"><ele>53.0</ele><time>2026-04-19T16:43:51.997Z</time></trkpt><trkpt lat="41.5480283" lon="15.5016717"><ele>53.0</ele><time>2026-04-19T16:43:52.996Z</time></trkpt><trkpt lat="41.54788" lon="15.5016883"><ele>53.0</ele><time>2026-04-19T16:43:53.996Z</time></trkpt><trkpt lat="41.5477283" lon="15.5017033"><ele>53.0</ele><time>2026-04-19T16:43:54.996Z</time></trkpt><trkpt lat="41.5475733" lon="15.5017233"><ele>53.0</ele><time>2026-04-19T16:43:55.996Z</time></trkpt><trkpt lat="41.5474167" lon="15.501745"><ele>53.0</ele><time>2026-04-19T16:43:56.996Z</time></trkpt><trkpt lat="41.5472583" lon="15.5017683"><ele>53.0</ele><time>2026-04-19T16:43:57.996Z</time></trkpt><trkpt lat="41.5470983" lon="15.5017883"><ele>53.0</ele><time>2026-04-19T16:43:58.996Z</time></trkpt><trkpt lat="41.5469367" lon="15.5018083"><ele>53.0</ele><time>2026-04-19T16:43:59.996Z</time></trkpt><trkpt lat="41.546775" lon="15.50183"><ele>53.0</ele><time>2026-04-19T16:44:00.996Z</time></trkpt><trkpt lat="41.5466133" lon="15.5018517"><ele>53.0</ele><time>2026-04-19T16:44:01.996Z</time></trkpt><trkpt lat="41.5464533" lon="15.50187"><ele>53.0</ele><time>2026-04-19T16:44:02.996Z</time></trkpt><trkpt lat="41.5462933" lon="15.50189"><ele>53.0</ele><time>2026-04-19T16:44:03.996Z</time></trkpt><trkpt lat="41.546135" lon="15.50191"><ele>53.0</ele><time>2026-04-19T16:44:04.996Z</time></trkpt><trkpt lat="41.5459767" lon="15.50193"><ele>53.0</ele><time>2026-04-19T16:44:05.996Z</time></trkpt><trkpt lat="41.54582" lon="15.501945"><ele>53.0</ele><time>2026-04-19T16:44:06.996Z</time></trkpt><trkpt lat="41.545665" lon="15.5019683"><ele>53.0</ele><time>2026-04-19T16:44:07.996Z</time></trkpt><trkpt lat="41.54551" lon="15.50199"><ele>53.0</ele><time>2026-04-19T16:44:08.997Z</time></trkpt><trkpt lat="41.5453583" lon="15.5020083"><ele>53.0</ele><time>2026-04-19T16:44:09.997Z</time></trkpt><trkpt lat="41.5452033" lon="15.50203"><ele>53.0</ele><time>2026-04-19T16:44:10.996Z</time></trkpt><trkpt lat="41.54505" lon="15.50205"><ele>53.0</ele><time>2026-04-19T16:44:11.996Z</time></trkpt><trkpt lat="41.544895" lon="15.50207"><ele>53.0</ele><time>2026-04-19T16:44:12.996Z</time></trkpt><trkpt lat="41.5447383" lon="15.5020917"><ele>53.0</ele><time>2026-04-19T16:44:13.996Z</time></trkpt><trkpt lat="41.54458" lon="15.502115"><ele>53.0</ele><time>2026-04-19T16:44:14.997Z</time></trkpt><trkpt lat="41.5444183" lon="15.5021367"><ele>53.0</ele><time>2026-04-19T16:44:15.996Z</time></trkpt><trkpt lat="41.5442583" lon="15.50216"><ele>52.66666666666667</ele><time>2026-04-19T16:44:16.997Z</time></trkpt><trkpt lat="41.5441" lon="15.50218"><ele>52.33333333333333</ele><time>2026-04-19T16:44:17.996Z</time></trkpt><trkpt lat="41.54394" lon="15.5022"><ele>52.0</ele><time>2026-04-19T16:44:18.996Z</time></trkpt><trkpt lat="41.54378" lon="15.50222"><ele>51.666666666666664</ele><time>2026-04-19T16:44:19.996Z</time></trkpt><trkpt lat="41.54362" lon="15.50224"><ele>51.33333333333333</ele><time>2026-04-19T16:44:20.996Z</time></trkpt><trkpt lat="41.54346" lon="15.50226"><ele>51.0</ele><time>2026-04-19T16:44:21.996Z</time></trkpt><trkpt lat="41.5433017" lon="15.50228"><ele>51.0</ele><time>2026-04-19T16:44:22.996Z</time></trkpt><trkpt lat="41.543145" lon="15.5022983"><ele>51.0</ele><time>2026-04-19T16:44:23.996Z</time></trkpt><trkpt lat="41.5429883" lon="15.50232"><ele>51.0</ele><time>2026-04-19T16:44:24.996Z</time></trkpt><trkpt lat="41.5428317" lon="15.5023433"><ele>51.66666666666667</ele><time>2026-04-19T16:44:25.996Z</time></trkpt><trkpt lat="41.5426767" lon="15.5023633"><ele>52.333333333333336</ele><time>2026-04-19T16:44:26.996Z</time></trkpt><trkpt lat="41.5425217" lon="15.5023833"><ele>53.0</ele><time>2026-04-19T16:44:27.997Z</time></trkpt><trkpt lat="41.5423633" lon="15.5024017"><ele>53.0</ele><time>2026-04-19T16:44:28.996Z</time></trkpt><trkpt lat="41.5422067" lon="15.5024217"><ele>53.0</ele><time>2026-04-19T16:44:29.996Z</time></trkpt><trkpt lat="41.5420483" lon="15.502445"><ele>53.0</ele><time>2026-04-19T16:44:30.996Z</time></trkpt><trkpt lat="41.5418867" lon="15.5024667"><ele>53.333333333333336</ele><time>2026-04-19T16:44:31.997Z</time></trkpt><trkpt lat="41.5417283" lon="15.5024867"><ele>53.66666666666667</ele><time>2026-04-19T16:44:32.996Z</time></trkpt><trkpt lat="41.5415717" lon="15.5025083"><ele>54.0</ele><time>2026-04-19T16:44:33.996Z</time></trkpt><trkpt lat="41.54142" lon="15.5025283"><ele>54.0</ele><time>2026-04-19T16:44:34.996Z</time></trkpt><trkpt lat="41.5412667" lon="15.5025483"><ele>54.0</ele><time>2026-04-19T16:44:35.996Z</time></trkpt><trkpt lat="41.5411133" lon="15.5025683"><ele>54.0</ele><time>2026-04-19T16:44:36.996Z</time></trkpt><trkpt lat="41.54096" lon="15.5025883"><ele>54.33333333333333</ele><time>2026-04-19T16:44:37.997Z</time></trkpt><trkpt lat="41.5408083" lon="15.5026067"><ele>54.666666666666664</ele><time>2026-04-19T16:44:38.996Z</time></trkpt><trkpt lat="41.5406567" lon="15.5026283"><ele>55.0</ele><time>2026-04-19T16:44:39.996Z</time></trkpt><trkpt lat="41.5405033" lon="15.5026467"><ele>54.666666666666664</ele><time>2026-04-19T16:44:40.996Z</time></trkpt><trkpt lat="41.5403517" lon="15.502665"><ele>54.33333333333333</ele><time>2026-04-19T16:44:41.996Z</time></trkpt><trkpt lat="41.540195" lon="15.5026817"><ele>54.0</ele><time>2026-04-19T16:44:42.997Z</time></trkpt><trkpt lat="41.54004" lon="15.5026983"><ele>54.0</ele><time>2026-04-19T16:44:43.996Z</time></trkpt><trkpt lat="41.5398833" lon="15.50272"><ele>54.0</ele><time>2026-04-19T16:44:44.996Z</time></trkpt><trkpt lat="41.53973" lon="15.5027433"><ele>54.0</ele><time>2026-04-19T16:44:45.996Z</time></trkpt><trkpt lat="41.539585" lon="15.5027633"><ele>54.0</ele><time>2026-04-19T16:44:46.996Z</time></trkpt><trkpt lat="41.5394399" lon="15.5027834"><ele>54.0</ele><time>2026-04-19T16:44:47.997Z</time></trkpt><trkpt lat="41.5392953" lon="15.5028015"><ele>54.0</ele><time>2026-04-19T16:44:48.996Z</time></trkpt><trkpt lat="41.5391515" lon="15.5028198"><ele>54.0</ele><time>2026-04-19T16:44:49.996Z</time></trkpt><trkpt lat="41.539006" lon="15.5028376"><ele>54.0</ele><time>2026-04-19T16:44:50.996Z</time></trkpt><trkpt lat="41.5388608" lon="15.5028581"><ele>54.0</ele><time>2026-04-19T16:44:51.996Z</time></trkpt><trkpt lat="41.5387134" lon="15.5028793"><ele>54.0</ele><time>2026-04-19T16:44:52.996Z</time></trkpt><trkpt lat="41.5385673" lon="15.5029008"><ele>54.0</ele><time>2026-04-19T16:44:53.997Z</time></trkpt><trkpt lat="41.538421" lon="15.502923"><ele>54.0</ele><time>2026-04-19T16:44:54.996Z</time></trkpt><trkpt lat="41.5382733" lon="15.5029425"><ele>54.0</ele><time>2026-04-19T16:44:55.996Z</time></trkpt><trkpt lat="41.5381246" lon="15.5029615"><ele>54.0</ele><time>2026-04-19T16:44:56.996Z</time></trkpt><trkpt lat="41.5379744" lon="15.5029811"><ele>54.0</ele><time>2026-04-19T16:44:57.996Z</time></trkpt><trkpt lat="41.5378228" lon="15.503001"><ele>54.0</ele><time>2026-04-19T16:44:58.996Z</time></trkpt><trkpt lat="41.5376696" lon="15.503022"><ele>54.0</ele><time>2026-04-19T16:44:59.996Z</time></trkpt><trkpt lat="41.5375159" lon="15.5030434"><ele>54.0</ele><time>2026-04-19T16:45:00.996Z</time></trkpt><trkpt lat="41.5373608" lon="15.5030666"><ele>54.0</ele><time>2026-04-19T16:45:01.996Z</time></trkpt><trkpt lat="41.5372046" lon="15.5030875"><ele>54.0</ele><time>2026-04-19T16:45:02.996Z</time></trkpt><trkpt lat="41.5370476" lon="15.5031079"><ele>54.0</ele><time>2026-04-19T16:45:03.997Z</time></trkpt><trkpt lat="41.5368891" lon="15.5031291"><ele>54.33333333333333</ele><time>2026-04-19T16:45:04.996Z</time></trkpt><trkpt lat="41.5367285" lon="15.5031497"><ele>54.666666666666664</ele><time>2026-04-19T16:45:05.996Z</time></trkpt><trkpt lat="41.5365673" lon="15.5031701"><ele>55.0</ele><time>2026-04-19T16:45:06.996Z</time></trkpt><trkpt lat="41.5364065" lon="15.5031912"><ele>55.0</ele><time>2026-04-19T16:45:07.996Z</time></trkpt><trkpt lat="41.5362448" lon="15.5032128"><ele>55.0</ele><time>2026-04-19T16:45:08.996Z</time></trkpt><trkpt lat="41.5360822" lon="15.5032361"><ele>55.0</ele><time>2026-04-19T16:45:09.996Z</time></trkpt><trkpt lat="41.5359174" lon="15.5032587"><ele>55.33333333333333</ele><time>2026-04-19T16:45:10.997Z</time></trkpt><trkpt lat="41.5357533" lon="15.5032798"><ele>55.66666666666667</ele><time>2026-04-19T16:45:11.996Z</time></trkpt><trkpt lat="41.5355885" lon="15.5032978"><ele>56.0</ele><time>2026-04-19T16:45:12.996Z</time></trkpt><trkpt lat="41.5354246" lon="15.5033168"><ele>55.333333333333336</ele><time>2026-04-19T16:45:13.996Z</time></trkpt><trkpt lat="41.535261" lon="15.5033372"><ele>54.66666666666667</ele><time>2026-04-19T16:45:14.996Z</time></trkpt><trkpt lat="41.5350967" lon="15.5033574"><ele>54.0</ele><time>2026-04-19T16:45:15.996Z</time></trkpt><trkpt lat="41.5349343" lon="15.5033784"><ele>54.0</ele><time>2026-04-19T16:45:16.996Z</time></trkpt><trkpt lat="41.5347716" lon="15.5033997"><ele>54.0</ele><time>2026-04-19T16:45:17.996Z</time></trkpt><trkpt lat="41.5346121" lon="15.5034236"><ele>54.0</ele><time>2026-04-19T16:45:18.996Z</time></trkpt><trkpt lat="41.5344541" lon="15.5034455"><ele>54.33333333333333</ele><time>2026-04-19T16:45:19.996Z</time></trkpt><trkpt lat="41.5342982" lon="15.5034686"><ele>54.666666666666664</ele><time>2026-04-19T16:45:20.996Z</time></trkpt><trkpt lat="41.5341447" lon="15.5034896"><ele>55.0</ele><time>2026-04-19T16:45:21.996Z</time></trkpt><trkpt lat="41.5339928" lon="15.5035086"><ele>55.0</ele><time>2026-04-19T16:45:22.997Z</time></trkpt><trkpt lat="41.5338402" lon="15.503529"><ele>55.0</ele><time>2026-04-19T16:45:23.997Z</time></trkpt><trkpt lat="41.5336859" lon="15.5035492"><ele>55.0</ele><time>2026-04-19T16:45:24.996Z</time></trkpt><trkpt lat="41.5335307" lon="15.5035704"><ele>55.33333333333333</ele><time>2026-04-19T16:45:25.996Z</time></trkpt><trkpt lat="41.5333751" lon="15.5035929"><ele>55.66666666666667</ele><time>2026-04-19T16:45:26.997Z</time></trkpt><trkpt lat="41.5332199" lon="15.503615"><ele>56.0</ele><time>2026-04-19T16:45:27.996Z</time></trkpt><trkpt lat="41.5330675" lon="15.5036379"><ele>56.0</ele><time>2026-04-19T16:45:28.996Z</time></trkpt><trkpt lat="41.5329182" lon="15.503659"><ele>56.0</ele><time>2026-04-19T16:45:29.996Z</time></trkpt><trkpt lat="41.5327692" lon="15.5036793"><ele>56.0</ele><time>2026-04-19T16:45:30.996Z</time></trkpt><trkpt lat="41.5326196" lon="15.5036962"><ele>56.0</ele><time>2026-04-19T16:45:31.996Z</time></trkpt><trkpt lat="41.5324688" lon="15.5037138"><ele>56.0</ele><time>2026-04-19T16:45:32.997Z</time></trkpt><trkpt lat="41.5323185" lon="15.503735"><ele>56.0</ele><time>2026-04-19T16:45:33.996Z</time></trkpt><trkpt lat="41.5321698" lon="15.5037577"><ele>56.66666666666667</ele><time>2026-04-19T16:45:34.996Z</time></trkpt><trkpt lat="41.5320215" lon="15.5037787"><ele>57.33333333333333</ele><time>2026-04-19T16:45:35.996Z</time></trkpt><trkpt lat="41.5318708" lon="15.5037982"><ele>58.0</ele><time>2026-04-19T16:45:36.996Z</time></trkpt><trkpt lat="41.5317203" lon="15.503819"><ele>58.0</ele><time>2026-04-19T16:45:37.996Z</time></trkpt><trkpt lat="41.5315689" lon="15.5038404"><ele>58.0</ele><time>2026-04-19T16:45:38.996Z</time></trkpt><trkpt lat="41.531417" lon="15.503863"><ele>58.0</ele><time>2026-04-19T16:45:39.996Z</time></trkpt><trkpt lat="41.5312629" lon="15.5038851"><ele>57.33333333333333</ele><time>2026-04-19T16:45:40.997Z</time></trkpt><trkpt lat="41.5311053" lon="15.5039041"><ele>56.66666666666667</ele><time>2026-04-19T16:45:41.996Z</time></trkpt><trkpt lat="41.5309465" lon="15.5039226"><ele>56.0</ele><time>2026-04-19T16:45:42.996Z</time></trkpt><trkpt lat="41.5307861" lon="15.5039409"><ele>56.0</ele><time>2026-04-19T16:45:43.996Z</time></trkpt><trkpt lat="41.5306254" lon="15.5039592"><ele>56.0</ele><time>2026-04-19T16:45:44.996Z</time></trkpt><trkpt lat="41.5304651" lon="15.5039806"><ele>56.0</ele><time>2026-04-19T16:45:45.997Z</time></trkpt><trkpt lat="41.5303063" lon="15.5040024"><ele>56.0</ele><time>2026-04-19T16:45:46.996Z</time></trkpt><trkpt lat="41.530147" lon="15.5040242"><ele>56.0</ele><time>2026-04-19T16:45:47.997Z</time></trkpt><trkpt lat="41.5299872" lon="15.5040439"><ele>56.0</ele><time>2026-04-19T16:45:48.996Z</time></trkpt><trkpt lat="41.5298258" lon="15.5040656"><ele>56.0</ele><time>2026-04-19T16:45:49.996Z</time></trkpt><trkpt lat="41.529664" lon="15.5040884"><ele>56.0</ele><time>2026-04-19T16:45:50.996Z</time></trkpt><trkpt lat="41.5295033" lon="15.5041116"><ele>56.0</ele><time>2026-04-19T16:45:51.996Z</time></trkpt><trkpt lat="41.5293441" lon="15.504132"><ele>56.0</ele><time>2026-04-19T16:45:52.996Z</time></trkpt><trkpt lat="41.5291873" lon="15.5041541"><ele>56.0</ele><time>2026-04-19T16:45:53.996Z</time></trkpt><trkpt lat="41.5290367" lon="15.5041733"><ele>56.0</ele><time>2026-04-19T16:45:54.997Z</time></trkpt><trkpt lat="41.5288817" lon="15.5041933"><ele>55.66666666666667</ele><time>2026-04-19T16:45:55.996Z</time></trkpt><trkpt lat="41.528725" lon="15.5042133"><ele>55.33333333333333</ele><time>2026-04-19T16:45:56.996Z</time></trkpt><trkpt lat="41.5285683" lon="15.504235"><ele>55.0</ele><time>2026-04-19T16:45:57.996Z</time></trkpt><trkpt lat="41.5284117" lon="15.5042567"><ele>55.0</ele><time>2026-04-19T16:45:58.996Z</time></trkpt><trkpt lat="41.52826" lon="15.5042783"><ele>55.0</ele><time>2026-04-19T16:45:59.997Z</time></trkpt><trkpt lat="41.5281067" lon="15.5043017"><ele>55.0</ele><time>2026-04-19T16:46:00.996Z</time></trkpt><trkpt lat="41.5279567" lon="15.5043217"><ele>55.0</ele><time>2026-04-19T16:46:01.996Z</time></trkpt><trkpt lat="41.5278067" lon="15.5043433"><ele>55.0</ele><time>2026-04-19T16:46:02.997Z</time></trkpt><trkpt lat="41.5276583" lon="15.5043617"><ele>55.0</ele><time>2026-04-19T16:46:03.996Z</time></trkpt><trkpt lat="41.5275083" lon="15.50438"><ele>55.0</ele><time>2026-04-19T16:46:04.996Z</time></trkpt><trkpt lat="41.52736" lon="15.5043967"><ele>55.0</ele><time>2026-04-19T16:46:05.996Z</time></trkpt><trkpt lat="41.52721" lon="15.504415"><ele>55.0</ele><time>2026-04-19T16:46:06.996Z</time></trkpt><trkpt lat="41.5270583" lon="15.504435"><ele>55.0</ele><time>2026-04-19T16:46:07.996Z</time></trkpt><trkpt lat="41.5269033" lon="15.504455"><ele>55.0</ele><time>2026-04-19T16:46:08.997Z</time></trkpt><trkpt lat="41.5267483" lon="15.504475"><ele>55.0</ele><time>2026-04-19T16:46:09.996Z</time></trkpt><trkpt lat="41.5265933" lon="15.5044967"><ele>55.0</ele><time>2026-04-19T16:46:10.996Z</time></trkpt><trkpt lat="41.5264367" lon="15.50452"><ele>55.0</ele><time>2026-04-19T16:46:11.996Z</time></trkpt><trkpt lat="41.5262783" lon="15.5045483"><ele>55.0</ele><time>2026-04-19T16:46:12.996Z</time></trkpt><trkpt lat="41.5261183" lon="15.5045883"><ele>55.33333333333333</ele><time>2026-04-19T16:46:13.996Z</time></trkpt><trkpt lat="41.52596" lon="15.504635"><ele>55.66666666666667</ele><time>2026-04-19T16:46:14.996Z</time></trkpt><trkpt lat="41.5258017" lon="15.5046917"><ele>56.0</ele><time>2026-04-19T16:46:15.996Z</time></trkpt><trkpt lat="41.525645" lon="15.5047533"><ele>56.0</ele><time>2026-04-19T16:46:16.996Z</time></trkpt><trkpt lat="41.52549" lon="15.5048233"><ele>56.0</ele><time>2026-04-19T16:46:17.996Z</time></trkpt><trkpt lat="41.5253367" lon="15.5049"><ele>56.0</ele><time>2026-04-19T16:46:18.997Z</time></trkpt><trkpt lat="41.5251817" lon="15.50498"><ele>56.333333333333336</ele><time>2026-04-19T16:46:19.997Z</time></trkpt><trkpt lat="41.525025" lon="15.50506"><ele>56.66666666666667</ele><time>2026-04-19T16:46:20.996Z</time></trkpt><trkpt lat="41.5248683" lon="15.50514"><ele>57.0</ele><time>2026-04-19T16:46:21.996Z</time></trkpt><trkpt lat="41.524715" lon="15.5052217"><ele>57.0</ele><time>2026-04-19T16:46:22.996Z</time></trkpt><trkpt lat="41.5245633" lon="15.5053"><ele>57.0</ele><time>2026-04-19T16:46:23.996Z</time></trkpt><trkpt lat="41.5244133" lon="15.5053783"><ele>57.0</ele><time>2026-04-19T16:46:24.996Z</time></trkpt><trkpt lat="41.524265" lon="15.5054583"><ele>56.33333333333333</ele><time>2026-04-19T16:46:25.996Z</time></trkpt><trkpt lat="41.5241183" lon="15.505535"><ele>55.666666666666664</ele><time>2026-04-19T16:46:26.996Z</time></trkpt><trkpt lat="41.5239717" lon="15.5056117"><ele>55.0</ele><time>2026-04-19T16:46:27.996Z</time></trkpt><trkpt lat="41.5238283" lon="15.5056867"><ele>55.666666666666664</ele><time>2026-04-19T16:46:28.997Z</time></trkpt><trkpt lat="41.5236833" lon="15.50576"><ele>56.33333333333333</ele><time>2026-04-19T16:46:29.996Z</time></trkpt><trkpt lat="41.52354" lon="15.5058333"><ele>57.0</ele><time>2026-04-19T16:46:30.996Z</time></trkpt><trkpt lat="41.5233967" lon="15.5059083"><ele>57.0</ele><time>2026-04-19T16:46:31.996Z</time></trkpt><trkpt lat="41.5232533" lon="15.5059833"><ele>57.0</ele><time>2026-04-19T16:46:32.996Z</time></trkpt><trkpt lat="41.52311" lon="15.5060567"><ele>57.0</ele><time>2026-04-19T16:46:33.996Z</time></trkpt><trkpt lat="41.522965" lon="15.5061333"><ele>57.0</ele><time>2026-04-19T16:46:34.997Z</time></trkpt><trkpt lat="41.52282" lon="15.50621"><ele>57.0</ele><time>2026-04-19T16:46:35.996Z</time></trkpt><trkpt lat="41.5226733" lon="15.5062867"><ele>57.0</ele><time>2026-04-19T16:46:36.996Z</time></trkpt><trkpt lat="41.5225267" lon="15.50636"><ele>57.0</ele><time>2026-04-19T16:46:37.997Z</time></trkpt><trkpt lat="41.5223817" lon="15.506435"><ele>57.0</ele><time>2026-04-19T16:46:38.996Z</time></trkpt><trkpt lat="41.5222383" lon="15.50651"><ele>57.0</ele><time>2026-04-19T16:46:39.997Z</time></trkpt><trkpt lat="41.5220967" lon="15.506585"><ele>57.25</ele><time>2026-04-19T16:46:40.996Z</time></trkpt><trkpt lat="41.5219583" lon="15.5066583"><ele>57.5</ele><time>2026-04-19T16:46:41.996Z</time></trkpt><trkpt lat="41.5218183" lon="15.5067317"><ele>57.75</ele><time>2026-04-19T16:46:42.996Z</time></trkpt><trkpt lat="41.52168" lon="15.5068067"><ele>58.0</ele><time>2026-04-19T16:46:43.996Z</time></trkpt><trkpt lat="41.52154" lon="15.5068833"><ele>58.0</ele><time>2026-04-19T16:46:44.996Z</time></trkpt><trkpt lat="41.521395" lon="15.50696"><ele>58.0</ele><time>2026-04-19T16:46:45.996Z</time></trkpt><trkpt lat="41.5212483" lon="15.5070367"><ele>58.0</ele><time>2026-04-19T16:46:46.997Z</time></trkpt><trkpt lat="41.5211017" lon="15.507115"><ele>57.666666666666664</ele><time>2026-04-19T16:46:47.996Z</time></trkpt><trkpt lat="41.5209567" lon="15.5071917"><ele>57.33333333333333</ele><time>2026-04-19T16:46:48.996Z</time></trkpt><trkpt lat="41.5208117" lon="15.5072683"><ele>57.0</ele><time>2026-04-19T16:46:49.997Z</time></trkpt><trkpt lat="41.5206683" lon="15.5073433"><ele>57.0</ele><time>2026-04-19T16:46:50.996Z</time></trkpt><trkpt lat="41.5205233" lon="15.50742"><ele>57.0</ele><time>2026-04-19T16:46:51.996Z</time></trkpt><trkpt lat="41.5203783" lon="15.507495"><ele>57.0</ele><time>2026-04-19T16:46:52.996Z</time></trkpt><trkpt lat="41.520235" lon="15.5075717"><ele>57.0</ele><time>2026-04-19T16:46:53.996Z</time></trkpt><trkpt lat="41.5200917" lon="15.507645"><ele>57.0</ele><time>2026-04-19T16:46:54.996Z</time></trkpt><trkpt lat="41.51995" lon="15.50772"><ele>57.0</ele><time>2026-04-19T16:46:55.997Z</time></trkpt><trkpt lat="41.5198067" lon="15.507795"><ele>57.0</ele><time>2026-04-19T16:46:56.996Z</time></trkpt><trkpt lat="41.51966" lon="15.50787"><ele>57.0</ele><time>2026-04-19T16:46:57.996Z</time></trkpt><trkpt lat="41.51951" lon="15.5079483"><ele>57.0</ele><time>2026-04-19T16:46:58.996Z</time></trkpt><trkpt lat="41.51936" lon="15.5080267"><ele>57.0</ele><time>2026-04-19T16:46:59.996Z</time></trkpt><trkpt lat="41.5192083" lon="15.5081033"><ele>57.0</ele><time>2026-04-19T16:47:00.996Z</time></trkpt><trkpt lat="41.5190567" lon="15.5081833"><ele>57.0</ele><time>2026-04-19T16:47:01.996Z</time></trkpt><trkpt lat="41.5189083" lon="15.5082617"><ele>57.0</ele><time>2026-04-19T16:47:02.996Z</time></trkpt><trkpt lat="41.51876" lon="15.5083383"><ele>57.0</ele><time>2026-04-19T16:47:03.997Z</time></trkpt><trkpt lat="41.5186133" lon="15.508415"><ele>57.0</ele><time>2026-04-19T16:47:04.996Z</time></trkpt><trkpt lat="41.5184667" lon="15.50849"><ele>57.0</ele><time>2026-04-19T16:47:05.996Z</time></trkpt><trkpt lat="41.5183233" lon="15.5085667"><ele>57.0</ele><time>2026-04-19T16:47:06.997Z</time></trkpt><trkpt lat="41.5181783" lon="15.50864"><ele>57.0</ele><time>2026-04-19T16:47:07.996Z</time></trkpt><trkpt lat="41.5180367" lon="15.5087133"><ele>56.66666666666667</ele><time>2026-04-19T16:47:08.996Z</time></trkpt><trkpt lat="41.517895" lon="15.5087883"><ele>56.333333333333336</ele><time>2026-04-19T16:47:09.997Z</time></trkpt><trkpt lat="41.5177517" lon="15.5088617"><ele>56.0</ele><time>2026-04-19T16:47:10.997Z</time></trkpt><trkpt lat="41.51761" lon="15.5089367"><ele>56.0</ele><time>2026-04-19T16:47:11.997Z</time></trkpt><trkpt lat="41.517465" lon="15.50901"><ele>56.0</ele><time>2026-04-19T16:47:12.996Z</time></trkpt><trkpt lat="41.5173183" lon="15.5090883"><ele>56.0</ele><time>2026-04-19T16:47:13.996Z</time></trkpt><trkpt lat="41.5171717" lon="15.5091667"><ele>55.66666666666667</ele><time>2026-04-19T16:47:14.997Z</time></trkpt><trkpt lat="41.51702" lon="15.5092467"><ele>55.33333333333333</ele><time>2026-04-19T16:47:15.996Z</time></trkpt><trkpt lat="41.5168667" lon="15.5093267"><ele>55.0</ele><time>2026-04-19T16:47:16.996Z</time></trkpt><trkpt lat="41.5167117" lon="15.509405"><ele>55.0</ele><time>2026-04-19T16:47:17.997Z</time></trkpt><trkpt lat="41.5165583" lon="15.5094833"><ele>55.0</ele><time>2026-04-19T16:47:18.996Z</time></trkpt><trkpt lat="41.5164067" lon="15.5095633"><ele>55.0</ele><time>2026-04-19T16:47:19.996Z</time></trkpt><trkpt lat="41.5162567" lon="15.5096417"><ele>55.0</ele><time>2026-04-19T16:47:20.996Z</time></trkpt><trkpt lat="41.5161083" lon="15.5097183"><ele>55.0</ele><time>2026-04-19T16:47:21.996Z</time></trkpt><trkpt lat="41.51596" lon="15.509795"><ele>55.0</ele><time>2026-04-19T16:47:22.996Z</time></trkpt><trkpt lat="41.5158133" lon="15.50987"><ele>55.0</ele><time>2026-04-19T16:47:23.996Z</time></trkpt><trkpt lat="41.5156667" lon="15.5099483"><ele>55.0</ele><time>2026-04-19T16:47:24.997Z</time></trkpt><trkpt lat="41.5155217" lon="15.5100233"><ele>55.0</ele><time>2026-04-19T16:47:25.996Z</time></trkpt><trkpt lat="41.515375" lon="15.5101"><ele>55.33333333333333</ele><time>2026-04-19T16:47:26.996Z</time></trkpt><trkpt lat="41.51523" lon="15.5101767"><ele>55.66666666666667</ele><time>2026-04-19T16:47:27.996Z</time></trkpt><trkpt lat="41.515085" lon="15.5102533"><ele>56.0</ele><time>2026-04-19T16:47:28.996Z</time></trkpt><trkpt lat="41.51494" lon="15.51033"><ele>56.0</ele><time>2026-04-19T16:47:29.997Z</time></trkpt><trkpt lat="41.5147967" lon="15.510405"><ele>56.0</ele><time>2026-04-19T16:47:30.996Z</time></trkpt><trkpt lat="41.5146533" lon="15.5104783"><ele>56.0</ele><time>2026-04-19T16:47:31.996Z</time></trkpt><trkpt lat="41.5145117" lon="15.5105517"><ele>56.0</ele><time>2026-04-19T16:47:32.997Z</time></trkpt><trkpt lat="41.5143683" lon="15.510625"><ele>56.0</ele><time>2026-04-19T16:47:33.996Z</time></trkpt><trkpt lat="41.5142283" lon="15.5107"><ele>56.0</ele><time>2026-04-19T16:47:34.996Z</time></trkpt><trkpt lat="41.5140867" lon="15.5107733"><ele>56.0</ele><time>2026-04-19T16:47:35.996Z</time></trkpt><trkpt lat="41.5139437" lon="15.5108466"><ele>56.0</ele><time>2026-04-19T16:47:36.996Z</time></trkpt><trkpt lat="41.5138008" lon="15.5109232"><ele>56.0</ele><time>2026-04-19T16:47:37.996Z</time></trkpt><trkpt lat="41.5136585" lon="15.5109981"><ele>56.25</ele><time>2026-04-19T16:47:38.996Z</time></trkpt><trkpt lat="41.5135179" lon="15.511071"><ele>56.5</ele><time>2026-04-19T16:47:39.996Z</time></trkpt><trkpt lat="41.5133831" lon="15.5111414"><ele>56.75</ele><time>2026-04-19T16:47:40.996Z</time></trkpt><trkpt lat="41.5132554" lon="15.5112083"><ele>57.0</ele><time>2026-04-19T16:47:41.996Z</time></trkpt><trkpt lat="41.5131327" lon="15.5112727"><ele>56.75</ele><time>2026-04-19T16:47:42.996Z</time></trkpt><trkpt lat="41.5130088" lon="15.5113359"><ele>56.5</ele><time>2026-04-19T16:47:43.997Z</time></trkpt><trkpt lat="41.5128798" lon="15.5114006"><ele>56.25</ele><time>2026-04-19T16:47:44.996Z</time></trkpt><trkpt lat="41.512749" lon="15.5114689"><ele>56.0</ele><time>2026-04-19T16:47:45.996Z</time></trkpt><trkpt lat="41.5126147" lon="15.5115379"><ele>56.0</ele><time>2026-04-19T16:47:46.996Z</time></trkpt><trkpt lat="41.5124788" lon="15.5116076"><ele>56.0</ele><time>2026-04-19T16:47:47.996Z</time></trkpt><trkpt lat="41.512342" lon="15.51168"><ele>56.0</ele><time>2026-04-19T16:47:48.996Z</time></trkpt><trkpt lat="41.5122039" lon="15.5117523"><ele>56.0</ele><time>2026-04-19T16:47:49.996Z</time></trkpt><trkpt lat="41.5120636" lon="15.5118267"><ele>56.333333333333336</ele><time>2026-04-19T16:47:50.996Z</time></trkpt><trkpt lat="41.5119209" lon="15.5119"><ele>56.66666666666667</ele><time>2026-04-19T16:47:51.996Z</time></trkpt><trkpt lat="41.5117759" lon="15.5119748"><ele>57.0</ele><time>2026-04-19T16:47:52.996Z</time></trkpt><trkpt lat="41.5116298" lon="15.5120503"><ele>56.66666666666667</ele><time>2026-04-19T16:47:53.996Z</time></trkpt><trkpt lat="41.5114842" lon="15.5121265"><ele>56.333333333333336</ele><time>2026-04-19T16:47:54.996Z</time></trkpt><trkpt lat="41.5113389" lon="15.5122021"><ele>56.0</ele><time>2026-04-19T16:47:55.997Z</time></trkpt><trkpt lat="41.5111954" lon="15.5122779"><ele>55.66666666666667</ele><time>2026-04-19T16:47:56.996Z</time></trkpt><trkpt lat="41.511052" lon="15.5123523"><ele>55.33333333333333</ele><time>2026-04-19T16:47:57.996Z</time></trkpt><trkpt lat="41.5109097" lon="15.512427"><ele>55.0</ele><time>2026-04-19T16:47:58.996Z</time></trkpt><trkpt lat="41.5107674" lon="15.5124997"><ele>55.0</ele><time>2026-04-19T16:47:59.996Z</time></trkpt><trkpt lat="41.510624" lon="15.512573"><ele>55.0</ele><time>2026-04-19T16:48:00.996Z</time></trkpt><trkpt lat="41.510479" lon="15.5126469"><ele>55.0</ele><time>2026-04-19T16:48:01.996Z</time></trkpt><trkpt lat="41.510334" lon="15.512723"><ele>55.666666666666664</ele><time>2026-04-19T16:48:02.996Z</time></trkpt><trkpt lat="41.5101877" lon="15.5127997"><ele>56.33333333333333</ele><time>2026-04-19T16:48:03.997Z</time></trkpt><trkpt lat="41.5100385" lon="15.5128777"><ele>57.0</ele><time>2026-04-19T16:48:04.996Z</time></trkpt><trkpt lat="41.5098869" lon="15.5129565"><ele>57.0</ele><time>2026-04-19T16:48:05.997Z</time></trkpt><trkpt lat="41.5097344" lon="15.5130364"><ele>57.0</ele><time>2026-04-19T16:48:06.996Z</time></trkpt><trkpt lat="41.5095823" lon="15.5131147"><ele>57.0</ele><time>2026-04-19T16:48:07.996Z</time></trkpt><trkpt lat="41.5094295" lon="15.5131929"><ele>57.33333333333333</ele><time>2026-04-19T16:48:08.996Z</time></trkpt><trkpt lat="41.5092773" lon="15.513271"><ele>57.666666666666664</ele><time>2026-04-19T16:48:09.996Z</time></trkpt><trkpt lat="41.5091256" lon="15.51335"><ele>58.0</ele><time>2026-04-19T16:48:10.996Z</time></trkpt><trkpt lat="41.508975" lon="15.5134296"><ele>58.0</ele><time>2026-04-19T16:48:11.997Z</time></trkpt><trkpt lat="41.5088238" lon="15.5135093"><ele>58.0</ele><time>2026-04-19T16:48:12.996Z</time></trkpt><trkpt lat="41.5086733" lon="15.5135881"><ele>58.0</ele><time>2026-04-19T16:48:13.996Z</time></trkpt><trkpt lat="41.508523" lon="15.5136666"><ele>57.666666666666664</ele><time>2026-04-19T16:48:14.996Z</time></trkpt><trkpt lat="41.5083722" lon="15.5137459"><ele>57.33333333333333</ele><time>2026-04-19T16:48:15.996Z</time></trkpt><trkpt lat="41.5082231" lon="15.5138237"><ele>57.0</ele><time>2026-04-19T16:48:16.996Z</time></trkpt><trkpt lat="41.5080737" lon="15.5139004"><ele>57.0</ele><time>2026-04-19T16:48:17.996Z</time></trkpt><trkpt lat="41.5079249" lon="15.513975"><ele>57.0</ele><time>2026-04-19T16:48:18.996Z</time></trkpt><trkpt lat="41.5077779" lon="15.5140515"><ele>57.0</ele><time>2026-04-19T16:48:19.996Z</time></trkpt><trkpt lat="41.5076327" lon="15.514128"><ele>57.33333333333333</ele><time>2026-04-19T16:48:20.997Z</time></trkpt><trkpt lat="41.5074892" lon="15.5142043"><ele>57.666666666666664</ele><time>2026-04-19T16:48:21.996Z</time></trkpt><trkpt lat="41.5073462" lon="15.5142808"><ele>58.0</ele><time>2026-04-19T16:48:22.996Z</time></trkpt><trkpt lat="41.5072047" lon="15.5143572"><ele>58.0</ele><time>2026-04-19T16:48:23.996Z</time></trkpt><trkpt lat="41.5070634" lon="15.5144325"><ele>58.0</ele><time>2026-04-19T16:48:24.996Z</time></trkpt><trkpt lat="41.5069221" lon="15.5145037"><ele>58.0</ele><time>2026-04-19T16:48:25.996Z</time></trkpt><trkpt lat="41.5067806" lon="15.5145738"><ele>57.666666666666664</ele><time>2026-04-19T16:48:26.997Z</time></trkpt><trkpt lat="41.506638" lon="15.5146449"><ele>57.33333333333333</ele><time>2026-04-19T16:48:27.996Z</time></trkpt><trkpt lat="41.5064971" lon="15.5147191"><ele>57.0</ele><time>2026-04-19T16:48:28.996Z</time></trkpt><trkpt lat="41.5063562" lon="15.5147927"><ele>57.33333333333333</ele><time>2026-04-19T16:48:29.996Z</time></trkpt><trkpt lat="41.5062169" lon="15.5148661"><ele>57.666666666666664</ele><time>2026-04-19T16:48:30.997Z</time></trkpt><trkpt lat="41.5060762" lon="15.5149385"><ele>58.0</ele><time>2026-04-19T16:48:31.997Z</time></trkpt><trkpt lat="41.5059369" lon="15.5150115"><ele>58.0</ele><time>2026-04-19T16:48:32.996Z</time></trkpt><trkpt lat="41.505796" lon="15.5150857"><ele>58.0</ele><time>2026-04-19T16:48:33.996Z</time></trkpt><trkpt lat="41.5056545" lon="15.5151595"><ele>58.0</ele><time>2026-04-19T16:48:34.996Z</time></trkpt><trkpt lat="41.5055116" lon="15.5152342"><ele>58.33333333333333</ele><time>2026-04-19T16:48:35.996Z</time></trkpt><trkpt lat="41.5053692" lon="15.5153083"><ele>58.66666666666667</ele><time>2026-04-19T16:48:36.996Z</time></trkpt><trkpt lat="41.5052261" lon="15.5153818"><ele>59.0</ele><time>2026-04-19T16:48:37.996Z</time></trkpt><trkpt lat="41.5050836" lon="15.5154534"><ele>59.0</ele><time>2026-04-19T16:48:38.996Z</time></trkpt><trkpt lat="41.5049408" lon="15.5155278"><ele>59.0</ele><time>2026-04-19T16:48:39.996Z</time></trkpt><trkpt lat="41.5047978" lon="15.5156027"><ele>59.0</ele><time>2026-04-19T16:48:40.997Z</time></trkpt><trkpt lat="41.5046567" lon="15.5156756"><ele>59.333333333333336</ele><time>2026-04-19T16:48:41.996Z</time></trkpt><trkpt lat="41.5045155" lon="15.5157487"><ele>59.66666666666667</ele><time>2026-04-19T16:48:42.996Z</time></trkpt><trkpt lat="41.5043764" lon="15.5158218"><ele>60.0</ele><time>2026-04-19T16:48:43.996Z</time></trkpt><trkpt lat="41.504238" lon="15.5158948"><ele>60.0</ele><time>2026-04-19T16:48:44.996Z</time></trkpt><trkpt lat="41.5041001" lon="15.5159669"><ele>60.0</ele><time>2026-04-19T16:48:45.997Z</time></trkpt><trkpt lat="41.5039634" lon="15.5160394"><ele>60.0</ele><time>2026-04-19T16:48:46.996Z</time></trkpt><trkpt lat="41.5038267" lon="15.5161114"><ele>60.0</ele><time>2026-04-19T16:48:47.996Z</time></trkpt><trkpt lat="41.5036906" lon="15.5161831"><ele>60.0</ele><time>2026-04-19T16:48:48.996Z</time></trkpt><trkpt lat="41.5035567" lon="15.5162557"><ele>60.0</ele><time>2026-04-19T16:48:49.996Z</time></trkpt><trkpt lat="41.5034223" lon="15.5163264"><ele>60.0</ele><time>2026-04-19T16:48:50.996Z</time></trkpt><trkpt lat="41.5032875" lon="15.5163967"><ele>60.0</ele><time>2026-04-19T16:48:51.996Z</time></trkpt><trkpt lat="41.5031517" lon="15.5164658"><ele>60.0</ele><time>2026-04-19T16:48:52.996Z</time></trkpt><trkpt lat="41.503015" lon="15.5165365"><ele>60.0</ele><time>2026-04-19T16:48:53.996Z</time></trkpt><trkpt lat="41.5028763" lon="15.5166069"><ele>60.0</ele><time>2026-04-19T16:48:54.996Z</time></trkpt><trkpt lat="41.5027381" lon="15.5166792"><ele>60.0</ele><time>2026-04-19T16:48:55.996Z</time></trkpt><trkpt lat="41.5025984" lon="15.51675"><ele>60.33333333333333</ele><time>2026-04-19T16:48:56.996Z</time></trkpt><trkpt lat="41.5024594" lon="15.5168221"><ele>60.666666666666664</ele><time>2026-04-19T16:48:57.996Z</time></trkpt><trkpt lat="41.5023197" lon="15.5168956"><ele>61.0</ele><time>2026-04-19T16:48:58.996Z</time></trkpt><trkpt lat="41.5021791" lon="15.5169679"><ele>61.0</ele><time>2026-04-19T16:48:59.997Z</time></trkpt><trkpt lat="41.5020387" lon="15.5170408"><ele>61.0</ele><time>2026-04-19T16:49:00.996Z</time></trkpt><trkpt lat="41.5018963" lon="15.5171157"><ele>61.0</ele><time>2026-04-19T16:49:01.997Z</time></trkpt><trkpt lat="41.5017542" lon="15.5171918"><ele>61.0</ele><time>2026-04-19T16:49:02.997Z</time></trkpt><trkpt lat="41.5016121" lon="15.5172674"><ele>61.0</ele><time>2026-04-19T16:49:03.996Z</time></trkpt><trkpt lat="41.5014692" lon="15.5173427"><ele>61.0</ele><time>2026-04-19T16:49:04.997Z</time></trkpt><trkpt lat="41.5013246" lon="15.5174181"><ele>61.0</ele><time>2026-04-19T16:49:05.996Z</time></trkpt><trkpt lat="41.5011796" lon="15.5174934"><ele>61.0</ele><time>2026-04-19T16:49:06.997Z</time></trkpt><trkpt lat="41.5010322" lon="15.5175698"><ele>61.0</ele><time>2026-04-19T16:49:07.996Z</time></trkpt><trkpt lat="41.5008869" lon="15.5176455"><ele>61.0</ele><time>2026-04-19T16:49:08.996Z</time></trkpt><trkpt lat="41.5007445" lon="15.5177195"><ele>61.0</ele><time>2026-04-19T16:49:09.996Z</time></trkpt><trkpt lat="41.5006065" lon="15.5177923"><ele>61.0</ele><time>2026-04-19T16:49:10.996Z</time></trkpt><trkpt lat="41.5004709" lon="15.5178637"><ele>61.0</ele><time>2026-04-19T16:49:11.996Z</time></trkpt><trkpt lat="41.5003367" lon="15.5179377"><ele>61.25</ele><time>2026-04-19T16:49:12.996Z</time></trkpt><trkpt lat="41.5002022" lon="15.5180115"><ele>61.5</ele><time>2026-04-19T16:49:13.997Z</time></trkpt><trkpt lat="41.5000669" lon="15.5180853"><ele>61.75</ele><time>2026-04-19T16:49:14.997Z</time></trkpt><trkpt lat="41.4999305" lon="15.5181548"><ele>62.0</ele><time>2026-04-19T16:49:15.996Z</time></trkpt><trkpt lat="41.4997937" lon="15.5182232"><ele>62.0</ele><time>2026-04-19T16:49:16.997Z</time></trkpt><trkpt lat="41.4996547" lon="15.5182926"><ele>62.0</ele><time>2026-04-19T16:49:17.997Z</time></trkpt><trkpt lat="41.4995148" lon="15.5183625"><ele>62.0</ele><time>2026-04-19T16:49:18.996Z</time></trkpt><trkpt lat="41.4993739" lon="15.5184365"><ele>62.0</ele><time>2026-04-19T16:49:19.997Z</time></trkpt><trkpt lat="41.4992299" lon="15.5185132"><ele>62.0</ele><time>2026-04-19T16:49:20.996Z</time></trkpt><trkpt lat="41.4990845" lon="15.5185895"><ele>62.0</ele><time>2026-04-19T16:49:21.996Z</time></trkpt><trkpt lat="41.4989393" lon="15.518666"><ele>62.0</ele><time>2026-04-19T16:49:22.997Z</time></trkpt><trkpt lat="41.4987928" lon="15.5187429"><ele>61.66666666666667</ele><time>2026-04-19T16:49:23.996Z</time></trkpt><trkpt lat="41.498646" lon="15.5188197"><ele>61.33333333333333</ele><time>2026-04-19T16:49:24.996Z</time></trkpt><trkpt lat="41.4984977" lon="15.5188987"><ele>61.0</ele><time>2026-04-19T16:49:25.996Z</time></trkpt><trkpt lat="41.4983488" lon="15.5189786"><ele>61.0</ele><time>2026-04-19T16:49:26.996Z</time></trkpt><trkpt lat="41.4981983" lon="15.5190593"><ele>61.0</ele><time>2026-04-19T16:49:27.996Z</time></trkpt><trkpt lat="41.4980464" lon="15.5191384"><ele>61.0</ele><time>2026-04-19T16:49:28.997Z</time></trkpt><trkpt lat="41.4978947" lon="15.5192176"><ele>61.666666666666664</ele><time>2026-04-19T16:49:29.996Z</time></trkpt><trkpt lat="41.4977472" lon="15.5192945"><ele>62.33333333333333</ele><time>2026-04-19T16:49:30.996Z</time></trkpt><trkpt lat="41.4975994" lon="15.5193721"><ele>63.0</ele><time>2026-04-19T16:49:31.996Z</time></trkpt><trkpt lat="41.4974514" lon="15.5194491"><ele>63.0</ele><time>2026-04-19T16:49:32.996Z</time></trkpt><trkpt lat="41.4973014" lon="15.5195251"><ele>63.0</ele><time>2026-04-19T16:49:33.996Z</time></trkpt><trkpt lat="41.4971512" lon="15.5196014"><ele>63.0</ele><time>2026-04-19T16:49:34.996Z</time></trkpt><trkpt lat="41.4970006" lon="15.5196784"><ele>62.33333333333333</ele><time>2026-04-19T16:49:35.997Z</time></trkpt><trkpt lat="41.4968534" lon="15.5197578"><ele>61.666666666666664</ele><time>2026-04-19T16:49:36.996Z</time></trkpt><trkpt lat="41.4967067" lon="15.5198376"><ele>61.0</ele><time>2026-04-19T16:49:37.996Z</time></trkpt><trkpt lat="41.4965588" lon="15.519916"><ele>61.0</ele><time>2026-04-19T16:49:38.996Z</time></trkpt><trkpt lat="41.4964117" lon="15.5199925"><ele>61.0</ele><time>2026-04-19T16:49:39.996Z</time></trkpt><trkpt lat="41.4962629" lon="15.5200691"><ele>61.0</ele><time>2026-04-19T16:49:40.996Z</time></trkpt><trkpt lat="41.4961128" lon="15.5201461"><ele>61.0</ele><time>2026-04-19T16:49:41.997Z</time></trkpt><trkpt lat="41.4959638" lon="15.5202238"><ele>61.0</ele><time>2026-04-19T16:49:42.996Z</time></trkpt><trkpt lat="41.4958151" lon="15.5203035"><ele>61.0</ele><time>2026-04-19T16:49:43.996Z</time></trkpt><trkpt lat="41.4956655" lon="15.5203801"><ele>61.33333333333333</ele><time>2026-04-19T16:49:44.997Z</time></trkpt><trkpt lat="41.4955161" lon="15.5204563"><ele>61.66666666666667</ele><time>2026-04-19T16:49:45.996Z</time></trkpt><trkpt lat="41.495366" lon="15.5205323"><ele>62.0</ele><time>2026-04-19T16:49:46.996Z</time></trkpt><trkpt lat="41.4952155" lon="15.5206123"><ele>62.0</ele><time>2026-04-19T16:49:47.997Z</time></trkpt><trkpt lat="41.4950629" lon="15.5206936"><ele>62.0</ele><time>2026-04-19T16:49:48.996Z</time></trkpt><trkpt lat="41.4949106" lon="15.5207752"><ele>62.0</ele><time>2026-04-19T16:49:49.996Z</time></trkpt><trkpt lat="41.4947597" lon="15.5208559"><ele>62.0</ele><time>2026-04-19T16:49:50.997Z</time></trkpt><trkpt lat="41.494615" lon="15.5209333"><ele>62.0</ele><time>2026-04-19T16:49:51.996Z</time></trkpt><trkpt lat="41.49447" lon="15.5210117"><ele>62.0</ele><time>2026-04-19T16:49:52.996Z</time></trkpt><trkpt lat="41.4943267" lon="15.5210917"><ele>62.333333333333336</ele><time>2026-04-19T16:49:53.996Z</time></trkpt><trkpt lat="41.4941833" lon="15.5211733"><ele>62.66666666666667</ele><time>2026-04-19T16:49:54.997Z</time></trkpt><trkpt lat="41.4940417" lon="15.5212583"><ele>63.0</ele><time>2026-04-19T16:49:55.996Z</time></trkpt><trkpt lat="41.4939017" lon="15.521345"><ele>63.0</ele><time>2026-04-19T16:49:56.996Z</time></trkpt><trkpt lat="41.4937617" lon="15.5214317"><ele>63.0</ele><time>2026-04-19T16:49:57.996Z</time></trkpt><trkpt lat="41.4936233" lon="15.5215183"><ele>63.0</ele><time>2026-04-19T16:49:58.996Z</time></trkpt><trkpt lat="41.4934883" lon="15.521605"><ele>63.0</ele><time>2026-04-19T16:49:59.996Z</time></trkpt><trkpt lat="41.4933567" lon="15.5216883"><ele>63.0</ele><time>2026-04-19T16:50:00.996Z</time></trkpt><trkpt lat="41.4932317" lon="15.5217683"><ele>63.0</ele><time>2026-04-19T16:50:01.997Z</time></trkpt><trkpt lat="41.493105" lon="15.5218483"><ele>63.0</ele><time>2026-04-19T16:50:02.996Z</time></trkpt><trkpt lat="41.4929767" lon="15.5219317"><ele>63.0</ele><time>2026-04-19T16:50:03.996Z</time></trkpt><trkpt lat="41.4928467" lon="15.522015"><ele>63.0</ele><time>2026-04-19T16:50:04.996Z</time></trkpt><trkpt lat="41.4927167" lon="15.5220967"><ele>63.0</ele><time>2026-04-19T16:50:05.996Z</time></trkpt><trkpt lat="41.4925867" lon="15.5221783"><ele>63.0</ele><time>2026-04-19T16:50:06.996Z</time></trkpt><trkpt lat="41.4924533" lon="15.5222617"><ele>62.75</ele><time>2026-04-19T16:50:07.996Z</time></trkpt><trkpt lat="41.49232" lon="15.5223417"><ele>62.5</ele><time>2026-04-19T16:50:08.996Z</time></trkpt><trkpt lat="41.4921833" lon="15.522415"><ele>62.25</ele><time>2026-04-19T16:50:09.997Z</time></trkpt><trkpt lat="41.492045" lon="15.5224833"><ele>62.0</ele><time>2026-04-19T16:50:10.996Z</time></trkpt><trkpt lat="41.4919067" lon="15.52254"><ele>62.5</ele><time>2026-04-19T16:50:11.996Z</time></trkpt><trkpt lat="41.491765" lon="15.52259"><ele>63.0</ele><time>2026-04-19T16:50:12.996Z</time></trkpt><trkpt lat="41.491625" lon="15.5226333"><ele>63.5</ele><time>2026-04-19T16:50:13.997Z</time></trkpt><trkpt lat="41.4914917" lon="15.5226717"><ele>64.0</ele><time>2026-04-19T16:50:14.996Z</time></trkpt><trkpt lat="41.4913583" lon="15.5227067"><ele>64.0</ele><time>2026-04-19T16:50:15.996Z</time></trkpt><trkpt lat="41.4912317" lon="15.5227367"><ele>64.0</ele><time>2026-04-19T16:50:16.997Z</time></trkpt><trkpt lat="41.491105" lon="15.5227683"><ele>64.0</ele><time>2026-04-19T16:50:17.996Z</time></trkpt><trkpt lat="41.4909733" lon="15.5227983"><ele>64.0</ele><time>2026-04-19T16:50:18.996Z</time></trkpt><trkpt lat="41.4908383" lon="15.5228267"><ele>64.0</ele><time>2026-04-19T16:50:19.996Z</time></trkpt><trkpt lat="41.4907017" lon="15.5228533"><ele>64.0</ele><time>2026-04-19T16:50:20.996Z</time></trkpt><trkpt lat="41.4905617" lon="15.5228733"><ele>64.0</ele><time>2026-04-19T16:50:21.997Z</time></trkpt><trkpt lat="41.49042" lon="15.5228917"><ele>64.0</ele><time>2026-04-19T16:50:22.996Z</time></trkpt><trkpt lat="41.49028" lon="15.5229033"><ele>63.75</ele><time>2026-04-19T16:50:23.996Z</time></trkpt><trkpt lat="41.4901383" lon="15.5229133"><ele>63.5</ele><time>2026-04-19T16:50:24.997Z</time></trkpt><trkpt lat="41.49" lon="15.5229183"><ele>63.25</ele><time>2026-04-19T16:50:25.996Z</time></trkpt><trkpt lat="41.4898601" lon="15.5229229"><ele>63.0</ele><time>2026-04-19T16:50:26.996Z</time></trkpt><trkpt lat="41.48972" lon="15.5229264"><ele>63.0</ele><time>2026-04-19T16:50:27.996Z</time></trkpt><trkpt lat="41.4895791" lon="15.5229266"><ele>63.0</ele><time>2026-04-19T16:50:28.996Z</time></trkpt><trkpt lat="41.4894377" lon="15.5229243"><ele>63.0</ele><time>2026-04-19T16:50:29.996Z</time></trkpt><trkpt lat="41.4892933" lon="15.5229195"><ele>63.0</ele><time>2026-04-19T16:50:30.997Z</time></trkpt><trkpt lat="41.4891487" lon="15.5229113"><ele>63.0</ele><time>2026-04-19T16:50:31.996Z</time></trkpt><trkpt lat="41.4890034" lon="15.5228996"><ele>63.0</ele><time>2026-04-19T16:50:32.996Z</time></trkpt><trkpt lat="41.4888582" lon="15.5228842"><ele>63.0</ele><time>2026-04-19T16:50:33.997Z</time></trkpt><trkpt lat="41.4887109" lon="15.5228618"><ele>63.0</ele><time>2026-04-19T16:50:34.996Z</time></trkpt><trkpt lat="41.4885612" lon="15.522838"><ele>63.0</ele><time>2026-04-19T16:50:35.997Z</time></trkpt><trkpt lat="41.4884123" lon="15.5228134"><ele>63.0</ele><time>2026-04-19T16:50:36.997Z</time></trkpt><trkpt lat="41.4882614" lon="15.5227809"><ele>63.0</ele><time>2026-04-19T16:50:37.996Z</time></trkpt><trkpt lat="41.4881082" lon="15.5227426"><ele>63.0</ele><time>2026-04-19T16:50:38.996Z</time></trkpt><trkpt lat="41.4879545" lon="15.5227015"><ele>63.0</ele><time>2026-04-19T16:50:39.996Z</time></trkpt><trkpt lat="41.4878021" lon="15.5226567"><ele>63.0</ele><time>2026-04-19T16:50:40.996Z</time></trkpt><trkpt lat="41.4876502" lon="15.5226081"><ele>63.33333333333333</ele><time>2026-04-19T16:50:41.997Z</time></trkpt><trkpt lat="41.4874989" lon="15.5225529"><ele>63.666666666666664</ele><time>2026-04-19T16:50:42.997Z</time></trkpt><trkpt lat="41.4873487" lon="15.5224962"><ele>64.0</ele><time>2026-04-19T16:50:43.996Z</time></trkpt><trkpt lat="41.4871992" lon="15.5224339"><ele>64.0</ele><time>2026-04-19T16:50:44.996Z</time></trkpt><trkpt lat="41.4870519" lon="15.5223643"><ele>64.0</ele><time>2026-04-19T16:50:45.997Z</time></trkpt><trkpt lat="41.4869084" lon="15.522292"><ele>64.0</ele><time>2026-04-19T16:50:46.996Z</time></trkpt><trkpt lat="41.4867669" lon="15.5222149"><ele>64.0</ele><time>2026-04-19T16:50:47.996Z</time></trkpt><trkpt lat="41.4866244" lon="15.5221374"><ele>64.0</ele><time>2026-04-19T16:50:48.996Z</time></trkpt><trkpt lat="41.486483" lon="15.5220617"><ele>64.0</ele><time>2026-04-19T16:50:49.996Z</time></trkpt><trkpt lat="41.4863457" lon="15.5219864"><ele>64.0</ele><time>2026-04-19T16:50:50.996Z</time></trkpt><trkpt lat="41.4862195" lon="15.5219043"><ele>64.0</ele><time>2026-04-19T16:50:51.996Z</time></trkpt><trkpt lat="41.4860991" lon="15.5218185"><ele>64.0</ele><time>2026-04-19T16:50:52.996Z</time></trkpt><trkpt lat="41.4859776" lon="15.521732"><ele>64.0</ele><time>2026-04-19T16:50:53.996Z</time></trkpt><trkpt lat="41.485854" lon="15.5216528"><ele>64.0</ele><time>2026-04-19T16:50:54.996Z</time></trkpt><trkpt lat="41.4857316" lon="15.521572"><ele>64.0</ele><time>2026-04-19T16:50:55.996Z</time></trkpt><trkpt lat="41.4856129" lon="15.521479"><ele>64.0</ele><time>2026-04-19T16:50:56.996Z</time></trkpt><trkpt lat="41.4854953" lon="15.5213791"><ele>64.0</ele><time>2026-04-19T16:50:57.996Z</time></trkpt><trkpt lat="41.485376" lon="15.5212816"><ele>64.25</ele><time>2026-04-19T16:50:58.996Z</time></trkpt><trkpt lat="41.4852569" lon="15.5211832"><ele>64.5</ele><time>2026-04-19T16:50:59.996Z</time></trkpt><trkpt lat="41.4851378" lon="15.5210794"><ele>64.75</ele><time>2026-04-19T16:51:00.996Z</time></trkpt><trkpt lat="41.4850181" lon="15.5209705"><ele>65.0</ele><time>2026-04-19T16:51:01.997Z</time></trkpt><trkpt lat="41.484897" lon="15.5208597"><ele>65.0</ele><time>2026-04-19T16:51:02.996Z</time></trkpt><trkpt lat="41.4847772" lon="15.5207471"><ele>65.0</ele><time>2026-04-19T16:51:03.996Z</time></trkpt><trkpt lat="41.4846588" lon="15.5206325"><ele>65.0</ele><time>2026-04-19T16:51:04.996Z</time></trkpt><trkpt lat="41.4845439" lon="15.5205166"><ele>65.0</ele><time>2026-04-19T16:51:05.996Z</time></trkpt><trkpt lat="41.484433" lon="15.5203995"><ele>65.0</ele><time>2026-04-19T16:51:06.996Z</time></trkpt><trkpt lat="41.4843269" lon="15.5202755"><ele>65.0</ele><time>2026-04-19T16:51:07.997Z</time></trkpt><trkpt lat="41.4842248" lon="15.5201435"><ele>65.0</ele><time>2026-04-19T16:51:08.996Z</time></trkpt><trkpt lat="41.4841258" lon="15.5200127"><ele>65.0</ele><time>2026-04-19T16:51:09.996Z</time></trkpt><trkpt lat="41.4840256" lon="15.5198888"><ele>65.0</ele><time>2026-04-19T16:51:10.996Z</time></trkpt><trkpt lat="41.4839231" lon="15.5197675"><ele>65.0</ele><time>2026-04-19T16:51:11.996Z</time></trkpt><trkpt lat="41.4838204" lon="15.5196439"><ele>65.0</ele><time>2026-04-19T16:51:12.996Z</time></trkpt><trkpt lat="41.4837181" lon="15.5195172"><ele>65.0</ele><time>2026-04-19T16:51:13.997Z</time></trkpt><trkpt lat="41.4836122" lon="15.5193869"><ele>64.75</ele><time>2026-04-19T16:51:14.996Z</time></trkpt><trkpt lat="41.4835043" lon="15.5192548"><ele>64.5</ele><time>2026-04-19T16:51:15.997Z</time></trkpt><trkpt lat="41.4833979" lon="15.5191216"><ele>64.25</ele><time>2026-04-19T16:51:16.996Z</time></trkpt><trkpt lat="41.4832923" lon="15.5189911"><ele>64.0</ele><time>2026-04-19T16:51:17.996Z</time></trkpt><trkpt lat="41.4831869" lon="15.5188616"><ele>64.0</ele><time>2026-04-19T16:51:18.996Z</time></trkpt><trkpt lat="41.4830796" lon="15.5187286"><ele>64.0</ele><time>2026-04-19T16:51:19.996Z</time></trkpt><trkpt lat="41.4829691" lon="15.5185926"><ele>64.0</ele><time>2026-04-19T16:51:20.996Z</time></trkpt><trkpt lat="41.4828594" lon="15.5184551"><ele>64.0</ele><time>2026-04-19T16:51:21.996Z</time></trkpt><trkpt lat="41.48275" lon="15.5183165"><ele>64.33333333333333</ele><time>2026-04-19T16:51:22.996Z</time></trkpt><trkpt lat="41.4826381" lon="15.51818"><ele>64.66666666666667</ele><time>2026-04-19T16:51:23.996Z</time></trkpt><trkpt lat="41.4825253" lon="15.5180445"><ele>65.0</ele><time>2026-04-19T16:51:24.996Z</time></trkpt><trkpt lat="41.4824117" lon="15.5179059"><ele>65.5</ele><time>2026-04-19T16:51:25.996Z</time></trkpt><trkpt lat="41.4823038" lon="15.5177686"><ele>66.0</ele><time>2026-04-19T16:51:26.997Z</time></trkpt><trkpt lat="41.4822028" lon="15.5176372"><ele>66.5</ele><time>2026-04-19T16:51:27.996Z</time></trkpt><trkpt lat="41.4821052" lon="15.517511"><ele>67.0</ele><time>2026-04-19T16:51:28.996Z</time></trkpt><trkpt lat="41.482008" lon="15.5173847"><ele>67.0</ele><time>2026-04-19T16:51:29.996Z</time></trkpt><trkpt lat="41.48191" lon="15.5172569"><ele>67.0</ele><time>2026-04-19T16:51:30.996Z</time></trkpt><trkpt lat="41.4818113" lon="15.5171286"><ele>67.0</ele><time>2026-04-19T16:51:31.996Z</time></trkpt><trkpt lat="41.4817117" lon="15.5169996"><ele>67.0</ele><time>2026-04-19T16:51:32.996Z</time></trkpt><trkpt lat="41.4816072" lon="15.5168742"><ele>67.0</ele><time>2026-04-19T16:51:33.996Z</time></trkpt><trkpt lat="41.4814995" lon="15.5167487"><ele>67.0</ele><time>2026-04-19T16:51:34.996Z</time></trkpt><trkpt lat="41.4813951" lon="15.5166206"><ele>67.0</ele><time>2026-04-19T16:51:35.996Z</time></trkpt><trkpt lat="41.4812936" lon="15.5164919"><ele>67.0</ele><time>2026-04-19T16:51:36.996Z</time></trkpt><trkpt lat="41.4811943" lon="15.5163618"><ele>67.25</ele><time>2026-04-19T16:51:37.996Z</time></trkpt><trkpt lat="41.4810961" lon="15.5162322"><ele>67.5</ele><time>2026-04-19T16:51:38.996Z</time></trkpt><trkpt lat="41.4809929" lon="15.516106"><ele>67.75</ele><time>2026-04-19T16:51:39.996Z</time></trkpt><trkpt lat="41.4808873" lon="15.515978"><ele>68.0</ele><time>2026-04-19T16:51:40.996Z</time></trkpt><trkpt lat="41.4807815" lon="15.5158482"><ele>68.0</ele><time>2026-04-19T16:51:41.996Z</time></trkpt><trkpt lat="41.4806779" lon="15.5157166"><ele>68.0</ele><time>2026-04-19T16:51:42.996Z</time></trkpt><trkpt lat="41.4805718" lon="15.5155865"><ele>68.0</ele><time>2026-04-19T16:51:43.997Z</time></trkpt><trkpt lat="41.4804647" lon="15.5154519"><ele>68.0</ele><time>2026-04-19T16:51:44.996Z</time></trkpt><trkpt lat="41.480355" lon="15.5153132"><ele>68.33333333333334</ele><time>2026-04-19T16:51:45.996Z</time></trkpt><trkpt lat="41.4802442" lon="15.5151695"><ele>68.66666666666667</ele><time>2026-04-19T16:51:46.996Z</time></trkpt><trkpt lat="41.4801319" lon="15.5150221"><ele>69.0</ele><time>2026-04-19T16:51:47.996Z</time></trkpt><trkpt lat="41.4800167" lon="15.5148769"><ele>69.0</ele><time>2026-04-19T16:51:48.997Z</time></trkpt><trkpt lat="41.479901" lon="15.5147293"><ele>69.0</ele><time>2026-04-19T16:51:49.996Z</time></trkpt><trkpt lat="41.4797869" lon="15.514585"><ele>69.0</ele><time>2026-04-19T16:51:50.996Z</time></trkpt><trkpt lat="41.479674" lon="15.5144369"><ele>69.33333333333333</ele><time>2026-04-19T16:51:51.996Z</time></trkpt><trkpt lat="41.4795569" lon="15.5142869"><ele>69.66666666666666</ele><time>2026-04-19T16:51:52.996Z</time></trkpt><trkpt lat="41.4794384" lon="15.5141363"><ele>70.0</ele><time>2026-04-19T16:51:53.996Z</time></trkpt><trkpt lat="41.4793203" lon="15.5139872"><ele>70.0</ele><time>2026-04-19T16:51:54.996Z</time></trkpt><trkpt lat="41.4792022" lon="15.5138407"><ele>70.0</ele><time>2026-04-19T16:51:55.996Z</time></trkpt><trkpt lat="41.4790835" lon="15.5136949"><ele>70.0</ele><time>2026-04-19T16:51:56.996Z</time></trkpt><trkpt lat="41.4789626" lon="15.5135517"><ele>70.0</ele><time>2026-04-19T16:51:57.996Z</time></trkpt><trkpt lat="41.4788423" lon="15.5134096"><ele>70.0</ele><time>2026-04-19T16:51:58.996Z</time></trkpt><trkpt lat="41.478725" lon="15.5132672"><ele>70.0</ele><time>2026-04-19T16:51:59.996Z</time></trkpt><trkpt lat="41.4786084" lon="15.513128"><ele>70.33333333333333</ele><time>2026-04-19T16:52:00.996Z</time></trkpt><trkpt lat="41.4784944" lon="15.512986"><ele>70.66666666666667</ele><time>2026-04-19T16:52:01.996Z</time></trkpt><trkpt lat="41.4783798" lon="15.5128431"><ele>71.0</ele><time>2026-04-19T16:52:02.996Z</time></trkpt><trkpt lat="41.478266" lon="15.5127011"><ele>71.0</ele><time>2026-04-19T16:52:03.996Z</time></trkpt><trkpt lat="41.4781503" lon="15.5125582"><ele>71.0</ele><time>2026-04-19T16:52:04.996Z</time></trkpt><trkpt lat="41.4780355" lon="15.512415"><ele>71.0</ele><time>2026-04-19T16:52:05.996Z</time></trkpt><trkpt lat="41.4779208" lon="15.5122739"><ele>71.0</ele><time>2026-04-19T16:52:06.996Z</time></trkpt><trkpt lat="41.4778056" lon="15.5121351"><ele>71.0</ele><time>2026-04-19T16:52:07.996Z</time></trkpt><trkpt lat="41.4776919" lon="15.5119974"><ele>71.0</ele><time>2026-04-19T16:52:08.996Z</time></trkpt><trkpt lat="41.4775789" lon="15.5118618"><ele>71.0</ele><time>2026-04-19T16:52:09.996Z</time></trkpt><trkpt lat="41.4774692" lon="15.5117264"><ele>71.0</ele><time>2026-04-19T16:52:10.997Z</time></trkpt><trkpt lat="41.4773606" lon="15.5115907"><ele>71.0</ele><time>2026-04-19T16:52:11.996Z</time></trkpt><trkpt lat="41.4772538" lon="15.5114553"><ele>71.0</ele><time>2026-04-19T16:52:12.996Z</time></trkpt><trkpt lat="41.4771478" lon="15.5113226"><ele>71.25</ele><time>2026-04-19T16:52:13.996Z</time></trkpt><trkpt lat="41.477043" lon="15.5111906"><ele>71.5</ele><time>2026-04-19T16:52:14.996Z</time></trkpt><trkpt lat="41.4769375" lon="15.5110591"><ele>71.75</ele><time>2026-04-19T16:52:15.996Z</time></trkpt><trkpt lat="41.4768283" lon="15.510931"><ele>72.0</ele><time>2026-04-19T16:52:16.997Z</time></trkpt><trkpt lat="41.4767142" lon="15.5108073"><ele>72.0</ele><time>2026-04-19T16:52:17.996Z</time></trkpt><trkpt lat="41.4765972" lon="15.5106888"><ele>72.0</ele><time>2026-04-19T16:52:18.996Z</time></trkpt><trkpt lat="41.4764757" lon="15.5105733"><ele>72.0</ele><time>2026-04-19T16:52:19.996Z</time></trkpt><trkpt lat="41.4763524" lon="15.510462"><ele>72.0</ele><time>2026-04-19T16:52:20.996Z</time></trkpt><trkpt lat="41.4762275" lon="15.5103536"><ele>72.0</ele><time>2026-04-19T16:52:21.996Z</time></trkpt><trkpt lat="41.4761004" lon="15.5102488"><ele>72.0</ele><time>2026-04-19T16:52:22.996Z</time></trkpt><trkpt lat="41.4759719" lon="15.5101462"><ele>72.0</ele><time>2026-04-19T16:52:23.996Z</time></trkpt><trkpt lat="41.4758405" lon="15.5100494"><ele>72.0</ele><time>2026-04-19T16:52:24.996Z</time></trkpt><trkpt lat="41.4757084" lon="15.509957"><ele>72.0</ele><time>2026-04-19T16:52:25.996Z</time></trkpt><trkpt lat="41.4755754" lon="15.5098704"><ele>72.0</ele><time>2026-04-19T16:52:26.996Z</time></trkpt><trkpt lat="41.4754394" lon="15.5097884"><ele>72.0</ele><time>2026-04-19T16:52:27.996Z</time></trkpt><trkpt lat="41.4753012" lon="15.5097103"><ele>72.0</ele><time>2026-04-19T16:52:28.997Z</time></trkpt><trkpt lat="41.4751631" lon="15.5096337"><ele>72.5</ele><time>2026-04-19T16:52:29.997Z</time></trkpt><trkpt lat="41.4750298" lon="15.509564"><ele>73.0</ele><time>2026-04-19T16:52:30.996Z</time></trkpt><trkpt lat="41.4749048" lon="15.509501"><ele>73.5</ele><time>2026-04-19T16:52:31.996Z</time></trkpt><trkpt lat="41.4747861" lon="15.5094419"><ele>74.0</ele><time>2026-04-19T16:52:32.997Z</time></trkpt><trkpt lat="41.4746726" lon="15.5093874"><ele>74.0</ele><time>2026-04-19T16:52:33.996Z</time></trkpt><trkpt lat="41.4745666" lon="15.5093349"><ele>74.0</ele><time>2026-04-19T16:52:34.997Z</time></trkpt><trkpt lat="41.4744672" lon="15.5092851"><ele>74.0</ele><time>2026-04-19T16:52:35.996Z</time></trkpt><trkpt lat="41.4743772" lon="15.5092408"><ele>74.0</ele><time>2026-04-19T16:52:36.997Z</time></trkpt><trkpt lat="41.4742969" lon="15.5091972"><ele>74.0</ele><time>2026-04-19T16:52:37.996Z</time></trkpt><trkpt lat="41.4742248" lon="15.5091462"><ele>74.0</ele><time>2026-04-19T16:52:38.997Z</time></trkpt><trkpt lat="41.4741561" lon="15.5090869"><ele>74.0</ele><time>2026-04-19T16:52:39.996Z</time></trkpt><trkpt lat="41.4740813" lon="15.5090269"><ele>74.0</ele><time>2026-04-19T16:52:40.996Z</time></trkpt><trkpt lat="41.4739999" lon="15.5089619"><ele>74.0</ele><time>2026-04-19T16:52:41.997Z</time></trkpt><trkpt lat="41.4739122" lon="15.5088982"><ele>74.0</ele><time>2026-04-19T16:52:42.996Z</time></trkpt><trkpt lat="41.4738191" lon="15.5088337"><ele>74.4</ele><time>2026-04-19T16:52:43.996Z</time></trkpt><trkpt lat="41.4737233" lon="15.5087704"><ele>74.80000000000001</ele><time>2026-04-19T16:52:44.996Z</time></trkpt><trkpt lat="41.473622" lon="15.5087114"><ele>75.19999999999999</ele><time>2026-04-19T16:52:45.996Z</time></trkpt><trkpt lat="41.4735196" lon="15.5086559"><ele>75.6</ele><time>2026-04-19T16:52:46.997Z</time></trkpt><trkpt lat="41.4734202" lon="15.5085962"><ele>76.0</ele><time>2026-04-19T16:52:47.996Z</time></trkpt><trkpt lat="41.4733235" lon="15.508536"><ele>76.0</ele><time>2026-04-19T16:52:48.996Z</time></trkpt><trkpt lat="41.4732315" lon="15.5084719"><ele>76.0</ele><time>2026-04-19T16:52:49.996Z</time></trkpt><trkpt lat="41.4731385" lon="15.5084082"><ele>76.0</ele><time>2026-04-19T16:52:50.996Z</time></trkpt><trkpt lat="41.4730455" lon="15.5083461"><ele>76.0</ele><time>2026-04-19T16:52:51.996Z</time></trkpt><trkpt lat="41.4729522" lon="15.5082883"><ele>76.0</ele><time>2026-04-19T16:52:52.997Z</time></trkpt><trkpt lat="41.4728602" lon="15.5082247"><ele>76.33333333333333</ele><time>2026-04-19T16:52:53.996Z</time></trkpt><trkpt lat="41.472773" lon="15.5081637"><ele>76.66666666666666</ele><time>2026-04-19T16:52:54.996Z</time></trkpt><trkpt lat="41.4726921" lon="15.5081024"><ele>77.0</ele><time>2026-04-19T16:52:55.996Z</time></trkpt><trkpt lat="41.47262" lon="15.5080467"><ele>77.33333333333333</ele><time>2026-04-19T16:52:56.996Z</time></trkpt><trkpt lat="41.4725564" lon="15.5079978"><ele>77.66666666666667</ele><time>2026-04-19T16:52:57.996Z</time></trkpt><trkpt lat="41.4724987" lon="15.5079552"><ele>78.0</ele><time>2026-04-19T16:52:58.996Z</time></trkpt><trkpt lat="41.472408" lon="15.5078574"><ele>78.0</ele><time>2026-04-19T16:53:00.996Z</time></trkpt><trkpt lat="41.472367" lon="15.5077855"><ele>78.0</ele><time>2026-04-19T16:53:02.996Z</time></trkpt><trkpt lat="41.4722829" lon="15.5076456"><ele>78.0</ele><time>2026-04-19T16:53:09.996Z</time></trkpt><trkpt lat="41.4722351" lon="15.5075116"><ele>78.0</ele><time>2026-04-19T16:53:10.996Z</time></trkpt><trkpt lat="41.472177" lon="15.5073684"><ele>78.0</ele><time>2026-04-19T16:53:11.996Z</time></trkpt><trkpt lat="41.472118" lon="15.5072264"><ele>78.0</ele><time>2026-04-19T16:53:12.996Z</time></trkpt><trkpt lat="41.4720621" lon="15.5070954"><ele>78.0</ele><time>2026-04-19T16:53:13.996Z</time></trkpt><trkpt lat="41.4720083" lon="15.5069776"><ele>78.0</ele><time>2026-04-19T16:53:14.996Z</time></trkpt><trkpt lat="41.4719566" lon="15.5068746"><ele>78.0</ele><time>2026-04-19T16:53:15.996Z</time></trkpt><trkpt lat="41.4719036" lon="15.5067888"><ele>78.0</ele><time>2026-04-19T16:53:16.996Z</time></trkpt><trkpt lat="41.4718433" lon="15.5067212"><ele>77.83333333333333</ele><time>2026-04-19T16:53:17.997Z</time></trkpt><trkpt lat="41.4717782" lon="15.5066696"><ele>77.66666666666667</ele><time>2026-04-19T16:53:18.996Z</time></trkpt><trkpt lat="41.4717055" lon="15.5066316"><ele>77.5</ele><time>2026-04-19T16:53:19.996Z</time></trkpt><trkpt lat="41.4716243" lon="15.5066123"><ele>77.33333333333334</ele><time>2026-04-19T16:53:20.996Z</time></trkpt><trkpt lat="41.4715371" lon="15.5066109"><ele>77.16666666666667</ele><time>2026-04-19T16:53:21.996Z</time></trkpt><trkpt lat="41.4714466" lon="15.5066292"><ele>77.0</ele><time>2026-04-19T16:53:22.997Z</time></trkpt><trkpt lat="41.4713543" lon="15.5066709"><ele>77.25</ele><time>2026-04-19T16:53:23.996Z</time></trkpt><trkpt lat="41.4712577" lon="15.5067338"><ele>77.5</ele><time>2026-04-19T16:53:24.996Z</time></trkpt><trkpt lat="41.4711589" lon="15.506813"><ele>77.75</ele><time>2026-04-19T16:53:25.996Z</time></trkpt><trkpt lat="41.4710543" lon="15.5069013"><ele>78.0</ele><time>2026-04-19T16:53:26.996Z</time></trkpt><trkpt lat="41.4709477" lon="15.5069864"><ele>78.0</ele><time>2026-04-19T16:53:27.997Z</time></trkpt><trkpt lat="41.4708445" lon="15.5070698"><ele>78.0</ele><time>2026-04-19T16:53:28.996Z</time></trkpt><trkpt lat="41.4707502" lon="15.5071582"><ele>78.0</ele><time>2026-04-19T16:53:29.996Z</time></trkpt><trkpt lat="41.470675" lon="15.5072571"><ele>78.0</ele><time>2026-04-19T16:53:30.996Z</time></trkpt><trkpt lat="41.4706188" lon="15.5073648"><ele>78.0</ele><time>2026-04-19T16:53:31.996Z</time></trkpt><trkpt lat="41.4705803" lon="15.5074812"><ele>78.0</ele><time>2026-04-19T16:53:32.996Z</time></trkpt><trkpt lat="41.4705631" lon="15.5076059"><ele>78.0</ele><time>2026-04-19T16:53:33.996Z</time></trkpt><trkpt lat="41.4705678" lon="15.5077292"><ele>78.0</ele><time>2026-04-19T16:53:34.996Z</time></trkpt><trkpt lat="41.4705958" lon="15.5078574"><ele>78.0</ele><time>2026-04-19T16:53:35.996Z</time></trkpt><trkpt lat="41.4706459" lon="15.5079972"><ele>78.0</ele><time>2026-04-19T16:53:36.996Z</time></trkpt><trkpt lat="41.4707088" lon="15.5081467"><ele>78.25</ele><time>2026-04-19T16:53:37.997Z</time></trkpt><trkpt lat="41.4707722" lon="15.5083064"><ele>78.5</ele><time>2026-04-19T16:53:38.996Z</time></trkpt><trkpt lat="41.4708305" lon="15.5084703"><ele>78.75</ele><time>2026-04-19T16:53:39.997Z</time></trkpt><trkpt lat="41.4708866" lon="15.5086312"><ele>79.0</ele><time>2026-04-19T16:53:40.996Z</time></trkpt><trkpt lat="41.4709412" lon="15.5087816"><ele>78.5</ele><time>2026-04-19T16:53:41.996Z</time></trkpt><trkpt lat="41.4709872" lon="15.5089257"><ele>78.0</ele><time>2026-04-19T16:53:42.996Z</time></trkpt><trkpt lat="41.4710239" lon="15.5090745"><ele>77.5</ele><time>2026-04-19T16:53:43.996Z</time></trkpt><trkpt lat="41.4710367" lon="15.5092317"><ele>77.0</ele><time>2026-04-19T16:53:44.996Z</time></trkpt><trkpt lat="41.4710317" lon="15.509395"><ele>77.0</ele><time>2026-04-19T16:53:45.996Z</time></trkpt><trkpt lat="41.471015" lon="15.5095583"><ele>77.0</ele><time>2026-04-19T16:53:46.996Z</time></trkpt><trkpt lat="41.4709883" lon="15.509725"><ele>77.0</ele><time>2026-04-19T16:53:47.996Z</time></trkpt><trkpt lat="41.47096" lon="15.5098967"><ele>77.0</ele><time>2026-04-19T16:53:48.996Z</time></trkpt><trkpt lat="41.47093" lon="15.51007"><ele>77.0</ele><time>2026-04-19T16:53:49.996Z</time></trkpt><trkpt lat="41.4708967" lon="15.510245"><ele>77.0</ele><time>2026-04-19T16:53:50.996Z</time></trkpt><trkpt lat="41.4708617" lon="15.5104183"><ele>77.0</ele><time>2026-04-19T16:53:51.996Z</time></trkpt><trkpt lat="41.4708267" lon="15.5105933"><ele>77.0</ele><time>2026-04-19T16:53:52.996Z</time></trkpt><trkpt lat="41.47079" lon="15.5107717"><ele>77.0</ele><time>2026-04-19T16:53:53.996Z</time></trkpt><trkpt lat="41.4707567" lon="15.510955"><ele>77.0</ele><time>2026-04-19T16:53:54.996Z</time></trkpt><trkpt lat="41.4707233" lon="15.51114"><ele>77.0</ele><time>2026-04-19T16:53:55.997Z</time></trkpt><trkpt lat="41.470685" lon="15.5113267"><ele>77.0</ele><time>2026-04-19T16:53:56.996Z</time></trkpt><trkpt lat="41.47065" lon="15.5115167"><ele>77.0</ele><time>2026-04-19T16:53:57.996Z</time></trkpt><trkpt lat="41.4706117" lon="15.5117067"><ele>77.0</ele><time>2026-04-19T16:53:58.996Z</time></trkpt><trkpt lat="41.47058" lon="15.5118983"><ele>77.0</ele><time>2026-04-19T16:53:59.996Z</time></trkpt><trkpt lat="41.4705433" lon="15.5120867"><ele>77.0</ele><time>2026-04-19T16:54:00.996Z</time></trkpt><trkpt lat="41.4705067" lon="15.5122717"><ele>76.66666666666667</ele><time>2026-04-19T16:54:01.997Z</time></trkpt><trkpt lat="41.4704717" lon="15.5124617"><ele>76.33333333333333</ele><time>2026-04-19T16:54:02.996Z</time></trkpt><trkpt lat="41.4704333" lon="15.51266"><ele>76.0</ele><time>2026-04-19T16:54:03.997Z</time></trkpt><trkpt lat="41.470395" lon="15.5128617"><ele>75.33333333333333</ele><time>2026-04-19T16:54:04.996Z</time></trkpt><trkpt lat="41.4703533" lon="15.513065"><ele>74.66666666666667</ele><time>2026-04-19T16:54:05.996Z</time></trkpt><trkpt lat="41.4703167" lon="15.513275"><ele>74.0</ele><time>2026-04-19T16:54:06.996Z</time></trkpt><trkpt lat="41.47027" lon="15.5134917"><ele>74.0</ele><time>2026-04-19T16:54:07.996Z</time></trkpt><trkpt lat="41.47023" lon="15.51372"><ele>74.0</ele><time>2026-04-19T16:54:08.996Z</time></trkpt><trkpt lat="41.4701883" lon="15.51395"><ele>74.0</ele><time>2026-04-19T16:54:09.996Z</time></trkpt><trkpt lat="41.470145" lon="15.51418"><ele>74.0</ele><time>2026-04-19T16:54:10.996Z</time></trkpt><trkpt lat="41.4701" lon="15.51441"><ele>74.0</ele><time>2026-04-19T16:54:11.996Z</time></trkpt><trkpt lat="41.470055" lon="15.5146383"><ele>74.0</ele><time>2026-04-19T16:54:12.996Z</time></trkpt><trkpt lat="41.4700067" lon="15.514865"><ele>74.33333333333334</ele><time>2026-04-19T16:54:13.996Z</time></trkpt><trkpt lat="41.4699683" lon="15.5150917"><ele>74.66666666666667</ele><time>2026-04-19T16:54:14.996Z</time></trkpt><trkpt lat="41.4699267" lon="15.5153117"><ele>75.0</ele><time>2026-04-19T16:54:15.996Z</time></trkpt><trkpt lat="41.469885" lon="15.5155233"><ele>75.33333333333333</ele><time>2026-04-19T16:54:16.996Z</time></trkpt><trkpt lat="41.4698433" lon="15.5157367"><ele>75.66666666666666</ele><time>2026-04-19T16:54:17.996Z</time></trkpt><trkpt lat="41.4698017" lon="15.5159467"><ele>76.0</ele><time>2026-04-19T16:54:18.996Z</time></trkpt><trkpt lat="41.46976" lon="15.516155"><ele>76.0</ele><time>2026-04-19T16:54:19.996Z</time></trkpt><trkpt lat="41.46972" lon="15.5163667"><ele>76.0</ele><time>2026-04-19T16:54:20.997Z</time></trkpt><trkpt lat="41.4696783" lon="15.51658"><ele>76.0</ele><time>2026-04-19T16:54:21.996Z</time></trkpt><trkpt lat="41.469635" lon="15.5167917"><ele>76.33333333333333</ele><time>2026-04-19T16:54:22.996Z</time></trkpt><trkpt lat="41.46959" lon="15.5170033"><ele>76.66666666666667</ele><time>2026-04-19T16:54:23.996Z</time></trkpt><trkpt lat="41.469545" lon="15.5172133"><ele>77.0</ele><time>2026-04-19T16:54:24.996Z</time></trkpt><trkpt lat="41.4694967" lon="15.51742"><ele>76.5</ele><time>2026-04-19T16:54:25.996Z</time></trkpt><trkpt lat="41.4694533" lon="15.5176183"><ele>76.0</ele><time>2026-04-19T16:54:26.996Z</time></trkpt><trkpt lat="41.4694117" lon="15.5178033"><ele>75.5</ele><time>2026-04-19T16:54:27.996Z</time></trkpt><trkpt lat="41.4693717" lon="15.5179767"><ele>75.0</ele><time>2026-04-19T16:54:28.997Z</time></trkpt><trkpt lat="41.46934" lon="15.5181367"><ele>74.66666666666667</ele><time>2026-04-19T16:54:29.996Z</time></trkpt><trkpt lat="41.4693083" lon="15.5182683"><ele>74.33333333333333</ele><time>2026-04-19T16:54:30.996Z</time></trkpt><trkpt lat="41.4692817" lon="15.51837"><ele>74.0</ele><time>2026-04-19T16:54:31.997Z</time></trkpt><trkpt lat="41.4692533" lon="15.5184517"><ele>73.66666666666666</ele><time>2026-04-19T16:54:32.996Z</time></trkpt><trkpt lat="41.4691733" lon="15.51858"><ele>73.33333333333333</ele><time>2026-04-19T16:54:34.997Z</time></trkpt><trkpt lat="41.4691133" lon="15.5186283"><ele>73.0</ele><time>2026-04-19T16:54:35.996Z</time></trkpt><trkpt lat="41.46904" lon="15.5186717"><ele>73.0</ele><time>2026-04-19T16:54:36.996Z</time></trkpt><trkpt lat="41.4689533" lon="15.5187067"><ele>73.0</ele><time>2026-04-19T16:54:37.996Z</time></trkpt><trkpt lat="41.46885" lon="15.51872"><ele>73.0</ele><time>2026-04-19T16:54:38.996Z</time></trkpt><trkpt lat="41.46874" lon="15.5186983"><ele>73.0</ele><time>2026-04-19T16:54:39.997Z</time></trkpt><trkpt lat="41.4686167" lon="15.518655"><ele>73.0</ele><time>2026-04-19T16:54:40.996Z</time></trkpt><trkpt lat="41.4684783" lon="15.5185967"><ele>73.0</ele><time>2026-04-19T16:54:41.996Z</time></trkpt><trkpt lat="41.4683267" lon="15.51854"><ele>73.0</ele><time>2026-04-19T16:54:42.996Z</time></trkpt><trkpt lat="41.46817" lon="15.518485"><ele>73.0</ele><time>2026-04-19T16:54:43.996Z</time></trkpt><trkpt lat="41.4680217" lon="15.5184317"><ele>74.25</ele><time>2026-04-19T16:54:44.997Z</time></trkpt><trkpt lat="41.46788" lon="15.51839"><ele>75.5</ele><time>2026-04-19T16:54:45.996Z</time></trkpt><trkpt lat="41.4677467" lon="15.5183417"><ele>76.75</ele><time>2026-04-19T16:54:46.996Z</time></trkpt><trkpt lat="41.4676217" lon="15.5182967"><ele>78.0</ele><time>2026-04-19T16:54:47.996Z</time></trkpt><trkpt lat="41.4675033" lon="15.5182483"><ele>78.0</ele><time>2026-04-19T16:54:48.997Z</time></trkpt><trkpt lat="41.467395" lon="15.5182033"><ele>78.0</ele><time>2026-04-19T16:54:49.997Z</time></trkpt><trkpt lat="41.4672983" lon="15.5181583"><ele>78.0</ele><time>2026-04-19T16:54:50.996Z</time></trkpt><trkpt lat="41.467215" lon="15.5180933"><ele>78.0</ele><time>2026-04-19T16:54:51.996Z</time></trkpt><trkpt lat="41.4671517" lon="15.51801"><ele>78.0</ele><time>2026-04-19T16:54:52.996Z</time></trkpt><trkpt lat="41.4670767" lon="15.5179633"><ele>77.6</ele><time>2026-04-19T16:54:53.996Z</time></trkpt><trkpt lat="41.4669917" lon="15.517935"><ele>77.19999999999999</ele><time>2026-04-19T16:54:54.996Z</time></trkpt><trkpt lat="41.4669" lon="15.517925"><ele>76.8</ele><time>2026-04-19T16:54:55.996Z</time></trkpt><trkpt lat="41.4668067" lon="15.51792"><ele>76.39999999999999</ele><time>2026-04-19T16:54:56.996Z</time></trkpt><trkpt lat="41.4667083" lon="15.517905"><ele>76.0</ele><time>2026-04-19T16:54:57.996Z</time></trkpt><trkpt lat="41.466605" lon="15.5178683"><ele>76.0</ele><time>2026-04-19T16:54:58.996Z</time></trkpt><trkpt lat="41.4665" lon="15.5178183"><ele>76.0</ele><time>2026-04-19T16:54:59.996Z</time></trkpt><trkpt lat="41.4663883" lon="15.5177683"><ele>76.0</ele><time>2026-04-19T16:55:00.997Z</time></trkpt><trkpt lat="41.466275" lon="15.5177167"><ele>76.0</ele><time>2026-04-19T16:55:01.996Z</time></trkpt><trkpt lat="41.4661567" lon="15.5176633"><ele>76.25</ele><time>2026-04-19T16:55:02.997Z</time></trkpt><trkpt lat="41.4660317" lon="15.5176067"><ele>76.5</ele><time>2026-04-19T16:55:03.996Z</time></trkpt><trkpt lat="41.4659017" lon="15.5175483"><ele>76.75</ele><time>2026-04-19T16:55:04.996Z</time></trkpt><trkpt lat="41.4657667" lon="15.5174883"><ele>77.0</ele><time>2026-04-19T16:55:05.996Z</time></trkpt><trkpt lat="41.4656267" lon="15.5174267"><ele>77.0</ele><time>2026-04-19T16:55:06.996Z</time></trkpt><trkpt lat="41.4654817" lon="15.5173567"><ele>77.0</ele><time>2026-04-19T16:55:07.996Z</time></trkpt><trkpt lat="41.465335" lon="15.5172767"><ele>77.0</ele><time>2026-04-19T16:55:08.996Z</time></trkpt><trkpt lat="41.4651867" lon="15.517185"><ele>76.66666666666667</ele><time>2026-04-19T16:55:09.996Z</time></trkpt><trkpt lat="41.4650483" lon="15.5170683"><ele>76.33333333333333</ele><time>2026-04-19T16:55:10.996Z</time></trkpt><trkpt lat="41.4649133" lon="15.5169417"><ele>76.0</ele><time>2026-04-19T16:55:11.996Z</time></trkpt><trkpt lat="41.4647867" lon="15.5168067"><ele>76.0</ele><time>2026-04-19T16:55:12.997Z</time></trkpt><trkpt lat="41.4646717" lon="15.51666"><ele>76.0</ele><time>2026-04-19T16:55:13.997Z</time></trkpt><trkpt lat="41.4645633" lon="15.5165067"><ele>76.0</ele><time>2026-04-19T16:55:14.996Z</time></trkpt><trkpt lat="41.4644683" lon="15.5163433"><ele>76.66666666666666</ele><time>2026-04-19T16:55:15.996Z</time></trkpt><trkpt lat="41.46438" lon="15.516175"><ele>77.33333333333333</ele><time>2026-04-19T16:55:16.997Z</time></trkpt><trkpt lat="41.4643017" lon="15.5159967"><ele>78.0</ele><time>2026-04-19T16:55:17.996Z</time></trkpt><trkpt lat="41.4642283" lon="15.515815"><ele>78.0</ele><time>2026-04-19T16:55:18.996Z</time></trkpt><trkpt lat="41.4641683" lon="15.5156233"><ele>78.0</ele><time>2026-04-19T16:55:19.997Z</time></trkpt><trkpt lat="41.4641133" lon="15.5154283"><ele>78.0</ele><time>2026-04-19T16:55:20.996Z</time></trkpt><trkpt lat="41.4640667" lon="15.5152283"><ele>78.0</ele><time>2026-04-19T16:55:21.996Z</time></trkpt><trkpt lat="41.4640233" lon="15.5150267"><ele>78.0</ele><time>2026-04-19T16:55:22.997Z</time></trkpt><trkpt lat="41.4639767" lon="15.514825"><ele>78.0</ele><time>2026-04-19T16:55:23.996Z</time></trkpt><trkpt lat="41.4639317" lon="15.5146217"><ele>78.0</ele><time>2026-04-19T16:55:24.996Z</time></trkpt><trkpt lat="41.4638833" lon="15.51442"><ele>78.0</ele><time>2026-04-19T16:55:25.996Z</time></trkpt><trkpt lat="41.4638367" lon="15.51422"><ele>78.0</ele><time>2026-04-19T16:55:26.997Z</time></trkpt><trkpt lat="41.4637917" lon="15.5140183"><ele>77.66666666666667</ele><time>2026-04-19T16:55:27.996Z</time></trkpt><trkpt lat="41.46375" lon="15.5138133"><ele>77.33333333333334</ele><time>2026-04-19T16:55:28.997Z</time></trkpt><trkpt lat="41.4637067" lon="15.51361"><ele>77.0</ele><time>2026-04-19T16:55:29.996Z</time></trkpt><trkpt lat="41.4636633" lon="15.513405"><ele>77.66666666666667</ele><time>2026-04-19T16:55:30.996Z</time></trkpt><trkpt lat="41.4636183" lon="15.5131983"><ele>78.33333333333333</ele><time>2026-04-19T16:55:31.996Z</time></trkpt><trkpt lat="41.463575" lon="15.51299"><ele>79.0</ele><time>2026-04-19T16:55:32.996Z</time></trkpt><trkpt lat="41.46353" lon="15.512785"><ele>79.0</ele><time>2026-04-19T16:55:33.996Z</time></trkpt><trkpt lat="41.4634867" lon="15.51258"><ele>79.0</ele><time>2026-04-19T16:55:34.997Z</time></trkpt><trkpt lat="41.4634383" lon="15.5123817"><ele>79.0</ele><time>2026-04-19T16:55:35.996Z</time></trkpt><trkpt lat="41.4633867" lon="15.5121917"><ele>79.5</ele><time>2026-04-19T16:55:36.996Z</time></trkpt><trkpt lat="41.4633233" lon="15.5120133"><ele>80.0</ele><time>2026-04-19T16:55:37.996Z</time></trkpt><trkpt lat="41.4632533" lon="15.5118417"><ele>80.5</ele><time>2026-04-19T16:55:38.996Z</time></trkpt><trkpt lat="41.463175" lon="15.5116717"><ele>81.0</ele><time>2026-04-19T16:55:39.996Z</time></trkpt><trkpt lat="41.4630883" lon="15.5115067"><ele>81.0</ele><time>2026-04-19T16:55:40.997Z</time></trkpt><trkpt lat="41.4629917" lon="15.51135"><ele>81.0</ele><time>2026-04-19T16:55:41.996Z</time></trkpt><trkpt lat="41.462885" lon="15.5112017"><ele>81.0</ele><time>2026-04-19T16:55:42.996Z</time></trkpt><trkpt lat="41.4627733" lon="15.51106"><ele>80.66666666666667</ele><time>2026-04-19T16:55:43.996Z</time></trkpt><trkpt lat="41.4626517" lon="15.5109283"><ele>80.33333333333334</ele><time>2026-04-19T16:55:44.996Z</time></trkpt><trkpt lat="41.46252" lon="15.5108083"><ele>80.0</ele><time>2026-04-19T16:55:45.996Z</time></trkpt><trkpt lat="41.46238" lon="15.510695"><ele>80.0</ele><time>2026-04-19T16:55:46.996Z</time></trkpt><trkpt lat="41.46223" lon="15.5106033"><ele>80.0</ele><time>2026-04-19T16:55:47.996Z</time></trkpt><trkpt lat="41.4620783" lon="15.510525"><ele>80.0</ele><time>2026-04-19T16:55:48.996Z</time></trkpt><trkpt lat="41.4619217" lon="15.5104583"><ele>80.33333333333334</ele><time>2026-04-19T16:55:49.996Z</time></trkpt><trkpt lat="41.4617633" lon="15.5104067"><ele>80.66666666666667</ele><time>2026-04-19T16:55:50.996Z</time></trkpt><trkpt lat="41.4616067" lon="15.510365"><ele>81.0</ele><time>2026-04-19T16:55:51.996Z</time></trkpt><trkpt lat="41.4614483" lon="15.5103367"><ele>81.0</ele><time>2026-04-19T16:55:52.996Z</time></trkpt><trkpt lat="41.4612883" lon="15.510315"><ele>81.0</ele><time>2026-04-19T16:55:53.996Z</time></trkpt><trkpt lat="41.4611283" lon="15.5103133"><ele>81.0</ele><time>2026-04-19T16:55:54.996Z</time></trkpt><trkpt lat="41.4609717" lon="15.5103283"><ele>81.0</ele><time>2026-04-19T16:55:55.996Z</time></trkpt><trkpt lat="41.4608167" lon="15.510355"><ele>81.0</ele><time>2026-04-19T16:55:56.996Z</time></trkpt><trkpt lat="41.4606633" lon="15.5104033"><ele>81.0</ele><time>2026-04-19T16:55:57.997Z</time></trkpt><trkpt lat="41.4605117" lon="15.5104633"><ele>80.66666666666667</ele><time>2026-04-19T16:55:58.996Z</time></trkpt><trkpt lat="41.4603633" lon="15.5105383"><ele>80.33333333333334</ele><time>2026-04-19T16:55:59.996Z</time></trkpt><trkpt lat="41.4602183" lon="15.5106217"><ele>80.0</ele><time>2026-04-19T16:56:00.996Z</time></trkpt><trkpt lat="41.4600733" lon="15.510715"><ele>80.0</ele><time>2026-04-19T16:56:01.996Z</time></trkpt><trkpt lat="41.4599333" lon="15.5108133"><ele>80.0</ele><time>2026-04-19T16:56:02.996Z</time></trkpt><trkpt lat="41.459795" lon="15.5109167"><ele>80.0</ele><time>2026-04-19T16:56:03.996Z</time></trkpt><trkpt lat="41.4596533" lon="15.5110183"><ele>80.33333333333334</ele><time>2026-04-19T16:56:04.997Z</time></trkpt><trkpt lat="41.459515" lon="15.5111217"><ele>80.66666666666667</ele><time>2026-04-19T16:56:05.996Z</time></trkpt><trkpt lat="41.4593733" lon="15.51122"><ele>81.0</ele><time>2026-04-19T16:56:06.996Z</time></trkpt><trkpt lat="41.4592317" lon="15.51132"><ele>81.66666666666667</ele><time>2026-04-19T16:56:07.996Z</time></trkpt><trkpt lat="41.45909" lon="15.5114167"><ele>82.33333333333334</ele><time>2026-04-19T16:56:08.996Z</time></trkpt><trkpt lat="41.4589517" lon="15.51152"><ele>83.0</ele><time>2026-04-19T16:56:09.996Z</time></trkpt><trkpt lat="41.4588117" lon="15.5116233"><ele>83.0</ele><time>2026-04-19T16:56:10.997Z</time></trkpt><trkpt lat="41.458675" lon="15.51173"><ele>83.0</ele><time>2026-04-19T16:56:11.996Z</time></trkpt><trkpt lat="41.4585367" lon="15.5118333"><ele>83.0</ele><time>2026-04-19T16:56:12.997Z</time></trkpt><trkpt lat="41.4583983" lon="15.51194"><ele>83.0</ele><time>2026-04-19T16:56:13.996Z</time></trkpt><trkpt lat="41.4582583" lon="15.512045"><ele>83.0</ele><time>2026-04-19T16:56:14.996Z</time></trkpt><trkpt lat="41.4581183" lon="15.5121483"><ele>83.0</ele><time>2026-04-19T16:56:15.996Z</time></trkpt><trkpt lat="41.45798" lon="15.5122517"><ele>82.33333333333334</ele><time>2026-04-19T16:56:16.996Z</time></trkpt><trkpt lat="41.45784" lon="15.5123583"><ele>81.66666666666667</ele><time>2026-04-19T16:56:17.997Z</time></trkpt><trkpt lat="41.4577" lon="15.5124633"><ele>81.0</ele><time>2026-04-19T16:56:18.997Z</time></trkpt><trkpt lat="41.4575617" lon="15.5125683"><ele>81.0</ele><time>2026-04-19T16:56:19.996Z</time></trkpt><trkpt lat="41.4574233" lon="15.51267"><ele>81.0</ele><time>2026-04-19T16:56:20.996Z</time></trkpt><trkpt lat="41.4572867" lon="15.51277"><ele>81.0</ele><time>2026-04-19T16:56:21.996Z</time></trkpt><trkpt lat="41.45715" lon="15.5128633"><ele>81.25</ele><time>2026-04-19T16:56:22.996Z</time></trkpt><trkpt lat="41.4570183" lon="15.512965"><ele>81.5</ele><time>2026-04-19T16:56:23.996Z</time></trkpt><trkpt lat="41.4568883" lon="15.5130633"><ele>81.75</ele><time>2026-04-19T16:56:24.996Z</time></trkpt><trkpt lat="41.45676" lon="15.5131583"><ele>82.0</ele><time>2026-04-19T16:56:25.997Z</time></trkpt><trkpt lat="41.4566317" lon="15.513255"><ele>82.0</ele><time>2026-04-19T16:56:26.996Z</time></trkpt><trkpt lat="41.4565033" lon="15.5133467"><ele>82.0</ele><time>2026-04-19T16:56:27.996Z</time></trkpt><trkpt lat="41.456375" lon="15.5134417"><ele>82.0</ele><time>2026-04-19T16:56:28.996Z</time></trkpt><trkpt lat="41.4562467" lon="15.5135383"><ele>82.0</ele><time>2026-04-19T16:56:29.996Z</time></trkpt><trkpt lat="41.45612" lon="15.51364"><ele>82.0</ele><time>2026-04-19T16:56:30.996Z</time></trkpt><trkpt lat="41.4559983" lon="15.5137517"><ele>82.0</ele><time>2026-04-19T16:56:31.996Z</time></trkpt><trkpt lat="41.4558817" lon="15.5138717"><ele>82.0</ele><time>2026-04-19T16:56:32.996Z</time></trkpt><trkpt lat="41.4557683" lon="15.51399"><ele>82.0</ele><time>2026-04-19T16:56:33.996Z</time></trkpt><trkpt lat="41.455665" lon="15.5141067"><ele>82.0</ele><time>2026-04-19T16:56:34.997Z</time></trkpt><trkpt lat="41.4555633" lon="15.5142133"><ele>82.0</ele><time>2026-04-19T16:56:35.996Z</time></trkpt><trkpt lat="41.4554683" lon="15.5143133"><ele>82.0</ele><time>2026-04-19T16:56:36.996Z</time></trkpt><trkpt lat="41.4553817" lon="15.5144083"><ele>82.0</ele><time>2026-04-19T16:56:37.996Z</time></trkpt><trkpt lat="41.455295" lon="15.5145017"><ele>81.8</ele><time>2026-04-19T16:56:38.997Z</time></trkpt><trkpt lat="41.4552117" lon="15.51459"><ele>81.6</ele><time>2026-04-19T16:56:39.996Z</time></trkpt><trkpt lat="41.4551283" lon="15.5146733"><ele>81.39999999999999</ele><time>2026-04-19T16:56:40.996Z</time></trkpt><trkpt lat="41.4550383" lon="15.51474"><ele>81.19999999999999</ele><time>2026-04-19T16:56:41.996Z</time></trkpt><trkpt lat="41.4549383" lon="15.5147767"><ele>81.0</ele><time>2026-04-19T16:56:42.996Z</time></trkpt><trkpt lat="41.454845" lon="15.5148117"><ele>81.0</ele><time>2026-04-19T16:56:43.997Z</time></trkpt><trkpt lat="41.454765" lon="15.5148583"><ele>81.0</ele><time>2026-04-19T16:56:44.996Z</time></trkpt><trkpt lat="41.4546967" lon="15.5149283"><ele>81.0</ele><time>2026-04-19T16:56:45.996Z</time></trkpt><trkpt lat="41.45464" lon="15.5150167"><ele>81.0</ele><time>2026-04-19T16:56:46.996Z</time></trkpt><trkpt lat="41.4545883" lon="15.51512"><ele>81.0</ele><time>2026-04-19T16:56:47.996Z</time></trkpt><trkpt lat="41.4545283" lon="15.5152233"><ele>81.0</ele><time>2026-04-19T16:56:48.996Z</time></trkpt><trkpt lat="41.45445" lon="15.515315"><ele>81.0</ele><time>2026-04-19T16:56:49.997Z</time></trkpt><trkpt lat="41.4543583" lon="15.5154"><ele>81.0</ele><time>2026-04-19T16:56:50.996Z</time></trkpt><trkpt lat="41.45426" lon="15.515485"><ele>81.0</ele><time>2026-04-19T16:56:51.997Z</time></trkpt><trkpt lat="41.4541533" lon="15.5155767"><ele>80.75</ele><time>2026-04-19T16:56:52.996Z</time></trkpt><trkpt lat="41.45404" lon="15.51567"><ele>80.5</ele><time>2026-04-19T16:56:53.996Z</time></trkpt><trkpt lat="41.4539233" lon="15.5157667"><ele>80.25</ele><time>2026-04-19T16:56:54.996Z</time></trkpt><trkpt lat="41.4538033" lon="15.5158667"><ele>80.0</ele><time>2026-04-19T16:56:55.997Z</time></trkpt><trkpt lat="41.4536817" lon="15.515975"><ele>80.66666666666667</ele><time>2026-04-19T16:56:56.997Z</time></trkpt><trkpt lat="41.4535567" lon="15.5160817"><ele>81.33333333333333</ele><time>2026-04-19T16:56:57.996Z</time></trkpt><trkpt lat="41.4534283" lon="15.5161883"><ele>82.0</ele><time>2026-04-19T16:56:58.996Z</time></trkpt><trkpt lat="41.4532967" lon="15.5162967"><ele>82.0</ele><time>2026-04-19T16:56:59.996Z</time></trkpt><trkpt lat="41.4531633" lon="15.5164017"><ele>82.0</ele><time>2026-04-19T16:57:00.996Z</time></trkpt><trkpt lat="41.4530317" lon="15.516505"><ele>82.0</ele><time>2026-04-19T16:57:01.996Z</time></trkpt><trkpt lat="41.4529" lon="15.51661"><ele>81.75</ele><time>2026-04-19T16:57:02.996Z</time></trkpt><trkpt lat="41.4527717" lon="15.51672"><ele>81.5</ele><time>2026-04-19T16:57:03.996Z</time></trkpt><trkpt lat="41.4526467" lon="15.516825"><ele>81.25</ele><time>2026-04-19T16:57:04.996Z</time></trkpt><trkpt lat="41.452525" lon="15.5169233"><ele>81.0</ele><time>2026-04-19T16:57:05.996Z</time></trkpt><trkpt lat="41.4524083" lon="15.5170167"><ele>81.0</ele><time>2026-04-19T16:57:06.996Z</time></trkpt><trkpt lat="41.4522933" lon="15.5171083"><ele>81.0</ele><time>2026-04-19T16:57:07.996Z</time></trkpt><trkpt lat="41.4521833" lon="15.5171983"><ele>81.0</ele><time>2026-04-19T16:57:08.996Z</time></trkpt><trkpt lat="41.4520733" lon="15.517285"><ele>81.0</ele><time>2026-04-19T16:57:09.997Z</time></trkpt><trkpt lat="41.4519667" lon="15.5173767"><ele>81.0</ele><time>2026-04-19T16:57:10.996Z</time></trkpt><trkpt lat="41.45186" lon="15.51747"><ele>81.0</ele><time>2026-04-19T16:57:11.996Z</time></trkpt><trkpt lat="41.451765" lon="15.5175467"><ele>81.0</ele><time>2026-04-19T16:57:12.996Z</time></trkpt><trkpt lat="41.4516883" lon="15.5176"><ele>81.0</ele><time>2026-04-19T16:57:13.996Z</time></trkpt><trkpt lat="41.451625" lon="15.5176367"><ele>81.0</ele><time>2026-04-19T16:57:14.997Z</time></trkpt><trkpt lat="41.4515067" lon="15.5176717"><ele>81.0</ele><time>2026-04-19T16:57:16.996Z</time></trkpt><trkpt lat="41.4513833" lon="15.5176617"><ele>81.0</ele><time>2026-04-19T16:57:18.996Z</time></trkpt><trkpt lat="41.451265" lon="15.5176983"><ele>81.0</ele><time>2026-04-19T16:57:20.997Z</time></trkpt><trkpt lat="41.45121" lon="15.5177467"><ele>81.0</ele><time>2026-04-19T16:57:21.996Z</time></trkpt><trkpt lat="41.4511617" lon="15.5178133"><ele>81.0</ele><time>2026-04-19T16:57:22.996Z</time></trkpt><trkpt lat="41.45112" lon="15.5178967"><ele>80.8</ele><time>2026-04-19T16:57:23.996Z</time></trkpt><trkpt lat="41.4510783" lon="15.5179933"><ele>80.6</ele><time>2026-04-19T16:57:24.996Z</time></trkpt><trkpt lat="41.451025" lon="15.51809"><ele>80.4</ele><time>2026-04-19T16:57:25.996Z</time></trkpt><trkpt lat="41.4509517" lon="15.51818"><ele>80.2</ele><time>2026-04-19T16:57:26.996Z</time></trkpt><trkpt lat="41.450855" lon="15.5182517"><ele>80.0</ele><time>2026-04-19T16:57:27.996Z</time></trkpt><trkpt lat="41.4507533" lon="15.518325"><ele>80.0</ele><time>2026-04-19T16:57:28.996Z</time></trkpt><trkpt lat="41.4506483" lon="15.5184067"><ele>80.0</ele><time>2026-04-19T16:57:29.996Z</time></trkpt><trkpt lat="41.4505417" lon="15.518495"><ele>80.0</ele><time>2026-04-19T16:57:30.996Z</time></trkpt><trkpt lat="41.4504317" lon="15.5185883"><ele>80.0</ele><time>2026-04-19T16:57:31.996Z</time></trkpt><trkpt lat="41.45032" lon="15.5186833"><ele>80.0</ele><time>2026-04-19T16:57:32.996Z</time></trkpt><trkpt lat="41.4502083" lon="15.5187767"><ele>80.0</ele><time>2026-04-19T16:57:33.997Z</time></trkpt><trkpt lat="41.4500967" lon="15.5188667"><ele>80.0</ele><time>2026-04-19T16:57:34.997Z</time></trkpt><trkpt lat="41.44999" lon="15.5189567"><ele>80.0</ele><time>2026-04-19T16:57:35.996Z</time></trkpt><trkpt lat="41.4498783" lon="15.5190467"><ele>80.0</ele><time>2026-04-19T16:57:36.996Z</time></trkpt><trkpt lat="41.4497617" lon="15.519135"><ele>80.0</ele><time>2026-04-19T16:57:37.996Z</time></trkpt><trkpt lat="41.4496467" lon="15.519225"><ele>80.0</ele><time>2026-04-19T16:57:38.996Z</time></trkpt><trkpt lat="41.44953" lon="15.519315"><ele>80.0</ele><time>2026-04-19T16:57:39.996Z</time></trkpt><trkpt lat="41.4494117" lon="15.5194067"><ele>79.75</ele><time>2026-04-19T16:57:40.997Z</time></trkpt><trkpt lat="41.4492917" lon="15.5194983"><ele>79.5</ele><time>2026-04-19T16:57:41.996Z</time></trkpt><trkpt lat="41.4491683" lon="15.5195917"><ele>79.25</ele><time>2026-04-19T16:57:42.996Z</time></trkpt><trkpt lat="41.449045" lon="15.5196883"><ele>79.0</ele><time>2026-04-19T16:57:43.997Z</time></trkpt><trkpt lat="41.44892" lon="15.5197817"><ele>79.0</ele><time>2026-04-19T16:57:44.996Z</time></trkpt><trkpt lat="41.448795" lon="15.5198817"><ele>79.0</ele><time>2026-04-19T16:57:45.996Z</time></trkpt><trkpt lat="41.44867" lon="15.5199817"><ele>79.0</ele><time>2026-04-19T16:57:46.996Z</time></trkpt><trkpt lat="41.4485417" lon="15.5200817"><ele>79.0</ele><time>2026-04-19T16:57:47.996Z</time></trkpt><trkpt lat="41.448415" lon="15.5201833"><ele>79.33333333333333</ele><time>2026-04-19T16:57:48.996Z</time></trkpt><trkpt lat="41.4482883" lon="15.520285"><ele>79.66666666666667</ele><time>2026-04-19T16:57:49.996Z</time></trkpt><trkpt lat="41.4481583" lon="15.5203883"><ele>80.0</ele><time>2026-04-19T16:57:50.996Z</time></trkpt><trkpt lat="41.4480267" lon="15.5204883"><ele>79.66666666666667</ele><time>2026-04-19T16:57:51.997Z</time></trkpt><trkpt lat="41.447895" lon="15.52059"><ele>79.33333333333333</ele><time>2026-04-19T16:57:52.996Z</time></trkpt><trkpt lat="41.4477633" lon="15.5206917"><ele>79.0</ele><time>2026-04-19T16:57:53.996Z</time></trkpt><trkpt lat="41.4476333" lon="15.5207967"><ele>79.0</ele><time>2026-04-19T16:57:54.996Z</time></trkpt><trkpt lat="41.4475" lon="15.5208983"><ele>79.0</ele><time>2026-04-19T16:57:55.996Z</time></trkpt><trkpt lat="41.4473683" lon="15.5210017"><ele>79.0</ele><time>2026-04-19T16:57:56.996Z</time></trkpt><trkpt lat="41.4472367" lon="15.521105"><ele>79.0</ele><time>2026-04-19T16:57:57.997Z</time></trkpt><trkpt lat="41.4471083" lon="15.5212067"><ele>79.0</ele><time>2026-04-19T16:57:58.996Z</time></trkpt><trkpt lat="41.4469833" lon="15.5213033"><ele>79.0</ele><time>2026-04-19T16:57:59.996Z</time></trkpt><trkpt lat="41.4468583" lon="15.521395"><ele>79.0</ele><time>2026-04-19T16:58:00.996Z</time></trkpt><trkpt lat="41.446735" lon="15.5214917"><ele>79.0</ele><time>2026-04-19T16:58:01.996Z</time></trkpt><trkpt lat="41.446615" lon="15.52159"><ele>79.0</ele><time>2026-04-19T16:58:02.996Z</time></trkpt><trkpt lat="41.4464983" lon="15.5216917"><ele>79.0</ele><time>2026-04-19T16:58:03.997Z</time></trkpt><trkpt lat="41.4463833" lon="15.5218017"><ele>79.0</ele><time>2026-04-19T16:58:04.996Z</time></trkpt><trkpt lat="41.446275" lon="15.52192"><ele>79.25</ele><time>2026-04-19T16:58:05.997Z</time></trkpt><trkpt lat="41.44617" lon="15.5220467"><ele>79.5</ele><time>2026-04-19T16:58:06.996Z</time></trkpt><trkpt lat="41.4460733" lon="15.522185"><ele>79.75</ele><time>2026-04-19T16:58:07.996Z</time></trkpt><trkpt lat="41.4459833" lon="15.5223333"><ele>80.0</ele><time>2026-04-19T16:58:08.996Z</time></trkpt><trkpt lat="41.4459" lon="15.5224883"><ele>80.0</ele><time>2026-04-19T16:58:09.996Z</time></trkpt><trkpt lat="41.4458217" lon="15.5226517"><ele>80.0</ele><time>2026-04-19T16:58:10.996Z</time></trkpt><trkpt lat="41.4457483" lon="15.5228217"><ele>80.0</ele><time>2026-04-19T16:58:11.997Z</time></trkpt><trkpt lat="41.445685" lon="15.5229983"><ele>80.0</ele><time>2026-04-19T16:58:12.996Z</time></trkpt><trkpt lat="41.4456317" lon="15.5231817"><ele>80.0</ele><time>2026-04-19T16:58:13.996Z</time></trkpt><trkpt lat="41.4455867" lon="15.5233717"><ele>80.0</ele><time>2026-04-19T16:58:14.997Z</time></trkpt><trkpt lat="41.4455483" lon="15.523565"><ele>80.0</ele><time>2026-04-19T16:58:15.996Z</time></trkpt><trkpt lat="41.4455167" lon="15.5237617"><ele>79.5</ele><time>2026-04-19T16:58:16.996Z</time></trkpt><trkpt lat="41.445495" lon="15.52396"><ele>79.0</ele><time>2026-04-19T16:58:17.997Z</time></trkpt><trkpt lat="41.445485" lon="15.5241567"><ele>78.5</ele><time>2026-04-19T16:58:18.996Z</time></trkpt><trkpt lat="41.4454833" lon="15.52435"><ele>78.0</ele><time>2026-04-19T16:58:19.996Z</time></trkpt><trkpt lat="41.4454867" lon="15.5245333"><ele>78.0</ele><time>2026-04-19T16:58:20.996Z</time></trkpt><trkpt lat="41.44549" lon="15.52471"><ele>78.0</ele><time>2026-04-19T16:58:21.996Z</time></trkpt><trkpt lat="41.445495" lon="15.5248867"><ele>78.0</ele><time>2026-04-19T16:58:22.996Z</time></trkpt><trkpt lat="41.4454967" lon="15.5250617"><ele>78.0</ele><time>2026-04-19T16:58:23.996Z</time></trkpt><trkpt lat="41.4455033" lon="15.5252383"><ele>78.0</ele><time>2026-04-19T16:58:24.996Z</time></trkpt><trkpt lat="41.44551" lon="15.5254083"><ele>78.0</ele><time>2026-04-19T16:58:25.996Z</time></trkpt><trkpt lat="41.445515" lon="15.5255717"><ele>78.0</ele><time>2026-04-19T16:58:26.996Z</time></trkpt><trkpt lat="41.4455183" lon="15.525725"><ele>78.0</ele><time>2026-04-19T16:58:27.996Z</time></trkpt><trkpt lat="41.4455233" lon="15.5258683"><ele>78.0</ele><time>2026-04-19T16:58:28.997Z</time></trkpt><trkpt lat="41.4455283" lon="15.5260067"><ele>78.0</ele><time>2026-04-19T16:58:29.996Z</time></trkpt><trkpt lat="41.4455317" lon="15.526145"><ele>78.0</ele><time>2026-04-19T16:58:30.997Z</time></trkpt><trkpt lat="41.4455383" lon="15.5262767"><ele>78.0</ele><time>2026-04-19T16:58:31.996Z</time></trkpt><trkpt lat="41.44554" lon="15.526405"><ele>78.0</ele><time>2026-04-19T16:58:32.997Z</time></trkpt><trkpt lat="41.4455333" lon="15.5265333"><ele>78.0</ele><time>2026-04-19T16:58:33.996Z</time></trkpt><trkpt lat="41.4455117" lon="15.52666"><ele>78.0</ele><time>2026-04-19T16:58:34.996Z</time></trkpt><trkpt lat="41.445475" lon="15.5267767"><ele>78.0</ele><time>2026-04-19T16:58:35.996Z</time></trkpt><trkpt lat="41.4454433" lon="15.5268883"><ele>78.0</ele><time>2026-04-19T16:58:36.996Z</time></trkpt><trkpt lat="41.4454267" lon="15.5270033"><ele>78.0</ele><time>2026-04-19T16:58:37.996Z</time></trkpt><trkpt lat="41.4454317" lon="15.5271167"><ele>77.6</ele><time>2026-04-19T16:58:38.997Z</time></trkpt><trkpt lat="41.445465" lon="15.527225"><ele>77.19999999999999</ele><time>2026-04-19T16:58:39.997Z</time></trkpt><trkpt lat="41.445515" lon="15.527335"><ele>76.8</ele><time>2026-04-19T16:58:40.996Z</time></trkpt><trkpt lat="41.44556" lon="15.5274533"><ele>76.39999999999999</ele><time>2026-04-19T16:58:41.996Z</time></trkpt><trkpt lat="41.4455867" lon="15.527585"><ele>76.0</ele><time>2026-04-19T16:58:42.996Z</time></trkpt><trkpt lat="41.4456" lon="15.5277317"><ele>76.0</ele><time>2026-04-19T16:58:43.997Z</time></trkpt><trkpt lat="41.44561" lon="15.527885"><ele>76.0</ele><time>2026-04-19T16:58:44.996Z</time></trkpt><trkpt lat="41.4456167" lon="15.5280483"><ele>76.0</ele><time>2026-04-19T16:58:45.997Z</time></trkpt><trkpt lat="41.4456233" lon="15.52822"><ele>76.0</ele><time>2026-04-19T16:58:46.996Z</time></trkpt><trkpt lat="41.4456317" lon="15.5283967"><ele>76.25</ele><time>2026-04-19T16:58:47.997Z</time></trkpt><trkpt lat="41.4456433" lon="15.5285783"><ele>76.5</ele><time>2026-04-19T16:58:48.996Z</time></trkpt><trkpt lat="41.4456533" lon="15.528765"><ele>76.75</ele><time>2026-04-19T16:58:49.996Z</time></trkpt><trkpt lat="41.4456633" lon="15.5289533"><ele>77.0</ele><time>2026-04-19T16:58:50.996Z</time></trkpt><trkpt lat="41.44567" lon="15.5291433"><ele>77.0</ele><time>2026-04-19T16:58:51.996Z</time></trkpt><trkpt lat="41.4456833" lon="15.529335"><ele>77.0</ele><time>2026-04-19T16:58:52.996Z</time></trkpt><trkpt lat="41.4456933" lon="15.5295217"><ele>77.0</ele><time>2026-04-19T16:58:53.996Z</time></trkpt><trkpt lat="41.4457017" lon="15.529705"><ele>77.0</ele><time>2026-04-19T16:58:54.996Z</time></trkpt><trkpt lat="41.44571" lon="15.529885"><ele>77.0</ele><time>2026-04-19T16:58:55.996Z</time></trkpt><trkpt lat="41.4457117" lon="15.5300667"><ele>77.0</ele><time>2026-04-19T16:58:56.996Z</time></trkpt><trkpt lat="41.4457067" lon="15.5302517"><ele>77.0</ele><time>2026-04-19T16:58:57.997Z</time></trkpt><trkpt lat="41.4456917" lon="15.5304383"><ele>77.0</ele><time>2026-04-19T16:58:58.996Z</time></trkpt><trkpt lat="41.4456667" lon="15.530625"><ele>77.25</ele><time>2026-04-19T16:58:59.996Z</time></trkpt><trkpt lat="41.4456383" lon="15.5308133"><ele>77.5</ele><time>2026-04-19T16:59:00.997Z</time></trkpt><trkpt lat="41.4455983" lon="15.531"><ele>77.75</ele><time>2026-04-19T16:59:01.996Z</time></trkpt><trkpt lat="41.445545" lon="15.5311833"><ele>78.0</ele><time>2026-04-19T16:59:02.997Z</time></trkpt><trkpt lat="41.4454867" lon="15.531365"><ele>78.0</ele><time>2026-04-19T16:59:03.996Z</time></trkpt><trkpt lat="41.4454217" lon="15.531545"><ele>78.0</ele><time>2026-04-19T16:59:04.996Z</time></trkpt><trkpt lat="41.445355" lon="15.5317217"><ele>78.0</ele><time>2026-04-19T16:59:05.996Z</time></trkpt><trkpt lat="41.4452883" lon="15.5319017"><ele>78.0</ele><time>2026-04-19T16:59:06.996Z</time></trkpt><trkpt lat="41.4452283" lon="15.5320867"><ele>78.0</ele><time>2026-04-19T16:59:07.996Z</time></trkpt><trkpt lat="41.4451633" lon="15.5322683"><ele>78.0</ele><time>2026-04-19T16:59:08.996Z</time></trkpt><trkpt lat="41.4451017" lon="15.5324483"><ele>78.0</ele><time>2026-04-19T16:59:09.997Z</time></trkpt><trkpt lat="41.44504" lon="15.5326167"><ele>78.0</ele><time>2026-04-19T16:59:10.996Z</time></trkpt><trkpt lat="41.444985" lon="15.5327783"><ele>77.6</ele><time>2026-04-19T16:59:11.996Z</time></trkpt><trkpt lat="41.4449317" lon="15.53293"><ele>77.19999999999999</ele><time>2026-04-19T16:59:12.996Z</time></trkpt><trkpt lat="41.4448817" lon="15.5330717"><ele>76.8</ele><time>2026-04-19T16:59:13.996Z</time></trkpt><trkpt lat="41.4448383" lon="15.5331983"><ele>76.39999999999999</ele><time>2026-04-19T16:59:14.996Z</time></trkpt><trkpt lat="41.4447983" lon="15.5333067"><ele>76.0</ele><time>2026-04-19T16:59:15.996Z</time></trkpt><trkpt lat="41.4447633" lon="15.5333917"><ele>76.0</ele><time>2026-04-19T16:59:16.996Z</time></trkpt><trkpt lat="41.444705" lon="15.5335067"><ele>76.0</ele><time>2026-04-19T16:59:18.997Z</time></trkpt><trkpt lat="41.4446233" lon="15.5335833"><ele>76.0</ele><time>2026-04-19T16:59:20.996Z</time></trkpt><trkpt lat="41.444505" lon="15.53363"><ele>76.0</ele><time>2026-04-19T16:59:22.997Z</time></trkpt><trkpt lat="41.444435" lon="15.53363"><ele>76.0</ele><time>2026-04-19T16:59:23.996Z</time></trkpt><trkpt lat="41.44436" lon="15.5336033"><ele>76.39999999999999</ele><time>2026-04-19T16:59:24.996Z</time></trkpt><trkpt lat="41.4442833" lon="15.5335533"><ele>76.8</ele><time>2026-04-19T16:59:25.996Z</time></trkpt><trkpt lat="41.444195" lon="15.5334917"><ele>77.19999999999999</ele><time>2026-04-19T16:59:26.997Z</time></trkpt><trkpt lat="41.4441017" lon="15.5334267"><ele>77.6</ele><time>2026-04-19T16:59:27.996Z</time></trkpt><trkpt lat="41.4440033" lon="15.53336"><ele>78.0</ele><time>2026-04-19T16:59:28.996Z</time></trkpt><trkpt lat="41.443905" lon="15.5333"><ele>78.0</ele><time>2026-04-19T16:59:29.996Z</time></trkpt><trkpt lat="41.443805" lon="15.5332533"><ele>78.0</ele><time>2026-04-19T16:59:30.996Z</time></trkpt><trkpt lat="41.443705" lon="15.533205"><ele>78.0</ele><time>2026-04-19T16:59:31.996Z</time></trkpt><trkpt lat="41.4436033" lon="15.5331583"><ele>78.0</ele><time>2026-04-19T16:59:32.996Z</time></trkpt><trkpt lat="41.4435017" lon="15.5331083"><ele>78.0</ele><time>2026-04-19T16:59:33.996Z</time></trkpt><trkpt lat="41.4433967" lon="15.5330667"><ele>77.8</ele><time>2026-04-19T16:59:34.997Z</time></trkpt><trkpt lat="41.4432917" lon="15.5330333"><ele>77.6</ele><time>2026-04-19T16:59:35.996Z</time></trkpt><trkpt lat="41.44319" lon="15.5329933"><ele>77.4</ele><time>2026-04-19T16:59:36.997Z</time></trkpt><trkpt lat="41.4430933" lon="15.5329633"><ele>77.2</ele><time>2026-04-19T16:59:37.996Z</time></trkpt><trkpt lat="41.443005" lon="15.5329267"><ele>77.0</ele><time>2026-04-19T16:59:38.997Z</time></trkpt><trkpt lat="41.442925" lon="15.5328933"><ele>77.14285714285714</ele><time>2026-04-19T16:59:39.997Z</time></trkpt><trkpt lat="41.4428533" lon="15.532855"><ele>77.28571428571428</ele><time>2026-04-19T16:59:40.996Z</time></trkpt><trkpt lat="41.4427917" lon="15.5327967"><ele>77.42857142857143</ele><time>2026-04-19T16:59:41.996Z</time></trkpt><trkpt lat="41.44274" lon="15.53272"><ele>77.57142857142857</ele><time>2026-04-19T16:59:42.996Z</time></trkpt><trkpt lat="41.4426867" lon="15.5326483"><ele>77.71428571428571</ele><time>2026-04-19T16:59:43.996Z</time></trkpt><trkpt lat="41.4426267" lon="15.5325917"><ele>77.85714285714286</ele><time>2026-04-19T16:59:44.996Z</time></trkpt><trkpt lat="41.4425633" lon="15.5325617"><ele>78.0</ele><time>2026-04-19T16:59:45.996Z</time></trkpt><trkpt lat="41.442495" lon="15.5325583"><ele>78.0</ele><time>2026-04-19T16:59:46.996Z</time></trkpt><trkpt lat="41.4424283" lon="15.532585"><ele>78.0</ele><time>2026-04-19T16:59:47.996Z</time></trkpt><trkpt lat="41.4423717" lon="15.53264"><ele>78.0</ele><time>2026-04-19T16:59:48.996Z</time></trkpt><trkpt lat="41.4423267" lon="15.532715"><ele>78.0</ele><time>2026-04-19T16:59:49.997Z</time></trkpt><trkpt lat="41.4423017" lon="15.5328083"><ele>78.0</ele><time>2026-04-19T16:59:50.996Z</time></trkpt><trkpt lat="41.44229" lon="15.5329217"><ele>78.0</ele><time>2026-04-19T16:59:51.997Z</time></trkpt><trkpt lat="41.442275" lon="15.5330433"><ele>77.75</ele><time>2026-04-19T16:59:52.996Z</time></trkpt><trkpt lat="41.4422383" lon="15.5331733"><ele>77.5</ele><time>2026-04-19T16:59:53.996Z</time></trkpt><trkpt lat="41.4421817" lon="15.533305"><ele>77.25</ele><time>2026-04-19T16:59:54.996Z</time></trkpt><trkpt lat="41.4421167" lon="15.53344"><ele>77.0</ele><time>2026-04-19T16:59:55.996Z</time></trkpt><trkpt lat="41.44205" lon="15.533575"><ele>77.0</ele><time>2026-04-19T16:59:56.997Z</time></trkpt><trkpt lat="41.4419883" lon="15.5337167"><ele>77.0</ele><time>2026-04-19T16:59:57.996Z</time></trkpt><trkpt lat="41.4419317" lon="15.53386"><ele>77.0</ele><time>2026-04-19T16:59:58.997Z</time></trkpt><trkpt lat="41.441885" lon="15.5340133"><ele>77.0</ele><time>2026-04-19T16:59:59.996Z</time></trkpt><trkpt lat="41.441845" lon="15.5341733"><ele>76.5</ele><time>2026-04-19T17:00:00.996Z</time></trkpt><trkpt lat="41.4418117" lon="15.5343417"><ele>76.0</ele><time>2026-04-19T17:00:01.996Z</time></trkpt><trkpt lat="41.4417833" lon="15.534515"><ele>75.5</ele><time>2026-04-19T17:00:02.996Z</time></trkpt><trkpt lat="41.4417633" lon="15.5346933"><ele>75.0</ele><time>2026-04-19T17:00:03.996Z</time></trkpt><trkpt lat="41.4417483" lon="15.5348767"><ele>75.0</ele><time>2026-04-19T17:00:04.996Z</time></trkpt><trkpt lat="41.44174" lon="15.535065"><ele>75.0</ele><time>2026-04-19T17:00:05.997Z</time></trkpt><trkpt lat="41.44173" lon="15.5352567"><ele>75.0</ele><time>2026-04-19T17:00:06.996Z</time></trkpt><trkpt lat="41.4417183" lon="15.5354517"><ele>75.0</ele><time>2026-04-19T17:00:07.996Z</time></trkpt><trkpt lat="41.441705" lon="15.5356483"><ele>74.75</ele><time>2026-04-19T17:00:08.996Z</time></trkpt><trkpt lat="41.4416933" lon="15.5358467"><ele>74.5</ele><time>2026-04-19T17:00:09.996Z</time></trkpt><trkpt lat="41.44168" lon="15.536045"><ele>74.25</ele><time>2026-04-19T17:00:10.996Z</time></trkpt><trkpt lat="41.44167" lon="15.5362433"><ele>74.0</ele><time>2026-04-19T17:00:11.996Z</time></trkpt><trkpt lat="41.4416617" lon="15.5364433"><ele>73.75</ele><time>2026-04-19T17:00:12.996Z</time></trkpt><trkpt lat="41.4416533" lon="15.53664"><ele>73.5</ele><time>2026-04-19T17:00:13.997Z</time></trkpt><trkpt lat="41.441645" lon="15.5368383"><ele>73.25</ele><time>2026-04-19T17:00:14.996Z</time></trkpt><trkpt lat="41.441635" lon="15.5370333"><ele>73.0</ele><time>2026-04-19T17:00:15.996Z</time></trkpt><trkpt lat="41.4416233" lon="15.5372267"><ele>72.75</ele><time>2026-04-19T17:00:16.996Z</time></trkpt><trkpt lat="41.441615" lon="15.53742"><ele>72.5</ele><time>2026-04-19T17:00:17.996Z</time></trkpt><trkpt lat="41.4416067" lon="15.5376133"><ele>72.25</ele><time>2026-04-19T17:00:18.996Z</time></trkpt><trkpt lat="41.4416017" lon="15.5378067"><ele>72.0</ele><time>2026-04-19T17:00:19.996Z</time></trkpt><trkpt lat="41.441595" lon="15.538"><ele>72.5</ele><time>2026-04-19T17:00:20.997Z</time></trkpt><trkpt lat="41.441585" lon="15.5381933"><ele>73.0</ele><time>2026-04-19T17:00:21.996Z</time></trkpt><trkpt lat="41.4415733" lon="15.538385"><ele>73.5</ele><time>2026-04-19T17:00:22.996Z</time></trkpt><trkpt lat="41.4415633" lon="15.53858"><ele>74.0</ele><time>2026-04-19T17:00:23.996Z</time></trkpt><trkpt lat="41.4415533" lon="15.5387733"><ele>74.0</ele><time>2026-04-19T17:00:24.997Z</time></trkpt><trkpt lat="41.4415417" lon="15.5389667"><ele>74.0</ele><time>2026-04-19T17:00:25.997Z</time></trkpt><trkpt lat="41.4415333" lon="15.5391617"><ele>74.0</ele><time>2026-04-19T17:00:26.997Z</time></trkpt><trkpt lat="41.441525" lon="15.5393567"><ele>74.0</ele><time>2026-04-19T17:00:27.996Z</time></trkpt><trkpt lat="41.4415117" lon="15.5395533"><ele>73.66666666666667</ele><time>2026-04-19T17:00:28.996Z</time></trkpt><trkpt lat="41.4415" lon="15.5397483"><ele>73.33333333333333</ele><time>2026-04-19T17:00:29.996Z</time></trkpt><trkpt lat="41.441495" lon="15.53995"><ele>73.0</ele><time>2026-04-19T17:00:30.996Z</time></trkpt><trkpt lat="41.4414833" lon="15.5401583"><ele>73.0</ele><time>2026-04-19T17:00:31.996Z</time></trkpt><trkpt lat="41.441475" lon="15.540375"><ele>73.0</ele><time>2026-04-19T17:00:32.996Z</time></trkpt><trkpt lat="41.441465" lon="15.540595"><ele>73.0</ele><time>2026-04-19T17:00:33.996Z</time></trkpt><trkpt lat="41.4414583" lon="15.5408083"><ele>72.75</ele><time>2026-04-19T17:00:34.997Z</time></trkpt><trkpt lat="41.44145" lon="15.5410133"><ele>72.5</ele><time>2026-04-19T17:00:35.996Z</time></trkpt><trkpt lat="41.4414383" lon="15.54121"><ele>72.25</ele><time>2026-04-19T17:00:36.996Z</time></trkpt><trkpt lat="41.4414267" lon="15.5414017"><ele>72.0</ele><time>2026-04-19T17:00:37.997Z</time></trkpt><trkpt lat="41.4414183" lon="15.541585"><ele>72.0</ele><time>2026-04-19T17:00:38.996Z</time></trkpt><trkpt lat="41.4414083" lon="15.5417617"><ele>72.0</ele><time>2026-04-19T17:00:39.997Z</time></trkpt><trkpt lat="41.4413883" lon="15.5419317"><ele>72.0</ele><time>2026-04-19T17:00:40.996Z</time></trkpt><trkpt lat="41.4413633" lon="15.5421017"><ele>72.0</ele><time>2026-04-19T17:00:41.996Z</time></trkpt><trkpt lat="41.441325" lon="15.5422667"><ele>72.0</ele><time>2026-04-19T17:00:42.996Z</time></trkpt><trkpt lat="41.4412767" lon="15.542425"><ele>72.0</ele><time>2026-04-19T17:00:43.996Z</time></trkpt><trkpt lat="41.4412217" lon="15.5425767"><ele>72.0</ele><time>2026-04-19T17:00:44.996Z</time></trkpt><trkpt lat="41.4411633" lon="15.5427233"><ele>72.0</ele><time>2026-04-19T17:00:45.996Z</time></trkpt><trkpt lat="41.4411" lon="15.5428633"><ele>72.0</ele><time>2026-04-19T17:00:46.996Z</time></trkpt><trkpt lat="41.441035" lon="15.5430083"><ele>72.0</ele><time>2026-04-19T17:00:47.996Z</time></trkpt><trkpt lat="41.4409667" lon="15.5431517"><ele>72.0</ele><time>2026-04-19T17:00:48.996Z</time></trkpt><trkpt lat="41.4409" lon="15.5432967"><ele>72.0</ele><time>2026-04-19T17:00:49.997Z</time></trkpt><trkpt lat="41.4408367" lon="15.54344"><ele>72.0</ele><time>2026-04-19T17:00:50.996Z</time></trkpt><trkpt lat="41.4407783" lon="15.543575"><ele>72.0</ele><time>2026-04-19T17:00:51.997Z</time></trkpt><trkpt lat="41.4407217" lon="15.5437"><ele>72.0</ele><time>2026-04-19T17:00:52.996Z</time></trkpt><trkpt lat="41.4406667" lon="15.543815"><ele>72.0</ele><time>2026-04-19T17:00:53.996Z</time></trkpt><trkpt lat="41.4406167" lon="15.5439217"><ele>72.0</ele><time>2026-04-19T17:00:54.996Z</time></trkpt><trkpt lat="41.4405733" lon="15.5440183"><ele>72.0</ele><time>2026-04-19T17:00:55.996Z</time></trkpt><trkpt lat="41.4405317" lon="15.5441017"><ele>72.0</ele><time>2026-04-19T17:00:56.996Z</time></trkpt><trkpt lat="41.4404867" lon="15.5441667"><ele>72.0</ele><time>2026-04-19T17:00:57.996Z</time></trkpt><trkpt lat="41.440435" lon="15.5442267"><ele>72.0</ele><time>2026-04-19T17:00:58.996Z</time></trkpt><trkpt lat="41.4403683" lon="15.5442783"><ele>72.0</ele><time>2026-04-19T17:00:59.996Z</time></trkpt><trkpt lat="41.4402883" lon="15.54432"><ele>72.0</ele><time>2026-04-19T17:01:00.996Z</time></trkpt><trkpt lat="41.4401983" lon="15.5443567"><ele>72.0</ele><time>2026-04-19T17:01:01.996Z</time></trkpt><trkpt lat="41.4401117" lon="15.5443917"><ele>72.0</ele><time>2026-04-19T17:01:02.996Z</time></trkpt><trkpt lat="41.4400317" lon="15.5444433"><ele>72.0</ele><time>2026-04-19T17:01:03.997Z</time></trkpt><trkpt lat="41.4399583" lon="15.544515"><ele>72.0</ele><time>2026-04-19T17:01:04.997Z</time></trkpt><trkpt lat="41.4398983" lon="15.544605"><ele>72.0</ele><time>2026-04-19T17:01:05.996Z</time></trkpt><trkpt lat="41.43985" lon="15.5447133"><ele>72.2</ele><time>2026-04-19T17:01:06.996Z</time></trkpt><trkpt lat="41.43981" lon="15.5448333"><ele>72.4</ele><time>2026-04-19T17:01:07.996Z</time></trkpt><trkpt lat="41.4397767" lon="15.54496"><ele>72.6</ele><time>2026-04-19T17:01:08.996Z</time></trkpt><trkpt lat="41.4397467" lon="15.5450917"><ele>72.8</ele><time>2026-04-19T17:01:09.997Z</time></trkpt><trkpt lat="41.43972" lon="15.5452283"><ele>73.0</ele><time>2026-04-19T17:01:10.996Z</time></trkpt><trkpt lat="41.4396983" lon="15.5453667"><ele>72.8</ele><time>2026-04-19T17:01:11.996Z</time></trkpt><trkpt lat="41.4396833" lon="15.5455017"><ele>72.6</ele><time>2026-04-19T17:01:12.997Z</time></trkpt><trkpt lat="41.4396717" lon="15.5456267"><ele>72.4</ele><time>2026-04-19T17:01:13.996Z</time></trkpt><trkpt lat="41.4396633" lon="15.5457433"><ele>72.2</ele><time>2026-04-19T17:01:14.997Z</time></trkpt><trkpt lat="41.4396567" lon="15.5458533"><ele>72.0</ele><time>2026-04-19T17:01:15.996Z</time></trkpt><trkpt lat="41.439655" lon="15.545965"><ele>72.0</ele><time>2026-04-19T17:01:16.996Z</time></trkpt><trkpt lat="41.439645" lon="15.54608"><ele>72.0</ele><time>2026-04-19T17:01:17.996Z</time></trkpt><trkpt lat="41.43962" lon="15.546195"><ele>72.0</ele><time>2026-04-19T17:01:18.996Z</time></trkpt><trkpt lat="41.4395767" lon="15.5463067"><ele>72.0</ele><time>2026-04-19T17:01:19.996Z</time></trkpt><trkpt lat="41.43952" lon="15.5464133"><ele>72.0</ele><time>2026-04-19T17:01:20.996Z</time></trkpt><trkpt lat="41.43945" lon="15.54652"><ele>72.25</ele><time>2026-04-19T17:01:21.996Z</time></trkpt><trkpt lat="41.4393717" lon="15.5466333"><ele>72.5</ele><time>2026-04-19T17:01:22.996Z</time></trkpt><trkpt lat="41.43929" lon="15.54675"><ele>72.75</ele><time>2026-04-19T17:01:23.997Z</time></trkpt><trkpt lat="41.4392083" lon="15.5468733"><ele>73.0</ele><time>2026-04-19T17:01:24.996Z</time></trkpt><trkpt lat="41.4391217" lon="15.5470033"><ele>73.0</ele><time>2026-04-19T17:01:25.997Z</time></trkpt><trkpt lat="41.4390333" lon="15.5471417"><ele>73.0</ele><time>2026-04-19T17:01:26.996Z</time></trkpt><trkpt lat="41.43894" lon="15.547285"><ele>73.0</ele><time>2026-04-19T17:01:27.996Z</time></trkpt><trkpt lat="41.4388483" lon="15.5474367"><ele>73.0</ele><time>2026-04-19T17:01:28.996Z</time></trkpt><trkpt lat="41.4387567" lon="15.547595"><ele>73.0</ele><time>2026-04-19T17:01:29.996Z</time></trkpt><trkpt lat="41.4386583" lon="15.547755"><ele>73.0</ele><time>2026-04-19T17:01:30.997Z</time></trkpt><trkpt lat="41.438565" lon="15.547915"><ele>73.0</ele><time>2026-04-19T17:01:31.997Z</time></trkpt><trkpt lat="41.438475" lon="15.5480717"><ele>72.5</ele><time>2026-04-19T17:01:32.996Z</time></trkpt><trkpt lat="41.43838" lon="15.548215"><ele>72.0</ele><time>2026-04-19T17:01:33.996Z</time></trkpt><trkpt lat="41.4382917" lon="15.548365"><ele>71.5</ele><time>2026-04-19T17:01:34.997Z</time></trkpt><trkpt lat="41.4382" lon="15.54851"><ele>71.0</ele><time>2026-04-19T17:01:35.997Z</time></trkpt><trkpt lat="41.4381133" lon="15.5486567"><ele>71.0</ele><time>2026-04-19T17:01:36.997Z</time></trkpt><trkpt lat="41.4380267" lon="15.5488033"><ele>71.0</ele><time>2026-04-19T17:01:37.996Z</time></trkpt><trkpt lat="41.437935" lon="15.54895"><ele>71.0</ele><time>2026-04-19T17:01:38.996Z</time></trkpt><trkpt lat="41.437845" lon="15.5490983"><ele>71.0</ele><time>2026-04-19T17:01:39.996Z</time></trkpt><trkpt lat="41.4377517" lon="15.5492483"><ele>71.33333333333334</ele><time>2026-04-19T17:01:40.996Z</time></trkpt><trkpt lat="41.4376567" lon="15.5494017"><ele>71.66666666666667</ele><time>2026-04-19T17:01:41.997Z</time></trkpt><trkpt lat="41.43757" lon="15.5495667"><ele>72.0</ele><time>2026-04-19T17:01:42.996Z</time></trkpt><trkpt lat="41.437475" lon="15.5497233"><ele>72.0</ele><time>2026-04-19T17:01:43.996Z</time></trkpt><trkpt lat="41.43738" lon="15.5498833"><ele>72.0</ele><time>2026-04-19T17:01:44.996Z</time></trkpt><trkpt lat="41.437285" lon="15.5500467"><ele>72.0</ele><time>2026-04-19T17:01:45.996Z</time></trkpt><trkpt lat="41.4371883" lon="15.55021"><ele>72.0</ele><time>2026-04-19T17:01:46.996Z</time></trkpt><trkpt lat="41.4370867" lon="15.5503667"><ele>72.0</ele><time>2026-04-19T17:01:47.996Z</time></trkpt><trkpt lat="41.4369883" lon="15.5505267"><ele>72.0</ele><time>2026-04-19T17:01:48.996Z</time></trkpt><trkpt lat="41.43689" lon="15.550685"><ele>71.66666666666667</ele><time>2026-04-19T17:01:49.996Z</time></trkpt><trkpt lat="41.43679" lon="15.5508433"><ele>71.33333333333334</ele><time>2026-04-19T17:01:50.996Z</time></trkpt><trkpt lat="41.4366867" lon="15.5509967"><ele>71.0</ele><time>2026-04-19T17:01:51.996Z</time></trkpt><trkpt lat="41.4365833" lon="15.5511533"><ele>70.66666666666667</ele><time>2026-04-19T17:01:52.996Z</time></trkpt><trkpt lat="41.4364783" lon="15.551305"><ele>70.33333333333333</ele><time>2026-04-19T17:01:53.996Z</time></trkpt><trkpt lat="41.43637" lon="15.5514583"><ele>70.0</ele><time>2026-04-19T17:01:54.996Z</time></trkpt><trkpt lat="41.4362617" lon="15.5516083"><ele>70.0</ele><time>2026-04-19T17:01:55.996Z</time></trkpt><trkpt lat="41.436155" lon="15.5517633"><ele>70.0</ele><time>2026-04-19T17:01:56.996Z</time></trkpt><trkpt lat="41.4360467" lon="15.5519133"><ele>70.0</ele><time>2026-04-19T17:01:57.996Z</time></trkpt><trkpt lat="41.43594" lon="15.5520617"><ele>70.33333333333333</ele><time>2026-04-19T17:01:58.996Z</time></trkpt><trkpt lat="41.4358283" lon="15.5522033"><ele>70.66666666666667</ele><time>2026-04-19T17:01:59.996Z</time></trkpt><trkpt lat="41.43572" lon="15.55235"><ele>71.0</ele><time>2026-04-19T17:02:00.997Z</time></trkpt><trkpt lat="41.4356083" lon="15.5524933"><ele>71.0</ele><time>2026-04-19T17:02:01.997Z</time></trkpt><trkpt lat="41.4354933" lon="15.5526317"><ele>71.0</ele><time>2026-04-19T17:02:02.996Z</time></trkpt><trkpt lat="41.4353783" lon="15.55277"><ele>71.0</ele><time>2026-04-19T17:02:03.997Z</time></trkpt><trkpt lat="41.4352633" lon="15.5529083"><ele>71.33333333333334</ele><time>2026-04-19T17:02:04.996Z</time></trkpt><trkpt lat="41.435145" lon="15.553045"><ele>71.66666666666667</ele><time>2026-04-19T17:02:05.997Z</time></trkpt><trkpt lat="41.4350283" lon="15.5531783"><ele>72.0</ele><time>2026-04-19T17:02:06.996Z</time></trkpt><trkpt lat="41.4349083" lon="15.55331"><ele>72.0</ele><time>2026-04-19T17:02:07.996Z</time></trkpt><trkpt lat="41.4347867" lon="15.5534367"><ele>72.0</ele><time>2026-04-19T17:02:08.997Z</time></trkpt><trkpt lat="41.4346633" lon="15.5535583"><ele>72.0</ele><time>2026-04-19T17:02:09.996Z</time></trkpt><trkpt lat="41.4345433" lon="15.5536833"><ele>72.33333333333333</ele><time>2026-04-19T17:02:10.996Z</time></trkpt><trkpt lat="41.4344133" lon="15.5538"><ele>72.66666666666666</ele><time>2026-04-19T17:02:11.996Z</time></trkpt><trkpt lat="41.4342882" lon="15.5539284"><ele>73.0</ele><time>2026-04-19T17:02:12.996Z</time></trkpt><trkpt lat="41.4341596" lon="15.5540565"><ele>73.0</ele><time>2026-04-19T17:02:13.996Z</time></trkpt><trkpt lat="41.4340254" lon="15.5541871"><ele>73.0</ele><time>2026-04-19T17:02:14.997Z</time></trkpt><trkpt lat="41.4338875" lon="15.5543165"><ele>73.0</ele><time>2026-04-19T17:02:15.996Z</time></trkpt><trkpt lat="41.4337495" lon="15.5544425"><ele>72.33333333333333</ele><time>2026-04-19T17:02:16.996Z</time></trkpt><trkpt lat="41.4336107" lon="15.554568"><ele>71.66666666666667</ele><time>2026-04-19T17:02:17.996Z</time></trkpt><trkpt lat="41.4334713" lon="15.5546895"><ele>71.0</ele><time>2026-04-19T17:02:18.996Z</time></trkpt><trkpt lat="41.4333313" lon="15.5548077"><ele>71.0</ele><time>2026-04-19T17:02:19.996Z</time></trkpt><trkpt lat="41.4331952" lon="15.5549254"><ele>71.0</ele><time>2026-04-19T17:02:20.997Z</time></trkpt><trkpt lat="41.433059" lon="15.5550408"><ele>71.0</ele><time>2026-04-19T17:02:21.996Z</time></trkpt><trkpt lat="41.4329249" lon="15.5551524"><ele>71.33333333333334</ele><time>2026-04-19T17:02:22.996Z</time></trkpt><trkpt lat="41.4327945" lon="15.555263"><ele>71.66666666666667</ele><time>2026-04-19T17:02:23.996Z</time></trkpt><trkpt lat="41.4326664" lon="15.5553679"><ele>72.0</ele><time>2026-04-19T17:02:24.996Z</time></trkpt><trkpt lat="41.4325425" lon="15.555473"><ele>72.0</ele><time>2026-04-19T17:02:25.996Z</time></trkpt><trkpt lat="41.4324209" lon="15.5555707"><ele>72.0</ele><time>2026-04-19T17:02:26.996Z</time></trkpt><trkpt lat="41.4322998" lon="15.5556659"><ele>72.0</ele><time>2026-04-19T17:02:27.996Z</time></trkpt><trkpt lat="41.4321793" lon="15.5557599"><ele>72.0</ele><time>2026-04-19T17:02:28.996Z</time></trkpt><trkpt lat="41.4320577" lon="15.5558491"><ele>72.25</ele><time>2026-04-19T17:02:29.996Z</time></trkpt><trkpt lat="41.4319347" lon="15.5559369"><ele>72.5</ele><time>2026-04-19T17:02:30.996Z</time></trkpt><trkpt lat="41.4318111" lon="15.5560286"><ele>72.75</ele><time>2026-04-19T17:02:31.997Z</time></trkpt><trkpt lat="41.431689" lon="15.556127"><ele>73.0</ele><time>2026-04-19T17:02:32.996Z</time></trkpt><trkpt lat="41.4315623" lon="15.556221"><ele>73.0</ele><time>2026-04-19T17:02:33.996Z</time></trkpt><trkpt lat="41.4314333" lon="15.5563167"><ele>73.0</ele><time>2026-04-19T17:02:34.996Z</time></trkpt><trkpt lat="41.4313023" lon="15.5564108"><ele>73.0</ele><time>2026-04-19T17:02:35.996Z</time></trkpt><trkpt lat="41.4311706" lon="15.5565058"><ele>73.0</ele><time>2026-04-19T17:02:36.996Z</time></trkpt><trkpt lat="41.4310404" lon="15.556605"><ele>74.0</ele><time>2026-04-19T17:02:37.997Z</time></trkpt><trkpt lat="41.4309103" lon="15.556707"><ele>75.0</ele><time>2026-04-19T17:02:38.996Z</time></trkpt><trkpt lat="41.4307783" lon="15.556806"><ele>76.0</ele><time>2026-04-19T17:02:39.997Z</time></trkpt><trkpt lat="41.4306422" lon="15.5568984"><ele>76.0</ele><time>2026-04-19T17:02:40.996Z</time></trkpt><trkpt lat="41.430508" lon="15.556997"><ele>76.0</ele><time>2026-04-19T17:02:41.997Z</time></trkpt><trkpt lat="41.4303744" lon="15.5571022"><ele>76.0</ele><time>2026-04-19T17:02:42.996Z</time></trkpt><trkpt lat="41.4302371" lon="15.557202"><ele>75.66666666666666</ele><time>2026-04-19T17:02:43.996Z</time></trkpt><trkpt lat="41.4300973" lon="15.5573"><ele>75.33333333333333</ele><time>2026-04-19T17:02:44.997Z</time></trkpt><trkpt lat="41.4299555" lon="15.5573916"><ele>75.0</ele><time>2026-04-19T17:02:45.997Z</time></trkpt><trkpt lat="41.4298112" lon="15.5574807"><ele>75.0</ele><time>2026-04-19T17:02:46.996Z</time></trkpt><trkpt lat="41.4296657" lon="15.5575699"><ele>75.0</ele><time>2026-04-19T17:02:47.996Z</time></trkpt><trkpt lat="41.4295187" lon="15.5576617"><ele>75.0</ele><time>2026-04-19T17:02:48.997Z</time></trkpt><trkpt lat="41.4293688" lon="15.5577533"><ele>74.66666666666667</ele><time>2026-04-19T17:02:49.996Z</time></trkpt><trkpt lat="41.4292156" lon="15.5578436"><ele>74.33333333333334</ele><time>2026-04-19T17:02:50.996Z</time></trkpt><trkpt lat="41.4290565" lon="15.5579301"><ele>74.0</ele><time>2026-04-19T17:02:51.996Z</time></trkpt><trkpt lat="41.4288946" lon="15.5580096"><ele>73.66666666666667</ele><time>2026-04-19T17:02:52.996Z</time></trkpt><trkpt lat="41.4287297" lon="15.5580929"><ele>73.33333333333333</ele><time>2026-04-19T17:02:53.997Z</time></trkpt><trkpt lat="41.4285629" lon="15.5581732"><ele>73.0</ele><time>2026-04-19T17:02:54.996Z</time></trkpt><trkpt lat="41.4283945" lon="15.5582487"><ele>73.0</ele><time>2026-04-19T17:02:55.996Z</time></trkpt><trkpt lat="41.4282258" lon="15.5583179"><ele>73.0</ele><time>2026-04-19T17:02:56.996Z</time></trkpt><trkpt lat="41.4280558" lon="15.5583866"><ele>73.0</ele><time>2026-04-19T17:02:57.996Z</time></trkpt><trkpt lat="41.4278843" lon="15.5584505"><ele>73.0</ele><time>2026-04-19T17:02:58.996Z</time></trkpt><trkpt lat="41.4277126" lon="15.558509"><ele>73.0</ele><time>2026-04-19T17:02:59.996Z</time></trkpt><trkpt lat="41.4275408" lon="15.5585678"><ele>73.0</ele><time>2026-04-19T17:03:00.997Z</time></trkpt><trkpt lat="41.427369" lon="15.558627"><ele>73.0</ele><time>2026-04-19T17:03:01.996Z</time></trkpt><trkpt lat="41.4271973" lon="15.558681"><ele>73.0</ele><time>2026-04-19T17:03:02.996Z</time></trkpt><trkpt lat="41.427027" lon="15.5587321"><ele>73.0</ele><time>2026-04-19T17:03:03.996Z</time></trkpt><trkpt lat="41.4268545" lon="15.5587764"><ele>73.0</ele><time>2026-04-19T17:03:04.997Z</time></trkpt><trkpt lat="41.4266826" lon="15.5588167"><ele>73.0</ele><time>2026-04-19T17:03:05.997Z</time></trkpt><trkpt lat="41.4265109" lon="15.5588562"><ele>73.0</ele><time>2026-04-19T17:03:06.996Z</time></trkpt><trkpt lat="41.4263406" lon="15.5588919"><ele>73.0</ele><time>2026-04-19T17:03:07.996Z</time></trkpt><trkpt lat="41.4261706" lon="15.5589267"><ele>73.0</ele><time>2026-04-19T17:03:08.996Z</time></trkpt><trkpt lat="41.4260016" lon="15.5589632"><ele>73.0</ele><time>2026-04-19T17:03:09.996Z</time></trkpt><trkpt lat="41.4258304" lon="15.558996"><ele>73.0</ele><time>2026-04-19T17:03:10.996Z</time></trkpt><trkpt lat="41.4256559" lon="15.5590273"><ele>73.0</ele><time>2026-04-19T17:03:11.996Z</time></trkpt><trkpt lat="41.4254806" lon="15.5590586"><ele>73.0</ele><time>2026-04-19T17:03:12.996Z</time></trkpt><trkpt lat="41.4253038" lon="15.5590857"><ele>73.33333333333333</ele><time>2026-04-19T17:03:13.996Z</time></trkpt><trkpt lat="41.4251255" lon="15.5591078"><ele>73.66666666666667</ele><time>2026-04-19T17:03:14.996Z</time></trkpt><trkpt lat="41.4249456" lon="15.5591224"><ele>74.0</ele><time>2026-04-19T17:03:15.996Z</time></trkpt><trkpt lat="41.4247655" lon="15.5591302"><ele>74.33333333333334</ele><time>2026-04-19T17:03:16.996Z</time></trkpt><trkpt lat="41.4245855" lon="15.559122"><ele>74.66666666666667</ele><time>2026-04-19T17:03:17.996Z</time></trkpt><trkpt lat="41.4244068" lon="15.5591266"><ele>75.0</ele><time>2026-04-19T17:03:18.996Z</time></trkpt><trkpt lat="41.4242284" lon="15.5591317"><ele>75.0</ele><time>2026-04-19T17:03:19.996Z</time></trkpt><trkpt lat="41.4240492" lon="15.5591275"><ele>75.0</ele><time>2026-04-19T17:03:20.996Z</time></trkpt><trkpt lat="41.4238706" lon="15.5591349"><ele>75.0</ele><time>2026-04-19T17:03:21.996Z</time></trkpt><trkpt lat="41.4236919" lon="15.5591372"><ele>74.66666666666667</ele><time>2026-04-19T17:03:22.997Z</time></trkpt><trkpt lat="41.4235122" lon="15.559132"><ele>74.33333333333334</ele><time>2026-04-19T17:03:23.996Z</time></trkpt><trkpt lat="41.4233317" lon="15.5591233"><ele>74.0</ele><time>2026-04-19T17:03:24.997Z</time></trkpt><trkpt lat="41.423151" lon="15.5591113"><ele>72.66666666666667</ele><time>2026-04-19T17:03:25.996Z</time></trkpt><trkpt lat="41.4229713" lon="15.5590961"><ele>71.33333333333333</ele><time>2026-04-19T17:03:26.996Z</time></trkpt><trkpt lat="41.4227914" lon="15.5590785"><ele>70.0</ele><time>2026-04-19T17:03:27.996Z</time></trkpt><trkpt lat="41.4226103" lon="15.5590581"><ele>70.0</ele><time>2026-04-19T17:03:28.996Z</time></trkpt><trkpt lat="41.4224314" lon="15.5590322"><ele>70.0</ele><time>2026-04-19T17:03:29.996Z</time></trkpt><trkpt lat="41.4222543" lon="15.5590045"><ele>70.0</ele><time>2026-04-19T17:03:30.996Z</time></trkpt><trkpt lat="41.4220794" lon="15.5589741"><ele>70.33333333333333</ele><time>2026-04-19T17:03:31.997Z</time></trkpt><trkpt lat="41.4219059" lon="15.5589404"><ele>70.66666666666667</ele><time>2026-04-19T17:03:32.996Z</time></trkpt><trkpt lat="41.4217357" lon="15.5589038"><ele>71.0</ele><time>2026-04-19T17:03:33.996Z</time></trkpt><trkpt lat="41.421567" lon="15.5588694"><ele>71.0</ele><time>2026-04-19T17:03:34.996Z</time></trkpt><trkpt lat="41.4214022" lon="15.5588361"><ele>71.0</ele><time>2026-04-19T17:03:35.996Z</time></trkpt><trkpt lat="41.421238" lon="15.5588074"><ele>71.0</ele><time>2026-04-19T17:03:36.997Z</time></trkpt><trkpt lat="41.4210747" lon="15.5587756"><ele>71.0</ele><time>2026-04-19T17:03:37.996Z</time></trkpt><trkpt lat="41.4209124" lon="15.5587439"><ele>71.0</ele><time>2026-04-19T17:03:38.996Z</time></trkpt><trkpt lat="41.4207483" lon="15.5587088"><ele>71.0</ele><time>2026-04-19T17:03:39.996Z</time></trkpt><trkpt lat="41.4205831" lon="15.5586725"><ele>71.33333333333334</ele><time>2026-04-19T17:03:40.997Z</time></trkpt><trkpt lat="41.420415" lon="15.5586381"><ele>71.66666666666667</ele><time>2026-04-19T17:03:41.997Z</time></trkpt><trkpt lat="41.4202455" lon="15.558609"><ele>72.0</ele><time>2026-04-19T17:03:42.996Z</time></trkpt><trkpt lat="41.4200749" lon="15.5585791"><ele>72.0</ele><time>2026-04-19T17:03:43.996Z</time></trkpt><trkpt lat="41.4199063" lon="15.5585504"><ele>72.0</ele><time>2026-04-19T17:03:44.996Z</time></trkpt><trkpt lat="41.4197394" lon="15.558521"><ele>72.0</ele><time>2026-04-19T17:03:45.996Z</time></trkpt><trkpt lat="41.4195728" lon="15.5584991"><ele>72.33333333333333</ele><time>2026-04-19T17:03:46.996Z</time></trkpt><trkpt lat="41.419406" lon="15.558474"><ele>72.66666666666666</ele><time>2026-04-19T17:03:47.996Z</time></trkpt><trkpt lat="41.4192397" lon="15.5584537"><ele>73.0</ele><time>2026-04-19T17:03:48.996Z</time></trkpt><trkpt lat="41.4190717" lon="15.5584324"><ele>73.0</ele><time>2026-04-19T17:03:49.996Z</time></trkpt><trkpt lat="41.4189022" lon="15.5584109"><ele>73.0</ele><time>2026-04-19T17:03:50.996Z</time></trkpt><trkpt lat="41.4187336" lon="15.5583882"><ele>73.0</ele><time>2026-04-19T17:03:51.996Z</time></trkpt><trkpt lat="41.4185666" lon="15.5583696"><ele>73.33333333333333</ele><time>2026-04-19T17:03:52.996Z</time></trkpt><trkpt lat="41.4183988" lon="15.5583525"><ele>73.66666666666667</ele><time>2026-04-19T17:03:53.996Z</time></trkpt><trkpt lat="41.4182318" lon="15.5583413"><ele>74.0</ele><time>2026-04-19T17:03:54.996Z</time></trkpt><trkpt lat="41.4180648" lon="15.5583265"><ele>74.66666666666667</ele><time>2026-04-19T17:03:55.996Z</time></trkpt><trkpt lat="41.4178979" lon="15.5583173"><ele>75.33333333333333</ele><time>2026-04-19T17:03:56.997Z</time></trkpt><trkpt lat="41.4177312" lon="15.5583098"><ele>76.0</ele><time>2026-04-19T17:03:57.996Z</time></trkpt><trkpt lat="41.4175635" lon="15.558303"><ele>76.0</ele><time>2026-04-19T17:03:58.996Z</time></trkpt><trkpt lat="41.417395" lon="15.5582996"><ele>76.0</ele><time>2026-04-19T17:03:59.996Z</time></trkpt><trkpt lat="41.4172254" lon="15.5582941"><ele>76.0</ele><time>2026-04-19T17:04:00.996Z</time></trkpt><trkpt lat="41.4170554" lon="15.5582912"><ele>76.33333333333333</ele><time>2026-04-19T17:04:01.996Z</time></trkpt><trkpt lat="41.4168866" lon="15.5582915"><ele>76.66666666666667</ele><time>2026-04-19T17:04:02.997Z</time></trkpt><trkpt lat="41.4167169" lon="15.5582893"><ele>77.0</ele><time>2026-04-19T17:04:03.996Z</time></trkpt><trkpt lat="41.4165471" lon="15.5582876"><ele>77.0</ele><time>2026-04-19T17:04:04.996Z</time></trkpt><trkpt lat="41.4163798" lon="15.5582892"><ele>77.0</ele><time>2026-04-19T17:04:05.997Z</time></trkpt><trkpt lat="41.4162147" lon="15.5582932"><ele>77.0</ele><time>2026-04-19T17:04:06.996Z</time></trkpt><trkpt lat="41.4160474" lon="15.5582957"><ele>76.66666666666667</ele><time>2026-04-19T17:04:07.996Z</time></trkpt><trkpt lat="41.4158791" lon="15.5583022"><ele>76.33333333333333</ele><time>2026-04-19T17:04:08.996Z</time></trkpt><trkpt lat="41.4157118" lon="15.5583112"><ele>76.0</ele><time>2026-04-19T17:04:09.996Z</time></trkpt><trkpt lat="41.4155425" lon="15.5583231"><ele>76.0</ele><time>2026-04-19T17:04:10.996Z</time></trkpt><trkpt lat="41.4153726" lon="15.5583327"><ele>76.0</ele><time>2026-04-19T17:04:11.996Z</time></trkpt><trkpt lat="41.4152025" lon="15.5583414"><ele>76.0</ele><time>2026-04-19T17:04:12.997Z</time></trkpt><trkpt lat="41.4150333" lon="15.5583522"><ele>76.0</ele><time>2026-04-19T17:04:13.996Z</time></trkpt><trkpt lat="41.4148664" lon="15.5583647"><ele>76.0</ele><time>2026-04-19T17:04:14.996Z</time></trkpt><trkpt lat="41.4146989" lon="15.5583801"><ele>76.0</ele><time>2026-04-19T17:04:15.996Z</time></trkpt><trkpt lat="41.4145303" lon="15.5583987"><ele>76.33333333333333</ele><time>2026-04-19T17:04:16.996Z</time></trkpt><trkpt lat="41.4143616" lon="15.5584207"><ele>76.66666666666667</ele><time>2026-04-19T17:04:17.996Z</time></trkpt><trkpt lat="41.4141946" lon="15.5584401"><ele>77.0</ele><time>2026-04-19T17:04:18.997Z</time></trkpt><trkpt lat="41.4140268" lon="15.5584611"><ele>77.0</ele><time>2026-04-19T17:04:19.996Z</time></trkpt><trkpt lat="41.4138585" lon="15.5584826"><ele>77.0</ele><time>2026-04-19T17:04:20.997Z</time></trkpt><trkpt lat="41.4136912" lon="15.5585043"><ele>77.0</ele><time>2026-04-19T17:04:21.996Z</time></trkpt><trkpt lat="41.4135235" lon="15.5585282"><ele>77.0</ele><time>2026-04-19T17:04:22.996Z</time></trkpt><trkpt lat="41.4133539" lon="15.558553"><ele>77.0</ele><time>2026-04-19T17:04:23.996Z</time></trkpt><trkpt lat="41.4131852" lon="15.5585767"><ele>77.0</ele><time>2026-04-19T17:04:24.996Z</time></trkpt><trkpt lat="41.4130151" lon="15.558598"><ele>76.66666666666667</ele><time>2026-04-19T17:04:25.997Z</time></trkpt><trkpt lat="41.4128478" lon="15.5586215"><ele>76.33333333333333</ele><time>2026-04-19T17:04:26.997Z</time></trkpt><trkpt lat="41.4126802" lon="15.5586438"><ele>76.0</ele><time>2026-04-19T17:04:27.997Z</time></trkpt><trkpt lat="41.4125133" lon="15.5586724"><ele>76.0</ele><time>2026-04-19T17:04:28.996Z</time></trkpt><trkpt lat="41.4123466" lon="15.5586977"><ele>76.0</ele><time>2026-04-19T17:04:29.996Z</time></trkpt><trkpt lat="41.4121799" lon="15.5587201"><ele>76.0</ele><time>2026-04-19T17:04:30.996Z</time></trkpt><trkpt lat="41.4120121" lon="15.5587423"><ele>76.33333333333333</ele><time>2026-04-19T17:04:31.997Z</time></trkpt><trkpt lat="41.4118453" lon="15.5587641"><ele>76.66666666666667</ele><time>2026-04-19T17:04:32.996Z</time></trkpt><trkpt lat="41.4116787" lon="15.5587879"><ele>77.0</ele><time>2026-04-19T17:04:33.996Z</time></trkpt><trkpt lat="41.4115136" lon="15.5588101"><ele>77.0</ele><time>2026-04-19T17:04:34.996Z</time></trkpt><trkpt lat="41.411353" lon="15.5588342"><ele>77.0</ele><time>2026-04-19T17:04:35.996Z</time></trkpt><trkpt lat="41.4111948" lon="15.5588588"><ele>77.0</ele><time>2026-04-19T17:04:36.996Z</time></trkpt><trkpt lat="41.411037" lon="15.5588849"><ele>77.0</ele><time>2026-04-19T17:04:37.996Z</time></trkpt><trkpt lat="41.41088" lon="15.5589078"><ele>77.0</ele><time>2026-04-19T17:04:38.996Z</time></trkpt><trkpt lat="41.410722" lon="15.5589309"><ele>77.0</ele><time>2026-04-19T17:04:39.997Z</time></trkpt><trkpt lat="41.4105623" lon="15.5589522"><ele>76.66666666666667</ele><time>2026-04-19T17:04:40.996Z</time></trkpt><trkpt lat="41.4103979" lon="15.5589808"><ele>76.33333333333333</ele><time>2026-04-19T17:04:41.996Z</time></trkpt><trkpt lat="41.4102323" lon="15.5590081"><ele>76.0</ele><time>2026-04-19T17:04:42.997Z</time></trkpt><trkpt lat="41.4100681" lon="15.559035"><ele>76.0</ele><time>2026-04-19T17:04:43.996Z</time></trkpt><trkpt lat="41.4099008" lon="15.5590594"><ele>76.0</ele><time>2026-04-19T17:04:44.996Z</time></trkpt><trkpt lat="41.4097335" lon="15.559088"><ele>76.0</ele><time>2026-04-19T17:04:45.996Z</time></trkpt><trkpt lat="41.4095628" lon="15.5591183"><ele>76.33333333333333</ele><time>2026-04-19T17:04:46.996Z</time></trkpt><trkpt lat="41.409392" lon="15.5591429"><ele>76.66666666666667</ele><time>2026-04-19T17:04:47.996Z</time></trkpt><trkpt lat="41.4092176" lon="15.5591659"><ele>77.0</ele><time>2026-04-19T17:04:48.996Z</time></trkpt><trkpt lat="41.4090438" lon="15.5591874"><ele>77.0</ele><time>2026-04-19T17:04:49.996Z</time></trkpt><trkpt lat="41.4088703" lon="15.5592116"><ele>77.0</ele><time>2026-04-19T17:04:50.997Z</time></trkpt><trkpt lat="41.408697" lon="15.5592364"><ele>77.0</ele><time>2026-04-19T17:04:51.996Z</time></trkpt><trkpt lat="41.4085251" lon="15.5592589"><ele>77.33333333333334</ele><time>2026-04-19T17:04:52.997Z</time></trkpt><trkpt lat="41.4083522" lon="15.5592856"><ele>77.66666666666667</ele><time>2026-04-19T17:04:53.996Z</time></trkpt><trkpt lat="41.4081802" lon="15.5593146"><ele>78.0</ele><time>2026-04-19T17:04:54.996Z</time></trkpt><trkpt lat="41.4080099" lon="15.5593408"><ele>78.33333333333333</ele><time>2026-04-19T17:04:55.996Z</time></trkpt><trkpt lat="41.4078415" lon="15.5593668"><ele>78.66666666666666</ele><time>2026-04-19T17:04:56.996Z</time></trkpt><trkpt lat="41.4076734" lon="15.5593913"><ele>79.0</ele><time>2026-04-19T17:04:57.996Z</time></trkpt><trkpt lat="41.4075069" lon="15.559416"><ele>79.0</ele><time>2026-04-19T17:04:58.996Z</time></trkpt><trkpt lat="41.4073429" lon="15.5594432"><ele>79.0</ele><time>2026-04-19T17:04:59.997Z</time></trkpt><trkpt lat="41.40718" lon="15.5594667"><ele>79.0</ele><time>2026-04-19T17:05:00.996Z</time></trkpt><trkpt lat="41.4070167" lon="15.5594883"><ele>79.0</ele><time>2026-04-19T17:05:01.996Z</time></trkpt><trkpt lat="41.406855" lon="15.5595133"><ele>79.0</ele><time>2026-04-19T17:05:02.997Z</time></trkpt><trkpt lat="41.4066917" lon="15.559535"><ele>79.0</ele><time>2026-04-19T17:05:03.996Z</time></trkpt><trkpt lat="41.4065283" lon="15.55956"><ele>78.66666666666666</ele><time>2026-04-19T17:05:04.996Z</time></trkpt><trkpt lat="41.4063683" lon="15.55958"><ele>78.33333333333333</ele><time>2026-04-19T17:05:05.996Z</time></trkpt><trkpt lat="41.4062067" lon="15.5596067"><ele>78.0</ele><time>2026-04-19T17:05:06.996Z</time></trkpt><trkpt lat="41.406045" lon="15.5596317"><ele>78.66666666666667</ele><time>2026-04-19T17:05:07.996Z</time></trkpt><trkpt lat="41.405885" lon="15.559655"><ele>79.33333333333334</ele><time>2026-04-19T17:05:08.996Z</time></trkpt><trkpt lat="41.4057233" lon="15.55968"><ele>80.0</ele><time>2026-04-19T17:05:09.996Z</time></trkpt><trkpt lat="41.40556" lon="15.559705"><ele>80.33333333333334</ele><time>2026-04-19T17:05:10.996Z</time></trkpt><trkpt lat="41.4053967" lon="15.559735"><ele>80.66666666666667</ele><time>2026-04-19T17:05:11.996Z</time></trkpt><trkpt lat="41.4052317" lon="15.55976"><ele>81.0</ele><time>2026-04-19T17:05:12.996Z</time></trkpt><trkpt lat="41.4050683" lon="15.559785"><ele>81.0</ele><time>2026-04-19T17:05:13.997Z</time></trkpt><trkpt lat="41.4049" lon="15.55981"><ele>81.0</ele><time>2026-04-19T17:05:14.996Z</time></trkpt><trkpt lat="41.4047333" lon="15.559835"><ele>81.0</ele><time>2026-04-19T17:05:15.996Z</time></trkpt><trkpt lat="41.4045633" lon="15.5598567"><ele>80.66666666666667</ele><time>2026-04-19T17:05:16.996Z</time></trkpt><trkpt lat="41.4043933" lon="15.55988"><ele>80.33333333333334</ele><time>2026-04-19T17:05:17.996Z</time></trkpt><trkpt lat="41.40422" lon="15.559905"><ele>80.0</ele><time>2026-04-19T17:05:18.997Z</time></trkpt><trkpt lat="41.4040467" lon="15.5599333"><ele>80.0</ele><time>2026-04-19T17:05:19.996Z</time></trkpt><trkpt lat="41.4038717" lon="15.5599567"><ele>80.0</ele><time>2026-04-19T17:05:20.997Z</time></trkpt><trkpt lat="41.403695" lon="15.55998"><ele>80.0</ele><time>2026-04-19T17:05:21.996Z</time></trkpt><trkpt lat="41.4035167" lon="15.560005"><ele>80.0</ele><time>2026-04-19T17:05:22.996Z</time></trkpt><trkpt lat="41.40334" lon="15.5600283"><ele>80.0</ele><time>2026-04-19T17:05:23.996Z</time></trkpt><trkpt lat="41.403165" lon="15.5600533"><ele>80.0</ele><time>2026-04-19T17:05:24.996Z</time></trkpt><trkpt lat="41.40299" lon="15.5600767"><ele>80.0</ele><time>2026-04-19T17:05:25.996Z</time></trkpt><trkpt lat="41.4028167" lon="15.5601033"><ele>80.0</ele><time>2026-04-19T17:05:26.996Z</time></trkpt><trkpt lat="41.4026433" lon="15.56013"><ele>80.0</ele><time>2026-04-19T17:05:27.996Z</time></trkpt><trkpt lat="41.4024717" lon="15.5601533"><ele>80.0</ele><time>2026-04-19T17:05:28.997Z</time></trkpt><trkpt lat="41.4022983" lon="15.5601767"><ele>80.0</ele><time>2026-04-19T17:05:29.996Z</time></trkpt><trkpt lat="41.4021233" lon="15.5602"><ele>80.0</ele><time>2026-04-19T17:05:30.996Z</time></trkpt><trkpt lat="41.401945" lon="15.5602217"><ele>80.0</ele><time>2026-04-19T17:05:31.996Z</time></trkpt><trkpt lat="41.4017667" lon="15.560245"><ele>80.0</ele><time>2026-04-19T17:05:32.996Z</time></trkpt><trkpt lat="41.4015883" lon="15.5602733"><ele>80.0</ele><time>2026-04-19T17:05:33.996Z</time></trkpt><trkpt lat="41.4014083" lon="15.5603033"><ele>80.0</ele><time>2026-04-19T17:05:34.996Z</time></trkpt><trkpt lat="41.4012267" lon="15.5603317"><ele>80.0</ele><time>2026-04-19T17:05:35.997Z</time></trkpt><trkpt lat="41.4010467" lon="15.5603583"><ele>80.0</ele><time>2026-04-19T17:05:36.996Z</time></trkpt><trkpt lat="41.400865" lon="15.56039"><ele>80.0</ele><time>2026-04-19T17:05:37.996Z</time></trkpt><trkpt lat="41.400685" lon="15.5604233"><ele>80.0</ele><time>2026-04-19T17:05:38.996Z</time></trkpt><trkpt lat="41.4005033" lon="15.56045"><ele>80.0</ele><time>2026-04-19T17:05:39.996Z</time></trkpt><trkpt lat="41.40032" lon="15.560475"><ele>80.0</ele><time>2026-04-19T17:05:40.997Z</time></trkpt><trkpt lat="41.400135" lon="15.5605083"><ele>80.0</ele><time>2026-04-19T17:05:41.996Z</time></trkpt><trkpt lat="41.3999483" lon="15.5605367"><ele>80.0</ele><time>2026-04-19T17:05:42.996Z</time></trkpt><trkpt lat="41.39976" lon="15.5605667"><ele>80.0</ele><time>2026-04-19T17:05:43.997Z</time></trkpt><trkpt lat="41.3995733" lon="15.5605983"><ele>80.0</ele><time>2026-04-19T17:05:44.996Z</time></trkpt><trkpt lat="41.399385" lon="15.5606283"><ele>80.0</ele><time>2026-04-19T17:05:45.997Z</time></trkpt><trkpt lat="41.3991967" lon="15.5606533"><ele>80.0</ele><time>2026-04-19T17:05:46.996Z</time></trkpt><trkpt lat="41.3990083" lon="15.56068"><ele>80.0</ele><time>2026-04-19T17:05:47.996Z</time></trkpt><trkpt lat="41.39882" lon="15.5607083"><ele>80.0</ele><time>2026-04-19T17:05:48.996Z</time></trkpt><trkpt lat="41.398635" lon="15.5607417"><ele>79.33333333333334</ele><time>2026-04-19T17:05:49.996Z</time></trkpt><trkpt lat="41.3984467" lon="15.5607717"><ele>78.66666666666667</ele><time>2026-04-19T17:05:50.997Z</time></trkpt><trkpt lat="41.3982583" lon="15.5608"><ele>78.0</ele><time>2026-04-19T17:05:51.996Z</time></trkpt><trkpt lat="41.3980717" lon="15.5608283"><ele>78.33333333333333</ele><time>2026-04-19T17:05:52.997Z</time></trkpt><trkpt lat="41.3978833" lon="15.56086"><ele>78.66666666666666</ele><time>2026-04-19T17:05:53.996Z</time></trkpt><trkpt lat="41.397695" lon="15.5608917"><ele>79.0</ele><time>2026-04-19T17:05:54.996Z</time></trkpt><trkpt lat="41.3975067" lon="15.56092"><ele>79.0</ele><time>2026-04-19T17:05:55.996Z</time></trkpt><trkpt lat="41.39732" lon="15.56095"><ele>79.0</ele><time>2026-04-19T17:05:56.997Z</time></trkpt><trkpt lat="41.3971317" lon="15.5609767"><ele>79.0</ele><time>2026-04-19T17:05:57.997Z</time></trkpt><trkpt lat="41.3969433" lon="15.561005"><ele>79.33333333333333</ele><time>2026-04-19T17:05:58.996Z</time></trkpt><trkpt lat="41.396755" lon="15.5610333"><ele>79.66666666666667</ele><time>2026-04-19T17:05:59.996Z</time></trkpt><trkpt lat="41.3965683" lon="15.56106"><ele>80.0</ele><time>2026-04-19T17:06:00.997Z</time></trkpt><trkpt lat="41.39638" lon="15.5610833"><ele>79.66666666666667</ele><time>2026-04-19T17:06:01.996Z</time></trkpt><trkpt lat="41.396195" lon="15.5611117"><ele>79.33333333333333</ele><time>2026-04-19T17:06:02.997Z</time></trkpt><trkpt lat="41.3960183" lon="15.5611433"><ele>79.0</ele><time>2026-04-19T17:06:03.996Z</time></trkpt><trkpt lat="41.3958467" lon="15.56117"><ele>79.0</ele><time>2026-04-19T17:06:04.996Z</time></trkpt><trkpt lat="41.3956817" lon="15.5611933"><ele>79.0</ele><time>2026-04-19T17:06:05.996Z</time></trkpt><trkpt lat="41.3955183" lon="15.5612183"><ele>79.0</ele><time>2026-04-19T17:06:06.996Z</time></trkpt><trkpt lat="41.39536" lon="15.56124"><ele>79.33333333333333</ele><time>2026-04-19T17:06:07.996Z</time></trkpt><trkpt lat="41.3952033" lon="15.5612633"><ele>79.66666666666667</ele><time>2026-04-19T17:06:08.997Z</time></trkpt><trkpt lat="41.3950433" lon="15.5612817"><ele>80.0</ele><time>2026-04-19T17:06:09.996Z</time></trkpt><trkpt lat="41.394885" lon="15.5613017"><ele>80.0</ele><time>2026-04-19T17:06:10.996Z</time></trkpt><trkpt lat="41.394725" lon="15.5613267"><ele>80.0</ele><time>2026-04-19T17:06:11.997Z</time></trkpt><trkpt lat="41.39456" lon="15.5613483"><ele>80.0</ele><time>2026-04-19T17:06:12.996Z</time></trkpt><trkpt lat="41.394395" lon="15.561375"><ele>80.0</ele><time>2026-04-19T17:06:13.996Z</time></trkpt><trkpt lat="41.3942283" lon="15.5614"><ele>80.0</ele><time>2026-04-19T17:06:14.996Z</time></trkpt><trkpt lat="41.39406" lon="15.561425"><ele>80.0</ele><time>2026-04-19T17:06:15.996Z</time></trkpt><trkpt lat="41.39389" lon="15.56145"><ele>80.66666666666667</ele><time>2026-04-19T17:06:16.996Z</time></trkpt><trkpt lat="41.3937217" lon="15.5614767"><ele>81.33333333333333</ele><time>2026-04-19T17:06:17.996Z</time></trkpt><trkpt lat="41.393555" lon="15.5615067"><ele>82.0</ele><time>2026-04-19T17:06:18.997Z</time></trkpt><trkpt lat="41.3933867" lon="15.5615283"><ele>82.0</ele><time>2026-04-19T17:06:19.996Z</time></trkpt><trkpt lat="41.3932183" lon="15.5615483"><ele>82.0</ele><time>2026-04-19T17:06:20.996Z</time></trkpt><trkpt lat="41.39305" lon="15.5615683"><ele>82.0</ele><time>2026-04-19T17:06:21.996Z</time></trkpt><trkpt lat="41.3928833" lon="15.56159"><ele>81.33333333333333</ele><time>2026-04-19T17:06:22.996Z</time></trkpt><trkpt lat="41.3927183" lon="15.5616133"><ele>80.66666666666667</ele><time>2026-04-19T17:06:23.996Z</time></trkpt><trkpt lat="41.39255" lon="15.5616417"><ele>80.0</ele><time>2026-04-19T17:06:24.997Z</time></trkpt><trkpt lat="41.3923833" lon="15.561665"><ele>80.0</ele><time>2026-04-19T17:06:25.996Z</time></trkpt><trkpt lat="41.3922167" lon="15.56169"><ele>80.0</ele><time>2026-04-19T17:06:26.996Z</time></trkpt><trkpt lat="41.3920483" lon="15.561715"><ele>80.0</ele><time>2026-04-19T17:06:27.996Z</time></trkpt><trkpt lat="41.3918767" lon="15.56174"><ele>80.66666666666667</ele><time>2026-04-19T17:06:28.996Z</time></trkpt><trkpt lat="41.3917017" lon="15.5617667"><ele>81.33333333333333</ele><time>2026-04-19T17:06:29.996Z</time></trkpt><trkpt lat="41.391525" lon="15.5617917"><ele>82.0</ele><time>2026-04-19T17:06:30.996Z</time></trkpt><trkpt lat="41.3913483" lon="15.5618167"><ele>82.0</ele><time>2026-04-19T17:06:31.996Z</time></trkpt><trkpt lat="41.39117" lon="15.561845"><ele>82.0</ele><time>2026-04-19T17:06:32.996Z</time></trkpt><trkpt lat="41.39099" lon="15.56187"><ele>82.0</ele><time>2026-04-19T17:06:33.996Z</time></trkpt><trkpt lat="41.3908117" lon="15.5618967"><ele>82.0</ele><time>2026-04-19T17:06:34.996Z</time></trkpt><trkpt lat="41.3906333" lon="15.561925"><ele>82.0</ele><time>2026-04-19T17:06:35.997Z</time></trkpt><trkpt lat="41.3904533" lon="15.5619617"><ele>82.0</ele><time>2026-04-19T17:06:36.997Z</time></trkpt><trkpt lat="41.3902717" lon="15.5619867"><ele>81.66666666666666</ele><time>2026-04-19T17:06:37.997Z</time></trkpt><trkpt lat="41.3900933" lon="15.5620133"><ele>81.33333333333333</ele><time>2026-04-19T17:06:38.997Z</time></trkpt><trkpt lat="41.3899117" lon="15.5620433"><ele>81.0</ele><time>2026-04-19T17:06:39.996Z</time></trkpt><trkpt lat="41.3897317" lon="15.56207"><ele>81.33333333333333</ele><time>2026-04-19T17:06:40.996Z</time></trkpt><trkpt lat="41.3895533" lon="15.5621033"><ele>81.66666666666666</ele><time>2026-04-19T17:06:41.996Z</time></trkpt><trkpt lat="41.3893767" lon="15.562135"><ele>82.0</ele><time>2026-04-19T17:06:42.996Z</time></trkpt><trkpt lat="41.3892017" lon="15.5621567"><ele>82.0</ele><time>2026-04-19T17:06:43.996Z</time></trkpt><trkpt lat="41.3890283" lon="15.562175"><ele>82.0</ele><time>2026-04-19T17:06:44.996Z</time></trkpt><trkpt lat="41.3888567" lon="15.5621967"><ele>82.0</ele><time>2026-04-19T17:06:45.996Z</time></trkpt><trkpt lat="41.388685" lon="15.562225"><ele>82.0</ele><time>2026-04-19T17:06:46.996Z</time></trkpt><trkpt lat="41.3885133" lon="15.5622533"><ele>82.0</ele><time>2026-04-19T17:06:47.996Z</time></trkpt><trkpt lat="41.38834" lon="15.5622767"><ele>82.0</ele><time>2026-04-19T17:06:48.997Z</time></trkpt><trkpt lat="41.3881633" lon="15.562295"><ele>82.33333333333333</ele><time>2026-04-19T17:06:49.996Z</time></trkpt><trkpt lat="41.3879867" lon="15.5623233"><ele>82.66666666666667</ele><time>2026-04-19T17:06:50.996Z</time></trkpt><trkpt lat="41.38781" lon="15.56235"><ele>83.0</ele><time>2026-04-19T17:06:51.996Z</time></trkpt><trkpt lat="41.3876317" lon="15.5623783"><ele>83.0</ele><time>2026-04-19T17:06:52.996Z</time></trkpt><trkpt lat="41.387455" lon="15.562405"><ele>83.0</ele><time>2026-04-19T17:06:53.996Z</time></trkpt><trkpt lat="41.3872783" lon="15.562435"><ele>83.0</ele><time>2026-04-19T17:06:54.996Z</time></trkpt><trkpt lat="41.3871033" lon="15.5624633"><ele>83.0</ele><time>2026-04-19T17:06:55.996Z</time></trkpt><trkpt lat="41.3869283" lon="15.56249"><ele>83.0</ele><time>2026-04-19T17:06:56.996Z</time></trkpt><trkpt lat="41.3867567" lon="15.5625183"><ele>83.0</ele><time>2026-04-19T17:06:57.996Z</time></trkpt><trkpt lat="41.3865833" lon="15.562545"><ele>83.0</ele><time>2026-04-19T17:06:58.996Z</time></trkpt><trkpt lat="41.3864117" lon="15.5625717"><ele>83.0</ele><time>2026-04-19T17:06:59.996Z</time></trkpt><trkpt lat="41.38624" lon="15.5626033"><ele>83.0</ele><time>2026-04-19T17:07:00.996Z</time></trkpt><trkpt lat="41.3860683" lon="15.5626233"><ele>83.66666666666667</ele><time>2026-04-19T17:07:01.997Z</time></trkpt><trkpt lat="41.3859" lon="15.5626467"><ele>84.33333333333333</ele><time>2026-04-19T17:07:02.996Z</time></trkpt><trkpt lat="41.38573" lon="15.56267"><ele>85.0</ele><time>2026-04-19T17:07:03.996Z</time></trkpt><trkpt lat="41.38556" lon="15.562695"><ele>85.0</ele><time>2026-04-19T17:07:04.996Z</time></trkpt><trkpt lat="41.3853917" lon="15.5627183"><ele>85.0</ele><time>2026-04-19T17:07:05.996Z</time></trkpt><trkpt lat="41.3852217" lon="15.5627383"><ele>85.0</ele><time>2026-04-19T17:07:06.996Z</time></trkpt><trkpt lat="41.3850517" lon="15.5627683"><ele>85.0</ele><time>2026-04-19T17:07:07.996Z</time></trkpt><trkpt lat="41.3848817" lon="15.562795"><ele>85.0</ele><time>2026-04-19T17:07:08.997Z</time></trkpt><trkpt lat="41.3847117" lon="15.56282"><ele>85.0</ele><time>2026-04-19T17:07:09.996Z</time></trkpt><trkpt lat="41.38454" lon="15.5628483"><ele>84.66666666666666</ele><time>2026-04-19T17:07:10.996Z</time></trkpt><trkpt lat="41.38437" lon="15.5628667"><ele>84.33333333333333</ele><time>2026-04-19T17:07:11.996Z</time></trkpt><trkpt lat="41.3842017" lon="15.56289"><ele>84.0</ele><time>2026-04-19T17:07:12.996Z</time></trkpt><trkpt lat="41.384035" lon="15.5629183"><ele>84.0</ele><time>2026-04-19T17:07:13.996Z</time></trkpt><trkpt lat="41.3838667" lon="15.56294"><ele>84.0</ele><time>2026-04-19T17:07:14.996Z</time></trkpt><trkpt lat="41.3837" lon="15.5629683"><ele>84.0</ele><time>2026-04-19T17:07:15.996Z</time></trkpt><trkpt lat="41.383535" lon="15.562995"><ele>85.0</ele><time>2026-04-19T17:07:16.996Z</time></trkpt><trkpt lat="41.3833717" lon="15.563015"><ele>86.0</ele><time>2026-04-19T17:07:17.996Z</time></trkpt><trkpt lat="41.3832067" lon="15.5630383"><ele>87.0</ele><time>2026-04-19T17:07:18.996Z</time></trkpt><trkpt lat="41.38304" lon="15.56306"><ele>87.0</ele><time>2026-04-19T17:07:19.996Z</time></trkpt><trkpt lat="41.382875" lon="15.5630817"><ele>87.0</ele><time>2026-04-19T17:07:20.996Z</time></trkpt><trkpt lat="41.38271" lon="15.5631067"><ele>87.0</ele><time>2026-04-19T17:07:21.996Z</time></trkpt><trkpt lat="41.3825433" lon="15.5631267"><ele>87.0</ele><time>2026-04-19T17:07:22.996Z</time></trkpt><trkpt lat="41.3823767" lon="15.5631583"><ele>87.0</ele><time>2026-04-19T17:07:23.996Z</time></trkpt><trkpt lat="41.3822133" lon="15.5631817"><ele>87.0</ele><time>2026-04-19T17:07:24.996Z</time></trkpt><trkpt lat="41.38205" lon="15.563205"><ele>87.66666666666667</ele><time>2026-04-19T17:07:25.996Z</time></trkpt><trkpt lat="41.3818867" lon="15.56322"><ele>88.33333333333334</ele><time>2026-04-19T17:07:26.996Z</time></trkpt><trkpt lat="41.3817217" lon="15.5632417"><ele>89.0</ele><time>2026-04-19T17:07:27.996Z</time></trkpt><trkpt lat="41.3815567" lon="15.5632683"><ele>89.0</ele><time>2026-04-19T17:07:28.996Z</time></trkpt><trkpt lat="41.38139" lon="15.5633017"><ele>89.0</ele><time>2026-04-19T17:07:29.997Z</time></trkpt><trkpt lat="41.3812217" lon="15.5633267"><ele>89.0</ele><time>2026-04-19T17:07:30.996Z</time></trkpt><trkpt lat="41.3810533" lon="15.5633467"><ele>89.0</ele><time>2026-04-19T17:07:31.996Z</time></trkpt><trkpt lat="41.380885" lon="15.5633733"><ele>89.0</ele><time>2026-04-19T17:07:32.996Z</time></trkpt><trkpt lat="41.3807217" lon="15.5634"><ele>89.0</ele><time>2026-04-19T17:07:33.997Z</time></trkpt><trkpt lat="41.3805567" lon="15.5634233"><ele>90.0</ele><time>2026-04-19T17:07:34.996Z</time></trkpt><trkpt lat="41.3803933" lon="15.56345"><ele>91.0</ele><time>2026-04-19T17:07:35.996Z</time></trkpt><trkpt lat="41.38023" lon="15.5634767"><ele>92.0</ele><time>2026-04-19T17:07:36.996Z</time></trkpt><trkpt lat="41.38007" lon="15.563505"><ele>92.0</ele><time>2026-04-19T17:07:37.996Z</time></trkpt><trkpt lat="41.3799133" lon="15.56353"><ele>92.0</ele><time>2026-04-19T17:07:38.996Z</time></trkpt><trkpt lat="41.3797567" lon="15.5635517"><ele>92.0</ele><time>2026-04-19T17:07:39.997Z</time></trkpt><trkpt lat="41.3796" lon="15.563575"><ele>91.66666666666667</ele><time>2026-04-19T17:07:40.997Z</time></trkpt><trkpt lat="41.3794417" lon="15.5636"><ele>91.33333333333333</ele><time>2026-04-19T17:07:41.997Z</time></trkpt><trkpt lat="41.37928" lon="15.5636217"><ele>91.0</ele><time>2026-04-19T17:07:42.996Z</time></trkpt><trkpt lat="41.37912" lon="15.5636517"><ele>91.0</ele><time>2026-04-19T17:07:43.996Z</time></trkpt><trkpt lat="41.3789583" lon="15.56368"><ele>91.0</ele><time>2026-04-19T17:07:44.996Z</time></trkpt><trkpt lat="41.378795" lon="15.5637067"><ele>91.0</ele><time>2026-04-19T17:07:45.996Z</time></trkpt><trkpt lat="41.37863" lon="15.5637317"><ele>91.66666666666666</ele><time>2026-04-19T17:07:46.996Z</time></trkpt><trkpt lat="41.3784683" lon="15.5637583"><ele>92.33333333333333</ele><time>2026-04-19T17:07:47.996Z</time></trkpt><trkpt lat="41.3783067" lon="15.5637917"><ele>93.0</ele><time>2026-04-19T17:07:48.996Z</time></trkpt><trkpt lat="41.3781467" lon="15.56382"><ele>93.66666666666667</ele><time>2026-04-19T17:07:49.997Z</time></trkpt><trkpt lat="41.3779867" lon="15.5638367"><ele>94.33333333333334</ele><time>2026-04-19T17:07:50.996Z</time></trkpt><trkpt lat="41.3778267" lon="15.5638617"><ele>95.0</ele><time>2026-04-19T17:07:51.996Z</time></trkpt><trkpt lat="41.377665" lon="15.563885"><ele>95.0</ele><time>2026-04-19T17:07:52.996Z</time></trkpt><trkpt lat="41.3775033" lon="15.563905"><ele>95.0</ele><time>2026-04-19T17:07:53.996Z</time></trkpt><trkpt lat="41.3773367" lon="15.5639233"><ele>95.0</ele><time>2026-04-19T17:07:54.997Z</time></trkpt><trkpt lat="41.3771733" lon="15.56394"><ele>95.0</ele><time>2026-04-19T17:07:55.997Z</time></trkpt><trkpt lat="41.3770083" lon="15.56396"><ele>95.0</ele><time>2026-04-19T17:07:56.997Z</time></trkpt><trkpt lat="41.3768433" lon="15.56398"><ele>95.0</ele><time>2026-04-19T17:07:57.996Z</time></trkpt><trkpt lat="41.3766767" lon="15.5639983"><ele>95.0</ele><time>2026-04-19T17:07:58.996Z</time></trkpt><trkpt lat="41.3765083" lon="15.5640183"><ele>95.0</ele><time>2026-04-19T17:07:59.996Z</time></trkpt><trkpt lat="41.37634" lon="15.5640417"><ele>95.0</ele><time>2026-04-19T17:08:00.996Z</time></trkpt><trkpt lat="41.3761733" lon="15.5640617"><ele>95.0</ele><time>2026-04-19T17:08:01.996Z</time></trkpt><trkpt lat="41.3760033" lon="15.5640783"><ele>95.0</ele><time>2026-04-19T17:08:02.996Z</time></trkpt><trkpt lat="41.3758367" lon="15.5640983"><ele>95.0</ele><time>2026-04-19T17:08:03.996Z</time></trkpt><trkpt lat="41.3756683" lon="15.5641183"><ele>96.0</ele><time>2026-04-19T17:08:04.996Z</time></trkpt><trkpt lat="41.3755033" lon="15.56414"><ele>97.0</ele><time>2026-04-19T17:08:05.996Z</time></trkpt><trkpt lat="41.375335" lon="15.5641583"><ele>98.0</ele><time>2026-04-19T17:08:06.996Z</time></trkpt><trkpt lat="41.37517" lon="15.5641783"><ele>98.0</ele><time>2026-04-19T17:08:07.996Z</time></trkpt><trkpt lat="41.3750017" lon="15.5641967"><ele>98.0</ele><time>2026-04-19T17:08:08.996Z</time></trkpt><trkpt lat="41.3748333" lon="15.5642133"><ele>98.0</ele><time>2026-04-19T17:08:09.997Z</time></trkpt><trkpt lat="41.374665" lon="15.5642317"><ele>98.33333333333333</ele><time>2026-04-19T17:08:10.996Z</time></trkpt><trkpt lat="41.3744983" lon="15.5642533"><ele>98.66666666666666</ele><time>2026-04-19T17:08:11.996Z</time></trkpt><trkpt lat="41.3743317" lon="15.5642717"><ele>99.0</ele><time>2026-04-19T17:08:12.997Z</time></trkpt><trkpt lat="41.374165" lon="15.56429"><ele>99.0</ele><time>2026-04-19T17:08:13.997Z</time></trkpt><trkpt lat="41.3739967" lon="15.5643133"><ele>99.0</ele><time>2026-04-19T17:08:14.996Z</time></trkpt><trkpt lat="41.3738283" lon="15.564335"><ele>99.0</ele><time>2026-04-19T17:08:15.996Z</time></trkpt><trkpt lat="41.3736583" lon="15.5643533"><ele>99.33333333333334</ele><time>2026-04-19T17:08:16.997Z</time></trkpt><trkpt lat="41.3734867" lon="15.56437"><ele>99.66666666666667</ele><time>2026-04-19T17:08:17.996Z</time></trkpt><trkpt lat="41.373315" lon="15.5643817"><ele>100.0</ele><time>2026-04-19T17:08:18.996Z</time></trkpt><trkpt lat="41.3731417" lon="15.5644"><ele>100.0</ele><time>2026-04-19T17:08:19.996Z</time></trkpt><trkpt lat="41.3729667" lon="15.5644167"><ele>100.0</ele><time>2026-04-19T17:08:20.996Z</time></trkpt><trkpt lat="41.3727917" lon="15.56443"><ele>100.0</ele><time>2026-04-19T17:08:21.996Z</time></trkpt><trkpt lat="41.372615" lon="15.564445"><ele>100.0</ele><time>2026-04-19T17:08:22.996Z</time></trkpt><trkpt lat="41.3724383" lon="15.56446"><ele>100.0</ele><time>2026-04-19T17:08:23.997Z</time></trkpt><trkpt lat="41.3722617" lon="15.5644733"><ele>100.0</ele><time>2026-04-19T17:08:24.997Z</time></trkpt><trkpt lat="41.3720833" lon="15.564495"><ele>100.0</ele><time>2026-04-19T17:08:25.996Z</time></trkpt><trkpt lat="41.3719033" lon="15.564505"><ele>100.0</ele><time>2026-04-19T17:08:26.997Z</time></trkpt><trkpt lat="41.3717267" lon="15.56452"><ele>100.0</ele><time>2026-04-19T17:08:27.996Z</time></trkpt><trkpt lat="41.3715517" lon="15.56453"><ele>100.0</ele><time>2026-04-19T17:08:28.996Z</time></trkpt><trkpt lat="41.3713833" lon="15.5645383"><ele>100.0</ele><time>2026-04-19T17:08:29.997Z</time></trkpt><trkpt lat="41.37122" lon="15.5645483"><ele>100.0</ele><time>2026-04-19T17:08:30.996Z</time></trkpt><trkpt lat="41.3710567" lon="15.5645583"><ele>100.0</ele><time>2026-04-19T17:08:31.996Z</time></trkpt><trkpt lat="41.3708917" lon="15.5645667"><ele>100.0</ele><time>2026-04-19T17:08:32.996Z</time></trkpt><trkpt lat="41.370725" lon="15.56458"><ele>100.0</ele><time>2026-04-19T17:08:33.996Z</time></trkpt><trkpt lat="41.3705567" lon="15.5645917"><ele>100.0</ele><time>2026-04-19T17:08:34.996Z</time></trkpt><trkpt lat="41.3703867" lon="15.5646133"><ele>100.0</ele><time>2026-04-19T17:08:35.996Z</time></trkpt><trkpt lat="41.370215" lon="15.56462"><ele>100.0</ele><time>2026-04-19T17:08:36.996Z</time></trkpt><trkpt lat="41.3700433" lon="15.5646383"><ele>100.0</ele><time>2026-04-19T17:08:37.997Z</time></trkpt><trkpt lat="41.3698717" lon="15.564645"><ele>100.0</ele><time>2026-04-19T17:08:38.997Z</time></trkpt><trkpt lat="41.3697" lon="15.5646583"><ele>100.0</ele><time>2026-04-19T17:08:39.996Z</time></trkpt><trkpt lat="41.3695317" lon="15.5646717"><ele>100.33333333333334</ele><time>2026-04-19T17:08:40.996Z</time></trkpt><trkpt lat="41.3693683" lon="15.5646817"><ele>100.66666666666666</ele><time>2026-04-19T17:08:41.996Z</time></trkpt><trkpt lat="41.369205" lon="15.56469"><ele>101.0</ele><time>2026-04-19T17:08:42.997Z</time></trkpt><trkpt lat="41.3690417" lon="15.5647017"><ele>101.0</ele><time>2026-04-19T17:08:43.996Z</time></trkpt><trkpt lat="41.3688783" lon="15.5647133"><ele>101.0</ele><time>2026-04-19T17:08:44.997Z</time></trkpt><trkpt lat="41.368715" lon="15.5647267"><ele>101.0</ele><time>2026-04-19T17:08:45.996Z</time></trkpt><trkpt lat="41.36855" lon="15.5647333"><ele>100.66666666666666</ele><time>2026-04-19T17:08:46.996Z</time></trkpt><trkpt lat="41.3683867" lon="15.5647433"><ele>100.33333333333334</ele><time>2026-04-19T17:08:47.996Z</time></trkpt><trkpt lat="41.3682233" lon="15.564755"><ele>100.0</ele><time>2026-04-19T17:08:48.996Z</time></trkpt><trkpt lat="41.3680583" lon="15.5647633"><ele>100.66666666666667</ele><time>2026-04-19T17:08:49.997Z</time></trkpt><trkpt lat="41.3678967" lon="15.564765"><ele>101.33333333333334</ele><time>2026-04-19T17:08:50.996Z</time></trkpt><trkpt lat="41.3677367" lon="15.5647683"><ele>102.0</ele><time>2026-04-19T17:08:51.997Z</time></trkpt><trkpt lat="41.367575" lon="15.5647783"><ele>102.0</ele><time>2026-04-19T17:08:52.997Z</time></trkpt><trkpt lat="41.3674133" lon="15.5647833"><ele>102.0</ele><time>2026-04-19T17:08:53.997Z</time></trkpt><trkpt lat="41.3672533" lon="15.5647883"><ele>102.0</ele><time>2026-04-19T17:08:54.996Z</time></trkpt><trkpt lat="41.3670983" lon="15.5647967"><ele>101.66666666666666</ele><time>2026-04-19T17:08:55.996Z</time></trkpt><trkpt lat="41.366945" lon="15.5648017"><ele>101.33333333333333</ele><time>2026-04-19T17:08:56.996Z</time></trkpt><trkpt lat="41.3667933" lon="15.5648067"><ele>101.0</ele><time>2026-04-19T17:08:57.996Z</time></trkpt><trkpt lat="41.3666433" lon="15.56481"><ele>101.0</ele><time>2026-04-19T17:08:58.996Z</time></trkpt><trkpt lat="41.3664933" lon="15.5648167"><ele>101.0</ele><time>2026-04-19T17:08:59.996Z</time></trkpt><trkpt lat="41.3663433" lon="15.56482"><ele>101.0</ele><time>2026-04-19T17:09:00.996Z</time></trkpt><trkpt lat="41.3661933" lon="15.56482"><ele>101.0</ele><time>2026-04-19T17:09:01.996Z</time></trkpt><trkpt lat="41.3660417" lon="15.5648267"><ele>101.0</ele><time>2026-04-19T17:09:02.996Z</time></trkpt><trkpt lat="41.3658917" lon="15.56483"><ele>101.0</ele><time>2026-04-19T17:09:03.997Z</time></trkpt><trkpt lat="41.3657417" lon="15.5648333"><ele>101.0</ele><time>2026-04-19T17:09:04.996Z</time></trkpt><trkpt lat="41.3655917" lon="15.56484"><ele>101.0</ele><time>2026-04-19T17:09:05.996Z</time></trkpt><trkpt lat="41.3654433" lon="15.5648433"><ele>101.0</ele><time>2026-04-19T17:09:06.997Z</time></trkpt><trkpt lat="41.365295" lon="15.564845"><ele>101.0</ele><time>2026-04-19T17:09:07.996Z</time></trkpt><trkpt lat="41.3651467" lon="15.5648467"><ele>101.25</ele><time>2026-04-19T17:09:08.996Z</time></trkpt><trkpt lat="41.3649983" lon="15.5648433"><ele>101.5</ele><time>2026-04-19T17:09:09.997Z</time></trkpt><trkpt lat="41.36485" lon="15.5648433"><ele>101.75</ele><time>2026-04-19T17:09:10.996Z</time></trkpt><trkpt lat="41.3647017" lon="15.5648383"><ele>102.0</ele><time>2026-04-19T17:09:11.996Z</time></trkpt><trkpt lat="41.3645533" lon="15.5648417"><ele>102.25</ele><time>2026-04-19T17:09:12.996Z</time></trkpt><trkpt lat="41.364405" lon="15.56484"><ele>102.5</ele><time>2026-04-19T17:09:13.997Z</time></trkpt><trkpt lat="41.364255" lon="15.5648333"><ele>102.75</ele><time>2026-04-19T17:09:14.996Z</time></trkpt><trkpt lat="41.364105" lon="15.5648467"><ele>103.0</ele><time>2026-04-19T17:09:15.996Z</time></trkpt><trkpt lat="41.3639533" lon="15.5648467"><ele>103.0</ele><time>2026-04-19T17:09:16.996Z</time></trkpt><trkpt lat="41.3638017" lon="15.5648467"><ele>103.0</ele><time>2026-04-19T17:09:17.996Z</time></trkpt><trkpt lat="41.3636467" lon="15.5648467"><ele>103.0</ele><time>2026-04-19T17:09:18.997Z</time></trkpt><trkpt lat="41.3634917" lon="15.5648533"><ele>103.0</ele><time>2026-04-19T17:09:19.996Z</time></trkpt><trkpt lat="41.363335" lon="15.564855"><ele>103.0</ele><time>2026-04-19T17:09:20.996Z</time></trkpt><trkpt lat="41.3631783" lon="15.564855"><ele>103.0</ele><time>2026-04-19T17:09:21.996Z</time></trkpt><trkpt lat="41.36302" lon="15.5648567"><ele>102.33333333333334</ele><time>2026-04-19T17:09:22.996Z</time></trkpt><trkpt lat="41.36286" lon="15.56486"><ele>101.66666666666666</ele><time>2026-04-19T17:09:23.997Z</time></trkpt><trkpt lat="41.3627" lon="15.5648617"><ele>101.0</ele><time>2026-04-19T17:09:24.997Z</time></trkpt><trkpt lat="41.3625383" lon="15.56486"><ele>101.0</ele><time>2026-04-19T17:09:25.996Z</time></trkpt><trkpt lat="41.3623783" lon="15.5648583"><ele>101.0</ele><time>2026-04-19T17:09:26.996Z</time></trkpt><trkpt lat="41.3622167" lon="15.5648567"><ele>101.0</ele><time>2026-04-19T17:09:27.997Z</time></trkpt><trkpt lat="41.362055" lon="15.5648517"><ele>101.33333333333333</ele><time>2026-04-19T17:09:28.996Z</time></trkpt><trkpt lat="41.3618917" lon="15.56485"><ele>101.66666666666666</ele><time>2026-04-19T17:09:29.996Z</time></trkpt><trkpt lat="41.3617317" lon="15.5648483"><ele>102.0</ele><time>2026-04-19T17:09:30.996Z</time></trkpt><trkpt lat="41.3615733" lon="15.5648467"><ele>102.0</ele><time>2026-04-19T17:09:31.996Z</time></trkpt><trkpt lat="41.3614183" lon="15.564845"><ele>102.0</ele><time>2026-04-19T17:09:32.996Z</time></trkpt><trkpt lat="41.361265" lon="15.5648417"><ele>102.0</ele><time>2026-04-19T17:09:33.996Z</time></trkpt><trkpt lat="41.36111" lon="15.564835"><ele>102.0</ele><time>2026-04-19T17:09:34.997Z</time></trkpt><trkpt lat="41.360955" lon="15.5648317"><ele>102.0</ele><time>2026-04-19T17:09:35.996Z</time></trkpt><trkpt lat="41.3608017" lon="15.56483"><ele>102.0</ele><time>2026-04-19T17:09:36.996Z</time></trkpt><trkpt lat="41.3606483" lon="15.564825"><ele>101.0</ele><time>2026-04-19T17:09:37.997Z</time></trkpt><trkpt lat="41.360495" lon="15.5648233"><ele>100.0</ele><time>2026-04-19T17:09:38.997Z</time></trkpt><trkpt lat="41.3603417" lon="15.5648167"><ele>99.0</ele><time>2026-04-19T17:09:39.996Z</time></trkpt><trkpt lat="41.3601883" lon="15.5648083"><ele>99.0</ele><time>2026-04-19T17:09:40.996Z</time></trkpt><trkpt lat="41.360035" lon="15.5648033"><ele>99.0</ele><time>2026-04-19T17:09:41.996Z</time></trkpt><trkpt lat="41.35988" lon="15.5648017"><ele>99.0</ele><time>2026-04-19T17:09:42.996Z</time></trkpt><trkpt lat="41.359725" lon="15.5647983"><ele>98.66666666666666</ele><time>2026-04-19T17:09:43.996Z</time></trkpt><trkpt lat="41.3595717" lon="15.56479"><ele>98.33333333333333</ele><time>2026-04-19T17:09:44.996Z</time></trkpt><trkpt lat="41.35942" lon="15.5647917"><ele>98.0</ele><time>2026-04-19T17:09:45.996Z</time></trkpt><trkpt lat="41.35927" lon="15.5647917"><ele>98.0</ele><time>2026-04-19T17:09:46.996Z</time></trkpt><trkpt lat="41.3591183" lon="15.5647883"><ele>98.0</ele><time>2026-04-19T17:09:47.996Z</time></trkpt><trkpt lat="41.3589667" lon="15.5647833"><ele>98.0</ele><time>2026-04-19T17:09:48.996Z</time></trkpt><trkpt lat="41.3588117" lon="15.5647667"><ele>98.25</ele><time>2026-04-19T17:09:49.996Z</time></trkpt><trkpt lat="41.35866" lon="15.5647483"><ele>98.5</ele><time>2026-04-19T17:09:50.996Z</time></trkpt><trkpt lat="41.3585133" lon="15.5647433"><ele>98.75</ele><time>2026-04-19T17:09:51.996Z</time></trkpt><trkpt lat="41.3583717" lon="15.5647433"><ele>99.0</ele><time>2026-04-19T17:09:52.997Z</time></trkpt><trkpt lat="41.358235" lon="15.564735"><ele>99.0</ele><time>2026-04-19T17:09:53.996Z</time></trkpt><trkpt lat="41.3581067" lon="15.56473"><ele>99.0</ele><time>2026-04-19T17:09:54.996Z</time></trkpt><trkpt lat="41.3579817" lon="15.5647283"><ele>99.0</ele><time>2026-04-19T17:09:55.996Z</time></trkpt><trkpt lat="41.3578617" lon="15.5647233"><ele>99.0</ele><time>2026-04-19T17:09:56.996Z</time></trkpt><trkpt lat="41.35774" lon="15.564715"><ele>99.5</ele><time>2026-04-19T17:09:57.997Z</time></trkpt><trkpt lat="41.3576133" lon="15.5647083"><ele>100.0</ele><time>2026-04-19T17:09:58.996Z</time></trkpt><trkpt lat="41.3574833" lon="15.5647"><ele>100.5</ele><time>2026-04-19T17:09:59.996Z</time></trkpt><trkpt lat="41.3573467" lon="15.564695"><ele>101.0</ele><time>2026-04-19T17:10:00.996Z</time></trkpt><trkpt lat="41.357205" lon="15.56469"><ele>101.25</ele><time>2026-04-19T17:10:01.996Z</time></trkpt><trkpt lat="41.3570617" lon="15.56468"><ele>101.5</ele><time>2026-04-19T17:10:02.996Z</time></trkpt><trkpt lat="41.3569117" lon="15.5646717"><ele>101.75</ele><time>2026-04-19T17:10:03.997Z</time></trkpt><trkpt lat="41.3567617" lon="15.5646617"><ele>102.0</ele><time>2026-04-19T17:10:04.996Z</time></trkpt><trkpt lat="41.3566083" lon="15.5646517"><ele>102.0</ele><time>2026-04-19T17:10:05.996Z</time></trkpt><trkpt lat="41.3564533" lon="15.56464"><ele>102.0</ele><time>2026-04-19T17:10:06.996Z</time></trkpt><trkpt lat="41.3563" lon="15.5646267"><ele>102.0</ele><time>2026-04-19T17:10:07.996Z</time></trkpt><trkpt lat="41.3561433" lon="15.564615"><ele>102.33333333333334</ele><time>2026-04-19T17:10:08.997Z</time></trkpt><trkpt lat="41.3559833" lon="15.564605"><ele>102.66666666666667</ele><time>2026-04-19T17:10:09.996Z</time></trkpt><trkpt lat="41.3558233" lon="15.564595"><ele>103.0</ele><time>2026-04-19T17:10:10.996Z</time></trkpt><trkpt lat="41.355665" lon="15.5645833"><ele>103.66666666666667</ele><time>2026-04-19T17:10:11.996Z</time></trkpt><trkpt lat="41.3555083" lon="15.56457"><ele>104.33333333333334</ele><time>2026-04-19T17:10:12.997Z</time></trkpt><trkpt lat="41.3553517" lon="15.5645517"><ele>105.0</ele><time>2026-04-19T17:10:13.996Z</time></trkpt><trkpt lat="41.3551967" lon="15.56454"><ele>105.0</ele><time>2026-04-19T17:10:14.996Z</time></trkpt><trkpt lat="41.35504" lon="15.5645317"><ele>105.0</ele><time>2026-04-19T17:10:15.996Z</time></trkpt><trkpt lat="41.3548833" lon="15.5645217"><ele>105.0</ele><time>2026-04-19T17:10:16.997Z</time></trkpt><trkpt lat="41.3547317" lon="15.5645067"><ele>104.66666666666666</ele><time>2026-04-19T17:10:17.996Z</time></trkpt><trkpt lat="41.35458" lon="15.564495"><ele>104.33333333333333</ele><time>2026-04-19T17:10:18.996Z</time></trkpt><trkpt lat="41.35443" lon="15.5644817"><ele>104.0</ele><time>2026-04-19T17:10:19.997Z</time></trkpt><trkpt lat="41.35428" lon="15.5644717"><ele>104.0</ele><time>2026-04-19T17:10:20.996Z</time></trkpt><trkpt lat="41.3541283" lon="15.564465"><ele>104.0</ele><time>2026-04-19T17:10:21.996Z</time></trkpt><trkpt lat="41.3539767" lon="15.5644483"><ele>104.0</ele><time>2026-04-19T17:10:22.997Z</time></trkpt><trkpt lat="41.3538233" lon="15.5644333"><ele>104.33333333333333</ele><time>2026-04-19T17:10:23.996Z</time></trkpt><trkpt lat="41.3536667" lon="15.5644233"><ele>104.66666666666666</ele><time>2026-04-19T17:10:24.996Z</time></trkpt><trkpt lat="41.35351" lon="15.5644117"><ele>105.0</ele><time>2026-04-19T17:10:25.996Z</time></trkpt><trkpt lat="41.35335" lon="15.5643933"><ele>105.0</ele><time>2026-04-19T17:10:26.996Z</time></trkpt><trkpt lat="41.3531917" lon="15.564375"><ele>105.0</ele><time>2026-04-19T17:10:27.996Z</time></trkpt><trkpt lat="41.353035" lon="15.5643583"><ele>105.0</ele><time>2026-04-19T17:10:28.996Z</time></trkpt><trkpt lat="41.3528817" lon="15.564345"><ele>105.0</ele><time>2026-04-19T17:10:29.996Z</time></trkpt><trkpt lat="41.352725" lon="15.56433"><ele>105.0</ele><time>2026-04-19T17:10:30.997Z</time></trkpt><trkpt lat="41.3525683" lon="15.5643117"><ele>105.0</ele><time>2026-04-19T17:10:31.996Z</time></trkpt><trkpt lat="41.3524083" lon="15.5642933"><ele>105.0</ele><time>2026-04-19T17:10:32.996Z</time></trkpt><trkpt lat="41.3522483" lon="15.5642767"><ele>105.0</ele><time>2026-04-19T17:10:33.996Z</time></trkpt><trkpt lat="41.3520867" lon="15.5642567"><ele>105.0</ele><time>2026-04-19T17:10:34.996Z</time></trkpt><trkpt lat="41.3519217" lon="15.5642367"><ele>105.0</ele><time>2026-04-19T17:10:35.997Z</time></trkpt><trkpt lat="41.3517533" lon="15.5642167"><ele>105.0</ele><time>2026-04-19T17:10:36.996Z</time></trkpt><trkpt lat="41.3515867" lon="15.5641983"><ele>105.0</ele><time>2026-04-19T17:10:37.997Z</time></trkpt><trkpt lat="41.35142" lon="15.5641783"><ele>105.33333333333334</ele><time>2026-04-19T17:10:38.996Z</time></trkpt><trkpt lat="41.35125" lon="15.564155"><ele>105.66666666666667</ele><time>2026-04-19T17:10:39.996Z</time></trkpt><trkpt lat="41.3510817" lon="15.5641383"><ele>106.0</ele><time>2026-04-19T17:10:40.997Z</time></trkpt><trkpt lat="41.3509133" lon="15.5641217"><ele>106.0</ele><time>2026-04-19T17:10:41.996Z</time></trkpt><trkpt lat="41.3507483" lon="15.564105"><ele>106.0</ele><time>2026-04-19T17:10:42.996Z</time></trkpt><trkpt lat="41.3505817" lon="15.5640883"><ele>106.0</ele><time>2026-04-19T17:10:43.996Z</time></trkpt><trkpt lat="41.3504183" lon="15.56407"><ele>106.33333333333334</ele><time>2026-04-19T17:10:44.996Z</time></trkpt><trkpt lat="41.350255" lon="15.5640517"><ele>106.66666666666666</ele><time>2026-04-19T17:10:45.996Z</time></trkpt><trkpt lat="41.3500933" lon="15.5640333"><ele>107.0</ele><time>2026-04-19T17:10:46.996Z</time></trkpt><trkpt lat="41.3499317" lon="15.564015"><ele>107.0</ele><time>2026-04-19T17:10:47.996Z</time></trkpt><trkpt lat="41.3497717" lon="15.563995"><ele>107.0</ele><time>2026-04-19T17:10:48.996Z</time></trkpt><trkpt lat="41.3496133" lon="15.5639783"><ele>107.0</ele><time>2026-04-19T17:10:49.996Z</time></trkpt><trkpt lat="41.3494567" lon="15.56396"><ele>106.66666666666666</ele><time>2026-04-19T17:10:50.996Z</time></trkpt><trkpt lat="41.3493033" lon="15.5639433"><ele>106.33333333333334</ele><time>2026-04-19T17:10:51.996Z</time></trkpt><trkpt lat="41.3491533" lon="15.5639267"><ele>106.0</ele><time>2026-04-19T17:10:52.996Z</time></trkpt><trkpt lat="41.349005" lon="15.5639067"><ele>106.5</ele><time>2026-04-19T17:10:53.996Z</time></trkpt><trkpt lat="41.3488583" lon="15.56389"><ele>107.0</ele><time>2026-04-19T17:10:54.996Z</time></trkpt><trkpt lat="41.3487083" lon="15.563875"><ele>107.5</ele><time>2026-04-19T17:10:55.996Z</time></trkpt><trkpt lat="41.34856" lon="15.5638583"><ele>108.0</ele><time>2026-04-19T17:10:56.997Z</time></trkpt><trkpt lat="41.3484117" lon="15.5638367"><ele>108.0</ele><time>2026-04-19T17:10:57.997Z</time></trkpt><trkpt lat="41.3482633" lon="15.5638217"><ele>108.0</ele><time>2026-04-19T17:10:58.996Z</time></trkpt><trkpt lat="41.3481117" lon="15.5638067"><ele>108.0</ele><time>2026-04-19T17:10:59.996Z</time></trkpt><trkpt lat="41.34796" lon="15.5637883"><ele>107.66666666666666</ele><time>2026-04-19T17:11:00.996Z</time></trkpt><trkpt lat="41.3478067" lon="15.5637683"><ele>107.33333333333333</ele><time>2026-04-19T17:11:01.996Z</time></trkpt><trkpt lat="41.34765" lon="15.5637517"><ele>107.0</ele><time>2026-04-19T17:11:02.996Z</time></trkpt><trkpt lat="41.3474917" lon="15.5637333"><ele>107.0</ele><time>2026-04-19T17:11:03.996Z</time></trkpt><trkpt lat="41.3473283" lon="15.5637167"><ele>107.0</ele><time>2026-04-19T17:11:04.996Z</time></trkpt><trkpt lat="41.3471667" lon="15.5636983"><ele>107.0</ele><time>2026-04-19T17:11:05.996Z</time></trkpt><trkpt lat="41.3470033" lon="15.563675"><ele>107.0</ele><time>2026-04-19T17:11:06.996Z</time></trkpt><trkpt lat="41.3468383" lon="15.5636517"><ele>107.0</ele><time>2026-04-19T17:11:07.996Z</time></trkpt><trkpt lat="41.3466717" lon="15.5636283"><ele>107.0</ele><time>2026-04-19T17:11:08.996Z</time></trkpt><trkpt lat="41.346505" lon="15.5636033"><ele>107.33333333333333</ele><time>2026-04-19T17:11:09.997Z</time></trkpt><trkpt lat="41.34634" lon="15.5635767"><ele>107.66666666666666</ele><time>2026-04-19T17:11:10.996Z</time></trkpt><trkpt lat="41.3461733" lon="15.56355"><ele>108.0</ele><time>2026-04-19T17:11:11.996Z</time></trkpt><trkpt lat="41.3460133" lon="15.56353"><ele>108.0</ele><time>2026-04-19T17:11:12.997Z</time></trkpt><trkpt lat="41.3458533" lon="15.5635117"><ele>108.0</ele><time>2026-04-19T17:11:13.996Z</time></trkpt><trkpt lat="41.345695" lon="15.563485"><ele>108.0</ele><time>2026-04-19T17:11:14.996Z</time></trkpt><trkpt lat="41.3455367" lon="15.5634567"><ele>108.66666666666666</ele><time>2026-04-19T17:11:15.996Z</time></trkpt><trkpt lat="41.3453767" lon="15.56343"><ele>109.33333333333333</ele><time>2026-04-19T17:11:16.997Z</time></trkpt><trkpt lat="41.3452167" lon="15.5634033"><ele>110.0</ele><time>2026-04-19T17:11:17.996Z</time></trkpt><trkpt lat="41.3450533" lon="15.56338"><ele>110.0</ele><time>2026-04-19T17:11:18.996Z</time></trkpt><trkpt lat="41.3448883" lon="15.563365"><ele>110.0</ele><time>2026-04-19T17:11:19.996Z</time></trkpt><trkpt lat="41.3447233" lon="15.5633383"><ele>110.0</ele><time>2026-04-19T17:11:20.997Z</time></trkpt><trkpt lat="41.34456" lon="15.5633"><ele>110.0</ele><time>2026-04-19T17:11:21.997Z</time></trkpt><trkpt lat="41.344395" lon="15.5632767"><ele>110.0</ele><time>2026-04-19T17:11:22.996Z</time></trkpt><trkpt lat="41.3442317" lon="15.563245"><ele>110.0</ele><time>2026-04-19T17:11:23.996Z</time></trkpt><trkpt lat="41.3440717" lon="15.5632183"><ele>110.0</ele><time>2026-04-19T17:11:24.996Z</time></trkpt><trkpt lat="41.3439167" lon="15.5631967"><ele>110.0</ele><time>2026-04-19T17:11:25.996Z</time></trkpt><trkpt lat="41.3437633" lon="15.56317"><ele>110.0</ele><time>2026-04-19T17:11:26.996Z</time></trkpt><trkpt lat="41.34361" lon="15.5631433"><ele>109.66666666666666</ele><time>2026-04-19T17:11:27.996Z</time></trkpt><trkpt lat="41.3434567" lon="15.563125"><ele>109.33333333333334</ele><time>2026-04-19T17:11:28.997Z</time></trkpt><trkpt lat="41.3433033" lon="15.563105"><ele>109.0</ele><time>2026-04-19T17:11:29.996Z</time></trkpt><trkpt lat="41.3431533" lon="15.56308"><ele>109.0</ele><time>2026-04-19T17:11:30.996Z</time></trkpt><trkpt lat="41.3430033" lon="15.5630567"><ele>109.0</ele><time>2026-04-19T17:11:31.996Z</time></trkpt><trkpt lat="41.3428567" lon="15.563035"><ele>109.0</ele><time>2026-04-19T17:11:32.996Z</time></trkpt><trkpt lat="41.342715" lon="15.5630083"><ele>109.0</ele><time>2026-04-19T17:11:33.997Z</time></trkpt><trkpt lat="41.342575" lon="15.56298"><ele>109.0</ele><time>2026-04-19T17:11:34.996Z</time></trkpt><trkpt lat="41.3424333" lon="15.5629567"><ele>109.0</ele><time>2026-04-19T17:11:35.996Z</time></trkpt><trkpt lat="41.34229" lon="15.5629317"><ele>109.0</ele><time>2026-04-19T17:11:36.996Z</time></trkpt><trkpt lat="41.342145" lon="15.5629033"><ele>109.0</ele><time>2026-04-19T17:11:37.997Z</time></trkpt><trkpt lat="41.3419933" lon="15.562875"><ele>109.0</ele><time>2026-04-19T17:11:38.997Z</time></trkpt><trkpt lat="41.34184" lon="15.56285"><ele>109.0</ele><time>2026-04-19T17:11:39.997Z</time></trkpt><trkpt lat="41.3416833" lon="15.5628283"><ele>109.0</ele><time>2026-04-19T17:11:40.996Z</time></trkpt><trkpt lat="41.3415233" lon="15.5628"><ele>109.33333333333334</ele><time>2026-04-19T17:11:41.996Z</time></trkpt><trkpt lat="41.34136" lon="15.5627733"><ele>109.66666666666666</ele><time>2026-04-19T17:11:42.997Z</time></trkpt><trkpt lat="41.341195" lon="15.5627467"><ele>110.0</ele><time>2026-04-19T17:11:43.997Z</time></trkpt><trkpt lat="41.3410383" lon="15.5627233"><ele>110.0</ele><time>2026-04-19T17:11:44.996Z</time></trkpt><trkpt lat="41.340885" lon="15.5627"><ele>110.0</ele><time>2026-04-19T17:11:45.996Z</time></trkpt><trkpt lat="41.3407333" lon="15.5626717"><ele>110.0</ele><time>2026-04-19T17:11:46.996Z</time></trkpt><trkpt lat="41.3405817" lon="15.562645"><ele>110.33333333333333</ele><time>2026-04-19T17:11:47.996Z</time></trkpt><trkpt lat="41.34043" lon="15.56262"><ele>110.66666666666666</ele><time>2026-04-19T17:11:48.996Z</time></trkpt><trkpt lat="41.3402767" lon="15.5625967"><ele>111.0</ele><time>2026-04-19T17:11:49.996Z</time></trkpt><trkpt lat="41.340125" lon="15.5625667"><ele>111.0</ele><time>2026-04-19T17:11:50.996Z</time></trkpt><trkpt lat="41.3399733" lon="15.5625367"><ele>111.0</ele><time>2026-04-19T17:11:51.996Z</time></trkpt><trkpt lat="41.3398183" lon="15.56251"><ele>111.0</ele><time>2026-04-19T17:11:52.996Z</time></trkpt><trkpt lat="41.33966" lon="15.5624817"><ele>111.66666666666666</ele><time>2026-04-19T17:11:53.996Z</time></trkpt><trkpt lat="41.3395017" lon="15.5624533"><ele>112.33333333333333</ele><time>2026-04-19T17:11:54.997Z</time></trkpt><trkpt lat="41.3393433" lon="15.562425"><ele>113.0</ele><time>2026-04-19T17:11:55.996Z</time></trkpt><trkpt lat="41.339185" lon="15.5624"><ele>113.0</ele><time>2026-04-19T17:11:56.997Z</time></trkpt><trkpt lat="41.3390267" lon="15.562375"><ele>113.0</ele><time>2026-04-19T17:11:57.996Z</time></trkpt><trkpt lat="41.3388667" lon="15.5623467"><ele>113.0</ele><time>2026-04-19T17:11:58.997Z</time></trkpt><trkpt lat="41.3387083" lon="15.56232"><ele>115.0</ele><time>2026-04-19T17:11:59.996Z</time></trkpt><trkpt lat="41.33855" lon="15.56229"><ele>117.0</ele><time>2026-04-19T17:12:00.996Z</time></trkpt><trkpt lat="41.3383917" lon="15.5622633"><ele>119.0</ele><time>2026-04-19T17:12:01.996Z</time></trkpt><trkpt lat="41.3382317" lon="15.5622333"><ele>119.0</ele><time>2026-04-19T17:12:02.996Z</time></trkpt><trkpt lat="41.338075" lon="15.5622067"><ele>119.0</ele><time>2026-04-19T17:12:03.997Z</time></trkpt><trkpt lat="41.337915" lon="15.56218"><ele>119.0</ele><time>2026-04-19T17:12:04.997Z</time></trkpt><trkpt lat="41.337755" lon="15.56215"><ele>120.33333333333333</ele><time>2026-04-19T17:12:05.996Z</time></trkpt><trkpt lat="41.337595" lon="15.5621217"><ele>121.66666666666666</ele><time>2026-04-19T17:12:06.996Z</time></trkpt><trkpt lat="41.337435" lon="15.5620933"><ele>123.0</ele><time>2026-04-19T17:12:07.997Z</time></trkpt><trkpt lat="41.3372767" lon="15.5620683"><ele>123.33333333333334</ele><time>2026-04-19T17:12:08.996Z</time></trkpt><trkpt lat="41.3371183" lon="15.5620417"><ele>123.66666666666667</ele><time>2026-04-19T17:12:09.996Z</time></trkpt><trkpt lat="41.33696" lon="15.56201"><ele>124.0</ele><time>2026-04-19T17:12:10.996Z</time></trkpt><trkpt lat="41.3367983" lon="15.5619817"><ele>124.0</ele><time>2026-04-19T17:12:11.996Z</time></trkpt><trkpt lat="41.336635" lon="15.561955"><ele>124.0</ele><time>2026-04-19T17:12:12.996Z</time></trkpt><trkpt lat="41.336475" lon="15.5619283"><ele>124.0</ele><time>2026-04-19T17:12:13.997Z</time></trkpt><trkpt lat="41.3363133" lon="15.5619033"><ele>125.0</ele><time>2026-04-19T17:12:14.996Z</time></trkpt><trkpt lat="41.3361533" lon="15.56187"><ele>126.0</ele><time>2026-04-19T17:12:15.996Z</time></trkpt><trkpt lat="41.3359917" lon="15.5618467"><ele>127.0</ele><time>2026-04-19T17:12:16.996Z</time></trkpt><trkpt lat="41.33583" lon="15.56182"><ele>127.0</ele><time>2026-04-19T17:12:17.997Z</time></trkpt><trkpt lat="41.3356717" lon="15.5617917"><ele>127.0</ele><time>2026-04-19T17:12:18.997Z</time></trkpt><trkpt lat="41.33551" lon="15.561765"><ele>127.0</ele><time>2026-04-19T17:12:19.997Z</time></trkpt><trkpt lat="41.33535" lon="15.5617383"><ele>128.0</ele><time>2026-04-19T17:12:20.996Z</time></trkpt><trkpt lat="41.33519" lon="15.5617133"><ele>129.0</ele><time>2026-04-19T17:12:21.996Z</time></trkpt><trkpt lat="41.33503" lon="15.5616867"><ele>130.0</ele><time>2026-04-19T17:12:22.997Z</time></trkpt><trkpt lat="41.3348683" lon="15.5616533"><ele>131.0</ele><time>2026-04-19T17:12:23.997Z</time></trkpt><trkpt lat="41.33471" lon="15.5616267"><ele>132.0</ele><time>2026-04-19T17:12:24.996Z</time></trkpt><trkpt lat="41.3345483" lon="15.5616083"><ele>133.0</ele><time>2026-04-19T17:12:25.997Z</time></trkpt><trkpt lat="41.3343883" lon="15.56159"><ele>133.0</ele><time>2026-04-19T17:12:26.996Z</time></trkpt><trkpt lat="41.3342333" lon="15.56156"><ele>133.0</ele><time>2026-04-19T17:12:27.996Z</time></trkpt><trkpt lat="41.3340833" lon="15.5615283"><ele>133.0</ele><time>2026-04-19T17:12:28.996Z</time></trkpt><trkpt lat="41.333935" lon="15.5615"><ele>133.5</ele><time>2026-04-19T17:12:29.996Z</time></trkpt><trkpt lat="41.33379" lon="15.5614733"><ele>134.0</ele><time>2026-04-19T17:12:30.996Z</time></trkpt><trkpt lat="41.3336467" lon="15.561445"><ele>134.5</ele><time>2026-04-19T17:12:31.996Z</time></trkpt><trkpt lat="41.333505" lon="15.5614183"><ele>135.0</ele><time>2026-04-19T17:12:32.996Z</time></trkpt><trkpt lat="41.3333583" lon="15.5613917"><ele>135.0</ele><time>2026-04-19T17:12:33.997Z</time></trkpt><trkpt lat="41.3332067" lon="15.5613633"><ele>135.0</ele><time>2026-04-19T17:12:34.996Z</time></trkpt><trkpt lat="41.3330567" lon="15.5613417"><ele>135.0</ele><time>2026-04-19T17:12:35.996Z</time></trkpt><trkpt lat="41.3329067" lon="15.5613167"><ele>135.0</ele><time>2026-04-19T17:12:36.997Z</time></trkpt><trkpt lat="41.3327567" lon="15.561295"><ele>135.0</ele><time>2026-04-19T17:12:37.996Z</time></trkpt><trkpt lat="41.3326033" lon="15.5612683"><ele>135.0</ele><time>2026-04-19T17:12:38.996Z</time></trkpt><trkpt lat="41.33245" lon="15.5612433"><ele>135.0</ele><time>2026-04-19T17:12:39.996Z</time></trkpt><trkpt lat="41.3323" lon="15.5612167"><ele>135.0</ele><time>2026-04-19T17:12:40.996Z</time></trkpt><trkpt lat="41.3321483" lon="15.5611883"><ele>135.0</ele><time>2026-04-19T17:12:41.996Z</time></trkpt><trkpt lat="41.3319967" lon="15.5611617"><ele>136.33333333333334</ele><time>2026-04-19T17:12:42.996Z</time></trkpt><trkpt lat="41.3318433" lon="15.5611367"><ele>137.66666666666669</ele><time>2026-04-19T17:12:43.996Z</time></trkpt><trkpt lat="41.33169" lon="15.5611067"><ele>139.0</ele><time>2026-04-19T17:12:44.996Z</time></trkpt><trkpt lat="41.331535" lon="15.56108"><ele>138.66666666666669</ele><time>2026-04-19T17:12:45.996Z</time></trkpt><trkpt lat="41.33138" lon="15.5610467"><ele>138.33333333333334</ele><time>2026-04-19T17:12:46.996Z</time></trkpt><trkpt lat="41.3312233" lon="15.5610183"><ele>138.0</ele><time>2026-04-19T17:12:47.997Z</time></trkpt><trkpt lat="41.3310617" lon="15.5609933"><ele>138.0</ele><time>2026-04-19T17:12:48.996Z</time></trkpt><trkpt lat="41.3308983" lon="15.560965"><ele>138.0</ele><time>2026-04-19T17:12:49.996Z</time></trkpt><trkpt lat="41.3307333" lon="15.56094"><ele>138.0</ele><time>2026-04-19T17:12:50.996Z</time></trkpt><trkpt lat="41.3305667" lon="15.56091"><ele>138.33333333333334</ele><time>2026-04-19T17:12:51.997Z</time></trkpt><trkpt lat="41.3303983" lon="15.5608783"><ele>138.66666666666669</ele><time>2026-04-19T17:12:52.996Z</time></trkpt><trkpt lat="41.33023" lon="15.5608483"><ele>139.0</ele><time>2026-04-19T17:12:53.996Z</time></trkpt><trkpt lat="41.3300617" lon="15.5608217"><ele>139.0</ele><time>2026-04-19T17:12:54.996Z</time></trkpt><trkpt lat="41.32989" lon="15.5607917"><ele>139.0</ele><time>2026-04-19T17:12:55.996Z</time></trkpt><trkpt lat="41.32972" lon="15.5607633"><ele>139.0</ele><time>2026-04-19T17:12:56.996Z</time></trkpt><trkpt lat="41.3295533" lon="15.5607317"><ele>139.0</ele><time>2026-04-19T17:12:57.996Z</time></trkpt><trkpt lat="41.32939" lon="15.5607033"><ele>139.0</ele><time>2026-04-19T17:12:58.996Z</time></trkpt><trkpt lat="41.32923" lon="15.5606783"><ele>139.0</ele><time>2026-04-19T17:12:59.996Z</time></trkpt><trkpt lat="41.329075" lon="15.5606517"><ele>139.0</ele><time>2026-04-19T17:13:00.996Z</time></trkpt><trkpt lat="41.3289217" lon="15.5606267"><ele>139.0</ele><time>2026-04-19T17:13:01.996Z</time></trkpt><trkpt lat="41.3287683" lon="15.5606017"><ele>139.0</ele><time>2026-04-19T17:13:02.997Z</time></trkpt><trkpt lat="41.328615" lon="15.5605817"><ele>140.0</ele><time>2026-04-19T17:13:03.996Z</time></trkpt><trkpt lat="41.3284633" lon="15.560555"><ele>141.0</ele><time>2026-04-19T17:13:04.996Z</time></trkpt><trkpt lat="41.3283133" lon="15.5605267"><ele>142.0</ele><time>2026-04-19T17:13:05.996Z</time></trkpt><trkpt lat="41.32816" lon="15.5605033"><ele>142.0</ele><time>2026-04-19T17:13:06.997Z</time></trkpt><trkpt lat="41.3280067" lon="15.5604767"><ele>142.0</ele><time>2026-04-19T17:13:07.996Z</time></trkpt><trkpt lat="41.3278533" lon="15.56045"><ele>142.0</ele><time>2026-04-19T17:13:08.996Z</time></trkpt><trkpt lat="41.327695" lon="15.5604267"><ele>142.0</ele><time>2026-04-19T17:13:09.996Z</time></trkpt><trkpt lat="41.3275383" lon="15.5603983"><ele>142.0</ele><time>2026-04-19T17:13:10.996Z</time></trkpt><trkpt lat="41.32738" lon="15.560365"><ele>142.0</ele><time>2026-04-19T17:13:11.996Z</time></trkpt><trkpt lat="41.32722" lon="15.5603367"><ele>143.0</ele><time>2026-04-19T17:13:12.996Z</time></trkpt><trkpt lat="41.3270583" lon="15.5603083"><ele>144.0</ele><time>2026-04-19T17:13:13.996Z</time></trkpt><trkpt lat="41.3268967" lon="15.5602833"><ele>145.0</ele><time>2026-04-19T17:13:14.996Z</time></trkpt><trkpt lat="41.3267333" lon="15.5602583"><ele>145.0</ele><time>2026-04-19T17:13:15.996Z</time></trkpt><trkpt lat="41.3265717" lon="15.5602317"><ele>145.0</ele><time>2026-04-19T17:13:16.997Z</time></trkpt><trkpt lat="41.3264117" lon="15.5602033"><ele>145.0</ele><time>2026-04-19T17:13:17.996Z</time></trkpt><trkpt lat="41.326255" lon="15.5601783"><ele>145.33333333333334</ele><time>2026-04-19T17:13:18.996Z</time></trkpt><trkpt lat="41.3261033" lon="15.5601517"><ele>145.66666666666666</ele><time>2026-04-19T17:13:19.996Z</time></trkpt><trkpt lat="41.3259533" lon="15.5601267"><ele>146.0</ele><time>2026-04-19T17:13:20.996Z</time></trkpt><trkpt lat="41.3258083" lon="15.560105"><ele>146.0</ele><time>2026-04-19T17:13:21.996Z</time></trkpt><trkpt lat="41.325665" lon="15.5600833"><ele>146.0</ele><time>2026-04-19T17:13:22.996Z</time></trkpt><trkpt lat="41.3255283" lon="15.5600583"><ele>146.0</ele><time>2026-04-19T17:13:23.996Z</time></trkpt><trkpt lat="41.325395" lon="15.5600333"><ele>146.0</ele><time>2026-04-19T17:13:24.996Z</time></trkpt><trkpt lat="41.325265" lon="15.5600067"><ele>146.0</ele><time>2026-04-19T17:13:25.996Z</time></trkpt><trkpt lat="41.3251333" lon="15.559985"><ele>146.0</ele><time>2026-04-19T17:13:26.996Z</time></trkpt><trkpt lat="41.325" lon="15.55996"><ele>146.0</ele><time>2026-04-19T17:13:27.996Z</time></trkpt><trkpt lat="41.3248617" lon="15.5599383"><ele>146.0</ele><time>2026-04-19T17:13:28.996Z</time></trkpt><trkpt lat="41.32472" lon="15.559915"><ele>147.33333333333331</ele><time>2026-04-19T17:13:29.996Z</time></trkpt><trkpt lat="41.3245733" lon="15.5598883"><ele>148.66666666666666</ele><time>2026-04-19T17:13:30.996Z</time></trkpt><trkpt lat="41.3244233" lon="15.55986"><ele>150.0</ele><time>2026-04-19T17:13:31.996Z</time></trkpt><trkpt lat="41.3242683" lon="15.55983"><ele>150.0</ele><time>2026-04-19T17:13:32.997Z</time></trkpt><trkpt lat="41.3241133" lon="15.5598083"><ele>150.0</ele><time>2026-04-19T17:13:33.996Z</time></trkpt><trkpt lat="41.323955" lon="15.5597867"><ele>150.0</ele><time>2026-04-19T17:13:34.996Z</time></trkpt><trkpt lat="41.3237967" lon="15.55976"><ele>150.33333333333334</ele><time>2026-04-19T17:13:35.996Z</time></trkpt><trkpt lat="41.3236383" lon="15.5597317"><ele>150.66666666666669</ele><time>2026-04-19T17:13:36.996Z</time></trkpt><trkpt lat="41.3234767" lon="15.5597083"><ele>151.0</ele><time>2026-04-19T17:13:37.996Z</time></trkpt><trkpt lat="41.323315" lon="15.55968"><ele>151.0</ele><time>2026-04-19T17:13:38.996Z</time></trkpt><trkpt lat="41.323155" lon="15.5596533"><ele>151.0</ele><time>2026-04-19T17:13:39.996Z</time></trkpt><trkpt lat="41.3229933" lon="15.5596233"><ele>151.0</ele><time>2026-04-19T17:13:40.996Z</time></trkpt><trkpt lat="41.3228333" lon="15.559595"><ele>151.0</ele><time>2026-04-19T17:13:41.996Z</time></trkpt><trkpt lat="41.3226717" lon="15.5595633"><ele>151.0</ele><time>2026-04-19T17:13:42.996Z</time></trkpt><trkpt lat="41.3225133" lon="15.5595367"><ele>151.0</ele><time>2026-04-19T17:13:43.996Z</time></trkpt><trkpt lat="41.3223567" lon="15.559505"><ele>152.66666666666669</ele><time>2026-04-19T17:13:44.997Z</time></trkpt><trkpt lat="41.3221983" lon="15.5594717"><ele>154.33333333333334</ele><time>2026-04-19T17:13:45.996Z</time></trkpt><trkpt lat="41.32204" lon="15.5594417"><ele>156.0</ele><time>2026-04-19T17:13:46.996Z</time></trkpt><trkpt lat="41.32188" lon="15.5594083"><ele>156.0</ele><time>2026-04-19T17:13:47.996Z</time></trkpt><trkpt lat="41.32172" lon="15.5593783"><ele>156.0</ele><time>2026-04-19T17:13:48.996Z</time></trkpt><trkpt lat="41.3215617" lon="15.5593483"><ele>156.0</ele><time>2026-04-19T17:13:49.996Z</time></trkpt><trkpt lat="41.3214017" lon="15.559315"><ele>156.33333333333334</ele><time>2026-04-19T17:13:50.996Z</time></trkpt><trkpt lat="41.3212433" lon="15.5592833"><ele>156.66666666666669</ele><time>2026-04-19T17:13:51.996Z</time></trkpt><trkpt lat="41.3210867" lon="15.5592517"><ele>157.0</ele><time>2026-04-19T17:13:52.997Z</time></trkpt><trkpt lat="41.3209317" lon="15.5592217"><ele>157.0</ele><time>2026-04-19T17:13:53.996Z</time></trkpt><trkpt lat="41.3207783" lon="15.5591917"><ele>157.0</ele><time>2026-04-19T17:13:54.996Z</time></trkpt><trkpt lat="41.320625" lon="15.5591583"><ele>157.0</ele><time>2026-04-19T17:13:55.996Z</time></trkpt><trkpt lat="41.3204717" lon="15.559125"><ele>157.33333333333334</ele><time>2026-04-19T17:13:56.996Z</time></trkpt><trkpt lat="41.3203183" lon="15.55909"><ele>157.66666666666666</ele><time>2026-04-19T17:13:57.996Z</time></trkpt><trkpt lat="41.3201683" lon="15.559055"><ele>158.0</ele><time>2026-04-19T17:13:58.996Z</time></trkpt><trkpt lat="41.320025" lon="15.559025"><ele>158.0</ele><time>2026-04-19T17:13:59.996Z</time></trkpt><trkpt lat="41.31988" lon="15.55899"><ele>158.0</ele><time>2026-04-19T17:14:00.997Z</time></trkpt><trkpt lat="41.319735" lon="15.5589533"><ele>158.0</ele><time>2026-04-19T17:14:01.996Z</time></trkpt><trkpt lat="41.3195867" lon="15.5589133"><ele>158.0</ele><time>2026-04-19T17:14:02.996Z</time></trkpt><trkpt lat="41.319435" lon="15.55888"><ele>158.66666666666666</ele><time>2026-04-19T17:14:03.996Z</time></trkpt><trkpt lat="41.3192817" lon="15.558845"><ele>159.33333333333334</ele><time>2026-04-19T17:14:04.996Z</time></trkpt><trkpt lat="41.3191267" lon="15.5588083"><ele>160.0</ele><time>2026-04-19T17:14:05.996Z</time></trkpt><trkpt lat="41.3189717" lon="15.5587733"><ele>160.0</ele><time>2026-04-19T17:14:06.997Z</time></trkpt><trkpt lat="41.3188167" lon="15.5587367"><ele>160.0</ele><time>2026-04-19T17:14:07.996Z</time></trkpt><trkpt lat="41.3186683" lon="15.5587017"><ele>160.0</ele><time>2026-04-19T17:14:08.996Z</time></trkpt><trkpt lat="41.318525" lon="15.5586667"><ele>160.0</ele><time>2026-04-19T17:14:09.996Z</time></trkpt><trkpt lat="41.3183833" lon="15.558635"><ele>160.0</ele><time>2026-04-19T17:14:10.996Z</time></trkpt><trkpt lat="41.3182467" lon="15.5586017"><ele>160.0</ele><time>2026-04-19T17:14:11.996Z</time></trkpt><trkpt lat="41.3181167" lon="15.5585733"><ele>160.0</ele><time>2026-04-19T17:14:12.996Z</time></trkpt><trkpt lat="41.3179933" lon="15.5585467"><ele>160.0</ele><time>2026-04-19T17:14:13.997Z</time></trkpt><trkpt lat="41.317875" lon="15.55852"><ele>160.0</ele><time>2026-04-19T17:14:14.996Z</time></trkpt><trkpt lat="41.3177583" lon="15.5584867"><ele>160.0</ele><time>2026-04-19T17:14:15.996Z</time></trkpt><trkpt lat="41.3176383" lon="15.5584533"><ele>160.0</ele><time>2026-04-19T17:14:16.996Z</time></trkpt><trkpt lat="41.317515" lon="15.5584183"><ele>160.0</ele><time>2026-04-19T17:14:17.996Z</time></trkpt><trkpt lat="41.3173867" lon="15.5583883"><ele>160.0</ele><time>2026-04-19T17:14:18.996Z</time></trkpt><trkpt lat="41.3172533" lon="15.5583617"><ele>160.0</ele><time>2026-04-19T17:14:19.996Z</time></trkpt><trkpt lat="41.3171183" lon="15.55833"><ele>160.0</ele><time>2026-04-19T17:14:20.996Z</time></trkpt><trkpt lat="41.316985" lon="15.5582933"><ele>159.5</ele><time>2026-04-19T17:14:21.997Z</time></trkpt><trkpt lat="41.316855" lon="15.5582633"><ele>159.0</ele><time>2026-04-19T17:14:22.996Z</time></trkpt><trkpt lat="41.3167317" lon="15.5582367"><ele>158.5</ele><time>2026-04-19T17:14:23.996Z</time></trkpt><trkpt lat="41.3166117" lon="15.55821"><ele>158.0</ele><time>2026-04-19T17:14:24.996Z</time></trkpt><trkpt lat="41.3164917" lon="15.5581833"><ele>157.5</ele><time>2026-04-19T17:14:25.996Z</time></trkpt><trkpt lat="41.3163667" lon="15.55815"><ele>157.0</ele><time>2026-04-19T17:14:26.996Z</time></trkpt><trkpt lat="41.3162383" lon="15.5581183"><ele>156.5</ele><time>2026-04-19T17:14:27.996Z</time></trkpt><trkpt lat="41.3161083" lon="15.558085"><ele>156.0</ele><time>2026-04-19T17:14:28.996Z</time></trkpt><trkpt lat="41.3159733" lon="15.558055"><ele>156.0</ele><time>2026-04-19T17:14:29.996Z</time></trkpt><trkpt lat="41.315835" lon="15.5580183"><ele>156.0</ele><time>2026-04-19T17:14:30.996Z</time></trkpt><trkpt lat="41.315695" lon="15.5579817"><ele>156.0</ele><time>2026-04-19T17:14:31.996Z</time></trkpt><trkpt lat="41.3155517" lon="15.55795"><ele>156.0</ele><time>2026-04-19T17:14:32.996Z</time></trkpt><trkpt lat="41.315405" lon="15.5579167"><ele>157.33333333333334</ele><time>2026-04-19T17:14:33.996Z</time></trkpt><trkpt lat="41.315255" lon="15.5578783"><ele>158.66666666666669</ele><time>2026-04-19T17:14:34.996Z</time></trkpt><trkpt lat="41.3151033" lon="15.5578417"><ele>160.0</ele><time>2026-04-19T17:14:35.996Z</time></trkpt><trkpt lat="41.3149483" lon="15.557805"><ele>160.0</ele><time>2026-04-19T17:14:36.997Z</time></trkpt><trkpt lat="41.31479" lon="15.5577683"><ele>160.0</ele><time>2026-04-19T17:14:37.996Z</time></trkpt><trkpt lat="41.31463" lon="15.5577317"><ele>160.0</ele><time>2026-04-19T17:14:38.996Z</time></trkpt><trkpt lat="41.3144667" lon="15.55769"><ele>161.0</ele><time>2026-04-19T17:14:39.997Z</time></trkpt><trkpt lat="41.3143017" lon="15.5576467"><ele>162.0</ele><time>2026-04-19T17:14:40.996Z</time></trkpt><trkpt lat="41.314135" lon="15.5576083"><ele>163.0</ele><time>2026-04-19T17:14:41.996Z</time></trkpt><trkpt lat="41.3139667" lon="15.5575683"><ele>162.33333333333334</ele><time>2026-04-19T17:14:42.996Z</time></trkpt><trkpt lat="41.3137967" lon="15.5575333"><ele>161.66666666666666</ele><time>2026-04-19T17:14:43.996Z</time></trkpt><trkpt lat="41.3136217" lon="15.5574917"><ele>161.0</ele><time>2026-04-19T17:14:44.997Z</time></trkpt><trkpt lat="41.3134483" lon="15.5574483"><ele>161.0</ele><time>2026-04-19T17:14:45.996Z</time></trkpt><trkpt lat="41.3132767" lon="15.557405"><ele>161.0</ele><time>2026-04-19T17:14:46.996Z</time></trkpt><trkpt lat="41.3131067" lon="15.5573667"><ele>161.0</ele><time>2026-04-19T17:14:47.996Z</time></trkpt><trkpt lat="41.31294" lon="15.55733"><ele>161.33333333333331</ele><time>2026-04-19T17:14:48.996Z</time></trkpt><trkpt lat="41.3127717" lon="15.5572917"><ele>161.66666666666666</ele><time>2026-04-19T17:14:49.996Z</time></trkpt><trkpt lat="41.3126067" lon="15.55725"><ele>162.0</ele><time>2026-04-19T17:14:50.996Z</time></trkpt><trkpt lat="41.312445" lon="15.55721"><ele>162.0</ele><time>2026-04-19T17:14:51.996Z</time></trkpt><trkpt lat="41.31229" lon="15.5571767"><ele>162.0</ele><time>2026-04-19T17:14:52.996Z</time></trkpt><trkpt lat="41.31214" lon="15.55714"><ele>162.0</ele><time>2026-04-19T17:14:53.996Z</time></trkpt><trkpt lat="41.3119883" lon="15.5571017"><ele>162.25</ele><time>2026-04-19T17:14:54.996Z</time></trkpt><trkpt lat="41.3118383" lon="15.557065"><ele>162.5</ele><time>2026-04-19T17:14:55.996Z</time></trkpt><trkpt lat="41.3116917" lon="15.5570283"><ele>162.75</ele><time>2026-04-19T17:14:56.997Z</time></trkpt><trkpt lat="41.3115533" lon="15.5569967"><ele>163.0</ele><time>2026-04-19T17:14:57.996Z</time></trkpt><trkpt lat="41.3114167" lon="15.5569633"><ele>163.25</ele><time>2026-04-19T17:14:58.996Z</time></trkpt><trkpt lat="41.31128" lon="15.55693"><ele>163.5</ele><time>2026-04-19T17:14:59.996Z</time></trkpt><trkpt lat="41.31115" lon="15.5569033"><ele>163.75</ele><time>2026-04-19T17:15:00.996Z</time></trkpt><trkpt lat="41.3110233" lon="15.5568733"><ele>164.0</ele><time>2026-04-19T17:15:01.996Z</time></trkpt><trkpt lat="41.3108967" lon="15.556845"><ele>164.0</ele><time>2026-04-19T17:15:02.996Z</time></trkpt><trkpt lat="41.3107667" lon="15.5568167"><ele>164.0</ele><time>2026-04-19T17:15:03.996Z</time></trkpt><trkpt lat="41.310635" lon="15.5567867"><ele>164.0</ele><time>2026-04-19T17:15:04.996Z</time></trkpt><trkpt lat="41.3105017" lon="15.5567583"><ele>164.0</ele><time>2026-04-19T17:15:05.996Z</time></trkpt><trkpt lat="41.3103667" lon="15.556725"><ele>163.5</ele><time>2026-04-19T17:15:06.996Z</time></trkpt><trkpt lat="41.3102333" lon="15.5566883"><ele>163.0</ele><time>2026-04-19T17:15:07.997Z</time></trkpt><trkpt lat="41.3100933" lon="15.5566567"><ele>162.5</ele><time>2026-04-19T17:15:08.996Z</time></trkpt><trkpt lat="41.309955" lon="15.556625"><ele>162.0</ele><time>2026-04-19T17:15:09.996Z</time></trkpt><trkpt lat="41.3098133" lon="15.55659"><ele>161.5</ele><time>2026-04-19T17:15:10.996Z</time></trkpt><trkpt lat="41.30967" lon="15.556555"><ele>161.0</ele><time>2026-04-19T17:15:11.996Z</time></trkpt><trkpt lat="41.3095267" lon="15.5565183"><ele>160.5</ele><time>2026-04-19T17:15:12.996Z</time></trkpt><trkpt lat="41.3093833" lon="15.5564833"><ele>160.0</ele><time>2026-04-19T17:15:13.997Z</time></trkpt><trkpt lat="41.309235" lon="15.5564533"><ele>160.0</ele><time>2026-04-19T17:15:14.996Z</time></trkpt><trkpt lat="41.3090817" lon="15.5564183"><ele>160.0</ele><time>2026-04-19T17:15:15.997Z</time></trkpt><trkpt lat="41.3089267" lon="15.5563833"><ele>160.0</ele><time>2026-04-19T17:15:16.996Z</time></trkpt><trkpt lat="41.308775" lon="15.55635"><ele>159.0</ele><time>2026-04-19T17:15:17.996Z</time></trkpt><trkpt lat="41.3086267" lon="15.556315"><ele>158.0</ele><time>2026-04-19T17:15:18.997Z</time></trkpt><trkpt lat="41.3084767" lon="15.55628"><ele>157.0</ele><time>2026-04-19T17:15:19.996Z</time></trkpt><trkpt lat="41.3083283" lon="15.556245"><ele>157.0</ele><time>2026-04-19T17:15:20.996Z</time></trkpt><trkpt lat="41.3081817" lon="15.55621"><ele>157.0</ele><time>2026-04-19T17:15:21.996Z</time></trkpt><trkpt lat="41.308035" lon="15.556175"><ele>157.0</ele><time>2026-04-19T17:15:22.996Z</time></trkpt><trkpt lat="41.3078883" lon="15.5561417"><ele>157.0</ele><time>2026-04-19T17:15:23.997Z</time></trkpt><trkpt lat="41.3077417" lon="15.5561033"><ele>155.0</ele><time>2026-04-19T17:15:24.997Z</time></trkpt><trkpt lat="41.3075917" lon="15.5560667"><ele>153.0</ele><time>2026-04-19T17:15:25.996Z</time></trkpt><trkpt lat="41.3074417" lon="15.5560283"><ele>151.0</ele><time>2026-04-19T17:15:26.997Z</time></trkpt><trkpt lat="41.3072883" lon="15.55599"><ele>149.33333333333334</ele><time>2026-04-19T17:15:27.996Z</time></trkpt><trkpt lat="41.3071317" lon="15.5559517"><ele>147.66666666666666</ele><time>2026-04-19T17:15:28.996Z</time></trkpt><trkpt lat="41.306975" lon="15.5559117"><ele>146.0</ele><time>2026-04-19T17:15:29.996Z</time></trkpt><trkpt lat="41.3068167" lon="15.5558733"><ele>146.0</ele><time>2026-04-19T17:15:30.996Z</time></trkpt><trkpt lat="41.3066583" lon="15.555835"><ele>146.0</ele><time>2026-04-19T17:15:31.997Z</time></trkpt><trkpt lat="41.3064983" lon="15.5558017"><ele>146.0</ele><time>2026-04-19T17:15:32.996Z</time></trkpt><trkpt lat="41.30634" lon="15.5557667"><ele>145.33333333333331</ele><time>2026-04-19T17:15:33.996Z</time></trkpt><trkpt lat="41.30618" lon="15.55573"><ele>144.66666666666666</ele><time>2026-04-19T17:15:34.996Z</time></trkpt><trkpt lat="41.306025" lon="15.5556917"><ele>144.0</ele><time>2026-04-19T17:15:35.996Z</time></trkpt><trkpt lat="41.305875" lon="15.5556583"><ele>144.0</ele><time>2026-04-19T17:15:36.996Z</time></trkpt><trkpt lat="41.3057267" lon="15.55562"><ele>144.0</ele><time>2026-04-19T17:15:37.997Z</time></trkpt><trkpt lat="41.3055783" lon="15.5555817"><ele>144.0</ele><time>2026-04-19T17:15:38.996Z</time></trkpt><trkpt lat="41.30543" lon="15.555545"><ele>144.33333333333334</ele><time>2026-04-19T17:15:39.996Z</time></trkpt><trkpt lat="41.3052783" lon="15.55551"><ele>144.66666666666669</ele><time>2026-04-19T17:15:40.996Z</time></trkpt><trkpt lat="41.3051267" lon="15.5554733"><ele>145.0</ele><time>2026-04-19T17:15:41.996Z</time></trkpt><trkpt lat="41.304975" lon="15.5554383"><ele>145.0</ele><time>2026-04-19T17:15:42.996Z</time></trkpt><trkpt lat="41.30482" lon="15.555405"><ele>145.0</ele><time>2026-04-19T17:15:43.996Z</time></trkpt><trkpt lat="41.3046633" lon="15.5553717"><ele>145.0</ele><time>2026-04-19T17:15:44.997Z</time></trkpt><trkpt lat="41.304505" lon="15.555335"><ele>144.66666666666669</ele><time>2026-04-19T17:15:45.996Z</time></trkpt><trkpt lat="41.3043467" lon="15.5553033"><ele>144.33333333333334</ele><time>2026-04-19T17:15:46.996Z</time></trkpt><trkpt lat="41.3041867" lon="15.5552683"><ele>144.0</ele><time>2026-04-19T17:15:47.997Z</time></trkpt><trkpt lat="41.3040283" lon="15.555235"><ele>144.0</ele><time>2026-04-19T17:15:48.996Z</time></trkpt><trkpt lat="41.3038683" lon="15.5552017"><ele>144.0</ele><time>2026-04-19T17:15:49.996Z</time></trkpt><trkpt lat="41.3037133" lon="15.55517"><ele>144.0</ele><time>2026-04-19T17:15:50.997Z</time></trkpt><trkpt lat="41.3035567" lon="15.5551383"><ele>144.0</ele><time>2026-04-19T17:15:51.996Z</time></trkpt><trkpt lat="41.3034033" lon="15.5551083"><ele>144.0</ele><time>2026-04-19T17:15:52.996Z</time></trkpt><trkpt lat="41.30325" lon="15.5550767"><ele>144.0</ele><time>2026-04-19T17:15:53.996Z</time></trkpt><trkpt lat="41.3030967" lon="15.5550467"><ele>144.33333333333334</ele><time>2026-04-19T17:15:54.996Z</time></trkpt><trkpt lat="41.3029467" lon="15.55502"><ele>144.66666666666669</ele><time>2026-04-19T17:15:55.996Z</time></trkpt><trkpt lat="41.3027967" lon="15.5549933"><ele>145.0</ele><time>2026-04-19T17:15:56.996Z</time></trkpt><trkpt lat="41.3026483" lon="15.5549633"><ele>145.0</ele><time>2026-04-19T17:15:57.996Z</time></trkpt><trkpt lat="41.3024983" lon="15.554935"><ele>145.0</ele><time>2026-04-19T17:15:58.996Z</time></trkpt><trkpt lat="41.3023467" lon="15.55491"><ele>145.0</ele><time>2026-04-19T17:15:59.997Z</time></trkpt><trkpt lat="41.30219" lon="15.5548833"><ele>145.33333333333334</ele><time>2026-04-19T17:16:00.996Z</time></trkpt><trkpt lat="41.3020333" lon="15.5548533"><ele>145.66666666666666</ele><time>2026-04-19T17:16:01.996Z</time></trkpt><trkpt lat="41.3018733" lon="15.5548267"><ele>146.0</ele><time>2026-04-19T17:16:02.996Z</time></trkpt><trkpt lat="41.3017133" lon="15.5548"><ele>146.0</ele><time>2026-04-19T17:16:03.997Z</time></trkpt><trkpt lat="41.3015533" lon="15.5547717"><ele>146.0</ele><time>2026-04-19T17:16:04.996Z</time></trkpt><trkpt lat="41.3013933" lon="15.554745"><ele>146.0</ele><time>2026-04-19T17:16:05.996Z</time></trkpt><trkpt lat="41.3012317" lon="15.5547133"><ele>146.33333333333331</ele><time>2026-04-19T17:16:06.996Z</time></trkpt><trkpt lat="41.3010683" lon="15.5546867"><ele>146.66666666666666</ele><time>2026-04-19T17:16:07.997Z</time></trkpt><trkpt lat="41.3009033" lon="15.55466"><ele>147.0</ele><time>2026-04-19T17:16:08.996Z</time></trkpt><trkpt lat="41.30074" lon="15.5546333"><ele>147.33333333333334</ele><time>2026-04-19T17:16:09.996Z</time></trkpt><trkpt lat="41.3005733" lon="15.554605"><ele>147.66666666666669</ele><time>2026-04-19T17:16:10.997Z</time></trkpt><trkpt lat="41.300405" lon="15.5545767"><ele>148.0</ele><time>2026-04-19T17:16:11.996Z</time></trkpt><trkpt lat="41.300235" lon="15.5545517"><ele>148.66666666666669</ele><time>2026-04-19T17:16:12.996Z</time></trkpt><trkpt lat="41.300065" lon="15.5545267"><ele>149.33333333333334</ele><time>2026-04-19T17:16:13.997Z</time></trkpt><trkpt lat="41.299895" lon="15.554495"><ele>150.0</ele><time>2026-04-19T17:16:14.996Z</time></trkpt><trkpt lat="41.299725" lon="15.5544667"><ele>151.0</ele><time>2026-04-19T17:16:15.996Z</time></trkpt><trkpt lat="41.2995533" lon="15.554445"><ele>152.0</ele><time>2026-04-19T17:16:16.996Z</time></trkpt><trkpt lat="41.2993817" lon="15.5544283"><ele>153.0</ele><time>2026-04-19T17:16:17.996Z</time></trkpt><trkpt lat="41.2992083" lon="15.5544083"><ele>153.0</ele><time>2026-04-19T17:16:18.996Z</time></trkpt><trkpt lat="41.2990367" lon="15.5543867"><ele>153.0</ele><time>2026-04-19T17:16:19.996Z</time></trkpt><trkpt lat="41.2988617" lon="15.5543633"><ele>153.0</ele><time>2026-04-19T17:16:20.996Z</time></trkpt><trkpt lat="41.2986883" lon="15.5543417"><ele>153.66666666666666</ele><time>2026-04-19T17:16:21.996Z</time></trkpt><trkpt lat="41.2985133" lon="15.5543183"><ele>154.33333333333331</ele><time>2026-04-19T17:16:22.996Z</time></trkpt><trkpt lat="41.2983383" lon="15.5542967"><ele>155.0</ele><time>2026-04-19T17:16:23.996Z</time></trkpt><trkpt lat="41.2981633" lon="15.5542733"><ele>155.0</ele><time>2026-04-19T17:16:24.996Z</time></trkpt><trkpt lat="41.2979883" lon="15.5542517"><ele>155.0</ele><time>2026-04-19T17:16:25.996Z</time></trkpt><trkpt lat="41.29781" lon="15.55423"><ele>155.0</ele><time>2026-04-19T17:16:26.996Z</time></trkpt><trkpt lat="41.2976317" lon="15.5542067"><ele>155.0</ele><time>2026-04-19T17:16:27.997Z</time></trkpt><trkpt lat="41.29745" lon="15.554185"><ele>155.0</ele><time>2026-04-19T17:16:28.996Z</time></trkpt><trkpt lat="41.297265" lon="15.554165"><ele>155.0</ele><time>2026-04-19T17:16:29.997Z</time></trkpt><trkpt lat="41.29708" lon="15.554155"><ele>155.66666666666666</ele><time>2026-04-19T17:16:30.996Z</time></trkpt><trkpt lat="41.29689" lon="15.5541367"><ele>156.33333333333334</ele><time>2026-04-19T17:16:31.996Z</time></trkpt><trkpt lat="41.2967033" lon="15.5541167"><ele>157.0</ele><time>2026-04-19T17:16:32.996Z</time></trkpt><trkpt lat="41.2965133" lon="15.5541"><ele>159.33333333333334</ele><time>2026-04-19T17:16:33.997Z</time></trkpt><trkpt lat="41.296325" lon="15.5540833"><ele>161.66666666666666</ele><time>2026-04-19T17:16:34.996Z</time></trkpt><trkpt lat="41.29614" lon="15.554065"><ele>164.0</ele><time>2026-04-19T17:16:35.996Z</time></trkpt><trkpt lat="41.2959533" lon="15.5540483"><ele>164.0</ele><time>2026-04-19T17:16:36.996Z</time></trkpt><trkpt lat="41.2957683" lon="15.5540317"><ele>164.0</ele><time>2026-04-19T17:16:37.996Z</time></trkpt><trkpt lat="41.2955817" lon="15.5540183"><ele>164.0</ele><time>2026-04-19T17:16:38.996Z</time></trkpt><trkpt lat="41.29539" lon="15.55401"><ele>165.33333333333331</ele><time>2026-04-19T17:16:39.997Z</time></trkpt><trkpt lat="41.2952017" lon="15.5539933"><ele>166.66666666666666</ele><time>2026-04-19T17:16:40.996Z</time></trkpt><trkpt lat="41.29501" lon="15.5539833"><ele>168.0</ele><time>2026-04-19T17:16:41.997Z</time></trkpt><trkpt lat="41.2948167" lon="15.5539717"><ele>168.33333333333334</ele><time>2026-04-19T17:16:42.996Z</time></trkpt><trkpt lat="41.2946267" lon="15.5539633"><ele>168.66666666666669</ele><time>2026-04-19T17:16:43.996Z</time></trkpt><trkpt lat="41.2944383" lon="15.5539483"><ele>169.0</ele><time>2026-04-19T17:16:44.996Z</time></trkpt><trkpt lat="41.2942567" lon="15.553935"><ele>169.0</ele><time>2026-04-19T17:16:45.996Z</time></trkpt><trkpt lat="41.2940817" lon="15.553925"><ele>169.0</ele><time>2026-04-19T17:16:46.996Z</time></trkpt><trkpt lat="41.29391" lon="15.5539167"><ele>169.0</ele><time>2026-04-19T17:16:47.996Z</time></trkpt><trkpt lat="41.2937383" lon="15.5539067"><ele>169.0</ele><time>2026-04-19T17:16:48.996Z</time></trkpt><trkpt lat="41.2935683" lon="15.5538967"><ele>169.0</ele><time>2026-04-19T17:16:49.996Z</time></trkpt><trkpt lat="41.2934017" lon="15.5538833"><ele>169.0</ele><time>2026-04-19T17:16:50.996Z</time></trkpt><trkpt lat="41.293235" lon="15.5538767"><ele>169.0</ele><time>2026-04-19T17:16:51.996Z</time></trkpt><trkpt lat="41.29307" lon="15.55387"><ele>169.0</ele><time>2026-04-19T17:16:52.996Z</time></trkpt><trkpt lat="41.2929067" lon="15.5538633"><ele>169.0</ele><time>2026-04-19T17:16:53.996Z</time></trkpt><trkpt lat="41.292745" lon="15.5538567"><ele>169.0</ele><time>2026-04-19T17:16:54.996Z</time></trkpt><trkpt lat="41.2925817" lon="15.5538483"><ele>169.0</ele><time>2026-04-19T17:16:55.996Z</time></trkpt><trkpt lat="41.2924217" lon="15.5538383"><ele>169.0</ele><time>2026-04-19T17:16:56.996Z</time></trkpt><trkpt lat="41.29226" lon="15.5538283"><ele>169.33333333333334</ele><time>2026-04-19T17:16:57.996Z</time></trkpt><trkpt lat="41.2921" lon="15.5538183"><ele>169.66666666666666</ele><time>2026-04-19T17:16:58.996Z</time></trkpt><trkpt lat="41.29194" lon="15.5538083"><ele>170.0</ele><time>2026-04-19T17:16:59.996Z</time></trkpt><trkpt lat="41.2917783" lon="15.5538033"><ele>170.0</ele><time>2026-04-19T17:17:00.996Z</time></trkpt><trkpt lat="41.291615" lon="15.5537967"><ele>170.0</ele><time>2026-04-19T17:17:01.996Z</time></trkpt><trkpt lat="41.2914483" lon="15.55379"><ele>170.0</ele><time>2026-04-19T17:17:02.996Z</time></trkpt><trkpt lat="41.2912833" lon="15.5537817"><ele>170.33333333333331</ele><time>2026-04-19T17:17:03.996Z</time></trkpt><trkpt lat="41.29112" lon="15.55378"><ele>170.66666666666666</ele><time>2026-04-19T17:17:04.996Z</time></trkpt><trkpt lat="41.29096" lon="15.5537783"><ele>171.0</ele><time>2026-04-19T17:17:05.996Z</time></trkpt><trkpt lat="41.2907983" lon="15.553775"><ele>171.0</ele><time>2026-04-19T17:17:06.997Z</time></trkpt><trkpt lat="41.2906367" lon="15.5537767"><ele>171.0</ele><time>2026-04-19T17:17:07.996Z</time></trkpt><trkpt lat="41.2904733" lon="15.553775"><ele>171.0</ele><time>2026-04-19T17:17:08.996Z</time></trkpt><trkpt lat="41.29031" lon="15.553775"><ele>170.33333333333334</ele><time>2026-04-19T17:17:09.996Z</time></trkpt><trkpt lat="41.29015" lon="15.5537767"><ele>169.66666666666669</ele><time>2026-04-19T17:17:10.997Z</time></trkpt><trkpt lat="41.28999" lon="15.5537783"><ele>169.0</ele><time>2026-04-19T17:17:11.996Z</time></trkpt><trkpt lat="41.28983" lon="15.5537767"><ele>169.0</ele><time>2026-04-19T17:17:12.996Z</time></trkpt><trkpt lat="41.2896717" lon="15.5537783"><ele>169.0</ele><time>2026-04-19T17:17:13.996Z</time></trkpt><trkpt lat="41.2895117" lon="15.5537817"><ele>169.0</ele><time>2026-04-19T17:17:14.997Z</time></trkpt><trkpt lat="41.2893517" lon="15.5537817"><ele>169.0</ele><time>2026-04-19T17:17:15.997Z</time></trkpt><trkpt lat="41.2891917" lon="15.5537733"><ele>169.0</ele><time>2026-04-19T17:17:16.996Z</time></trkpt><trkpt lat="41.28903" lon="15.5537717"><ele>169.0</ele><time>2026-04-19T17:17:17.996Z</time></trkpt><trkpt lat="41.2888667" lon="15.55377"><ele>168.66666666666669</ele><time>2026-04-19T17:17:18.996Z</time></trkpt><trkpt lat="41.2887" lon="15.5537667"><ele>168.33333333333334</ele><time>2026-04-19T17:17:19.996Z</time></trkpt><trkpt lat="41.2885317" lon="15.553765"><ele>168.0</ele><time>2026-04-19T17:17:20.996Z</time></trkpt><trkpt lat="41.28836" lon="15.5537633"><ele>168.0</ele><time>2026-04-19T17:17:21.997Z</time></trkpt><trkpt lat="41.288185" lon="15.5537667"><ele>168.0</ele><time>2026-04-19T17:17:22.996Z</time></trkpt><trkpt lat="41.28801" lon="15.553765"><ele>168.0</ele><time>2026-04-19T17:17:23.996Z</time></trkpt><trkpt lat="41.2878367" lon="15.553765"><ele>168.66666666666666</ele><time>2026-04-19T17:17:24.996Z</time></trkpt><trkpt lat="41.2876633" lon="15.5537667"><ele>169.33333333333331</ele><time>2026-04-19T17:17:25.996Z</time></trkpt><trkpt lat="41.2874917" lon="15.55377"><ele>170.0</ele><time>2026-04-19T17:17:26.996Z</time></trkpt><trkpt lat="41.2873217" lon="15.55377"><ele>169.0</ele><time>2026-04-19T17:17:27.996Z</time></trkpt><trkpt lat="41.2871533" lon="15.5537717"><ele>168.0</ele><time>2026-04-19T17:17:28.996Z</time></trkpt><trkpt lat="41.2869833" lon="15.5537783"><ele>167.0</ele><time>2026-04-19T17:17:29.996Z</time></trkpt><trkpt lat="41.286815" lon="15.5537817"><ele>167.0</ele><time>2026-04-19T17:17:30.996Z</time></trkpt><trkpt lat="41.2866483" lon="15.5537817"><ele>167.0</ele><time>2026-04-19T17:17:31.996Z</time></trkpt><trkpt lat="41.28648" lon="15.55378"><ele>167.0</ele><time>2026-04-19T17:17:32.996Z</time></trkpt><trkpt lat="41.286315" lon="15.55378"><ele>166.66666666666666</ele><time>2026-04-19T17:17:33.996Z</time></trkpt><trkpt lat="41.2861467" lon="15.5537783"><ele>166.33333333333334</ele><time>2026-04-19T17:17:34.996Z</time></trkpt><trkpt lat="41.2859783" lon="15.553775"><ele>166.0</ele><time>2026-04-19T17:17:35.996Z</time></trkpt><trkpt lat="41.2858067" lon="15.55378"><ele>166.0</ele><time>2026-04-19T17:17:36.997Z</time></trkpt><trkpt lat="41.2856333" lon="15.5537817"><ele>166.0</ele><time>2026-04-19T17:17:37.996Z</time></trkpt><trkpt lat="41.2854567" lon="15.5537833"><ele>166.0</ele><time>2026-04-19T17:17:38.996Z</time></trkpt><trkpt lat="41.2852767" lon="15.5537883"><ele>166.66666666666669</ele><time>2026-04-19T17:17:39.997Z</time></trkpt><trkpt lat="41.2850917" lon="15.5537867"><ele>167.33333333333334</ele><time>2026-04-19T17:17:40.996Z</time></trkpt><trkpt lat="41.2849067" lon="15.5537867"><ele>168.0</ele><time>2026-04-19T17:17:41.996Z</time></trkpt><trkpt lat="41.28472" lon="15.55379"><ele>168.0</ele><time>2026-04-19T17:17:42.996Z</time></trkpt><trkpt lat="41.2845333" lon="15.5537917"><ele>168.0</ele><time>2026-04-19T17:17:43.996Z</time></trkpt><trkpt lat="41.284345" lon="15.5537933"><ele>168.0</ele><time>2026-04-19T17:17:44.997Z</time></trkpt><trkpt lat="41.2841567" lon="15.553795"><ele>168.0</ele><time>2026-04-19T17:17:45.996Z</time></trkpt><trkpt lat="41.28397" lon="15.5537883"><ele>168.0</ele><time>2026-04-19T17:17:46.996Z</time></trkpt><trkpt lat="41.283785" lon="15.5537933"><ele>168.0</ele><time>2026-04-19T17:17:47.996Z</time></trkpt><trkpt lat="41.2836017" lon="15.5537933"><ele>167.33333333333334</ele><time>2026-04-19T17:17:48.996Z</time></trkpt><trkpt lat="41.2834217" lon="15.55379"><ele>166.66666666666669</ele><time>2026-04-19T17:17:49.996Z</time></trkpt><trkpt lat="41.2832417" lon="15.5537933"><ele>166.0</ele><time>2026-04-19T17:17:50.996Z</time></trkpt><trkpt lat="41.2830617" lon="15.5537933"><ele>165.66666666666669</ele><time>2026-04-19T17:17:51.996Z</time></trkpt><trkpt lat="41.2828817" lon="15.5537917"><ele>165.33333333333334</ele><time>2026-04-19T17:17:52.996Z</time></trkpt><trkpt lat="41.282705" lon="15.55379"><ele>165.0</ele><time>2026-04-19T17:17:53.996Z</time></trkpt><trkpt lat="41.2825267" lon="15.5537917"><ele>165.0</ele><time>2026-04-19T17:17:54.996Z</time></trkpt><trkpt lat="41.2823467" lon="15.5537933"><ele>165.0</ele><time>2026-04-19T17:17:55.996Z</time></trkpt><trkpt lat="41.2821667" lon="15.5537967"><ele>165.0</ele><time>2026-04-19T17:17:56.996Z</time></trkpt><trkpt lat="41.2819883" lon="15.5537967"><ele>164.0</ele><time>2026-04-19T17:17:57.996Z</time></trkpt><trkpt lat="41.2818117" lon="15.5537983"><ele>163.0</ele><time>2026-04-19T17:17:58.996Z</time></trkpt><trkpt lat="41.2816367" lon="15.5538"><ele>162.0</ele><time>2026-04-19T17:17:59.996Z</time></trkpt><trkpt lat="41.2814667" lon="15.5538017"><ele>161.66666666666666</ele><time>2026-04-19T17:18:00.996Z</time></trkpt><trkpt lat="41.2813" lon="15.5538017"><ele>161.33333333333331</ele><time>2026-04-19T17:18:01.997Z</time></trkpt><trkpt lat="41.2811333" lon="15.5538017"><ele>161.0</ele><time>2026-04-19T17:18:02.997Z</time></trkpt><trkpt lat="41.2809667" lon="15.5538033"><ele>161.0</ele><time>2026-04-19T17:18:03.996Z</time></trkpt><trkpt lat="41.2807983" lon="15.553805"><ele>161.0</ele><time>2026-04-19T17:18:04.997Z</time></trkpt><trkpt lat="41.2806317" lon="15.5538033"><ele>161.0</ele><time>2026-04-19T17:18:05.996Z</time></trkpt><trkpt lat="41.2804633" lon="15.5537967"><ele>161.0</ele><time>2026-04-19T17:18:06.996Z</time></trkpt><trkpt lat="41.280295" lon="15.553795"><ele>161.0</ele><time>2026-04-19T17:18:07.997Z</time></trkpt><trkpt lat="41.280125" lon="15.5537967"><ele>161.0</ele><time>2026-04-19T17:18:08.996Z</time></trkpt><trkpt lat="41.279955" lon="15.5537933"><ele>161.0</ele><time>2026-04-19T17:18:09.996Z</time></trkpt><trkpt lat="41.279785" lon="15.5537867"><ele>161.0</ele><time>2026-04-19T17:18:10.996Z</time></trkpt><trkpt lat="41.2796167" lon="15.5537767"><ele>161.0</ele><time>2026-04-19T17:18:11.996Z</time></trkpt><trkpt lat="41.2794467" lon="15.5537633"><ele>160.66666666666666</ele><time>2026-04-19T17:18:12.996Z</time></trkpt><trkpt lat="41.2792783" lon="15.553755"><ele>160.33333333333334</ele><time>2026-04-19T17:18:13.997Z</time></trkpt><trkpt lat="41.2791067" lon="15.5537483"><ele>160.0</ele><time>2026-04-19T17:18:14.996Z</time></trkpt><trkpt lat="41.278935" lon="15.5537417"><ele>159.66666666666669</ele><time>2026-04-19T17:18:15.996Z</time></trkpt><trkpt lat="41.2787617" lon="15.55373"><ele>159.33333333333334</ele><time>2026-04-19T17:18:16.996Z</time></trkpt><trkpt lat="41.278585" lon="15.5537183"><ele>159.0</ele><time>2026-04-19T17:18:17.996Z</time></trkpt><trkpt lat="41.2784067" lon="15.5537067"><ele>159.33333333333334</ele><time>2026-04-19T17:18:18.996Z</time></trkpt><trkpt lat="41.27823" lon="15.553695"><ele>159.66666666666669</ele><time>2026-04-19T17:18:19.996Z</time></trkpt><trkpt lat="41.27805" lon="15.5536817"><ele>160.0</ele><time>2026-04-19T17:18:20.996Z</time></trkpt><trkpt lat="41.27787" lon="15.553665"><ele>160.0</ele><time>2026-04-19T17:18:21.996Z</time></trkpt><trkpt lat="41.27769" lon="15.553645"><ele>160.0</ele><time>2026-04-19T17:18:22.997Z</time></trkpt><trkpt lat="41.2775083" lon="15.5536283"><ele>160.0</ele><time>2026-04-19T17:18:23.996Z</time></trkpt><trkpt lat="41.2773267" lon="15.55361"><ele>159.66666666666669</ele><time>2026-04-19T17:18:24.997Z</time></trkpt><trkpt lat="41.2771433" lon="15.5535867"><ele>159.33333333333334</ele><time>2026-04-19T17:18:25.997Z</time></trkpt><trkpt lat="41.2769617" lon="15.553565"><ele>159.0</ele><time>2026-04-19T17:18:26.996Z</time></trkpt><trkpt lat="41.2767783" lon="15.5535433"><ele>159.0</ele><time>2026-04-19T17:18:27.996Z</time></trkpt><trkpt lat="41.2765967" lon="15.5535183"><ele>159.0</ele><time>2026-04-19T17:18:28.996Z</time></trkpt><trkpt lat="41.276415" lon="15.55349"><ele>159.0</ele><time>2026-04-19T17:18:29.996Z</time></trkpt><trkpt lat="41.2762333" lon="15.5534667"><ele>158.33333333333334</ele><time>2026-04-19T17:18:30.996Z</time></trkpt><trkpt lat="41.2760533" lon="15.5534467"><ele>157.66666666666669</ele><time>2026-04-19T17:18:31.996Z</time></trkpt><trkpt lat="41.2758717" lon="15.553425"><ele>157.0</ele><time>2026-04-19T17:18:32.997Z</time></trkpt><trkpt lat="41.2756933" lon="15.5534"><ele>157.0</ele><time>2026-04-19T17:18:33.996Z</time></trkpt><trkpt lat="41.2755167" lon="15.5533683"><ele>157.0</ele><time>2026-04-19T17:18:34.996Z</time></trkpt><trkpt lat="41.27534" lon="15.55334"><ele>157.0</ele><time>2026-04-19T17:18:35.996Z</time></trkpt><trkpt lat="41.2751667" lon="15.55331"><ele>157.0</ele><time>2026-04-19T17:18:36.996Z</time></trkpt><trkpt lat="41.2749967" lon="15.55328"><ele>157.0</ele><time>2026-04-19T17:18:37.996Z</time></trkpt><trkpt lat="41.27483" lon="15.55325"><ele>157.0</ele><time>2026-04-19T17:18:38.996Z</time></trkpt><trkpt lat="41.2746667" lon="15.5532183"><ele>157.0</ele><time>2026-04-19T17:18:39.996Z</time></trkpt><trkpt lat="41.2745083" lon="15.553185"><ele>157.0</ele><time>2026-04-19T17:18:40.996Z</time></trkpt><trkpt lat="41.27435" lon="15.553155"><ele>157.0</ele><time>2026-04-19T17:18:41.997Z</time></trkpt><trkpt lat="41.2741917" lon="15.5531267"><ele>157.0</ele><time>2026-04-19T17:18:42.997Z</time></trkpt><trkpt lat="41.2740333" lon="15.553095"><ele>157.0</ele><time>2026-04-19T17:18:43.996Z</time></trkpt><trkpt lat="41.2738733" lon="15.55306"><ele>157.0</ele><time>2026-04-19T17:18:44.996Z</time></trkpt><trkpt lat="41.27371" lon="15.553025"><ele>157.0</ele><time>2026-04-19T17:18:45.996Z</time></trkpt><trkpt lat="41.2735417" lon="15.5529883"><ele>157.0</ele><time>2026-04-19T17:18:46.996Z</time></trkpt><trkpt lat="41.2733717" lon="15.5529533"><ele>157.0</ele><time>2026-04-19T17:18:47.996Z</time></trkpt><trkpt lat="41.2731983" lon="15.5529133"><ele>157.33333333333334</ele><time>2026-04-19T17:18:48.996Z</time></trkpt><trkpt lat="41.273025" lon="15.5528683"><ele>157.66666666666666</ele><time>2026-04-19T17:18:49.996Z</time></trkpt><trkpt lat="41.272845" lon="15.5528333"><ele>158.0</ele><time>2026-04-19T17:18:50.997Z</time></trkpt><trkpt lat="41.2726467" lon="15.5527983"><ele>158.0</ele><time>2026-04-19T17:18:51.997Z</time></trkpt><trkpt lat="41.272445" lon="15.5527483"><ele>158.0</ele><time>2026-04-19T17:18:52.996Z</time></trkpt><trkpt lat="41.2722333" lon="15.5526933"><ele>158.0</ele><time>2026-04-19T17:18:53.996Z</time></trkpt><trkpt lat="41.272015" lon="15.55264"><ele>157.66666666666666</ele><time>2026-04-19T17:18:54.996Z</time></trkpt><trkpt lat="41.271805" lon="15.5525833"><ele>157.33333333333334</ele><time>2026-04-19T17:18:55.997Z</time></trkpt><trkpt lat="41.2716067" lon="15.5525233"><ele>157.0</ele><time>2026-04-19T17:18:56.996Z</time></trkpt><trkpt lat="41.271415" lon="15.5524717"><ele>156.33333333333334</ele><time>2026-04-19T17:18:57.996Z</time></trkpt><trkpt lat="41.271235" lon="15.55242"><ele>155.66666666666666</ele><time>2026-04-19T17:18:58.996Z</time></trkpt><trkpt lat="41.2710617" lon="15.55237"><ele>155.0</ele><time>2026-04-19T17:18:59.996Z</time></trkpt><trkpt lat="41.2708933" lon="15.55232"><ele>155.0</ele><time>2026-04-19T17:19:00.996Z</time></trkpt><trkpt lat="41.27073" lon="15.5522667"><ele>155.0</ele><time>2026-04-19T17:19:01.996Z</time></trkpt><trkpt lat="41.2705683" lon="15.5522133"><ele>155.0</ele><time>2026-04-19T17:19:02.996Z</time></trkpt><trkpt lat="41.27041" lon="15.55216"><ele>155.33333333333331</ele><time>2026-04-19T17:19:03.996Z</time></trkpt><trkpt lat="41.2702517" lon="15.5521067"><ele>155.66666666666666</ele><time>2026-04-19T17:19:04.996Z</time></trkpt><trkpt lat="41.2700917" lon="15.5520517"><ele>156.0</ele><time>2026-04-19T17:19:05.996Z</time></trkpt><trkpt lat="41.2699283" lon="15.551995"><ele>155.33333333333334</ele><time>2026-04-19T17:19:06.996Z</time></trkpt><trkpt lat="41.2697633" lon="15.5519333"><ele>154.66666666666669</ele><time>2026-04-19T17:19:07.996Z</time></trkpt><trkpt lat="41.2695967" lon="15.551875"><ele>154.0</ele><time>2026-04-19T17:19:08.997Z</time></trkpt><trkpt lat="41.26943" lon="15.551815"><ele>154.0</ele><time>2026-04-19T17:19:09.996Z</time></trkpt><trkpt lat="41.2692633" lon="15.551755"><ele>154.0</ele><time>2026-04-19T17:19:10.996Z</time></trkpt><trkpt lat="41.2690967" lon="15.5516933"><ele>154.0</ele><time>2026-04-19T17:19:11.996Z</time></trkpt><trkpt lat="41.26893" lon="15.5516333"><ele>154.33333333333334</ele><time>2026-04-19T17:19:12.996Z</time></trkpt><trkpt lat="41.2687633" lon="15.5515733"><ele>154.66666666666666</ele><time>2026-04-19T17:19:13.996Z</time></trkpt><trkpt lat="41.2685983" lon="15.5515117"><ele>155.0</ele><time>2026-04-19T17:19:14.996Z</time></trkpt><trkpt lat="41.268435" lon="15.5514467"><ele>155.0</ele><time>2026-04-19T17:19:15.996Z</time></trkpt><trkpt lat="41.26827" lon="15.5513817"><ele>155.0</ele><time>2026-04-19T17:19:16.996Z</time></trkpt><trkpt lat="41.268105" lon="15.5513183"><ele>155.0</ele><time>2026-04-19T17:19:17.996Z</time></trkpt><trkpt lat="41.2679417" lon="15.551255"><ele>155.0</ele><time>2026-04-19T17:19:18.996Z</time></trkpt><trkpt lat="41.2677783" lon="15.55119"><ele>155.0</ele><time>2026-04-19T17:19:19.996Z</time></trkpt><trkpt lat="41.2676167" lon="15.5511267"><ele>155.0</ele><time>2026-04-19T17:19:20.996Z</time></trkpt><trkpt lat="41.2674567" lon="15.5510633"><ele>155.0</ele><time>2026-04-19T17:19:21.997Z</time></trkpt><trkpt lat="41.2672983" lon="15.5509917"><ele>155.0</ele><time>2026-04-19T17:19:22.996Z</time></trkpt><trkpt lat="41.2671383" lon="15.5509233"><ele>155.0</ele><time>2026-04-19T17:19:23.996Z</time></trkpt><trkpt lat="41.26698" lon="15.550855"><ele>154.33333333333331</ele><time>2026-04-19T17:19:24.996Z</time></trkpt><trkpt lat="41.26682" lon="15.5507867"><ele>153.66666666666666</ele><time>2026-04-19T17:19:25.996Z</time></trkpt><trkpt lat="41.2666583" lon="15.5507167"><ele>153.0</ele><time>2026-04-19T17:19:26.997Z</time></trkpt><trkpt lat="41.2664967" lon="15.550645"><ele>153.0</ele><time>2026-04-19T17:19:27.997Z</time></trkpt><trkpt lat="41.2663333" lon="15.5505733"><ele>153.0</ele><time>2026-04-19T17:19:28.997Z</time></trkpt><trkpt lat="41.26617" lon="15.5504983"><ele>153.0</ele><time>2026-04-19T17:19:29.996Z</time></trkpt><trkpt lat="41.2660067" lon="15.5504217"><ele>153.33333333333334</ele><time>2026-04-19T17:19:30.997Z</time></trkpt><trkpt lat="41.2658417" lon="15.5503483"><ele>153.66666666666669</ele><time>2026-04-19T17:19:31.996Z</time></trkpt><trkpt lat="41.265675" lon="15.5502717"><ele>154.0</ele><time>2026-04-19T17:19:32.996Z</time></trkpt><trkpt lat="41.2655083" lon="15.5501933"><ele>154.0</ele><time>2026-04-19T17:19:33.996Z</time></trkpt><trkpt lat="41.265345" lon="15.5501117"><ele>154.0</ele><time>2026-04-19T17:19:34.996Z</time></trkpt><trkpt lat="41.2651817" lon="15.5500283"><ele>154.0</ele><time>2026-04-19T17:19:35.996Z</time></trkpt><trkpt lat="41.26502" lon="15.5499483"><ele>154.0</ele><time>2026-04-19T17:19:36.997Z</time></trkpt><trkpt lat="41.2648583" lon="15.5498683"><ele>154.0</ele><time>2026-04-19T17:19:37.997Z</time></trkpt><trkpt lat="41.2646983" lon="15.5497883"><ele>154.0</ele><time>2026-04-19T17:19:38.996Z</time></trkpt><trkpt lat="41.2645383" lon="15.549705"><ele>154.33333333333334</ele><time>2026-04-19T17:19:39.996Z</time></trkpt><trkpt lat="41.2643767" lon="15.54962"><ele>154.66666666666666</ele><time>2026-04-19T17:19:40.996Z</time></trkpt><trkpt lat="41.2642167" lon="15.5495367"><ele>155.0</ele><time>2026-04-19T17:19:41.996Z</time></trkpt><trkpt lat="41.2640567" lon="15.5494533"><ele>155.33333333333331</ele><time>2026-04-19T17:19:42.996Z</time></trkpt><trkpt lat="41.2638983" lon="15.5493617"><ele>155.66666666666666</ele><time>2026-04-19T17:19:43.996Z</time></trkpt><trkpt lat="41.2637367" lon="15.5492767"><ele>156.0</ele><time>2026-04-19T17:19:44.997Z</time></trkpt><trkpt lat="41.2635767" lon="15.54919"><ele>156.0</ele><time>2026-04-19T17:19:45.996Z</time></trkpt><trkpt lat="41.2634167" lon="15.5491"><ele>156.0</ele><time>2026-04-19T17:19:46.996Z</time></trkpt><trkpt lat="41.2632567" lon="15.54901"><ele>156.0</ele><time>2026-04-19T17:19:47.996Z</time></trkpt><trkpt lat="41.2630967" lon="15.54892"><ele>155.66666666666666</ele><time>2026-04-19T17:19:48.997Z</time></trkpt><trkpt lat="41.262935" lon="15.5488267"><ele>155.33333333333331</ele><time>2026-04-19T17:19:49.997Z</time></trkpt><trkpt lat="41.2627767" lon="15.5487317"><ele>155.0</ele><time>2026-04-19T17:19:50.996Z</time></trkpt><trkpt lat="41.2626167" lon="15.5486383"><ele>155.66666666666666</ele><time>2026-04-19T17:19:51.996Z</time></trkpt><trkpt lat="41.2624567" lon="15.5485433"><ele>156.33333333333334</ele><time>2026-04-19T17:19:52.996Z</time></trkpt><trkpt lat="41.2622967" lon="15.548445"><ele>157.0</ele><time>2026-04-19T17:19:53.996Z</time></trkpt><trkpt lat="41.262135" lon="15.5483467"><ele>157.66666666666669</ele><time>2026-04-19T17:19:54.997Z</time></trkpt><trkpt lat="41.2619717" lon="15.5482433"><ele>158.33333333333334</ele><time>2026-04-19T17:19:55.996Z</time></trkpt><trkpt lat="41.2618083" lon="15.54814"><ele>159.0</ele><time>2026-04-19T17:19:56.996Z</time></trkpt><trkpt lat="41.2616433" lon="15.5480367"><ele>159.0</ele><time>2026-04-19T17:19:57.996Z</time></trkpt><trkpt lat="41.2614783" lon="15.5479317"><ele>159.0</ele><time>2026-04-19T17:19:58.996Z</time></trkpt><trkpt lat="41.2613133" lon="15.5478233"><ele>159.0</ele><time>2026-04-19T17:19:59.996Z</time></trkpt><trkpt lat="41.261145" lon="15.5477167"><ele>158.33333333333334</ele><time>2026-04-19T17:20:00.996Z</time></trkpt><trkpt lat="41.2609767" lon="15.5476033"><ele>157.66666666666669</ele><time>2026-04-19T17:20:01.996Z</time></trkpt><trkpt lat="41.2608067" lon="15.5474917"><ele>157.0</ele><time>2026-04-19T17:20:02.996Z</time></trkpt><trkpt lat="41.260635" lon="15.54738"><ele>157.33333333333334</ele><time>2026-04-19T17:20:03.996Z</time></trkpt><trkpt lat="41.2604633" lon="15.547265"><ele>157.66666666666666</ele><time>2026-04-19T17:20:04.996Z</time></trkpt><trkpt lat="41.260295" lon="15.54715"><ele>158.0</ele><time>2026-04-19T17:20:05.996Z</time></trkpt><trkpt lat="41.260125" lon="15.5470383"><ele>158.0</ele><time>2026-04-19T17:20:06.996Z</time></trkpt><trkpt lat="41.259955" lon="15.54693"><ele>158.0</ele><time>2026-04-19T17:20:07.997Z</time></trkpt><trkpt lat="41.2597883" lon="15.5468183"><ele>158.0</ele><time>2026-04-19T17:20:08.996Z</time></trkpt><trkpt lat="41.2596233" lon="15.5467083"><ele>158.0</ele><time>2026-04-19T17:20:09.996Z</time></trkpt><trkpt lat="41.2594583" lon="15.5466"><ele>158.0</ele><time>2026-04-19T17:20:10.996Z</time></trkpt><trkpt lat="41.2592933" lon="15.5464933"><ele>158.0</ele><time>2026-04-19T17:20:11.996Z</time></trkpt><trkpt lat="41.2591317" lon="15.5463883"><ele>158.0</ele><time>2026-04-19T17:20:12.996Z</time></trkpt><trkpt lat="41.2589733" lon="15.5462833"><ele>158.0</ele><time>2026-04-19T17:20:13.996Z</time></trkpt><trkpt lat="41.2588167" lon="15.546175"><ele>158.0</ele><time>2026-04-19T17:20:14.997Z</time></trkpt><trkpt lat="41.25866" lon="15.5460733"><ele>158.33333333333331</ele><time>2026-04-19T17:20:15.996Z</time></trkpt><trkpt lat="41.258505" lon="15.5459717"><ele>158.66666666666666</ele><time>2026-04-19T17:20:16.996Z</time></trkpt><trkpt lat="41.2583533" lon="15.5458717"><ele>159.0</ele><time>2026-04-19T17:20:17.996Z</time></trkpt><trkpt lat="41.2582" lon="15.5457717"><ele>159.0</ele><time>2026-04-19T17:20:18.996Z</time></trkpt><trkpt lat="41.25805" lon="15.5456733"><ele>159.0</ele><time>2026-04-19T17:20:19.996Z</time></trkpt><trkpt lat="41.2579" lon="15.545575"><ele>159.0</ele><time>2026-04-19T17:20:20.997Z</time></trkpt><trkpt lat="41.2577517" lon="15.545475"><ele>159.66666666666666</ele><time>2026-04-19T17:20:21.996Z</time></trkpt><trkpt lat="41.2576067" lon="15.5453717"><ele>160.33333333333331</ele><time>2026-04-19T17:20:22.996Z</time></trkpt><trkpt lat="41.25746" lon="15.5452683"><ele>161.0</ele><time>2026-04-19T17:20:23.997Z</time></trkpt><trkpt lat="41.2573133" lon="15.54517"><ele>161.33333333333331</ele><time>2026-04-19T17:20:24.996Z</time></trkpt><trkpt lat="41.2571667" lon="15.54507"><ele>161.66666666666666</ele><time>2026-04-19T17:20:25.997Z</time></trkpt><trkpt lat="41.25702" lon="15.5449717"><ele>162.0</ele><time>2026-04-19T17:20:26.996Z</time></trkpt><trkpt lat="41.256875" lon="15.5448717"><ele>162.0</ele><time>2026-04-19T17:20:27.996Z</time></trkpt><trkpt lat="41.25673" lon="15.5447717"><ele>162.0</ele><time>2026-04-19T17:20:28.997Z</time></trkpt><trkpt lat="41.256585" lon="15.544675"><ele>162.0</ele><time>2026-04-19T17:20:29.996Z</time></trkpt><trkpt lat="41.25644" lon="15.54458"><ele>161.66666666666666</ele><time>2026-04-19T17:20:30.996Z</time></trkpt><trkpt lat="41.256295" lon="15.5444883"><ele>161.33333333333331</ele><time>2026-04-19T17:20:31.996Z</time></trkpt><trkpt lat="41.2561483" lon="15.5443983"><ele>161.0</ele><time>2026-04-19T17:20:32.996Z</time></trkpt><trkpt lat="41.2560067" lon="15.5443033"><ele>161.0</ele><time>2026-04-19T17:20:33.996Z</time></trkpt><trkpt lat="41.2558633" lon="15.5442133"><ele>161.0</ele><time>2026-04-19T17:20:34.997Z</time></trkpt><trkpt lat="41.2557217" lon="15.5441217"><ele>161.0</ele><time>2026-04-19T17:20:35.996Z</time></trkpt><trkpt lat="41.2555817" lon="15.5440267"><ele>161.33333333333331</ele><time>2026-04-19T17:20:36.997Z</time></trkpt><trkpt lat="41.2554417" lon="15.5439333"><ele>161.66666666666666</ele><time>2026-04-19T17:20:37.996Z</time></trkpt><trkpt lat="41.255305" lon="15.5438383"><ele>162.0</ele><time>2026-04-19T17:20:38.997Z</time></trkpt><trkpt lat="41.2551717" lon="15.543745"><ele>162.0</ele><time>2026-04-19T17:20:39.997Z</time></trkpt><trkpt lat="41.25504" lon="15.5436567"><ele>162.0</ele><time>2026-04-19T17:20:40.996Z</time></trkpt><trkpt lat="41.2549083" lon="15.5435683"><ele>162.0</ele><time>2026-04-19T17:20:41.997Z</time></trkpt><trkpt lat="41.2547767" lon="15.54348"><ele>162.0</ele><time>2026-04-19T17:20:42.996Z</time></trkpt><trkpt lat="41.2546433" lon="15.5433883"><ele>162.0</ele><time>2026-04-19T17:20:43.996Z</time></trkpt><trkpt lat="41.2545083" lon="15.5432933"><ele>162.0</ele><time>2026-04-19T17:20:44.996Z</time></trkpt><trkpt lat="41.2543717" lon="15.5432017"><ele>162.0</ele><time>2026-04-19T17:20:45.996Z</time></trkpt><trkpt lat="41.2542333" lon="15.5431067"><ele>162.0</ele><time>2026-04-19T17:20:46.996Z</time></trkpt><trkpt lat="41.2540933" lon="15.543015"><ele>162.0</ele><time>2026-04-19T17:20:47.996Z</time></trkpt><trkpt lat="41.2539517" lon="15.5429217"><ele>162.0</ele><time>2026-04-19T17:20:48.996Z</time></trkpt><trkpt lat="41.2538083" lon="15.5428317"><ele>162.33333333333334</ele><time>2026-04-19T17:20:49.996Z</time></trkpt><trkpt lat="41.2536633" lon="15.5427383"><ele>162.66666666666669</ele><time>2026-04-19T17:20:50.996Z</time></trkpt><trkpt lat="41.25352" lon="15.5426417"><ele>163.0</ele><time>2026-04-19T17:20:51.996Z</time></trkpt><trkpt lat="41.2533767" lon="15.5425433"><ele>163.0</ele><time>2026-04-19T17:20:52.996Z</time></trkpt><trkpt lat="41.2532283" lon="15.542445"><ele>163.0</ele><time>2026-04-19T17:20:53.997Z</time></trkpt><trkpt lat="41.2530783" lon="15.54235"><ele>163.0</ele><time>2026-04-19T17:20:54.997Z</time></trkpt><trkpt lat="41.2529267" lon="15.5422567"><ele>163.33333333333334</ele><time>2026-04-19T17:20:55.996Z</time></trkpt><trkpt lat="41.2527733" lon="15.5421617"><ele>163.66666666666666</ele><time>2026-04-19T17:20:56.996Z</time></trkpt><trkpt lat="41.2526183" lon="15.5420617"><ele>164.0</ele><time>2026-04-19T17:20:57.996Z</time></trkpt><trkpt lat="41.2524617" lon="15.54196"><ele>164.0</ele><time>2026-04-19T17:20:58.996Z</time></trkpt><trkpt lat="41.2523017" lon="15.54186"><ele>164.0</ele><time>2026-04-19T17:20:59.996Z</time></trkpt><trkpt lat="41.2521433" lon="15.5417633"><ele>164.0</ele><time>2026-04-19T17:21:00.996Z</time></trkpt><trkpt lat="41.2519817" lon="15.5416683"><ele>164.0</ele><time>2026-04-19T17:21:01.996Z</time></trkpt><trkpt lat="41.25182" lon="15.5415717"><ele>164.0</ele><time>2026-04-19T17:21:02.997Z</time></trkpt><trkpt lat="41.2516583" lon="15.54148"><ele>164.0</ele><time>2026-04-19T17:21:03.996Z</time></trkpt><trkpt lat="41.251495" lon="15.5413883"><ele>164.33333333333331</ele><time>2026-04-19T17:21:04.997Z</time></trkpt><trkpt lat="41.251335" lon="15.5412967"><ele>164.66666666666666</ele><time>2026-04-19T17:21:05.997Z</time></trkpt><trkpt lat="41.2511733" lon="15.5412067"><ele>165.0</ele><time>2026-04-19T17:21:06.997Z</time></trkpt><trkpt lat="41.251015" lon="15.5411167"><ele>165.33333333333334</ele><time>2026-04-19T17:21:07.996Z</time></trkpt><trkpt lat="41.2508567" lon="15.5410317"><ele>165.66666666666669</ele><time>2026-04-19T17:21:08.997Z</time></trkpt><trkpt lat="41.2506983" lon="15.5409483"><ele>166.0</ele><time>2026-04-19T17:21:09.996Z</time></trkpt><trkpt lat="41.25054" lon="15.540865"><ele>166.0</ele><time>2026-04-19T17:21:10.996Z</time></trkpt><trkpt lat="41.2503833" lon="15.5407817"><ele>166.0</ele><time>2026-04-19T17:21:11.996Z</time></trkpt><trkpt lat="41.250225" lon="15.5407"><ele>166.0</ele><time>2026-04-19T17:21:12.996Z</time></trkpt><trkpt lat="41.2500667" lon="15.5406183"><ele>166.0</ele><time>2026-04-19T17:21:13.996Z</time></trkpt><trkpt lat="41.2499083" lon="15.5405367"><ele>166.0</ele><time>2026-04-19T17:21:14.997Z</time></trkpt><trkpt lat="41.24975" lon="15.540455"><ele>166.0</ele><time>2026-04-19T17:21:15.997Z</time></trkpt><trkpt lat="41.24959" lon="15.5403767"><ele>166.66666666666669</ele><time>2026-04-19T17:21:16.996Z</time></trkpt><trkpt lat="41.2494267" lon="15.5403"><ele>167.33333333333334</ele><time>2026-04-19T17:21:17.996Z</time></trkpt><trkpt lat="41.2492633" lon="15.540225"><ele>168.0</ele><time>2026-04-19T17:21:18.996Z</time></trkpt><trkpt lat="41.2490983" lon="15.540155"><ele>167.66666666666666</ele><time>2026-04-19T17:21:19.996Z</time></trkpt><trkpt lat="41.248935" lon="15.5400833"><ele>167.33333333333331</ele><time>2026-04-19T17:21:20.996Z</time></trkpt><trkpt lat="41.2487717" lon="15.5400083"><ele>167.0</ele><time>2026-04-19T17:21:21.996Z</time></trkpt><trkpt lat="41.24861" lon="15.5399333"><ele>167.0</ele><time>2026-04-19T17:21:22.996Z</time></trkpt><trkpt lat="41.248445" lon="15.53986"><ele>167.0</ele><time>2026-04-19T17:21:23.996Z</time></trkpt><trkpt lat="41.2482833" lon="15.539785"><ele>167.0</ele><time>2026-04-19T17:21:24.996Z</time></trkpt><trkpt lat="41.24812" lon="15.539715"><ele>167.0</ele><time>2026-04-19T17:21:25.996Z</time></trkpt><trkpt lat="41.247955" lon="15.5396433"><ele>167.0</ele><time>2026-04-19T17:21:26.996Z</time></trkpt><trkpt lat="41.24779" lon="15.5395783"><ele>167.0</ele><time>2026-04-19T17:21:27.996Z</time></trkpt><trkpt lat="41.247625" lon="15.539515"><ele>167.0</ele><time>2026-04-19T17:21:28.996Z</time></trkpt><trkpt lat="41.2474583" lon="15.539455"><ele>167.0</ele><time>2026-04-19T17:21:29.996Z</time></trkpt><trkpt lat="41.247295" lon="15.53939"><ele>167.0</ele><time>2026-04-19T17:21:30.996Z</time></trkpt><trkpt lat="41.2471317" lon="15.5393233"><ele>166.66666666666666</ele><time>2026-04-19T17:21:31.996Z</time></trkpt><trkpt lat="41.2469667" lon="15.5392633"><ele>166.33333333333334</ele><time>2026-04-19T17:21:32.996Z</time></trkpt><trkpt lat="41.246805" lon="15.5392017"><ele>166.0</ele><time>2026-04-19T17:21:33.996Z</time></trkpt><trkpt lat="41.2466417" lon="15.539135"><ele>166.0</ele><time>2026-04-19T17:21:34.997Z</time></trkpt><trkpt lat="41.2464783" lon="15.539075"><ele>166.0</ele><time>2026-04-19T17:21:35.996Z</time></trkpt><trkpt lat="41.2463133" lon="15.539015"><ele>166.0</ele><time>2026-04-19T17:21:36.996Z</time></trkpt><trkpt lat="41.2461483" lon="15.5389583"><ele>165.0</ele><time>2026-04-19T17:21:37.996Z</time></trkpt><trkpt lat="41.245985" lon="15.5389"><ele>164.0</ele><time>2026-04-19T17:21:38.996Z</time></trkpt><trkpt lat="41.24582" lon="15.5388467"><ele>163.0</ele><time>2026-04-19T17:21:39.996Z</time></trkpt><trkpt lat="41.2456567" lon="15.5387917"><ele>164.33333333333334</ele><time>2026-04-19T17:21:40.996Z</time></trkpt><trkpt lat="41.245495" lon="15.5387383"><ele>165.66666666666666</ele><time>2026-04-19T17:21:41.996Z</time></trkpt><trkpt lat="41.24533" lon="15.5386933"><ele>167.0</ele><time>2026-04-19T17:21:42.997Z</time></trkpt><trkpt lat="41.2451667" lon="15.5386417"><ele>167.0</ele><time>2026-04-19T17:21:43.996Z</time></trkpt><trkpt lat="41.2450033" lon="15.538595"><ele>167.0</ele><time>2026-04-19T17:21:44.997Z</time></trkpt><trkpt lat="41.2448383" lon="15.5385567"><ele>167.0</ele><time>2026-04-19T17:21:45.996Z</time></trkpt><trkpt lat="41.2446733" lon="15.5385217"><ele>167.33333333333331</ele><time>2026-04-19T17:21:46.996Z</time></trkpt><trkpt lat="41.24451" lon="15.5384783"><ele>167.66666666666666</ele><time>2026-04-19T17:21:47.997Z</time></trkpt><trkpt lat="41.2443483" lon="15.53843"><ele>168.0</ele><time>2026-04-19T17:21:48.996Z</time></trkpt><trkpt lat="41.244185" lon="15.5383867"><ele>168.0</ele><time>2026-04-19T17:21:49.996Z</time></trkpt><trkpt lat="41.2440217" lon="15.5383483"><ele>168.0</ele><time>2026-04-19T17:21:50.996Z</time></trkpt><trkpt lat="41.2438583" lon="15.5383117"><ele>168.0</ele><time>2026-04-19T17:21:51.997Z</time></trkpt><trkpt lat="41.2436933" lon="15.5382767"><ele>168.0</ele><time>2026-04-19T17:21:52.996Z</time></trkpt><trkpt lat="41.2435283" lon="15.53824"><ele>168.0</ele><time>2026-04-19T17:21:53.996Z</time></trkpt><trkpt lat="41.2433633" lon="15.5382033"><ele>168.0</ele><time>2026-04-19T17:21:54.996Z</time></trkpt><trkpt lat="41.2431983" lon="15.5381667"><ele>169.0</ele><time>2026-04-19T17:21:55.996Z</time></trkpt><trkpt lat="41.2430339" lon="15.5381294"><ele>170.0</ele><time>2026-04-19T17:21:56.996Z</time></trkpt><trkpt lat="41.2428685" lon="15.5380937"><ele>171.0</ele><time>2026-04-19T17:21:57.996Z</time></trkpt><trkpt lat="41.2427034" lon="15.5380585"><ele>171.0</ele><time>2026-04-19T17:21:58.997Z</time></trkpt><trkpt lat="41.2425383" lon="15.5380281"><ele>171.0</ele><time>2026-04-19T17:21:59.996Z</time></trkpt><trkpt lat="41.2423734" lon="15.5380015"><ele>171.0</ele><time>2026-04-19T17:22:00.996Z</time></trkpt><trkpt lat="41.242208" lon="15.5379668"><ele>170.66666666666666</ele><time>2026-04-19T17:22:01.997Z</time></trkpt><trkpt lat="41.2420402" lon="15.5379352"><ele>170.33333333333331</ele><time>2026-04-19T17:22:02.996Z</time></trkpt><trkpt lat="41.2418717" lon="15.5379024"><ele>170.0</ele><time>2026-04-19T17:22:03.996Z</time></trkpt><trkpt lat="41.2417018" lon="15.5378726"><ele>170.0</ele><time>2026-04-19T17:22:04.996Z</time></trkpt><trkpt lat="41.2415319" lon="15.5378427"><ele>170.0</ele><time>2026-04-19T17:22:05.996Z</time></trkpt><trkpt lat="41.2413619" lon="15.5378151"><ele>170.0</ele><time>2026-04-19T17:22:06.996Z</time></trkpt><trkpt lat="41.2411922" lon="15.5377882"><ele>170.0</ele><time>2026-04-19T17:22:07.997Z</time></trkpt><trkpt lat="41.2410204" lon="15.537767"><ele>170.0</ele><time>2026-04-19T17:22:08.996Z</time></trkpt><trkpt lat="41.24085" lon="15.5377445"><ele>170.0</ele><time>2026-04-19T17:22:09.996Z</time></trkpt><trkpt lat="41.2406763" lon="15.537726"><ele>170.33333333333331</ele><time>2026-04-19T17:22:10.996Z</time></trkpt><trkpt lat="41.2405039" lon="15.5377043"><ele>170.66666666666666</ele><time>2026-04-19T17:22:11.996Z</time></trkpt><trkpt lat="41.2403305" lon="15.5376871"><ele>171.0</ele><time>2026-04-19T17:22:12.996Z</time></trkpt><trkpt lat="41.2401583" lon="15.5376703"><ele>171.0</ele><time>2026-04-19T17:22:13.997Z</time></trkpt><trkpt lat="41.2399827" lon="15.5376536"><ele>171.0</ele><time>2026-04-19T17:22:14.996Z</time></trkpt><trkpt lat="41.2398059" lon="15.5376369"><ele>171.0</ele><time>2026-04-19T17:22:15.996Z</time></trkpt><trkpt lat="41.2396285" lon="15.5376248"><ele>171.66666666666666</ele><time>2026-04-19T17:22:16.996Z</time></trkpt><trkpt lat="41.2394502" lon="15.5376107"><ele>172.33333333333331</ele><time>2026-04-19T17:22:17.996Z</time></trkpt><trkpt lat="41.2392694" lon="15.5375983"><ele>173.0</ele><time>2026-04-19T17:22:18.997Z</time></trkpt><trkpt lat="41.2390886" lon="15.5375875"><ele>172.66666666666666</ele><time>2026-04-19T17:22:19.996Z</time></trkpt><trkpt lat="41.2389036" lon="15.5375738"><ele>172.33333333333334</ele><time>2026-04-19T17:22:20.996Z</time></trkpt><trkpt lat="41.238717" lon="15.5375627"><ele>172.0</ele><time>2026-04-19T17:22:21.996Z</time></trkpt><trkpt lat="41.2385304" lon="15.5375526"><ele>172.0</ele><time>2026-04-19T17:22:22.997Z</time></trkpt><trkpt lat="41.2383463" lon="15.5375459"><ele>172.0</ele><time>2026-04-19T17:22:23.996Z</time></trkpt><trkpt lat="41.2381644" lon="15.537536"><ele>172.0</ele><time>2026-04-19T17:22:24.996Z</time></trkpt><trkpt lat="41.2379844" lon="15.5375294"><ele>171.66666666666669</ele><time>2026-04-19T17:22:25.996Z</time></trkpt><trkpt lat="41.2378057" lon="15.5375251"><ele>171.33333333333334</ele><time>2026-04-19T17:22:26.996Z</time></trkpt><trkpt lat="41.2376265" lon="15.5375169"><ele>171.0</ele><time>2026-04-19T17:22:27.996Z</time></trkpt><trkpt lat="41.2374483" lon="15.5375097"><ele>171.33333333333334</ele><time>2026-04-19T17:22:28.996Z</time></trkpt><trkpt lat="41.2372687" lon="15.5375088"><ele>171.66666666666669</ele><time>2026-04-19T17:22:29.997Z</time></trkpt><trkpt lat="41.2370886" lon="15.5375104"><ele>172.0</ele><time>2026-04-19T17:22:30.996Z</time></trkpt><trkpt lat="41.2369099" lon="15.5375079"><ele>172.0</ele><time>2026-04-19T17:22:31.996Z</time></trkpt><trkpt lat="41.236733" lon="15.5375087"><ele>172.0</ele><time>2026-04-19T17:22:32.996Z</time></trkpt><trkpt lat="41.2365581" lon="15.537513"><ele>172.0</ele><time>2026-04-19T17:22:33.996Z</time></trkpt><trkpt lat="41.2363849" lon="15.5375223"><ele>172.33333333333334</ele><time>2026-04-19T17:22:34.996Z</time></trkpt><trkpt lat="41.2362143" lon="15.5375266"><ele>172.66666666666666</ele><time>2026-04-19T17:22:35.996Z</time></trkpt><trkpt lat="41.236046" lon="15.5375374"><ele>173.0</ele><time>2026-04-19T17:22:36.996Z</time></trkpt><trkpt lat="41.2358813" lon="15.537546"><ele>173.0</ele><time>2026-04-19T17:22:37.996Z</time></trkpt><trkpt lat="41.2357226" lon="15.5375569"><ele>173.0</ele><time>2026-04-19T17:22:38.996Z</time></trkpt><trkpt lat="41.2355689" lon="15.5375677"><ele>173.0</ele><time>2026-04-19T17:22:39.996Z</time></trkpt><trkpt lat="41.2354177" lon="15.537576"><ele>173.5</ele><time>2026-04-19T17:22:40.996Z</time></trkpt><trkpt lat="41.2352708" lon="15.5375879"><ele>174.0</ele><time>2026-04-19T17:22:41.996Z</time></trkpt><trkpt lat="41.2351245" lon="15.5375991"><ele>174.5</ele><time>2026-04-19T17:22:42.996Z</time></trkpt><trkpt lat="41.2349753" lon="15.5376108"><ele>175.0</ele><time>2026-04-19T17:22:43.996Z</time></trkpt><trkpt lat="41.2348225" lon="15.5376213"><ele>174.66666666666669</ele><time>2026-04-19T17:22:44.996Z</time></trkpt><trkpt lat="41.234666" lon="15.537634"><ele>174.33333333333334</ele><time>2026-04-19T17:22:45.996Z</time></trkpt><trkpt lat="41.2345086" lon="15.5376461"><ele>174.0</ele><time>2026-04-19T17:22:46.996Z</time></trkpt><trkpt lat="41.2343476" lon="15.5376612"><ele>174.0</ele><time>2026-04-19T17:22:47.996Z</time></trkpt><trkpt lat="41.2341855" lon="15.5376777"><ele>174.0</ele><time>2026-04-19T17:22:48.996Z</time></trkpt><trkpt lat="41.2340209" lon="15.5376928"><ele>174.0</ele><time>2026-04-19T17:22:49.997Z</time></trkpt><trkpt lat="41.2338556" lon="15.537708"><ele>174.0</ele><time>2026-04-19T17:22:50.996Z</time></trkpt><trkpt lat="41.2336916" lon="15.5377267"><ele>174.0</ele><time>2026-04-19T17:22:51.996Z</time></trkpt><trkpt lat="41.2335256" lon="15.5377488"><ele>174.0</ele><time>2026-04-19T17:22:52.997Z</time></trkpt><trkpt lat="41.2333617" lon="15.5377702"><ele>174.0</ele><time>2026-04-19T17:22:53.997Z</time></trkpt><trkpt lat="41.2331984" lon="15.5377942"><ele>174.0</ele><time>2026-04-19T17:22:54.997Z</time></trkpt><trkpt lat="41.2330366" lon="15.5378202"><ele>174.0</ele><time>2026-04-19T17:22:55.996Z</time></trkpt><trkpt lat="41.2328764" lon="15.5378466"><ele>174.66666666666666</ele><time>2026-04-19T17:22:56.996Z</time></trkpt><trkpt lat="41.2327154" lon="15.5378709"><ele>175.33333333333331</ele><time>2026-04-19T17:22:57.996Z</time></trkpt><trkpt lat="41.2325553" lon="15.5378952"><ele>176.0</ele><time>2026-04-19T17:22:58.997Z</time></trkpt><trkpt lat="41.2323979" lon="15.5379215"><ele>176.0</ele><time>2026-04-19T17:22:59.996Z</time></trkpt><trkpt lat="41.2322399" lon="15.5379512"><ele>176.0</ele><time>2026-04-19T17:23:00.997Z</time></trkpt><trkpt lat="41.2320803" lon="15.5379837"><ele>176.0</ele><time>2026-04-19T17:23:01.996Z</time></trkpt><trkpt lat="41.2319201" lon="15.5380144"><ele>176.0</ele><time>2026-04-19T17:23:02.996Z</time></trkpt><trkpt lat="41.2317559" lon="15.5380461"><ele>176.0</ele><time>2026-04-19T17:23:03.996Z</time></trkpt><trkpt lat="41.2315904" lon="15.53808"><ele>176.0</ele><time>2026-04-19T17:23:04.996Z</time></trkpt><trkpt lat="41.2314235" lon="15.5381173"><ele>176.0</ele><time>2026-04-19T17:23:05.996Z</time></trkpt><trkpt lat="41.2312551" lon="15.5381567"><ele>176.0</ele><time>2026-04-19T17:23:06.996Z</time></trkpt><trkpt lat="41.231088" lon="15.5381966"><ele>176.0</ele><time>2026-04-19T17:23:07.997Z</time></trkpt><trkpt lat="41.2309215" lon="15.5382352"><ele>176.0</ele><time>2026-04-19T17:23:08.997Z</time></trkpt><trkpt lat="41.2307549" lon="15.5382748"><ele>176.0</ele><time>2026-04-19T17:23:09.996Z</time></trkpt><trkpt lat="41.2305867" lon="15.5383149"><ele>176.0</ele><time>2026-04-19T17:23:10.996Z</time></trkpt><trkpt lat="41.2304157" lon="15.5383596"><ele>176.66666666666666</ele><time>2026-04-19T17:23:11.996Z</time></trkpt><trkpt lat="41.2302452" lon="15.5384057"><ele>177.33333333333334</ele><time>2026-04-19T17:23:12.997Z</time></trkpt><trkpt lat="41.2300737" lon="15.5384523"><ele>178.0</ele><time>2026-04-19T17:23:13.997Z</time></trkpt><trkpt lat="41.2299046" lon="15.5384965"><ele>177.66666666666669</ele><time>2026-04-19T17:23:14.996Z</time></trkpt><trkpt lat="41.2297379" lon="15.5385435"><ele>177.33333333333334</ele><time>2026-04-19T17:23:15.996Z</time></trkpt><trkpt lat="41.229573" lon="15.5385902"><ele>177.0</ele><time>2026-04-19T17:23:16.996Z</time></trkpt><trkpt lat="41.2294097" lon="15.5386412"><ele>177.0</ele><time>2026-04-19T17:23:17.996Z</time></trkpt><trkpt lat="41.2292467" lon="15.5386903"><ele>177.0</ele><time>2026-04-19T17:23:18.996Z</time></trkpt><trkpt lat="41.229085" lon="15.5387378"><ele>177.0</ele><time>2026-04-19T17:23:19.996Z</time></trkpt><trkpt lat="41.228925" lon="15.5387901"><ele>177.0</ele><time>2026-04-19T17:23:20.996Z</time></trkpt><trkpt lat="41.228768" lon="15.5388419"><ele>177.0</ele><time>2026-04-19T17:23:21.996Z</time></trkpt><trkpt lat="41.2286128" lon="15.5388935"><ele>177.0</ele><time>2026-04-19T17:23:22.996Z</time></trkpt><trkpt lat="41.2284569" lon="15.5389447"><ele>177.0</ele><time>2026-04-19T17:23:23.997Z</time></trkpt><trkpt lat="41.228303" lon="15.5389976"><ele>177.0</ele><time>2026-04-19T17:23:24.996Z</time></trkpt><trkpt lat="41.2281485" lon="15.5390519"><ele>177.0</ele><time>2026-04-19T17:23:25.997Z</time></trkpt><trkpt lat="41.2279925" lon="15.5391031"><ele>177.33333333333334</ele><time>2026-04-19T17:23:26.996Z</time></trkpt><trkpt lat="41.2278396" lon="15.5391559"><ele>177.66666666666669</ele><time>2026-04-19T17:23:27.996Z</time></trkpt><trkpt lat="41.2276852" lon="15.5392126"><ele>178.0</ele><time>2026-04-19T17:23:28.996Z</time></trkpt><trkpt lat="41.2275299" lon="15.5392728"><ele>178.0</ele><time>2026-04-19T17:23:29.996Z</time></trkpt><trkpt lat="41.2273709" lon="15.5393319"><ele>178.0</ele><time>2026-04-19T17:23:30.996Z</time></trkpt><trkpt lat="41.2272121" lon="15.5393966"><ele>178.0</ele><time>2026-04-19T17:23:31.997Z</time></trkpt><trkpt lat="41.2270521" lon="15.539458"><ele>178.33333333333334</ele><time>2026-04-19T17:23:32.996Z</time></trkpt><trkpt lat="41.2268918" lon="15.5395209"><ele>178.66666666666666</ele><time>2026-04-19T17:23:33.996Z</time></trkpt><trkpt lat="41.2267301" lon="15.5395845"><ele>179.0</ele><time>2026-04-19T17:23:34.997Z</time></trkpt><trkpt lat="41.2265696" lon="15.5396487"><ele>178.33333333333331</ele><time>2026-04-19T17:23:35.996Z</time></trkpt><trkpt lat="41.2264069" lon="15.5397125"><ele>177.66666666666666</ele><time>2026-04-19T17:23:36.996Z</time></trkpt><trkpt lat="41.2262422" lon="15.5397785"><ele>177.0</ele><time>2026-04-19T17:23:37.996Z</time></trkpt><trkpt lat="41.226077" lon="15.5398451"><ele>177.0</ele><time>2026-04-19T17:23:38.996Z</time></trkpt><trkpt lat="41.2259117" lon="15.5399107"><ele>177.0</ele><time>2026-04-19T17:23:39.996Z</time></trkpt><trkpt lat="41.2257453" lon="15.5399734"><ele>177.0</ele><time>2026-04-19T17:23:40.996Z</time></trkpt><trkpt lat="41.2255771" lon="15.5400406"><ele>176.66666666666666</ele><time>2026-04-19T17:23:41.996Z</time></trkpt><trkpt lat="41.2254113" lon="15.5401189"><ele>176.33333333333331</ele><time>2026-04-19T17:23:42.997Z</time></trkpt><trkpt lat="41.225247" lon="15.540183"><ele>176.0</ele><time>2026-04-19T17:23:43.996Z</time></trkpt><trkpt lat="41.2250908" lon="15.5402432"><ele>176.0</ele><time>2026-04-19T17:23:44.997Z</time></trkpt><trkpt lat="41.224942" lon="15.5403016"><ele>176.0</ele><time>2026-04-19T17:23:45.996Z</time></trkpt><trkpt lat="41.224796" lon="15.5403581"><ele>176.0</ele><time>2026-04-19T17:23:46.996Z</time></trkpt><trkpt lat="41.2246487" lon="15.5404134"><ele>177.33333333333331</ele><time>2026-04-19T17:23:47.996Z</time></trkpt><trkpt lat="41.2245004" lon="15.5404698"><ele>178.66666666666666</ele><time>2026-04-19T17:23:48.996Z</time></trkpt><trkpt lat="41.2243503" lon="15.5405279"><ele>180.0</ele><time>2026-04-19T17:23:49.996Z</time></trkpt><trkpt lat="41.2241973" lon="15.5405839"><ele>180.0</ele><time>2026-04-19T17:23:50.996Z</time></trkpt><trkpt lat="41.2240411" lon="15.5406421"><ele>180.0</ele><time>2026-04-19T17:23:51.996Z</time></trkpt><trkpt lat="41.2238856" lon="15.5407024"><ele>180.0</ele><time>2026-04-19T17:23:52.996Z</time></trkpt><trkpt lat="41.2237321" lon="15.5407624"><ele>180.0</ele><time>2026-04-19T17:23:53.996Z</time></trkpt><trkpt lat="41.2235816" lon="15.5408198"><ele>180.0</ele><time>2026-04-19T17:23:54.997Z</time></trkpt><trkpt lat="41.2234332" lon="15.54088"><ele>180.0</ele><time>2026-04-19T17:23:55.997Z</time></trkpt><trkpt lat="41.2232852" lon="15.5409338"><ele>180.66666666666666</ele><time>2026-04-19T17:23:56.997Z</time></trkpt><trkpt lat="41.2231384" lon="15.5409816"><ele>181.33333333333331</ele><time>2026-04-19T17:23:57.998Z</time></trkpt><trkpt lat="41.2229932" lon="15.541032"><ele>182.0</ele><time>2026-04-19T17:23:58.997Z</time></trkpt><trkpt lat="41.222847" lon="15.5410796"><ele>182.0</ele><time>2026-04-19T17:23:59.997Z</time></trkpt><trkpt lat="41.2227017" lon="15.5411257"><ele>182.0</ele><time>2026-04-19T17:24:00.997Z</time></trkpt><trkpt lat="41.2225579" lon="15.5411732"><ele>182.0</ele><time>2026-04-19T17:24:01.997Z</time></trkpt><trkpt lat="41.2224133" lon="15.5412179"><ele>182.0</ele><time>2026-04-19T17:24:02.998Z</time></trkpt><trkpt lat="41.222267" lon="15.5412596"><ele>181.66666666666666</ele><time>2026-04-19T17:24:03.997Z</time></trkpt><trkpt lat="41.2221189" lon="15.5413025"><ele>181.33333333333334</ele><time>2026-04-19T17:24:04.997Z</time></trkpt><trkpt lat="41.2219691" lon="15.5413458"><ele>181.0</ele><time>2026-04-19T17:24:05.998Z</time></trkpt><trkpt lat="41.2218175" lon="15.5413917"><ele>181.0</ele><time>2026-04-19T17:24:06.997Z</time></trkpt><trkpt lat="41.2216641" lon="15.5414346"><ele>181.0</ele><time>2026-04-19T17:24:07.997Z</time></trkpt><trkpt lat="41.2215089" lon="15.5414759"><ele>181.0</ele><time>2026-04-19T17:24:08.997Z</time></trkpt><trkpt lat="41.2213537" lon="15.5415174"><ele>182.0</ele><time>2026-04-19T17:24:09.997Z</time></trkpt><trkpt lat="41.2211983" lon="15.5415545"><ele>183.0</ele><time>2026-04-19T17:24:10.997Z</time></trkpt><trkpt lat="41.2210419" lon="15.5415917"><ele>184.0</ele><time>2026-04-19T17:24:11.997Z</time></trkpt><trkpt lat="41.2208865" lon="15.541634"><ele>184.0</ele><time>2026-04-19T17:24:12.997Z</time></trkpt><trkpt lat="41.2207302" lon="15.5416782"><ele>184.0</ele><time>2026-04-19T17:24:13.998Z</time></trkpt><trkpt lat="41.2205721" lon="15.5417162"><ele>184.0</ele><time>2026-04-19T17:24:14.997Z</time></trkpt><trkpt lat="41.2204133" lon="15.5417511"><ele>184.66666666666669</ele><time>2026-04-19T17:24:15.997Z</time></trkpt><trkpt lat="41.2202524" lon="15.5417804"><ele>185.33333333333334</ele><time>2026-04-19T17:24:16.997Z</time></trkpt><trkpt lat="41.2200893" lon="15.5418102"><ele>186.0</ele><time>2026-04-19T17:24:17.997Z</time></trkpt><trkpt lat="41.219927" lon="15.5418436"><ele>186.66666666666666</ele><time>2026-04-19T17:24:18.997Z</time></trkpt><trkpt lat="41.2197638" lon="15.5418736"><ele>187.33333333333331</ele><time>2026-04-19T17:24:19.997Z</time></trkpt><trkpt lat="41.2196003" lon="15.5418991"><ele>188.0</ele><time>2026-04-19T17:24:20.997Z</time></trkpt><trkpt lat="41.219434" lon="15.5419253"><ele>188.0</ele><time>2026-04-19T17:24:21.997Z</time></trkpt><trkpt lat="41.2192641" lon="15.5419487"><ele>188.0</ele><time>2026-04-19T17:24:22.997Z</time></trkpt><trkpt lat="41.219091" lon="15.5419733"><ele>188.0</ele><time>2026-04-19T17:24:23.998Z</time></trkpt><trkpt lat="41.2189156" lon="15.5419994"><ele>188.33333333333331</ele><time>2026-04-19T17:24:24.997Z</time></trkpt><trkpt lat="41.2187375" lon="15.5420237"><ele>188.66666666666666</ele><time>2026-04-19T17:24:25.997Z</time></trkpt><trkpt lat="41.2185559" lon="15.542044"><ele>189.0</ele><time>2026-04-19T17:24:26.997Z</time></trkpt><trkpt lat="41.2183751" lon="15.5420663"><ele>189.66666666666666</ele><time>2026-04-19T17:24:27.997Z</time></trkpt><trkpt lat="41.2181937" lon="15.5420812"><ele>190.33333333333331</ele><time>2026-04-19T17:24:28.998Z</time></trkpt><trkpt lat="41.2180162" lon="15.5420972"><ele>191.0</ele><time>2026-04-19T17:24:29.997Z</time></trkpt><trkpt lat="41.2178407" lon="15.5421167"><ele>191.0</ele><time>2026-04-19T17:24:30.997Z</time></trkpt><trkpt lat="41.217666" lon="15.5421369"><ele>191.0</ele><time>2026-04-19T17:24:31.997Z</time></trkpt><trkpt lat="41.2174901" lon="15.5421568"><ele>191.0</ele><time>2026-04-19T17:24:32.997Z</time></trkpt><trkpt lat="41.217315" lon="15.5421709"><ele>191.33333333333331</ele><time>2026-04-19T17:24:33.997Z</time></trkpt><trkpt lat="41.2171413" lon="15.542181"><ele>191.66666666666666</ele><time>2026-04-19T17:24:34.997Z</time></trkpt><trkpt lat="41.2169681" lon="15.5421887"><ele>192.0</ele><time>2026-04-19T17:24:35.998Z</time></trkpt><trkpt lat="41.2167989" lon="15.5421909"><ele>192.0</ele><time>2026-04-19T17:24:36.998Z</time></trkpt><trkpt lat="41.2166285" lon="15.5421928"><ele>192.0</ele><time>2026-04-19T17:24:37.997Z</time></trkpt><trkpt lat="41.2164582" lon="15.5421944"><ele>192.0</ele><time>2026-04-19T17:24:38.997Z</time></trkpt><trkpt lat="41.2162869" lon="15.5421983"><ele>192.0</ele><time>2026-04-19T17:24:39.997Z</time></trkpt><trkpt lat="41.2161149" lon="15.5421983"><ele>192.0</ele><time>2026-04-19T17:24:40.997Z</time></trkpt><trkpt lat="41.2159432" lon="15.5422006"><ele>192.0</ele><time>2026-04-19T17:24:41.997Z</time></trkpt><trkpt lat="41.2157718" lon="15.5422002"><ele>193.0</ele><time>2026-04-19T17:24:42.997Z</time></trkpt><trkpt lat="41.2155988" lon="15.5422001"><ele>194.0</ele><time>2026-04-19T17:24:43.997Z</time></trkpt><trkpt lat="41.215428" lon="15.5421976"><ele>195.0</ele><time>2026-04-19T17:24:44.997Z</time></trkpt><trkpt lat="41.2152581" lon="15.5421947"><ele>195.0</ele><time>2026-04-19T17:24:45.998Z</time></trkpt><trkpt lat="41.2150897" lon="15.542189"><ele>195.0</ele><time>2026-04-19T17:24:46.997Z</time></trkpt><trkpt lat="41.2149231" lon="15.5421813"><ele>195.0</ele><time>2026-04-19T17:24:47.998Z</time></trkpt><trkpt lat="41.2147581" lon="15.5421699"><ele>195.66666666666669</ele><time>2026-04-19T17:24:48.997Z</time></trkpt><trkpt lat="41.2145949" lon="15.5421582"><ele>196.33333333333334</ele><time>2026-04-19T17:24:49.997Z</time></trkpt><trkpt lat="41.2144332" lon="15.5421432"><ele>197.0</ele><time>2026-04-19T17:24:50.997Z</time></trkpt><trkpt lat="41.2142728" lon="15.5421306"><ele>197.0</ele><time>2026-04-19T17:24:51.997Z</time></trkpt><trkpt lat="41.2141118" lon="15.5421136"><ele>197.0</ele><time>2026-04-19T17:24:52.998Z</time></trkpt><trkpt lat="41.213953" lon="15.5420904"><ele>197.0</ele><time>2026-04-19T17:24:53.997Z</time></trkpt><trkpt lat="41.2137948" lon="15.5420694"><ele>197.33333333333334</ele><time>2026-04-19T17:24:54.997Z</time></trkpt><trkpt lat="41.2136378" lon="15.5420515"><ele>197.66666666666669</ele><time>2026-04-19T17:24:55.997Z</time></trkpt><trkpt lat="41.2134797" lon="15.5420321"><ele>198.0</ele><time>2026-04-19T17:24:56.997Z</time></trkpt><trkpt lat="41.21332" lon="15.5420097"><ele>198.33333333333331</ele><time>2026-04-19T17:24:57.998Z</time></trkpt><trkpt lat="41.2131584" lon="15.5419844"><ele>198.66666666666666</ele><time>2026-04-19T17:24:58.998Z</time></trkpt><trkpt lat="41.212995" lon="15.5419606"><ele>199.0</ele><time>2026-04-19T17:24:59.998Z</time></trkpt><trkpt lat="41.2128287" lon="15.5419366"><ele>199.0</ele><time>2026-04-19T17:25:00.997Z</time></trkpt><trkpt lat="41.2126589" lon="15.5419121"><ele>199.0</ele><time>2026-04-19T17:25:01.997Z</time></trkpt><trkpt lat="41.212487" lon="15.5418813"><ele>199.0</ele><time>2026-04-19T17:25:02.997Z</time></trkpt><trkpt lat="41.2123122" lon="15.5418484"><ele>199.0</ele><time>2026-04-19T17:25:03.997Z</time></trkpt><trkpt lat="41.2121328" lon="15.5418128"><ele>199.0</ele><time>2026-04-19T17:25:04.997Z</time></trkpt><trkpt lat="41.2119537" lon="15.541775"><ele>199.0</ele><time>2026-04-19T17:25:05.997Z</time></trkpt><trkpt lat="41.2117713" lon="15.5417427"><ele>199.0</ele><time>2026-04-19T17:25:06.997Z</time></trkpt><trkpt lat="41.211589" lon="15.5417013"><ele>199.0</ele><time>2026-04-19T17:25:07.997Z</time></trkpt><trkpt lat="41.2114043" lon="15.5416561"><ele>199.0</ele><time>2026-04-19T17:25:08.997Z</time></trkpt><trkpt lat="41.2112177" lon="15.5416132"><ele>200.0</ele><time>2026-04-19T17:25:09.998Z</time></trkpt><trkpt lat="41.2110306" lon="15.5415699"><ele>201.0</ele><time>2026-04-19T17:25:10.997Z</time></trkpt><trkpt lat="41.2108449" lon="15.5415218"><ele>202.0</ele><time>2026-04-19T17:25:11.997Z</time></trkpt><trkpt lat="41.2106585" lon="15.5414734"><ele>203.0</ele><time>2026-04-19T17:25:12.996Z</time></trkpt><trkpt lat="41.2104733" lon="15.5414215"><ele>204.0</ele><time>2026-04-19T17:25:13.996Z</time></trkpt><trkpt lat="41.2102911" lon="15.5413652"><ele>205.0</ele><time>2026-04-19T17:25:14.997Z</time></trkpt><trkpt lat="41.210111" lon="15.5413111"><ele>205.0</ele><time>2026-04-19T17:25:15.996Z</time></trkpt><trkpt lat="41.2099314" lon="15.5412576"><ele>205.0</ele><time>2026-04-19T17:25:16.996Z</time></trkpt><trkpt lat="41.2097543" lon="15.5412008"><ele>205.0</ele><time>2026-04-19T17:25:17.997Z</time></trkpt><trkpt lat="41.2095779" lon="15.5411418"><ele>205.0</ele><time>2026-04-19T17:25:18.997Z</time></trkpt><trkpt lat="41.2094029" lon="15.5410821"><ele>205.0</ele><time>2026-04-19T17:25:19.996Z</time></trkpt><trkpt lat="41.2092295" lon="15.5410213"><ele>205.0</ele><time>2026-04-19T17:25:20.997Z</time></trkpt><trkpt lat="41.2090577" lon="15.5409623"><ele>206.33333333333331</ele><time>2026-04-19T17:25:21.996Z</time></trkpt><trkpt lat="41.2088861" lon="15.5409026"><ele>207.66666666666669</ele><time>2026-04-19T17:25:22.996Z</time></trkpt><trkpt lat="41.2087146" lon="15.5408439"><ele>209.0</ele><time>2026-04-19T17:25:23.996Z</time></trkpt><trkpt lat="41.2085431" lon="15.5407866"><ele>209.0</ele><time>2026-04-19T17:25:24.996Z</time></trkpt><trkpt lat="41.2083729" lon="15.5407253"><ele>209.0</ele><time>2026-04-19T17:25:25.997Z</time></trkpt><trkpt lat="41.2082032" lon="15.5406637"><ele>209.0</ele><time>2026-04-19T17:25:26.997Z</time></trkpt><trkpt lat="41.2080405" lon="15.5406049"><ele>208.66666666666669</ele><time>2026-04-19T17:25:27.997Z</time></trkpt><trkpt lat="41.207885" lon="15.5405496"><ele>208.33333333333331</ele><time>2026-04-19T17:25:28.996Z</time></trkpt><trkpt lat="41.2077308" lon="15.5404981"><ele>208.0</ele><time>2026-04-19T17:25:29.996Z</time></trkpt><trkpt lat="41.2075764" lon="15.5404441"><ele>208.0</ele><time>2026-04-19T17:25:30.996Z</time></trkpt><trkpt lat="41.2074243" lon="15.5403875"><ele>208.0</ele><time>2026-04-19T17:25:31.996Z</time></trkpt><trkpt lat="41.2072715" lon="15.5403288"><ele>208.0</ele><time>2026-04-19T17:25:32.996Z</time></trkpt><trkpt lat="41.2071168" lon="15.5402747"><ele>208.0</ele><time>2026-04-19T17:25:33.996Z</time></trkpt><trkpt lat="41.2069602" lon="15.5402231"><ele>208.0</ele><time>2026-04-19T17:25:34.996Z</time></trkpt><trkpt lat="41.206802" lon="15.5401714"><ele>208.0</ele><time>2026-04-19T17:25:35.996Z</time></trkpt><trkpt lat="41.206642" lon="15.5401173"><ele>208.33333333333331</ele><time>2026-04-19T17:25:36.996Z</time></trkpt><trkpt lat="41.2064803" lon="15.5400634"><ele>208.66666666666669</ele><time>2026-04-19T17:25:37.997Z</time></trkpt><trkpt lat="41.2063196" lon="15.5400038"><ele>209.0</ele><time>2026-04-19T17:25:38.996Z</time></trkpt><trkpt lat="41.2061556" lon="15.5399467"><ele>209.0</ele><time>2026-04-19T17:25:39.996Z</time></trkpt><trkpt lat="41.2059888" lon="15.539889"><ele>209.0</ele><time>2026-04-19T17:25:40.996Z</time></trkpt><trkpt lat="41.2058202" lon="15.5398274"><ele>209.0</ele><time>2026-04-19T17:25:41.996Z</time></trkpt><trkpt lat="41.2056504" lon="15.539768"><ele>209.66666666666669</ele><time>2026-04-19T17:25:42.996Z</time></trkpt><trkpt lat="41.2054817" lon="15.5397083"><ele>210.33333333333331</ele><time>2026-04-19T17:25:43.997Z</time></trkpt><trkpt lat="41.2053146" lon="15.5396529"><ele>211.0</ele><time>2026-04-19T17:25:44.997Z</time></trkpt><trkpt lat="41.2051494" lon="15.539597"><ele>211.33333333333331</ele><time>2026-04-19T17:25:45.996Z</time></trkpt><trkpt lat="41.2049847" lon="15.5395392"><ele>211.66666666666669</ele><time>2026-04-19T17:25:46.997Z</time></trkpt><trkpt lat="41.2048215" lon="15.5394805"><ele>212.0</ele><time>2026-04-19T17:25:47.996Z</time></trkpt><trkpt lat="41.2046596" lon="15.5394221"><ele>212.0</ele><time>2026-04-19T17:25:48.996Z</time></trkpt><trkpt lat="41.2044993" lon="15.5393657"><ele>212.0</ele><time>2026-04-19T17:25:49.996Z</time></trkpt><trkpt lat="41.2043395" lon="15.5393062"><ele>212.0</ele><time>2026-04-19T17:25:50.996Z</time></trkpt><trkpt lat="41.2041769" lon="15.539246"><ele>212.0</ele><time>2026-04-19T17:25:51.996Z</time></trkpt><trkpt lat="41.2040148" lon="15.5391848"><ele>212.0</ele><time>2026-04-19T17:25:52.996Z</time></trkpt><trkpt lat="41.2038516" lon="15.5391221"><ele>212.0</ele><time>2026-04-19T17:25:53.997Z</time></trkpt><trkpt lat="41.2036894" lon="15.5390624"><ele>212.0</ele><time>2026-04-19T17:25:54.996Z</time></trkpt><trkpt lat="41.2035264" lon="15.5390047"><ele>212.0</ele><time>2026-04-19T17:25:55.997Z</time></trkpt><trkpt lat="41.2033632" lon="15.5389444"><ele>212.0</ele><time>2026-04-19T17:25:56.996Z</time></trkpt><trkpt lat="41.203201" lon="15.5388866"><ele>211.66666666666669</ele><time>2026-04-19T17:25:57.996Z</time></trkpt><trkpt lat="41.2030398" lon="15.5388332"><ele>211.33333333333331</ele><time>2026-04-19T17:25:58.996Z</time></trkpt><trkpt lat="41.2028795" lon="15.5387765"><ele>211.0</ele><time>2026-04-19T17:25:59.996Z</time></trkpt><trkpt lat="41.202718" lon="15.5387197"><ele>211.0</ele><time>2026-04-19T17:26:00.996Z</time></trkpt><trkpt lat="41.2025565" lon="15.5386629"><ele>211.0</ele><time>2026-04-19T17:26:01.996Z</time></trkpt><trkpt lat="41.2023937" lon="15.5386063"><ele>211.0</ele><time>2026-04-19T17:26:02.996Z</time></trkpt><trkpt lat="41.2022328" lon="15.5385507"><ele>211.0</ele><time>2026-04-19T17:26:03.997Z</time></trkpt><trkpt lat="41.2020746" lon="15.5384936"><ele>211.0</ele><time>2026-04-19T17:26:04.996Z</time></trkpt><trkpt lat="41.2019165" lon="15.5384369"><ele>211.0</ele><time>2026-04-19T17:26:05.996Z</time></trkpt><trkpt lat="41.2017599" lon="15.5383804"><ele>211.0</ele><time>2026-04-19T17:26:06.996Z</time></trkpt><trkpt lat="41.2016044" lon="15.5383272"><ele>211.0</ele><time>2026-04-19T17:26:07.996Z</time></trkpt><trkpt lat="41.2014511" lon="15.5382707"><ele>211.0</ele><time>2026-04-19T17:26:08.996Z</time></trkpt><trkpt lat="41.201298" lon="15.5382141"><ele>211.33333333333331</ele><time>2026-04-19T17:26:09.996Z</time></trkpt><trkpt lat="41.2011463" lon="15.5381577"><ele>211.66666666666669</ele><time>2026-04-19T17:26:10.997Z</time></trkpt><trkpt lat="41.2009949" lon="15.5381"><ele>212.0</ele><time>2026-04-19T17:26:11.996Z</time></trkpt><trkpt lat="41.2008431" lon="15.5380418"><ele>212.0</ele><time>2026-04-19T17:26:12.997Z</time></trkpt><trkpt lat="41.2006884" lon="15.5379833"><ele>212.0</ele><time>2026-04-19T17:26:13.997Z</time></trkpt><trkpt lat="41.2005306" lon="15.5379259"><ele>212.0</ele><time>2026-04-19T17:26:14.997Z</time></trkpt><trkpt lat="41.2003687" lon="15.5378673"><ele>211.33333333333334</ele><time>2026-04-19T17:26:15.997Z</time></trkpt><trkpt lat="41.2002038" lon="15.5378075"><ele>210.66666666666669</ele><time>2026-04-19T17:26:16.997Z</time></trkpt><trkpt lat="41.2000342" lon="15.5377494"><ele>210.0</ele><time>2026-04-19T17:26:17.996Z</time></trkpt><trkpt lat="41.1998625" lon="15.5376909"><ele>211.0</ele><time>2026-04-19T17:26:18.996Z</time></trkpt><trkpt lat="41.1996918" lon="15.5376267"><ele>212.0</ele><time>2026-04-19T17:26:19.997Z</time></trkpt><trkpt lat="41.1995216" lon="15.5375642"><ele>213.0</ele><time>2026-04-19T17:26:20.996Z</time></trkpt><trkpt lat="41.1993502" lon="15.537508"><ele>213.0</ele><time>2026-04-19T17:26:21.996Z</time></trkpt><trkpt lat="41.1991812" lon="15.5374458"><ele>213.0</ele><time>2026-04-19T17:26:22.997Z</time></trkpt><trkpt lat="41.1990133" lon="15.5373842"><ele>213.0</ele><time>2026-04-19T17:26:23.996Z</time></trkpt><trkpt lat="41.198849" lon="15.5373216"><ele>214.0</ele><time>2026-04-19T17:26:24.996Z</time></trkpt><trkpt lat="41.1986886" lon="15.5372611"><ele>215.0</ele><time>2026-04-19T17:26:25.996Z</time></trkpt><trkpt lat="41.1985279" lon="15.5372069"><ele>216.0</ele><time>2026-04-19T17:26:26.996Z</time></trkpt><trkpt lat="41.1983664" lon="15.5371555"><ele>216.0</ele><time>2026-04-19T17:26:27.996Z</time></trkpt><trkpt lat="41.1982048" lon="15.5371018"><ele>216.0</ele><time>2026-04-19T17:26:28.996Z</time></trkpt><trkpt lat="41.1980435" lon="15.5370484"><ele>216.0</ele><time>2026-04-19T17:26:29.996Z</time></trkpt><trkpt lat="41.197884" lon="15.5369937"><ele>216.66666666666669</ele><time>2026-04-19T17:26:30.997Z</time></trkpt><trkpt lat="41.1977291" lon="15.5369372"><ele>217.33333333333334</ele><time>2026-04-19T17:26:31.996Z</time></trkpt><trkpt lat="41.197576" lon="15.5368841"><ele>218.0</ele><time>2026-04-19T17:26:32.996Z</time></trkpt><trkpt lat="41.1974259" lon="15.5368323"><ele>218.33333333333334</ele><time>2026-04-19T17:26:33.996Z</time></trkpt><trkpt lat="41.1972766" lon="15.5367786"><ele>218.66666666666669</ele><time>2026-04-19T17:26:34.996Z</time></trkpt><trkpt lat="41.197128" lon="15.5367217"><ele>219.0</ele><time>2026-04-19T17:26:35.996Z</time></trkpt><trkpt lat="41.1969781" lon="15.536666"><ele>219.0</ele><time>2026-04-19T17:26:36.996Z</time></trkpt><trkpt lat="41.1968256" lon="15.5366107"><ele>219.0</ele><time>2026-04-19T17:26:37.997Z</time></trkpt><trkpt lat="41.1966707" lon="15.5365554"><ele>219.0</ele><time>2026-04-19T17:26:38.996Z</time></trkpt><trkpt lat="41.1965134" lon="15.536501"><ele>219.33333333333331</ele><time>2026-04-19T17:26:39.996Z</time></trkpt><trkpt lat="41.1963552" lon="15.5364427"><ele>219.66666666666666</ele><time>2026-04-19T17:26:40.996Z</time></trkpt><trkpt lat="41.1961953" lon="15.5363842"><ele>220.0</ele><time>2026-04-19T17:26:41.997Z</time></trkpt><trkpt lat="41.1960348" lon="15.536329"><ele>220.0</ele><time>2026-04-19T17:26:42.996Z</time></trkpt><trkpt lat="41.1958748" lon="15.5362775"><ele>220.0</ele><time>2026-04-19T17:26:43.996Z</time></trkpt><trkpt lat="41.1957148" lon="15.5362237"><ele>220.0</ele><time>2026-04-19T17:26:44.996Z</time></trkpt><trkpt lat="41.1955564" lon="15.536168"><ele>220.33333333333331</ele><time>2026-04-19T17:26:45.996Z</time></trkpt><trkpt lat="41.1953982" lon="15.5361117"><ele>220.66666666666669</ele><time>2026-04-19T17:26:46.996Z</time></trkpt><trkpt lat="41.1952431" lon="15.5360554"><ele>221.0</ele><time>2026-04-19T17:26:47.996Z</time></trkpt><trkpt lat="41.1950898" lon="15.5360014"><ele>221.0</ele><time>2026-04-19T17:26:48.996Z</time></trkpt><trkpt lat="41.1949364" lon="15.5359489"><ele>221.0</ele><time>2026-04-19T17:26:49.996Z</time></trkpt><trkpt lat="41.1947817" lon="15.5358924"><ele>221.0</ele><time>2026-04-19T17:26:50.996Z</time></trkpt><trkpt lat="41.1946265" lon="15.5358368"><ele>222.0</ele><time>2026-04-19T17:26:51.996Z</time></trkpt><trkpt lat="41.1944686" lon="15.5357802"><ele>223.0</ele><time>2026-04-19T17:26:52.996Z</time></trkpt><trkpt lat="41.194309" lon="15.5357247"><ele>224.0</ele><time>2026-04-19T17:26:53.996Z</time></trkpt><trkpt lat="41.1941476" lon="15.5356716"><ele>224.0</ele><time>2026-04-19T17:26:54.997Z</time></trkpt><trkpt lat="41.1939841" lon="15.535617"><ele>224.0</ele><time>2026-04-19T17:26:55.996Z</time></trkpt><trkpt lat="41.1938204" lon="15.5355586"><ele>224.0</ele><time>2026-04-19T17:26:56.996Z</time></trkpt><trkpt lat="41.193654" lon="15.5355012"><ele>224.0</ele><time>2026-04-19T17:26:57.996Z</time></trkpt><trkpt lat="41.1934869" lon="15.5354431"><ele>224.0</ele><time>2026-04-19T17:26:58.996Z</time></trkpt><trkpt lat="41.1933172" lon="15.5353834"><ele>224.0</ele><time>2026-04-19T17:26:59.996Z</time></trkpt><trkpt lat="41.1931481" lon="15.5353209"><ele>223.66666666666669</ele><time>2026-04-19T17:27:00.996Z</time></trkpt><trkpt lat="41.1929782" lon="15.535259"><ele>223.33333333333331</ele><time>2026-04-19T17:27:01.997Z</time></trkpt><trkpt lat="41.1928069" lon="15.5351982"><ele>223.0</ele><time>2026-04-19T17:27:02.997Z</time></trkpt><trkpt lat="41.1926375" lon="15.5351344"><ele>223.0</ele><time>2026-04-19T17:27:03.996Z</time></trkpt><trkpt lat="41.1924678" lon="15.535072"><ele>223.0</ele><time>2026-04-19T17:27:04.997Z</time></trkpt><trkpt lat="41.1922978" lon="15.5350094"><ele>223.0</ele><time>2026-04-19T17:27:05.996Z</time></trkpt><trkpt lat="41.1921266" lon="15.534947"><ele>222.66666666666666</ele><time>2026-04-19T17:27:06.996Z</time></trkpt><trkpt lat="41.1919564" lon="15.5348877"><ele>222.33333333333331</ele><time>2026-04-19T17:27:07.996Z</time></trkpt><trkpt lat="41.1917893" lon="15.5348317"><ele>222.0</ele><time>2026-04-19T17:27:08.996Z</time></trkpt><trkpt lat="41.1916258" lon="15.5347743"><ele>222.66666666666669</ele><time>2026-04-19T17:27:09.996Z</time></trkpt><trkpt lat="41.1914641" lon="15.5347163"><ele>223.33333333333334</ele><time>2026-04-19T17:27:10.996Z</time></trkpt><trkpt lat="41.1913039" lon="15.5346574"><ele>224.0</ele><time>2026-04-19T17:27:11.996Z</time></trkpt><trkpt lat="41.1911429" lon="15.534602"><ele>223.33333333333334</ele><time>2026-04-19T17:27:12.996Z</time></trkpt><trkpt lat="41.1909843" lon="15.5345438"><ele>222.66666666666669</ele><time>2026-04-19T17:27:13.996Z</time></trkpt><trkpt lat="41.1908248" lon="15.5344869"><ele>222.0</ele><time>2026-04-19T17:27:14.996Z</time></trkpt><trkpt lat="41.1906648" lon="15.5344308"><ele>222.0</ele><time>2026-04-19T17:27:15.996Z</time></trkpt><trkpt lat="41.1905047" lon="15.5343711"><ele>222.0</ele><time>2026-04-19T17:27:16.996Z</time></trkpt><trkpt lat="41.1903408" lon="15.5343122"><ele>222.0</ele><time>2026-04-19T17:27:17.996Z</time></trkpt><trkpt lat="41.1901757" lon="15.5342524"><ele>222.0</ele><time>2026-04-19T17:27:18.996Z</time></trkpt><trkpt lat="41.1900091" lon="15.534196"><ele>222.0</ele><time>2026-04-19T17:27:19.996Z</time></trkpt><trkpt lat="41.1898408" lon="15.5341413"><ele>222.0</ele><time>2026-04-19T17:27:20.996Z</time></trkpt><trkpt lat="41.189672" lon="15.5340852"><ele>222.0</ele><time>2026-04-19T17:27:21.997Z</time></trkpt><trkpt lat="41.189503" lon="15.5340285"><ele>222.0</ele><time>2026-04-19T17:27:22.996Z</time></trkpt><trkpt lat="41.1893317" lon="15.5339704"><ele>222.0</ele><time>2026-04-19T17:27:23.996Z</time></trkpt><trkpt lat="41.1891599" lon="15.5339123"><ele>222.66666666666669</ele><time>2026-04-19T17:27:24.996Z</time></trkpt><trkpt lat="41.188988" lon="15.533855"><ele>223.33333333333334</ele><time>2026-04-19T17:27:25.996Z</time></trkpt><trkpt lat="41.1888163" lon="15.5338028"><ele>224.0</ele><time>2026-04-19T17:27:26.996Z</time></trkpt><trkpt lat="41.188646" lon="15.5337512"><ele>224.0</ele><time>2026-04-19T17:27:27.996Z</time></trkpt><trkpt lat="41.1884777" lon="15.5337043"><ele>224.0</ele><time>2026-04-19T17:27:28.996Z</time></trkpt><trkpt lat="41.1883137" lon="15.5336567"><ele>224.0</ele><time>2026-04-19T17:27:29.997Z</time></trkpt><trkpt lat="41.1881509" lon="15.5336136"><ele>224.33333333333334</ele><time>2026-04-19T17:27:30.997Z</time></trkpt><trkpt lat="41.187988" lon="15.5335749"><ele>224.66666666666669</ele><time>2026-04-19T17:27:31.996Z</time></trkpt><trkpt lat="41.1878263" lon="15.5335359"><ele>225.0</ele><time>2026-04-19T17:27:32.996Z</time></trkpt><trkpt lat="41.1876633" lon="15.533498"><ele>225.0</ele><time>2026-04-19T17:27:33.997Z</time></trkpt><trkpt lat="41.1875" lon="15.5334611"><ele>225.0</ele><time>2026-04-19T17:27:34.996Z</time></trkpt><trkpt lat="41.1873364" lon="15.5334207"><ele>225.0</ele><time>2026-04-19T17:27:35.996Z</time></trkpt><trkpt lat="41.187173" lon="15.5333794"><ele>226.0</ele><time>2026-04-19T17:27:36.996Z</time></trkpt><trkpt lat="41.1870085" lon="15.5333393"><ele>227.0</ele><time>2026-04-19T17:27:37.996Z</time></trkpt><trkpt lat="41.1868437" lon="15.5333081"><ele>228.0</ele><time>2026-04-19T17:27:38.996Z</time></trkpt><trkpt lat="41.1866802" lon="15.5332758"><ele>228.0</ele><time>2026-04-19T17:27:39.996Z</time></trkpt><trkpt lat="41.1865168" lon="15.5332498"><ele>228.0</ele><time>2026-04-19T17:27:40.996Z</time></trkpt><trkpt lat="41.1863533" lon="15.5332241"><ele>228.0</ele><time>2026-04-19T17:27:41.996Z</time></trkpt><trkpt lat="41.1861884" lon="15.5331991"><ele>228.66666666666669</ele><time>2026-04-19T17:27:42.996Z</time></trkpt><trkpt lat="41.1860233" lon="15.5331739"><ele>229.33333333333334</ele><time>2026-04-19T17:27:43.996Z</time></trkpt><trkpt lat="41.1858569" lon="15.5331456"><ele>230.0</ele><time>2026-04-19T17:27:44.996Z</time></trkpt><trkpt lat="41.1856887" lon="15.533116"><ele>231.0</ele><time>2026-04-19T17:27:45.996Z</time></trkpt><trkpt lat="41.1855188" lon="15.5330879"><ele>232.0</ele><time>2026-04-19T17:27:46.996Z</time></trkpt><trkpt lat="41.1853484" lon="15.533059"><ele>233.0</ele><time>2026-04-19T17:27:47.996Z</time></trkpt><trkpt lat="41.1851769" lon="15.5330277"><ele>233.0</ele><time>2026-04-19T17:27:48.996Z</time></trkpt><trkpt lat="41.1850038" lon="15.5329986"><ele>233.0</ele><time>2026-04-19T17:27:49.996Z</time></trkpt><trkpt lat="41.1848304" lon="15.53297"><ele>233.0</ele><time>2026-04-19T17:27:50.997Z</time></trkpt><trkpt lat="41.1846581" lon="15.5329417"><ele>233.0</ele><time>2026-04-19T17:27:51.996Z</time></trkpt><trkpt lat="41.1844851" lon="15.5329133"><ele>233.0</ele><time>2026-04-19T17:27:52.996Z</time></trkpt><trkpt lat="41.1843143" lon="15.5328849"><ele>233.0</ele><time>2026-04-19T17:27:53.996Z</time></trkpt><trkpt lat="41.1841431" lon="15.5328533"><ele>235.0</ele><time>2026-04-19T17:27:54.997Z</time></trkpt><trkpt lat="41.1839728" lon="15.5328201"><ele>237.0</ele><time>2026-04-19T17:27:55.997Z</time></trkpt><trkpt lat="41.1838029" lon="15.5327848"><ele>239.0</ele><time>2026-04-19T17:27:56.996Z</time></trkpt><trkpt lat="41.1836342" lon="15.5327483"><ele>239.0</ele><time>2026-04-19T17:27:57.997Z</time></trkpt><trkpt lat="41.1834647" lon="15.5327096"><ele>239.0</ele><time>2026-04-19T17:27:58.996Z</time></trkpt><trkpt lat="41.1832949" lon="15.5326722"><ele>239.0</ele><time>2026-04-19T17:27:59.997Z</time></trkpt><trkpt lat="41.1831236" lon="15.5326332"><ele>239.0</ele><time>2026-04-19T17:28:00.996Z</time></trkpt><trkpt lat="41.1829503" lon="15.5325944"><ele>239.0</ele><time>2026-04-19T17:28:01.996Z</time></trkpt><trkpt lat="41.1827765" lon="15.5325496"><ele>239.0</ele><time>2026-04-19T17:28:02.996Z</time></trkpt><trkpt lat="41.1826017" lon="15.5325"><ele>239.0</ele><time>2026-04-19T17:28:03.996Z</time></trkpt><trkpt lat="41.1824255" lon="15.532448"><ele>239.0</ele><time>2026-04-19T17:28:04.996Z</time></trkpt><trkpt lat="41.1822515" lon="15.5323984"><ele>239.0</ele><time>2026-04-19T17:28:05.996Z</time></trkpt><trkpt lat="41.1820769" lon="15.532351"><ele>239.66666666666669</ele><time>2026-04-19T17:28:06.996Z</time></trkpt><trkpt lat="41.181905" lon="15.5323017"><ele>240.33333333333331</ele><time>2026-04-19T17:28:07.996Z</time></trkpt><trkpt lat="41.1817317" lon="15.5322483"><ele>241.0</ele><time>2026-04-19T17:28:08.997Z</time></trkpt><trkpt lat="41.18156" lon="15.532195"><ele>240.66666666666666</ele><time>2026-04-19T17:28:09.997Z</time></trkpt><trkpt lat="41.1813867" lon="15.53214"><ele>240.33333333333331</ele><time>2026-04-19T17:28:10.996Z</time></trkpt><trkpt lat="41.1812167" lon="15.5320783"><ele>240.0</ele><time>2026-04-19T17:28:11.996Z</time></trkpt><trkpt lat="41.1810483" lon="15.5320167"><ele>242.66666666666669</ele><time>2026-04-19T17:28:12.997Z</time></trkpt><trkpt lat="41.18088" lon="15.5319567"><ele>245.33333333333334</ele><time>2026-04-19T17:28:13.997Z</time></trkpt><trkpt lat="41.180715" lon="15.5319017"><ele>248.0</ele><time>2026-04-19T17:28:14.996Z</time></trkpt><trkpt lat="41.1805517" lon="15.53184"><ele>248.33333333333334</ele><time>2026-04-19T17:28:15.997Z</time></trkpt><trkpt lat="41.1803883" lon="15.5317783"><ele>248.66666666666669</ele><time>2026-04-19T17:28:16.997Z</time></trkpt><trkpt lat="41.1802267" lon="15.5317117"><ele>249.0</ele><time>2026-04-19T17:28:17.996Z</time></trkpt><trkpt lat="41.1800633" lon="15.531645"><ele>249.0</ele><time>2026-04-19T17:28:18.996Z</time></trkpt><trkpt lat="41.1799" lon="15.53158"><ele>249.0</ele><time>2026-04-19T17:28:19.996Z</time></trkpt><trkpt lat="41.179735" lon="15.53152"><ele>249.0</ele><time>2026-04-19T17:28:20.996Z</time></trkpt><trkpt lat="41.1795733" lon="15.5314533"><ele>248.66666666666669</ele><time>2026-04-19T17:28:21.996Z</time></trkpt><trkpt lat="41.1794133" lon="15.531385"><ele>248.33333333333334</ele><time>2026-04-19T17:28:22.996Z</time></trkpt><trkpt lat="41.179255" lon="15.531315"><ele>248.0</ele><time>2026-04-19T17:28:23.996Z</time></trkpt><trkpt lat="41.1790983" lon="15.5312517"><ele>248.66666666666669</ele><time>2026-04-19T17:28:24.997Z</time></trkpt><trkpt lat="41.178945" lon="15.5311833"><ele>249.33333333333331</ele><time>2026-04-19T17:28:25.996Z</time></trkpt><trkpt lat="41.1787933" lon="15.5311167"><ele>250.0</ele><time>2026-04-19T17:28:26.996Z</time></trkpt><trkpt lat="41.1786433" lon="15.531045"><ele>250.0</ele><time>2026-04-19T17:28:27.996Z</time></trkpt><trkpt lat="41.1784917" lon="15.5309783"><ele>250.0</ele><time>2026-04-19T17:28:28.996Z</time></trkpt><trkpt lat="41.1783367" lon="15.530915"><ele>250.0</ele><time>2026-04-19T17:28:29.996Z</time></trkpt><trkpt lat="41.1781817" lon="15.53085"><ele>250.0</ele><time>2026-04-19T17:28:30.996Z</time></trkpt><trkpt lat="41.1780267" lon="15.530785"><ele>250.0</ele><time>2026-04-19T17:28:31.997Z</time></trkpt><trkpt lat="41.1778733" lon="15.5307167"><ele>250.0</ele><time>2026-04-19T17:28:32.996Z</time></trkpt><trkpt lat="41.1777183" lon="15.5306467"><ele>250.0</ele><time>2026-04-19T17:28:33.996Z</time></trkpt><trkpt lat="41.1775633" lon="15.530575"><ele>250.0</ele><time>2026-04-19T17:28:34.997Z</time></trkpt><trkpt lat="41.1774067" lon="15.5305117"><ele>250.0</ele><time>2026-04-19T17:28:35.996Z</time></trkpt><trkpt lat="41.1772533" lon="15.5304417"><ele>252.33333333333331</ele><time>2026-04-19T17:28:36.996Z</time></trkpt><trkpt lat="41.1770967" lon="15.530375"><ele>254.66666666666669</ele><time>2026-04-19T17:28:37.997Z</time></trkpt><trkpt lat="41.17694" lon="15.5303133"><ele>257.0</ele><time>2026-04-19T17:28:38.996Z</time></trkpt><trkpt lat="41.176785" lon="15.5302483"><ele>257.0</ele><time>2026-04-19T17:28:39.996Z</time></trkpt><trkpt lat="41.1766283" lon="15.5301833"><ele>257.0</ele><time>2026-04-19T17:28:40.996Z</time></trkpt><trkpt lat="41.1764733" lon="15.53012"><ele>257.0</ele><time>2026-04-19T17:28:41.996Z</time></trkpt><trkpt lat="41.17632" lon="15.530055"><ele>258.0</ele><time>2026-04-19T17:28:42.996Z</time></trkpt><trkpt lat="41.1761683" lon="15.5299883"><ele>259.0</ele><time>2026-04-19T17:28:43.996Z</time></trkpt><trkpt lat="41.1760183" lon="15.529915"><ele>260.0</ele><time>2026-04-19T17:28:44.996Z</time></trkpt><trkpt lat="41.1758683" lon="15.5298483"><ele>260.0</ele><time>2026-04-19T17:28:45.997Z</time></trkpt><trkpt lat="41.175715" lon="15.5297817"><ele>260.0</ele><time>2026-04-19T17:28:46.996Z</time></trkpt><trkpt lat="41.1755633" lon="15.529715"><ele>260.0</ele><time>2026-04-19T17:28:47.996Z</time></trkpt><trkpt lat="41.17541" lon="15.5296517"><ele>260.33333333333337</ele><time>2026-04-19T17:28:48.996Z</time></trkpt><trkpt lat="41.175255" lon="15.5295867"><ele>260.6666666666667</ele><time>2026-04-19T17:28:49.996Z</time></trkpt><trkpt lat="41.1751" lon="15.52952"><ele>261.0</ele><time>2026-04-19T17:28:50.996Z</time></trkpt><trkpt lat="41.174945" lon="15.5294517"><ele>261.3333333333333</ele><time>2026-04-19T17:28:51.996Z</time></trkpt><trkpt lat="41.1747867" lon="15.5293867"><ele>261.66666666666663</ele><time>2026-04-19T17:28:52.996Z</time></trkpt><trkpt lat="41.1746267" lon="15.5293217"><ele>262.0</ele><time>2026-04-19T17:28:53.997Z</time></trkpt><trkpt lat="41.1744683" lon="15.529255"><ele>262.0</ele><time>2026-04-19T17:28:54.996Z</time></trkpt><trkpt lat="41.17431" lon="15.5291883"><ele>262.0</ele><time>2026-04-19T17:28:55.997Z</time></trkpt><trkpt lat="41.17415" lon="15.5291183"><ele>262.0</ele><time>2026-04-19T17:28:56.996Z</time></trkpt><trkpt lat="41.1739917" lon="15.5290467"><ele>261.66666666666663</ele><time>2026-04-19T17:28:57.997Z</time></trkpt><trkpt lat="41.1738317" lon="15.5289733"><ele>261.3333333333333</ele><time>2026-04-19T17:28:58.996Z</time></trkpt><trkpt lat="41.17367" lon="15.5289"><ele>261.0</ele><time>2026-04-19T17:28:59.997Z</time></trkpt><trkpt lat="41.1735067" lon="15.5288367"><ele>261.0</ele><time>2026-04-19T17:29:00.996Z</time></trkpt><trkpt lat="41.1733467" lon="15.5287667"><ele>261.0</ele><time>2026-04-19T17:29:01.996Z</time></trkpt><trkpt lat="41.1731867" lon="15.5286983"><ele>261.0</ele><time>2026-04-19T17:29:02.996Z</time></trkpt><trkpt lat="41.17303" lon="15.528625"><ele>262.0</ele><time>2026-04-19T17:29:03.996Z</time></trkpt><trkpt lat="41.1728733" lon="15.5285533"><ele>263.0</ele><time>2026-04-19T17:29:04.996Z</time></trkpt><trkpt lat="41.1727167" lon="15.5284817"><ele>264.0</ele><time>2026-04-19T17:29:05.996Z</time></trkpt><trkpt lat="41.1725583" lon="15.5284117"><ele>264.0</ele><time>2026-04-19T17:29:06.996Z</time></trkpt><trkpt lat="41.1724" lon="15.5283417"><ele>264.0</ele><time>2026-04-19T17:29:07.997Z</time></trkpt><trkpt lat="41.1722417" lon="15.5282717"><ele>264.0</ele><time>2026-04-19T17:29:08.997Z</time></trkpt><trkpt lat="41.17208" lon="15.5282"><ele>263.3333333333333</ele><time>2026-04-19T17:29:09.997Z</time></trkpt><trkpt lat="41.1719217" lon="15.5281283"><ele>262.66666666666663</ele><time>2026-04-19T17:29:10.996Z</time></trkpt><trkpt lat="41.1717633" lon="15.5280567"><ele>262.0</ele><time>2026-04-19T17:29:11.996Z</time></trkpt><trkpt lat="41.171605" lon="15.52799"><ele>262.0</ele><time>2026-04-19T17:29:12.997Z</time></trkpt><trkpt lat="41.1714467" lon="15.5279217"><ele>262.0</ele><time>2026-04-19T17:29:13.996Z</time></trkpt><trkpt lat="41.1712867" lon="15.5278567"><ele>262.0</ele><time>2026-04-19T17:29:14.996Z</time></trkpt><trkpt lat="41.1711267" lon="15.52779"><ele>263.0</ele><time>2026-04-19T17:29:15.996Z</time></trkpt><trkpt lat="41.1709683" lon="15.5277183"><ele>264.0</ele><time>2026-04-19T17:29:16.996Z</time></trkpt><trkpt lat="41.17081" lon="15.5276417"><ele>265.0</ele><time>2026-04-19T17:29:17.996Z</time></trkpt><trkpt lat="41.17065" lon="15.5275733"><ele>265.3333333333333</ele><time>2026-04-19T17:29:18.996Z</time></trkpt><trkpt lat="41.1704867" lon="15.5275067"><ele>265.6666666666667</ele><time>2026-04-19T17:29:19.996Z</time></trkpt><trkpt lat="41.1703267" lon="15.52744"><ele>266.0</ele><time>2026-04-19T17:29:20.997Z</time></trkpt><trkpt lat="41.170165" lon="15.5273717"><ele>266.0</ele><time>2026-04-19T17:29:21.997Z</time></trkpt><trkpt lat="41.1700033" lon="15.5272967"><ele>266.0</ele><time>2026-04-19T17:29:22.996Z</time></trkpt><trkpt lat="41.1698417" lon="15.52723"><ele>266.0</ele><time>2026-04-19T17:29:23.996Z</time></trkpt><trkpt lat="41.1696783" lon="15.5271617"><ele>266.33333333333337</ele><time>2026-04-19T17:29:24.996Z</time></trkpt><trkpt lat="41.169515" lon="15.527095"><ele>266.6666666666667</ele><time>2026-04-19T17:29:25.997Z</time></trkpt><trkpt lat="41.169355" lon="15.52703"><ele>267.0</ele><time>2026-04-19T17:29:26.997Z</time></trkpt><trkpt lat="41.1691967" lon="15.5269633"><ele>268.0</ele><time>2026-04-19T17:29:27.996Z</time></trkpt><trkpt lat="41.16904" lon="15.5269"><ele>269.0</ele><time>2026-04-19T17:29:28.996Z</time></trkpt><trkpt lat="41.1688817" lon="15.5268367"><ele>270.0</ele><time>2026-04-19T17:29:29.997Z</time></trkpt><trkpt lat="41.168725" lon="15.526765"><ele>270.0</ele><time>2026-04-19T17:29:30.996Z</time></trkpt><trkpt lat="41.1685667" lon="15.5266967"><ele>270.0</ele><time>2026-04-19T17:29:31.997Z</time></trkpt><trkpt lat="41.16841" lon="15.5266267"><ele>270.0</ele><time>2026-04-19T17:29:32.997Z</time></trkpt><trkpt lat="41.1682533" lon="15.5265583"><ele>269.6666666666667</ele><time>2026-04-19T17:29:33.997Z</time></trkpt><trkpt lat="41.168095" lon="15.526495"><ele>269.33333333333337</ele><time>2026-04-19T17:29:34.996Z</time></trkpt><trkpt lat="41.1679367" lon="15.5264283"><ele>269.0</ele><time>2026-04-19T17:29:35.996Z</time></trkpt><trkpt lat="41.1677767" lon="15.5263583"><ele>269.0</ele><time>2026-04-19T17:29:36.996Z</time></trkpt><trkpt lat="41.1676167" lon="15.5262817"><ele>269.0</ele><time>2026-04-19T17:29:37.996Z</time></trkpt><trkpt lat="41.167455" lon="15.52621"><ele>269.0</ele><time>2026-04-19T17:29:38.996Z</time></trkpt><trkpt lat="41.1672883" lon="15.5261433"><ele>270.6666666666667</ele><time>2026-04-19T17:29:39.996Z</time></trkpt><trkpt lat="41.1671233" lon="15.526075"><ele>272.3333333333333</ele><time>2026-04-19T17:29:40.996Z</time></trkpt><trkpt lat="41.1669567" lon="15.526005"><ele>274.0</ele><time>2026-04-19T17:29:41.996Z</time></trkpt><trkpt lat="41.1667883" lon="15.5259367"><ele>274.0</ele><time>2026-04-19T17:29:42.996Z</time></trkpt><trkpt lat="41.16662" lon="15.5258667"><ele>274.0</ele><time>2026-04-19T17:29:43.997Z</time></trkpt><trkpt lat="41.1664467" lon="15.5258067"><ele>274.0</ele><time>2026-04-19T17:29:44.997Z</time></trkpt><trkpt lat="41.1662733" lon="15.5257467"><ele>274.3333333333333</ele><time>2026-04-19T17:29:45.997Z</time></trkpt><trkpt lat="41.1661" lon="15.5256883"><ele>274.6666666666667</ele><time>2026-04-19T17:29:46.996Z</time></trkpt><trkpt lat="41.165925" lon="15.5256433"><ele>275.0</ele><time>2026-04-19T17:29:47.996Z</time></trkpt><trkpt lat="41.1657517" lon="15.5255967"><ele>275.6666666666667</ele><time>2026-04-19T17:29:48.997Z</time></trkpt><trkpt lat="41.1655767" lon="15.5255583"><ele>276.3333333333333</ele><time>2026-04-19T17:29:49.996Z</time></trkpt><trkpt lat="41.165405" lon="15.5255233"><ele>277.0</ele><time>2026-04-19T17:29:50.996Z</time></trkpt><trkpt lat="41.16524" lon="15.52549"><ele>277.0</ele><time>2026-04-19T17:29:51.996Z</time></trkpt><trkpt lat="41.1650767" lon="15.5254583"><ele>277.0</ele><time>2026-04-19T17:29:52.996Z</time></trkpt><trkpt lat="41.1649167" lon="15.525435"><ele>277.0</ele><time>2026-04-19T17:29:53.996Z</time></trkpt><trkpt lat="41.1647567" lon="15.525415"><ele>278.0</ele><time>2026-04-19T17:29:54.996Z</time></trkpt><trkpt lat="41.1645967" lon="15.5253983"><ele>279.0</ele><time>2026-04-19T17:29:55.996Z</time></trkpt><trkpt lat="41.164435" lon="15.5253883"><ele>280.0</ele><time>2026-04-19T17:29:56.996Z</time></trkpt><trkpt lat="41.1642717" lon="15.5253833"><ele>280.3333333333333</ele><time>2026-04-19T17:29:57.996Z</time></trkpt><trkpt lat="41.1641083" lon="15.5253783"><ele>280.6666666666667</ele><time>2026-04-19T17:29:58.996Z</time></trkpt><trkpt lat="41.1639433" lon="15.5253733"><ele>281.0</ele><time>2026-04-19T17:29:59.996Z</time></trkpt><trkpt lat="41.1637767" lon="15.5253767"><ele>281.6666666666667</ele><time>2026-04-19T17:30:00.996Z</time></trkpt><trkpt lat="41.1636083" lon="15.5253867"><ele>282.3333333333333</ele><time>2026-04-19T17:30:01.996Z</time></trkpt><trkpt lat="41.1634367" lon="15.5253983"><ele>283.0</ele><time>2026-04-19T17:30:02.996Z</time></trkpt><trkpt lat="41.163265" lon="15.5254167"><ele>282.66666666666663</ele><time>2026-04-19T17:30:03.996Z</time></trkpt><trkpt lat="41.1630933" lon="15.5254433"><ele>282.3333333333333</ele><time>2026-04-19T17:30:04.996Z</time></trkpt><trkpt lat="41.1629183" lon="15.52547"><ele>282.0</ele><time>2026-04-19T17:30:05.996Z</time></trkpt><trkpt lat="41.1627467" lon="15.525505"><ele>282.0</ele><time>2026-04-19T17:30:06.996Z</time></trkpt><trkpt lat="41.1625733" lon="15.5255383"><ele>282.0</ele><time>2026-04-19T17:30:07.996Z</time></trkpt><trkpt lat="41.1624" lon="15.5255767"><ele>282.0</ele><time>2026-04-19T17:30:08.996Z</time></trkpt><trkpt lat="41.162225" lon="15.525615"><ele>281.3333333333333</ele><time>2026-04-19T17:30:09.997Z</time></trkpt><trkpt lat="41.16205" lon="15.525665"><ele>280.66666666666663</ele><time>2026-04-19T17:30:10.996Z</time></trkpt><trkpt lat="41.1618767" lon="15.5257183"><ele>280.0</ele><time>2026-04-19T17:30:11.996Z</time></trkpt><trkpt lat="41.1617033" lon="15.5257783"><ele>280.0</ele><time>2026-04-19T17:30:12.997Z</time></trkpt><trkpt lat="41.16153" lon="15.52585"><ele>280.0</ele><time>2026-04-19T17:30:13.996Z</time></trkpt><trkpt lat="41.1613567" lon="15.52592"><ele>280.0</ele><time>2026-04-19T17:30:14.996Z</time></trkpt><trkpt lat="41.16118" lon="15.52599"><ele>280.0</ele><time>2026-04-19T17:30:15.996Z</time></trkpt><trkpt lat="41.1610033" lon="15.5260617"><ele>280.0</ele><time>2026-04-19T17:30:16.996Z</time></trkpt><trkpt lat="41.1608317" lon="15.526145"><ele>280.0</ele><time>2026-04-19T17:30:17.997Z</time></trkpt><trkpt lat="41.1606617" lon="15.5262317"><ele>280.0</ele><time>2026-04-19T17:30:18.996Z</time></trkpt><trkpt lat="41.1604933" lon="15.5263217"><ele>280.0</ele><time>2026-04-19T17:30:19.996Z</time></trkpt><trkpt lat="41.1603267" lon="15.526415"><ele>280.0</ele><time>2026-04-19T17:30:20.996Z</time></trkpt><trkpt lat="41.1601617" lon="15.5265033"><ele>280.0</ele><time>2026-04-19T17:30:21.996Z</time></trkpt><trkpt lat="41.159995" lon="15.52659"><ele>280.0</ele><time>2026-04-19T17:30:22.996Z</time></trkpt><trkpt lat="41.1598283" lon="15.526675"><ele>280.0</ele><time>2026-04-19T17:30:23.996Z</time></trkpt><trkpt lat="41.1596633" lon="15.52676"><ele>282.3333333333333</ele><time>2026-04-19T17:30:24.996Z</time></trkpt><trkpt lat="41.1594983" lon="15.5268417"><ele>284.6666666666667</ele><time>2026-04-19T17:30:25.996Z</time></trkpt><trkpt lat="41.159335" lon="15.5269217"><ele>287.0</ele><time>2026-04-19T17:30:26.996Z</time></trkpt><trkpt lat="41.1591733" lon="15.52701"><ele>286.33333333333337</ele><time>2026-04-19T17:30:27.996Z</time></trkpt><trkpt lat="41.15901" lon="15.5270983"><ele>285.6666666666667</ele><time>2026-04-19T17:30:28.996Z</time></trkpt><trkpt lat="41.158845" lon="15.5271817"><ele>285.0</ele><time>2026-04-19T17:30:29.996Z</time></trkpt><trkpt lat="41.1586767" lon="15.5272667"><ele>285.0</ele><time>2026-04-19T17:30:30.996Z</time></trkpt><trkpt lat="41.1585083" lon="15.5273517"><ele>285.0</ele><time>2026-04-19T17:30:31.996Z</time></trkpt><trkpt lat="41.1583417" lon="15.5274383"><ele>285.0</ele><time>2026-04-19T17:30:32.996Z</time></trkpt><trkpt lat="41.1581767" lon="15.5275267"><ele>286.0</ele><time>2026-04-19T17:30:33.996Z</time></trkpt><trkpt lat="41.1580133" lon="15.5276133"><ele>287.0</ele><time>2026-04-19T17:30:34.996Z</time></trkpt><trkpt lat="41.1578483" lon="15.5277"><ele>288.0</ele><time>2026-04-19T17:30:35.996Z</time></trkpt><trkpt lat="41.157685" lon="15.52778"><ele>288.0</ele><time>2026-04-19T17:30:36.996Z</time></trkpt><trkpt lat="41.1575283" lon="15.5278633"><ele>288.0</ele><time>2026-04-19T17:30:37.996Z</time></trkpt><trkpt lat="41.1573783" lon="15.5279417"><ele>288.0</ele><time>2026-04-19T17:30:38.996Z</time></trkpt><trkpt lat="41.1572317" lon="15.5280167"><ele>285.0</ele><time>2026-04-19T17:30:39.996Z</time></trkpt><trkpt lat="41.1570867" lon="15.528095"><ele>282.0</ele><time>2026-04-19T17:30:40.996Z</time></trkpt><trkpt lat="41.15694" lon="15.52817"><ele>279.0</ele><time>2026-04-19T17:30:41.996Z</time></trkpt><trkpt lat="41.1567917" lon="15.5282517"><ele>279.0</ele><time>2026-04-19T17:30:42.996Z</time></trkpt><trkpt lat="41.15664" lon="15.528325"><ele>279.0</ele><time>2026-04-19T17:30:43.996Z</time></trkpt><trkpt lat="41.1564867" lon="15.5284033"><ele>279.0</ele><time>2026-04-19T17:30:44.997Z</time></trkpt><trkpt lat="41.1563317" lon="15.528485"><ele>279.3333333333333</ele><time>2026-04-19T17:30:45.996Z</time></trkpt><trkpt lat="41.1561733" lon="15.5285667"><ele>279.66666666666663</ele><time>2026-04-19T17:30:46.996Z</time></trkpt><trkpt lat="41.1560133" lon="15.5286517"><ele>280.0</ele><time>2026-04-19T17:30:47.996Z</time></trkpt><trkpt lat="41.1558467" lon="15.5287233"><ele>278.0</ele><time>2026-04-19T17:30:48.997Z</time></trkpt><trkpt lat="41.1556783" lon="15.5288"><ele>276.0</ele><time>2026-04-19T17:30:49.996Z</time></trkpt><trkpt lat="41.1555083" lon="15.528885"><ele>274.0</ele><time>2026-04-19T17:30:50.997Z</time></trkpt><trkpt lat="41.1553383" lon="15.5289667"><ele>274.0</ele><time>2026-04-19T17:30:51.996Z</time></trkpt><trkpt lat="41.1551683" lon="15.5290417"><ele>274.0</ele><time>2026-04-19T17:30:52.996Z</time></trkpt><trkpt lat="41.1550017" lon="15.5291167"><ele>274.0</ele><time>2026-04-19T17:30:53.996Z</time></trkpt><trkpt lat="41.1548333" lon="15.5291817"><ele>273.66666666666663</ele><time>2026-04-19T17:30:54.997Z</time></trkpt><trkpt lat="41.1546617" lon="15.529245"><ele>273.3333333333333</ele><time>2026-04-19T17:30:55.996Z</time></trkpt><trkpt lat="41.1544933" lon="15.5293117"><ele>273.0</ele><time>2026-04-19T17:30:56.996Z</time></trkpt><trkpt lat="41.1543267" lon="15.52938"><ele>273.0</ele><time>2026-04-19T17:30:57.996Z</time></trkpt><trkpt lat="41.1541617" lon="15.5294483"><ele>273.0</ele><time>2026-04-19T17:30:58.996Z</time></trkpt><trkpt lat="41.154" lon="15.5295233"><ele>273.0</ele><time>2026-04-19T17:30:59.996Z</time></trkpt><trkpt lat="41.15384" lon="15.5295967"><ele>272.6666666666667</ele><time>2026-04-19T17:31:00.997Z</time></trkpt><trkpt lat="41.1536833" lon="15.5296667"><ele>272.33333333333337</ele><time>2026-04-19T17:31:01.996Z</time></trkpt><trkpt lat="41.153525" lon="15.5297217"><ele>272.0</ele><time>2026-04-19T17:31:02.996Z</time></trkpt><trkpt lat="41.1533717" lon="15.5297917"><ele>272.0</ele><time>2026-04-19T17:31:03.996Z</time></trkpt><trkpt lat="41.1532167" lon="15.5298633"><ele>272.0</ele><time>2026-04-19T17:31:04.996Z</time></trkpt><trkpt lat="41.15306" lon="15.5299367"><ele>272.0</ele><time>2026-04-19T17:31:05.996Z</time></trkpt><trkpt lat="41.1528983" lon="15.530005"><ele>272.0</ele><time>2026-04-19T17:31:06.996Z</time></trkpt><trkpt lat="41.15274" lon="15.5300783"><ele>272.0</ele><time>2026-04-19T17:31:07.997Z</time></trkpt><trkpt lat="41.15258" lon="15.5301533"><ele>272.0</ele><time>2026-04-19T17:31:08.996Z</time></trkpt><trkpt lat="41.15242" lon="15.5302217"><ele>272.6666666666667</ele><time>2026-04-19T17:31:09.996Z</time></trkpt><trkpt lat="41.15226" lon="15.5302933"><ele>273.3333333333333</ele><time>2026-04-19T17:31:10.996Z</time></trkpt><trkpt lat="41.1521" lon="15.5303633"><ele>274.0</ele><time>2026-04-19T17:31:11.996Z</time></trkpt><trkpt lat="41.1519417" lon="15.5304383"><ele>274.0</ele><time>2026-04-19T17:31:12.997Z</time></trkpt><trkpt lat="41.1517833" lon="15.5305117"><ele>274.0</ele><time>2026-04-19T17:31:13.996Z</time></trkpt><trkpt lat="41.151625" lon="15.530585"><ele>274.0</ele><time>2026-04-19T17:31:14.996Z</time></trkpt><trkpt lat="41.1514633" lon="15.5306567"><ele>274.66666666666663</ele><time>2026-04-19T17:31:15.996Z</time></trkpt><trkpt lat="41.1513033" lon="15.53073"><ele>275.3333333333333</ele><time>2026-04-19T17:31:16.996Z</time></trkpt><trkpt lat="41.151145" lon="15.5308033"><ele>276.0</ele><time>2026-04-19T17:31:17.996Z</time></trkpt><trkpt lat="41.1509833" lon="15.5308717"><ele>276.0</ele><time>2026-04-19T17:31:18.996Z</time></trkpt><trkpt lat="41.1508233" lon="15.5309383"><ele>276.0</ele><time>2026-04-19T17:31:19.996Z</time></trkpt><trkpt lat="41.1506633" lon="15.5310117"><ele>276.0</ele><time>2026-04-19T17:31:20.996Z</time></trkpt><trkpt lat="41.1505033" lon="15.5310833"><ele>276.3333333333333</ele><time>2026-04-19T17:31:21.997Z</time></trkpt><trkpt lat="41.1503417" lon="15.531155"><ele>276.66666666666663</ele><time>2026-04-19T17:31:22.996Z</time></trkpt><trkpt lat="41.1501817" lon="15.531225"><ele>277.0</ele><time>2026-04-19T17:31:23.996Z</time></trkpt><trkpt lat="41.15002" lon="15.5312983"><ele>277.0</ele><time>2026-04-19T17:31:24.997Z</time></trkpt><trkpt lat="41.149855" lon="15.5313683"><ele>277.0</ele><time>2026-04-19T17:31:25.996Z</time></trkpt><trkpt lat="41.1496917" lon="15.5314383"><ele>277.0</ele><time>2026-04-19T17:31:26.996Z</time></trkpt><trkpt lat="41.1495283" lon="15.53151"><ele>277.0</ele><time>2026-04-19T17:31:27.997Z</time></trkpt><trkpt lat="41.1493617" lon="15.53158"><ele>277.0</ele><time>2026-04-19T17:31:28.996Z</time></trkpt><trkpt lat="41.149195" lon="15.5316567"><ele>277.0</ele><time>2026-04-19T17:31:29.996Z</time></trkpt><trkpt lat="41.1490283" lon="15.53173"><ele>276.66666666666663</ele><time>2026-04-19T17:31:30.996Z</time></trkpt><trkpt lat="41.1488617" lon="15.5318017"><ele>276.3333333333333</ele><time>2026-04-19T17:31:31.996Z</time></trkpt><trkpt lat="41.1487" lon="15.5318783"><ele>276.0</ele><time>2026-04-19T17:31:32.996Z</time></trkpt><trkpt lat="41.1485417" lon="15.5319517"><ele>276.0</ele><time>2026-04-19T17:31:33.996Z</time></trkpt><trkpt lat="41.1483867" lon="15.532025"><ele>276.0</ele><time>2026-04-19T17:31:34.996Z</time></trkpt><trkpt lat="41.14823" lon="15.5320933"><ele>276.0</ele><time>2026-04-19T17:31:35.996Z</time></trkpt><trkpt lat="41.1480733" lon="15.5321633"><ele>274.6666666666667</ele><time>2026-04-19T17:31:36.997Z</time></trkpt><trkpt lat="41.1479167" lon="15.5322317"><ele>273.33333333333337</ele><time>2026-04-19T17:31:37.996Z</time></trkpt><trkpt lat="41.14776" lon="15.5323017"><ele>272.0</ele><time>2026-04-19T17:31:38.997Z</time></trkpt><trkpt lat="41.1476017" lon="15.5323683"><ele>272.0</ele><time>2026-04-19T17:31:39.996Z</time></trkpt><trkpt lat="41.14744" lon="15.5324367"><ele>272.0</ele><time>2026-04-19T17:31:40.996Z</time></trkpt><trkpt lat="41.1472783" lon="15.5325067"><ele>272.0</ele><time>2026-04-19T17:31:41.996Z</time></trkpt><trkpt lat="41.1471167" lon="15.5325817"><ele>272.33333333333337</ele><time>2026-04-19T17:31:42.996Z</time></trkpt><trkpt lat="41.1469533" lon="15.5326533"><ele>272.6666666666667</ele><time>2026-04-19T17:31:43.996Z</time></trkpt><trkpt lat="41.1467883" lon="15.5327317"><ele>273.0</ele><time>2026-04-19T17:31:44.997Z</time></trkpt><trkpt lat="41.146625" lon="15.5328133"><ele>272.6666666666667</ele><time>2026-04-19T17:31:45.996Z</time></trkpt><trkpt lat="41.1464633" lon="15.5329017"><ele>272.33333333333337</ele><time>2026-04-19T17:31:46.996Z</time></trkpt><trkpt lat="41.1463033" lon="15.53299"><ele>272.0</ele><time>2026-04-19T17:31:47.996Z</time></trkpt><trkpt lat="41.1461433" lon="15.5330783"><ele>272.0</ele><time>2026-04-19T17:31:48.996Z</time></trkpt><trkpt lat="41.1459833" lon="15.5331683"><ele>272.0</ele><time>2026-04-19T17:31:49.996Z</time></trkpt><trkpt lat="41.145825" lon="15.5332533"><ele>272.0</ele><time>2026-04-19T17:31:50.996Z</time></trkpt><trkpt lat="41.145665" lon="15.53334"><ele>272.33333333333337</ele><time>2026-04-19T17:31:51.996Z</time></trkpt><trkpt lat="41.1455017" lon="15.533415"><ele>272.6666666666667</ele><time>2026-04-19T17:31:52.996Z</time></trkpt><trkpt lat="41.1453383" lon="15.5334883"><ele>273.0</ele><time>2026-04-19T17:31:53.996Z</time></trkpt><trkpt lat="41.1451733" lon="15.5335567"><ele>273.0</ele><time>2026-04-19T17:31:54.996Z</time></trkpt><trkpt lat="41.14501" lon="15.5336283"><ele>273.0</ele><time>2026-04-19T17:31:55.996Z</time></trkpt><trkpt lat="41.1448467" lon="15.5337"><ele>273.0</ele><time>2026-04-19T17:31:56.996Z</time></trkpt><trkpt lat="41.1446833" lon="15.5337767"><ele>272.3333333333333</ele><time>2026-04-19T17:31:57.996Z</time></trkpt><trkpt lat="41.14452" lon="15.5338483"><ele>271.66666666666663</ele><time>2026-04-19T17:31:58.996Z</time></trkpt><trkpt lat="41.14436" lon="15.5339183"><ele>271.0</ele><time>2026-04-19T17:31:59.996Z</time></trkpt><trkpt lat="41.1441983" lon="15.5339883"><ele>271.3333333333333</ele><time>2026-04-19T17:32:00.996Z</time></trkpt><trkpt lat="41.14404" lon="15.5340567"><ele>271.6666666666667</ele><time>2026-04-19T17:32:01.996Z</time></trkpt><trkpt lat="41.1438833" lon="15.5341233"><ele>272.0</ele><time>2026-04-19T17:32:02.996Z</time></trkpt><trkpt lat="41.1437267" lon="15.5341933"><ele>272.0</ele><time>2026-04-19T17:32:03.996Z</time></trkpt><trkpt lat="41.1435717" lon="15.5342683"><ele>272.0</ele><time>2026-04-19T17:32:04.996Z</time></trkpt><trkpt lat="41.1434173" lon="15.5343446"><ele>272.0</ele><time>2026-04-19T17:32:05.996Z</time></trkpt><trkpt lat="41.1432649" lon="15.5344243"><ele>272.0</ele><time>2026-04-19T17:32:06.996Z</time></trkpt><trkpt lat="41.1431159" lon="15.5345109"><ele>272.0</ele><time>2026-04-19T17:32:07.996Z</time></trkpt><trkpt lat="41.142968" lon="15.5346066"><ele>272.0</ele><time>2026-04-19T17:32:08.997Z</time></trkpt><trkpt lat="41.1428214" lon="15.5347088"><ele>271.33333333333337</ele><time>2026-04-19T17:32:09.996Z</time></trkpt><trkpt lat="41.1426765" lon="15.5348175"><ele>270.6666666666667</ele><time>2026-04-19T17:32:10.996Z</time></trkpt><trkpt lat="41.1425344" lon="15.5349352"><ele>270.0</ele><time>2026-04-19T17:32:11.997Z</time></trkpt><trkpt lat="41.1423947" lon="15.5350612"><ele>270.0</ele><time>2026-04-19T17:32:12.997Z</time></trkpt><trkpt lat="41.1422593" lon="15.5351978"><ele>270.0</ele><time>2026-04-19T17:32:13.997Z</time></trkpt><trkpt lat="41.1421292" lon="15.5353372"><ele>270.0</ele><time>2026-04-19T17:32:14.996Z</time></trkpt><trkpt lat="41.1420043" lon="15.5354854"><ele>270.0</ele><time>2026-04-19T17:32:15.996Z</time></trkpt><trkpt lat="41.1418843" lon="15.5356374"><ele>270.0</ele><time>2026-04-19T17:32:16.997Z</time></trkpt><trkpt lat="41.1417677" lon="15.5357897"><ele>270.0</ele><time>2026-04-19T17:32:17.997Z</time></trkpt><trkpt lat="41.1416547" lon="15.5359466"><ele>270.0</ele><time>2026-04-19T17:32:18.996Z</time></trkpt><trkpt lat="41.141548" lon="15.5361111"><ele>270.0</ele><time>2026-04-19T17:32:19.996Z</time></trkpt><trkpt lat="41.1414442" lon="15.5362808"><ele>270.0</ele><time>2026-04-19T17:32:20.996Z</time></trkpt><trkpt lat="41.1413449" lon="15.5364563"><ele>270.0</ele><time>2026-04-19T17:32:21.996Z</time></trkpt><trkpt lat="41.1412509" lon="15.5366393"><ele>270.0</ele><time>2026-04-19T17:32:22.996Z</time></trkpt><trkpt lat="41.1411608" lon="15.5368303"><ele>270.0</ele><time>2026-04-19T17:32:23.996Z</time></trkpt><trkpt lat="41.1410755" lon="15.5370285"><ele>269.3333333333333</ele><time>2026-04-19T17:32:24.997Z</time></trkpt><trkpt lat="41.140996" lon="15.5372337"><ele>268.66666666666663</ele><time>2026-04-19T17:32:25.996Z</time></trkpt><trkpt lat="41.1409219" lon="15.5374432"><ele>268.0</ele><time>2026-04-19T17:32:26.996Z</time></trkpt><trkpt lat="41.1408512" lon="15.537654"><ele>268.0</ele><time>2026-04-19T17:32:27.996Z</time></trkpt><trkpt lat="41.1407832" lon="15.5378657"><ele>268.0</ele><time>2026-04-19T17:32:28.997Z</time></trkpt><trkpt lat="41.1407191" lon="15.5380803"><ele>268.0</ele><time>2026-04-19T17:32:29.997Z</time></trkpt><trkpt lat="41.1406553" lon="15.5382945"><ele>267.3333333333333</ele><time>2026-04-19T17:32:30.996Z</time></trkpt><trkpt lat="41.140594" lon="15.5385092"><ele>266.6666666666667</ele><time>2026-04-19T17:32:31.996Z</time></trkpt><trkpt lat="41.1405303" lon="15.5387228"><ele>266.0</ele><time>2026-04-19T17:32:32.997Z</time></trkpt><trkpt lat="41.1404595" lon="15.5389331"><ele>265.33333333333337</ele><time>2026-04-19T17:32:33.996Z</time></trkpt><trkpt lat="41.1403805" lon="15.539139"><ele>264.6666666666667</ele><time>2026-04-19T17:32:34.996Z</time></trkpt><trkpt lat="41.1402989" lon="15.5393448"><ele>264.0</ele><time>2026-04-19T17:32:35.996Z</time></trkpt><trkpt lat="41.1402143" lon="15.5395494"><ele>263.0</ele><time>2026-04-19T17:32:36.996Z</time></trkpt><trkpt lat="41.1401247" lon="15.539753"><ele>262.0</ele><time>2026-04-19T17:32:37.997Z</time></trkpt><trkpt lat="41.1400262" lon="15.5399512"><ele>261.0</ele><time>2026-04-19T17:32:38.996Z</time></trkpt><trkpt lat="41.1399224" lon="15.5401488"><ele>260.6666666666667</ele><time>2026-04-19T17:32:39.996Z</time></trkpt><trkpt lat="41.1398108" lon="15.5403421"><ele>260.33333333333337</ele><time>2026-04-19T17:32:40.997Z</time></trkpt><trkpt lat="41.1396913" lon="15.5405282"><ele>260.0</ele><time>2026-04-19T17:32:41.996Z</time></trkpt><trkpt lat="41.139567" lon="15.5407118"><ele>259.6666666666667</ele><time>2026-04-19T17:32:42.997Z</time></trkpt><trkpt lat="41.1394343" lon="15.5408865"><ele>259.3333333333333</ele><time>2026-04-19T17:32:43.996Z</time></trkpt><trkpt lat="41.1392957" lon="15.5410584"><ele>259.0</ele><time>2026-04-19T17:32:44.996Z</time></trkpt><trkpt lat="41.1391517" lon="15.541222"><ele>259.3333333333333</ele><time>2026-04-19T17:32:45.997Z</time></trkpt><trkpt lat="41.139009" lon="15.5413887"><ele>259.6666666666667</ele><time>2026-04-19T17:32:46.996Z</time></trkpt><trkpt lat="41.138864" lon="15.5415524"><ele>260.0</ele><time>2026-04-19T17:32:47.996Z</time></trkpt><trkpt lat="41.1387185" lon="15.541715"><ele>260.0</ele><time>2026-04-19T17:32:48.996Z</time></trkpt><trkpt lat="41.138571" lon="15.5418719"><ele>260.0</ele><time>2026-04-19T17:32:49.996Z</time></trkpt><trkpt lat="41.138427" lon="15.5420283"><ele>260.0</ele><time>2026-04-19T17:32:50.996Z</time></trkpt><trkpt lat="41.1382854" lon="15.5421862"><ele>259.0</ele><time>2026-04-19T17:32:51.996Z</time></trkpt><trkpt lat="41.1381467" lon="15.5423432"><ele>258.0</ele><time>2026-04-19T17:32:52.996Z</time></trkpt><trkpt lat="41.1380088" lon="15.5425028"><ele>257.0</ele><time>2026-04-19T17:32:53.996Z</time></trkpt><trkpt lat="41.1378732" lon="15.5426637"><ele>257.0</ele><time>2026-04-19T17:32:54.996Z</time></trkpt><trkpt lat="41.1377371" lon="15.5428254"><ele>257.0</ele><time>2026-04-19T17:32:55.996Z</time></trkpt><trkpt lat="41.1376021" lon="15.5429888"><ele>257.0</ele><time>2026-04-19T17:32:56.996Z</time></trkpt><trkpt lat="41.1374684" lon="15.5431522"><ele>256.0</ele><time>2026-04-19T17:32:57.996Z</time></trkpt><trkpt lat="41.137334" lon="15.5433133"><ele>255.0</ele><time>2026-04-19T17:32:58.997Z</time></trkpt><trkpt lat="41.137202" lon="15.5434765"><ele>254.0</ele><time>2026-04-19T17:32:59.996Z</time></trkpt><trkpt lat="41.1370678" lon="15.54364"><ele>254.33333333333334</ele><time>2026-04-19T17:33:00.996Z</time></trkpt><trkpt lat="41.1369357" lon="15.5438047"><ele>254.66666666666669</ele><time>2026-04-19T17:33:01.996Z</time></trkpt><trkpt lat="41.1368056" lon="15.5439715"><ele>255.0</ele><time>2026-04-19T17:33:02.997Z</time></trkpt><trkpt lat="41.1366773" lon="15.5441412"><ele>254.33333333333331</ele><time>2026-04-19T17:33:03.996Z</time></trkpt><trkpt lat="41.1365518" lon="15.5443122"><ele>253.66666666666666</ele><time>2026-04-19T17:33:04.997Z</time></trkpt><trkpt lat="41.1364293" lon="15.5444832"><ele>253.0</ele><time>2026-04-19T17:33:05.996Z</time></trkpt><trkpt lat="41.1363054" lon="15.5446497"><ele>253.0</ele><time>2026-04-19T17:33:06.996Z</time></trkpt><trkpt lat="41.1361837" lon="15.5448178"><ele>253.0</ele><time>2026-04-19T17:33:07.996Z</time></trkpt><trkpt lat="41.1360646" lon="15.5449872"><ele>253.0</ele><time>2026-04-19T17:33:08.996Z</time></trkpt><trkpt lat="41.1359466" lon="15.545153"><ele>253.0</ele><time>2026-04-19T17:33:09.996Z</time></trkpt><trkpt lat="41.1358302" lon="15.5453207"><ele>253.0</ele><time>2026-04-19T17:33:10.996Z</time></trkpt><trkpt lat="41.135715" lon="15.5454891"><ele>253.0</ele><time>2026-04-19T17:33:11.996Z</time></trkpt><trkpt lat="41.1356028" lon="15.5456602"><ele>252.66666666666666</ele><time>2026-04-19T17:33:12.996Z</time></trkpt><trkpt lat="41.1354889" lon="15.5458307"><ele>252.33333333333331</ele><time>2026-04-19T17:33:13.996Z</time></trkpt><trkpt lat="41.135373" lon="15.5459999"><ele>252.0</ele><time>2026-04-19T17:33:14.996Z</time></trkpt><trkpt lat="41.1352588" lon="15.546171"><ele>251.66666666666669</ele><time>2026-04-19T17:33:15.996Z</time></trkpt><trkpt lat="41.1351494" lon="15.5463466"><ele>251.33333333333334</ele><time>2026-04-19T17:33:16.996Z</time></trkpt><trkpt lat="41.1350419" lon="15.5465206"><ele>251.0</ele><time>2026-04-19T17:33:17.996Z</time></trkpt><trkpt lat="41.1349364" lon="15.5466938"><ele>251.0</ele><time>2026-04-19T17:33:18.996Z</time></trkpt><trkpt lat="41.1348313" lon="15.5468658"><ele>251.0</ele><time>2026-04-19T17:33:19.996Z</time></trkpt><trkpt lat="41.1347252" lon="15.5470376"><ele>251.0</ele><time>2026-04-19T17:33:20.997Z</time></trkpt><trkpt lat="41.1346204" lon="15.5472124"><ele>251.0</ele><time>2026-04-19T17:33:21.996Z</time></trkpt><trkpt lat="41.1345178" lon="15.5473874"><ele>251.0</ele><time>2026-04-19T17:33:22.996Z</time></trkpt><trkpt lat="41.1344142" lon="15.5475642"><ele>251.0</ele><time>2026-04-19T17:33:23.996Z</time></trkpt><trkpt lat="41.1343118" lon="15.5477448"><ele>250.66666666666669</ele><time>2026-04-19T17:33:24.996Z</time></trkpt><trkpt lat="41.1342084" lon="15.5479255"><ele>250.33333333333331</ele><time>2026-04-19T17:33:25.996Z</time></trkpt><trkpt lat="41.134108" lon="15.5481087"><ele>250.0</ele><time>2026-04-19T17:33:26.996Z</time></trkpt><trkpt lat="41.1340039" lon="15.548288"><ele>250.66666666666666</ele><time>2026-04-19T17:33:27.996Z</time></trkpt><trkpt lat="41.1339011" lon="15.5484692"><ele>251.33333333333331</ele><time>2026-04-19T17:33:28.996Z</time></trkpt><trkpt lat="41.1338002" lon="15.5486531"><ele>252.0</ele><time>2026-04-19T17:33:29.996Z</time></trkpt><trkpt lat="41.1336977" lon="15.5488332"><ele>252.0</ele><time>2026-04-19T17:33:30.996Z</time></trkpt><trkpt lat="41.1335972" lon="15.5490104"><ele>252.0</ele><time>2026-04-19T17:33:31.996Z</time></trkpt><trkpt lat="41.1335003" lon="15.5491797"><ele>252.0</ele><time>2026-04-19T17:33:32.996Z</time></trkpt><trkpt lat="41.1334085" lon="15.5493398"><ele>252.0</ele><time>2026-04-19T17:33:33.996Z</time></trkpt><trkpt lat="41.1333186" lon="15.5494911"><ele>252.0</ele><time>2026-04-19T17:33:34.996Z</time></trkpt><trkpt lat="41.1332333" lon="15.5496358"><ele>252.0</ele><time>2026-04-19T17:33:35.996Z</time></trkpt><trkpt lat="41.133153" lon="15.5497738"><ele>252.0</ele><time>2026-04-19T17:33:36.996Z</time></trkpt><trkpt lat="41.1330734" lon="15.5499125"><ele>251.75</ele><time>2026-04-19T17:33:37.997Z</time></trkpt><trkpt lat="41.1329934" lon="15.5500593"><ele>251.5</ele><time>2026-04-19T17:33:38.996Z</time></trkpt><trkpt lat="41.132913" lon="15.5502103"><ele>251.25</ele><time>2026-04-19T17:33:39.996Z</time></trkpt><trkpt lat="41.1328273" lon="15.5503586"><ele>251.0</ele><time>2026-04-19T17:33:40.996Z</time></trkpt><trkpt lat="41.1327405" lon="15.5505087"><ele>250.75</ele><time>2026-04-19T17:33:41.996Z</time></trkpt><trkpt lat="41.1326538" lon="15.55066"><ele>250.5</ele><time>2026-04-19T17:33:42.996Z</time></trkpt><trkpt lat="41.1325693" lon="15.5508116"><ele>250.25</ele><time>2026-04-19T17:33:43.996Z</time></trkpt><trkpt lat="41.1324859" lon="15.5509554"><ele>250.0</ele><time>2026-04-19T17:33:44.996Z</time></trkpt><trkpt lat="41.1324069" lon="15.5510899"><ele>250.0</ele><time>2026-04-19T17:33:45.996Z</time></trkpt><trkpt lat="41.1323324" lon="15.5512167"><ele>250.0</ele><time>2026-04-19T17:33:46.996Z</time></trkpt><trkpt lat="41.1322607" lon="15.5513383"><ele>250.0</ele><time>2026-04-19T17:33:47.996Z</time></trkpt><trkpt lat="41.1321924" lon="15.5514546"><ele>250.0</ele><time>2026-04-19T17:33:48.996Z</time></trkpt><trkpt lat="41.1321286" lon="15.5515644"><ele>250.0</ele><time>2026-04-19T17:33:49.996Z</time></trkpt><trkpt lat="41.1320685" lon="15.5516688"><ele>250.0</ele><time>2026-04-19T17:33:50.996Z</time></trkpt><trkpt lat="41.1320107" lon="15.5517686"><ele>250.0</ele><time>2026-04-19T17:33:51.996Z</time></trkpt><trkpt lat="41.1319562" lon="15.5518615"><ele>250.0</ele><time>2026-04-19T17:33:52.997Z</time></trkpt><trkpt lat="41.1319041" lon="15.5519498"><ele>250.0</ele><time>2026-04-19T17:33:53.996Z</time></trkpt><trkpt lat="41.1318524" lon="15.5520393"><ele>249.49999999999997</ele><time>2026-04-19T17:33:54.997Z</time></trkpt><trkpt lat="41.1317983" lon="15.5521287"><ele>249.0</ele><time>2026-04-19T17:33:55.996Z</time></trkpt><trkpt lat="41.1317445" lon="15.552221"><ele>248.5</ele><time>2026-04-19T17:33:56.996Z</time></trkpt><trkpt lat="41.1316908" lon="15.5523165"><ele>248.0</ele><time>2026-04-19T17:33:57.996Z</time></trkpt><trkpt lat="41.1316387" lon="15.5524112"><ele>247.49999999999997</ele><time>2026-04-19T17:33:58.996Z</time></trkpt><trkpt lat="41.1315859" lon="15.552505"><ele>247.0</ele><time>2026-04-19T17:33:59.996Z</time></trkpt><trkpt lat="41.1315329" lon="15.5525964"><ele>246.99999999999997</ele><time>2026-04-19T17:34:00.996Z</time></trkpt><trkpt lat="41.1314829" lon="15.5526815"><ele>247.0</ele><time>2026-04-19T17:34:01.996Z</time></trkpt><trkpt lat="41.1314371" lon="15.5527611"><ele>247.0</ele><time>2026-04-19T17:34:02.996Z</time></trkpt><trkpt lat="41.1313915" lon="15.552842"><ele>247.0</ele><time>2026-04-19T17:34:03.996Z</time></trkpt><trkpt lat="41.1313414" lon="15.5529275"><ele>246.99999999999997</ele><time>2026-04-19T17:34:04.996Z</time></trkpt><trkpt lat="41.1312884" lon="15.5530177"><ele>247.0</ele><time>2026-04-19T17:34:05.996Z</time></trkpt><trkpt lat="41.1312357" lon="15.5531115"><ele>246.83333333333331</ele><time>2026-04-19T17:34:06.996Z</time></trkpt><trkpt lat="41.1311835" lon="15.5532074"><ele>246.66666666666666</ele><time>2026-04-19T17:34:07.997Z</time></trkpt><trkpt lat="41.1311344" lon="15.5532974"><ele>246.5</ele><time>2026-04-19T17:34:08.997Z</time></trkpt><trkpt lat="41.1310889" lon="15.5533786"><ele>246.33333333333331</ele><time>2026-04-19T17:34:09.996Z</time></trkpt><trkpt lat="41.1310471" lon="15.5534536"><ele>246.16666666666666</ele><time>2026-04-19T17:34:10.996Z</time></trkpt><trkpt lat="41.1310043" lon="15.5535282"><ele>246.0</ele><time>2026-04-19T17:34:11.996Z</time></trkpt><trkpt lat="41.1309571" lon="15.5536079"><ele>246.0</ele><time>2026-04-19T17:34:12.996Z</time></trkpt><trkpt lat="41.1309101" lon="15.5536947"><ele>246.0</ele><time>2026-04-19T17:34:13.996Z</time></trkpt><trkpt lat="41.1308617" lon="15.553786"><ele>246.0</ele><time>2026-04-19T17:34:14.996Z</time></trkpt><trkpt lat="41.1308124" lon="15.5538797"><ele>246.0</ele><time>2026-04-19T17:34:15.996Z</time></trkpt><trkpt lat="41.1307601" lon="15.5539762"><ele>246.0</ele><time>2026-04-19T17:34:16.996Z</time></trkpt><trkpt lat="41.1307051" lon="15.5540727"><ele>246.0</ele><time>2026-04-19T17:34:17.996Z</time></trkpt><trkpt lat="41.1306472" lon="15.554171"><ele>246.20000000000002</ele><time>2026-04-19T17:34:18.997Z</time></trkpt><trkpt lat="41.1305905" lon="15.5542701"><ele>246.40000000000003</ele><time>2026-04-19T17:34:19.996Z</time></trkpt><trkpt lat="41.1305333" lon="15.5543667"><ele>246.6</ele><time>2026-04-19T17:34:20.996Z</time></trkpt><trkpt lat="41.1304767" lon="15.5544617"><ele>246.8</ele><time>2026-04-19T17:34:21.996Z</time></trkpt><trkpt lat="41.1304217" lon="15.5545567"><ele>247.0</ele><time>2026-04-19T17:34:22.996Z</time></trkpt><trkpt lat="41.1303667" lon="15.55465"><ele>246.99999999999997</ele><time>2026-04-19T17:34:23.996Z</time></trkpt><trkpt lat="41.1303133" lon="15.5547433"><ele>247.0</ele><time>2026-04-19T17:34:24.996Z</time></trkpt><trkpt lat="41.1302617" lon="15.5548383"><ele>247.0</ele><time>2026-04-19T17:34:25.996Z</time></trkpt><trkpt lat="41.1302117" lon="15.5549317"><ele>247.0</ele><time>2026-04-19T17:34:26.996Z</time></trkpt><trkpt lat="41.13016" lon="15.5550217"><ele>246.99999999999997</ele><time>2026-04-19T17:34:27.996Z</time></trkpt><trkpt lat="41.1301083" lon="15.5551133"><ele>247.0</ele><time>2026-04-19T17:34:28.996Z</time></trkpt><trkpt lat="41.1300567" lon="15.555205"><ele>246.99999999999997</ele><time>2026-04-19T17:34:29.996Z</time></trkpt><trkpt lat="41.13001" lon="15.5552983"><ele>247.0</ele><time>2026-04-19T17:34:30.997Z</time></trkpt><trkpt lat="41.12996" lon="15.5553867"><ele>247.0</ele><time>2026-04-19T17:34:31.996Z</time></trkpt><trkpt lat="41.1299067" lon="15.5554717"><ele>247.0</ele><time>2026-04-19T17:34:32.996Z</time></trkpt><trkpt lat="41.1298583" lon="15.5555617"><ele>246.99999999999997</ele><time>2026-04-19T17:34:33.996Z</time></trkpt><trkpt lat="41.12981" lon="15.5556517"><ele>247.0</ele><time>2026-04-19T17:34:34.996Z</time></trkpt><trkpt lat="41.1297617" lon="15.5557417"><ele>246.66666666666666</ele><time>2026-04-19T17:34:35.996Z</time></trkpt><trkpt lat="41.1297133" lon="15.5558283"><ele>246.33333333333331</ele><time>2026-04-19T17:34:36.996Z</time></trkpt><trkpt lat="41.1296617" lon="15.5559167"><ele>246.0</ele><time>2026-04-19T17:34:37.996Z</time></trkpt><trkpt lat="41.1296083" lon="15.5560017"><ele>245.66666666666669</ele><time>2026-04-19T17:34:38.996Z</time></trkpt><trkpt lat="41.129555" lon="15.5560883"><ele>245.33333333333334</ele><time>2026-04-19T17:34:39.996Z</time></trkpt><trkpt lat="41.1295033" lon="15.5561783"><ele>245.0</ele><time>2026-04-19T17:34:40.996Z</time></trkpt><trkpt lat="41.1294483" lon="15.5562683"><ele>244.6</ele><time>2026-04-19T17:34:41.996Z</time></trkpt><trkpt lat="41.129395" lon="15.5563617"><ele>244.2</ele><time>2026-04-19T17:34:42.996Z</time></trkpt><trkpt lat="41.12934" lon="15.556455"><ele>243.8</ele><time>2026-04-19T17:34:43.996Z</time></trkpt><trkpt lat="41.1292867" lon="15.5565517"><ele>243.4</ele><time>2026-04-19T17:34:44.996Z</time></trkpt><trkpt lat="41.1292283" lon="15.55665"><ele>243.0</ele><time>2026-04-19T17:34:45.996Z</time></trkpt><trkpt lat="41.1291683" lon="15.5567533"><ele>243.0</ele><time>2026-04-19T17:34:46.996Z</time></trkpt><trkpt lat="41.1291067" lon="15.5568583"><ele>243.0</ele><time>2026-04-19T17:34:47.997Z</time></trkpt><trkpt lat="41.129045" lon="15.5569667"><ele>243.0</ele><time>2026-04-19T17:34:48.996Z</time></trkpt><trkpt lat="41.1289833" lon="15.5570767"><ele>243.0</ele><time>2026-04-19T17:34:49.997Z</time></trkpt><trkpt lat="41.1289217" lon="15.5571867"><ele>243.0</ele><time>2026-04-19T17:34:50.996Z</time></trkpt><trkpt lat="41.12886" lon="15.5573017"><ele>243.0</ele><time>2026-04-19T17:34:51.996Z</time></trkpt><trkpt lat="41.1287967" lon="15.5574167"><ele>243.0</ele><time>2026-04-19T17:34:52.996Z</time></trkpt><trkpt lat="41.1287317" lon="15.5575333"><ele>243.0</ele><time>2026-04-19T17:34:53.996Z</time></trkpt><trkpt lat="41.1286667" lon="15.55765"><ele>243.0</ele><time>2026-04-19T17:34:54.997Z</time></trkpt><trkpt lat="41.1286017" lon="15.55777"><ele>243.0</ele><time>2026-04-19T17:34:55.996Z</time></trkpt><trkpt lat="41.128535" lon="15.5578883"><ele>243.0</ele><time>2026-04-19T17:34:56.996Z</time></trkpt><trkpt lat="41.1284683" lon="15.5580033"><ele>243.0</ele><time>2026-04-19T17:34:57.996Z</time></trkpt><trkpt lat="41.1284033" lon="15.5581167"><ele>243.0</ele><time>2026-04-19T17:34:58.997Z</time></trkpt><trkpt lat="41.1283417" lon="15.5582333"><ele>243.0</ele><time>2026-04-19T17:34:59.997Z</time></trkpt><trkpt lat="41.1282783" lon="15.5583433"><ele>243.0</ele><time>2026-04-19T17:35:00.997Z</time></trkpt><trkpt lat="41.1282133" lon="15.5584483"><ele>243.16666666666666</ele><time>2026-04-19T17:35:01.997Z</time></trkpt><trkpt lat="41.1281583" lon="15.5585483"><ele>243.33333333333331</ele><time>2026-04-19T17:35:02.997Z</time></trkpt><trkpt lat="41.12811" lon="15.558645"><ele>243.5</ele><time>2026-04-19T17:35:03.997Z</time></trkpt><trkpt lat="41.1280583" lon="15.5587333"><ele>243.66666666666666</ele><time>2026-04-19T17:35:04.997Z</time></trkpt><trkpt lat="41.1280067" lon="15.5588217"><ele>243.83333333333331</ele><time>2026-04-19T17:35:05.997Z</time></trkpt><trkpt lat="41.1279567" lon="15.5589133"><ele>244.0</ele><time>2026-04-19T17:35:06.997Z</time></trkpt><trkpt lat="41.127905" lon="15.5590017"><ele>243.99999999999997</ele><time>2026-04-19T17:35:07.998Z</time></trkpt><trkpt lat="41.1278567" lon="15.5590867"><ele>244.0</ele><time>2026-04-19T17:35:08.997Z</time></trkpt><trkpt lat="41.1278117" lon="15.559165"><ele>244.0</ele><time>2026-04-19T17:35:09.997Z</time></trkpt><trkpt lat="41.1277683" lon="15.559245"><ele>244.0</ele><time>2026-04-19T17:35:10.998Z</time></trkpt><trkpt lat="41.1277267" lon="15.5593283"><ele>243.99999999999997</ele><time>2026-04-19T17:35:11.997Z</time></trkpt><trkpt lat="41.1276783" lon="15.559415"><ele>244.0</ele><time>2026-04-19T17:35:12.997Z</time></trkpt><trkpt lat="41.1276283" lon="15.5595033"><ele>243.79999999999998</ele><time>2026-04-19T17:35:13.997Z</time></trkpt><trkpt lat="41.1275767" lon="15.5595983"><ele>243.59999999999997</ele><time>2026-04-19T17:35:14.997Z</time></trkpt><trkpt lat="41.1275217" lon="15.559695"><ele>243.4</ele><time>2026-04-19T17:35:15.997Z</time></trkpt><trkpt lat="41.1274683" lon="15.559795"><ele>243.2</ele><time>2026-04-19T17:35:16.997Z</time></trkpt><trkpt lat="41.127415" lon="15.5598983"><ele>243.0</ele><time>2026-04-19T17:35:17.997Z</time></trkpt><trkpt lat="41.1273567" lon="15.5599983"><ele>243.0</ele><time>2026-04-19T17:35:18.997Z</time></trkpt><trkpt lat="41.127295" lon="15.5600983"><ele>243.0</ele><time>2026-04-19T17:35:19.998Z</time></trkpt><trkpt lat="41.1272333" lon="15.5602017"><ele>243.0</ele><time>2026-04-19T17:35:20.997Z</time></trkpt><trkpt lat="41.12717" lon="15.5603067"><ele>243.0</ele><time>2026-04-19T17:35:21.997Z</time></trkpt><trkpt lat="41.1271083" lon="15.560415"><ele>243.0</ele><time>2026-04-19T17:35:22.997Z</time></trkpt><trkpt lat="41.1270433" lon="15.5605233"><ele>242.8</ele><time>2026-04-19T17:35:23.997Z</time></trkpt><trkpt lat="41.12698" lon="15.5606383"><ele>242.60000000000002</ele><time>2026-04-19T17:35:24.998Z</time></trkpt><trkpt lat="41.1269117" lon="15.5607517"><ele>242.39999999999998</ele><time>2026-04-19T17:35:25.997Z</time></trkpt><trkpt lat="41.1268433" lon="15.5608667"><ele>242.2</ele><time>2026-04-19T17:35:26.997Z</time></trkpt><trkpt lat="41.1267733" lon="15.5609883"><ele>242.0</ele><time>2026-04-19T17:35:27.997Z</time></trkpt><trkpt lat="41.1267033" lon="15.561115"><ele>242.0</ele><time>2026-04-19T17:35:28.997Z</time></trkpt><trkpt lat="41.12663" lon="15.5612467"><ele>242.0</ele><time>2026-04-19T17:35:29.997Z</time></trkpt><trkpt lat="41.12655" lon="15.56138"><ele>242.0</ele><time>2026-04-19T17:35:30.998Z</time></trkpt><trkpt lat="41.12647" lon="15.5615167"><ele>242.0</ele><time>2026-04-19T17:35:31.998Z</time></trkpt><trkpt lat="41.12639" lon="15.5616617"><ele>242.66666666666669</ele><time>2026-04-19T17:35:32.997Z</time></trkpt><trkpt lat="41.1263067" lon="15.5618117"><ele>243.33333333333331</ele><time>2026-04-19T17:35:33.997Z</time></trkpt><trkpt lat="41.12622" lon="15.5619767"><ele>244.0</ele><time>2026-04-19T17:35:34.998Z</time></trkpt><trkpt lat="41.1261183" lon="15.5621567"><ele>244.0</ele><time>2026-04-19T17:35:35.997Z</time></trkpt><trkpt lat="41.1260083" lon="15.5623567"><ele>244.0</ele><time>2026-04-19T17:35:36.997Z</time></trkpt><trkpt lat="41.1258867" lon="15.5625617"><ele>244.0</ele><time>2026-04-19T17:35:37.997Z</time></trkpt><trkpt lat="41.12576" lon="15.56278"><ele>244.66666666666666</ele><time>2026-04-19T17:35:38.997Z</time></trkpt><trkpt lat="41.1256267" lon="15.5630083"><ele>245.33333333333331</ele><time>2026-04-19T17:35:39.997Z</time></trkpt><trkpt lat="41.1254933" lon="15.5632483"><ele>246.0</ele><time>2026-04-19T17:35:40.998Z</time></trkpt><trkpt lat="41.1253567" lon="15.5634983"><ele>245.5</ele><time>2026-04-19T17:35:41.997Z</time></trkpt><trkpt lat="41.1252117" lon="15.5637533"><ele>245.0</ele><time>2026-04-19T17:35:42.997Z</time></trkpt><trkpt lat="41.1250617" lon="15.5640133"><ele>245.0</ele><time>2026-04-19T17:35:43.997Z</time></trkpt><trkpt lat="41.1249117" lon="15.5642783"><ele>245.0</ele><time>2026-04-19T17:35:44.998Z</time></trkpt><trkpt lat="41.12476" lon="15.5645433"><ele>244.5</ele><time>2026-04-19T17:35:45.998Z</time></trkpt><trkpt lat="41.1246067" lon="15.5648133"><ele>244.0</ele><time>2026-04-19T17:35:46.997Z</time></trkpt><trkpt lat="41.1244533" lon="15.5650833"><ele>244.0</ele><time>2026-04-19T17:35:47.997Z</time></trkpt><trkpt lat="41.1242983" lon="15.5653533"><ele>244.0</ele><time>2026-04-19T17:35:48.997Z</time></trkpt><trkpt lat="41.1241433" lon="15.5656233"><ele>243.0</ele><time>2026-04-19T17:35:49.996Z</time></trkpt><trkpt lat="41.1239867" lon="15.565895"><ele>242.0</ele><time>2026-04-19T17:35:50.997Z</time></trkpt><trkpt lat="41.1238333" lon="15.5661683"><ele>242.5</ele><time>2026-04-19T17:35:51.997Z</time></trkpt><trkpt lat="41.1236767" lon="15.5664467"><ele>243.0</ele><time>2026-04-19T17:35:52.997Z</time></trkpt><trkpt lat="41.1235183" lon="15.5667283"><ele>243.0</ele><time>2026-04-19T17:35:53.996Z</time></trkpt><trkpt lat="41.123355" lon="15.56701"><ele>243.0</ele><time>2026-04-19T17:35:54.996Z</time></trkpt><trkpt lat="41.12319" lon="15.567295"><ele>242.5</ele><time>2026-04-19T17:35:55.997Z</time></trkpt><trkpt lat="41.123025" lon="15.5675833"><ele>242.0</ele><time>2026-04-19T17:35:56.996Z</time></trkpt><trkpt lat="41.12286" lon="15.5678733"><ele>241.5</ele><time>2026-04-19T17:35:57.996Z</time></trkpt><trkpt lat="41.1226933" lon="15.568165"><ele>241.0</ele><time>2026-04-19T17:35:58.996Z</time></trkpt><trkpt lat="41.1225267" lon="15.5684583"><ele>240.5</ele><time>2026-04-19T17:35:59.997Z</time></trkpt><trkpt lat="41.1223583" lon="15.5687533"><ele>240.0</ele><time>2026-04-19T17:36:00.996Z</time></trkpt><trkpt lat="41.12219" lon="15.56905"><ele>240.0</ele><time>2026-04-19T17:36:01.996Z</time></trkpt><trkpt lat="41.12202" lon="15.5693467"><ele>240.0</ele><time>2026-04-19T17:36:02.996Z</time></trkpt><trkpt lat="41.12185" lon="15.5696467"><ele>240.0</ele><time>2026-04-19T17:36:03.996Z</time></trkpt><trkpt lat="41.1216783" lon="15.569945"><ele>240.0</ele><time>2026-04-19T17:36:04.996Z</time></trkpt><trkpt lat="41.1215067" lon="15.5702433"><ele>239.5</ele><time>2026-04-19T17:36:05.997Z</time></trkpt><trkpt lat="41.121335" lon="15.570545"><ele>239.0</ele><time>2026-04-19T17:36:06.996Z</time></trkpt><trkpt lat="41.1211633" lon="15.5708467"><ele>239.0</ele><time>2026-04-19T17:36:07.997Z</time></trkpt><trkpt lat="41.1209917" lon="15.57115"><ele>239.0</ele><time>2026-04-19T17:36:08.996Z</time></trkpt><trkpt lat="41.12082" lon="15.5714533"><ele>239.0</ele><time>2026-04-19T17:36:09.997Z</time></trkpt><trkpt lat="41.120645" lon="15.571755"><ele>239.0</ele><time>2026-04-19T17:36:10.996Z</time></trkpt><trkpt lat="41.1204717" lon="15.5720583"><ele>238.0</ele><time>2026-04-19T17:36:11.996Z</time></trkpt><trkpt lat="41.1203" lon="15.5723583"><ele>237.0</ele><time>2026-04-19T17:36:12.997Z</time></trkpt><trkpt lat="41.1201283" lon="15.57266"><ele>236.5</ele><time>2026-04-19T17:36:13.997Z</time></trkpt><trkpt lat="41.1199567" lon="15.5729617"><ele>236.0</ele><time>2026-04-19T17:36:14.996Z</time></trkpt><trkpt lat="41.119785" lon="15.573265"><ele>237.0</ele><time>2026-04-19T17:36:15.996Z</time></trkpt><trkpt lat="41.1196133" lon="15.5735683"><ele>238.0</ele><time>2026-04-19T17:36:16.996Z</time></trkpt><trkpt lat="41.1194417" lon="15.5738683"><ele>238.0</ele><time>2026-04-19T17:36:17.996Z</time></trkpt><trkpt lat="41.1192717" lon="15.574165"><ele>238.0</ele><time>2026-04-19T17:36:18.996Z</time></trkpt><trkpt lat="41.119105" lon="15.574455"><ele>239.0</ele><time>2026-04-19T17:36:19.997Z</time></trkpt><trkpt lat="41.11894" lon="15.5747433"><ele>240.0</ele><time>2026-04-19T17:36:20.996Z</time></trkpt><trkpt lat="41.1187783" lon="15.5750283"><ele>240.0</ele><time>2026-04-19T17:36:21.997Z</time></trkpt><trkpt lat="41.1186183" lon="15.5753117"><ele>240.0</ele><time>2026-04-19T17:36:22.996Z</time></trkpt><trkpt lat="41.1184633" lon="15.57559"><ele>239.0</ele><time>2026-04-19T17:36:23.996Z</time></trkpt><trkpt lat="41.11831" lon="15.5758617"><ele>238.0</ele><time>2026-04-19T17:36:24.996Z</time></trkpt><trkpt lat="41.11816" lon="15.576125"><ele>237.5</ele><time>2026-04-19T17:36:25.997Z</time></trkpt><trkpt lat="41.1180067" lon="15.5763867"><ele>237.0</ele><time>2026-04-19T17:36:26.997Z</time></trkpt><trkpt lat="41.1178517" lon="15.576645"><ele>237.0</ele><time>2026-04-19T17:36:27.997Z</time></trkpt><trkpt lat="41.1176917" lon="15.5769"><ele>237.0</ele><time>2026-04-19T17:36:28.996Z</time></trkpt><trkpt lat="41.11753" lon="15.577155"><ele>236.0</ele><time>2026-04-19T17:36:29.996Z</time></trkpt><trkpt lat="41.1173633" lon="15.5774067"><ele>235.0</ele><time>2026-04-19T17:36:30.996Z</time></trkpt><trkpt lat="41.11719" lon="15.5776533"><ele>235.0</ele><time>2026-04-19T17:36:31.996Z</time></trkpt><trkpt lat="41.1170133" lon="15.577895"><ele>235.0</ele><time>2026-04-19T17:36:32.996Z</time></trkpt><trkpt lat="41.1168317" lon="15.5781367"><ele>235.0</ele><time>2026-04-19T17:36:33.996Z</time></trkpt><trkpt lat="41.116645" lon="15.5783733"><ele>235.0</ele><time>2026-04-19T17:36:34.996Z</time></trkpt><trkpt lat="41.116455" lon="15.5786083"><ele>235.0</ele><time>2026-04-19T17:36:35.996Z</time></trkpt><trkpt lat="41.1162618" lon="15.5788408"><ele>235.0</ele><time>2026-04-19T17:36:36.996Z</time></trkpt><trkpt lat="41.1160621" lon="15.5790685"><ele>235.0</ele><time>2026-04-19T17:36:37.996Z</time></trkpt><trkpt lat="41.1158583" lon="15.5792968"><ele>235.0</ele><time>2026-04-19T17:36:38.996Z</time></trkpt><trkpt lat="41.1156518" lon="15.5795243"><ele>234.5</ele><time>2026-04-19T17:36:39.997Z</time></trkpt><trkpt lat="41.115445" lon="15.5797531"><ele>234.0</ele><time>2026-04-19T17:36:40.996Z</time></trkpt><trkpt lat="41.1152337" lon="15.5799767"><ele>234.0</ele><time>2026-04-19T17:36:41.996Z</time></trkpt><trkpt lat="41.1150243" lon="15.580205"><ele>234.0</ele><time>2026-04-19T17:36:42.996Z</time></trkpt><trkpt lat="41.1148174" lon="15.5804376"><ele>235.5</ele><time>2026-04-19T17:36:43.996Z</time></trkpt><trkpt lat="41.1146099" lon="15.580669"><ele>237.0</ele><time>2026-04-19T17:36:44.996Z</time></trkpt><trkpt lat="41.1144001" lon="15.5808938"><ele>237.0</ele><time>2026-04-19T17:36:45.996Z</time></trkpt><trkpt lat="41.1141916" lon="15.581113"><ele>237.0</ele><time>2026-04-19T17:36:46.996Z</time></trkpt><trkpt lat="41.1139868" lon="15.5813305"><ele>236.5</ele><time>2026-04-19T17:36:47.996Z</time></trkpt><trkpt lat="41.1137882" lon="15.5815459"><ele>236.0</ele><time>2026-04-19T17:36:48.996Z</time></trkpt><trkpt lat="41.1135945" lon="15.5817609"><ele>236.0</ele><time>2026-04-19T17:36:49.996Z</time></trkpt><trkpt lat="41.1134033" lon="15.5819738"><ele>236.0</ele><time>2026-04-19T17:36:50.996Z</time></trkpt><trkpt lat="41.1132149" lon="15.5821829"><ele>234.5</ele><time>2026-04-19T17:36:51.997Z</time></trkpt><trkpt lat="41.1130286" lon="15.5823921"><ele>233.0</ele><time>2026-04-19T17:36:52.996Z</time></trkpt><trkpt lat="41.1128397" lon="15.582597"><ele>233.0</ele><time>2026-04-19T17:36:53.996Z</time></trkpt><trkpt lat="41.112648" lon="15.5828018"><ele>233.0</ele><time>2026-04-19T17:36:54.996Z</time></trkpt><trkpt lat="41.1124552" lon="15.5830063"><ele>231.0</ele><time>2026-04-19T17:36:55.996Z</time></trkpt><trkpt lat="41.1122624" lon="15.5832161"><ele>229.0</ele><time>2026-04-19T17:36:56.996Z</time></trkpt><trkpt lat="41.1120689" lon="15.5834267"><ele>229.0</ele><time>2026-04-19T17:36:57.996Z</time></trkpt><trkpt lat="41.1118764" lon="15.5836361"><ele>229.0</ele><time>2026-04-19T17:36:58.997Z</time></trkpt><trkpt lat="41.1116837" lon="15.5838436"><ele>226.5</ele><time>2026-04-19T17:36:59.996Z</time></trkpt><trkpt lat="41.1114928" lon="15.5840504"><ele>224.0</ele><time>2026-04-19T17:37:00.996Z</time></trkpt><trkpt lat="41.1113016" lon="15.5842561"><ele>224.0</ele><time>2026-04-19T17:37:01.996Z</time></trkpt><trkpt lat="41.11111" lon="15.5844633"><ele>224.0</ele><time>2026-04-19T17:37:02.996Z</time></trkpt><trkpt lat="41.1109203" lon="15.5846694"><ele>224.5</ele><time>2026-04-19T17:37:03.996Z</time></trkpt><trkpt lat="41.1107348" lon="15.5848722"><ele>225.0</ele><time>2026-04-19T17:37:04.996Z</time></trkpt><trkpt lat="41.1105505" lon="15.5850697"><ele>225.0</ele><time>2026-04-19T17:37:05.996Z</time></trkpt><trkpt lat="41.1103686" lon="15.5852654"><ele>225.0</ele><time>2026-04-19T17:37:06.997Z</time></trkpt><trkpt lat="41.1101898" lon="15.5854595"><ele>224.5</ele><time>2026-04-19T17:37:07.996Z</time></trkpt><trkpt lat="41.110012" lon="15.5856524"><ele>224.0</ele><time>2026-04-19T17:37:08.996Z</time></trkpt><trkpt lat="41.1098356" lon="15.5858418"><ele>223.5</ele><time>2026-04-19T17:37:09.996Z</time></trkpt><trkpt lat="41.1096602" lon="15.5860291"><ele>223.0</ele><time>2026-04-19T17:37:10.996Z</time></trkpt><trkpt lat="41.109486" lon="15.5862198"><ele>222.5</ele><time>2026-04-19T17:37:11.996Z</time></trkpt><trkpt lat="41.109312" lon="15.586411"><ele>222.0</ele><time>2026-04-19T17:37:12.996Z</time></trkpt><trkpt lat="41.1091381" lon="15.5865985"><ele>222.0</ele><time>2026-04-19T17:37:13.996Z</time></trkpt><trkpt lat="41.108966" lon="15.5867846"><ele>222.0</ele><time>2026-04-19T17:37:14.996Z</time></trkpt><trkpt lat="41.1087936" lon="15.5869697"><ele>222.0</ele><time>2026-04-19T17:37:15.997Z</time></trkpt><trkpt lat="41.1086241" lon="15.5871531"><ele>222.0</ele><time>2026-04-19T17:37:16.996Z</time></trkpt><trkpt lat="41.1084582" lon="15.5873323"><ele>222.0</ele><time>2026-04-19T17:37:17.996Z</time></trkpt><trkpt lat="41.1082936" lon="15.5875102"><ele>222.0</ele><time>2026-04-19T17:37:18.997Z</time></trkpt><trkpt lat="41.1081304" lon="15.5876867"><ele>221.33333333333331</ele><time>2026-04-19T17:37:19.996Z</time></trkpt><trkpt lat="41.1079677" lon="15.5878617"><ele>220.66666666666666</ele><time>2026-04-19T17:37:20.996Z</time></trkpt><trkpt lat="41.107806" lon="15.5880362"><ele>220.0</ele><time>2026-04-19T17:37:21.996Z</time></trkpt><trkpt lat="41.1076457" lon="15.5882086"><ele>220.0</ele><time>2026-04-19T17:37:22.996Z</time></trkpt><trkpt lat="41.1074871" lon="15.5883809"><ele>220.0</ele><time>2026-04-19T17:37:23.996Z</time></trkpt><trkpt lat="41.1073288" lon="15.5885527"><ele>220.0</ele><time>2026-04-19T17:37:24.996Z</time></trkpt><trkpt lat="41.1071698" lon="15.5887231"><ele>220.66666666666666</ele><time>2026-04-19T17:37:25.996Z</time></trkpt><trkpt lat="41.1070102" lon="15.5888943"><ele>221.33333333333331</ele><time>2026-04-19T17:37:26.997Z</time></trkpt><trkpt lat="41.1068524" lon="15.5890666"><ele>222.0</ele><time>2026-04-19T17:37:27.997Z</time></trkpt><trkpt lat="41.1066944" lon="15.5892374"><ele>221.33333333333331</ele><time>2026-04-19T17:37:28.996Z</time></trkpt><trkpt lat="41.1065373" lon="15.5894087"><ele>220.66666666666666</ele><time>2026-04-19T17:37:29.996Z</time></trkpt><trkpt lat="41.1063806" lon="15.5895791"><ele>220.0</ele><time>2026-04-19T17:37:30.996Z</time></trkpt><trkpt lat="41.1062242" lon="15.5897489"><ele>220.0</ele><time>2026-04-19T17:37:31.997Z</time></trkpt><trkpt lat="41.10607" lon="15.5899163"><ele>220.0</ele><time>2026-04-19T17:37:32.996Z</time></trkpt><trkpt lat="41.105917" lon="15.5900816"><ele>220.0</ele><time>2026-04-19T17:37:33.996Z</time></trkpt><trkpt lat="41.1057645" lon="15.590244"><ele>220.0</ele><time>2026-04-19T17:37:34.996Z</time></trkpt><trkpt lat="41.1056141" lon="15.5904063"><ele>220.0</ele><time>2026-04-19T17:37:35.996Z</time></trkpt><trkpt lat="41.1054667" lon="15.5905654"><ele>220.0</ele><time>2026-04-19T17:37:36.997Z</time></trkpt><trkpt lat="41.1053251" lon="15.5907184"><ele>220.0</ele><time>2026-04-19T17:37:37.996Z</time></trkpt><trkpt lat="41.1051885" lon="15.5908654"><ele>220.0</ele><time>2026-04-19T17:37:38.996Z</time></trkpt><trkpt lat="41.1050523" lon="15.5910096"><ele>220.0</ele><time>2026-04-19T17:37:39.996Z</time></trkpt><trkpt lat="41.1049175" lon="15.5911545"><ele>220.0</ele><time>2026-04-19T17:37:40.996Z</time></trkpt><trkpt lat="41.104784" lon="15.5912989"><ele>220.0</ele><time>2026-04-19T17:37:41.996Z</time></trkpt><trkpt lat="41.1046483" lon="15.5914383"><ele>220.0</ele><time>2026-04-19T17:37:42.996Z</time></trkpt><trkpt lat="41.1045133" lon="15.5915783"><ele>220.0</ele><time>2026-04-19T17:37:43.996Z</time></trkpt><trkpt lat="41.10438" lon="15.5917167"><ele>220.0</ele><time>2026-04-19T17:37:44.996Z</time></trkpt><trkpt lat="41.104245" lon="15.5918517"><ele>220.0</ele><time>2026-04-19T17:37:45.996Z</time></trkpt><trkpt lat="41.1041083" lon="15.59198"><ele>219.66666666666666</ele><time>2026-04-19T17:37:46.997Z</time></trkpt><trkpt lat="41.1039683" lon="15.5921067"><ele>219.33333333333331</ele><time>2026-04-19T17:37:47.996Z</time></trkpt><trkpt lat="41.103825" lon="15.5922333"><ele>219.0</ele><time>2026-04-19T17:37:48.996Z</time></trkpt><trkpt lat="41.1036783" lon="15.5923567"><ele>219.0</ele><time>2026-04-19T17:37:49.996Z</time></trkpt><trkpt lat="41.1035283" lon="15.59248"><ele>219.0</ele><time>2026-04-19T17:37:50.996Z</time></trkpt><trkpt lat="41.1033767" lon="15.592595"><ele>219.0</ele><time>2026-04-19T17:37:51.996Z</time></trkpt><trkpt lat="41.10322" lon="15.5927067"><ele>219.33333333333331</ele><time>2026-04-19T17:37:52.996Z</time></trkpt><trkpt lat="41.103065" lon="15.5928117"><ele>219.66666666666666</ele><time>2026-04-19T17:37:53.996Z</time></trkpt><trkpt lat="41.1029083" lon="15.592915"><ele>220.0</ele><time>2026-04-19T17:37:54.996Z</time></trkpt><trkpt lat="41.1027517" lon="15.5930167"><ele>219.33333333333331</ele><time>2026-04-19T17:37:55.996Z</time></trkpt><trkpt lat="41.1025933" lon="15.5931133"><ele>218.66666666666669</ele><time>2026-04-19T17:37:56.996Z</time></trkpt><trkpt lat="41.102435" lon="15.5932067"><ele>218.0</ele><time>2026-04-19T17:37:57.996Z</time></trkpt><trkpt lat="41.102275" lon="15.5932967"><ele>217.66666666666669</ele><time>2026-04-19T17:37:58.997Z</time></trkpt><trkpt lat="41.1021183" lon="15.59338"><ele>217.33333333333331</ele><time>2026-04-19T17:37:59.997Z</time></trkpt><trkpt lat="41.1019583" lon="15.5934617"><ele>217.0</ele><time>2026-04-19T17:38:00.996Z</time></trkpt><trkpt lat="41.1017967" lon="15.5935367"><ele>217.0</ele><time>2026-04-19T17:38:01.996Z</time></trkpt><trkpt lat="41.1016317" lon="15.593605"><ele>217.0</ele><time>2026-04-19T17:38:02.996Z</time></trkpt><trkpt lat="41.1014633" lon="15.5936717"><ele>217.0</ele><time>2026-04-19T17:38:03.997Z</time></trkpt><trkpt lat="41.1012917" lon="15.5937333"><ele>217.0</ele><time>2026-04-19T17:38:04.996Z</time></trkpt><trkpt lat="41.10112" lon="15.5937933"><ele>217.0</ele><time>2026-04-19T17:38:05.996Z</time></trkpt><trkpt lat="41.1009433" lon="15.59385"><ele>217.0</ele><time>2026-04-19T17:38:06.996Z</time></trkpt><trkpt lat="41.100765" lon="15.5939017"><ele>216.0</ele><time>2026-04-19T17:38:07.996Z</time></trkpt><trkpt lat="41.100585" lon="15.59395"><ele>215.0</ele><time>2026-04-19T17:38:08.996Z</time></trkpt><trkpt lat="41.100405" lon="15.593995"><ele>214.0</ele><time>2026-04-19T17:38:09.996Z</time></trkpt><trkpt lat="41.1002217" lon="15.5940367"><ele>214.0</ele><time>2026-04-19T17:38:10.997Z</time></trkpt><trkpt lat="41.1000383" lon="15.5940733"><ele>214.0</ele><time>2026-04-19T17:38:11.997Z</time></trkpt><trkpt lat="41.0998583" lon="15.5941017"><ele>214.0</ele><time>2026-04-19T17:38:12.997Z</time></trkpt><trkpt lat="41.0996833" lon="15.5941233"><ele>211.66666666666666</ele><time>2026-04-19T17:38:13.996Z</time></trkpt><trkpt lat="41.0995067" lon="15.5941417"><ele>209.33333333333331</ele><time>2026-04-19T17:38:14.996Z</time></trkpt><trkpt lat="41.09933" lon="15.594155"><ele>207.0</ele><time>2026-04-19T17:38:15.997Z</time></trkpt><trkpt lat="41.0991567" lon="15.594165"><ele>204.0</ele><time>2026-04-19T17:38:16.996Z</time></trkpt><trkpt lat="41.098983" lon="15.5941731"><ele>201.0</ele><time>2026-04-19T17:38:17.996Z</time></trkpt><trkpt lat="41.0988123" lon="15.5941804"><ele>198.0</ele><time>2026-04-19T17:38:18.996Z</time></trkpt><trkpt lat="41.0986435" lon="15.5941857"><ele>198.0</ele><time>2026-04-19T17:38:19.996Z</time></trkpt><trkpt lat="41.098477" lon="15.5941907"><ele>198.0</ele><time>2026-04-19T17:38:20.996Z</time></trkpt><trkpt lat="41.0983121" lon="15.5941939"><ele>198.0</ele><time>2026-04-19T17:38:21.996Z</time></trkpt><trkpt lat="41.0981489" lon="15.5941945"><ele>196.66666666666669</ele><time>2026-04-19T17:38:22.996Z</time></trkpt><trkpt lat="41.0979875" lon="15.5941938"><ele>195.33333333333334</ele><time>2026-04-19T17:38:23.996Z</time></trkpt><trkpt lat="41.0978272" lon="15.594191"><ele>194.0</ele><time>2026-04-19T17:38:24.996Z</time></trkpt><trkpt lat="41.0976669" lon="15.5941915"><ele>194.0</ele><time>2026-04-19T17:38:25.996Z</time></trkpt><trkpt lat="41.0975079" lon="15.5941951"><ele>194.0</ele><time>2026-04-19T17:38:26.997Z</time></trkpt><trkpt lat="41.0973494" lon="15.5941996"><ele>194.0</ele><time>2026-04-19T17:38:27.996Z</time></trkpt><trkpt lat="41.0971912" lon="15.5942041"><ele>194.33333333333334</ele><time>2026-04-19T17:38:28.996Z</time></trkpt><trkpt lat="41.0970328" lon="15.5942055"><ele>194.66666666666669</ele><time>2026-04-19T17:38:29.996Z</time></trkpt><trkpt lat="41.0968724" lon="15.5942054"><ele>195.0</ele><time>2026-04-19T17:38:30.996Z</time></trkpt><trkpt lat="41.0967096" lon="15.5942062"><ele>195.33333333333331</ele><time>2026-04-19T17:38:31.996Z</time></trkpt><trkpt lat="41.0965426" lon="15.59421"><ele>195.66666666666666</ele><time>2026-04-19T17:38:32.997Z</time></trkpt><trkpt lat="41.0963736" lon="15.5942136"><ele>196.0</ele><time>2026-04-19T17:38:33.997Z</time></trkpt><trkpt lat="41.0962058" lon="15.5942161"><ele>196.0</ele><time>2026-04-19T17:38:34.996Z</time></trkpt><trkpt lat="41.0960406" lon="15.5942183"><ele>196.0</ele><time>2026-04-19T17:38:35.996Z</time></trkpt><trkpt lat="41.0958787" lon="15.5942218"><ele>196.0</ele><time>2026-04-19T17:38:36.996Z</time></trkpt><trkpt lat="41.0957201" lon="15.5942236"><ele>196.25</ele><time>2026-04-19T17:38:37.996Z</time></trkpt><trkpt lat="41.0955693" lon="15.5942253"><ele>196.5</ele><time>2026-04-19T17:38:38.996Z</time></trkpt><trkpt lat="41.0954261" lon="15.5942251"><ele>196.75</ele><time>2026-04-19T17:38:39.997Z</time></trkpt><trkpt lat="41.0952909" lon="15.5942241"><ele>197.0</ele><time>2026-04-19T17:38:40.996Z</time></trkpt><trkpt lat="41.0951625" lon="15.5942237"><ele>197.0</ele><time>2026-04-19T17:38:41.996Z</time></trkpt><trkpt lat="41.0950373" lon="15.5942244"><ele>197.0</ele><time>2026-04-19T17:38:42.996Z</time></trkpt><trkpt lat="41.0949169" lon="15.5942257"><ele>197.0</ele><time>2026-04-19T17:38:43.996Z</time></trkpt><trkpt lat="41.094803" lon="15.5942293"><ele>197.0</ele><time>2026-04-19T17:38:44.996Z</time></trkpt><trkpt lat="41.0946959" lon="15.5942308"><ele>196.66666666666669</ele><time>2026-04-19T17:38:45.996Z</time></trkpt><trkpt lat="41.0945958" lon="15.5942324"><ele>196.33333333333334</ele><time>2026-04-19T17:38:46.996Z</time></trkpt><trkpt lat="41.0945004" lon="15.5942331"><ele>196.0</ele><time>2026-04-19T17:38:47.997Z</time></trkpt><trkpt lat="41.0944117" lon="15.5942333"><ele>195.66666666666669</ele><time>2026-04-19T17:38:48.996Z</time></trkpt><trkpt lat="41.0943274" lon="15.5942342"><ele>195.33333333333334</ele><time>2026-04-19T17:38:49.996Z</time></trkpt><trkpt lat="41.094248" lon="15.5942338"><ele>195.0</ele><time>2026-04-19T17:38:50.996Z</time></trkpt><trkpt lat="41.0941726" lon="15.5942352"><ele>195.0</ele><time>2026-04-19T17:38:51.996Z</time></trkpt><trkpt lat="41.0941025" lon="15.5942368"><ele>195.0</ele><time>2026-04-19T17:38:52.996Z</time></trkpt><trkpt lat="41.0939904" lon="15.594236"><ele>195.0</ele><time>2026-04-19T17:38:54.996Z</time></trkpt><trkpt lat="41.0939112" lon="15.5942027"><ele>195.0</ele><time>2026-04-19T17:38:56.996Z</time></trkpt><trkpt lat="41.0938662" lon="15.594123"><ele>195.0</ele><time>2026-04-19T17:38:58.996Z</time></trkpt><trkpt lat="41.093845" lon="15.5940339"><ele>195.0</ele><time>2026-04-19T17:39:00.997Z</time></trkpt><trkpt lat="41.0938231" lon="15.5939446"><ele>195.0</ele><time>2026-04-19T17:39:02.996Z</time></trkpt><trkpt lat="41.0937942" lon="15.5938624"><ele>195.0</ele><time>2026-04-19T17:39:04.996Z</time></trkpt><trkpt lat="41.0937825" lon="15.5937792"><ele>195.0</ele><time>2026-04-19T17:39:10.996Z</time></trkpt><trkpt lat="41.093522" lon="15.593951"><ele>195.0</ele><time>2026-04-19T17:47:02.996Z</time></trkpt><trkpt lat="41.0934921" lon="15.5940253"><ele>195.0</ele><time>2026-04-19T17:47:04.997Z</time></trkpt><trkpt lat="41.0934162" lon="15.5941315"><ele>195.0</ele><time>2026-04-19T17:47:05.996Z</time></trkpt><trkpt lat="41.0933539" lon="15.5942442"><ele>195.0</ele><time>2026-04-19T17:47:07.996Z</time></trkpt><trkpt lat="41.0932343" lon="15.5943219"><ele>195.0</ele><time>2026-04-19T17:47:09.996Z</time></trkpt><trkpt lat="41.0931487" lon="15.5943496"><ele>195.0</ele><time>2026-04-19T17:47:10.996Z</time></trkpt><trkpt lat="41.093051" lon="15.5943696"><ele>195.0</ele><time>2026-04-19T17:47:11.996Z</time></trkpt><trkpt lat="41.092948" lon="15.5943933"><ele>195.0</ele><time>2026-04-19T17:47:12.996Z</time></trkpt><trkpt lat="41.0928391" lon="15.5944232"><ele>195.0</ele><time>2026-04-19T17:47:13.997Z</time></trkpt><trkpt lat="41.0927281" lon="15.5944591"><ele>195.0</ele><time>2026-04-19T17:47:14.996Z</time></trkpt><trkpt lat="41.0926167" lon="15.5944983"><ele>195.0</ele><time>2026-04-19T17:47:15.996Z</time></trkpt><trkpt lat="41.092505" lon="15.5945417"><ele>195.25</ele><time>2026-04-19T17:47:16.996Z</time></trkpt><trkpt lat="41.0923917" lon="15.5945867"><ele>195.5</ele><time>2026-04-19T17:47:17.996Z</time></trkpt><trkpt lat="41.0922767" lon="15.5946333"><ele>195.75</ele><time>2026-04-19T17:47:18.996Z</time></trkpt><trkpt lat="41.0921633" lon="15.5946783"><ele>196.0</ele><time>2026-04-19T17:47:19.996Z</time></trkpt><trkpt lat="41.09205" lon="15.594725"><ele>196.0</ele><time>2026-04-19T17:47:20.996Z</time></trkpt><trkpt lat="41.0919367" lon="15.5947717"><ele>196.0</ele><time>2026-04-19T17:47:21.996Z</time></trkpt><trkpt lat="41.091825" lon="15.59482"><ele>196.0</ele><time>2026-04-19T17:47:22.996Z</time></trkpt><trkpt lat="41.09171" lon="15.594865"><ele>196.0</ele><time>2026-04-19T17:47:23.996Z</time></trkpt><trkpt lat="41.0915933" lon="15.5949133"><ele>196.25</ele><time>2026-04-19T17:47:24.996Z</time></trkpt><trkpt lat="41.0914767" lon="15.5949617"><ele>196.5</ele><time>2026-04-19T17:47:25.996Z</time></trkpt><trkpt lat="41.0913533" lon="15.59501"><ele>196.75</ele><time>2026-04-19T17:47:26.996Z</time></trkpt><trkpt lat="41.091225" lon="15.5950583"><ele>197.0</ele><time>2026-04-19T17:47:27.996Z</time></trkpt><trkpt lat="41.0910917" lon="15.5951133"><ele>197.0</ele><time>2026-04-19T17:47:28.996Z</time></trkpt><trkpt lat="41.0909567" lon="15.5951683"><ele>197.0</ele><time>2026-04-19T17:47:29.996Z</time></trkpt><trkpt lat="41.0908183" lon="15.5952233"><ele>197.0</ele><time>2026-04-19T17:47:30.997Z</time></trkpt><trkpt lat="41.0906783" lon="15.5952817"><ele>197.0</ele><time>2026-04-19T17:47:31.996Z</time></trkpt><trkpt lat="41.0905367" lon="15.5953433"><ele>196.66666666666669</ele><time>2026-04-19T17:47:32.996Z</time></trkpt><trkpt lat="41.0903933" lon="15.5954117"><ele>196.33333333333331</ele><time>2026-04-19T17:47:33.997Z</time></trkpt><trkpt lat="41.09025" lon="15.5954833"><ele>196.0</ele><time>2026-04-19T17:47:34.997Z</time></trkpt><trkpt lat="41.0901033" lon="15.5955583"><ele>196.0</ele><time>2026-04-19T17:47:35.996Z</time></trkpt><trkpt lat="41.0899533" lon="15.5956233"><ele>196.0</ele><time>2026-04-19T17:47:36.996Z</time></trkpt><trkpt lat="41.0898067" lon="15.595705"><ele>196.0</ele><time>2026-04-19T17:47:37.996Z</time></trkpt><trkpt lat="41.0896633" lon="15.5957783"><ele>196.0</ele><time>2026-04-19T17:47:38.997Z</time></trkpt><trkpt lat="41.08952" lon="15.595855"><ele>196.0</ele><time>2026-04-19T17:47:39.996Z</time></trkpt><trkpt lat="41.08938" lon="15.5959367"><ele>196.0</ele><time>2026-04-19T17:47:40.996Z</time></trkpt><trkpt lat="41.0892517" lon="15.5960433"><ele>196.0</ele><time>2026-04-19T17:47:41.996Z</time></trkpt><trkpt lat="41.089125" lon="15.5961583"><ele>196.0</ele><time>2026-04-19T17:47:42.996Z</time></trkpt><trkpt lat="41.0889983" lon="15.5962733"><ele>196.0</ele><time>2026-04-19T17:47:43.996Z</time></trkpt><trkpt lat="41.0888733" lon="15.596395"><ele>196.66666666666666</ele><time>2026-04-19T17:47:44.996Z</time></trkpt><trkpt lat="41.0887483" lon="15.59651"><ele>197.33333333333331</ele><time>2026-04-19T17:47:45.996Z</time></trkpt><trkpt lat="41.0886233" lon="15.5966317"><ele>198.0</ele><time>2026-04-19T17:47:46.996Z</time></trkpt><trkpt lat="41.0885" lon="15.5967533"><ele>198.0</ele><time>2026-04-19T17:47:47.996Z</time></trkpt><trkpt lat="41.0883867" lon="15.5968917"><ele>198.0</ele><time>2026-04-19T17:47:48.996Z</time></trkpt><trkpt lat="41.0882733" lon="15.59703"><ele>198.0</ele><time>2026-04-19T17:47:49.996Z</time></trkpt><trkpt lat="41.0881617" lon="15.59717"><ele>198.33333333333331</ele><time>2026-04-19T17:47:50.996Z</time></trkpt><trkpt lat="41.0880517" lon="15.59731"><ele>198.66666666666666</ele><time>2026-04-19T17:47:51.996Z</time></trkpt><trkpt lat="41.0879383" lon="15.5974483"><ele>199.0</ele><time>2026-04-19T17:47:52.996Z</time></trkpt><trkpt lat="41.087825" lon="15.5975817"><ele>199.0</ele><time>2026-04-19T17:47:53.996Z</time></trkpt><trkpt lat="41.08772" lon="15.5977267"><ele>199.0</ele><time>2026-04-19T17:47:54.996Z</time></trkpt><trkpt lat="41.087615" lon="15.597865"><ele>199.0</ele><time>2026-04-19T17:47:55.997Z</time></trkpt><trkpt lat="41.0875167" lon="15.59801"><ele>199.0</ele><time>2026-04-19T17:47:56.996Z</time></trkpt><trkpt lat="41.08742" lon="15.598155"><ele>199.25</ele><time>2026-04-19T17:47:57.997Z</time></trkpt><trkpt lat="41.08733" lon="15.5983033"><ele>199.5</ele><time>2026-04-19T17:47:58.996Z</time></trkpt><trkpt lat="41.0872417" lon="15.5984517"><ele>199.75</ele><time>2026-04-19T17:47:59.996Z</time></trkpt><trkpt lat="41.087155" lon="15.5985983"><ele>200.0</ele><time>2026-04-19T17:48:00.996Z</time></trkpt><trkpt lat="41.08707" lon="15.5987483"><ele>200.0</ele><time>2026-04-19T17:48:01.997Z</time></trkpt><trkpt lat="41.0869967" lon="15.5989067"><ele>200.0</ele><time>2026-04-19T17:48:02.996Z</time></trkpt><trkpt lat="41.0869283" lon="15.59907"><ele>200.0</ele><time>2026-04-19T17:48:03.996Z</time></trkpt><trkpt lat="41.08686" lon="15.5992283"><ele>200.0</ele><time>2026-04-19T17:48:04.996Z</time></trkpt><trkpt lat="41.0867883" lon="15.5993867"><ele>199.75</ele><time>2026-04-19T17:48:05.996Z</time></trkpt><trkpt lat="41.0867217" lon="15.5995517"><ele>199.5</ele><time>2026-04-19T17:48:06.997Z</time></trkpt><trkpt lat="41.0866467" lon="15.5997083"><ele>199.25</ele><time>2026-04-19T17:48:07.996Z</time></trkpt><trkpt lat="41.0865783" lon="15.5998717"><ele>199.0</ele><time>2026-04-19T17:48:08.996Z</time></trkpt><trkpt lat="41.0865133" lon="15.6000333"><ele>200.0</ele><time>2026-04-19T17:48:09.996Z</time></trkpt><trkpt lat="41.086445" lon="15.60019"><ele>201.0</ele><time>2026-04-19T17:48:10.997Z</time></trkpt><trkpt lat="41.0863767" lon="15.600345"><ele>202.0</ele><time>2026-04-19T17:48:11.997Z</time></trkpt><trkpt lat="41.0863017" lon="15.6004967"><ele>203.0</ele><time>2026-04-19T17:48:12.996Z</time></trkpt><trkpt lat="41.08623" lon="15.6006467"><ele>203.5</ele><time>2026-04-19T17:48:13.996Z</time></trkpt><trkpt lat="41.0861567" lon="15.6007983"><ele>204.0</ele><time>2026-04-19T17:48:14.996Z</time></trkpt><trkpt lat="41.08608" lon="15.6009467"><ele>204.5</ele><time>2026-04-19T17:48:15.996Z</time></trkpt><trkpt lat="41.08601" lon="15.6011"><ele>205.0</ele><time>2026-04-19T17:48:16.997Z</time></trkpt><trkpt lat="41.0859383" lon="15.6012483"><ele>205.25</ele><time>2026-04-19T17:48:17.996Z</time></trkpt><trkpt lat="41.085865" lon="15.6013933"><ele>205.5</ele><time>2026-04-19T17:48:18.996Z</time></trkpt><trkpt lat="41.085795" lon="15.60154"><ele>205.75</ele><time>2026-04-19T17:48:19.996Z</time></trkpt><trkpt lat="41.085725" lon="15.601685"><ele>206.0</ele><time>2026-04-19T17:48:20.996Z</time></trkpt><trkpt lat="41.0856583" lon="15.6018333"><ele>206.75</ele><time>2026-04-19T17:48:21.996Z</time></trkpt><trkpt lat="41.08559" lon="15.60198"><ele>207.5</ele><time>2026-04-19T17:48:22.997Z</time></trkpt><trkpt lat="41.085525" lon="15.6021267"><ele>208.25</ele><time>2026-04-19T17:48:23.996Z</time></trkpt><trkpt lat="41.085465" lon="15.6022717"><ele>209.0</ele><time>2026-04-19T17:48:24.996Z</time></trkpt><trkpt lat="41.0854017" lon="15.6024133"><ele>209.5</ele><time>2026-04-19T17:48:25.996Z</time></trkpt><trkpt lat="41.0853367" lon="15.6025517"><ele>210.0</ele><time>2026-04-19T17:48:26.996Z</time></trkpt><trkpt lat="41.0852733" lon="15.60269"><ele>210.5</ele><time>2026-04-19T17:48:27.996Z</time></trkpt><trkpt lat="41.0852083" lon="15.6028267"><ele>211.0</ele><time>2026-04-19T17:48:28.996Z</time></trkpt><trkpt lat="41.0851467" lon="15.6029717"><ele>211.25</ele><time>2026-04-19T17:48:29.996Z</time></trkpt><trkpt lat="41.0850883" lon="15.60312"><ele>211.5</ele><time>2026-04-19T17:48:30.996Z</time></trkpt><trkpt lat="41.0850217" lon="15.6032617"><ele>211.75</ele><time>2026-04-19T17:48:31.996Z</time></trkpt><trkpt lat="41.0849633" lon="15.6034133"><ele>212.0</ele><time>2026-04-19T17:48:32.997Z</time></trkpt><trkpt lat="41.0849" lon="15.6035583"><ele>212.75</ele><time>2026-04-19T17:48:33.996Z</time></trkpt><trkpt lat="41.0848333" lon="15.6037033"><ele>213.5</ele><time>2026-04-19T17:48:34.996Z</time></trkpt><trkpt lat="41.0847617" lon="15.6038467"><ele>214.25</ele><time>2026-04-19T17:48:35.996Z</time></trkpt><trkpt lat="41.0847" lon="15.6039983"><ele>215.0</ele><time>2026-04-19T17:48:36.996Z</time></trkpt><trkpt lat="41.084635" lon="15.60415"><ele>215.0</ele><time>2026-04-19T17:48:37.996Z</time></trkpt><trkpt lat="41.0845633" lon="15.6043"><ele>215.0</ele><time>2026-04-19T17:48:38.996Z</time></trkpt><trkpt lat="41.0845" lon="15.6044583"><ele>215.0</ele><time>2026-04-19T17:48:39.996Z</time></trkpt><trkpt lat="41.0844333" lon="15.6046133"><ele>215.0</ele><time>2026-04-19T17:48:40.996Z</time></trkpt><trkpt lat="41.0843633" lon="15.6047667"><ele>214.75</ele><time>2026-04-19T17:48:41.996Z</time></trkpt><trkpt lat="41.0842917" lon="15.6049233"><ele>214.5</ele><time>2026-04-19T17:48:42.996Z</time></trkpt><trkpt lat="41.0842167" lon="15.60508"><ele>214.25</ele><time>2026-04-19T17:48:43.996Z</time></trkpt><trkpt lat="41.0841483" lon="15.60524"><ele>214.0</ele><time>2026-04-19T17:48:44.996Z</time></trkpt><trkpt lat="41.0840717" lon="15.6053983"><ele>214.75</ele><time>2026-04-19T17:48:45.996Z</time></trkpt><trkpt lat="41.083995" lon="15.6055583"><ele>215.5</ele><time>2026-04-19T17:48:46.996Z</time></trkpt><trkpt lat="41.08392" lon="15.60572"><ele>216.25</ele><time>2026-04-19T17:48:47.996Z</time></trkpt><trkpt lat="41.0838433" lon="15.6058783"><ele>217.0</ele><time>2026-04-19T17:48:48.996Z</time></trkpt><trkpt lat="41.0837633" lon="15.6060317"><ele>216.5</ele><time>2026-04-19T17:48:49.996Z</time></trkpt><trkpt lat="41.083685" lon="15.6061817"><ele>216.0</ele><time>2026-04-19T17:48:50.997Z</time></trkpt><trkpt lat="41.0836133" lon="15.6063283"><ele>215.5</ele><time>2026-04-19T17:48:51.996Z</time></trkpt><trkpt lat="41.0835417" lon="15.6064667"><ele>215.0</ele><time>2026-04-19T17:48:52.996Z</time></trkpt><trkpt lat="41.0834717" lon="15.6065967"><ele>215.0</ele><time>2026-04-19T17:48:53.996Z</time></trkpt><trkpt lat="41.0834" lon="15.606715"><ele>215.0</ele><time>2026-04-19T17:48:54.996Z</time></trkpt><trkpt lat="41.083325" lon="15.6068317"><ele>215.0</ele><time>2026-04-19T17:48:55.997Z</time></trkpt><trkpt lat="41.0832417" lon="15.6069417"><ele>215.0</ele><time>2026-04-19T17:48:56.996Z</time></trkpt><trkpt lat="41.0831517" lon="15.6070583"><ele>215.75</ele><time>2026-04-19T17:48:57.996Z</time></trkpt><trkpt lat="41.083059" lon="15.6071792"><ele>216.5</ele><time>2026-04-19T17:48:58.997Z</time></trkpt><trkpt lat="41.0829549" lon="15.6072918"><ele>217.25</ele><time>2026-04-19T17:48:59.997Z</time></trkpt><trkpt lat="41.08284" lon="15.6073933"><ele>218.0</ele><time>2026-04-19T17:49:00.996Z</time></trkpt><trkpt lat="41.082718" lon="15.607484"><ele>218.0</ele><time>2026-04-19T17:49:01.996Z</time></trkpt><trkpt lat="41.082593" lon="15.6075675"><ele>218.0</ele><time>2026-04-19T17:49:02.996Z</time></trkpt><trkpt lat="41.0824613" lon="15.6076332"><ele>218.0</ele><time>2026-04-19T17:49:03.997Z</time></trkpt><trkpt lat="41.0823253" lon="15.6076827"><ele>218.0</ele><time>2026-04-19T17:49:04.997Z</time></trkpt><trkpt lat="41.0821883" lon="15.6077215"><ele>219.75</ele><time>2026-04-19T17:49:05.996Z</time></trkpt><trkpt lat="41.0820529" lon="15.607751"><ele>221.5</ele><time>2026-04-19T17:49:06.997Z</time></trkpt><trkpt lat="41.0819182" lon="15.6077672"><ele>223.25</ele><time>2026-04-19T17:49:07.996Z</time></trkpt><trkpt lat="41.0817823" lon="15.6077643"><ele>225.0</ele><time>2026-04-19T17:49:08.996Z</time></trkpt><trkpt lat="41.081644" lon="15.6077497"><ele>226.75</ele><time>2026-04-19T17:49:09.996Z</time></trkpt><trkpt lat="41.0815014" lon="15.6077367"><ele>228.5</ele><time>2026-04-19T17:49:10.996Z</time></trkpt><trkpt lat="41.0813548" lon="15.6077332"><ele>230.25</ele><time>2026-04-19T17:49:11.996Z</time></trkpt><trkpt lat="41.0812046" lon="15.6077222"><ele>232.0</ele><time>2026-04-19T17:49:12.997Z</time></trkpt><trkpt lat="41.0810485" lon="15.6077003"><ele>232.0</ele><time>2026-04-19T17:49:13.997Z</time></trkpt><trkpt lat="41.0808928" lon="15.6076829"><ele>232.0</ele><time>2026-04-19T17:49:14.996Z</time></trkpt><trkpt lat="41.0807371" lon="15.6076663"><ele>232.0</ele><time>2026-04-19T17:49:15.996Z</time></trkpt><trkpt lat="41.0805819" lon="15.6076504"><ele>233.33333333333331</ele><time>2026-04-19T17:49:16.997Z</time></trkpt><trkpt lat="41.0804287" lon="15.6076287"><ele>234.66666666666669</ele><time>2026-04-19T17:49:17.996Z</time></trkpt><trkpt lat="41.0802761" lon="15.6076093"><ele>236.0</ele><time>2026-04-19T17:49:18.996Z</time></trkpt><trkpt lat="41.0801267" lon="15.6075861"><ele>236.0</ele><time>2026-04-19T17:49:19.996Z</time></trkpt><trkpt lat="41.0799784" lon="15.6075617"><ele>236.0</ele><time>2026-04-19T17:49:20.996Z</time></trkpt><trkpt lat="41.0798329" lon="15.6075301"><ele>236.0</ele><time>2026-04-19T17:49:21.996Z</time></trkpt><trkpt lat="41.0796896" lon="15.6074865"><ele>236.0</ele><time>2026-04-19T17:49:22.997Z</time></trkpt><trkpt lat="41.0795464" lon="15.6074373"><ele>235.66666666666669</ele><time>2026-04-19T17:49:23.996Z</time></trkpt><trkpt lat="41.0794014" lon="15.6073852"><ele>235.33333333333331</ele><time>2026-04-19T17:49:24.997Z</time></trkpt><trkpt lat="41.079255" lon="15.6073345"><ele>235.0</ele><time>2026-04-19T17:49:25.996Z</time></trkpt><trkpt lat="41.0791038" lon="15.6072919"><ele>235.66666666666666</ele><time>2026-04-19T17:49:26.996Z</time></trkpt><trkpt lat="41.0789501" lon="15.6072542"><ele>236.33333333333331</ele><time>2026-04-19T17:49:27.996Z</time></trkpt><trkpt lat="41.0787922" lon="15.6072205"><ele>237.0</ele><time>2026-04-19T17:49:28.996Z</time></trkpt><trkpt lat="41.0786306" lon="15.6071959"><ele>237.0</ele><time>2026-04-19T17:49:29.996Z</time></trkpt><trkpt lat="41.0784671" lon="15.607178"><ele>237.0</ele><time>2026-04-19T17:49:30.997Z</time></trkpt><trkpt lat="41.0783006" lon="15.6071713"><ele>237.0</ele><time>2026-04-19T17:49:31.996Z</time></trkpt><trkpt lat="41.0781294" lon="15.6071658"><ele>238.0</ele><time>2026-04-19T17:49:32.996Z</time></trkpt><trkpt lat="41.077957" lon="15.6071677"><ele>239.0</ele><time>2026-04-19T17:49:33.996Z</time></trkpt><trkpt lat="41.0777792" lon="15.6071811"><ele>240.0</ele><time>2026-04-19T17:49:34.996Z</time></trkpt><trkpt lat="41.0775935" lon="15.6072097"><ele>240.33333333333331</ele><time>2026-04-19T17:49:35.996Z</time></trkpt><trkpt lat="41.0774004" lon="15.6072399"><ele>240.66666666666666</ele><time>2026-04-19T17:49:36.996Z</time></trkpt><trkpt lat="41.0772023" lon="15.6072714"><ele>241.0</ele><time>2026-04-19T17:49:37.997Z</time></trkpt><trkpt lat="41.0769979" lon="15.6072954"><ele>241.0</ele><time>2026-04-19T17:49:38.997Z</time></trkpt><trkpt lat="41.0767879" lon="15.6073298"><ele>241.0</ele><time>2026-04-19T17:49:39.996Z</time></trkpt><trkpt lat="41.0765753" lon="15.6073746"><ele>241.0</ele><time>2026-04-19T17:49:40.996Z</time></trkpt><trkpt lat="41.0763591" lon="15.607425"><ele>241.66666666666666</ele><time>2026-04-19T17:49:41.997Z</time></trkpt><trkpt lat="41.0761403" lon="15.6074767"><ele>242.33333333333331</ele><time>2026-04-19T17:49:42.996Z</time></trkpt><trkpt lat="41.07592" lon="15.6075306"><ele>243.0</ele><time>2026-04-19T17:49:43.997Z</time></trkpt><trkpt lat="41.0756963" lon="15.6075785"><ele>245.5</ele><time>2026-04-19T17:49:44.996Z</time></trkpt><trkpt lat="41.0754698" lon="15.6076212"><ele>248.0</ele><time>2026-04-19T17:49:45.996Z</time></trkpt><trkpt lat="41.07524" lon="15.6076656"><ele>248.0</ele><time>2026-04-19T17:49:46.996Z</time></trkpt><trkpt lat="41.0750079" lon="15.607714"><ele>248.0</ele><time>2026-04-19T17:49:47.997Z</time></trkpt><trkpt lat="41.0747744" lon="15.6077563"><ele>250.0</ele><time>2026-04-19T17:49:48.996Z</time></trkpt><trkpt lat="41.0745397" lon="15.6077983"><ele>252.0</ele><time>2026-04-19T17:49:49.997Z</time></trkpt><trkpt lat="41.0743057" lon="15.6078611"><ele>254.0</ele><time>2026-04-19T17:49:50.996Z</time></trkpt><trkpt lat="41.0740701" lon="15.6079223"><ele>256.0</ele><time>2026-04-19T17:49:51.997Z</time></trkpt><trkpt lat="41.0738324" lon="15.6079781"><ele>256.0</ele><time>2026-04-19T17:49:52.996Z</time></trkpt><trkpt lat="41.073595" lon="15.6080357"><ele>256.0</ele><time>2026-04-19T17:49:53.996Z</time></trkpt><trkpt lat="41.0733567" lon="15.6080941"><ele>257.5</ele><time>2026-04-19T17:49:54.997Z</time></trkpt><trkpt lat="41.073117" lon="15.608156"><ele>259.0</ele><time>2026-04-19T17:49:55.997Z</time></trkpt><trkpt lat="41.0728756" lon="15.6082119"><ele>259.0</ele><time>2026-04-19T17:49:56.997Z</time></trkpt><trkpt lat="41.0726324" lon="15.6082661"><ele>259.0</ele><time>2026-04-19T17:49:57.997Z</time></trkpt><trkpt lat="41.0723901" lon="15.6083221"><ele>262.5</ele><time>2026-04-19T17:49:58.996Z</time></trkpt><trkpt lat="41.0721473" lon="15.6083814"><ele>266.0</ele><time>2026-04-19T17:49:59.996Z</time></trkpt><trkpt lat="41.0719038" lon="15.6084391"><ele>266.0</ele><time>2026-04-19T17:50:00.996Z</time></trkpt><trkpt lat="41.0716589" lon="15.6084924"><ele>266.0</ele><time>2026-04-19T17:50:01.997Z</time></trkpt><trkpt lat="41.0714136" lon="15.6085465"><ele>269.5</ele><time>2026-04-19T17:50:02.996Z</time></trkpt><trkpt lat="41.0711683" lon="15.6086025"><ele>273.0</ele><time>2026-04-19T17:50:03.996Z</time></trkpt><trkpt lat="41.0709235" lon="15.6086578"><ele>275.5</ele><time>2026-04-19T17:50:04.996Z</time></trkpt><trkpt lat="41.0706773" lon="15.6087117"><ele>278.0</ele><time>2026-04-19T17:50:05.996Z</time></trkpt><trkpt lat="41.0704305" lon="15.6087615"><ele>278.0</ele><time>2026-04-19T17:50:06.996Z</time></trkpt><trkpt lat="41.0701824" lon="15.6088101"><ele>278.0</ele><time>2026-04-19T17:50:07.996Z</time></trkpt><trkpt lat="41.0699353" lon="15.6088623"><ele>280.5</ele><time>2026-04-19T17:50:08.996Z</time></trkpt><trkpt lat="41.0696885" lon="15.6089154"><ele>283.0</ele><time>2026-04-19T17:50:09.996Z</time></trkpt><trkpt lat="41.0694418" lon="15.608971"><ele>283.0</ele><time>2026-04-19T17:50:10.996Z</time></trkpt><trkpt lat="41.0691953" lon="15.6090265"><ele>283.0</ele><time>2026-04-19T17:50:11.996Z</time></trkpt><trkpt lat="41.0689484" lon="15.6090779"><ele>285.5</ele><time>2026-04-19T17:50:12.997Z</time></trkpt><trkpt lat="41.0687018" lon="15.6091277"><ele>288.0</ele><time>2026-04-19T17:50:13.996Z</time></trkpt><trkpt lat="41.0684556" lon="15.6091798"><ele>288.0</ele><time>2026-04-19T17:50:14.997Z</time></trkpt><trkpt lat="41.0682104" lon="15.6092344"><ele>288.0</ele><time>2026-04-19T17:50:15.996Z</time></trkpt><trkpt lat="41.0679667" lon="15.6092905"><ele>288.0</ele><time>2026-04-19T17:50:16.996Z</time></trkpt><trkpt lat="41.0677251" lon="15.6093473"><ele>288.0</ele><time>2026-04-19T17:50:17.996Z</time></trkpt><trkpt lat="41.0674833" lon="15.6094001"><ele>288.5</ele><time>2026-04-19T17:50:18.996Z</time></trkpt><trkpt lat="41.0672404" lon="15.6094533"><ele>289.0</ele><time>2026-04-19T17:50:19.996Z</time></trkpt><trkpt lat="41.0669971" lon="15.6095066"><ele>289.5</ele><time>2026-04-19T17:50:20.996Z</time></trkpt><trkpt lat="41.0667548" lon="15.6095599"><ele>290.0</ele><time>2026-04-19T17:50:21.996Z</time></trkpt><trkpt lat="41.0665146" lon="15.6096131"><ele>292.0</ele><time>2026-04-19T17:50:22.996Z</time></trkpt><trkpt lat="41.0662762" lon="15.6096635"><ele>294.0</ele><time>2026-04-19T17:50:23.996Z</time></trkpt><trkpt lat="41.0660385" lon="15.6097161"><ele>294.0</ele><time>2026-04-19T17:50:24.997Z</time></trkpt><trkpt lat="41.0658004" lon="15.6097647"><ele>294.0</ele><time>2026-04-19T17:50:25.996Z</time></trkpt><trkpt lat="41.0655631" lon="15.6098076"><ele>296.5</ele><time>2026-04-19T17:50:26.996Z</time></trkpt><trkpt lat="41.0653266" lon="15.6098494"><ele>299.0</ele><time>2026-04-19T17:50:27.997Z</time></trkpt><trkpt lat="41.0650899" lon="15.6098853"><ele>301.5</ele><time>2026-04-19T17:50:28.996Z</time></trkpt><trkpt lat="41.0648546" lon="15.6099092"><ele>304.0</ele><time>2026-04-19T17:50:29.996Z</time></trkpt><trkpt lat="41.0646182" lon="15.6099201"><ele>304.0</ele><time>2026-04-19T17:50:30.997Z</time></trkpt><trkpt lat="41.0643804" lon="15.6099201"><ele>304.0</ele><time>2026-04-19T17:50:31.996Z</time></trkpt><trkpt lat="41.0641433" lon="15.6099098"><ele>306.5</ele><time>2026-04-19T17:50:32.996Z</time></trkpt><trkpt lat="41.0639066" lon="15.6098905"><ele>309.0</ele><time>2026-04-19T17:50:33.996Z</time></trkpt><trkpt lat="41.06367" lon="15.6098593"><ele>309.0</ele><time>2026-04-19T17:50:34.996Z</time></trkpt><trkpt lat="41.063436" lon="15.6098128"><ele>309.0</ele><time>2026-04-19T17:50:35.996Z</time></trkpt><trkpt lat="41.0632042" lon="15.6097568"><ele>312.0</ele><time>2026-04-19T17:50:36.996Z</time></trkpt><trkpt lat="41.0629767" lon="15.609694"><ele>315.0</ele><time>2026-04-19T17:50:37.997Z</time></trkpt><trkpt lat="41.0627534" lon="15.6096283"><ele>315.0</ele><time>2026-04-19T17:50:38.996Z</time></trkpt><trkpt lat="41.0625357" lon="15.6095559"><ele>315.0</ele><time>2026-04-19T17:50:39.996Z</time></trkpt><trkpt lat="41.0623208" lon="15.6094852"><ele>315.0</ele><time>2026-04-19T17:50:40.997Z</time></trkpt><trkpt lat="41.0621115" lon="15.6094126"><ele>317.3333333333333</ele><time>2026-04-19T17:50:41.997Z</time></trkpt><trkpt lat="41.0619081" lon="15.6093376"><ele>319.66666666666663</ele><time>2026-04-19T17:50:42.996Z</time></trkpt><trkpt lat="41.06171" lon="15.6092653"><ele>322.0</ele><time>2026-04-19T17:50:43.996Z</time></trkpt><trkpt lat="41.0615155" lon="15.6091951"><ele>323.66666666666663</ele><time>2026-04-19T17:50:44.996Z</time></trkpt><trkpt lat="41.0613253" lon="15.6091277"><ele>325.3333333333333</ele><time>2026-04-19T17:50:45.996Z</time></trkpt><trkpt lat="41.0611362" lon="15.6090614"><ele>327.0</ele><time>2026-04-19T17:50:46.996Z</time></trkpt><trkpt lat="41.0609508" lon="15.6089938"><ele>327.3333333333333</ele><time>2026-04-19T17:50:47.996Z</time></trkpt><trkpt lat="41.0607675" lon="15.6089306"><ele>327.66666666666663</ele><time>2026-04-19T17:50:48.996Z</time></trkpt><trkpt lat="41.0605859" lon="15.6088688"><ele>328.0</ele><time>2026-04-19T17:50:49.996Z</time></trkpt><trkpt lat="41.0604045" lon="15.6088061"><ele>328.0</ele><time>2026-04-19T17:50:50.996Z</time></trkpt><trkpt lat="41.0602245" lon="15.6087408"><ele>328.0</ele><time>2026-04-19T17:50:51.996Z</time></trkpt><trkpt lat="41.0600448" lon="15.6086756"><ele>328.0</ele><time>2026-04-19T17:50:52.996Z</time></trkpt><trkpt lat="41.0598665" lon="15.6086106"><ele>328.66666666666663</ele><time>2026-04-19T17:50:53.996Z</time></trkpt><trkpt lat="41.0596882" lon="15.6085469"><ele>329.3333333333333</ele><time>2026-04-19T17:50:54.996Z</time></trkpt><trkpt lat="41.0595125" lon="15.6084834"><ele>330.0</ele><time>2026-04-19T17:50:55.996Z</time></trkpt><trkpt lat="41.0593368" lon="15.6084204"><ele>330.0</ele><time>2026-04-19T17:50:56.996Z</time></trkpt><trkpt lat="41.0591627" lon="15.6083607"><ele>330.0</ele><time>2026-04-19T17:50:57.996Z</time></trkpt><trkpt lat="41.0589725" lon="15.6083022"><ele>330.0</ele><time>2026-04-19T17:50:58.996Z</time></trkpt><trkpt lat="41.0587966" lon="15.6082416"><ele>328.6666666666667</ele><time>2026-04-19T17:50:59.996Z</time></trkpt><trkpt lat="41.0586252" lon="15.6081781"><ele>327.33333333333337</ele><time>2026-04-19T17:51:00.997Z</time></trkpt><trkpt lat="41.058458" lon="15.6081218"><ele>326.0</ele><time>2026-04-19T17:51:01.996Z</time></trkpt><trkpt lat="41.0583001" lon="15.608066"><ele>326.6666666666667</ele><time>2026-04-19T17:51:02.996Z</time></trkpt><trkpt lat="41.0581472" lon="15.6080161"><ele>327.3333333333333</ele><time>2026-04-19T17:51:03.996Z</time></trkpt><trkpt lat="41.0580001" lon="15.6079642"><ele>328.0</ele><time>2026-04-19T17:51:04.997Z</time></trkpt><trkpt lat="41.0578583" lon="15.6079086"><ele>328.0</ele><time>2026-04-19T17:51:05.996Z</time></trkpt><trkpt lat="41.0577173" lon="15.607857"><ele>328.0</ele><time>2026-04-19T17:51:06.996Z</time></trkpt><trkpt lat="41.0575746" lon="15.6078065"><ele>328.0</ele><time>2026-04-19T17:51:07.996Z</time></trkpt><trkpt lat="41.0574331" lon="15.6077565"><ele>328.0</ele><time>2026-04-19T17:51:08.996Z</time></trkpt><trkpt lat="41.0572901" lon="15.6077041"><ele>333.0</ele><time>2026-04-19T17:51:09.996Z</time></trkpt><trkpt lat="41.0571423" lon="15.6076518"><ele>338.0</ele><time>2026-04-19T17:51:10.996Z</time></trkpt><trkpt lat="41.0569886" lon="15.6076016"><ele>343.0</ele><time>2026-04-19T17:51:11.997Z</time></trkpt><trkpt lat="41.0568287" lon="15.6075543"><ele>343.0</ele><time>2026-04-19T17:51:12.997Z</time></trkpt><trkpt lat="41.0566627" lon="15.6075044"><ele>343.0</ele><time>2026-04-19T17:51:13.996Z</time></trkpt><trkpt lat="41.0564882" lon="15.6074438"><ele>343.0</ele><time>2026-04-19T17:51:14.997Z</time></trkpt><trkpt lat="41.0563079" lon="15.6073798"><ele>342.66666666666663</ele><time>2026-04-19T17:51:15.997Z</time></trkpt><trkpt lat="41.0561259" lon="15.6073067"><ele>342.3333333333333</ele><time>2026-04-19T17:51:16.996Z</time></trkpt><trkpt lat="41.0559422" lon="15.6072278"><ele>342.0</ele><time>2026-04-19T17:51:17.996Z</time></trkpt><trkpt lat="41.055754" lon="15.6071543"><ele>343.0</ele><time>2026-04-19T17:51:18.996Z</time></trkpt><trkpt lat="41.0555639" lon="15.6070922"><ele>344.0</ele><time>2026-04-19T17:51:19.996Z</time></trkpt><trkpt lat="41.0553752" lon="15.6070276"><ele>345.0</ele><time>2026-04-19T17:51:20.996Z</time></trkpt><trkpt lat="41.0551882" lon="15.6069627"><ele>347.6666666666667</ele><time>2026-04-19T17:51:21.996Z</time></trkpt><trkpt lat="41.0550042" lon="15.6068978"><ele>350.33333333333337</ele><time>2026-04-19T17:51:22.996Z</time></trkpt><trkpt lat="41.0548224" lon="15.6068309"><ele>353.0</ele><time>2026-04-19T17:51:23.996Z</time></trkpt><trkpt lat="41.0546426" lon="15.6067701"><ele>353.0</ele><time>2026-04-19T17:51:24.997Z</time></trkpt><trkpt lat="41.0544658" lon="15.6067105"><ele>353.0</ele><time>2026-04-19T17:51:25.996Z</time></trkpt><trkpt lat="41.0542908" lon="15.60666"><ele>353.0</ele><time>2026-04-19T17:51:26.996Z</time></trkpt><trkpt lat="41.0541162" lon="15.6066164"><ele>352.6666666666667</ele><time>2026-04-19T17:51:27.996Z</time></trkpt><trkpt lat="41.0539428" lon="15.6065833"><ele>352.3333333333333</ele><time>2026-04-19T17:51:28.996Z</time></trkpt><trkpt lat="41.0537712" lon="15.6065633"><ele>352.0</ele><time>2026-04-19T17:51:29.996Z</time></trkpt><trkpt lat="41.0536013" lon="15.6065493"><ele>352.0</ele><time>2026-04-19T17:51:30.996Z</time></trkpt><trkpt lat="41.0534346" lon="15.606544"><ele>352.0</ele><time>2026-04-19T17:51:31.996Z</time></trkpt><trkpt lat="41.0532714" lon="15.6065459"><ele>352.0</ele><time>2026-04-19T17:51:32.997Z</time></trkpt><trkpt lat="41.053114" lon="15.6065531"><ele>353.0</ele><time>2026-04-19T17:51:33.996Z</time></trkpt><trkpt lat="41.0529637" lon="15.6065624"><ele>354.0</ele><time>2026-04-19T17:51:34.996Z</time></trkpt><trkpt lat="41.0528259" lon="15.6065773"><ele>355.0</ele><time>2026-04-19T17:51:35.996Z</time></trkpt><trkpt lat="41.0526964" lon="15.6065972"><ele>356.0</ele><time>2026-04-19T17:51:36.997Z</time></trkpt><trkpt lat="41.0525719" lon="15.6066235"><ele>359.25</ele><time>2026-04-19T17:51:37.997Z</time></trkpt><trkpt lat="41.052452" lon="15.606658"><ele>362.5</ele><time>2026-04-19T17:51:38.996Z</time></trkpt><trkpt lat="41.0523345" lon="15.6066923"><ele>365.75</ele><time>2026-04-19T17:51:39.996Z</time></trkpt><trkpt lat="41.052221" lon="15.6067233"><ele>369.0</ele><time>2026-04-19T17:51:40.996Z</time></trkpt><trkpt lat="41.052111" lon="15.6067518"><ele>369.0</ele><time>2026-04-19T17:51:41.996Z</time></trkpt><trkpt lat="41.0520043" lon="15.6067765"><ele>369.0</ele><time>2026-04-19T17:51:42.996Z</time></trkpt><trkpt lat="41.0519009" lon="15.6068023"><ele>369.0</ele><time>2026-04-19T17:51:43.996Z</time></trkpt><trkpt lat="41.051801" lon="15.6068284"><ele>369.0</ele><time>2026-04-19T17:51:44.996Z</time></trkpt><trkpt lat="41.0517086" lon="15.6068521"><ele>369.0</ele><time>2026-04-19T17:51:45.996Z</time></trkpt><trkpt lat="41.0516264" lon="15.6068723"><ele>371.4</ele><time>2026-04-19T17:51:46.996Z</time></trkpt><trkpt lat="41.0515572" lon="15.60689"><ele>373.79999999999995</ele><time>2026-04-19T17:51:47.997Z</time></trkpt><trkpt lat="41.0514821" lon="15.6069067"><ele>376.20000000000005</ele><time>2026-04-19T17:51:48.996Z</time></trkpt><trkpt lat="41.0513835" lon="15.6069333"><ele>378.6</ele><time>2026-04-19T17:51:49.996Z</time></trkpt><trkpt lat="41.0512615" lon="15.6069547"><ele>381.0</ele><time>2026-04-19T17:51:50.996Z</time></trkpt><trkpt lat="41.0511219" lon="15.606962"><ele>381.0</ele><time>2026-04-19T17:51:51.996Z</time></trkpt><trkpt lat="41.050973" lon="15.6069852"><ele>381.0</ele><time>2026-04-19T17:51:52.996Z</time></trkpt><trkpt lat="41.0508195" lon="15.607025"><ele>381.0</ele><time>2026-04-19T17:51:53.996Z</time></trkpt><trkpt lat="41.0506651" lon="15.607064"><ele>383.33333333333337</ele><time>2026-04-19T17:51:54.997Z</time></trkpt><trkpt lat="41.0505082" lon="15.6071014"><ele>385.6666666666667</ele><time>2026-04-19T17:51:55.996Z</time></trkpt><trkpt lat="41.0503524" lon="15.6071396"><ele>388.0</ele><time>2026-04-19T17:51:56.996Z</time></trkpt><trkpt lat="41.0501944" lon="15.6071766"><ele>388.0</ele><time>2026-04-19T17:51:57.996Z</time></trkpt><trkpt lat="41.0500333" lon="15.6072179"><ele>388.0</ele><time>2026-04-19T17:51:58.996Z</time></trkpt><trkpt lat="41.0498727" lon="15.6072594"><ele>388.0</ele><time>2026-04-19T17:51:59.997Z</time></trkpt><trkpt lat="41.0487715" lon="15.6070517"><ele>387.5</ele><time>2026-04-19T17:52:06.996Z</time></trkpt><trkpt lat="41.0486128" lon="15.6069976"><ele>387.0</ele><time>2026-04-19T17:52:07.996Z</time></trkpt><trkpt lat="41.0484752" lon="15.6069418"><ele>386.5</ele><time>2026-04-19T17:52:08.996Z</time></trkpt><trkpt lat="41.048352" lon="15.6068876"><ele>386.0</ele><time>2026-04-19T17:52:09.996Z</time></trkpt><trkpt lat="41.0482411" lon="15.6068418"><ele>384.16666666666663</ele><time>2026-04-19T17:52:10.996Z</time></trkpt><trkpt lat="41.0481445" lon="15.6068011"><ele>382.3333333333333</ele><time>2026-04-19T17:52:11.996Z</time></trkpt><trkpt lat="41.0480628" lon="15.6067666"><ele>380.5</ele><time>2026-04-19T17:52:12.996Z</time></trkpt><trkpt lat="41.0479828" lon="15.6067333"><ele>378.66666666666663</ele><time>2026-04-19T17:52:13.996Z</time></trkpt><trkpt lat="41.0479078" lon="15.6067058"><ele>376.8333333333333</ele><time>2026-04-19T17:52:14.996Z</time></trkpt><trkpt lat="41.0478423" lon="15.6066824"><ele>375.0</ele><time>2026-04-19T17:52:15.996Z</time></trkpt><trkpt lat="41.0477783" lon="15.6066578"><ele>375.0</ele><time>2026-04-19T17:52:16.996Z</time></trkpt><trkpt lat="41.0476978" lon="15.606622"><ele>375.0</ele><time>2026-04-19T17:52:17.996Z</time></trkpt><trkpt lat="41.0475993" lon="15.6065892"><ele>375.0</ele><time>2026-04-19T17:52:18.996Z</time></trkpt><trkpt lat="41.0474891" lon="15.6065432"><ele>375.0</ele><time>2026-04-19T17:52:19.996Z</time></trkpt><trkpt lat="41.0473685" lon="15.6064955"><ele>375.0</ele><time>2026-04-19T17:52:20.996Z</time></trkpt><trkpt lat="41.0472395" lon="15.606448"><ele>374.0</ele><time>2026-04-19T17:52:21.997Z</time></trkpt><trkpt lat="41.0471042" lon="15.6063956"><ele>373.0</ele><time>2026-04-19T17:52:22.996Z</time></trkpt><trkpt lat="41.0469624" lon="15.6063432"><ele>372.0</ele><time>2026-04-19T17:52:23.997Z</time></trkpt><trkpt lat="41.0468168" lon="15.6062883"><ele>371.0</ele><time>2026-04-19T17:52:24.997Z</time></trkpt><trkpt lat="41.0466692" lon="15.6062285"><ele>374.33333333333337</ele><time>2026-04-19T17:52:25.996Z</time></trkpt><trkpt lat="41.0465179" lon="15.6061693"><ele>377.6666666666667</ele><time>2026-04-19T17:52:26.996Z</time></trkpt><trkpt lat="41.0463669" lon="15.6061083"><ele>381.0</ele><time>2026-04-19T17:52:27.996Z</time></trkpt><trkpt lat="41.0462136" lon="15.6060519"><ele>383.66666666666663</ele><time>2026-04-19T17:52:28.996Z</time></trkpt><trkpt lat="41.0460586" lon="15.6059927"><ele>386.3333333333333</ele><time>2026-04-19T17:52:29.997Z</time></trkpt><trkpt lat="41.0459022" lon="15.6059411"><ele>389.0</ele><time>2026-04-19T17:52:30.997Z</time></trkpt><trkpt lat="41.0457482" lon="15.605877"><ele>392.3333333333333</ele><time>2026-04-19T17:52:31.997Z</time></trkpt><trkpt lat="41.0455933" lon="15.6058208"><ele>395.66666666666663</ele><time>2026-04-19T17:52:32.997Z</time></trkpt><trkpt lat="41.0454369" lon="15.60577"><ele>399.0</ele><time>2026-04-19T17:52:33.997Z</time></trkpt><trkpt lat="41.0452745" lon="15.6057272"><ele>399.0</ele><time>2026-04-19T17:52:34.998Z</time></trkpt><trkpt lat="41.0451077" lon="15.6056904"><ele>399.0</ele><time>2026-04-19T17:52:35.997Z</time></trkpt><trkpt lat="41.0449346" lon="15.6056664"><ele>399.0</ele><time>2026-04-19T17:52:36.997Z</time></trkpt><trkpt lat="41.0447578" lon="15.6056525"><ele>399.66666666666663</ele><time>2026-04-19T17:52:37.997Z</time></trkpt><trkpt lat="41.0445789" lon="15.6056424"><ele>400.3333333333333</ele><time>2026-04-19T17:52:38.997Z</time></trkpt><trkpt lat="41.0443976" lon="15.6056368"><ele>401.0</ele><time>2026-04-19T17:52:39.998Z</time></trkpt><trkpt lat="41.0442152" lon="15.6056285"><ele>401.3333333333333</ele><time>2026-04-19T17:52:40.997Z</time></trkpt><trkpt lat="41.0440321" lon="15.6056131"><ele>401.66666666666663</ele><time>2026-04-19T17:52:41.998Z</time></trkpt><trkpt lat="41.0438484" lon="15.6055803"><ele>402.0</ele><time>2026-04-19T17:52:42.997Z</time></trkpt><trkpt lat="41.0436646" lon="15.6055329"><ele>402.0</ele><time>2026-04-19T17:52:43.998Z</time></trkpt><trkpt lat="41.0434782" lon="15.6054772"><ele>402.0</ele><time>2026-04-19T17:52:44.997Z</time></trkpt><trkpt lat="41.0432906" lon="15.6054191"><ele>402.0</ele><time>2026-04-19T17:52:45.997Z</time></trkpt><trkpt lat="41.0431038" lon="15.6053498"><ele>404.33333333333337</ele><time>2026-04-19T17:52:46.997Z</time></trkpt><trkpt lat="41.0429184" lon="15.6052644"><ele>406.6666666666667</ele><time>2026-04-19T17:52:47.997Z</time></trkpt><trkpt lat="41.0427348" lon="15.6051695"><ele>409.0</ele><time>2026-04-19T17:52:48.997Z</time></trkpt><trkpt lat="41.0425541" lon="15.6050683"><ele>407.0</ele><time>2026-04-19T17:52:49.997Z</time></trkpt><trkpt lat="41.0423767" lon="15.6049583"><ele>405.0</ele><time>2026-04-19T17:52:50.997Z</time></trkpt><trkpt lat="41.0422013" lon="15.6048446"><ele>403.0</ele><time>2026-04-19T17:52:51.997Z</time></trkpt><trkpt lat="41.0420252" lon="15.6047312"><ele>403.0</ele><time>2026-04-19T17:52:52.997Z</time></trkpt><trkpt lat="41.041851" lon="15.6046189"><ele>403.0</ele><time>2026-04-19T17:52:53.997Z</time></trkpt><trkpt lat="41.0416729" lon="15.6045083"><ele>403.0</ele><time>2026-04-19T17:52:54.997Z</time></trkpt><trkpt lat="41.041495" lon="15.6043948"><ele>404.33333333333337</ele><time>2026-04-19T17:52:55.997Z</time></trkpt><trkpt lat="41.0413169" lon="15.6042792"><ele>405.66666666666663</ele><time>2026-04-19T17:52:56.998Z</time></trkpt><trkpt lat="41.0411407" lon="15.6041661"><ele>407.0</ele><time>2026-04-19T17:52:57.997Z</time></trkpt><trkpt lat="41.0409649" lon="15.6040532"><ele>410.66666666666663</ele><time>2026-04-19T17:52:58.997Z</time></trkpt><trkpt lat="41.0407896" lon="15.6039425"><ele>414.33333333333337</ele><time>2026-04-19T17:52:59.997Z</time></trkpt><trkpt lat="41.0406148" lon="15.6038324"><ele>418.0</ele><time>2026-04-19T17:53:00.997Z</time></trkpt><trkpt lat="41.0404413" lon="15.6037226"><ele>420.0</ele><time>2026-04-19T17:53:01.997Z</time></trkpt><trkpt lat="41.040265" lon="15.6036147"><ele>422.0</ele><time>2026-04-19T17:53:02.997Z</time></trkpt><trkpt lat="41.0400842" lon="15.6035098"><ele>424.0</ele><time>2026-04-19T17:53:03.997Z</time></trkpt><trkpt lat="41.0398978" lon="15.6034172"><ele>426.6666666666667</ele><time>2026-04-19T17:53:04.997Z</time></trkpt><trkpt lat="41.0397049" lon="15.6033382"><ele>429.33333333333337</ele><time>2026-04-19T17:53:05.997Z</time></trkpt><trkpt lat="41.0395054" lon="15.6032763"><ele>432.0</ele><time>2026-04-19T17:53:06.997Z</time></trkpt><trkpt lat="41.0393015" lon="15.6032337"><ele>433.33333333333337</ele><time>2026-04-19T17:53:07.997Z</time></trkpt><trkpt lat="41.0390957" lon="15.6032043"><ele>434.6666666666667</ele><time>2026-04-19T17:53:08.997Z</time></trkpt><trkpt lat="41.0388899" lon="15.6031881"><ele>436.0</ele><time>2026-04-19T17:53:09.997Z</time></trkpt><trkpt lat="41.0386821" lon="15.6031875"><ele>436.0</ele><time>2026-04-19T17:53:10.998Z</time></trkpt><trkpt lat="41.0384738" lon="15.603201"><ele>436.0</ele><time>2026-04-19T17:53:11.997Z</time></trkpt><trkpt lat="41.0382653" lon="15.6032341"><ele>436.0</ele><time>2026-04-19T17:53:12.997Z</time></trkpt><trkpt lat="41.0380546" lon="15.6032815"><ele>436.6666666666667</ele><time>2026-04-19T17:53:13.997Z</time></trkpt><trkpt lat="41.037846" lon="15.6033445"><ele>437.33333333333337</ele><time>2026-04-19T17:53:14.998Z</time></trkpt><trkpt lat="41.0376412" lon="15.6034228"><ele>438.0</ele><time>2026-04-19T17:53:15.997Z</time></trkpt><trkpt lat="41.0374399" lon="15.6035194"><ele>437.0</ele><time>2026-04-19T17:53:16.997Z</time></trkpt><trkpt lat="41.037248" lon="15.603633"><ele>436.0</ele><time>2026-04-19T17:53:17.997Z</time></trkpt><trkpt lat="41.0370655" lon="15.6037607"><ele>435.0</ele><time>2026-04-19T17:53:18.998Z</time></trkpt><trkpt lat="41.0368913" lon="15.6039002"><ele>435.0</ele><time>2026-04-19T17:53:19.997Z</time></trkpt><trkpt lat="41.0367248" lon="15.6040501"><ele>435.0</ele><time>2026-04-19T17:53:20.996Z</time></trkpt><trkpt lat="41.0365658" lon="15.6042078"><ele>435.0</ele><time>2026-04-19T17:53:21.996Z</time></trkpt><trkpt lat="41.0364156" lon="15.6043756"><ele>435.66666666666663</ele><time>2026-04-19T17:53:22.997Z</time></trkpt><trkpt lat="41.0362757" lon="15.6045532"><ele>436.3333333333333</ele><time>2026-04-19T17:53:23.997Z</time></trkpt><trkpt lat="41.0361438" lon="15.6047402"><ele>437.0</ele><time>2026-04-19T17:53:24.997Z</time></trkpt><trkpt lat="41.0360122" lon="15.6049278"><ele>437.0</ele><time>2026-04-19T17:53:25.996Z</time></trkpt><trkpt lat="41.0358796" lon="15.6051128"><ele>437.0</ele><time>2026-04-19T17:53:26.996Z</time></trkpt><trkpt lat="41.0357467" lon="15.6052987"><ele>437.0</ele><time>2026-04-19T17:53:27.996Z</time></trkpt><trkpt lat="41.0356122" lon="15.6054828"><ele>441.0</ele><time>2026-04-19T17:53:28.996Z</time></trkpt><trkpt lat="41.0354765" lon="15.6056708"><ele>445.0</ele><time>2026-04-19T17:53:29.996Z</time></trkpt><trkpt lat="41.0353417" lon="15.6058587"><ele>449.0</ele><time>2026-04-19T17:53:30.996Z</time></trkpt><trkpt lat="41.0352065" lon="15.6060498"><ele>446.66666666666663</ele><time>2026-04-19T17:53:31.997Z</time></trkpt><trkpt lat="41.0350711" lon="15.6062403"><ele>444.33333333333337</ele><time>2026-04-19T17:53:32.996Z</time></trkpt><trkpt lat="41.0349332" lon="15.6064284"><ele>442.0</ele><time>2026-04-19T17:53:33.996Z</time></trkpt><trkpt lat="41.0347959" lon="15.606618"><ele>444.6666666666667</ele><time>2026-04-19T17:53:34.996Z</time></trkpt><trkpt lat="41.034658" lon="15.6068089"><ele>447.33333333333337</ele><time>2026-04-19T17:53:35.997Z</time></trkpt><trkpt lat="41.0345206" lon="15.6070007"><ele>450.0</ele><time>2026-04-19T17:53:36.997Z</time></trkpt><trkpt lat="41.0343825" lon="15.6071913"><ele>450.0</ele><time>2026-04-19T17:53:37.996Z</time></trkpt><trkpt lat="41.0342425" lon="15.6073808"><ele>450.0</ele><time>2026-04-19T17:53:38.996Z</time></trkpt><trkpt lat="41.0341039" lon="15.607574"><ele>450.0</ele><time>2026-04-19T17:53:39.996Z</time></trkpt><trkpt lat="41.0339653" lon="15.6077677"><ele>449.66666666666663</ele><time>2026-04-19T17:53:40.996Z</time></trkpt><trkpt lat="41.0338257" lon="15.6079625"><ele>449.3333333333333</ele><time>2026-04-19T17:53:41.996Z</time></trkpt><trkpt lat="41.033684" lon="15.6081583"><ele>449.0</ele><time>2026-04-19T17:53:42.996Z</time></trkpt><trkpt lat="41.0335434" lon="15.6083557"><ele>449.0</ele><time>2026-04-19T17:53:43.996Z</time></trkpt><trkpt lat="41.0334003" lon="15.608552"><ele>449.0</ele><time>2026-04-19T17:53:44.997Z</time></trkpt><trkpt lat="41.0332574" lon="15.6087508"><ele>449.0</ele><time>2026-04-19T17:53:45.996Z</time></trkpt><trkpt lat="41.0331138" lon="15.6089509"><ele>452.0</ele><time>2026-04-19T17:53:46.996Z</time></trkpt><trkpt lat="41.0329705" lon="15.6091537"><ele>455.0</ele><time>2026-04-19T17:53:47.997Z</time></trkpt><trkpt lat="41.032826" lon="15.6093549"><ele>458.0</ele><time>2026-04-19T17:53:48.996Z</time></trkpt><trkpt lat="41.0326806" lon="15.6095543"><ele>458.3333333333333</ele><time>2026-04-19T17:53:49.996Z</time></trkpt><trkpt lat="41.0325356" lon="15.609753"><ele>458.66666666666663</ele><time>2026-04-19T17:53:50.997Z</time></trkpt><trkpt lat="41.0323917" lon="15.609952"><ele>459.0</ele><time>2026-04-19T17:53:51.996Z</time></trkpt><trkpt lat="41.0322486" lon="15.6101522"><ele>462.33333333333337</ele><time>2026-04-19T17:53:52.996Z</time></trkpt><trkpt lat="41.0321054" lon="15.6103524"><ele>465.6666666666667</ele><time>2026-04-19T17:53:53.996Z</time></trkpt><trkpt lat="41.0319607" lon="15.6105539"><ele>469.0</ele><time>2026-04-19T17:53:54.997Z</time></trkpt><trkpt lat="41.0318157" lon="15.6107557"><ele>469.0</ele><time>2026-04-19T17:53:55.996Z</time></trkpt><trkpt lat="41.0316693" lon="15.6109588"><ele>469.0</ele><time>2026-04-19T17:53:56.996Z</time></trkpt><trkpt lat="41.0315238" lon="15.6111635"><ele>469.0</ele><time>2026-04-19T17:53:57.997Z</time></trkpt><trkpt lat="41.0313798" lon="15.6113674"><ele>473.0</ele><time>2026-04-19T17:53:58.996Z</time></trkpt><trkpt lat="41.0312351" lon="15.6115708"><ele>477.0</ele><time>2026-04-19T17:53:59.996Z</time></trkpt><trkpt lat="41.0310928" lon="15.6117742"><ele>481.0</ele><time>2026-04-19T17:54:00.996Z</time></trkpt><trkpt lat="41.0309489" lon="15.6119766"><ele>485.33333333333337</ele><time>2026-04-19T17:54:01.997Z</time></trkpt><trkpt lat="41.0308028" lon="15.612178"><ele>489.66666666666663</ele><time>2026-04-19T17:54:02.996Z</time></trkpt><trkpt lat="41.030656" lon="15.6123821"><ele>494.0</ele><time>2026-04-19T17:54:03.996Z</time></trkpt><trkpt lat="41.0305088" lon="15.6125886"><ele>494.0</ele><time>2026-04-19T17:54:04.996Z</time></trkpt><trkpt lat="41.0303595" lon="15.6127915"><ele>494.0</ele><time>2026-04-19T17:54:05.996Z</time></trkpt><trkpt lat="41.0302053" lon="15.6129889"><ele>494.0</ele><time>2026-04-19T17:54:06.996Z</time></trkpt><trkpt lat="41.0300456" lon="15.6131751"><ele>495.0</ele><time>2026-04-19T17:54:07.996Z</time></trkpt><trkpt lat="41.0298792" lon="15.6133477"><ele>496.0</ele><time>2026-04-19T17:54:08.996Z</time></trkpt><trkpt lat="41.0297045" lon="15.6135026"><ele>497.0</ele><time>2026-04-19T17:54:09.997Z</time></trkpt><trkpt lat="41.0295204" lon="15.6136401"><ele>493.0</ele><time>2026-04-19T17:54:10.996Z</time></trkpt><trkpt lat="41.0293303" lon="15.6137635"><ele>489.0</ele><time>2026-04-19T17:54:11.996Z</time></trkpt><trkpt lat="41.0291387" lon="15.6138727"><ele>485.0</ele><time>2026-04-19T17:54:12.996Z</time></trkpt><trkpt lat="41.0289449" lon="15.6139698"><ele>485.0</ele><time>2026-04-19T17:54:13.996Z</time></trkpt><trkpt lat="41.0287524" lon="15.6140613"><ele>485.0</ele><time>2026-04-19T17:54:14.996Z</time></trkpt><trkpt lat="41.028566" lon="15.6141548"><ele>485.0</ele><time>2026-04-19T17:54:15.996Z</time></trkpt><trkpt lat="41.0283882" lon="15.614247"><ele>481.66666666666663</ele><time>2026-04-19T17:54:16.996Z</time></trkpt><trkpt lat="41.0282167" lon="15.6143405"><ele>478.33333333333337</ele><time>2026-04-19T17:54:17.996Z</time></trkpt><trkpt lat="41.0280531" lon="15.6144412"><ele>475.0</ele><time>2026-04-19T17:54:18.997Z</time></trkpt><trkpt lat="41.0278979" lon="15.6145519"><ele>472.0</ele><time>2026-04-19T17:54:19.996Z</time></trkpt><trkpt lat="41.0277491" lon="15.6146685"><ele>469.0</ele><time>2026-04-19T17:54:20.996Z</time></trkpt><trkpt lat="41.0275989" lon="15.6148023"><ele>466.0</ele><time>2026-04-19T17:54:21.997Z</time></trkpt><trkpt lat="41.0274585" lon="15.6149425"><ele>464.33333333333337</ele><time>2026-04-19T17:54:22.996Z</time></trkpt><trkpt lat="41.027323" lon="15.6151001"><ele>462.66666666666663</ele><time>2026-04-19T17:54:23.996Z</time></trkpt><trkpt lat="41.0271856" lon="15.6152667"><ele>461.0</ele><time>2026-04-19T17:54:24.996Z</time></trkpt><trkpt lat="41.0270503" lon="15.6154474"><ele>458.0</ele><time>2026-04-19T17:54:25.997Z</time></trkpt><trkpt lat="41.0269227" lon="15.6156467"><ele>455.0</ele><time>2026-04-19T17:54:26.997Z</time></trkpt><trkpt lat="41.0267998" lon="15.6158574"><ele>452.0</ele><time>2026-04-19T17:54:27.996Z</time></trkpt><trkpt lat="41.0266808" lon="15.6160799"><ele>458.66666666666663</ele><time>2026-04-19T17:54:28.996Z</time></trkpt><trkpt lat="41.0265769" lon="15.6163194"><ele>465.33333333333337</ele><time>2026-04-19T17:54:29.996Z</time></trkpt><trkpt lat="41.0264783" lon="15.6165687"><ele>472.0</ele><time>2026-04-19T17:54:30.996Z</time></trkpt><trkpt lat="41.0263889" lon="15.6168302"><ele>475.6666666666667</ele><time>2026-04-19T17:54:31.996Z</time></trkpt><trkpt lat="41.0263044" lon="15.617099"><ele>479.33333333333337</ele><time>2026-04-19T17:54:32.997Z</time></trkpt><trkpt lat="41.0262172" lon="15.6173698"><ele>483.0</ele><time>2026-04-19T17:54:33.996Z</time></trkpt><trkpt lat="41.0261325" lon="15.6176453"><ele>483.33333333333337</ele><time>2026-04-19T17:54:34.996Z</time></trkpt><trkpt lat="41.0260429" lon="15.6179149"><ele>483.6666666666667</ele><time>2026-04-19T17:54:35.996Z</time></trkpt><trkpt lat="41.0259552" lon="15.61819"><ele>484.0</ele><time>2026-04-19T17:54:36.996Z</time></trkpt><trkpt lat="41.0258747" lon="15.618469"><ele>477.5</ele><time>2026-04-19T17:54:37.996Z</time></trkpt><trkpt lat="41.0257925" lon="15.6187486"><ele>471.0</ele><time>2026-04-19T17:54:38.996Z</time></trkpt><trkpt lat="41.0257117" lon="15.6190284"><ele>471.0</ele><time>2026-04-19T17:54:39.996Z</time></trkpt><trkpt lat="41.0256316" lon="15.619308"><ele>471.0</ele><time>2026-04-19T17:54:40.996Z</time></trkpt><trkpt lat="41.025548" lon="15.6195836"><ele>473.33333333333337</ele><time>2026-04-19T17:54:41.996Z</time></trkpt><trkpt lat="41.0254635" lon="15.6198576"><ele>475.6666666666667</ele><time>2026-04-19T17:54:42.997Z</time></trkpt><trkpt lat="41.0253798" lon="15.620131"><ele>478.0</ele><time>2026-04-19T17:54:43.997Z</time></trkpt><trkpt lat="41.0252942" lon="15.6204017"><ele>483.0</ele><time>2026-04-19T17:54:44.996Z</time></trkpt><trkpt lat="41.0252036" lon="15.6206672"><ele>488.0</ele><time>2026-04-19T17:54:45.996Z</time></trkpt><trkpt lat="41.0251078" lon="15.6209254"><ele>493.0</ele><time>2026-04-19T17:54:46.996Z</time></trkpt><trkpt lat="41.0249993" lon="15.6211689"><ele>497.33333333333337</ele><time>2026-04-19T17:54:47.996Z</time></trkpt><trkpt lat="41.0248786" lon="15.6214045"><ele>501.66666666666663</ele><time>2026-04-19T17:54:48.996Z</time></trkpt><trkpt lat="41.0247492" lon="15.6216329"><ele>506.0</ele><time>2026-04-19T17:54:49.996Z</time></trkpt><trkpt lat="41.024605" lon="15.6218491"><ele>508.0</ele><time>2026-04-19T17:54:50.996Z</time></trkpt><trkpt lat="41.0244507" lon="15.6220591"><ele>510.0</ele><time>2026-04-19T17:54:51.996Z</time></trkpt><trkpt lat="41.0242868" lon="15.6222561"><ele>512.0</ele><time>2026-04-19T17:54:52.997Z</time></trkpt><trkpt lat="41.024113" lon="15.6224395"><ele>516.0</ele><time>2026-04-19T17:54:53.996Z</time></trkpt><trkpt lat="41.0239293" lon="15.6226103"><ele>520.0</ele><time>2026-04-19T17:54:54.996Z</time></trkpt><trkpt lat="41.0237374" lon="15.6227674"><ele>519.0</ele><time>2026-04-19T17:54:55.996Z</time></trkpt><trkpt lat="41.0235377" lon="15.6229125"><ele>518.0</ele><time>2026-04-19T17:54:56.996Z</time></trkpt><trkpt lat="41.0233364" lon="15.6230542"><ele>525.5</ele><time>2026-04-19T17:54:57.996Z</time></trkpt><trkpt lat="41.0231358" lon="15.6231966"><ele>533.0</ele><time>2026-04-19T17:54:58.996Z</time></trkpt><trkpt lat="41.0229355" lon="15.6233421"><ele>533.0</ele><time>2026-04-19T17:54:59.996Z</time></trkpt><trkpt lat="41.0227367" lon="15.62349"><ele>533.0</ele><time>2026-04-19T17:55:00.997Z</time></trkpt><trkpt lat="41.0225359" lon="15.6236376"><ele>538.5</ele><time>2026-04-19T17:55:01.996Z</time></trkpt><trkpt lat="41.0223342" lon="15.6237813"><ele>544.0</ele><time>2026-04-19T17:55:02.996Z</time></trkpt><trkpt lat="41.0221337" lon="15.6239259"><ele>544.0</ele><time>2026-04-19T17:55:03.996Z</time></trkpt><trkpt lat="41.0219325" lon="15.624067"><ele>544.0</ele><time>2026-04-19T17:55:04.996Z</time></trkpt><trkpt lat="41.0217322" lon="15.6242097"><ele>543.5</ele><time>2026-04-19T17:55:05.996Z</time></trkpt><trkpt lat="41.0215335" lon="15.6243514"><ele>543.0</ele><time>2026-04-19T17:55:06.996Z</time></trkpt><trkpt lat="41.0213355" lon="15.6244905"><ele>543.0</ele><time>2026-04-19T17:55:07.996Z</time></trkpt><trkpt lat="41.0211387" lon="15.6246299"><ele>543.0</ele><time>2026-04-19T17:55:08.996Z</time></trkpt><trkpt lat="41.0209448" lon="15.6247695"><ele>543.0</ele><time>2026-04-19T17:55:09.996Z</time></trkpt><trkpt lat="41.0207517" lon="15.6249094"><ele>543.0</ele><time>2026-04-19T17:55:10.996Z</time></trkpt><trkpt lat="41.0205601" lon="15.6250499"><ele>543.0</ele><time>2026-04-19T17:55:11.996Z</time></trkpt><trkpt lat="41.0203688" lon="15.6251877"><ele>543.0</ele><time>2026-04-19T17:55:12.996Z</time></trkpt><trkpt lat="41.02018" lon="15.6253257"><ele>543.0</ele><time>2026-04-19T17:55:13.996Z</time></trkpt><trkpt lat="41.0199906" lon="15.6254595"><ele>543.0</ele><time>2026-04-19T17:55:14.996Z</time></trkpt><trkpt lat="41.0198033" lon="15.6255934"><ele>543.0</ele><time>2026-04-19T17:55:15.996Z</time></trkpt><trkpt lat="41.0196168" lon="15.6257265"><ele>548.0</ele><time>2026-04-19T17:55:16.996Z</time></trkpt><trkpt lat="41.0194316" lon="15.6258572"><ele>553.0</ele><time>2026-04-19T17:55:17.996Z</time></trkpt><trkpt lat="41.0192511" lon="15.6259843"><ele>558.0</ele><time>2026-04-19T17:55:18.996Z</time></trkpt><trkpt lat="41.0190717" lon="15.6261078"><ele>560.0</ele><time>2026-04-19T17:55:19.996Z</time></trkpt><trkpt lat="41.0188948" lon="15.6262275"><ele>562.0</ele><time>2026-04-19T17:55:20.996Z</time></trkpt><trkpt lat="41.0187198" lon="15.6263467"><ele>564.0</ele><time>2026-04-19T17:55:21.996Z</time></trkpt><trkpt lat="41.0185451" lon="15.626461"><ele>564.0</ele><time>2026-04-19T17:55:22.996Z</time></trkpt><trkpt lat="41.0183674" lon="15.6265676"><ele>564.0</ele><time>2026-04-19T17:55:23.996Z</time></trkpt><trkpt lat="41.0181874" lon="15.6266637"><ele>564.0</ele><time>2026-04-19T17:55:24.996Z</time></trkpt><trkpt lat="41.0180035" lon="15.6267532"><ele>565.6666666666666</ele><time>2026-04-19T17:55:25.996Z</time></trkpt><trkpt lat="41.0178186" lon="15.6268624"><ele>567.3333333333333</ele><time>2026-04-19T17:55:26.996Z</time></trkpt><trkpt lat="41.0176382" lon="15.6269592"><ele>569.0</ele><time>2026-04-19T17:55:27.996Z</time></trkpt><trkpt lat="41.017452" lon="15.6270429"><ele>570.0</ele><time>2026-04-19T17:55:28.997Z</time></trkpt><trkpt lat="41.0172575" lon="15.6271046"><ele>571.0</ele><time>2026-04-19T17:55:29.996Z</time></trkpt><trkpt lat="41.0170552" lon="15.6271399"><ele>572.0</ele><time>2026-04-19T17:55:30.997Z</time></trkpt><trkpt lat="41.0168481" lon="15.6271573"><ele>572.3333333333333</ele><time>2026-04-19T17:55:31.996Z</time></trkpt><trkpt lat="41.0166375" lon="15.6271016"><ele>572.6666666666666</ele><time>2026-04-19T17:55:32.996Z</time></trkpt><trkpt lat="41.0164451" lon="15.6270238"><ele>573.0</ele><time>2026-04-19T17:55:33.996Z</time></trkpt><trkpt lat="41.0162455" lon="15.626965"><ele>569.0</ele><time>2026-04-19T17:55:34.997Z</time></trkpt><trkpt lat="41.0160546" lon="15.6269212"><ele>565.0</ele><time>2026-04-19T17:55:35.996Z</time></trkpt><trkpt lat="41.0158686" lon="15.6268892"><ele>561.0</ele><time>2026-04-19T17:55:36.996Z</time></trkpt><trkpt lat="41.0156837" lon="15.6268596"><ele>560.6666666666666</ele><time>2026-04-19T17:55:37.997Z</time></trkpt><trkpt lat="41.0154991" lon="15.6268254"><ele>560.3333333333333</ele><time>2026-04-19T17:55:38.996Z</time></trkpt><trkpt lat="41.015316" lon="15.6267882"><ele>560.0</ele><time>2026-04-19T17:55:39.996Z</time></trkpt><trkpt lat="41.0151332" lon="15.626747"><ele>560.3333333333333</ele><time>2026-04-19T17:55:40.997Z</time></trkpt><trkpt lat="41.0149488" lon="15.6267123"><ele>560.6666666666666</ele><time>2026-04-19T17:55:41.996Z</time></trkpt><trkpt lat="41.0147628" lon="15.6266831"><ele>561.0</ele><time>2026-04-19T17:55:42.996Z</time></trkpt><trkpt lat="41.0145766" lon="15.6266511"><ele>561.0</ele><time>2026-04-19T17:55:43.996Z</time></trkpt><trkpt lat="41.0143888" lon="15.6266194"><ele>561.0</ele><time>2026-04-19T17:55:44.996Z</time></trkpt><trkpt lat="41.0142017" lon="15.6265911"><ele>561.0</ele><time>2026-04-19T17:55:45.996Z</time></trkpt><trkpt lat="41.0140157" lon="15.6265638"><ele>558.6666666666666</ele><time>2026-04-19T17:55:46.996Z</time></trkpt><trkpt lat="41.0138293" lon="15.626537"><ele>556.3333333333333</ele><time>2026-04-19T17:55:47.996Z</time></trkpt><trkpt lat="41.0136444" lon="15.6265115"><ele>554.0</ele><time>2026-04-19T17:55:48.996Z</time></trkpt><trkpt lat="41.0134599" lon="15.6264841"><ele>550.3333333333333</ele><time>2026-04-19T17:55:49.996Z</time></trkpt><trkpt lat="41.0132803" lon="15.626462"><ele>546.6666666666666</ele><time>2026-04-19T17:55:50.996Z</time></trkpt><trkpt lat="41.0131075" lon="15.6264428"><ele>543.0</ele><time>2026-04-19T17:55:51.997Z</time></trkpt><trkpt lat="41.0129377" lon="15.626423"><ele>543.0</ele><time>2026-04-19T17:55:52.996Z</time></trkpt><trkpt lat="41.0127749" lon="15.62639"><ele>543.0</ele><time>2026-04-19T17:55:53.996Z</time></trkpt><trkpt lat="41.012614" lon="15.6263577"><ele>543.0</ele><time>2026-04-19T17:55:54.997Z</time></trkpt><trkpt lat="41.0124547" lon="15.6263409"><ele>545.0</ele><time>2026-04-19T17:55:55.996Z</time></trkpt><trkpt lat="41.0122936" lon="15.6263265"><ele>547.0</ele><time>2026-04-19T17:55:56.996Z</time></trkpt><trkpt lat="41.012133" lon="15.6263231"><ele>549.0</ele><time>2026-04-19T17:55:57.996Z</time></trkpt><trkpt lat="41.0119698" lon="15.6263244"><ele>549.0</ele><time>2026-04-19T17:55:58.996Z</time></trkpt><trkpt lat="41.0118056" lon="15.6263294"><ele>549.0</ele><time>2026-04-19T17:55:59.996Z</time></trkpt><trkpt lat="41.0116404" lon="15.6263414"><ele>549.0</ele><time>2026-04-19T17:56:00.997Z</time></trkpt><trkpt lat="41.0114726" lon="15.6263579"><ele>549.0</ele><time>2026-04-19T17:56:01.996Z</time></trkpt><trkpt lat="41.0113054" lon="15.6263837"><ele>549.0</ele><time>2026-04-19T17:56:02.996Z</time></trkpt><trkpt lat="41.01114" lon="15.6264171"><ele>549.0</ele><time>2026-04-19T17:56:03.997Z</time></trkpt><trkpt lat="41.0109736" lon="15.6264507"><ele>545.6666666666666</ele><time>2026-04-19T17:56:04.997Z</time></trkpt><trkpt lat="41.0108079" lon="15.6264967"><ele>542.3333333333333</ele><time>2026-04-19T17:56:05.997Z</time></trkpt><trkpt lat="41.0106402" lon="15.6265447"><ele>539.0</ele><time>2026-04-19T17:56:06.996Z</time></trkpt><trkpt lat="41.0104732" lon="15.6266023"><ele>539.0</ele><time>2026-04-19T17:56:07.996Z</time></trkpt><trkpt lat="41.0103064" lon="15.6266675"><ele>539.0</ele><time>2026-04-19T17:56:08.996Z</time></trkpt><trkpt lat="41.0101411" lon="15.6267443"><ele>539.0</ele><time>2026-04-19T17:56:09.996Z</time></trkpt><trkpt lat="41.0099749" lon="15.6268248"><ele>537.6666666666666</ele><time>2026-04-19T17:56:10.996Z</time></trkpt><trkpt lat="41.0098111" lon="15.6269117"><ele>536.3333333333334</ele><time>2026-04-19T17:56:11.997Z</time></trkpt><trkpt lat="41.009645" lon="15.6269954"><ele>535.0</ele><time>2026-04-19T17:56:12.996Z</time></trkpt><trkpt lat="41.0094786" lon="15.6270788"><ele>536.0</ele><time>2026-04-19T17:56:13.996Z</time></trkpt><trkpt lat="41.0093131" lon="15.6271646"><ele>537.0</ele><time>2026-04-19T17:56:14.996Z</time></trkpt><trkpt lat="41.0091492" lon="15.6272556"><ele>538.0</ele><time>2026-04-19T17:56:15.996Z</time></trkpt><trkpt lat="41.0089851" lon="15.6273376"><ele>538.0</ele><time>2026-04-19T17:56:16.996Z</time></trkpt><trkpt lat="41.0088216" lon="15.6274251"><ele>538.0</ele><time>2026-04-19T17:56:17.996Z</time></trkpt><trkpt lat="41.0086596" lon="15.627513"><ele>538.0</ele><time>2026-04-19T17:56:18.996Z</time></trkpt><trkpt lat="41.0084978" lon="15.6276035"><ele>538.0</ele><time>2026-04-19T17:56:19.996Z</time></trkpt><trkpt lat="41.0083337" lon="15.627689"><ele>538.0</ele><time>2026-04-19T17:56:20.996Z</time></trkpt><trkpt lat="41.0081689" lon="15.6277688"><ele>538.0</ele><time>2026-04-19T17:56:21.997Z</time></trkpt><trkpt lat="41.0080057" lon="15.6278504"><ele>536.6666666666667</ele><time>2026-04-19T17:56:22.996Z</time></trkpt><trkpt lat="41.007842" lon="15.6279357"><ele>535.3333333333334</ele><time>2026-04-19T17:56:23.996Z</time></trkpt><trkpt lat="41.0076799" lon="15.6280151"><ele>534.0</ele><time>2026-04-19T17:56:24.996Z</time></trkpt><trkpt lat="41.0075232" lon="15.6280916"><ele>532.3333333333334</ele><time>2026-04-19T17:56:25.997Z</time></trkpt><trkpt lat="41.0073766" lon="15.6281673"><ele>530.6666666666667</ele><time>2026-04-19T17:56:26.996Z</time></trkpt><trkpt lat="41.0072355" lon="15.6282412"><ele>529.0</ele><time>2026-04-19T17:56:27.996Z</time></trkpt><trkpt lat="41.0070965" lon="15.6283096"><ele>529.0</ele><time>2026-04-19T17:56:28.996Z</time></trkpt><trkpt lat="41.0069615" lon="15.6283706"><ele>529.0</ele><time>2026-04-19T17:56:29.996Z</time></trkpt><trkpt lat="41.006835" lon="15.6284355"><ele>529.0</ele><time>2026-04-19T17:56:30.996Z</time></trkpt><trkpt lat="41.0067114" lon="15.6285003"><ele>529.0</ele><time>2026-04-19T17:56:31.997Z</time></trkpt><trkpt lat="41.0065898" lon="15.6285585"><ele>528.0</ele><time>2026-04-19T17:56:32.996Z</time></trkpt><trkpt lat="41.0064697" lon="15.6286101"><ele>527.0</ele><time>2026-04-19T17:56:33.996Z</time></trkpt><trkpt lat="41.0063529" lon="15.6286546"><ele>526.0</ele><time>2026-04-19T17:56:34.996Z</time></trkpt><trkpt lat="41.0062409" lon="15.628699"><ele>525.0</ele><time>2026-04-19T17:56:35.996Z</time></trkpt><trkpt lat="41.0061341" lon="15.6287499"><ele>524.6</ele><time>2026-04-19T17:56:36.996Z</time></trkpt><trkpt lat="41.006028" lon="15.628792"><ele>524.2</ele><time>2026-04-19T17:56:37.996Z</time></trkpt><trkpt lat="41.0059248" lon="15.6288336"><ele>523.8</ele><time>2026-04-19T17:56:38.996Z</time></trkpt><trkpt lat="41.0058242" lon="15.6288758"><ele>523.4</ele><time>2026-04-19T17:56:39.996Z</time></trkpt><trkpt lat="41.0057298" lon="15.6289128"><ele>523.0</ele><time>2026-04-19T17:56:40.996Z</time></trkpt><trkpt lat="41.0056389" lon="15.6289381"><ele>522.4285714285713</ele><time>2026-04-19T17:56:41.997Z</time></trkpt><trkpt lat="41.0055512" lon="15.6289486"><ele>521.8571428571429</ele><time>2026-04-19T17:56:42.996Z</time></trkpt><trkpt lat="41.005467" lon="15.6289434"><ele>521.2857142857142</ele><time>2026-04-19T17:56:43.996Z</time></trkpt><trkpt lat="41.0053918" lon="15.6289319"><ele>520.7142857142857</ele><time>2026-04-19T17:56:44.996Z</time></trkpt><trkpt lat="41.0053237" lon="15.6289055"><ele>520.1428571428571</ele><time>2026-04-19T17:56:45.996Z</time></trkpt><trkpt lat="41.0052654" lon="15.6288648"><ele>519.5714285714286</ele><time>2026-04-19T17:56:46.996Z</time></trkpt><trkpt lat="41.0052175" lon="15.6288083"><ele>519.0</ele><time>2026-04-19T17:56:47.996Z</time></trkpt><trkpt lat="41.0051796" lon="15.6287383"><ele>519.0</ele><time>2026-04-19T17:56:48.996Z</time></trkpt><trkpt lat="41.0051582" lon="15.6286533"><ele>519.0</ele><time>2026-04-19T17:56:49.996Z</time></trkpt><trkpt lat="41.0051555" lon="15.6285628"><ele>519.0</ele><time>2026-04-19T17:56:50.996Z</time></trkpt><trkpt lat="41.0051016" lon="15.6284318"><ele>519.0</ele><time>2026-04-19T17:56:52.996Z</time></trkpt><trkpt lat="41.0049864" lon="15.628403"><ele>519.0</ele><time>2026-04-19T17:56:54.996Z</time></trkpt><trkpt lat="41.0049176" lon="15.6284217"><ele>519.0</ele><time>2026-04-19T17:56:55.996Z</time></trkpt><trkpt lat="41.0048422" lon="15.6284597"><ele>519.4</ele><time>2026-04-19T17:56:56.996Z</time></trkpt><trkpt lat="41.0047589" lon="15.6285038"><ele>519.8</ele><time>2026-04-19T17:56:57.996Z</time></trkpt><trkpt lat="41.0046591" lon="15.6285584"><ele>520.2</ele><time>2026-04-19T17:56:58.996Z</time></trkpt><trkpt lat="41.0045566" lon="15.6286206"><ele>520.6</ele><time>2026-04-19T17:56:59.996Z</time></trkpt><trkpt lat="41.0044555" lon="15.628679"><ele>521.0</ele><time>2026-04-19T17:57:00.996Z</time></trkpt><trkpt lat="41.0043519" lon="15.6287298"><ele>520.2</ele><time>2026-04-19T17:57:01.996Z</time></trkpt><trkpt lat="41.0042494" lon="15.628774"><ele>519.4000000000001</ele><time>2026-04-19T17:57:02.996Z</time></trkpt><trkpt lat="41.0041477" lon="15.628818"><ele>518.6</ele><time>2026-04-19T17:57:03.997Z</time></trkpt><trkpt lat="41.0040477" lon="15.6288644"><ele>517.8000000000001</ele><time>2026-04-19T17:57:04.996Z</time></trkpt><trkpt lat="41.0039546" lon="15.6289238"><ele>517.0</ele><time>2026-04-19T17:57:05.996Z</time></trkpt><trkpt lat="41.0038638" lon="15.6289958"><ele>516.6</ele><time>2026-04-19T17:57:06.997Z</time></trkpt><trkpt lat="41.0037823" lon="15.6290857"><ele>516.2</ele><time>2026-04-19T17:57:07.997Z</time></trkpt><trkpt lat="41.0037061" lon="15.629192"><ele>515.8</ele><time>2026-04-19T17:57:08.996Z</time></trkpt><trkpt lat="41.0036331" lon="15.6293125"><ele>515.4</ele><time>2026-04-19T17:57:09.996Z</time></trkpt><trkpt lat="41.0035643" lon="15.629434"><ele>515.0</ele><time>2026-04-19T17:57:10.996Z</time></trkpt><trkpt lat="41.0034919" lon="15.6295482"><ele>515.0</ele><time>2026-04-19T17:57:11.996Z</time></trkpt><trkpt lat="41.0034172" lon="15.6296569"><ele>515.0</ele><time>2026-04-19T17:57:12.996Z</time></trkpt><trkpt lat="41.0033291" lon="15.6297507"><ele>515.0</ele><time>2026-04-19T17:57:13.997Z</time></trkpt><trkpt lat="41.0032293" lon="15.6298254"><ele>515.0</ele><time>2026-04-19T17:57:14.996Z</time></trkpt><trkpt lat="41.0031193" lon="15.6298725"><ele>513.25</ele><time>2026-04-19T17:57:15.997Z</time></trkpt><trkpt lat="41.0030024" lon="15.6298998"><ele>511.5</ele><time>2026-04-19T17:57:16.997Z</time></trkpt><trkpt lat="41.0028848" lon="15.6299251"><ele>509.75</ele><time>2026-04-19T17:57:17.996Z</time></trkpt><trkpt lat="41.002766" lon="15.6299486"><ele>508.0</ele><time>2026-04-19T17:57:18.996Z</time></trkpt><trkpt lat="41.0026516" lon="15.629974"><ele>508.0</ele><time>2026-04-19T17:57:19.996Z</time></trkpt><trkpt lat="41.0025426" lon="15.6300045"><ele>507.99999999999994</ele><time>2026-04-19T17:57:20.996Z</time></trkpt><trkpt lat="41.0024376" lon="15.6300379"><ele>507.99999999999994</ele><time>2026-04-19T17:57:21.996Z</time></trkpt><trkpt lat="41.0023373" lon="15.6300748"><ele>508.0</ele><time>2026-04-19T17:57:22.996Z</time></trkpt><trkpt lat="41.0022404" lon="15.6301307"><ele>508.0</ele><time>2026-04-19T17:57:23.996Z</time></trkpt><trkpt lat="41.0021427" lon="15.6301843"><ele>507.79999999999995</ele><time>2026-04-19T17:57:24.996Z</time></trkpt><trkpt lat="41.0020475" lon="15.6302372"><ele>507.59999999999997</ele><time>2026-04-19T17:57:25.997Z</time></trkpt><trkpt lat="41.0019572" lon="15.6302916"><ele>507.40000000000003</ele><time>2026-04-19T17:57:26.996Z</time></trkpt><trkpt lat="41.0018702" lon="15.6303433"><ele>507.20000000000005</ele><time>2026-04-19T17:57:27.996Z</time></trkpt><trkpt lat="41.0017823" lon="15.6303921"><ele>507.0</ele><time>2026-04-19T17:57:28.996Z</time></trkpt><trkpt lat="41.0016916" lon="15.6304413"><ele>507.0</ele><time>2026-04-19T17:57:29.996Z</time></trkpt><trkpt lat="41.0015995" lon="15.6304845"><ele>507.0</ele><time>2026-04-19T17:57:30.996Z</time></trkpt><trkpt lat="41.0015126" lon="15.6305293"><ele>507.0</ele><time>2026-04-19T17:57:31.997Z</time></trkpt><trkpt lat="41.0014296" lon="15.6305692"><ele>507.0</ele><time>2026-04-19T17:57:32.996Z</time></trkpt><trkpt lat="41.0013527" lon="15.6306094"><ele>507.0</ele><time>2026-04-19T17:57:33.996Z</time></trkpt><trkpt lat="41.001281" lon="15.630649"><ele>507.0</ele><time>2026-04-19T17:57:34.997Z</time></trkpt><trkpt lat="41.0012127" lon="15.6306831"><ele>507.0</ele><time>2026-04-19T17:57:35.996Z</time></trkpt><trkpt lat="41.0011474" lon="15.6307055"><ele>507.0</ele><time>2026-04-19T17:57:36.996Z</time></trkpt><trkpt lat="41.0010846" lon="15.6307173"><ele>507.0</ele><time>2026-04-19T17:57:37.996Z</time></trkpt><trkpt lat="41.0009838" lon="15.6307649"><ele>507.0</ele><time>2026-04-19T17:57:39.997Z</time></trkpt><trkpt lat="41.000957" lon="15.6308924"><ele>507.0</ele><time>2026-04-19T17:57:41.996Z</time></trkpt><trkpt lat="41.0009698" lon="15.6309851"><ele>507.0</ele><time>2026-04-19T17:57:42.996Z</time></trkpt><trkpt lat="41.0009795" lon="15.6310963"><ele>506.8</ele><time>2026-04-19T17:57:43.996Z</time></trkpt><trkpt lat="41.000966" lon="15.6312112"><ele>506.6</ele><time>2026-04-19T17:57:44.996Z</time></trkpt><trkpt lat="41.0009331" lon="15.6313289"><ele>506.40000000000003</ele><time>2026-04-19T17:57:45.996Z</time></trkpt><trkpt lat="41.0008941" lon="15.6314479"><ele>506.20000000000005</ele><time>2026-04-19T17:57:46.997Z</time></trkpt><trkpt lat="41.0008534" lon="15.6315714"><ele>506.0</ele><time>2026-04-19T17:57:47.996Z</time></trkpt><trkpt lat="41.0008168" lon="15.6317006"><ele>506.0</ele><time>2026-04-19T17:57:48.997Z</time></trkpt><trkpt lat="41.000781" lon="15.6318298"><ele>506.0</ele><time>2026-04-19T17:57:49.996Z</time></trkpt><trkpt lat="41.0007479" lon="15.6319627"><ele>506.0</ele><time>2026-04-19T17:57:50.996Z</time></trkpt><trkpt lat="41.0007145" lon="15.6320962"><ele>506.0</ele><time>2026-04-19T17:57:51.996Z</time></trkpt><trkpt lat="41.0006772" lon="15.6322283"><ele>506.0</ele><time>2026-04-19T17:57:52.996Z</time></trkpt><trkpt lat="41.0006414" lon="15.6323629"><ele>506.8</ele><time>2026-04-19T17:57:53.997Z</time></trkpt><trkpt lat="41.0006061" lon="15.6324967"><ele>507.6</ele><time>2026-04-19T17:57:54.996Z</time></trkpt><trkpt lat="41.0005697" lon="15.6326314"><ele>508.4</ele><time>2026-04-19T17:57:55.997Z</time></trkpt><trkpt lat="41.0005316" lon="15.6327652"><ele>509.2</ele><time>2026-04-19T17:57:56.996Z</time></trkpt><trkpt lat="41.0004933" lon="15.6328987"><ele>510.0</ele><time>2026-04-19T17:57:57.996Z</time></trkpt><trkpt lat="41.0004593" lon="15.6330348"><ele>511.2</ele><time>2026-04-19T17:57:58.997Z</time></trkpt><trkpt lat="41.0004236" lon="15.6331702"><ele>512.4</ele><time>2026-04-19T17:57:59.997Z</time></trkpt><trkpt lat="41.00039" lon="15.6333069"><ele>513.6</ele><time>2026-04-19T17:58:00.997Z</time></trkpt><trkpt lat="41.000358" lon="15.6334466"><ele>514.8</ele><time>2026-04-19T17:58:01.996Z</time></trkpt><trkpt lat="41.0003233" lon="15.6335894"><ele>516.0</ele><time>2026-04-19T17:58:02.997Z</time></trkpt><trkpt lat="41.0002853" lon="15.6337317"><ele>516.25</ele><time>2026-04-19T17:58:03.996Z</time></trkpt><trkpt lat="41.0002435" lon="15.6338719"><ele>516.5</ele><time>2026-04-19T17:58:04.997Z</time></trkpt><trkpt lat="41.0001946" lon="15.6340101"><ele>516.75</ele><time>2026-04-19T17:58:05.996Z</time></trkpt><trkpt lat="41.000143" lon="15.6341485"><ele>517.0</ele><time>2026-04-19T17:58:06.997Z</time></trkpt><trkpt lat="41.0000909" lon="15.6342896"><ele>517.0</ele><time>2026-04-19T17:58:07.996Z</time></trkpt><trkpt lat="41.0000401" lon="15.6344286"><ele>517.0</ele><time>2026-04-19T17:58:08.996Z</time></trkpt><trkpt lat="40.9999904" lon="15.6345641"><ele>517.0</ele><time>2026-04-19T17:58:09.996Z</time></trkpt><trkpt lat="40.9999433" lon="15.6346956"><ele>517.0</ele><time>2026-04-19T17:58:10.996Z</time></trkpt><trkpt lat="40.9998981" lon="15.6348226"><ele>517.0</ele><time>2026-04-19T17:58:11.996Z</time></trkpt><trkpt lat="40.999852" lon="15.6349433"><ele>517.8000000000001</ele><time>2026-04-19T17:58:12.996Z</time></trkpt><trkpt lat="40.9998099" lon="15.63506"><ele>518.6</ele><time>2026-04-19T17:58:13.996Z</time></trkpt><trkpt lat="40.9997742" lon="15.6351761"><ele>519.4000000000001</ele><time>2026-04-19T17:58:14.996Z</time></trkpt><trkpt lat="40.9997439" lon="15.6352921"><ele>520.2</ele><time>2026-04-19T17:58:15.996Z</time></trkpt><trkpt lat="40.999712" lon="15.6354015"><ele>521.0</ele><time>2026-04-19T17:58:16.996Z</time></trkpt><trkpt lat="40.9996806" lon="15.6355047"><ele>521.6</ele><time>2026-04-19T17:58:17.996Z</time></trkpt><trkpt lat="40.9996465" lon="15.6356013"><ele>522.2</ele><time>2026-04-19T17:58:18.996Z</time></trkpt><trkpt lat="40.9996145" lon="15.6356894"><ele>522.8</ele><time>2026-04-19T17:58:19.996Z</time></trkpt><trkpt lat="40.9995832" lon="15.6357688"><ele>523.4</ele><time>2026-04-19T17:58:20.996Z</time></trkpt><trkpt lat="40.9994961" lon="15.6358762"><ele>524.0</ele><time>2026-04-19T17:58:22.997Z</time></trkpt><trkpt lat="40.9993774" lon="15.6359072"><ele>524.0</ele><time>2026-04-19T17:58:24.996Z</time></trkpt><trkpt lat="40.9993113" lon="15.635898"><ele>524.0</ele><time>2026-04-19T17:58:25.996Z</time></trkpt><trkpt lat="40.999244" lon="15.6358721"><ele>524.0</ele><time>2026-04-19T17:58:26.996Z</time></trkpt><trkpt lat="40.9991743" lon="15.6358496"><ele>524.0</ele><time>2026-04-19T17:58:27.996Z</time></trkpt><trkpt lat="40.9991039" lon="15.6358584"><ele>524.0</ele><time>2026-04-19T17:58:28.996Z</time></trkpt><trkpt lat="40.9990341" lon="15.635894"><ele>524.0</ele><time>2026-04-19T17:58:29.996Z</time></trkpt><trkpt lat="40.9989733" lon="15.6359434"><ele>524.0</ele><time>2026-04-19T17:58:30.996Z</time></trkpt><trkpt lat="40.9989271" lon="15.6360195"><ele>521.8333333333333</ele><time>2026-04-19T17:58:31.996Z</time></trkpt><trkpt lat="40.9988915" lon="15.6361101"><ele>519.6666666666666</ele><time>2026-04-19T17:58:32.996Z</time></trkpt><trkpt lat="40.9988573" lon="15.6362011"><ele>517.5</ele><time>2026-04-19T17:58:33.996Z</time></trkpt><trkpt lat="40.9988241" lon="15.6362955"><ele>515.3333333333334</ele><time>2026-04-19T17:58:34.996Z</time></trkpt><trkpt lat="40.9987947" lon="15.6363967"><ele>513.1666666666667</ele><time>2026-04-19T17:58:35.996Z</time></trkpt><trkpt lat="40.9987615" lon="15.6364986"><ele>511.0</ele><time>2026-04-19T17:58:36.996Z</time></trkpt><trkpt lat="40.9987233" lon="15.6366017"><ele>511.00000000000006</ele><time>2026-04-19T17:58:37.996Z</time></trkpt><trkpt lat="40.9986881" lon="15.6367066"><ele>511.0</ele><time>2026-04-19T17:58:38.996Z</time></trkpt><trkpt lat="40.9986553" lon="15.6368079"><ele>511.0</ele><time>2026-04-19T17:58:39.997Z</time></trkpt><trkpt lat="40.9986186" lon="15.6369073"><ele>511.0</ele><time>2026-04-19T17:58:40.996Z</time></trkpt><trkpt lat="40.9985799" lon="15.637007"><ele>511.00000000000006</ele><time>2026-04-19T17:58:41.996Z</time></trkpt><trkpt lat="40.9985419" lon="15.6371126"><ele>511.0</ele><time>2026-04-19T17:58:42.996Z</time></trkpt><trkpt lat="40.9984935" lon="15.6372093"><ele>511.8</ele><time>2026-04-19T17:58:43.997Z</time></trkpt><trkpt lat="40.9984375" lon="15.6373019"><ele>512.6</ele><time>2026-04-19T17:58:44.996Z</time></trkpt><trkpt lat="40.9983802" lon="15.6373987"><ele>513.4</ele><time>2026-04-19T17:58:45.997Z</time></trkpt><trkpt lat="40.9983201" lon="15.6375006"><ele>514.2</ele><time>2026-04-19T17:58:46.997Z</time></trkpt><trkpt lat="40.9982613" lon="15.637611"><ele>515.0</ele><time>2026-04-19T17:58:47.996Z</time></trkpt><trkpt lat="40.9981982" lon="15.6377247"><ele>513.2</ele><time>2026-04-19T17:58:48.996Z</time></trkpt><trkpt lat="40.9981328" lon="15.6378389"><ele>511.4</ele><time>2026-04-19T17:58:49.996Z</time></trkpt><trkpt lat="40.9980711" lon="15.6379603"><ele>509.6</ele><time>2026-04-19T17:58:50.996Z</time></trkpt><trkpt lat="40.9980078" lon="15.6380804"><ele>507.8</ele><time>2026-04-19T17:58:51.997Z</time></trkpt><trkpt lat="40.9979419" lon="15.6382037"><ele>506.0</ele><time>2026-04-19T17:58:52.996Z</time></trkpt><trkpt lat="40.9978791" lon="15.6383346"><ele>506.0</ele><time>2026-04-19T17:58:53.996Z</time></trkpt><trkpt lat="40.9978193" lon="15.6384612"><ele>506.0</ele><time>2026-04-19T17:58:54.997Z</time></trkpt><trkpt lat="40.9977668" lon="15.6385838"><ele>506.0</ele><time>2026-04-19T17:58:55.996Z</time></trkpt><trkpt lat="40.9977211" lon="15.6387028"><ele>506.0</ele><time>2026-04-19T17:58:56.996Z</time></trkpt><trkpt lat="40.9976789" lon="15.63882"><ele>506.0</ele><time>2026-04-19T17:58:57.996Z</time></trkpt><trkpt lat="40.997642" lon="15.6389302"><ele>506.16666666666663</ele><time>2026-04-19T17:58:58.996Z</time></trkpt><trkpt lat="40.9976055" lon="15.6390334"><ele>506.3333333333333</ele><time>2026-04-19T17:58:59.996Z</time></trkpt><trkpt lat="40.9975693" lon="15.6391239"><ele>506.5</ele><time>2026-04-19T17:59:00.997Z</time></trkpt><trkpt lat="40.9975313" lon="15.6392012"><ele>506.66666666666663</ele><time>2026-04-19T17:59:01.996Z</time></trkpt><trkpt lat="40.9974834" lon="15.6393315"><ele>506.8333333333333</ele><time>2026-04-19T17:59:03.996Z</time></trkpt><trkpt lat="40.9974707" lon="15.6394329"><ele>507.0</ele><time>2026-04-19T17:59:06.996Z</time></trkpt><trkpt lat="40.997459" lon="15.6395231"><ele>505.8</ele><time>2026-04-19T17:59:08.996Z</time></trkpt><trkpt lat="40.9974235" lon="15.6396869"><ele>504.6</ele><time>2026-04-19T17:59:10.996Z</time></trkpt><trkpt lat="40.997406" lon="15.6397855"><ele>503.40000000000003</ele><time>2026-04-19T17:59:11.996Z</time></trkpt><trkpt lat="40.9973889" lon="15.6398871"><ele>502.20000000000005</ele><time>2026-04-19T17:59:12.996Z</time></trkpt><trkpt lat="40.9973695" lon="15.6399952"><ele>501.0</ele><time>2026-04-19T17:59:13.996Z</time></trkpt><trkpt lat="40.9973524" lon="15.6401086"><ele>501.0</ele><time>2026-04-19T17:59:14.997Z</time></trkpt><trkpt lat="40.9973467" lon="15.6402227"><ele>501.0</ele><time>2026-04-19T17:59:15.996Z</time></trkpt><trkpt lat="40.9973605" lon="15.6403408"><ele>501.0</ele><time>2026-04-19T17:59:16.996Z</time></trkpt><trkpt lat="40.9973911" lon="15.6404594"><ele>501.0</ele><time>2026-04-19T17:59:17.996Z</time></trkpt><trkpt lat="40.9974331" lon="15.6405724"><ele>501.0</ele><time>2026-04-19T17:59:18.996Z</time></trkpt><trkpt lat="40.997478" lon="15.6406834"><ele>502.6</ele><time>2026-04-19T17:59:19.996Z</time></trkpt><trkpt lat="40.9975279" lon="15.6407921"><ele>504.20000000000005</ele><time>2026-04-19T17:59:20.996Z</time></trkpt><trkpt lat="40.9975762" lon="15.6409027"><ele>505.79999999999995</ele><time>2026-04-19T17:59:21.996Z</time></trkpt><trkpt lat="40.9976231" lon="15.6410143"><ele>507.4</ele><time>2026-04-19T17:59:22.996Z</time></trkpt><trkpt lat="40.9976734" lon="15.6411232"><ele>509.0</ele><time>2026-04-19T17:59:23.996Z</time></trkpt><trkpt lat="40.9977233" lon="15.6412318"><ele>508.99999999999994</ele><time>2026-04-19T17:59:24.996Z</time></trkpt><trkpt lat="40.9977683" lon="15.6413317"><ele>509.0</ele><time>2026-04-19T17:59:25.996Z</time></trkpt><trkpt lat="40.997805" lon="15.6414217"><ele>509.0</ele><time>2026-04-19T17:59:26.996Z</time></trkpt><trkpt lat="40.9978333" lon="15.6415"><ele>509.0</ele><time>2026-04-19T17:59:27.996Z</time></trkpt><trkpt lat="40.99787" lon="15.6416167"><ele>508.99999999999994</ele><time>2026-04-19T17:59:29.996Z</time></trkpt><trkpt lat="40.9979183" lon="15.641685"><ele>509.0</ele><time>2026-04-19T17:59:31.996Z</time></trkpt><trkpt lat="40.99801" lon="15.6416883"><ele>508.99999999999994</ele><time>2026-04-19T17:59:33.996Z</time></trkpt><trkpt lat="40.9980767" lon="15.6417433"><ele>509.0</ele><time>2026-04-19T17:59:35.997Z</time></trkpt><trkpt lat="40.998115" lon="15.6418767"><ele>509.0</ele><time>2026-04-19T17:59:37.996Z</time></trkpt><trkpt lat="40.9981217" lon="15.6419767"><ele>509.0</ele><time>2026-04-19T17:59:38.996Z</time></trkpt><trkpt lat="40.9981367" lon="15.6420867"><ele>508.99999999999994</ele><time>2026-04-19T17:59:39.996Z</time></trkpt><trkpt lat="40.99815" lon="15.6422083"><ele>509.0</ele><time>2026-04-19T17:59:40.996Z</time></trkpt><trkpt lat="40.998175" lon="15.6423333"><ele>509.0</ele><time>2026-04-19T17:59:41.996Z</time></trkpt><trkpt lat="40.9982017" lon="15.642465"><ele>509.0</ele><time>2026-04-19T17:59:42.996Z</time></trkpt><trkpt lat="40.9982233" lon="15.6425967"><ele>509.0</ele><time>2026-04-19T17:59:43.996Z</time></trkpt><trkpt lat="40.998245" lon="15.64272"><ele>509.0</ele><time>2026-04-19T17:59:44.996Z</time></trkpt><trkpt lat="40.9982633" lon="15.6428333"><ele>509.0</ele><time>2026-04-19T17:59:45.996Z</time></trkpt><trkpt lat="40.998275" lon="15.642935"><ele>509.99999999999994</ele><time>2026-04-19T17:59:46.996Z</time></trkpt><trkpt lat="40.9982817" lon="15.643025"><ele>511.0</ele><time>2026-04-19T17:59:47.996Z</time></trkpt><trkpt lat="40.99827" lon="15.6431083"><ele>511.99999999999994</ele><time>2026-04-19T17:59:48.997Z</time></trkpt><trkpt lat="40.998235" lon="15.6431833"><ele>513.0</ele><time>2026-04-19T17:59:49.996Z</time></trkpt><trkpt lat="40.9981783" lon="15.6432467"><ele>514.0</ele><time>2026-04-19T17:59:50.996Z</time></trkpt><trkpt lat="40.9981033" lon="15.6432917"><ele>514.9999999999999</ele><time>2026-04-19T17:59:51.996Z</time></trkpt><trkpt lat="40.9980283" lon="15.6433317"><ele>516.0</ele><time>2026-04-19T17:59:52.996Z</time></trkpt><trkpt lat="40.9979617" lon="15.6433783"><ele>516.0</ele><time>2026-04-19T17:59:53.996Z</time></trkpt><trkpt lat="40.997915" lon="15.64344"><ele>516.0</ele><time>2026-04-19T17:59:54.997Z</time></trkpt><trkpt lat="40.99787" lon="15.643585"><ele>516.0</ele><time>2026-04-19T17:59:56.996Z</time></trkpt><trkpt lat="40.9978583" lon="15.64367"><ele>516.0</ele><time>2026-04-19T17:59:57.996Z</time></trkpt><trkpt lat="40.997855" lon="15.64377"><ele>516.0</ele><time>2026-04-19T17:59:58.996Z</time></trkpt><trkpt lat="40.9978517" lon="15.6438767"><ele>516.0</ele><time>2026-04-19T17:59:59.996Z</time></trkpt><trkpt lat="40.99785" lon="15.6439867"><ele>516.3333333333334</ele><time>2026-04-19T18:00:00.996Z</time></trkpt><trkpt lat="40.9978483" lon="15.6440967"><ele>516.6666666666666</ele><time>2026-04-19T18:00:01.997Z</time></trkpt><trkpt lat="40.99785" lon="15.6442067"><ele>517.0</ele><time>2026-04-19T18:00:02.996Z</time></trkpt><trkpt lat="40.9978567" lon="15.64432"><ele>517.3333333333333</ele><time>2026-04-19T18:00:03.997Z</time></trkpt><trkpt lat="40.9978617" lon="15.64444"><ele>517.6666666666666</ele><time>2026-04-19T18:00:04.997Z</time></trkpt><trkpt lat="40.9978617" lon="15.6445633"><ele>518.0</ele><time>2026-04-19T18:00:05.996Z</time></trkpt><trkpt lat="40.9978667" lon="15.6446917"><ele>518.0</ele><time>2026-04-19T18:00:06.996Z</time></trkpt><trkpt lat="40.9978683" lon="15.644825"><ele>518.0</ele><time>2026-04-19T18:00:07.996Z</time></trkpt><trkpt lat="40.99787" lon="15.64496"><ele>518.0</ele><time>2026-04-19T18:00:08.996Z</time></trkpt><trkpt lat="40.9978667" lon="15.645095"><ele>518.0</ele><time>2026-04-19T18:00:09.996Z</time></trkpt><trkpt lat="40.9978667" lon="15.6452367"><ele>518.0</ele><time>2026-04-19T18:00:10.996Z</time></trkpt><trkpt lat="40.99787" lon="15.6453817"><ele>517.1999999999999</ele><time>2026-04-19T18:00:11.997Z</time></trkpt><trkpt lat="40.9978733" lon="15.64552"><ele>516.4</ele><time>2026-04-19T18:00:12.997Z</time></trkpt><trkpt lat="40.9978817" lon="15.6456483"><ele>515.5999999999999</ele><time>2026-04-19T18:00:13.996Z</time></trkpt><trkpt lat="40.997885" lon="15.6457683"><ele>514.8</ele><time>2026-04-19T18:00:14.996Z</time></trkpt><trkpt lat="40.997885" lon="15.6458817"><ele>514.0</ele><time>2026-04-19T18:00:15.996Z</time></trkpt><trkpt lat="40.997885" lon="15.645985"><ele>514.0</ele><time>2026-04-19T18:00:16.996Z</time></trkpt><trkpt lat="40.9978883" lon="15.64608"><ele>514.0</ele><time>2026-04-19T18:00:17.996Z</time></trkpt><trkpt lat="40.997885" lon="15.646165"><ele>514.0</ele><time>2026-04-19T18:00:18.996Z</time></trkpt><trkpt lat="40.99783" lon="15.6462883"><ele>514.0</ele><time>2026-04-19T18:00:20.996Z</time></trkpt><trkpt lat="40.9977083" lon="15.64633"><ele>514.0</ele><time>2026-04-19T18:00:22.996Z</time></trkpt><trkpt lat="40.9976333" lon="15.6463317"><ele>514.0</ele><time>2026-04-19T18:00:23.997Z</time></trkpt><trkpt lat="40.99756" lon="15.64633"><ele>514.5</ele><time>2026-04-19T18:00:24.997Z</time></trkpt><trkpt lat="40.9974967" lon="15.6463333"><ele>515.0</ele><time>2026-04-19T18:00:25.996Z</time></trkpt><trkpt lat="40.9973917" lon="15.6463567"><ele>515.5</ele><time>2026-04-19T18:00:27.996Z</time></trkpt><trkpt lat="40.9973117" lon="15.6464033"><ele>516.0</ele><time>2026-04-19T18:00:29.997Z</time></trkpt><trkpt lat="40.9972467" lon="15.6464467"><ele>516.5</ele><time>2026-04-19T18:00:31.996Z</time></trkpt><trkpt lat="40.9971817" lon="15.6464683"><ele>517.0</ele><time>2026-04-19T18:00:33.997Z</time></trkpt><trkpt lat="40.9971367" lon="15.6465767"><ele>517.0</ele><time>2026-04-19T18:00:36.996Z</time></trkpt><trkpt lat="40.9971283" lon="15.6466733"><ele>517.0</ele><time>2026-04-19T18:00:38.996Z</time></trkpt><trkpt lat="40.99712" lon="15.6467667"><ele>517.0</ele><time>2026-04-19T18:00:40.996Z</time></trkpt><trkpt lat="40.9971367" lon="15.6468812"><ele>517.0</ele><time>2026-04-19T18:00:43.977Z</time></trkpt><trkpt lat="40.9972004" lon="15.6469887"><ele>517.0</ele><time>2026-04-19T18:00:45.996Z</time></trkpt><trkpt lat="40.9972397" lon="15.6470679"><ele>517.0</ele><time>2026-04-19T18:00:46.997Z</time></trkpt><trkpt lat="40.9972737" lon="15.6471517"><ele>516.3333333333334</ele><time>2026-04-19T18:00:47.996Z</time></trkpt><trkpt lat="40.9973062" lon="15.6472352"><ele>515.6666666666667</ele><time>2026-04-19T18:00:48.996Z</time></trkpt><trkpt lat="40.9973406" lon="15.6473148"><ele>515.0</ele><time>2026-04-19T18:00:49.996Z</time></trkpt><trkpt lat="40.9973766" lon="15.6473913"><ele>514.3333333333334</ele><time>2026-04-19T18:00:50.997Z</time></trkpt><trkpt lat="40.9974418" lon="15.6475238"><ele>513.6666666666666</ele><time>2026-04-19T18:00:52.996Z</time></trkpt><trkpt lat="40.9975196" lon="15.6476082"><ele>513.0</ele><time>2026-04-19T18:00:54.996Z</time></trkpt><trkpt lat="40.9975607" lon="15.6476915"><ele>499.0</ele><time>2026-04-19T18:00:56.997Z</time></trkpt><trkpt lat="40.9975174" lon="15.647768"><ele>499.0</ele><time>2026-04-19T18:00:58.996Z</time></trkpt><trkpt lat="40.9974545" lon="15.6477621"><ele>513.0</ele><time>2026-04-19T18:01:00.996Z</time></trkpt><trkpt lat="40.997464" lon="15.6478481"><ele>497.0</ele><time>2026-04-19T18:01:03.328Z</time></trkpt><trkpt lat="40.9974019" lon="15.647831"><ele>497.0</ele><time>2026-04-19T18:01:05.247Z</time></trkpt></trkseg></trk></gpx>